<?xml version='1.0' encoding='UTF-8'?><gpx version="1.1" creator="JPX - https://github.com/jenetics/jpx" xmlns="http://www.topografix.com/GPX/1/1"><trk><trkseg><trkpt lat="42.92101253530031" lon="10.530658716893328"><ele>31.000000000000004</ele><time>2026-04-19T10:17:36Z</time></trkpt><trkpt lat="42.9210649228207" lon="10.53071959566409"><ele>31.0</ele><time>2026-04-19T10:21:00Z</time></trkpt><trkpt lat="42.920995314300875" lon="10.53087040537739"><ele>31.0</ele><time>2026-04-19T10:21:02Z</time></trkpt><trkpt lat="42.92096676048701" lon="10.530987359352693"><ele>31.0</ele><time>2026-04-19T10:21:03Z</time></trkpt><trkpt lat="42.9209092212765" lon="10.531077825928634"><ele>31.000000000000004</ele><time>2026-04-19T10:21:04Z</time></trkpt><trkpt lat="42.92088965438305" lon="10.531170183312364"><ele>31.0</ele><time>2026-04-19T10:21:05Z</time></trkpt><trkpt lat="42.92088584707823" lon="10.53125792450894"><ele>30.166666666666668</ele><time>2026-04-19T10:21:06Z</time></trkpt><trkpt lat="42.92092187306283" lon="10.531366721902176"><ele>29.333333333333336</ele><time>2026-04-19T10:21:07Z</time></trkpt><trkpt lat="42.92095416594079" lon="10.531475274822474"><ele>28.5</ele><time>2026-04-19T10:21:08Z</time></trkpt><trkpt lat="42.9209961902106" lon="10.531599279166736"><ele>27.666666666666664</ele><time>2026-04-19T10:21:09Z</time></trkpt><trkpt lat="42.92105241758717" lon="10.531686173755386"><ele>26.833333333333332</ele><time>2026-04-19T10:21:10Z</time></trkpt><trkpt lat="42.92110287374002" lon="10.531740261276559"><ele>26.0</ele><time>2026-04-19T10:21:11Z</time></trkpt><trkpt lat="42.9211900098226" lon="10.531749029504764"><ele>26.0</ele><time>2026-04-19T10:21:12Z</time></trkpt><trkpt lat="42.921299577422886" lon="10.531741887738596"><ele>26.0</ele><time>2026-04-19T10:21:13Z</time></trkpt><trkpt lat="42.921412038410715" lon="10.531734395956375"><ele>26.0</ele><time>2026-04-19T10:21:14Z</time></trkpt><trkpt lat="42.921506502947246" lon="10.531735863429859"><ele>26.0</ele><time>2026-04-19T10:21:15Z</time></trkpt><trkpt lat="42.921602757478006" lon="10.531780808745198"><ele>26.0</ele><time>2026-04-19T10:21:17Z</time></trkpt><trkpt lat="42.92167144352983" lon="10.53184712034076"><ele>26.0</ele><time>2026-04-19T10:21:20Z</time></trkpt><trkpt lat="42.921617143625" lon="10.532032813267493"><ele>26.0</ele><time>2026-04-19T10:21:21Z</time></trkpt><trkpt lat="42.92158280725682" lon="10.53213286210688"><ele>26.0</ele><time>2026-04-19T10:21:22Z</time></trkpt><trkpt lat="42.921543451223734" lon="10.532238188473615"><ele>26.0</ele><time>2026-04-19T10:21:23Z</time></trkpt><trkpt lat="42.92149628687639" lon="10.53234680918099"><ele>26.0</ele><time>2026-04-19T10:21:24Z</time></trkpt><trkpt lat="42.921441108111765" lon="10.532463333712066"><ele>24.8</ele><time>2026-04-19T10:21:25Z</time></trkpt><trkpt lat="42.921386448586766" lon="10.532587758223029"><ele>23.6</ele><time>2026-04-19T10:21:26Z</time></trkpt><trkpt lat="42.92132848781132" lon="10.532717181486925"><ele>22.4</ele><time>2026-04-19T10:21:27Z</time></trkpt><trkpt lat="42.921269606042614" lon="10.53284853728267"><ele>21.2</ele><time>2026-04-19T10:21:28Z</time></trkpt><trkpt lat="42.92121317671856" lon="10.532981988068455"><ele>20.0</ele><time>2026-04-19T10:21:29Z</time></trkpt><trkpt lat="42.92115486342502" lon="10.533111993133367"><ele>19.5</ele><time>2026-04-19T10:21:30Z</time></trkpt><trkpt lat="42.92110329749402" lon="10.533229172032447"><ele>19.0</ele><time>2026-04-19T10:21:31Z</time></trkpt><trkpt lat="42.9210602335541" lon="10.533322164180829"><ele>18.5</ele><time>2026-04-19T10:21:32Z</time></trkpt><trkpt lat="42.92102496677366" lon="10.53340282183053"><ele>18.0</ele><time>2026-04-19T10:21:33Z</time></trkpt><trkpt lat="42.92098197039778" lon="10.533527776538135"><ele>17.5</ele><time>2026-04-19T10:21:35Z</time></trkpt><trkpt lat="42.920976681720454" lon="10.533640427390079"><ele>17.0</ele><time>2026-04-19T10:21:38Z</time></trkpt><trkpt lat="42.92099496650606" lon="10.533722703288639"><ele>17.0</ele><time>2026-04-19T10:24:10.001Z</time></trkpt><trkpt lat="42.9210483923011" lon="10.533781784244884"><ele>17.0</ele><time>2026-04-19T10:24:13.001Z</time></trkpt><trkpt lat="42.921136715870546" lon="10.533797557313083"><ele>17.0</ele><time>2026-04-19T10:26:05.001Z</time></trkpt><trkpt lat="42.92119701738414" lon="10.53383165333401"><ele>17.0</ele><time>2026-04-19T10:26:07.001Z</time></trkpt><trkpt lat="42.92130117013102" lon="10.533898749971703"><ele>17.0</ele><time>2026-04-19T10:26:09.001Z</time></trkpt><trkpt lat="42.92139168008252" lon="10.533952110776884"><ele>17.0</ele><time>2026-04-19T10:26:10.001Z</time></trkpt><trkpt lat="42.921490874015" lon="10.534009666815399"><ele>17.0</ele><time>2026-04-19T10:26:11.001Z</time></trkpt><trkpt lat="42.92159700004285" lon="10.534069612604144"><ele>17.0</ele><time>2026-04-19T10:26:12.001Z</time></trkpt><trkpt lat="42.92171655533027" lon="10.534133198859793"><ele>17.0</ele><time>2026-04-19T10:26:13.001Z</time></trkpt><trkpt lat="42.921841141904466" lon="10.534203166237509"><ele>17.0</ele><time>2026-04-19T10:26:14.001Z</time></trkpt><trkpt lat="42.92196264470101" lon="10.534271812109475"><ele>17.2</ele><time>2026-04-19T10:26:15.001Z</time></trkpt><trkpt lat="42.922071517026154" lon="10.534336014245214"><ele>17.4</ele><time>2026-04-19T10:26:16Z</time></trkpt><trkpt lat="42.92216789386435" lon="10.534392591978554"><ele>17.6</ele><time>2026-04-19T10:26:17Z</time></trkpt><trkpt lat="42.92225206881402" lon="10.534445970024722"><ele>17.8</ele><time>2026-04-19T10:26:18Z</time></trkpt><trkpt lat="42.922317524228056" lon="10.534510754298683"><ele>18.0</ele><time>2026-04-19T10:26:19Z</time></trkpt><trkpt lat="42.922399044075654" lon="10.534591102433726"><ele>18.2</ele><time>2026-04-19T10:26:21Z</time></trkpt><trkpt lat="42.9223642263136" lon="10.534760242884184"><ele>18.4</ele><time>2026-04-19T10:26:22Z</time></trkpt><trkpt lat="42.922321741888204" lon="10.53485702612282"><ele>18.599999999999998</ele><time>2026-04-19T10:26:23Z</time></trkpt><trkpt lat="42.922277599871386" lon="10.534954377111898"><ele>18.8</ele><time>2026-04-19T10:26:24Z</time></trkpt><trkpt lat="42.92225400810261" lon="10.535054877957494"><ele>19.0</ele><time>2026-04-19T10:26:25Z</time></trkpt><trkpt lat="42.92222824180527" lon="10.535197497797325"><ele>19.0</ele><time>2026-04-19T10:26:27Z</time></trkpt><trkpt lat="42.922360243664734" lon="10.535343338413623"><ele>19.0</ele><time>2026-04-19T10:26:28Z</time></trkpt><trkpt lat="42.92244278633402" lon="10.535439723265464"><ele>19.0</ele><time>2026-04-19T10:26:29Z</time></trkpt><trkpt lat="42.922529875113625" lon="10.535554305102448"><ele>19.0</ele><time>2026-04-19T10:26:30Z</time></trkpt><trkpt lat="42.922626179852976" lon="10.535679831754095"><ele>19.25</ele><time>2026-04-19T10:26:31Z</time></trkpt><trkpt lat="42.92272645665899" lon="10.535812824361626"><ele>19.5</ele><time>2026-04-19T10:26:32Z</time></trkpt><trkpt lat="42.92282779176888" lon="10.535941928518774"><ele>19.75</ele><time>2026-04-19T10:26:33Z</time></trkpt><trkpt lat="42.922938284797034" lon="10.536072929233981"><ele>20.0</ele><time>2026-04-19T10:26:34Z</time></trkpt><trkpt lat="42.92304708973084" lon="10.536206277944965"><ele>21.25</ele><time>2026-04-19T10:26:35Z</time></trkpt><trkpt lat="42.92315703043582" lon="10.536350321393583"><ele>22.5</ele><time>2026-04-19T10:26:36Z</time></trkpt><trkpt lat="42.923256884145864" lon="10.536501936469861"><ele>23.75</ele><time>2026-04-19T10:26:37Z</time></trkpt><trkpt lat="42.92333621987679" lon="10.536671320728011"><ele>25.0</ele><time>2026-04-19T10:26:38Z</time></trkpt><trkpt lat="42.92341142627379" lon="10.536844737052872"><ele>25.0</ele><time>2026-04-19T10:26:39Z</time></trkpt><trkpt lat="42.92348864007657" lon="10.53701084434398"><ele>25.0</ele><time>2026-04-19T10:26:40Z</time></trkpt><trkpt lat="42.92357092754985" lon="10.537170442751583"><ele>25.0</ele><time>2026-04-19T10:26:41Z</time></trkpt><trkpt lat="42.92365175472338" lon="10.537320458139765"><ele>25.0</ele><time>2026-04-19T10:26:42Z</time></trkpt><trkpt lat="42.92373531528671" lon="10.537460157147331"><ele>25.75</ele><time>2026-04-19T10:26:43Z</time></trkpt><trkpt lat="42.92382320653733" lon="10.53759210485787"><ele>26.5</ele><time>2026-04-19T10:26:44Z</time></trkpt><trkpt lat="42.92390848042907" lon="10.537716563971301"><ele>27.25</ele><time>2026-04-19T10:26:45Z</time></trkpt><trkpt lat="42.92398954094504" lon="10.537834213224171"><ele>28.0</ele><time>2026-04-19T10:26:46Z</time></trkpt><trkpt lat="42.92406155805434" lon="10.537959927611318"><ele>27.4</ele><time>2026-04-19T10:26:47Z</time></trkpt><trkpt lat="42.92411468478044" lon="10.538100671338903"><ele>26.799999999999997</ele><time>2026-04-19T10:26:48Z</time></trkpt><trkpt lat="42.92415625940348" lon="10.53822518188682"><ele>26.2</ele><time>2026-04-19T10:26:49Z</time></trkpt><trkpt lat="42.92418954705174" lon="10.538324922526419"><ele>25.6</ele><time>2026-04-19T10:26:50Z</time></trkpt><trkpt lat="42.9242951415691" lon="10.538356712424186"><ele>25.0</ele><time>2026-04-19T10:26:51Z</time></trkpt><trkpt lat="42.92437983996553" lon="10.538412006004402"><ele>25.0</ele><time>2026-04-19T10:26:52Z</time></trkpt><trkpt lat="42.92446608744834" lon="10.53849693380197"><ele>25.0</ele><time>2026-04-19T10:26:53Z</time></trkpt><trkpt lat="42.92457755994761" lon="10.538579841409899"><ele>25.0</ele><time>2026-04-19T10:26:54Z</time></trkpt><trkpt lat="42.92471133790847" lon="10.53864530980728"><ele>25.0</ele><time>2026-04-19T10:26:55Z</time></trkpt><trkpt lat="42.92484929605813" lon="10.538718029562732"><ele>25.0</ele><time>2026-04-19T10:26:56Z</time></trkpt><trkpt lat="42.924978680211204" lon="10.538788237166019"><ele>25.0</ele><time>2026-04-19T10:26:57Z</time></trkpt><trkpt lat="42.92509594242618" lon="10.538850120508018"><ele>25.0</ele><time>2026-04-19T10:26:58Z</time></trkpt><trkpt lat="42.92521761487708" lon="10.5389169344498"><ele>25.0</ele><time>2026-04-19T10:26:59.001Z</time></trkpt><trkpt lat="42.9253397293176" lon="10.538986154361988"><ele>23.6</ele><time>2026-04-19T10:27:00.001Z</time></trkpt><trkpt lat="42.92544747494638" lon="10.539049631669036"><ele>22.2</ele><time>2026-04-19T10:27:01.001Z</time></trkpt><trkpt lat="42.925539270609846" lon="10.539097811778568"><ele>20.8</ele><time>2026-04-19T10:27:02.001Z</time></trkpt><trkpt lat="42.925618365782" lon="10.539131833664012"><ele>19.4</ele><time>2026-04-19T10:27:03.001Z</time></trkpt><trkpt lat="42.92568911370418" lon="10.539173375766046"><ele>18.0</ele><time>2026-04-19T10:27:04.001Z</time></trkpt><trkpt lat="42.92576179301296" lon="10.539206776375192"><ele>18.0</ele><time>2026-04-19T10:27:05.001Z</time></trkpt><trkpt lat="42.9258471380511" lon="10.539206377371812"><ele>18.0</ele><time>2026-04-19T10:27:06.001Z</time></trkpt><trkpt lat="42.925930186421105" lon="10.539188387497639"><ele>18.0</ele><time>2026-04-19T10:27:07.001Z</time></trkpt><trkpt lat="42.92598819018717" lon="10.539083712567361"><ele>18.0</ele><time>2026-04-19T10:27:08.001Z</time></trkpt><trkpt lat="42.92598236701298" lon="10.538935744795053"><ele>18.0</ele><time>2026-04-19T10:27:09.001Z</time></trkpt><trkpt lat="42.92597165780705" lon="10.538773362361475"><ele>17.75</ele><time>2026-04-19T10:27:10.001Z</time></trkpt><trkpt lat="42.92595016580505" lon="10.53861443169175"><ele>17.5</ele><time>2026-04-19T10:27:11.001Z</time></trkpt><trkpt lat="42.92591356622741" lon="10.538435735606487"><ele>17.25</ele><time>2026-04-19T10:27:12.001Z</time></trkpt><trkpt lat="42.925865253086776" lon="10.53824326169861"><ele>17.0</ele><time>2026-04-19T10:27:13.001Z</time></trkpt><trkpt lat="42.92581022890062" lon="10.538049089202605"><ele>16.0</ele><time>2026-04-19T10:27:14.001Z</time></trkpt><trkpt lat="42.92577090920916" lon="10.537874556546504"><ele>15.0</ele><time>2026-04-19T10:27:15.001Z</time></trkpt><trkpt lat="42.92569809480251" lon="10.537733873271103"><ele>14.0</ele><time>2026-04-19T10:27:16.001Z</time></trkpt><trkpt lat="42.92575975231718" lon="10.537482179068926"><ele>14.0</ele><time>2026-04-19T10:27:17Z</time></trkpt><trkpt lat="42.925780340492814" lon="10.537269948854336"><ele>14.0</ele><time>2026-04-19T10:27:18Z</time></trkpt><trkpt lat="42.9258050058715" lon="10.537064082428776"><ele>14.0</ele><time>2026-04-19T10:27:19Z</time></trkpt><trkpt lat="42.925821179885894" lon="10.536847568336512"><ele>14.0</ele><time>2026-04-19T10:27:20Z</time></trkpt><trkpt lat="42.92584127158447" lon="10.536625718122476"><ele>14.0</ele><time>2026-04-19T10:27:21Z</time></trkpt><trkpt lat="42.92586338265465" lon="10.536409407411481"><ele>14.0</ele><time>2026-04-19T10:27:22Z</time></trkpt><trkpt lat="42.925886482818626" lon="10.536191450771064"><ele>13.666666666666668</ele><time>2026-04-19T10:27:23Z</time></trkpt><trkpt lat="42.92592243532796" lon="10.53597250562545"><ele>13.333333333333332</ele><time>2026-04-19T10:27:24Z</time></trkpt><trkpt lat="42.9259766700233" lon="10.53575462524873"><ele>13.0</ele><time>2026-04-19T10:27:25Z</time></trkpt><trkpt lat="42.92604121335881" lon="10.53553743546694"><ele>13.0</ele><time>2026-04-19T10:27:26Z</time></trkpt><trkpt lat="42.92610552830762" lon="10.5353278374042"><ele>13.0</ele><time>2026-04-19T10:27:27Z</time></trkpt><trkpt lat="42.92616995467448" lon="10.535131167382007"><ele>13.0</ele><time>2026-04-19T10:27:28Z</time></trkpt><trkpt lat="42.926229580893036" lon="10.53496285471069"><ele>13.0</ele><time>2026-04-19T10:27:29Z</time></trkpt><trkpt lat="42.92628897536201" lon="10.534816974342744"><ele>13.0</ele><time>2026-04-19T10:27:30Z</time></trkpt><trkpt lat="42.92634625408686" lon="10.53470877257367"><ele>13.0</ele><time>2026-04-19T10:27:31Z</time></trkpt><trkpt lat="42.92639664291089" lon="10.534625092384067"><ele>13.0</ele><time>2026-04-19T10:27:32Z</time></trkpt><trkpt lat="42.926506076786325" lon="10.53455034779298"><ele>13.0</ele><time>2026-04-19T10:27:34Z</time></trkpt><trkpt lat="42.92658049664683" lon="10.534530165956042"><ele>12.75</ele><time>2026-04-19T10:27:35Z</time></trkpt><trkpt lat="42.92666361492069" lon="10.534500379072178"><ele>12.5</ele><time>2026-04-19T10:27:36Z</time></trkpt><trkpt lat="42.92675572453067" lon="10.534440097514155"><ele>12.25</ele><time>2026-04-19T10:27:37Z</time></trkpt><trkpt lat="42.926855135660645" lon="10.534332097563642"><ele>12.0</ele><time>2026-04-19T10:27:38Z</time></trkpt><trkpt lat="42.926958505940775" lon="10.534213948721717"><ele>11.75</ele><time>2026-04-19T10:27:39Z</time></trkpt><trkpt lat="42.927070616945215" lon="10.534084416488286"><ele>11.5</ele><time>2026-04-19T10:27:40Z</time></trkpt><trkpt lat="42.92718088076171" lon="10.533961154943727"><ele>11.25</ele><time>2026-04-19T10:27:41Z</time></trkpt><trkpt lat="42.927290976095726" lon="10.533834944101645"><ele>11.0</ele><time>2026-04-19T10:27:42Z</time></trkpt><trkpt lat="42.92740600029741" lon="10.53370067171694"><ele>12.0</ele><time>2026-04-19T10:27:43Z</time></trkpt><trkpt lat="42.927513919456594" lon="10.533577950876177"><ele>13.0</ele><time>2026-04-19T10:27:44Z</time></trkpt><trkpt lat="42.927620801962256" lon="10.533464806287453"><ele>14.0</ele><time>2026-04-19T10:27:45Z</time></trkpt><trkpt lat="42.927741486964884" lon="10.533365211671999"><ele>15.0</ele><time>2026-04-19T10:27:46Z</time></trkpt><trkpt lat="42.92786498382489" lon="10.533278247909658"><ele>15.333333333333334</ele><time>2026-04-19T10:27:47Z</time></trkpt><trkpt lat="42.92796510799648" lon="10.533206933123887"><ele>15.666666666666668</ele><time>2026-04-19T10:27:48Z</time></trkpt><trkpt lat="42.92804893739703" lon="10.533135785244555"><ele>16.0</ele><time>2026-04-19T10:27:49Z</time></trkpt><trkpt lat="42.928110653347545" lon="10.533061027244079"><ele>16.333333333333336</ele><time>2026-04-19T10:27:50Z</time></trkpt><trkpt lat="42.92816303210886" lon="10.532997246502157"><ele>16.666666666666668</ele><time>2026-04-19T10:27:51Z</time></trkpt><trkpt lat="42.928186236432055" lon="10.532896849166603"><ele>17.0</ele><time>2026-04-19T10:27:52Z</time></trkpt><trkpt lat="42.928116425757274" lon="10.532761103498256"><ele>17.0</ele><time>2026-04-19T10:27:53Z</time></trkpt><trkpt lat="42.92805582253141" lon="10.532643960668517"><ele>17.0</ele><time>2026-04-19T10:27:54Z</time></trkpt><trkpt lat="42.92798085266142" lon="10.5325193408833"><ele>17.0</ele><time>2026-04-19T10:27:55Z</time></trkpt><trkpt lat="42.92790363520354" lon="10.53237873259084"><ele>17.0</ele><time>2026-04-19T10:27:56Z</time></trkpt><trkpt lat="42.92783078436299" lon="10.532227118382224"><ele>17.0</ele><time>2026-04-19T10:27:57Z</time></trkpt><trkpt lat="42.92776922567872" lon="10.532082012794133"><ele>17.0</ele><time>2026-04-19T10:27:58Z</time></trkpt><trkpt lat="42.92772386554965" lon="10.531948826984696"><ele>17.0</ele><time>2026-04-19T10:27:59Z</time></trkpt><trkpt lat="42.927695903002686" lon="10.5318234001282"><ele>17.0</ele><time>2026-04-19T10:28:00Z</time></trkpt><trkpt lat="42.92768560209109" lon="10.531700988157311"><ele>17.0</ele><time>2026-04-19T10:28:01Z</time></trkpt><trkpt lat="42.92768646304145" lon="10.531573333138388"><ele>16.8</ele><time>2026-04-19T10:28:02Z</time></trkpt><trkpt lat="42.927694483920206" lon="10.531444875927807"><ele>16.6</ele><time>2026-04-19T10:28:03Z</time></trkpt><trkpt lat="42.92770272147378" lon="10.531313452278964"><ele>16.400000000000002</ele><time>2026-04-19T10:28:04Z</time></trkpt><trkpt lat="42.9277225038077" lon="10.531171874047036"><ele>16.2</ele><time>2026-04-19T10:28:05Z</time></trkpt><trkpt lat="42.92775864713133" lon="10.531021123303079"><ele>16.0</ele><time>2026-04-19T10:28:06Z</time></trkpt><trkpt lat="42.927810983713925" lon="10.530870161273999"><ele>16.0</ele><time>2026-04-19T10:28:07Z</time></trkpt><trkpt lat="42.92787392477499" lon="10.530712280964488"><ele>16.0</ele><time>2026-04-19T10:28:08Z</time></trkpt><trkpt lat="42.92793394066371" lon="10.530547325497162"><ele>16.0</ele><time>2026-04-19T10:28:09Z</time></trkpt><trkpt lat="42.927991544685625" lon="10.530385990699893"><ele>16.0</ele><time>2026-04-19T10:28:10Z</time></trkpt><trkpt lat="42.928049133315355" lon="10.53022188999788"><ele>17.0</ele><time>2026-04-19T10:28:11Z</time></trkpt><trkpt lat="42.928110445277525" lon="10.530052461900349"><ele>18.0</ele><time>2026-04-19T10:28:12Z</time></trkpt><trkpt lat="42.92816811300499" lon="10.529879189352755"><ele>19.0</ele><time>2026-04-19T10:28:13Z</time></trkpt><trkpt lat="42.92822602182602" lon="10.529709921938169"><ele>20.0</ele><time>2026-04-19T10:28:14Z</time></trkpt><trkpt lat="42.92828353751794" lon="10.529536157797942"><ele>20.25</ele><time>2026-04-19T10:28:15Z</time></trkpt><trkpt lat="42.92834296543131" lon="10.529358746574841"><ele>20.5</ele><time>2026-04-19T10:28:16Z</time></trkpt><trkpt lat="42.92840189429193" lon="10.529183920049862"><ele>20.75</ele><time>2026-04-19T10:28:17Z</time></trkpt><trkpt lat="42.92845763860203" lon="10.529021105877023"><ele>21.0</ele><time>2026-04-19T10:28:18Z</time></trkpt><trkpt lat="42.928511197050206" lon="10.528854416014163"><ele>19.75</ele><time>2026-04-19T10:28:19Z</time></trkpt><trkpt lat="42.92856599976505" lon="10.528676462389948"><ele>18.5</ele><time>2026-04-19T10:28:20Z</time></trkpt><trkpt lat="42.92862630953038" lon="10.528491387645781"><ele>17.25</ele><time>2026-04-19T10:28:21Z</time></trkpt><trkpt lat="42.92868638479195" lon="10.528302271703014"><ele>16.0</ele><time>2026-04-19T10:28:22Z</time></trkpt><trkpt lat="42.92874683441718" lon="10.528109554853478"><ele>16.0</ele><time>2026-04-19T10:28:23Z</time></trkpt><trkpt lat="42.928801825620894" lon="10.527924942116734"><ele>16.0</ele><time>2026-04-19T10:28:24Z</time></trkpt><trkpt lat="42.92885445686045" lon="10.527745132231622"><ele>16.0</ele><time>2026-04-19T10:28:25Z</time></trkpt><trkpt lat="42.92889471628797" lon="10.527598615993165"><ele>16.0</ele><time>2026-04-19T10:28:26Z</time></trkpt><trkpt lat="42.92893728030943" lon="10.527460053185358"><ele>16.75</ele><time>2026-04-19T10:28:27Z</time></trkpt><trkpt lat="42.92898694036799" lon="10.527313699218318"><ele>17.5</ele><time>2026-04-19T10:28:28Z</time></trkpt><trkpt lat="42.92903387709418" lon="10.527150039459826"><ele>18.25</ele><time>2026-04-19T10:28:29Z</time></trkpt><trkpt lat="42.929085064622704" lon="10.526995678084186"><ele>19.0</ele><time>2026-04-19T10:28:30Z</time></trkpt><trkpt lat="42.929128874132765" lon="10.526857935830892"><ele>20.0</ele><time>2026-04-19T10:28:31Z</time></trkpt><trkpt lat="42.92917520138569" lon="10.5267235370744"><ele>21.0</ele><time>2026-04-19T10:28:32Z</time></trkpt><trkpt lat="42.92921103649256" lon="10.526606310118126"><ele>22.0</ele><time>2026-04-19T10:28:33Z</time></trkpt><trkpt lat="42.92925298542202" lon="10.526484099554287"><ele>23.0</ele><time>2026-04-19T10:28:34Z</time></trkpt><trkpt lat="42.92930643910293" lon="10.526358893409668"><ele>24.0</ele><time>2026-04-19T10:28:35Z</time></trkpt><trkpt lat="42.92937073439708" lon="10.52623273177361"><ele>25.2</ele><time>2026-04-19T10:28:36Z</time></trkpt><trkpt lat="42.92941653662609" lon="10.526070317240121"><ele>26.4</ele><time>2026-04-19T10:28:37Z</time></trkpt><trkpt lat="42.92948283298938" lon="10.525967023124206"><ele>27.6</ele><time>2026-04-19T10:28:38Z</time></trkpt><trkpt lat="42.92960748014449" lon="10.525958039109641"><ele>28.8</ele><time>2026-04-19T10:28:39Z</time></trkpt><trkpt lat="42.92968672238256" lon="10.525897811351804"><ele>30.0</ele><time>2026-04-19T10:28:40Z</time></trkpt><trkpt lat="42.929775104526556" lon="10.525842111553368"><ele>30.0</ele><time>2026-04-19T10:28:41Z</time></trkpt><trkpt lat="42.92986173225271" lon="10.525811426266111"><ele>30.0</ele><time>2026-04-19T10:28:42Z</time></trkpt><trkpt lat="42.92998648220549" lon="10.525755269975274"><ele>30.0</ele><time>2026-04-19T10:28:44Z</time></trkpt><trkpt lat="42.930050918963154" lon="10.525745931294603"><ele>30.0</ele><time>2026-04-19T10:28:45Z</time></trkpt><trkpt lat="42.93015651909848" lon="10.525758361046057"><ele>30.0</ele><time>2026-04-19T10:28:47Z</time></trkpt><trkpt lat="42.93023525315577" lon="10.525759138407551"><ele>30.2</ele><time>2026-04-19T10:28:48Z</time></trkpt><trkpt lat="42.930337397648714" lon="10.525788107663605"><ele>30.4</ele><time>2026-04-19T10:28:49Z</time></trkpt><trkpt lat="42.930436017455605" lon="10.525829200150444"><ele>30.6</ele><time>2026-04-19T10:28:50Z</time></trkpt><trkpt lat="42.930514403733504" lon="10.525871596778632"><ele>30.8</ele><time>2026-04-19T10:28:52Z</time></trkpt><trkpt lat="42.93058375417972" lon="10.52586622045394"><ele>31.0</ele><time>2026-04-19T10:28:56Z</time></trkpt><trkpt lat="42.93069951180393" lon="10.525753839632234"><ele>31.0</ele><time>2026-04-19T10:28:58Z</time></trkpt><trkpt lat="42.930739888382114" lon="10.525628357175808"><ele>31.0</ele><time>2026-04-19T10:28:59Z</time></trkpt><trkpt lat="42.93077247386779" lon="10.525481121676213"><ele>31.0</ele><time>2026-04-19T10:29:00Z</time></trkpt><trkpt lat="42.93085110889587" lon="10.525348540760005"><ele>31.0</ele><time>2026-04-19T10:29:01Z</time></trkpt><trkpt lat="42.930957132213905" lon="10.52523066585558"><ele>32.25</ele><time>2026-04-19T10:29:02Z</time></trkpt><trkpt lat="42.9310557662878" lon="10.525089573983202"><ele>33.5</ele><time>2026-04-19T10:29:03Z</time></trkpt><trkpt lat="42.931159117095966" lon="10.524941734828616"><ele>34.75</ele><time>2026-04-19T10:29:04Z</time></trkpt><trkpt lat="42.93125705189951" lon="10.524802182484308"><ele>36.0</ele><time>2026-04-19T10:29:05Z</time></trkpt><trkpt lat="42.93135819793221" lon="10.5246575544361"><ele>37.666666666666664</ele><time>2026-04-19T10:29:06Z</time></trkpt><trkpt lat="42.93146165170118" lon="10.524509626528081"><ele>39.33333333333333</ele><time>2026-04-19T10:29:07Z</time></trkpt><trkpt lat="42.93157148423273" lon="10.52435224020016"><ele>41.0</ele><time>2026-04-19T10:29:08Z</time></trkpt><trkpt lat="42.93166086642589" lon="10.524191677045302"><ele>41.75</ele><time>2026-04-19T10:29:09Z</time></trkpt><trkpt lat="42.93176703495078" lon="10.524044075352261"><ele>42.5</ele><time>2026-04-19T10:29:10Z</time></trkpt><trkpt lat="42.931876963326694" lon="10.5239170964136"><ele>43.25</ele><time>2026-04-19T10:29:11Z</time></trkpt><trkpt lat="42.93196338325916" lon="10.52376627685272"><ele>44.0</ele><time>2026-04-19T10:29:12Z</time></trkpt><trkpt lat="42.93205698966129" lon="10.52363507784628"><ele>44.0</ele><time>2026-04-19T10:29:13Z</time></trkpt><trkpt lat="42.932148098920514" lon="10.523505682787828"><ele>44.0</ele><time>2026-04-19T10:29:14Z</time></trkpt><trkpt lat="42.93224038596279" lon="10.52338337110862"><ele>44.0</ele><time>2026-04-19T10:29:15Z</time></trkpt><trkpt lat="42.93231932986627" lon="10.523281247109052"><ele>44.0</ele><time>2026-04-19T10:29:16Z</time></trkpt><trkpt lat="42.9323877810523" lon="10.523205204258655"><ele>44.0</ele><time>2026-04-19T10:29:17Z</time></trkpt><trkpt lat="42.93245320580698" lon="10.523137406340519"><ele>44.0</ele><time>2026-04-19T10:29:18Z</time></trkpt><trkpt lat="42.93249946861484" lon="10.52306379784104"><ele>44.0</ele><time>2026-04-19T10:29:19Z</time></trkpt><trkpt lat="42.93254397471196" lon="10.522998949303492"><ele>44.0</ele><time>2026-04-19T10:29:20Z</time></trkpt><trkpt lat="42.932588155853196" lon="10.5229345742619"><ele>44.0</ele><time>2026-04-19T10:29:21Z</time></trkpt><trkpt lat="42.93273898930953" lon="10.522976224257572"><ele>44.0</ele><time>2026-04-19T10:29:22Z</time></trkpt><trkpt lat="42.93280278753434" lon="10.522999719289098"><ele>44.400000000000006</ele><time>2026-04-19T10:29:23Z</time></trkpt><trkpt lat="42.93293981306063" lon="10.523027783235683"><ele>44.8</ele><time>2026-04-19T10:29:25Z</time></trkpt><trkpt lat="42.93302566331815" lon="10.52303313545343"><ele>45.2</ele><time>2026-04-19T10:29:26Z</time></trkpt><trkpt lat="42.933108767332094" lon="10.523031833233343"><ele>45.599999999999994</ele><time>2026-04-19T10:29:27Z</time></trkpt><trkpt lat="42.933188101727474" lon="10.523027723261704"><ele>46.0</ele><time>2026-04-19T10:29:28Z</time></trkpt><trkpt lat="42.933273670374305" lon="10.523013936901537"><ele>46.0</ele><time>2026-04-19T10:29:29Z</time></trkpt><trkpt lat="42.933362860005055" lon="10.522980487617025"><ele>46.0</ele><time>2026-04-19T10:29:30Z</time></trkpt><trkpt lat="42.933454175412685" lon="10.522946482250816"><ele>46.0</ele><time>2026-04-19T10:29:31Z</time></trkpt><trkpt lat="42.933534041239554" lon="10.522917736509436"><ele>46.0</ele><time>2026-04-19T10:29:32Z</time></trkpt><trkpt lat="42.93361128573246" lon="10.522892314606992"><ele>46.0</ele><time>2026-04-19T10:29:33Z</time></trkpt><trkpt lat="42.933676484054914" lon="10.522873367997326"><ele>46.0</ele><time>2026-04-19T10:29:34Z</time></trkpt><trkpt lat="42.93379845173187" lon="10.522871012964897"><ele>46.599999999999994</ele><time>2026-04-19T10:29:36Z</time></trkpt><trkpt lat="42.93392024870836" lon="10.522834219592777"><ele>47.2</ele><time>2026-04-19T10:29:38Z</time></trkpt><trkpt lat="42.93399385498339" lon="10.522815893235132"><ele>47.8</ele><time>2026-04-19T10:29:39Z</time></trkpt><trkpt lat="42.93407097395883" lon="10.522785296393701"><ele>48.400000000000006</ele><time>2026-04-19T10:29:40Z</time></trkpt><trkpt lat="42.934185151240584" lon="10.5227323133969"><ele>49.0</ele><time>2026-04-19T10:29:41Z</time></trkpt><trkpt lat="42.934311642052364" lon="10.522705886647916"><ele>49.0</ele><time>2026-04-19T10:29:42Z</time></trkpt><trkpt lat="42.93444698349077" lon="10.522686339407784"><ele>49.0</ele><time>2026-04-19T10:29:43Z</time></trkpt><trkpt lat="42.93458943870955" lon="10.5226604836306"><ele>49.0</ele><time>2026-04-19T10:29:44Z</time></trkpt><trkpt lat="42.93474092006846" lon="10.522643992229034"><ele>49.0</ele><time>2026-04-19T10:29:45Z</time></trkpt><trkpt lat="42.934894518688864" lon="10.522634820358546"><ele>49.0</ele><time>2026-04-19T10:29:46Z</time></trkpt><trkpt lat="42.93503678996663" lon="10.522628528273286"><ele>49.0</ele><time>2026-04-19T10:29:47Z</time></trkpt><trkpt lat="42.93517982540619" lon="10.522627671841963"><ele>49.0</ele><time>2026-04-19T10:29:48Z</time></trkpt><trkpt lat="42.93532728337126" lon="10.52263148098843"><ele>49.0</ele><time>2026-04-19T10:29:49Z</time></trkpt><trkpt lat="42.93547506054941" lon="10.522654796963952"><ele>50.0</ele><time>2026-04-19T10:29:50Z</time></trkpt><trkpt lat="42.935628030871705" lon="10.52270576755073"><ele>51.0</ele><time>2026-04-19T10:29:51Z</time></trkpt><trkpt lat="42.935782244138835" lon="10.522762598611703"><ele>52.0</ele><time>2026-04-19T10:29:52Z</time></trkpt><trkpt lat="42.93593916370377" lon="10.522811297320038"><ele>53.5</ele><time>2026-04-19T10:29:53Z</time></trkpt><trkpt lat="42.93608775964458" lon="10.522845109409744"><ele>55.0</ele><time>2026-04-19T10:29:54Z</time></trkpt><trkpt lat="42.936234839695246" lon="10.52286406101694"><ele>56.5</ele><time>2026-04-19T10:29:55Z</time></trkpt><trkpt lat="42.9363842466462" lon="10.522863036065152"><ele>58.0</ele><time>2026-04-19T10:29:56Z</time></trkpt><trkpt lat="42.936542174257994" lon="10.52285465782973"><ele>58.0</ele><time>2026-04-19T10:29:57Z</time></trkpt><trkpt lat="42.93669563633712" lon="10.522850977922147"><ele>58.0</ele><time>2026-04-19T10:29:58Z</time></trkpt><trkpt lat="42.9368306694648" lon="10.522849514865534"><ele>58.0</ele><time>2026-04-19T10:29:59Z</time></trkpt><trkpt lat="42.936965200837534" lon="10.52284794842655"><ele>58.0</ele><time>2026-04-19T10:30:00Z</time></trkpt><trkpt lat="42.937101758819516" lon="10.522857242388746"><ele>58.5</ele><time>2026-04-19T10:30:01Z</time></trkpt><trkpt lat="42.937241625062775" lon="10.522889035972893"><ele>59.0</ele><time>2026-04-19T10:30:02Z</time></trkpt><trkpt lat="42.93737284739904" lon="10.522939965937232"><ele>59.5</ele><time>2026-04-19T10:30:03Z</time></trkpt><trkpt lat="42.9374699898996" lon="10.522980703479254"><ele>60.0</ele><time>2026-04-19T10:30:04Z</time></trkpt><trkpt lat="42.93754276448938" lon="10.523007524723566"><ele>60.4</ele><time>2026-04-19T10:30:05Z</time></trkpt><trkpt lat="42.93765941322593" lon="10.523002332050604"><ele>60.8</ele><time>2026-04-19T10:30:07Z</time></trkpt><trkpt lat="42.93773973284633" lon="10.523023222962822"><ele>61.2</ele><time>2026-04-19T10:30:08Z</time></trkpt><trkpt lat="42.93783848649033" lon="10.522993620266762"><ele>61.6</ele><time>2026-04-19T10:30:09Z</time></trkpt><trkpt lat="42.937947814720566" lon="10.52296134871161"><ele>62.0</ele><time>2026-04-19T10:30:10Z</time></trkpt><trkpt lat="42.93807003051438" lon="10.522964159253933"><ele>62.0</ele><time>2026-04-19T10:30:11Z</time></trkpt><trkpt lat="42.93819679986147" lon="10.523013934894502"><ele>62.0</ele><time>2026-04-19T10:30:12Z</time></trkpt><trkpt lat="42.93833718819116" lon="10.523080057258937"><ele>62.0</ele><time>2026-04-19T10:30:13Z</time></trkpt><trkpt lat="42.93848085274831" lon="10.52314711048411"><ele>62.0</ele><time>2026-04-19T10:30:14Z</time></trkpt><trkpt lat="42.93862732219375" lon="10.523224757281422"><ele>62.75</ele><time>2026-04-19T10:30:15Z</time></trkpt><trkpt lat="42.93875994371752" lon="10.523281995111077"><ele>63.5</ele><time>2026-04-19T10:30:16Z</time></trkpt><trkpt lat="42.938907170490154" lon="10.523340468337283"><ele>64.25</ele><time>2026-04-19T10:30:17Z</time></trkpt><trkpt lat="42.9390508707533" lon="10.523405972193807"><ele>65.0</ele><time>2026-04-19T10:30:18Z</time></trkpt><trkpt lat="42.93919352825707" lon="10.523452814843498"><ele>66.0</ele><time>2026-04-19T10:30:19Z</time></trkpt><trkpt lat="42.93933701752578" lon="10.523499904044362"><ele>67.0</ele><time>2026-04-19T10:30:20Z</time></trkpt><trkpt lat="42.93947676958239" lon="10.523547582309726"><ele>68.0</ele><time>2026-04-19T10:30:21Z</time></trkpt><trkpt lat="42.939614307241726" lon="10.523597064366248"><ele>69.0</ele><time>2026-04-19T10:30:22Z</time></trkpt><trkpt lat="42.93975263579552" lon="10.523645153077426"><ele>69.0</ele><time>2026-04-19T10:30:23Z</time></trkpt><trkpt lat="42.939885826824266" lon="10.523684900547504"><ele>69.0</ele><time>2026-04-19T10:30:24Z</time></trkpt><trkpt lat="42.94002544152784" lon="10.523714274012427"><ele>69.0</ele><time>2026-04-19T10:30:25Z</time></trkpt><trkpt lat="42.94016449492293" lon="10.523734183292108"><ele>69.0</ele><time>2026-04-19T10:30:26Z</time></trkpt><trkpt lat="42.94032268945436" lon="10.52371950511314"><ele>70.0</ele><time>2026-04-19T10:30:27Z</time></trkpt><trkpt lat="42.94047733481516" lon="10.523688474547798"><ele>71.0</ele><time>2026-04-19T10:30:28Z</time></trkpt><trkpt lat="42.94063969170518" lon="10.523651455859165"><ele>72.0</ele><time>2026-04-19T10:30:29Z</time></trkpt><trkpt lat="42.94080322247114" lon="10.52361796814571"><ele>72.66666666666667</ele><time>2026-04-19T10:30:30Z</time></trkpt><trkpt lat="42.94096179504993" lon="10.523584260567311"><ele>73.33333333333334</ele><time>2026-04-19T10:30:31Z</time></trkpt><trkpt lat="42.94111512969092" lon="10.52355515022466"><ele>74.0</ele><time>2026-04-19T10:30:32Z</time></trkpt><trkpt lat="42.94127502566971" lon="10.52352054760711"><ele>74.0</ele><time>2026-04-19T10:30:33Z</time></trkpt><trkpt lat="42.941428706272426" lon="10.523487832104468"><ele>74.0</ele><time>2026-04-19T10:30:34Z</time></trkpt><trkpt lat="42.94158595261907" lon="10.52345296223141"><ele>74.0</ele><time>2026-04-19T10:30:35Z</time></trkpt><trkpt lat="42.9417319284606" lon="10.52342202439789"><ele>75.75</ele><time>2026-04-19T10:30:36Z</time></trkpt><trkpt lat="42.94187110495651" lon="10.523394982309112"><ele>77.5</ele><time>2026-04-19T10:30:37Z</time></trkpt><trkpt lat="42.941992118562766" lon="10.52336477924841"><ele>79.25</ele><time>2026-04-19T10:30:38Z</time></trkpt><trkpt lat="42.9421041793205" lon="10.523310204863973"><ele>81.0</ele><time>2026-04-19T10:30:39Z</time></trkpt><trkpt lat="42.94220382701107" lon="10.523213646430687"><ele>81.0</ele><time>2026-04-19T10:30:40Z</time></trkpt><trkpt lat="42.94226248620378" lon="10.523067282207728"><ele>81.0</ele><time>2026-04-19T10:30:41Z</time></trkpt><trkpt lat="42.94228708172864" lon="10.522894585261172"><ele>81.0</ele><time>2026-04-19T10:30:42Z</time></trkpt><trkpt lat="42.942273028017524" lon="10.522698968096948"><ele>81.0</ele><time>2026-04-19T10:30:43Z</time></trkpt><trkpt lat="42.94225477944088" lon="10.52248749182102"><ele>81.66666666666667</ele><time>2026-04-19T10:30:44Z</time></trkpt><trkpt lat="42.94224820794573" lon="10.522273858875918"><ele>82.33333333333334</ele><time>2026-04-19T10:30:45Z</time></trkpt><trkpt lat="42.942245732389765" lon="10.522049613334644"><ele>83.0</ele><time>2026-04-19T10:30:46Z</time></trkpt><trkpt lat="42.94224355328623" lon="10.521817496630844"><ele>83.66666666666667</ele><time>2026-04-19T10:30:47Z</time></trkpt><trkpt lat="42.94224468392578" lon="10.521587633050133"><ele>84.33333333333333</ele><time>2026-04-19T10:30:48Z</time></trkpt><trkpt lat="42.9422540520412" lon="10.521362809025344"><ele>85.0</ele><time>2026-04-19T10:30:49Z</time></trkpt><trkpt lat="42.942288568302494" lon="10.521177274374182"><ele>85.5</ele><time>2026-04-19T10:30:50Z</time></trkpt><trkpt lat="42.942307241452326" lon="10.521006996593389"><ele>86.0</ele><time>2026-04-19T10:30:51Z</time></trkpt><trkpt lat="42.942357492377106" lon="10.520840062139486"><ele>86.5</ele><time>2026-04-19T10:30:52Z</time></trkpt><trkpt lat="42.942424959085315" lon="10.520673376942831"><ele>87.0</ele><time>2026-04-19T10:30:53Z</time></trkpt><trkpt lat="42.94251206436694" lon="10.520514036070056"><ele>90.0</ele><time>2026-04-19T10:30:54Z</time></trkpt><trkpt lat="42.94261609345423" lon="10.520357693751137"><ele>93.0</ele><time>2026-04-19T10:30:55Z</time></trkpt><trkpt lat="42.94273304549358" lon="10.520198085957329"><ele>96.0</ele><time>2026-04-19T10:30:56Z</time></trkpt><trkpt lat="42.94285225537907" lon="10.520033255388897"><ele>96.0</ele><time>2026-04-19T10:30:57Z</time></trkpt><trkpt lat="42.942968319437334" lon="10.519866227110548"><ele>96.0</ele><time>2026-04-19T10:30:58Z</time></trkpt><trkpt lat="42.943075930304396" lon="10.519705081031729"><ele>96.0</ele><time>2026-04-19T10:30:59Z</time></trkpt><trkpt lat="42.943172656210386" lon="10.519544091865209"><ele>94.25</ele><time>2026-04-19T10:31:00Z</time></trkpt><trkpt lat="42.943249214413854" lon="10.51937760113106"><ele>92.5</ele><time>2026-04-19T10:31:01Z</time></trkpt><trkpt lat="42.943302806196485" lon="10.519182979533094"><ele>90.75</ele><time>2026-04-19T10:31:02Z</time></trkpt><trkpt lat="42.94332368564945" lon="10.518982843710003"><ele>89.0</ele><time>2026-04-19T10:31:03Z</time></trkpt><trkpt lat="42.94332167904266" lon="10.518810805950631"><ele>88.2</ele><time>2026-04-19T10:31:04Z</time></trkpt><trkpt lat="42.94329841956369" lon="10.51866733339233"><ele>87.4</ele><time>2026-04-19T10:31:05Z</time></trkpt><trkpt lat="42.94327515237782" lon="10.51854985104297"><ele>86.6</ele><time>2026-04-19T10:31:06Z</time></trkpt><trkpt lat="42.94325374182534" lon="10.518456199291776"><ele>85.8</ele><time>2026-04-19T10:31:07Z</time></trkpt><trkpt lat="42.94324010767304" lon="10.51836584248063"><ele>85.0</ele><time>2026-04-19T10:31:09Z</time></trkpt><trkpt lat="42.94336244234744" lon="10.518311108747026"><ele>86.0</ele><time>2026-04-19T10:31:11Z</time></trkpt><trkpt lat="42.94345426976819" lon="10.518238039863999"><ele>87.0</ele><time>2026-04-19T10:31:12Z</time></trkpt><trkpt lat="42.94355185965204" lon="10.518160519553664"><ele>88.0</ele><time>2026-04-19T10:31:13Z</time></trkpt><trkpt lat="42.94367054541078" lon="10.518048386587001"><ele>89.0</ele><time>2026-04-19T10:31:14Z</time></trkpt><trkpt lat="42.94379280210808" lon="10.517955630665414"><ele>89.4</ele><time>2026-04-19T10:31:15Z</time></trkpt><trkpt lat="42.94389114540685" lon="10.51788088391864"><ele>89.80000000000001</ele><time>2026-04-19T10:31:16Z</time></trkpt><trkpt lat="42.94397389239751" lon="10.517820373265874"><ele>90.19999999999999</ele><time>2026-04-19T10:31:17Z</time></trkpt><trkpt lat="42.94405614293219" lon="10.517767545700822"><ele>90.6</ele><time>2026-04-19T10:31:18Z</time></trkpt><trkpt lat="42.944137077163354" lon="10.517703840058159"><ele>91.0</ele><time>2026-04-19T10:31:19Z</time></trkpt><trkpt lat="42.944218726441804" lon="10.517638534699076"><ele>91.0</ele><time>2026-04-19T10:31:20Z</time></trkpt><trkpt lat="42.944300829212594" lon="10.517572550255316"><ele>91.0</ele><time>2026-04-19T10:31:21Z</time></trkpt><trkpt lat="42.94438452863286" lon="10.517503933843663"><ele>91.0</ele><time>2026-04-19T10:31:22Z</time></trkpt><trkpt lat="42.9444580043135" lon="10.517453572605895"><ele>91.0</ele><time>2026-04-19T10:31:23Z</time></trkpt><trkpt lat="42.944531402375446" lon="10.517396570435077"><ele>91.0</ele><time>2026-04-19T10:31:24Z</time></trkpt><trkpt lat="42.94460339809774" lon="10.517341793807757"><ele>91.0</ele><time>2026-04-19T10:31:25Z</time></trkpt><trkpt lat="42.944683834191316" lon="10.517283614010237"><ele>91.0</ele><time>2026-04-19T10:31:26Z</time></trkpt><trkpt lat="42.94477426298183" lon="10.517221819905902"><ele>91.0</ele><time>2026-04-19T10:31:27Z</time></trkpt><trkpt lat="42.944867763964545" lon="10.5171533875457"><ele>91.0</ele><time>2026-04-19T10:31:28Z</time></trkpt><trkpt lat="42.94495788217247" lon="10.517083736263384"><ele>91.0</ele><time>2026-04-19T10:31:29Z</time></trkpt><trkpt lat="42.945045275839625" lon="10.517019453715669"><ele>91.0</ele><time>2026-04-19T10:31:30Z</time></trkpt><trkpt lat="42.945134362615335" lon="10.51694887763568"><ele>92.5</ele><time>2026-04-19T10:31:31Z</time></trkpt><trkpt lat="42.94522473451087" lon="10.516877453287508"><ele>94.0</ele><time>2026-04-19T10:31:32Z</time></trkpt><trkpt lat="42.94531772075585" lon="10.516810924680637"><ele>95.5</ele><time>2026-04-19T10:31:33Z</time></trkpt><trkpt lat="42.94541665747487" lon="10.516738355847192"><ele>97.0</ele><time>2026-04-19T10:31:34Z</time></trkpt><trkpt lat="42.94552843705571" lon="10.516653004155323"><ele>97.00000000000001</ele><time>2026-04-19T10:31:35Z</time></trkpt><trkpt lat="42.94562092068663" lon="10.516582636758043"><ele>97.0</ele><time>2026-04-19T10:31:36Z</time></trkpt><trkpt lat="42.945699652386075" lon="10.516525318429169"><ele>97.0</ele><time>2026-04-19T10:31:37Z</time></trkpt><trkpt lat="42.945771765527155" lon="10.516471808390069"><ele>97.0</ele><time>2026-04-19T10:31:38Z</time></trkpt><trkpt lat="42.94583879898678" lon="10.516417774053942"><ele>97.00000000000001</ele><time>2026-04-19T10:31:39Z</time></trkpt><trkpt lat="42.94590700214942" lon="10.516403706606306"><ele>97.0</ele><time>2026-04-19T10:31:41Z</time></trkpt><trkpt lat="42.94591849032453" lon="10.516541600475072"><ele>98.0</ele><time>2026-04-19T10:31:43Z</time></trkpt><trkpt lat="42.94589022433899" lon="10.51666178302929"><ele>99.0</ele><time>2026-04-19T10:31:44Z</time></trkpt><trkpt lat="42.94587898627928" lon="10.516801826202848"><ele>100.0</ele><time>2026-04-19T10:31:45Z</time></trkpt><trkpt lat="42.94589739792158" lon="10.516969486306527"><ele>101.0</ele><time>2026-04-19T10:31:46Z</time></trkpt><trkpt lat="42.9459233347015" lon="10.517176061487238"><ele>101.0</ele><time>2026-04-19T10:31:47Z</time></trkpt><trkpt lat="42.94594115072332" lon="10.517369361532637"><ele>101.0</ele><time>2026-04-19T10:31:48Z</time></trkpt><trkpt lat="42.94596742209845" lon="10.517548210227247"><ele>101.0</ele><time>2026-04-19T10:31:49Z</time></trkpt><trkpt lat="42.9459856141279" lon="10.517674437966809"><ele>101.0</ele><time>2026-04-19T10:31:50Z</time></trkpt><trkpt lat="42.94603626460025" lon="10.517784022291588"><ele>101.0</ele><time>2026-04-19T10:31:52Z</time></trkpt><trkpt lat="42.94618216371439" lon="10.517784785390987"><ele>101.0</ele><time>2026-04-19T10:31:54Z</time></trkpt><trkpt lat="42.946291339260355" lon="10.517740077823957"><ele>101.0</ele><time>2026-04-19T10:31:55Z</time></trkpt><trkpt lat="42.946375039884416" lon="10.517750752600469"><ele>101.0</ele><time>2026-04-19T10:31:56Z</time></trkpt><trkpt lat="42.94644650069603" lon="10.517835989777804"><ele>101.0</ele><time>2026-04-19T10:31:57Z</time></trkpt><trkpt lat="42.946533294000545" lon="10.517951431432957"><ele>100.75</ele><time>2026-04-19T10:31:58Z</time></trkpt><trkpt lat="42.9466310550325" lon="10.518062718313823"><ele>100.5</ele><time>2026-04-19T10:31:59Z</time></trkpt><trkpt lat="42.946746188250096" lon="10.51817546590137"><ele>100.25</ele><time>2026-04-19T10:32:00Z</time></trkpt><trkpt lat="42.946852499094554" lon="10.518279461700445"><ele>100.0</ele><time>2026-04-19T10:32:01Z</time></trkpt><trkpt lat="42.9469357924983" lon="10.518383716765374"><ele>101.0</ele><time>2026-04-19T10:32:02Z</time></trkpt><trkpt lat="42.94700912165736" lon="10.518487782090777"><ele>102.0</ele><time>2026-04-19T10:32:03Z</time></trkpt><trkpt lat="42.947099740062995" lon="10.518599660401124"><ele>103.0</ele><time>2026-04-19T10:32:04Z</time></trkpt><trkpt lat="42.94721516980313" lon="10.518706262161661"><ele>104.0</ele><time>2026-04-19T10:32:05Z</time></trkpt><trkpt lat="42.947337920326056" lon="10.518815798232504"><ele>104.0</ele><time>2026-04-19T10:32:06Z</time></trkpt><trkpt lat="42.947455477028925" lon="10.518930288976732"><ele>104.0</ele><time>2026-04-19T10:32:07Z</time></trkpt><trkpt lat="42.94757540446223" lon="10.519038373024095"><ele>104.0</ele><time>2026-04-19T10:32:08Z</time></trkpt><trkpt lat="42.94769626988499" lon="10.5191511673952"><ele>104.0</ele><time>2026-04-19T10:32:09Z</time></trkpt><trkpt lat="42.94779695774162" lon="10.51924505510477"><ele>105.2</ele><time>2026-04-19T10:32:10Z</time></trkpt><trkpt lat="42.9478821746903" lon="10.519318389647655"><ele>106.4</ele><time>2026-04-19T10:32:11Z</time></trkpt><trkpt lat="42.94797148448033" lon="10.519378477910532"><ele>107.6</ele><time>2026-04-19T10:32:12Z</time></trkpt><trkpt lat="42.94806813769341" lon="10.519436264892581"><ele>108.8</ele><time>2026-04-19T10:32:13Z</time></trkpt><trkpt lat="42.948151625612496" lon="10.519497528050046"><ele>110.0</ele><time>2026-04-19T10:32:14Z</time></trkpt><trkpt lat="42.94823053467953" lon="10.519564000754652"><ele>110.66666666666666</ele><time>2026-04-19T10:32:15Z</time></trkpt><trkpt lat="42.94828973519386" lon="10.519620101585756"><ele>111.33333333333333</ele><time>2026-04-19T10:32:16Z</time></trkpt><trkpt lat="42.94835684283647" lon="10.51971556539912"><ele>112.0</ele><time>2026-04-19T10:32:18Z</time></trkpt><trkpt lat="42.9484132503884" lon="10.51977410216267"><ele>112.66666666666666</ele><time>2026-04-19T10:32:21Z</time></trkpt><trkpt lat="42.9483838966573" lon="10.519875547919806"><ele>113.33333333333333</ele><time>2026-04-19T10:32:55Z</time></trkpt><trkpt lat="42.94832830899739" lon="10.519834935745047"><ele>114.0</ele><time>2026-04-19T10:33:11Z</time></trkpt><trkpt lat="42.948180024609066" lon="10.51971938427305"><ele>114.0</ele><time>2026-04-19T10:33:26Z</time></trkpt><trkpt lat="42.948078602564344" lon="10.519667740152503"><ele>114.0</ele><time>2026-04-19T10:33:27Z</time></trkpt><trkpt lat="42.94798018107194" lon="10.519667722480094"><ele>114.0</ele><time>2026-04-19T10:33:28Z</time></trkpt><trkpt lat="42.9479010015595" lon="10.519706670337406"><ele>114.0</ele><time>2026-04-19T10:33:29Z</time></trkpt><trkpt lat="42.94783909364469" lon="10.51977725968168"><ele>114.0</ele><time>2026-04-19T10:33:30Z</time></trkpt><trkpt lat="42.94778918076877" lon="10.519904545991707"><ele>114.0</ele><time>2026-04-19T10:33:31Z</time></trkpt><trkpt lat="42.947749597124954" lon="10.52006100543218"><ele>114.0</ele><time>2026-04-19T10:33:32Z</time></trkpt><trkpt lat="42.9477498241092" lon="10.520188532178578"><ele>114.0</ele><time>2026-04-19T10:33:33Z</time></trkpt><trkpt lat="42.94779709611399" lon="10.520321273823157"><ele>114.0</ele><time>2026-04-19T10:33:34Z</time></trkpt><trkpt lat="42.9479003888603" lon="10.520433124828205"><ele>117.0</ele><time>2026-04-19T10:33:35Z</time></trkpt><trkpt lat="42.94803275131888" lon="10.52054197118195"><ele>120.0</ele><time>2026-04-19T10:33:36Z</time></trkpt><trkpt lat="42.948168548778426" lon="10.52059168371916"><ele>123.0</ele><time>2026-04-19T10:33:37Z</time></trkpt><trkpt lat="42.94828969431149" lon="10.52065842083937"><ele>126.0</ele><time>2026-04-19T10:33:38Z</time></trkpt><trkpt lat="42.94839163259443" lon="10.520679857145357"><ele>127.4</ele><time>2026-04-19T10:33:39Z</time></trkpt><trkpt lat="42.9484774780339" lon="10.52068045063105"><ele>128.8</ele><time>2026-04-19T10:33:40Z</time></trkpt><trkpt lat="42.94852730301804" lon="10.520811660989752"><ele>130.20000000000002</ele><time>2026-04-19T10:33:42Z</time></trkpt><trkpt lat="42.948548120671546" lon="10.520909133423997"><ele>131.6</ele><time>2026-04-19T10:33:43Z</time></trkpt><trkpt lat="42.948643929672016" lon="10.52098018401846"><ele>133.0</ele><time>2026-04-19T10:33:44Z</time></trkpt><trkpt lat="42.94875637659447" lon="10.520996221655777"><ele>133.0</ele><time>2026-04-19T10:33:45Z</time></trkpt><trkpt lat="42.94875466947972" lon="10.520859733298236"><ele>133.0</ele><time>2026-04-19T10:33:47Z</time></trkpt><trkpt lat="42.94869737769731" lon="10.520658773565108"><ele>133.0</ele><time>2026-04-19T10:33:48Z</time></trkpt><trkpt lat="42.94866576703883" lon="10.520506642929456"><ele>133.0</ele><time>2026-04-19T10:33:49Z</time></trkpt><trkpt lat="42.94872817270443" lon="10.520403211120083"><ele>133.0</ele><time>2026-04-19T10:33:50Z</time></trkpt><trkpt lat="42.94883380632818" lon="10.520397676032614"><ele>133.0</ele><time>2026-04-19T10:33:52Z</time></trkpt><trkpt lat="42.94891485843722" lon="10.520437940861013"><ele>133.0</ele><time>2026-04-19T10:33:53Z</time></trkpt><trkpt lat="42.949023741340184" lon="10.520462707702261"><ele>133.0</ele><time>2026-04-19T10:33:54Z</time></trkpt><trkpt lat="42.94910984137077" lon="10.520418067802243"><ele>133.0</ele><time>2026-04-19T10:33:55Z</time></trkpt><trkpt lat="42.94917716904689" lon="10.520349680677807"><ele>134.66666666666669</ele><time>2026-04-19T10:33:56Z</time></trkpt><trkpt lat="42.94924166608445" lon="10.520312995841856"><ele>136.33333333333334</ele><time>2026-04-19T10:33:57Z</time></trkpt><trkpt lat="42.94921811901767" lon="10.520437119728166"><ele>138.0</ele><time>2026-04-19T10:33:59Z</time></trkpt><trkpt lat="42.94925073748589" lon="10.520527747965499"><ele>139.66666666666666</ele><time>2026-04-19T10:34:02Z</time></trkpt><trkpt lat="42.949315693799846" lon="10.520547329199344"><ele>141.33333333333331</ele><time>2026-04-19T10:34:03Z</time></trkpt><trkpt lat="42.949404818797404" lon="10.520628979460474"><ele>143.0</ele><time>2026-04-19T10:34:05Z</time></trkpt><trkpt lat="42.94951887423527" lon="10.52072307349461"><ele>143.66666666666666</ele><time>2026-04-19T10:34:07Z</time></trkpt><trkpt lat="42.94957533370955" lon="10.520767347026881"><ele>144.33333333333334</ele><time>2026-04-19T10:34:08Z</time></trkpt><trkpt lat="42.94983232668555" lon="10.520963729754763"><ele>145.0</ele><time>2026-04-19T10:34:10Z</time></trkpt><trkpt lat="42.94992379924724" lon="10.52103738852344"><ele>145.0</ele><time>2026-04-19T10:34:11Z</time></trkpt><trkpt lat="42.95000593752116" lon="10.521116216898122"><ele>145.0</ele><time>2026-04-19T10:34:12Z</time></trkpt><trkpt lat="42.95008405795657" lon="10.521175913239523"><ele>145.0</ele><time>2026-04-19T10:34:13Z</time></trkpt><trkpt lat="42.95016456289945" lon="10.521209720174651"><ele>145.0</ele><time>2026-04-19T10:34:14Z</time></trkpt><trkpt lat="42.9502262797519" lon="10.521230456490224"><ele>145.0</ele><time>2026-04-19T10:34:15Z</time></trkpt><trkpt lat="42.95033784188213" lon="10.521247120522144"><ele>145.6</ele><time>2026-04-19T10:34:17Z</time></trkpt><trkpt lat="42.950459788350194" lon="10.521337637645852"><ele>146.2</ele><time>2026-04-19T10:34:19Z</time></trkpt><trkpt lat="42.95053662027651" lon="10.521378069136517"><ele>146.8</ele><time>2026-04-19T10:34:20Z</time></trkpt><trkpt lat="42.95061372386488" lon="10.521393374478578"><ele>147.4</ele><time>2026-04-19T10:34:21Z</time></trkpt><trkpt lat="42.95068971924323" lon="10.521406118846336"><ele>148.0</ele><time>2026-04-19T10:34:22Z</time></trkpt><trkpt lat="42.950764396890385" lon="10.521431940000518"><ele>148.0</ele><time>2026-04-19T10:34:23Z</time></trkpt><trkpt lat="42.95083079175005" lon="10.521438818940371"><ele>148.0</ele><time>2026-04-19T10:34:24Z</time></trkpt><trkpt lat="42.95095869559546" lon="10.521469356995823"><ele>148.0</ele><time>2026-04-19T10:34:26Z</time></trkpt><trkpt lat="42.95107676883643" lon="10.521475457063735"><ele>148.0</ele><time>2026-04-19T10:34:28Z</time></trkpt><trkpt lat="42.95118717327314" lon="10.521456094330235"><ele>148.0</ele><time>2026-04-19T10:34:30Z</time></trkpt><trkpt lat="42.951269880475856" lon="10.52146329850384"><ele>148.4</ele><time>2026-04-19T10:34:31Z</time></trkpt><trkpt lat="42.951356224532844" lon="10.521431963115006"><ele>148.8</ele><time>2026-04-19T10:34:32Z</time></trkpt><trkpt lat="42.951425946097885" lon="10.521399454280662"><ele>149.2</ele><time>2026-04-19T10:34:33Z</time></trkpt><trkpt lat="42.95149292764744" lon="10.521345144853603"><ele>149.6</ele><time>2026-04-19T10:34:34Z</time></trkpt><trkpt lat="42.95157176246148" lon="10.521251882917987"><ele>150.0</ele><time>2026-04-19T10:34:35Z</time></trkpt><trkpt lat="42.95165543162011" lon="10.52115428846988"><ele>148.4</ele><time>2026-04-19T10:34:36Z</time></trkpt><trkpt lat="42.951720334828885" lon="10.521061777293236"><ele>146.8</ele><time>2026-04-19T10:34:37Z</time></trkpt><trkpt lat="42.951804430297436" lon="10.521032477275398"><ele>145.2</ele><time>2026-04-19T10:34:39Z</time></trkpt><trkpt lat="42.95189230823194" lon="10.521150543644536"><ele>143.6</ele><time>2026-04-19T10:34:41Z</time></trkpt><trkpt lat="42.95196120999638" lon="10.521199803966004"><ele>142.0</ele><time>2026-04-19T10:34:42Z</time></trkpt><trkpt lat="42.95203536472273" lon="10.521247785244853"><ele>139.0</ele><time>2026-04-19T10:34:43Z</time></trkpt><trkpt lat="42.952109259027225" lon="10.521300793712701"><ele>136.0</ele><time>2026-04-19T10:34:44Z</time></trkpt><trkpt lat="42.952176673168985" lon="10.521360423675276"><ele>133.0</ele><time>2026-04-19T10:34:45Z</time></trkpt><trkpt lat="42.95224507795794" lon="10.521404797989652"><ele>130.0</ele><time>2026-04-19T10:34:46Z</time></trkpt><trkpt lat="42.95231429986338" lon="10.521408983434911"><ele>127.00000000000001</ele><time>2026-04-19T10:34:47Z</time></trkpt><trkpt lat="42.95238017270819" lon="10.521401621027598"><ele>124.0</ele><time>2026-04-19T10:34:48Z</time></trkpt><trkpt lat="42.95247163767554" lon="10.521401306986006"><ele>123.2</ele><time>2026-04-19T10:34:49Z</time></trkpt><trkpt lat="42.95254984508869" lon="10.521420092988992"><ele>122.4</ele><time>2026-04-19T10:34:50Z</time></trkpt><trkpt lat="42.95262576076188" lon="10.521386326090083"><ele>121.6</ele><time>2026-04-19T10:34:52Z</time></trkpt><trkpt lat="42.952748376702665" lon="10.521278429906165"><ele>120.8</ele><time>2026-04-19T10:34:54Z</time></trkpt><trkpt lat="42.95281974986809" lon="10.521241616848572"><ele>120.0</ele><time>2026-04-19T10:34:55Z</time></trkpt><trkpt lat="42.95292384523941" lon="10.521144689270441"><ele>120.0</ele><time>2026-04-19T10:34:57Z</time></trkpt><trkpt lat="42.95299360535595" lon="10.52108768361383"><ele>120.0</ele><time>2026-04-19T10:34:58Z</time></trkpt><trkpt lat="42.95304252469173" lon="10.520994955861193"><ele>120.0</ele><time>2026-04-19T10:34:59Z</time></trkpt><trkpt lat="42.9530785499188" lon="10.520823154524262"><ele>120.0</ele><time>2026-04-19T10:35:01Z</time></trkpt><trkpt lat="42.953089342550896" lon="10.52069492300774"><ele>120.0</ele><time>2026-04-19T10:35:02Z</time></trkpt><trkpt lat="42.95308527480037" lon="10.520521264388325"><ele>119.6</ele><time>2026-04-19T10:35:03Z</time></trkpt><trkpt lat="42.953096797720455" lon="10.52038572152481"><ele>119.2</ele><time>2026-04-19T10:35:04Z</time></trkpt><trkpt lat="42.95308975375319" lon="10.520223251036008"><ele>118.80000000000001</ele><time>2026-04-19T10:35:05Z</time></trkpt><trkpt lat="42.953035422156326" lon="10.520113261656551"><ele>118.4</ele><time>2026-04-19T10:35:06Z</time></trkpt><trkpt lat="42.9529688081074" lon="10.519955426220815"><ele>118.0</ele><time>2026-04-19T10:35:07Z</time></trkpt><trkpt lat="42.95290644637878" lon="10.519836761679976"><ele>118.0</ele><time>2026-04-19T10:35:08Z</time></trkpt><trkpt lat="42.95284078824964" lon="10.519722657297875"><ele>118.00000000000001</ele><time>2026-04-19T10:35:09Z</time></trkpt><trkpt lat="42.952797412030776" lon="10.519592733162645"><ele>118.00000000000001</ele><time>2026-04-19T10:35:10Z</time></trkpt><trkpt lat="42.95277140347521" lon="10.519502025810286"><ele>118.0</ele><time>2026-04-19T10:35:11Z</time></trkpt><trkpt lat="42.95271606077203" lon="10.519371138814519"><ele>118.0</ele><time>2026-04-19T10:35:13Z</time></trkpt><trkpt lat="42.95272602774631" lon="10.519270423955785"><ele>117.0</ele><time>2026-04-19T10:35:14Z</time></trkpt><trkpt lat="42.95272775596658" lon="10.519125466691959"><ele>116.00000000000001</ele><time>2026-04-19T10:35:15Z</time></trkpt><trkpt lat="42.95270512157376" lon="10.518995341933525"><ele>115.00000000000001</ele><time>2026-04-19T10:35:16Z</time></trkpt><trkpt lat="42.95268952789574" lon="10.518854679239713"><ele>114.0</ele><time>2026-04-19T10:35:17Z</time></trkpt><trkpt lat="42.95271043379855" lon="10.518706964707889"><ele>113.0</ele><time>2026-04-19T10:35:18Z</time></trkpt><trkpt lat="42.952731560671836" lon="10.518572089259873"><ele>113.0</ele><time>2026-04-19T10:35:19Z</time></trkpt><trkpt lat="42.95270134116824" lon="10.518455794607805"><ele>113.00000000000001</ele><time>2026-04-19T10:35:20Z</time></trkpt><trkpt lat="42.95264416415658" lon="10.518360654284523"><ele>113.00000000000001</ele><time>2026-04-19T10:35:21Z</time></trkpt><trkpt lat="42.95255213923467" lon="10.51823675329205"><ele>113.0</ele><time>2026-04-19T10:35:22Z</time></trkpt><trkpt lat="42.95248504876793" lon="10.518108545631268"><ele>113.0</ele><time>2026-04-19T10:35:23Z</time></trkpt><trkpt lat="42.95243705657727" lon="10.518011963821923"><ele>113.80000000000001</ele><time>2026-04-19T10:35:24Z</time></trkpt><trkpt lat="42.95252444204835" lon="10.517957390731645"><ele>114.60000000000001</ele><time>2026-04-19T10:35:27Z</time></trkpt><trkpt lat="42.952581733573936" lon="10.517895238673468"><ele>115.39999999999999</ele><time>2026-04-19T10:35:28Z</time></trkpt><trkpt lat="42.95256902274192" lon="10.517802481852911"><ele>116.19999999999999</ele><time>2026-04-19T10:35:29Z</time></trkpt><trkpt lat="42.95251364507988" lon="10.517699749606768"><ele>117.0</ele><time>2026-04-19T10:35:31Z</time></trkpt><trkpt lat="42.9524956991758" lon="10.517531464191148"><ele>122.0</ele><time>2026-04-19T10:35:34Z</time></trkpt><trkpt lat="42.952478481288274" lon="10.517413605895463"><ele>127.0</ele><time>2026-04-19T10:35:35Z</time></trkpt><trkpt lat="42.95246411352787" lon="10.51730541666241"><ele>132.0</ele><time>2026-04-19T10:35:36Z</time></trkpt><trkpt lat="42.95245274371155" lon="10.517181534685195"><ele>137.0</ele><time>2026-04-19T10:35:37Z</time></trkpt><trkpt lat="42.952424463579554" lon="10.51708027894413"><ele>142.0</ele><time>2026-04-19T10:35:38Z</time></trkpt><trkpt lat="42.95238951760212" lon="10.516973360488686"><ele>147.0</ele><time>2026-04-19T10:35:39Z</time></trkpt><trkpt lat="42.95236512144517" lon="10.516801477188194"><ele>148.79999999999998</ele><time>2026-04-19T10:35:40Z</time></trkpt><trkpt lat="42.95234244968289" lon="10.516696766388687"><ele>150.6</ele><time>2026-04-19T10:35:41Z</time></trkpt><trkpt lat="42.952335169641266" lon="10.51659184030897"><ele>152.39999999999998</ele><time>2026-04-19T10:35:42Z</time></trkpt><trkpt lat="42.9523385755448" lon="10.516481586354566"><ele>154.2</ele><time>2026-04-19T10:35:43Z</time></trkpt><trkpt lat="42.95245738123661" lon="10.516474342204756"><ele>156.0</ele><time>2026-04-19T10:35:46Z</time></trkpt><trkpt lat="42.9525544602945" lon="10.51643506063576"><ele>151.5</ele><time>2026-04-19T10:35:48Z</time></trkpt><trkpt lat="42.952626895244585" lon="10.516436272620886"><ele>147.0</ele><time>2026-04-19T10:35:49Z</time></trkpt><trkpt lat="42.95268201842273" lon="10.516394647272072"><ele>142.5</ele><time>2026-04-19T10:35:50Z</time></trkpt><trkpt lat="42.95287776652263" lon="10.516333284255635"><ele>138.0</ele><time>2026-04-19T10:35:52Z</time></trkpt><trkpt lat="42.95301475139085" lon="10.516293345820706"><ele>138.0</ele><time>2026-04-19T10:35:53Z</time></trkpt><trkpt lat="42.95314244319586" lon="10.516240232704574"><ele>138.0</ele><time>2026-04-19T10:35:54Z</time></trkpt><trkpt lat="42.953252607824936" lon="10.516197699426225"><ele>138.0</ele><time>2026-04-19T10:35:55Z</time></trkpt><trkpt lat="42.953429606335874" lon="10.516048924583952"><ele>139.6</ele><time>2026-04-19T10:35:56Z</time></trkpt><trkpt lat="42.953517400962056" lon="10.516006508906438"><ele>141.20000000000002</ele><time>2026-04-19T10:35:57Z</time></trkpt><trkpt lat="42.95358325453287" lon="10.515980152515683"><ele>142.8</ele><time>2026-04-19T10:35:58Z</time></trkpt><trkpt lat="42.953700824851786" lon="10.516017737301949"><ele>144.4</ele><time>2026-04-19T10:36:00Z</time></trkpt><trkpt lat="42.95377597184494" lon="10.516047862065902"><ele>146.0</ele><time>2026-04-19T10:36:01Z</time></trkpt><trkpt lat="42.953882852002806" lon="10.516056120939838"><ele>146.0</ele><time>2026-04-19T10:36:03Z</time></trkpt><trkpt lat="42.95395583513784" lon="10.516061695607021"><ele>146.0</ele><time>2026-04-19T10:36:07Z</time></trkpt><trkpt lat="42.9540001685918" lon="10.516130584693002"><ele>146.0</ele><time>2026-04-19T10:36:08Z</time></trkpt><trkpt lat="42.95406384841701" lon="10.516165227217678"><ele>146.0</ele><time>2026-04-19T10:36:09Z</time></trkpt><trkpt lat="42.95417772112287" lon="10.516138156541912"><ele>146.0</ele><time>2026-04-19T10:36:10Z</time></trkpt><trkpt lat="42.95430671550669" lon="10.516079735155348"><ele>142.0</ele><time>2026-04-19T10:36:11Z</time></trkpt><trkpt lat="42.954394206082824" lon="10.516060208149257"><ele>138.0</ele><time>2026-04-19T10:36:12Z</time></trkpt><trkpt lat="42.95445899324673" lon="10.516026059309414"><ele>134.0</ele><time>2026-04-19T10:36:13Z</time></trkpt><trkpt lat="42.954516194788326" lon="10.515966648707764"><ele>130.0</ele><time>2026-04-19T10:36:14Z</time></trkpt><trkpt lat="42.95458468421013" lon="10.515895732329312"><ele>125.99999999999999</ele><time>2026-04-19T10:36:16Z</time></trkpt><trkpt lat="42.954512649199906" lon="10.515800778938184"><ele>122.0</ele><time>2026-04-19T10:36:19Z</time></trkpt><trkpt lat="42.954413212354275" lon="10.515758949261519"><ele>121.99999999999999</ele><time>2026-04-19T10:36:21Z</time></trkpt><trkpt lat="42.95431417648866" lon="10.515676943876576"><ele>122.0</ele><time>2026-04-19T10:36:23Z</time></trkpt><trkpt lat="42.954251798641444" lon="10.515636490462954"><ele>122.0</ele><time>2026-04-19T10:36:24Z</time></trkpt><trkpt lat="42.95419386021202" lon="10.515599137176855"><ele>122.0</ele><time>2026-04-19T10:36:25Z</time></trkpt><trkpt lat="42.954134185529824" lon="10.515485563779654"><ele>121.99999999999999</ele><time>2026-04-19T10:36:27Z</time></trkpt><trkpt lat="42.95414997371215" lon="10.515381536118753"><ele>122.0</ele><time>2026-04-19T10:36:28Z</time></trkpt><trkpt lat="42.954183862505914" lon="10.515217467301547"><ele>124.0</ele><time>2026-04-19T10:36:29Z</time></trkpt><trkpt lat="42.954230566525574" lon="10.515040183351827"><ele>125.99999999999999</ele><time>2026-04-19T10:36:30Z</time></trkpt><trkpt lat="42.954240414437166" lon="10.514859198378636"><ele>127.99999999999999</ele><time>2026-04-19T10:36:31Z</time></trkpt><trkpt lat="42.95425943101322" lon="10.514739173028424"><ele>130.0</ele><time>2026-04-19T10:36:32Z</time></trkpt><trkpt lat="42.954263466466884" lon="10.514638225235723"><ele>132.0</ele><time>2026-04-19T10:36:33Z</time></trkpt><trkpt lat="42.9542040801023" lon="10.514545509702193"><ele>132.0</ele><time>2026-04-19T10:36:34Z</time></trkpt><trkpt lat="42.95411524724507" lon="10.514429503948412"><ele>132.0</ele><time>2026-04-19T10:36:35Z</time></trkpt><trkpt lat="42.95405905372614" lon="10.514331907218883"><ele>132.0</ele><time>2026-04-19T10:36:36Z</time></trkpt><trkpt lat="42.95410384445208" lon="10.514204967874505"><ele>132.0</ele><time>2026-04-19T10:36:38Z</time></trkpt><trkpt lat="42.954173871905226" lon="10.514103161103273"><ele>132.0</ele><time>2026-04-19T10:36:39Z</time></trkpt><trkpt lat="42.95424768437682" lon="10.513956774556963"><ele>132.0</ele><time>2026-04-19T10:36:40Z</time></trkpt><trkpt lat="42.954314679087695" lon="10.513819161403461"><ele>132.0</ele><time>2026-04-19T10:36:41Z</time></trkpt><trkpt lat="42.95438987187375" lon="10.51370364728474"><ele>132.0</ele><time>2026-04-19T10:36:42Z</time></trkpt><trkpt lat="42.95448617803398" lon="10.513633861414965"><ele>132.0</ele><time>2026-04-19T10:36:43Z</time></trkpt><trkpt lat="42.95451558450519" lon="10.513555244920564"><ele>132.0</ele><time>2026-04-19T10:36:44Z</time></trkpt><trkpt lat="42.95452171591355" lon="10.51343335064791"><ele>132.6</ele><time>2026-04-19T10:36:45Z</time></trkpt><trkpt lat="42.954532823659044" lon="10.51328856869122"><ele>133.2</ele><time>2026-04-19T10:36:46Z</time></trkpt><trkpt lat="42.95450760795919" lon="10.513106846085869"><ele>133.8</ele><time>2026-04-19T10:36:47Z</time></trkpt><trkpt lat="42.95449077836268" lon="10.512921457182289"><ele>134.4</ele><time>2026-04-19T10:36:48Z</time></trkpt><trkpt lat="42.954470254485805" lon="10.51282878317121"><ele>135.0</ele><time>2026-04-19T10:36:49Z</time></trkpt><trkpt lat="42.954427422187145" lon="10.512704010742745"><ele>137.75</ele><time>2026-04-19T10:36:50Z</time></trkpt><trkpt lat="42.954370236471604" lon="10.512568956846541"><ele>140.5</ele><time>2026-04-19T10:36:51Z</time></trkpt><trkpt lat="42.954350075609874" lon="10.512407196388807"><ele>143.25</ele><time>2026-04-19T10:36:52Z</time></trkpt><trkpt lat="42.954310257616804" lon="10.512228665916034"><ele>146.0</ele><time>2026-04-19T10:36:53Z</time></trkpt><trkpt lat="42.954276691028014" lon="10.512111351767649"><ele>146.0</ele><time>2026-04-19T10:36:54Z</time></trkpt><trkpt lat="42.95423651907603" lon="10.512012146959995"><ele>146.0</ele><time>2026-04-19T10:36:56Z</time></trkpt><trkpt lat="42.954333752552685" lon="10.511990418340382"><ele>146.0</ele><time>2026-04-19T10:36:59Z</time></trkpt><trkpt lat="42.954388403947156" lon="10.512061904498003"><ele>146.0</ele><time>2026-04-19T10:37:00Z</time></trkpt><trkpt lat="42.954445876737694" lon="10.512135761778936"><ele>146.0</ele><time>2026-04-19T10:37:01Z</time></trkpt><trkpt lat="42.954497054859644" lon="10.512197888981703"><ele>146.0</ele><time>2026-04-19T10:37:02Z</time></trkpt><trkpt lat="42.95457448164426" lon="10.512232229505097"><ele>146.0</ele><time>2026-04-19T10:37:03Z</time></trkpt><trkpt lat="42.95466857859459" lon="10.512271810553957"><ele>146.0</ele><time>2026-04-19T10:37:04Z</time></trkpt><trkpt lat="42.95476565801858" lon="10.512313595160832"><ele>146.0</ele><time>2026-04-19T10:37:05Z</time></trkpt><trkpt lat="42.95487534868278" lon="10.512340362110182"><ele>146.0</ele><time>2026-04-19T10:37:06Z</time></trkpt><trkpt lat="42.955009220589254" lon="10.512367374203418"><ele>146.0</ele><time>2026-04-19T10:37:07Z</time></trkpt><trkpt lat="42.95513080499808" lon="10.512395793276992"><ele>144.6</ele><time>2026-04-19T10:37:08Z</time></trkpt><trkpt lat="42.95523753456709" lon="10.512424635919832"><ele>143.2</ele><time>2026-04-19T10:37:09Z</time></trkpt><trkpt lat="42.95533756468192" lon="10.512446634277387"><ele>141.8</ele><time>2026-04-19T10:37:10Z</time></trkpt><trkpt lat="42.95542446373225" lon="10.51245690026432"><ele>140.4</ele><time>2026-04-19T10:37:11Z</time></trkpt><trkpt lat="42.95551618220979" lon="10.512469203748465"><ele>139.0</ele><time>2026-04-19T10:37:12Z</time></trkpt><trkpt lat="42.9555941482945" lon="10.51248223586729"><ele>139.0</ele><time>2026-04-19T10:37:13Z</time></trkpt><trkpt lat="42.95567112984712" lon="10.512476573762433"><ele>139.0</ele><time>2026-04-19T10:37:14Z</time></trkpt><trkpt lat="42.9557670408425" lon="10.512446456227256"><ele>139.0</ele><time>2026-04-19T10:37:15Z</time></trkpt><trkpt lat="42.95584950023423" lon="10.51242850442899"><ele>139.0</ele><time>2026-04-19T10:37:16Z</time></trkpt><trkpt lat="42.955913278832874" lon="10.51242127229431"><ele>139.0</ele><time>2026-04-19T10:37:17Z</time></trkpt><trkpt lat="42.95599708917002" lon="10.512426441232183"><ele>139.0</ele><time>2026-04-19T10:37:18Z</time></trkpt><trkpt lat="42.95607142221385" lon="10.512421367185473"><ele>136.66666666666669</ele><time>2026-04-19T10:37:19Z</time></trkpt><trkpt lat="42.95613847545117" lon="10.512394963882116"><ele>134.33333333333334</ele><time>2026-04-19T10:37:20Z</time></trkpt><trkpt lat="42.95622886047116" lon="10.51235154832676"><ele>132.0</ele><time>2026-04-19T10:37:21Z</time></trkpt><trkpt lat="42.95631194778492" lon="10.512308973646222"><ele>129.66666666666666</ele><time>2026-04-19T10:37:22Z</time></trkpt><trkpt lat="42.95638207498552" lon="10.51227260080294"><ele>127.33333333333333</ele><time>2026-04-19T10:37:23Z</time></trkpt><trkpt lat="42.95646253078137" lon="10.512238139817063"><ele>125.0</ele><time>2026-04-19T10:37:24Z</time></trkpt><trkpt lat="42.95653369262153" lon="10.512190102794806"><ele>124.99999999999999</ele><time>2026-04-19T10:37:25Z</time></trkpt><trkpt lat="42.95659011485891" lon="10.512141563500286"><ele>125.0</ele><time>2026-04-19T10:37:26Z</time></trkpt><trkpt lat="42.95665815864264" lon="10.512098024340457"><ele>125.0</ele><time>2026-04-19T10:37:27Z</time></trkpt><trkpt lat="42.95675874834142" lon="10.512066152576747"><ele>125.0</ele><time>2026-04-19T10:37:28Z</time></trkpt><trkpt lat="42.95685402648094" lon="10.512057724452259"><ele>124.99999999999999</ele><time>2026-04-19T10:37:29Z</time></trkpt><trkpt lat="42.95692913916939" lon="10.51202002366133"><ele>125.0</ele><time>2026-04-19T10:37:30Z</time></trkpt><trkpt lat="42.956998501506824" lon="10.511964712320333"><ele>125.33333333333333</ele><time>2026-04-19T10:37:31Z</time></trkpt><trkpt lat="42.95706011255709" lon="10.51200459290613"><ele>125.66666666666666</ele><time>2026-04-19T10:37:33Z</time></trkpt><trkpt lat="42.95715333448852" lon="10.512095249083512"><ele>126.0</ele><time>2026-04-19T10:37:35Z</time></trkpt><trkpt lat="42.95721747087037" lon="10.512121537464703"><ele>126.33333333333334</ele><time>2026-04-19T10:37:36Z</time></trkpt><trkpt lat="42.95721650500882" lon="10.512254108692392"><ele>126.66666666666667</ele><time>2026-04-19T10:37:39Z</time></trkpt><trkpt lat="42.95726137828103" lon="10.512379624218275"><ele>127.0</ele><time>2026-04-19T10:37:41Z</time></trkpt><trkpt lat="42.95727934640641" lon="10.512462783713449"><ele>124.8</ele><time>2026-04-19T10:37:42Z</time></trkpt><trkpt lat="42.957327982659" lon="10.512583066071748"><ele>122.6</ele><time>2026-04-19T10:37:44Z</time></trkpt><trkpt lat="42.9573104039285" lon="10.512779273307192"><ele>120.39999999999999</ele><time>2026-04-19T10:37:46Z</time></trkpt><trkpt lat="42.957312118812425" lon="10.512892394650521"><ele>118.19999999999999</ele><time>2026-04-19T10:37:47Z</time></trkpt><trkpt lat="42.95736284561884" lon="10.513022728930714"><ele>116.0</ele><time>2026-04-19T10:37:48Z</time></trkpt><trkpt lat="42.95742359264504" lon="10.513148956204246"><ele>111.75</ele><time>2026-04-19T10:37:49Z</time></trkpt><trkpt lat="42.957520403716735" lon="10.513292932718716"><ele>107.5</ele><time>2026-04-19T10:37:50Z</time></trkpt><trkpt lat="42.95765468963328" lon="10.51343273190991"><ele>103.25</ele><time>2026-04-19T10:37:51Z</time></trkpt><trkpt lat="42.95775389167576" lon="10.513440263059726"><ele>99.0</ele><time>2026-04-19T10:37:52Z</time></trkpt><trkpt lat="42.95784445517989" lon="10.513397308543086"><ele>98.4</ele><time>2026-04-19T10:37:53Z</time></trkpt><trkpt lat="42.95793042263403" lon="10.51331139626743"><ele>97.80000000000001</ele><time>2026-04-19T10:37:54Z</time></trkpt><trkpt lat="42.95799302810425" lon="10.513199336622423"><ele>97.19999999999999</ele><time>2026-04-19T10:37:55Z</time></trkpt><trkpt lat="42.958052791292126" lon="10.51311351582362"><ele>96.6</ele><time>2026-04-19T10:37:56Z</time></trkpt><trkpt lat="42.958124118758754" lon="10.513086084845309"><ele>96.0</ele><time>2026-04-19T10:37:58Z</time></trkpt><trkpt lat="42.95813877171917" lon="10.513223436477205"><ele>96.0</ele><time>2026-04-19T10:38:00Z</time></trkpt><trkpt lat="42.95813136101262" lon="10.5135127906711"><ele>96.0</ele><time>2026-04-19T10:38:01Z</time></trkpt><trkpt lat="42.958151864611544" lon="10.513596718886827"><ele>96.0</ele><time>2026-04-19T10:38:02Z</time></trkpt><trkpt lat="42.9581505129118" lon="10.513734078856771"><ele>96.0</ele><time>2026-04-19T10:38:04Z</time></trkpt><trkpt lat="42.958181155942896" lon="10.51386372718521"><ele>96.19999999999999</ele><time>2026-04-19T10:38:05Z</time></trkpt><trkpt lat="42.95821261550839" lon="10.513958260874016"><ele>96.39999999999999</ele><time>2026-04-19T10:38:06Z</time></trkpt><trkpt lat="42.95824594993366" lon="10.514057974007102"><ele>96.6</ele><time>2026-04-19T10:38:07Z</time></trkpt><trkpt lat="42.958284343285236" lon="10.514171068569182"><ele>96.8</ele><time>2026-04-19T10:38:08Z</time></trkpt><trkpt lat="42.95833528206525" lon="10.514297778672253"><ele>97.0</ele><time>2026-04-19T10:38:09Z</time></trkpt><trkpt lat="42.95838388347305" lon="10.51442996521535"><ele>97.0</ele><time>2026-04-19T10:38:10Z</time></trkpt><trkpt lat="42.95842325570882" lon="10.514534897465706"><ele>97.0</ele><time>2026-04-19T10:38:11Z</time></trkpt><trkpt lat="42.95847923959957" lon="10.51466589034781"><ele>97.0</ele><time>2026-04-19T10:38:12Z</time></trkpt><trkpt lat="42.958553778357334" lon="10.51479812890169"><ele>97.0</ele><time>2026-04-19T10:38:13Z</time></trkpt><trkpt lat="42.9586363453771" lon="10.514924880723854"><ele>97.0</ele><time>2026-04-19T10:38:14Z</time></trkpt><trkpt lat="42.95869287043639" lon="10.515054290286315"><ele>94.6</ele><time>2026-04-19T10:38:15Z</time></trkpt><trkpt lat="42.958740555823" lon="10.515173216006731"><ele>92.19999999999999</ele><time>2026-04-19T10:38:16Z</time></trkpt><trkpt lat="42.958782258526206" lon="10.515256116754342"><ele>89.8</ele><time>2026-04-19T10:38:17Z</time></trkpt><trkpt lat="42.95884291169765" lon="10.515283521587016"><ele>87.4</ele><time>2026-04-19T10:38:18Z</time></trkpt><trkpt lat="42.95893421359314" lon="10.515267443522163"><ele>85.0</ele><time>2026-04-19T10:38:19Z</time></trkpt><trkpt lat="42.95905763858486" lon="10.515237457620085"><ele>85.0</ele><time>2026-04-19T10:38:20Z</time></trkpt><trkpt lat="42.95919739941071" lon="10.515216877623223"><ele>85.0</ele><time>2026-04-19T10:38:21Z</time></trkpt><trkpt lat="42.9593325437418" lon="10.51519521718853"><ele>85.0</ele><time>2026-04-19T10:38:22Z</time></trkpt><trkpt lat="42.95942342206957" lon="10.515169551054878"><ele>85.0</ele><time>2026-04-19T10:38:23Z</time></trkpt><trkpt lat="42.95950156851509" lon="10.515220752740781"><ele>82.0</ele><time>2026-04-19T10:38:25Z</time></trkpt><trkpt lat="42.95948439490827" lon="10.515415264532301"><ele>79.0</ele><time>2026-04-19T10:38:27Z</time></trkpt><trkpt lat="42.9594806737397" lon="10.515625847733169"><ele>76.0</ele><time>2026-04-19T10:38:28Z</time></trkpt><trkpt lat="42.95953548377542" lon="10.51587992601419"><ele>76.0</ele><time>2026-04-19T10:38:29Z</time></trkpt><trkpt lat="42.959570041547856" lon="10.516096537862184"><ele>76.0</ele><time>2026-04-19T10:38:30Z</time></trkpt><trkpt lat="42.9595920882008" lon="10.51631349863277"><ele>76.0</ele><time>2026-04-19T10:38:31Z</time></trkpt><trkpt lat="42.959631847241916" lon="10.516547657081546"><ele>74.5</ele><time>2026-04-19T10:38:32Z</time></trkpt><trkpt lat="42.95966965268502" lon="10.51676795235743"><ele>73.0</ele><time>2026-04-19T10:38:33Z</time></trkpt><trkpt lat="42.959686371833605" lon="10.516964482964049"><ele>71.5</ele><time>2026-04-19T10:38:34Z</time></trkpt><trkpt lat="42.95972351308995" lon="10.517133264186128"><ele>70.0</ele><time>2026-04-19T10:38:35Z</time></trkpt><trkpt lat="42.95975205752015" lon="10.517312107297498"><ele>68.8</ele><time>2026-04-19T10:38:36Z</time></trkpt><trkpt lat="42.95977491928439" lon="10.517478618457796"><ele>67.6</ele><time>2026-04-19T10:38:37Z</time></trkpt><trkpt lat="42.95980210395543" lon="10.517607440015666"><ele>66.4</ele><time>2026-04-19T10:38:38Z</time></trkpt><trkpt lat="42.9598244960855" lon="10.517714663350347"><ele>65.2</ele><time>2026-04-19T10:38:39Z</time></trkpt><trkpt lat="42.95984264053764" lon="10.517828768709567"><ele>64.0</ele><time>2026-04-19T10:38:40Z</time></trkpt><trkpt lat="42.959856558050774" lon="10.517969710256601"><ele>62.75</ele><time>2026-04-19T10:38:41Z</time></trkpt><trkpt lat="42.95988679157826" lon="10.51813688356228"><ele>61.5</ele><time>2026-04-19T10:38:42Z</time></trkpt><trkpt lat="42.95991546535946" lon="10.518315296809078"><ele>60.25</ele><time>2026-04-19T10:38:43Z</time></trkpt><trkpt lat="42.959947164693176" lon="10.518508678145354"><ele>59.0</ele><time>2026-04-19T10:38:44Z</time></trkpt><trkpt lat="42.95998125248436" lon="10.518711678483385"><ele>58.0</ele><time>2026-04-19T10:38:45Z</time></trkpt><trkpt lat="42.96001424326546" lon="10.518919147474634"><ele>57.0</ele><time>2026-04-19T10:38:46Z</time></trkpt><trkpt lat="42.96004710059414" lon="10.51912773417549"><ele>56.0</ele><time>2026-04-19T10:38:47Z</time></trkpt><trkpt lat="42.96007197956094" lon="10.519296761029281"><ele>55.0</ele><time>2026-04-19T10:38:48Z</time></trkpt><trkpt lat="42.96009508214708" lon="10.519436235119015"><ele>54.25</ele><time>2026-04-19T10:38:49Z</time></trkpt><trkpt lat="42.96011623523132" lon="10.519578721103382"><ele>53.5</ele><time>2026-04-19T10:38:50Z</time></trkpt><trkpt lat="42.960119319797876" lon="10.519739496939243"><ele>52.75</ele><time>2026-04-19T10:38:51Z</time></trkpt><trkpt lat="42.96009217194271" lon="10.519931265687747"><ele>52.0</ele><time>2026-04-19T10:38:52Z</time></trkpt><trkpt lat="42.960056012494626" lon="10.520095195412324"><ele>51.5</ele><time>2026-04-19T10:38:53Z</time></trkpt><trkpt lat="42.95999821890897" lon="10.520227525209918"><ele>51.0</ele><time>2026-04-19T10:38:54Z</time></trkpt><trkpt lat="42.95992474642455" lon="10.520383118846228"><ele>50.5</ele><time>2026-04-19T10:38:55Z</time></trkpt><trkpt lat="42.959838675719766" lon="10.520552040220007"><ele>50.0</ele><time>2026-04-19T10:38:56Z</time></trkpt><trkpt lat="42.95974322190924" lon="10.520750053250438"><ele>49.0</ele><time>2026-04-19T10:38:57Z</time></trkpt><trkpt lat="42.9596730951641" lon="10.520934051866181"><ele>48.0</ele><time>2026-04-19T10:38:58Z</time></trkpt><trkpt lat="42.95958160844428" lon="10.52107048924339"><ele>47.0</ele><time>2026-04-19T10:38:59Z</time></trkpt><trkpt lat="42.95949972213662" lon="10.521202805340726"><ele>46.0</ele><time>2026-04-19T10:39:00Z</time></trkpt><trkpt lat="42.959423584319026" lon="10.52131067441983"><ele>45.199999999999996</ele><time>2026-04-19T10:39:01Z</time></trkpt><trkpt lat="42.95936960401156" lon="10.521403411659586"><ele>44.4</ele><time>2026-04-19T10:39:02Z</time></trkpt><trkpt lat="42.95931181357567" lon="10.52146802111026"><ele>43.6</ele><time>2026-04-19T10:39:03Z</time></trkpt><trkpt lat="42.95928613492735" lon="10.521564858193779"><ele>42.8</ele><time>2026-04-19T10:39:04Z</time></trkpt><trkpt lat="42.95932562142139" lon="10.521728537023428"><ele>42.0</ele><time>2026-04-19T10:39:05Z</time></trkpt><trkpt lat="42.95935072452535" lon="10.521921597606367"><ele>41.333333333333336</ele><time>2026-04-19T10:39:06Z</time></trkpt><trkpt lat="42.95937953641446" lon="10.52214738736093"><ele>40.66666666666667</ele><time>2026-04-19T10:39:07Z</time></trkpt><trkpt lat="42.95941278828101" lon="10.52240898471033"><ele>40.0</ele><time>2026-04-19T10:39:08Z</time></trkpt><trkpt lat="42.959447481990814" lon="10.522666119804583"><ele>39.66666666666667</ele><time>2026-04-19T10:39:09Z</time></trkpt><trkpt lat="42.95947287795638" lon="10.522932944951775"><ele>39.333333333333336</ele><time>2026-04-19T10:39:10Z</time></trkpt><trkpt lat="42.95950028353382" lon="10.523192351604443"><ele>39.0</ele><time>2026-04-19T10:39:11Z</time></trkpt><trkpt lat="42.95953310352107" lon="10.523471215571002"><ele>38.666666666666664</ele><time>2026-04-19T10:39:12Z</time></trkpt><trkpt lat="42.959559143253024" lon="10.523731336911984"><ele>38.33333333333333</ele><time>2026-04-19T10:39:13Z</time></trkpt><trkpt lat="42.959598461777404" lon="10.523989147534264"><ele>38.0</ele><time>2026-04-19T10:39:14Z</time></trkpt><trkpt lat="42.959630757653336" lon="10.524237090121844"><ele>38.0</ele><time>2026-04-19T10:39:15Z</time></trkpt><trkpt lat="42.95965455921957" lon="10.52447002542023"><ele>38.0</ele><time>2026-04-19T10:39:16Z</time></trkpt><trkpt lat="42.959678633393764" lon="10.524662586990818"><ele>38.0</ele><time>2026-04-19T10:39:17Z</time></trkpt><trkpt lat="42.95969606095726" lon="10.524816608470616"><ele>38.0</ele><time>2026-04-19T10:39:18Z</time></trkpt><trkpt lat="42.95971269473302" lon="10.524955248991857"><ele>37.4</ele><time>2026-04-19T10:39:19Z</time></trkpt><trkpt lat="42.95972072375567" lon="10.525057032484941"><ele>36.8</ele><time>2026-04-19T10:39:20Z</time></trkpt><trkpt lat="42.9596644354963" lon="10.525186986663266"><ele>36.2</ele><time>2026-04-19T10:39:22Z</time></trkpt><trkpt lat="42.95958018788909" lon="10.525208640818002"><ele>35.6</ele><time>2026-04-19T10:39:23Z</time></trkpt><trkpt lat="42.959471970126096" lon="10.525195816581142"><ele>35.0</ele><time>2026-04-19T10:39:24Z</time></trkpt><trkpt lat="42.95935061349002" lon="10.525210006460863"><ele>35.0</ele><time>2026-04-19T10:39:25Z</time></trkpt><trkpt lat="42.95928032453838" lon="10.525223546474633"><ele>35.0</ele><time>2026-04-19T10:39:26Z</time></trkpt><trkpt lat="42.95923698442523" lon="10.525360291054676"><ele>35.0</ele><time>2026-04-19T10:39:28Z</time></trkpt><trkpt lat="42.95924608432352" lon="10.525470749074895"><ele>35.0</ele><time>2026-04-19T10:39:29Z</time></trkpt><trkpt lat="42.95926380551243" lon="10.525632524045896"><ele>35.0</ele><time>2026-04-19T10:39:30Z</time></trkpt><trkpt lat="42.95928057361777" lon="10.525769339456875"><ele>35.0</ele><time>2026-04-19T10:39:31Z</time></trkpt><trkpt lat="42.959293883683145" lon="10.525869221408682"><ele>35.0</ele><time>2026-04-19T10:39:33Z</time></trkpt><trkpt lat="42.95921004179789" lon="10.525816026077651"><ele>35.0</ele><time>2026-04-19T10:39:35Z</time></trkpt><trkpt lat="42.95911135157652" lon="10.525752783074998"><ele>35.0</ele><time>2026-04-19T10:39:36Z</time></trkpt><trkpt lat="42.95898186431083" lon="10.525671667395653"><ele>35.0</ele><time>2026-04-19T10:39:37Z</time></trkpt><trkpt lat="42.95883655313295" lon="10.525594819562516"><ele>34.5</ele><time>2026-04-19T10:39:38Z</time></trkpt><trkpt lat="42.958698770345414" lon="10.525558318259083"><ele>34.0</ele><time>2026-04-19T10:39:39Z</time></trkpt><trkpt lat="42.958556357036684" lon="10.525556568706234"><ele>33.5</ele><time>2026-04-19T10:39:40Z</time></trkpt><trkpt lat="42.95840354426298" lon="10.525562807014365"><ele>33.0</ele><time>2026-04-19T10:39:41Z</time></trkpt><trkpt lat="42.95825576519592" lon="10.525568742973018"><ele>32.25</ele><time>2026-04-19T10:39:42Z</time></trkpt><trkpt lat="42.958132314528406" lon="10.525573579418031"><ele>31.5</ele><time>2026-04-19T10:39:43Z</time></trkpt><trkpt lat="42.95800894151061" lon="10.525606483389634"><ele>30.75</ele><time>2026-04-19T10:39:44Z</time></trkpt><trkpt lat="42.95788873767322" lon="10.525639979972537"><ele>30.0</ele><time>2026-04-19T10:39:45Z</time></trkpt><trkpt lat="42.95776750658787" lon="10.525690852002809"><ele>30.0</ele><time>2026-04-19T10:39:46Z</time></trkpt><trkpt lat="42.957640563151806" lon="10.525727030259098"><ele>30.0</ele><time>2026-04-19T10:39:47Z</time></trkpt><trkpt lat="42.95750893677405" lon="10.525746549362324"><ele>30.0</ele><time>2026-04-19T10:39:48Z</time></trkpt><trkpt lat="42.957337122563956" lon="10.525800400688976"><ele>30.0</ele><time>2026-04-19T10:39:49Z</time></trkpt><trkpt lat="42.957199039698175" lon="10.525863824299535"><ele>30.5</ele><time>2026-04-19T10:39:50Z</time></trkpt><trkpt lat="42.95713956078806" lon="10.525805640978085"><ele>31.0</ele><time>2026-04-19T10:39:51Z</time></trkpt><trkpt lat="42.95701465415325" lon="10.52578902779615"><ele>31.5</ele><time>2026-04-19T10:39:52Z</time></trkpt><trkpt lat="42.95688007893487" lon="10.525789684959797"><ele>32.0</ele><time>2026-04-19T10:39:53Z</time></trkpt><trkpt lat="42.95676377577268" lon="10.525796365315987"><ele>32.5</ele><time>2026-04-19T10:39:54Z</time></trkpt><trkpt lat="42.956658585923215" lon="10.525808293619479"><ele>33.0</ele><time>2026-04-19T10:39:55Z</time></trkpt><trkpt lat="42.956719133873946" lon="10.52655252211919"><ele>32.25</ele><time>2026-04-19T10:39:57Z</time></trkpt><trkpt lat="42.95676128248051" lon="10.526680537014837"><ele>31.5</ele><time>2026-04-19T10:39:58Z</time></trkpt><trkpt lat="42.95681672189585" lon="10.526876407129071"><ele>30.75</ele><time>2026-04-19T10:39:59Z</time></trkpt><trkpt lat="42.95686751523186" lon="10.52711577186305"><ele>30.0</ele><time>2026-04-19T10:40:00Z</time></trkpt><trkpt lat="42.95690762482595" lon="10.52732017304242"><ele>29.5</ele><time>2026-04-19T10:40:01Z</time></trkpt><trkpt lat="42.95693099306698" lon="10.52747855065641"><ele>29.0</ele><time>2026-04-19T10:40:02Z</time></trkpt><trkpt lat="42.95694985551486" lon="10.52761370304034"><ele>28.5</ele><time>2026-04-19T10:40:03Z</time></trkpt><trkpt lat="42.95696186468289" lon="10.527772411691796"><ele>28.0</ele><time>2026-04-19T10:40:04Z</time></trkpt><trkpt lat="42.95696605786545" lon="10.527958118664708"><ele>26.75</ele><time>2026-04-19T10:40:05Z</time></trkpt><trkpt lat="42.956964821853504" lon="10.528158053422404"><ele>25.5</ele><time>2026-04-19T10:40:06Z</time></trkpt><trkpt lat="42.95696450211329" lon="10.528366620080433"><ele>24.25</ele><time>2026-04-19T10:40:07Z</time></trkpt><trkpt lat="42.95695637906223" lon="10.528553859844601"><ele>23.0</ele><time>2026-04-19T10:40:08Z</time></trkpt><trkpt lat="42.95694261479499" lon="10.528671623474404"><ele>22.799999999999997</ele><time>2026-04-19T10:40:09Z</time></trkpt><trkpt lat="42.95693294122046" lon="10.528766711065426"><ele>22.6</ele><time>2026-04-19T10:40:10Z</time></trkpt><trkpt lat="42.95694687253398" lon="10.528914347956697"><ele>22.4</ele><time>2026-04-19T10:40:12Z</time></trkpt><trkpt lat="42.95687837251947" lon="10.528959396912539"><ele>22.200000000000003</ele><time>2026-04-19T10:40:14Z</time></trkpt><trkpt lat="42.95678281044987" lon="10.528915920745066"><ele>22.0</ele><time>2026-04-19T10:40:16Z</time></trkpt><trkpt lat="42.95669260666869" lon="10.528854021857239"><ele>23.0</ele><time>2026-04-19T10:40:17Z</time></trkpt><trkpt lat="42.9565571228684" lon="10.52877344742886"><ele>24.0</ele><time>2026-04-19T10:40:18Z</time></trkpt><trkpt lat="42.956424814882304" lon="10.528707891625952"><ele>25.0</ele><time>2026-04-19T10:40:19Z</time></trkpt><trkpt lat="42.956290617821864" lon="10.528635935788087"><ele>26.0</ele><time>2026-04-19T10:40:20Z</time></trkpt><trkpt lat="42.95615724270244" lon="10.528562426483356"><ele>26.25</ele><time>2026-04-19T10:40:21Z</time></trkpt><trkpt lat="42.95605021139691" lon="10.528494482011727"><ele>26.5</ele><time>2026-04-19T10:40:22Z</time></trkpt><trkpt lat="42.95591453050617" lon="10.528438076617416"><ele>26.75</ele><time>2026-04-19T10:40:23Z</time></trkpt><trkpt lat="42.955770418837396" lon="10.52836049287927"><ele>27.0</ele><time>2026-04-19T10:40:24Z</time></trkpt><trkpt lat="42.955628989332155" lon="10.528291685686037"><ele>28.75</ele><time>2026-04-19T10:40:25Z</time></trkpt><trkpt lat="42.95548427258254" lon="10.52822809456868"><ele>30.5</ele><time>2026-04-19T10:40:26Z</time></trkpt><trkpt lat="42.95534255123399" lon="10.52815660831209"><ele>32.25</ele><time>2026-04-19T10:40:27Z</time></trkpt><trkpt lat="42.955230579614465" lon="10.528098469361248"><ele>34.0</ele><time>2026-04-19T10:40:28Z</time></trkpt><trkpt lat="42.95515283233254" lon="10.528061360689303"><ele>34.0</ele><time>2026-04-19T10:40:29Z</time></trkpt><trkpt lat="42.95506427500574" lon="10.52801093066679"><ele>34.0</ele><time>2026-04-19T10:40:30Z</time></trkpt><trkpt lat="42.95494871568822" lon="10.527942579204716"><ele>34.0</ele><time>2026-04-19T10:40:31Z</time></trkpt><trkpt lat="42.95481003214961" lon="10.527870888905856"><ele>34.0</ele><time>2026-04-19T10:40:32Z</time></trkpt><trkpt lat="42.95467349347391" lon="10.52779689598705"><ele>34.2</ele><time>2026-04-19T10:40:33Z</time></trkpt><trkpt lat="42.954539722352855" lon="10.527724754026108"><ele>34.4</ele><time>2026-04-19T10:40:34Z</time></trkpt><trkpt lat="42.954432787486354" lon="10.52766362566445"><ele>34.6</ele><time>2026-04-19T10:40:35Z</time></trkpt><trkpt lat="42.954372927794154" lon="10.527617678193169"><ele>34.8</ele><time>2026-04-19T10:40:36Z</time></trkpt><trkpt lat="42.95427593058116" lon="10.527584474593601"><ele>35.0</ele><time>2026-04-19T10:40:38Z</time></trkpt><trkpt lat="42.954197963611556" lon="10.52768542663594"><ele>36.5</ele><time>2026-04-19T10:40:40Z</time></trkpt><trkpt lat="42.954151553908325" lon="10.527797501541711"><ele>38.0</ele><time>2026-04-19T10:40:41Z</time></trkpt><trkpt lat="42.95408215853463" lon="10.527944045312465"><ele>39.5</ele><time>2026-04-19T10:40:42Z</time></trkpt><trkpt lat="42.953984174925765" lon="10.528104857302287"><ele>41.0</ele><time>2026-04-19T10:40:43Z</time></trkpt><trkpt lat="42.953861987649525" lon="10.528261219869421"><ele>41.0</ele><time>2026-04-19T10:40:44Z</time></trkpt><trkpt lat="42.953751129751616" lon="10.528456500814976"><ele>41.0</ele><time>2026-04-19T10:40:45Z</time></trkpt><trkpt lat="42.95365622840819" lon="10.52867533914592"><ele>41.0</ele><time>2026-04-19T10:40:46Z</time></trkpt><trkpt lat="42.95354124384609" lon="10.528872575401284"><ele>40.33333333333333</ele><time>2026-04-19T10:40:47Z</time></trkpt><trkpt lat="42.953432318030046" lon="10.529069182862477"><ele>39.666666666666664</ele><time>2026-04-19T10:40:48Z</time></trkpt><trkpt lat="42.95333002532111" lon="10.529248561413631"><ele>39.0</ele><time>2026-04-19T10:40:49Z</time></trkpt><trkpt lat="42.95322856246668" lon="10.529412679951735"><ele>39.75</ele><time>2026-04-19T10:40:50Z</time></trkpt><trkpt lat="42.95312245638466" lon="10.529531168105363"><ele>40.5</ele><time>2026-04-19T10:40:51Z</time></trkpt><trkpt lat="42.95305620996584" lon="10.529692945265461"><ele>41.25</ele><time>2026-04-19T10:40:52Z</time></trkpt><trkpt lat="42.95299208685123" lon="10.529826046640718"><ele>42.0</ele><time>2026-04-19T10:40:53Z</time></trkpt><trkpt lat="42.95295439081476" lon="10.529918020648273"><ele>42.0</ele><time>2026-04-19T10:40:54Z</time></trkpt><trkpt lat="42.952910357533106" lon="10.530034537425461"><ele>42.0</ele><time>2026-04-19T10:40:56Z</time></trkpt><trkpt lat="42.953061985949596" lon="10.53017579392507"><ele>42.0</ele><time>2026-04-19T10:40:58Z</time></trkpt><trkpt lat="42.95318568876801" lon="10.530247946290093"><ele>42.0</ele><time>2026-04-19T10:40:59Z</time></trkpt><trkpt lat="42.95332541929981" lon="10.530311090484812"><ele>40.333333333333336</ele><time>2026-04-19T10:41:00Z</time></trkpt><trkpt lat="42.953467058160165" lon="10.530401386521381"><ele>38.66666666666667</ele><time>2026-04-19T10:41:01Z</time></trkpt><trkpt lat="42.953629042110585" lon="10.530493339636159"><ele>37.0</ele><time>2026-04-19T10:41:02Z</time></trkpt><trkpt lat="42.95380405895659" lon="10.530590740755303"><ele>37.0</ele><time>2026-04-19T10:41:03Z</time></trkpt><trkpt lat="42.95398214783251" lon="10.530685326306088"><ele>37.0</ele><time>2026-04-19T10:41:04Z</time></trkpt><trkpt lat="42.95414195451105" lon="10.530746181683135"><ele>37.0</ele><time>2026-04-19T10:41:05Z</time></trkpt><trkpt lat="42.954294112883765" lon="10.530823811913505"><ele>35.66666666666667</ele><time>2026-04-19T10:41:06Z</time></trkpt><trkpt lat="42.95443495921731" lon="10.530918056053302"><ele>34.333333333333336</ele><time>2026-04-19T10:41:07Z</time></trkpt><trkpt lat="42.954582755595304" lon="10.53100079883321"><ele>33.0</ele><time>2026-04-19T10:41:08Z</time></trkpt><trkpt lat="42.95472276257456" lon="10.531081451519475"><ele>33.0</ele><time>2026-04-19T10:41:09Z</time></trkpt><trkpt lat="42.95487026924791" lon="10.531148693612415"><ele>33.0</ele><time>2026-04-19T10:41:10Z</time></trkpt><trkpt lat="42.955026964288294" lon="10.531247427947259"><ele>33.0</ele><time>2026-04-19T10:41:11Z</time></trkpt><trkpt lat="42.955193585562064" lon="10.531342887216706"><ele>31.333333333333336</ele><time>2026-04-19T10:41:12Z</time></trkpt><trkpt lat="42.95536387788043" lon="10.531438868919679"><ele>29.666666666666668</ele><time>2026-04-19T10:41:13Z</time></trkpt><trkpt lat="42.95554134780158" lon="10.53153922159415"><ele>28.0</ele><time>2026-04-19T10:41:14Z</time></trkpt><trkpt lat="42.955724500599445" lon="10.531639054877022"><ele>27.666666666666668</ele><time>2026-04-19T10:41:15Z</time></trkpt><trkpt lat="42.95590713706364" lon="10.531729915253457"><ele>27.333333333333336</ele><time>2026-04-19T10:41:16Z</time></trkpt><trkpt lat="42.95606238482559" lon="10.531823819889023"><ele>27.0</ele><time>2026-04-19T10:41:17Z</time></trkpt><trkpt lat="42.9562346584618" lon="10.531898648250559"><ele>27.0</ele><time>2026-04-19T10:41:18Z</time></trkpt><trkpt lat="42.95638779974564" lon="10.53198140089799"><ele>27.0</ele><time>2026-04-19T10:41:19Z</time></trkpt><trkpt lat="42.95655206987976" lon="10.532070357828104"><ele>27.0</ele><time>2026-04-19T10:41:20Z</time></trkpt><trkpt lat="42.95672426816518" lon="10.532152329741903"><ele>25.5</ele><time>2026-04-19T10:41:21Z</time></trkpt><trkpt lat="42.95686053579134" lon="10.53224709536528"><ele>24.0</ele><time>2026-04-19T10:41:22Z</time></trkpt><trkpt lat="42.95698151081419" lon="10.532314465185328"><ele>22.5</ele><time>2026-04-19T10:41:23Z</time></trkpt><trkpt lat="42.957088081534266" lon="10.532375208642978"><ele>21.0</ele><time>2026-04-19T10:41:24Z</time></trkpt><trkpt lat="42.95718131341626" lon="10.532428349114"><ele>21.0</ele><time>2026-04-19T10:41:25Z</time></trkpt><trkpt lat="42.957264460407636" lon="10.532462081580448"><ele>21.0</ele><time>2026-04-19T10:41:26Z</time></trkpt><trkpt lat="42.95731888861116" lon="10.532549699238384"><ele>21.0</ele><time>2026-04-19T10:41:27Z</time></trkpt><trkpt lat="42.957343464071094" lon="10.532641880014953"><ele>21.0</ele><time>2026-04-19T10:41:28Z</time></trkpt><trkpt lat="42.957339781533" lon="10.532758391941897"><ele>21.0</ele><time>2026-04-19T10:41:29Z</time></trkpt><trkpt lat="42.95730453362393" lon="10.532933648653422"><ele>19.666666666666668</ele><time>2026-04-19T10:41:30Z</time></trkpt><trkpt lat="42.957274764213665" lon="10.533147575415368"><ele>18.333333333333336</ele><time>2026-04-19T10:41:31Z</time></trkpt><trkpt lat="42.95725351138949" lon="10.533373838999552"><ele>17.0</ele><time>2026-04-19T10:41:32Z</time></trkpt><trkpt lat="42.957232029314476" lon="10.533603649593507"><ele>16.666666666666668</ele><time>2026-04-19T10:41:33Z</time></trkpt><trkpt lat="42.957213949667796" lon="10.533800242468711"><ele>16.333333333333332</ele><time>2026-04-19T10:41:34Z</time></trkpt><trkpt lat="42.95719151804299" lon="10.533998918516863"><ele>16.0</ele><time>2026-04-19T10:41:35Z</time></trkpt><trkpt lat="42.95716495396746" lon="10.534217219097325"><ele>16.0</ele><time>2026-04-19T10:41:36Z</time></trkpt><trkpt lat="42.95715011016357" lon="10.534431318123357"><ele>16.0</ele><time>2026-04-19T10:41:37Z</time></trkpt><trkpt lat="42.957120246625855" lon="10.534643516245199"><ele>16.0</ele><time>2026-04-19T10:41:38Z</time></trkpt><trkpt lat="42.95708918197588" lon="10.53484298949209"><ele>15.25</ele><time>2026-04-19T10:41:39Z</time></trkpt><trkpt lat="42.95707029013943" lon="10.535023883997072"><ele>14.5</ele><time>2026-04-19T10:41:40Z</time></trkpt><trkpt lat="42.957069477278345" lon="10.535189811216192"><ele>13.75</ele><time>2026-04-19T10:41:41Z</time></trkpt><trkpt lat="42.957086269657175" lon="10.535344682120483"><ele>13.0</ele><time>2026-04-19T10:41:42Z</time></trkpt><trkpt lat="42.957115030557226" lon="10.535512510023164"><ele>13.0</ele><time>2026-04-19T10:41:43Z</time></trkpt><trkpt lat="42.957166087977214" lon="10.535675351557167"><ele>13.0</ele><time>2026-04-19T10:41:44Z</time></trkpt><trkpt lat="42.9572314824205" lon="10.535820489555185"><ele>13.0</ele><time>2026-04-19T10:41:45Z</time></trkpt><trkpt lat="42.95730834666293" lon="10.535953658724706"><ele>13.0</ele><time>2026-04-19T10:41:46Z</time></trkpt><trkpt lat="42.95738628379207" lon="10.53612024654415"><ele>12.666666666666666</ele><time>2026-04-19T10:41:47Z</time></trkpt><trkpt lat="42.95746775422555" lon="10.536333851918007"><ele>12.333333333333332</ele><time>2026-04-19T10:41:48Z</time></trkpt><trkpt lat="42.95754406789312" lon="10.536574814200247"><ele>12.0</ele><time>2026-04-19T10:41:49Z</time></trkpt><trkpt lat="42.95762508392576" lon="10.536810978929102"><ele>11.333333333333334</ele><time>2026-04-19T10:41:50Z</time></trkpt><trkpt lat="42.9576938799078" lon="10.537027672108502"><ele>10.666666666666668</ele><time>2026-04-19T10:41:51Z</time></trkpt><trkpt lat="42.957750402377705" lon="10.537218592007088"><ele>10.0</ele><time>2026-04-19T10:41:52Z</time></trkpt><trkpt lat="42.95780397359655" lon="10.537387032180789"><ele>9.666666666666668</ele><time>2026-04-19T10:41:53Z</time></trkpt><trkpt lat="42.95784158854816" lon="10.537514603147786"><ele>9.333333333333334</ele><time>2026-04-19T10:41:54Z</time></trkpt><trkpt lat="42.957856919738504" lon="10.537614117263248"><ele>9.0</ele><time>2026-04-19T10:41:55Z</time></trkpt><trkpt lat="42.95785140445892" lon="10.537702547336815"><ele>8.666666666666666</ele><time>2026-04-19T10:41:56Z</time></trkpt><trkpt lat="42.9578080144115" lon="10.53778104709034"><ele>8.333333333333332</ele><time>2026-04-19T10:41:57Z</time></trkpt><trkpt lat="42.95774697599087" lon="10.537882978674928"><ele>8.0</ele><time>2026-04-19T10:41:58Z</time></trkpt><trkpt lat="42.95774411570481" lon="10.53799259733723"><ele>7.6000000000000005</ele><time>2026-04-19T10:41:59Z</time></trkpt><trkpt lat="42.95778905315096" lon="10.538076342719304"><ele>7.200000000000001</ele><time>2026-04-19T10:42:00Z</time></trkpt><trkpt lat="42.95786022484832" lon="10.538128634888652"><ele>6.8</ele><time>2026-04-19T10:42:01Z</time></trkpt><trkpt lat="42.9579487699736" lon="10.538132637126987"><ele>6.4</ele><time>2026-04-19T10:42:02Z</time></trkpt><trkpt lat="42.958045404342066" lon="10.538054034971928"><ele>6.0</ele><time>2026-04-19T10:42:03Z</time></trkpt><trkpt lat="42.95811447239858" lon="10.537897774411098"><ele>6.25</ele><time>2026-04-19T10:42:04Z</time></trkpt><trkpt lat="42.958225507369754" lon="10.537788962795275"><ele>6.5</ele><time>2026-04-19T10:42:05Z</time></trkpt><trkpt lat="42.95836417464864" lon="10.537709205034954"><ele>6.75</ele><time>2026-04-19T10:42:06Z</time></trkpt><trkpt lat="42.95850817238899" lon="10.53765836926148"><ele>7.0</ele><time>2026-04-19T10:42:07Z</time></trkpt><trkpt lat="42.95867185160924" lon="10.53761245193589"><ele>7.0</ele><time>2026-04-19T10:42:08Z</time></trkpt><trkpt lat="42.95885503481093" lon="10.537557243184647"><ele>7.0</ele><time>2026-04-19T10:42:09Z</time></trkpt><trkpt lat="42.95905419358533" lon="10.537508511137174"><ele>7.0</ele><time>2026-04-19T10:42:10Z</time></trkpt><trkpt lat="42.95924114943021" lon="10.537468439461929"><ele>7.333333333333334</ele><time>2026-04-19T10:42:11Z</time></trkpt><trkpt lat="42.959422489483835" lon="10.537427172372372"><ele>7.666666666666666</ele><time>2026-04-19T10:42:12Z</time></trkpt><trkpt lat="42.95959746164406" lon="10.537389610231664"><ele>8.0</ele><time>2026-04-19T10:42:13Z</time></trkpt><trkpt lat="42.95976481495563" lon="10.537357930949549"><ele>8.0</ele><time>2026-04-19T10:42:14Z</time></trkpt><trkpt lat="42.959939592634946" lon="10.537326002958547"><ele>8.0</ele><time>2026-04-19T10:42:15Z</time></trkpt><trkpt lat="42.96010966195387" lon="10.537291849459944"><ele>8.0</ele><time>2026-04-19T10:42:16Z</time></trkpt><trkpt lat="42.960277600661236" lon="10.53726704034609"><ele>7.666666666666666</ele><time>2026-04-19T10:42:17Z</time></trkpt><trkpt lat="42.96043579231925" lon="10.537254114117877"><ele>7.333333333333334</ele><time>2026-04-19T10:42:18Z</time></trkpt><trkpt lat="42.96059543387014" lon="10.537257747334529"><ele>7.0</ele><time>2026-04-19T10:42:19Z</time></trkpt><trkpt lat="42.960758861341475" lon="10.5372772549696"><ele>7.666666666666667</ele><time>2026-04-19T10:42:20Z</time></trkpt><trkpt lat="42.96094898186689" lon="10.537312484199775"><ele>8.333333333333334</ele><time>2026-04-19T10:42:21Z</time></trkpt><trkpt lat="42.96115321271658" lon="10.537361300009263"><ele>9.0</ele><time>2026-04-19T10:42:22Z</time></trkpt><trkpt lat="42.961343035111746" lon="10.537415473039475"><ele>9.0</ele><time>2026-04-19T10:42:23Z</time></trkpt><trkpt lat="42.96150586695666" lon="10.537458910447336"><ele>9.0</ele><time>2026-04-19T10:42:24Z</time></trkpt><trkpt lat="42.961671061110714" lon="10.537490884418474"><ele>9.0</ele><time>2026-04-19T10:42:25Z</time></trkpt><trkpt lat="42.96184681340986" lon="10.537522178925885"><ele>9.666666666666666</ele><time>2026-04-19T10:42:26Z</time></trkpt><trkpt lat="42.962013219081776" lon="10.53755365384091"><ele>10.333333333333332</ele><time>2026-04-19T10:42:27Z</time></trkpt><trkpt lat="42.96218583404817" lon="10.537585210319143"><ele>11.0</ele><time>2026-04-19T10:42:28Z</time></trkpt><trkpt lat="42.96233433845913" lon="10.5376200532112"><ele>11.0</ele><time>2026-04-19T10:42:29Z</time></trkpt><trkpt lat="42.9624851559897" lon="10.537645595750652"><ele>11.0</ele><time>2026-04-19T10:42:30Z</time></trkpt><trkpt lat="42.96262971073766" lon="10.537678783009303"><ele>11.0</ele><time>2026-04-19T10:42:31Z</time></trkpt><trkpt lat="42.96278081608702" lon="10.537708885534213"><ele>11.666666666666666</ele><time>2026-04-19T10:42:32Z</time></trkpt><trkpt lat="42.96293099886996" lon="10.537735304883167"><ele>12.333333333333332</ele><time>2026-04-19T10:42:33Z</time></trkpt><trkpt lat="42.96310519124396" lon="10.537766578771048"><ele>13.0</ele><time>2026-04-19T10:42:34Z</time></trkpt><trkpt lat="42.963282755089544" lon="10.537794862417787"><ele>13.333333333333332</ele><time>2026-04-19T10:42:35Z</time></trkpt><trkpt lat="42.96346366427643" lon="10.537825647339973"><ele>13.666666666666668</ele><time>2026-04-19T10:42:36Z</time></trkpt><trkpt lat="42.96364041875946" lon="10.537848004318349"><ele>14.0</ele><time>2026-04-19T10:42:37Z</time></trkpt><trkpt lat="42.96381747219871" lon="10.537889432921494"><ele>13.333333333333334</ele><time>2026-04-19T10:42:38Z</time></trkpt><trkpt lat="42.96399813016894" lon="10.53793959734548"><ele>12.666666666666668</ele><time>2026-04-19T10:42:39Z</time></trkpt><trkpt lat="42.96417344592366" lon="10.538022864533596"><ele>12.0</ele><time>2026-04-19T10:42:40Z</time></trkpt><trkpt lat="42.9643234518072" lon="10.538137522392324"><ele>11.666666666666666</ele><time>2026-04-19T10:42:41Z</time></trkpt><trkpt lat="42.96446245851666" lon="10.53828314175363"><ele>11.333333333333332</ele><time>2026-04-19T10:42:42Z</time></trkpt><trkpt lat="42.9645949738189" lon="10.538448035671276"><ele>11.0</ele><time>2026-04-19T10:42:43Z</time></trkpt><trkpt lat="42.964736256039295" lon="10.538591706153383"><ele>11.0</ele><time>2026-04-19T10:42:44Z</time></trkpt><trkpt lat="42.96481784124588" lon="10.538836422849041"><ele>11.0</ele><time>2026-04-19T10:42:45Z</time></trkpt><trkpt lat="42.96490666463467" lon="10.539057876577868"><ele>11.0</ele><time>2026-04-19T10:42:46Z</time></trkpt><trkpt lat="42.96499623777895" lon="10.539289049813672"><ele>9.666666666666666</ele><time>2026-04-19T10:42:47Z</time></trkpt><trkpt lat="42.965092086465745" lon="10.539519706973525"><ele>8.333333333333334</ele><time>2026-04-19T10:42:48Z</time></trkpt><trkpt lat="42.965195170116075" lon="10.539751098903126"><ele>7.0</ele><time>2026-04-19T10:42:49Z</time></trkpt><trkpt lat="42.96529411140582" lon="10.539986944476507"><ele>7.0</ele><time>2026-04-19T10:42:50Z</time></trkpt><trkpt lat="42.965393047269956" lon="10.540220348622707"><ele>7.0</ele><time>2026-04-19T10:42:51Z</time></trkpt><trkpt lat="42.9654934007501" lon="10.5404485557598"><ele>7.0</ele><time>2026-04-19T10:42:52Z</time></trkpt><trkpt lat="42.96559657801869" lon="10.540685198841299"><ele>7.0</ele><time>2026-04-19T10:42:53Z</time></trkpt><trkpt lat="42.96569012860842" lon="10.540916574584942"><ele>7.0</ele><time>2026-04-19T10:42:54Z</time></trkpt><trkpt lat="42.965783300994474" lon="10.541157614097767"><ele>7.0</ele><time>2026-04-19T10:42:55Z</time></trkpt><trkpt lat="42.96587287731592" lon="10.541406385197611"><ele>6.666666666666667</ele><time>2026-04-19T10:42:56Z</time></trkpt><trkpt lat="42.9659540010345" lon="10.541655030760655"><ele>6.333333333333334</ele><time>2026-04-19T10:42:57Z</time></trkpt><trkpt lat="42.966030433710195" lon="10.541900577043345"><ele>6.0</ele><time>2026-04-19T10:42:58Z</time></trkpt><trkpt lat="42.966099388004785" lon="10.542139258569634"><ele>6.0</ele><time>2026-04-19T10:42:59Z</time></trkpt><trkpt lat="42.96616914480664" lon="10.542378640606444"><ele>6.0</ele><time>2026-04-19T10:43:00Z</time></trkpt><trkpt lat="42.96623964565007" lon="10.542619998212688"><ele>6.0</ele><time>2026-04-19T10:43:01Z</time></trkpt><trkpt lat="42.96631177374452" lon="10.54286236287655"><ele>5.333333333333333</ele><time>2026-04-19T10:43:02Z</time></trkpt><trkpt lat="42.96638481428907" lon="10.543112974161986"><ele>4.666666666666666</ele><time>2026-04-19T10:43:03Z</time></trkpt><trkpt lat="42.966454658460506" lon="10.543360030364687"><ele>4.0</ele><time>2026-04-19T10:43:04Z</time></trkpt><trkpt lat="42.96652630958672" lon="10.543608964079393"><ele>4.0</ele><time>2026-04-19T10:43:05Z</time></trkpt><trkpt lat="42.966589010906574" lon="10.543852714034863"><ele>4.0</ele><time>2026-04-19T10:43:06Z</time></trkpt><trkpt lat="42.96663634272361" lon="10.544096968685505"><ele>4.0</ele><time>2026-04-19T10:43:07Z</time></trkpt><trkpt lat="42.96667525965796" lon="10.544343927251425"><ele>3.333333333333333</ele><time>2026-04-19T10:43:08Z</time></trkpt><trkpt lat="42.96671364443659" lon="10.544600739410075"><ele>2.6666666666666665</ele><time>2026-04-19T10:43:09Z</time></trkpt><trkpt lat="42.96675009295802" lon="10.544859557340244"><ele>2.0</ele><time>2026-04-19T10:43:10Z</time></trkpt><trkpt lat="42.966789124043586" lon="10.545123767324142"><ele>2.0</ele><time>2026-04-19T10:43:11Z</time></trkpt><trkpt lat="42.96682428723301" lon="10.545386936878453"><ele>2.0</ele><time>2026-04-19T10:43:12Z</time></trkpt><trkpt lat="42.966861645873806" lon="10.545655734485823"><ele>2.0</ele><time>2026-04-19T10:43:13Z</time></trkpt><trkpt lat="42.966897920937676" lon="10.545916983193893"><ele>2.0</ele><time>2026-04-19T10:43:14Z</time></trkpt><trkpt lat="42.96693333461954" lon="10.546161735938938"><ele>2.0</ele><time>2026-04-19T10:43:15Z</time></trkpt><trkpt lat="42.966965332041205" lon="10.54638974194626"><ele>2.0</ele><time>2026-04-19T10:43:16Z</time></trkpt><trkpt lat="42.96699939536571" lon="10.546629454693688"><ele>2.333333333333333</ele><time>2026-04-19T10:43:17Z</time></trkpt><trkpt lat="42.967030771406456" lon="10.546871606799291"><ele>2.6666666666666665</ele><time>2026-04-19T10:43:18Z</time></trkpt><trkpt lat="42.96705988165606" lon="10.547092342591451"><ele>3.0</ele><time>2026-04-19T10:43:19Z</time></trkpt><trkpt lat="42.967084832493974" lon="10.54729307977659"><ele>3.0</ele><time>2026-04-19T10:43:20Z</time></trkpt><trkpt lat="42.96711341499586" lon="10.547502799062917"><ele>3.0</ele><time>2026-04-19T10:43:21Z</time></trkpt><trkpt lat="42.96714657910278" lon="10.547722084834467"><ele>3.0</ele><time>2026-04-19T10:43:22Z</time></trkpt><trkpt lat="42.96717620349708" lon="10.5479344706395"><ele>2.6666666666666665</ele><time>2026-04-19T10:43:23Z</time></trkpt><trkpt lat="42.967209725611745" lon="10.54815850776093"><ele>2.333333333333333</ele><time>2026-04-19T10:43:24Z</time></trkpt><trkpt lat="42.96724110376842" lon="10.54838850789488"><ele>2.0</ele><time>2026-04-19T10:43:25Z</time></trkpt><trkpt lat="42.967271362082265" lon="10.548631276283988"><ele>1.6666666666666665</ele><time>2026-04-19T10:43:26Z</time></trkpt><trkpt lat="42.96729547800163" lon="10.548871631942262"><ele>1.3333333333333333</ele><time>2026-04-19T10:43:27Z</time></trkpt><trkpt lat="42.96732061284533" lon="10.549112339435236"><ele>1.0</ele><time>2026-04-19T10:43:28Z</time></trkpt><trkpt lat="42.9673511611531" lon="10.549333834705847"><ele>1.3333333333333333</ele><time>2026-04-19T10:43:29Z</time></trkpt><trkpt lat="42.967384562088036" lon="10.549555914875757"><ele>1.6666666666666665</ele><time>2026-04-19T10:43:30Z</time></trkpt><trkpt lat="42.96742060490835" lon="10.549805362268406"><ele>2.0</ele><time>2026-04-19T10:43:31Z</time></trkpt><trkpt lat="42.96745538553363" lon="10.550061666944023"><ele>2.0</ele><time>2026-04-19T10:43:32Z</time></trkpt><trkpt lat="42.96748053627152" lon="10.550298524081063"><ele>2.0</ele><time>2026-04-19T10:43:33Z</time></trkpt><trkpt lat="42.96750536640886" lon="10.55051418505613"><ele>2.0</ele><time>2026-04-19T10:43:34Z</time></trkpt><trkpt lat="42.967530983507544" lon="10.550738285652365"><ele>2.0</ele><time>2026-04-19T10:43:35Z</time></trkpt><trkpt lat="42.967557179715314" lon="10.5509517667308"><ele>2.0</ele><time>2026-04-19T10:43:36Z</time></trkpt><trkpt lat="42.9675824969804" lon="10.551168639083743"><ele>2.0</ele><time>2026-04-19T10:43:37Z</time></trkpt><trkpt lat="42.967604846078274" lon="10.551346210220673"><ele>2.0</ele><time>2026-04-19T10:43:38Z</time></trkpt><trkpt lat="42.96763185463935" lon="10.55154090183239"><ele>2.0</ele><time>2026-04-19T10:43:39Z</time></trkpt><trkpt lat="42.96765388525882" lon="10.551711471279777"><ele>2.0</ele><time>2026-04-19T10:43:40Z</time></trkpt><trkpt lat="42.96767827195612" lon="10.551887277104282"><ele>2.0</ele><time>2026-04-19T10:43:41Z</time></trkpt><trkpt lat="42.967704772232175" lon="10.552067130694144"><ele>2.0</ele><time>2026-04-19T10:43:42Z</time></trkpt><trkpt lat="42.96772713562298" lon="10.552271791865406"><ele>2.0</ele><time>2026-04-19T10:43:43Z</time></trkpt><trkpt lat="42.96774547131645" lon="10.55244840515979"><ele>2.0</ele><time>2026-04-19T10:43:44Z</time></trkpt><trkpt lat="42.9677653485729" lon="10.552624673878427"><ele>2.0</ele><time>2026-04-19T10:43:45Z</time></trkpt><trkpt lat="42.967786011659456" lon="10.552800337504252"><ele>2.0</ele><time>2026-04-19T10:43:46Z</time></trkpt><trkpt lat="42.96780677770945" lon="10.552965419478385"><ele>2.0</ele><time>2026-04-19T10:43:47Z</time></trkpt><trkpt lat="42.96783022870218" lon="10.553127348094945"><ele>2.0</ele><time>2026-04-19T10:43:48Z</time></trkpt><trkpt lat="42.967852166615415" lon="10.553298497213687"><ele>2.0</ele><time>2026-04-19T10:43:49Z</time></trkpt><trkpt lat="42.9678780544676" lon="10.553460192303003"><ele>1.9999999999999998</ele><time>2026-04-19T10:43:50Z</time></trkpt><trkpt lat="42.967895522273665" lon="10.553593567667106"><ele>2.0</ele><time>2026-04-19T10:43:51Z</time></trkpt><trkpt lat="42.967905716655835" lon="10.553712962067268"><ele>2.0</ele><time>2026-04-19T10:43:52Z</time></trkpt><trkpt lat="42.96790706413034" lon="10.553826254537533"><ele>2.0</ele><time>2026-04-19T10:43:53Z</time></trkpt><trkpt lat="42.96790408329709" lon="10.553935490542415"><ele>1.9999999999999998</ele><time>2026-04-19T10:43:54Z</time></trkpt><trkpt lat="42.96792205695784" lon="10.554061272416392"><ele>2.0</ele><time>2026-04-19T10:43:55Z</time></trkpt><trkpt lat="42.9679042969447" lon="10.554189468662003"><ele>2.0</ele><time>2026-04-19T10:43:56Z</time></trkpt><trkpt lat="42.96787933427127" lon="10.554326224454481"><ele>2.0</ele><time>2026-04-19T10:43:57Z</time></trkpt><trkpt lat="42.96783934842944" lon="10.554468596592418"><ele>2.0</ele><time>2026-04-19T10:43:58Z</time></trkpt><trkpt lat="42.96778633746989" lon="10.554579399317278"><ele>2.0</ele><time>2026-04-19T10:43:59Z</time></trkpt><trkpt lat="42.96773141060717" lon="10.55467743929173"><ele>2.0</ele><time>2026-04-19T10:44:00Z</time></trkpt><trkpt lat="42.967673751814125" lon="10.554787632416344"><ele>2.0</ele><time>2026-04-19T10:44:01Z</time></trkpt><trkpt lat="42.9676293496075" lon="10.55491391007452"><ele>2.0</ele><time>2026-04-19T10:44:02Z</time></trkpt><trkpt lat="42.967608600267106" lon="10.555026125333097"><ele>2.0</ele><time>2026-04-19T10:44:03Z</time></trkpt><trkpt lat="42.9675223564385" lon="10.555127690515851"><ele>2.0</ele><time>2026-04-19T10:44:04Z</time></trkpt><trkpt lat="42.96750187552682" lon="10.555244770513852"><ele>2.0</ele><time>2026-04-19T10:44:05Z</time></trkpt><trkpt lat="42.967490730329416" lon="10.555369417601884"><ele>2.0</ele><time>2026-04-19T10:44:06Z</time></trkpt><trkpt lat="42.96747683983746" lon="10.555508807792163"><ele>2.0</ele><time>2026-04-19T10:44:07Z</time></trkpt><trkpt lat="42.96746375813518" lon="10.55566142697547"><ele>2.0</ele><time>2026-04-19T10:44:08Z</time></trkpt><trkpt lat="42.96745525195291" lon="10.55582012417341"><ele>2.0</ele><time>2026-04-19T10:44:09Z</time></trkpt><trkpt lat="42.967449314322046" lon="10.555985105330326"><ele>2.0</ele><time>2026-04-19T10:44:10Z</time></trkpt><trkpt lat="42.96744402302664" lon="10.55613752770204"><ele>2.0</ele><time>2026-04-19T10:44:11Z</time></trkpt><trkpt lat="42.96743902435276" lon="10.55629022185843"><ele>2.0</ele><time>2026-04-19T10:44:12Z</time></trkpt><trkpt lat="42.96742208455636" lon="10.556448148067249"><ele>2.0</ele><time>2026-04-19T10:44:13Z</time></trkpt><trkpt lat="42.96744955996761" lon="10.55662348958266"><ele>2.0</ele><time>2026-04-19T10:44:14Z</time></trkpt><trkpt lat="42.96745667169313" lon="10.55681912714325"><ele>2.0</ele><time>2026-04-19T10:44:15Z</time></trkpt><trkpt lat="42.96745108617957" lon="10.557021278475837"><ele>2.0</ele><time>2026-04-19T10:44:16Z</time></trkpt><trkpt lat="42.96744381726578" lon="10.557242942758242"><ele>2.0</ele><time>2026-04-19T10:44:17Z</time></trkpt><trkpt lat="42.967435973575434" lon="10.557459311715276"><ele>2.0</ele><time>2026-04-19T10:44:18Z</time></trkpt><trkpt lat="42.9674252507093" lon="10.557684018157703"><ele>2.0</ele><time>2026-04-19T10:44:19Z</time></trkpt><trkpt lat="42.9674157604969" lon="10.55791807679435"><ele>2.0</ele><time>2026-04-19T10:44:20Z</time></trkpt><trkpt lat="42.96740594465778" lon="10.558161070462909"><ele>2.0</ele><time>2026-04-19T10:44:21Z</time></trkpt><trkpt lat="42.96739822287625" lon="10.558413222407387"><ele>2.0</ele><time>2026-04-19T10:44:22Z</time></trkpt><trkpt lat="42.96739054001616" lon="10.558667100386426"><ele>1.3333333333333333</ele><time>2026-04-19T10:44:23Z</time></trkpt><trkpt lat="42.96738259808915" lon="10.558914918917257"><ele>0.6666666666666666</ele><time>2026-04-19T10:44:24Z</time></trkpt><trkpt lat="42.96737217021991" lon="10.559155788998751"><ele>0.0</ele><time>2026-04-19T10:44:25Z</time></trkpt><trkpt lat="42.96736271718049" lon="10.559398672227593"><ele>0.3333333333333333</ele><time>2026-04-19T10:44:26Z</time></trkpt><trkpt lat="42.96735310224297" lon="10.559653024904886"><ele>0.6666666666666666</ele><time>2026-04-19T10:44:27Z</time></trkpt><trkpt lat="42.96734512915848" lon="10.559915904614256"><ele>1.0</ele><time>2026-04-19T10:44:28Z</time></trkpt><trkpt lat="42.967340472874724" lon="10.560179716802379"><ele>0.6666666666666666</ele><time>2026-04-19T10:44:29Z</time></trkpt><trkpt lat="42.96733342561017" lon="10.560441045927252"><ele>0.3333333333333333</ele><time>2026-04-19T10:44:30Z</time></trkpt><trkpt lat="42.967324156840526" lon="10.56071160057895"><ele>0.0</ele><time>2026-04-19T10:44:31Z</time></trkpt><trkpt lat="42.9673147929932" lon="10.560989073036703"><ele>0.0</ele><time>2026-04-19T10:44:32Z</time></trkpt><trkpt lat="42.967305232253445" lon="10.561268710329564"><ele>0.0</ele><time>2026-04-19T10:44:33Z</time></trkpt><trkpt lat="42.96729586178761" lon="10.561542721452339"><ele>0.0</ele><time>2026-04-19T10:44:34Z</time></trkpt><trkpt lat="42.96728766647968" lon="10.561804744644865"><ele>-0.6666666666666666</ele><time>2026-04-19T10:44:35Z</time></trkpt><trkpt lat="42.967279993077355" lon="10.562063852488242"><ele>-1.3333333333333333</ele><time>2026-04-19T10:44:36Z</time></trkpt><trkpt lat="42.96727478686376" lon="10.562323078345454"><ele>-2.0</ele><time>2026-04-19T10:44:37Z</time></trkpt><trkpt lat="42.967267215115115" lon="10.562584029726272"><ele>-2.0</ele><time>2026-04-19T10:44:38Z</time></trkpt><trkpt lat="42.967262292358754" lon="10.562851545904614"><ele>-2.0</ele><time>2026-04-19T10:44:39Z</time></trkpt><trkpt lat="42.96725520389207" lon="10.563125002235852"><ele>-2.0</ele><time>2026-04-19T10:44:40Z</time></trkpt><trkpt lat="42.967247007481454" lon="10.563397272269665"><ele>-1.3333333333333333</ele><time>2026-04-19T10:44:41Z</time></trkpt><trkpt lat="42.96723689631217" lon="10.563669546177366"><ele>-0.6666666666666666</ele><time>2026-04-19T10:44:42Z</time></trkpt><trkpt lat="42.96722529291921" lon="10.563938132001242"><ele>0.0</ele><time>2026-04-19T10:44:43Z</time></trkpt><trkpt lat="42.96721446727896" lon="10.564209034115489"><ele>0.3333333333333333</ele><time>2026-04-19T10:44:44Z</time></trkpt><trkpt lat="42.96720558135155" lon="10.564486927310082"><ele>0.6666666666666666</ele><time>2026-04-19T10:44:45Z</time></trkpt><trkpt lat="42.96719827094867" lon="10.56477049525653"><ele>1.0</ele><time>2026-04-19T10:44:46Z</time></trkpt><trkpt lat="42.96719269205322" lon="10.565044001135277"><ele>1.0</ele><time>2026-04-19T10:44:47Z</time></trkpt><trkpt lat="42.96718529215166" lon="10.565316854794126"><ele>1.0</ele><time>2026-04-19T10:44:48Z</time></trkpt><trkpt lat="42.96717694784644" lon="10.565581254704256"><ele>1.0</ele><time>2026-04-19T10:44:49Z</time></trkpt><trkpt lat="42.96717021086095" lon="10.56584417467162"><ele>1.0</ele><time>2026-04-19T10:44:50Z</time></trkpt><trkpt lat="42.967163328589706" lon="10.566107682379654"><ele>1.0</ele><time>2026-04-19T10:44:51Z</time></trkpt><trkpt lat="42.967158075128914" lon="10.566366911848995"><ele>1.0</ele><time>2026-04-19T10:44:52Z</time></trkpt><trkpt lat="42.96715254796726" lon="10.566627201412524"><ele>1.0</ele><time>2026-04-19T10:44:53Z</time></trkpt><trkpt lat="42.967143384085844" lon="10.566890133920783"><ele>1.0</ele><time>2026-04-19T10:44:54Z</time></trkpt><trkpt lat="42.9671365813721" lon="10.567162432489443"><ele>1.0</ele><time>2026-04-19T10:44:55Z</time></trkpt><trkpt lat="42.96713415400791" lon="10.567434808602433"><ele>1.0</ele><time>2026-04-19T10:44:56Z</time></trkpt><trkpt lat="42.967128897193206" lon="10.567717427277294"><ele>1.0</ele><time>2026-04-19T10:44:57Z</time></trkpt><trkpt lat="42.967124234758266" lon="10.567996960537247"><ele>1.0</ele><time>2026-04-19T10:44:58Z</time></trkpt><trkpt lat="42.96711560766164" lon="10.568271956276108"><ele>1.0</ele><time>2026-04-19T10:44:59Z</time></trkpt><trkpt lat="42.96710565862438" lon="10.56854410797372"><ele>1.0</ele><time>2026-04-19T10:45:00Z</time></trkpt><trkpt lat="42.96709842936679" lon="10.568816858108217"><ele>1.0</ele><time>2026-04-19T10:45:01Z</time></trkpt><trkpt lat="42.96709363178911" lon="10.569078562415793"><ele>1.0</ele><time>2026-04-19T10:45:02Z</time></trkpt><trkpt lat="42.96709010868937" lon="10.569338650018215"><ele>1.0</ele><time>2026-04-19T10:45:03Z</time></trkpt><trkpt lat="42.96708466855625" lon="10.569597070383635"><ele>1.0</ele><time>2026-04-19T10:45:04Z</time></trkpt><trkpt lat="42.967075790309416" lon="10.569861669410301"><ele>1.0</ele><time>2026-04-19T10:45:05Z</time></trkpt><trkpt lat="42.96706431951106" lon="10.570132796680976"><ele>1.0</ele><time>2026-04-19T10:45:06Z</time></trkpt><trkpt lat="42.967054779516" lon="10.570407461544017"><ele>1.0</ele><time>2026-04-19T10:45:07Z</time></trkpt><trkpt lat="42.967048068489184" lon="10.57068842987838"><ele>0.3333333333333333</ele><time>2026-04-19T10:45:08Z</time></trkpt><trkpt lat="42.96703862487988" lon="10.570971188226425"><ele>-0.3333333333333333</ele><time>2026-04-19T10:45:09Z</time></trkpt><trkpt lat="42.96702779416121" lon="10.571258078431619"><ele>-1.0</ele><time>2026-04-19T10:45:10Z</time></trkpt><trkpt lat="42.967018696045294" lon="10.57154416097364"><ele>-1.0</ele><time>2026-04-19T10:45:11Z</time></trkpt><trkpt lat="42.96701221829268" lon="10.57183173465595"><ele>-1.0</ele><time>2026-04-19T10:45:12Z</time></trkpt><trkpt lat="42.967003233943935" lon="10.572125057778921"><ele>-1.0</ele><time>2026-04-19T10:45:13Z</time></trkpt><trkpt lat="42.96699392742658" lon="10.572411565443312"><ele>-1.0</ele><time>2026-04-19T10:45:14Z</time></trkpt><trkpt lat="42.96698635036283" lon="10.572701294614589"><ele>-1.0</ele><time>2026-04-19T10:45:15Z</time></trkpt><trkpt lat="42.96697772857181" lon="10.572982865350422"><ele>-1.0</ele><time>2026-04-19T10:45:16Z</time></trkpt><trkpt lat="42.96696947305406" lon="10.573268620560642"><ele>-0.6666666666666666</ele><time>2026-04-19T10:45:17Z</time></trkpt><trkpt lat="42.96696140661993" lon="10.57355887399387"><ele>-0.3333333333333333</ele><time>2026-04-19T10:45:18Z</time></trkpt><trkpt lat="42.966951979206094" lon="10.573845471800883"><ele>0.0</ele><time>2026-04-19T10:45:19Z</time></trkpt><trkpt lat="42.96694259702262" lon="10.574141086787208"><ele>0.0</ele><time>2026-04-19T10:45:20Z</time></trkpt><trkpt lat="42.96693201831293" lon="10.574442864596698"><ele>0.0</ele><time>2026-04-19T10:45:21Z</time></trkpt><trkpt lat="42.966923275918205" lon="10.57474365252669"><ele>0.0</ele><time>2026-04-19T10:45:22Z</time></trkpt><trkpt lat="42.96691763345807" lon="10.575044187408546"><ele>0.0</ele><time>2026-04-19T10:45:23Z</time></trkpt><trkpt lat="42.96691364407404" lon="10.575335089619436"><ele>0.0</ele><time>2026-04-19T10:45:24Z</time></trkpt><trkpt lat="42.96690398013959" lon="10.57562665288762"><ele>0.0</ele><time>2026-04-19T10:45:25Z</time></trkpt><trkpt lat="42.96689360718318" lon="10.57591343018458"><ele>-0.3333333333333333</ele><time>2026-04-19T10:45:26Z</time></trkpt><trkpt lat="42.9668868741123" lon="10.576194547397405"><ele>-0.6666666666666666</ele><time>2026-04-19T10:45:27Z</time></trkpt><trkpt lat="42.96688037005698" lon="10.576467507329166"><ele>-1.0</ele><time>2026-04-19T10:45:28Z</time></trkpt><trkpt lat="42.96687280731212" lon="10.576741044242523"><ele>-1.0</ele><time>2026-04-19T10:45:29Z</time></trkpt><trkpt lat="42.966863845946335" lon="10.57701296611494"><ele>-1.0</ele><time>2026-04-19T10:45:30Z</time></trkpt><trkpt lat="42.96685487042925" lon="10.57728799601631"><ele>-1.0</ele><time>2026-04-19T10:45:31Z</time></trkpt><trkpt lat="42.96684682116053" lon="10.577564760922687"><ele>-0.3333333333333333</ele><time>2026-04-19T10:45:32Z</time></trkpt><trkpt lat="42.9668390771408" lon="10.577842072885039"><ele>0.3333333333333333</ele><time>2026-04-19T10:45:33Z</time></trkpt><trkpt lat="42.96683218857835" lon="10.578123392074312"><ele>1.0</ele><time>2026-04-19T10:45:34Z</time></trkpt><trkpt lat="42.9668254811378" lon="10.578406078869431"><ele>1.0</ele><time>2026-04-19T10:45:35Z</time></trkpt><trkpt lat="42.96681756207868" lon="10.578689618497176"><ele>1.0</ele><time>2026-04-19T10:45:36Z</time></trkpt><trkpt lat="42.96681206023255" lon="10.578964241480362"><ele>1.0</ele><time>2026-04-19T10:45:37Z</time></trkpt><trkpt lat="42.96680556171065" lon="10.579241164769673"><ele>1.3333333333333333</ele><time>2026-04-19T10:45:38Z</time></trkpt><trkpt lat="42.96679621465833" lon="10.579522871418611"><ele>1.6666666666666665</ele><time>2026-04-19T10:45:39Z</time></trkpt><trkpt lat="42.96678705602455" lon="10.579795377269361"><ele>2.0</ele><time>2026-04-19T10:45:40Z</time></trkpt><trkpt lat="42.96677897401485" lon="10.580082076195003"><ele>2.0</ele><time>2026-04-19T10:45:41Z</time></trkpt><trkpt lat="42.96677150684794" lon="10.580365434760937"><ele>2.0</ele><time>2026-04-19T10:45:42Z</time></trkpt><trkpt lat="42.9667634570449" lon="10.5806483462448"><ele>2.0</ele><time>2026-04-19T10:45:43Z</time></trkpt><trkpt lat="42.966757349349244" lon="10.580929052060851"><ele>1.6666666666666665</ele><time>2026-04-19T10:45:44Z</time></trkpt><trkpt lat="42.96675129883814" lon="10.581209813729547"><ele>1.3333333333333333</ele><time>2026-04-19T10:45:45Z</time></trkpt><trkpt lat="42.96674671320873" lon="10.581482095200352"><ele>1.0</ele><time>2026-04-19T10:45:46Z</time></trkpt><trkpt lat="42.96673820050552" lon="10.581765711899925"><ele>1.0</ele><time>2026-04-19T10:45:47Z</time></trkpt><trkpt lat="42.966731659150305" lon="10.582042483254751"><ele>1.0</ele><time>2026-04-19T10:45:48Z</time></trkpt><trkpt lat="42.96672315602644" lon="10.582319692888332"><ele>1.0</ele><time>2026-04-19T10:45:49Z</time></trkpt><trkpt lat="42.96671425546383" lon="10.582586648600417"><ele>0.6666666666666666</ele><time>2026-04-19T10:45:50Z</time></trkpt><trkpt lat="42.96670672602687" lon="10.582860554370887"><ele>0.3333333333333333</ele><time>2026-04-19T10:45:51Z</time></trkpt><trkpt lat="42.96669837022501" lon="10.583135765655776"><ele>0.0</ele><time>2026-04-19T10:45:52Z</time></trkpt><trkpt lat="42.96669187093538" lon="10.583407537842117"><ele>1.3333333333333333</ele><time>2026-04-19T10:45:53Z</time></trkpt><trkpt lat="42.96667994588932" lon="10.583686428506686"><ele>2.6666666666666665</ele><time>2026-04-19T10:45:54Z</time></trkpt><trkpt lat="42.96667326686258" lon="10.58396348870072"><ele>4.0</ele><time>2026-04-19T10:45:55Z</time></trkpt><trkpt lat="42.96666845229076" lon="10.584253188593221"><ele>3.333333333333333</ele><time>2026-04-19T10:45:56Z</time></trkpt><trkpt lat="42.96665781949142" lon="10.584534914065818"><ele>2.6666666666666665</ele><time>2026-04-19T10:45:57Z</time></trkpt><trkpt lat="42.96664789377918" lon="10.584819865128846"><ele>2.0</ele><time>2026-04-19T10:45:58Z</time></trkpt><trkpt lat="42.96663876912318" lon="10.585109171336423"><ele>2.0</ele><time>2026-04-19T10:45:59Z</time></trkpt><trkpt lat="42.96663104257487" lon="10.585389638300082"><ele>2.0</ele><time>2026-04-19T10:46:00Z</time></trkpt><trkpt lat="42.96662353367308" lon="10.585654194013157"><ele>2.0</ele><time>2026-04-19T10:46:01Z</time></trkpt><trkpt lat="42.96661877659053" lon="10.585930785579025"><ele>1.6666666666666665</ele><time>2026-04-19T10:46:02Z</time></trkpt><trkpt lat="42.96661309915997" lon="10.586207838697959"><ele>1.3333333333333333</ele><time>2026-04-19T10:46:03Z</time></trkpt><trkpt lat="42.96660174415621" lon="10.586494963368821"><ele>1.0</ele><time>2026-04-19T10:46:04Z</time></trkpt><trkpt lat="42.966592935291615" lon="10.58677475861794"><ele>1.3333333333333333</ele><time>2026-04-19T10:46:05Z</time></trkpt><trkpt lat="42.966583799922674" lon="10.587065735516777"><ele>1.6666666666666665</ele><time>2026-04-19T10:46:06Z</time></trkpt><trkpt lat="42.966576982033914" lon="10.587342722650881"><ele>2.0</ele><time>2026-04-19T10:46:07Z</time></trkpt><trkpt lat="42.9665711054792" lon="10.587617033043957"><ele>1.3333333333333333</ele><time>2026-04-19T10:46:08Z</time></trkpt><trkpt lat="42.966561831582915" lon="10.587889664170351"><ele>0.6666666666666666</ele><time>2026-04-19T10:46:09Z</time></trkpt><trkpt lat="42.966554454100205" lon="10.588159521965666"><ele>0.0</ele><time>2026-04-19T10:46:10Z</time></trkpt><trkpt lat="42.966552882375375" lon="10.588425820447565"><ele>-0.3333333333333333</ele><time>2026-04-19T10:46:11Z</time></trkpt><trkpt lat="42.96655395697795" lon="10.588698483906033"><ele>-0.6666666666666666</ele><time>2026-04-19T10:46:12Z</time></trkpt><trkpt lat="42.966556252935376" lon="10.588972876902968"><ele>-1.0</ele><time>2026-04-19T10:46:13Z</time></trkpt><trkpt lat="42.96655763854571" lon="10.589253065520124"><ele>-0.6666666666666666</ele><time>2026-04-19T10:46:14Z</time></trkpt><trkpt lat="42.96655955794093" lon="10.58952748877071"><ele>-0.3333333333333333</ele><time>2026-04-19T10:46:15Z</time></trkpt><trkpt lat="42.966562529823996" lon="10.589802544958012"><ele>0.0</ele><time>2026-04-19T10:46:16Z</time></trkpt><trkpt lat="42.96656644399643" lon="10.590070321168401"><ele>0.0</ele><time>2026-04-19T10:46:17Z</time></trkpt><trkpt lat="42.96656812125133" lon="10.59033554787082"><ele>0.0</ele><time>2026-04-19T10:46:18Z</time></trkpt><trkpt lat="42.966572607517556" lon="10.590589209045802"><ele>0.0</ele><time>2026-04-19T10:46:19Z</time></trkpt><trkpt lat="42.96657752156877" lon="10.590832355738968"><ele>0.0</ele><time>2026-04-19T10:46:20Z</time></trkpt><trkpt lat="42.96657817582947" lon="10.59107659782705"><ele>0.0</ele><time>2026-04-19T10:46:21Z</time></trkpt><trkpt lat="42.96657859569783" lon="10.591312148930745"><ele>0.0</ele><time>2026-04-19T10:46:22Z</time></trkpt><trkpt lat="42.96657925964779" lon="10.591530891851813"><ele>0.0</ele><time>2026-04-19T10:46:23Z</time></trkpt><trkpt lat="42.966580939555165" lon="10.59173655014602"><ele>0.0</ele><time>2026-04-19T10:46:24Z</time></trkpt><trkpt lat="42.96658200344578" lon="10.591939100496448"><ele>0.0</ele><time>2026-04-19T10:46:25Z</time></trkpt><trkpt lat="42.96658446314692" lon="10.592160606943853"><ele>0.0</ele><time>2026-04-19T10:46:26Z</time></trkpt><trkpt lat="42.96658822407691" lon="10.592390631537407"><ele>0.0</ele><time>2026-04-19T10:46:27Z</time></trkpt><trkpt lat="42.96659087851542" lon="10.592629874300204"><ele>0.0</ele><time>2026-04-19T10:46:28Z</time></trkpt><trkpt lat="42.96659548965243" lon="10.592877541625"><ele>-0.3333333333333333</ele><time>2026-04-19T10:46:29Z</time></trkpt><trkpt lat="42.966600784914284" lon="10.593131261670456"><ele>-0.6666666666666666</ele><time>2026-04-19T10:46:30Z</time></trkpt><trkpt lat="42.966604348224315" lon="10.59339267499877"><ele>-1.0</ele><time>2026-04-19T10:46:31Z</time></trkpt><trkpt lat="42.96660711097959" lon="10.593635856452222"><ele>-1.0</ele><time>2026-04-19T10:46:32Z</time></trkpt><trkpt lat="42.96661231919824" lon="10.593856578441395"><ele>-1.0</ele><time>2026-04-19T10:46:33Z</time></trkpt><trkpt lat="42.966614879142476" lon="10.594064876903415"><ele>-1.0</ele><time>2026-04-19T10:46:34Z</time></trkpt><trkpt lat="42.966620614966224" lon="10.59427202597789"><ele>-1.0</ele><time>2026-04-19T10:46:35Z</time></trkpt><trkpt lat="42.96662239171534" lon="10.594491552338388"><ele>-1.0</ele><time>2026-04-19T10:46:36Z</time></trkpt><trkpt lat="42.96662347485052" lon="10.594719744568641"><ele>-1.0</ele><time>2026-04-19T10:46:37Z</time></trkpt><trkpt lat="42.96662283015132" lon="10.5949544693482"><ele>-1.3333333333333333</ele><time>2026-04-19T10:46:38Z</time></trkpt><trkpt lat="42.96662309082311" lon="10.595197491143386"><ele>-1.6666666666666665</ele><time>2026-04-19T10:46:39Z</time></trkpt><trkpt lat="42.96662114614674" lon="10.595437723496351"><ele>-2.0</ele><time>2026-04-19T10:46:40Z</time></trkpt><trkpt lat="42.966622549415945" lon="10.595686101108747"><ele>-2.0</ele><time>2026-04-19T10:46:41Z</time></trkpt><trkpt lat="42.96662608814791" lon="10.595937936404031"><ele>-2.0</ele><time>2026-04-19T10:46:42Z</time></trkpt><trkpt lat="42.96663131668984" lon="10.596200818848594"><ele>-2.0</ele><time>2026-04-19T10:46:43Z</time></trkpt><trkpt lat="42.96663193518697" lon="10.596462141748084"><ele>-2.0</ele><time>2026-04-19T10:46:44Z</time></trkpt><trkpt lat="42.96663187489045" lon="10.596727782331332"><ele>-2.0</ele><time>2026-04-19T10:46:45Z</time></trkpt><trkpt lat="42.96663353319726" lon="10.596984352265098"><ele>-2.0</ele><time>2026-04-19T10:46:46Z</time></trkpt><trkpt lat="42.96663104230247" lon="10.597243586688702"><ele>-1.6666666666666665</ele><time>2026-04-19T10:46:47Z</time></trkpt><trkpt lat="42.96663327053635" lon="10.59752116844093"><ele>-1.3333333333333333</ele><time>2026-04-19T10:46:48Z</time></trkpt><trkpt lat="42.966637360627956" lon="10.597803323378148"><ele>-1.0</ele><time>2026-04-19T10:46:49Z</time></trkpt><trkpt lat="42.96664141667151" lon="10.598080751956644"><ele>-1.0</ele><time>2026-04-19T10:46:50Z</time></trkpt><trkpt lat="42.966642274009146" lon="10.598355967644181"><ele>-1.0</ele><time>2026-04-19T10:46:51Z</time></trkpt><trkpt lat="42.966641747782944" lon="10.598630882949886"><ele>-1.0</ele><time>2026-04-19T10:46:52Z</time></trkpt><trkpt lat="42.96664281575933" lon="10.598911981821589"><ele>-1.0</ele><time>2026-04-19T10:46:53Z</time></trkpt><trkpt lat="42.96664629720949" lon="10.599189360212963"><ele>-1.0</ele><time>2026-04-19T10:46:54Z</time></trkpt><trkpt lat="42.9666517609574" lon="10.599457810783708"><ele>-1.0</ele><time>2026-04-19T10:46:55Z</time></trkpt><trkpt lat="42.966655233201756" lon="10.599724884279704"><ele>-1.0</ele><time>2026-04-19T10:46:56Z</time></trkpt><trkpt lat="42.96665732846448" lon="10.599999797829588"><ele>-1.0</ele><time>2026-04-19T10:46:57Z</time></trkpt><trkpt lat="42.96665774055324" lon="10.60027345345451"><ele>-1.0</ele><time>2026-04-19T10:46:58Z</time></trkpt><trkpt lat="42.966655704259914" lon="10.600554006934294"><ele>-0.3333333333333333</ele><time>2026-04-19T10:46:59Z</time></trkpt><trkpt lat="42.96665459770398" lon="10.600836593640489"><ele>0.3333333333333333</ele><time>2026-04-19T10:47:00Z</time></trkpt><trkpt lat="42.96665817042402" lon="10.60111383425028"><ele>1.0</ele><time>2026-04-19T10:47:01Z</time></trkpt><trkpt lat="42.96666038599198" lon="10.601398431218787"><ele>1.0</ele><time>2026-04-19T10:47:02Z</time></trkpt><trkpt lat="42.96666405349377" lon="10.601683314064013"><ele>1.0</ele><time>2026-04-19T10:47:03Z</time></trkpt><trkpt lat="42.966665584616976" lon="10.601971140144007"><ele>1.0</ele><time>2026-04-19T10:47:04Z</time></trkpt><trkpt lat="42.96667205964868" lon="10.60225478849524"><ele>0.6666666666666666</ele><time>2026-04-19T10:47:05Z</time></trkpt><trkpt lat="42.966678810147044" lon="10.602536431063818"><ele>0.3333333333333333</ele><time>2026-04-19T10:47:06Z</time></trkpt><trkpt lat="42.96668298254684" lon="10.602817332290396"><ele>0.0</ele><time>2026-04-19T10:47:07Z</time></trkpt><trkpt lat="42.966684813646864" lon="10.603094187796124"><ele>-0.3333333333333333</ele><time>2026-04-19T10:47:08Z</time></trkpt><trkpt lat="42.96668800246354" lon="10.603355106151021"><ele>-0.6666666666666666</ele><time>2026-04-19T10:47:09Z</time></trkpt><trkpt lat="42.96668945345753" lon="10.603611056205871"><ele>-1.0</ele><time>2026-04-19T10:47:10Z</time></trkpt><trkpt lat="42.96669150225729" lon="10.603859948089072"><ele>-1.0</ele><time>2026-04-19T10:47:11Z</time></trkpt><trkpt lat="42.96669242425304" lon="10.60411007756962"><ele>-1.0</ele><time>2026-04-19T10:47:12Z</time></trkpt><trkpt lat="42.96669147955673" lon="10.604367871948494"><ele>-1.0</ele><time>2026-04-19T10:47:13Z</time></trkpt><trkpt lat="42.9666965319666" lon="10.60461339597331"><ele>-1.0</ele><time>2026-04-19T10:47:14Z</time></trkpt><trkpt lat="42.96670161730156" lon="10.604875789902918"><ele>-1.0</ele><time>2026-04-19T10:47:15Z</time></trkpt><trkpt lat="42.966700504851026" lon="10.605146297581278"><ele>-1.0</ele><time>2026-04-19T10:47:16Z</time></trkpt><trkpt lat="42.96670136992614" lon="10.605418897035985"><ele>-1.0</ele><time>2026-04-19T10:47:17Z</time></trkpt><trkpt lat="42.9667047439058" lon="10.605694750545007"><ele>-1.0</ele><time>2026-04-19T10:47:18Z</time></trkpt><trkpt lat="42.966706825272524" lon="10.605971114359324"><ele>-1.0</ele><time>2026-04-19T10:47:19Z</time></trkpt><trkpt lat="42.96670303945419" lon="10.606247913080827"><ele>-1.0</ele><time>2026-04-19T10:47:20Z</time></trkpt><trkpt lat="42.96669718208576" lon="10.606523593424653"><ele>-1.0</ele><time>2026-04-19T10:47:21Z</time></trkpt><trkpt lat="42.96668966593961" lon="10.60679116860549"><ele>-1.0</ele><time>2026-04-19T10:47:22Z</time></trkpt><trkpt lat="42.966679805710555" lon="10.607062202610004"><ele>-1.3333333333333333</ele><time>2026-04-19T10:47:23Z</time></trkpt><trkpt lat="42.96666852761108" lon="10.607336546708284"><ele>-1.6666666666666665</ele><time>2026-04-19T10:47:24Z</time></trkpt><trkpt lat="42.96665951881343" lon="10.607609690025967"><ele>-2.0</ele><time>2026-04-19T10:47:25Z</time></trkpt><trkpt lat="42.966653138310754" lon="10.607879269364563"><ele>-1.3333333333333333</ele><time>2026-04-19T10:47:26Z</time></trkpt><trkpt lat="42.966649724366256" lon="10.60815813875204"><ele>-0.6666666666666666</ele><time>2026-04-19T10:47:27Z</time></trkpt><trkpt lat="42.966649672478994" lon="10.608428248633437"><ele>0.0</ele><time>2026-04-19T10:47:28Z</time></trkpt><trkpt lat="42.966655456039376" lon="10.608698388946326"><ele>0.3333333333333333</ele><time>2026-04-19T10:47:29Z</time></trkpt><trkpt lat="42.966666938532704" lon="10.60896419438203"><ele>0.6666666666666666</ele><time>2026-04-19T10:47:30Z</time></trkpt><trkpt lat="42.966680982314585" lon="10.60923365062541"><ele>1.0</ele><time>2026-04-19T10:47:31Z</time></trkpt><trkpt lat="42.96669728694679" lon="10.609504483748752"><ele>0.3333333333333333</ele><time>2026-04-19T10:47:32Z</time></trkpt><trkpt lat="42.96671392311355" lon="10.60977036534456"><ele>-0.3333333333333333</ele><time>2026-04-19T10:47:33Z</time></trkpt><trkpt lat="42.966730356380175" lon="10.610025072507463"><ele>-1.0</ele><time>2026-04-19T10:47:34Z</time></trkpt><trkpt lat="42.96674195310686" lon="10.610260671137658"><ele>-0.3333333333333333</ele><time>2026-04-19T10:47:35Z</time></trkpt><trkpt lat="42.966754669477936" lon="10.610505335279875"><ele>0.3333333333333333</ele><time>2026-04-19T10:47:36Z</time></trkpt><trkpt lat="42.96676135548765" lon="10.610753241973185"><ele>1.0</ele><time>2026-04-19T10:47:37Z</time></trkpt><trkpt lat="42.966766722293535" lon="10.610997871235929"><ele>1.0</ele><time>2026-04-19T10:47:38Z</time></trkpt><trkpt lat="42.96677031906818" lon="10.611234061583739"><ele>1.0</ele><time>2026-04-19T10:47:39Z</time></trkpt><trkpt lat="42.96677215469363" lon="10.611467608368331"><ele>1.0</ele><time>2026-04-19T10:47:40Z</time></trkpt><trkpt lat="42.96677937225711" lon="10.61172627745555"><ele>0.6666666666666666</ele><time>2026-04-19T10:47:41Z</time></trkpt><trkpt lat="42.96678501309685" lon="10.611993344120249"><ele>0.3333333333333333</ele><time>2026-04-19T10:47:42Z</time></trkpt><trkpt lat="42.96678088185504" lon="10.612261985466182"><ele>0.0</ele><time>2026-04-19T10:47:43Z</time></trkpt><trkpt lat="42.96677272469806" lon="10.612522236213527"><ele>0.0</ele><time>2026-04-19T10:47:44Z</time></trkpt><trkpt lat="42.9667706834091" lon="10.612761530697725"><ele>0.0</ele><time>2026-04-19T10:47:45Z</time></trkpt><trkpt lat="42.96677272581229" lon="10.612988787135064"><ele>0.0</ele><time>2026-04-19T10:47:46Z</time></trkpt><trkpt lat="42.966772834446445" lon="10.613202254505852"><ele>0.0</ele><time>2026-04-19T10:47:47Z</time></trkpt><trkpt lat="42.96677188521206" lon="10.613408120030392"><ele>0.0</ele><time>2026-04-19T10:47:48Z</time></trkpt><trkpt lat="42.96677458100862" lon="10.613626561049118"><ele>0.0</ele><time>2026-04-19T10:47:49Z</time></trkpt><trkpt lat="42.96677740942492" lon="10.613850443216553"><ele>0.0</ele><time>2026-04-19T10:47:50Z</time></trkpt><trkpt lat="42.966778651876616" lon="10.614079944505674"><ele>0.0</ele><time>2026-04-19T10:47:51Z</time></trkpt><trkpt lat="42.966779158744046" lon="10.614310625596733"><ele>0.0</ele><time>2026-04-19T10:47:52Z</time></trkpt><trkpt lat="42.96677816238617" lon="10.614541949691196"><ele>0.0</ele><time>2026-04-19T10:47:53Z</time></trkpt><trkpt lat="42.96677660663545" lon="10.614771997800583"><ele>0.0</ele><time>2026-04-19T10:47:54Z</time></trkpt><trkpt lat="42.966779994642806" lon="10.615011987583673"><ele>0.0</ele><time>2026-04-19T10:47:55Z</time></trkpt><trkpt lat="42.96678037254905" lon="10.615259380246922"><ele>0.0</ele><time>2026-04-19T10:47:56Z</time></trkpt><trkpt lat="42.96678060037296" lon="10.61551122504543"><ele>0.0</ele><time>2026-04-19T10:47:57Z</time></trkpt><trkpt lat="42.966781341181374" lon="10.61576149580101"><ele>0.0</ele><time>2026-04-19T10:47:58Z</time></trkpt><trkpt lat="42.966784867161614" lon="10.616011013934013"><ele>0.3333333333333333</ele><time>2026-04-19T10:47:59Z</time></trkpt><trkpt lat="42.96678836259979" lon="10.616264074072655"><ele>0.6666666666666666</ele><time>2026-04-19T10:48:00Z</time></trkpt><trkpt lat="42.96679311163442" lon="10.616519834310065"><ele>1.0</ele><time>2026-04-19T10:48:01Z</time></trkpt><trkpt lat="42.96679766217873" lon="10.61677552294856"><ele>0.6666666666666666</ele><time>2026-04-19T10:48:02Z</time></trkpt><trkpt lat="42.96680389957048" lon="10.617017606460616"><ele>0.3333333333333333</ele><time>2026-04-19T10:48:03Z</time></trkpt><trkpt lat="42.96680253569812" lon="10.617256220285052"><ele>0.0</ele><time>2026-04-19T10:48:04Z</time></trkpt><trkpt lat="42.966801653257086" lon="10.6175033340933"><ele>0.0</ele><time>2026-04-19T10:48:05Z</time></trkpt><trkpt lat="42.96680329289582" lon="10.617760194336466"><ele>0.0</ele><time>2026-04-19T10:48:06Z</time></trkpt><trkpt lat="42.96680559511074" lon="10.618022734252312"><ele>0.0</ele><time>2026-04-19T10:48:07Z</time></trkpt><trkpt lat="42.96680829595447" lon="10.618292465301211"><ele>-0.3333333333333333</ele><time>2026-04-19T10:48:08Z</time></trkpt><trkpt lat="42.966812531237686" lon="10.618562536656544"><ele>-0.6666666666666666</ele><time>2026-04-19T10:48:09Z</time></trkpt><trkpt lat="42.96681361892527" lon="10.618825029045206"><ele>-1.0</ele><time>2026-04-19T10:48:10Z</time></trkpt><trkpt lat="42.96681536688694" lon="10.619090798864926"><ele>-1.0</ele><time>2026-04-19T10:48:11Z</time></trkpt><trkpt lat="42.96681796912452" lon="10.619352428889599"><ele>-1.0</ele><time>2026-04-19T10:48:12Z</time></trkpt><trkpt lat="42.96682245007245" lon="10.61961392352668"><ele>-1.0</ele><time>2026-04-19T10:48:13Z</time></trkpt><trkpt lat="42.96682632167114" lon="10.61986974384704"><ele>-1.0</ele><time>2026-04-19T10:48:14Z</time></trkpt><trkpt lat="42.96682968878023" lon="10.62013197459975"><ele>-1.0</ele><time>2026-04-19T10:48:15Z</time></trkpt><trkpt lat="42.96683086341807" lon="10.620389700270389"><ele>-1.0</ele><time>2026-04-19T10:48:16Z</time></trkpt><trkpt lat="42.966831793006506" lon="10.620649587726971"><ele>-0.6666666666666666</ele><time>2026-04-19T10:48:17Z</time></trkpt><trkpt lat="42.966832847641626" lon="10.620913800539014"><ele>-0.3333333333333333</ele><time>2026-04-19T10:48:18Z</time></trkpt><trkpt lat="42.966834398808324" lon="10.621179704096"><ele>0.0</ele><time>2026-04-19T10:48:19Z</time></trkpt><trkpt lat="42.96683632061627" lon="10.621446498061644"><ele>0.0</ele><time>2026-04-19T10:48:20Z</time></trkpt><trkpt lat="42.9668380130261" lon="10.621714769500018"><ele>0.0</ele><time>2026-04-19T10:48:21Z</time></trkpt><trkpt lat="42.966840357307504" lon="10.621982981238261"><ele>0.0</ele><time>2026-04-19T10:48:22Z</time></trkpt><trkpt lat="42.96684220652195" lon="10.622256055482634"><ele>0.0</ele><time>2026-04-19T10:48:23Z</time></trkpt><trkpt lat="42.96684899615137" lon="10.622535828720704"><ele>0.0</ele><time>2026-04-19T10:48:24Z</time></trkpt><trkpt lat="42.966848333646794" lon="10.622801066894208"><ele>0.0</ele><time>2026-04-19T10:48:25Z</time></trkpt><trkpt lat="42.9668521825653" lon="10.623068815560744"><ele>0.0</ele><time>2026-04-19T10:48:26Z</time></trkpt><trkpt lat="42.96685828813794" lon="10.623338132744237"><ele>0.0</ele><time>2026-04-19T10:48:27Z</time></trkpt><trkpt lat="42.96686173856508" lon="10.623608964893666"><ele>0.0</ele><time>2026-04-19T10:48:28Z</time></trkpt><trkpt lat="42.96686372038635" lon="10.623874540517352"><ele>0.0</ele><time>2026-04-19T10:48:29Z</time></trkpt><trkpt lat="42.966865377503865" lon="10.624142059959352"><ele>0.0</ele><time>2026-04-19T10:48:30Z</time></trkpt><trkpt lat="42.96686932877336" lon="10.6244044702316"><ele>0.0</ele><time>2026-04-19T10:48:31Z</time></trkpt><trkpt lat="42.96687112297741" lon="10.624664695833841"><ele>0.0</ele><time>2026-04-19T10:48:32Z</time></trkpt><trkpt lat="42.966871193402646" lon="10.624923567058637"><ele>0.0</ele><time>2026-04-19T10:48:33Z</time></trkpt><trkpt lat="42.966868642607935" lon="10.625182115978088"><ele>0.0</ele><time>2026-04-19T10:48:34Z</time></trkpt><trkpt lat="42.966865653814416" lon="10.625437761818807"><ele>0.0</ele><time>2026-04-19T10:48:35Z</time></trkpt><trkpt lat="42.966866468868844" lon="10.625665724731236"><ele>0.0</ele><time>2026-04-19T10:48:36Z</time></trkpt><trkpt lat="42.96686355745698" lon="10.625892410636293"><ele>0.0</ele><time>2026-04-19T10:48:37Z</time></trkpt><trkpt lat="42.96686219566339" lon="10.626119242242519"><ele>0.2</ele><time>2026-04-19T10:48:38Z</time></trkpt><trkpt lat="42.96685613216192" lon="10.626317764553406"><ele>0.4</ele><time>2026-04-19T10:48:39Z</time></trkpt><trkpt lat="42.9668503871735" lon="10.626482537458298"><ele>0.6000000000000001</ele><time>2026-04-19T10:48:40Z</time></trkpt><trkpt lat="42.96684802820486" lon="10.626612565132673"><ele>0.8</ele><time>2026-04-19T10:48:41Z</time></trkpt><trkpt lat="42.96685792268997" lon="10.626707395465758"><ele>1.0</ele><time>2026-04-19T10:48:42Z</time></trkpt><trkpt lat="42.96664770178153" lon="10.626696386770782"><ele>1.0</ele><time>2026-04-19T10:48:45Z</time></trkpt><trkpt lat="42.966528816634245" lon="10.626647244290096"><ele>1.0</ele><time>2026-04-19T10:48:46Z</time></trkpt><trkpt lat="42.9664165707135" lon="10.626583795367374"><ele>1.0</ele><time>2026-04-19T10:48:47Z</time></trkpt><trkpt lat="42.96628811706116" lon="10.626514713946449"><ele>1.0</ele><time>2026-04-19T10:48:48Z</time></trkpt><trkpt lat="42.966162466610335" lon="10.62643138503834"><ele>1.0</ele><time>2026-04-19T10:48:49Z</time></trkpt><trkpt lat="42.9660235728385" lon="10.626356254774239"><ele>1.0</ele><time>2026-04-19T10:48:50Z</time></trkpt><trkpt lat="42.96588198121245" lon="10.626279950011428"><ele>1.0</ele><time>2026-04-19T10:48:51Z</time></trkpt><trkpt lat="42.96574039093297" lon="10.626205144985635"><ele>1.3333333333333333</ele><time>2026-04-19T10:48:52Z</time></trkpt><trkpt lat="42.96558531496274" lon="10.626123384386151"><ele>1.6666666666666665</ele><time>2026-04-19T10:48:53Z</time></trkpt><trkpt lat="42.96542893257652" lon="10.626080355459003"><ele>2.0</ele><time>2026-04-19T10:48:54Z</time></trkpt><trkpt lat="42.96527051562904" lon="10.626007333231529"><ele>2.0</ele><time>2026-04-19T10:48:55Z</time></trkpt><trkpt lat="42.96510901370291" lon="10.625939271154738"><ele>2.0</ele><time>2026-04-19T10:48:56Z</time></trkpt><trkpt lat="42.964934269999596" lon="10.625856743630878"><ele>2.0</ele><time>2026-04-19T10:48:57Z</time></trkpt><trkpt lat="42.96474266600691" lon="10.625755827325511"><ele>2.0</ele><time>2026-04-19T10:48:58Z</time></trkpt><trkpt lat="42.9645475099083" lon="10.625649669778026"><ele>2.0</ele><time>2026-04-19T10:48:59Z</time></trkpt><trkpt lat="42.96435785673591" lon="10.625542998032564"><ele>2.0</ele><time>2026-04-19T10:49:00Z</time></trkpt><trkpt lat="42.96416792500757" lon="10.625439961728905"><ele>2.0</ele><time>2026-04-19T10:49:01Z</time></trkpt><trkpt lat="42.963982644251864" lon="10.625342541670834"><ele>2.0</ele><time>2026-04-19T10:49:02Z</time></trkpt><trkpt lat="42.963789829025" lon="10.625241165968264"><ele>2.0</ele><time>2026-04-19T10:49:03Z</time></trkpt><trkpt lat="42.96360629175287" lon="10.62514713814772"><ele>2.0</ele><time>2026-04-19T10:49:04Z</time></trkpt><trkpt lat="42.963426157147765" lon="10.625051088036438"><ele>2.0</ele><time>2026-04-19T10:49:05Z</time></trkpt><trkpt lat="42.96324548911446" lon="10.62495656752837"><ele>2.0</ele><time>2026-04-19T10:49:06Z</time></trkpt><trkpt lat="42.96306949655765" lon="10.624867786957608"><ele>1.6666666666666665</ele><time>2026-04-19T10:49:07Z</time></trkpt><trkpt lat="42.96289082897349" lon="10.624780319604971"><ele>1.3333333333333333</ele><time>2026-04-19T10:49:08Z</time></trkpt><trkpt lat="42.962711363657675" lon="10.62469098745447"><ele>1.0</ele><time>2026-04-19T10:49:09Z</time></trkpt><trkpt lat="42.96254195892667" lon="10.62457987545049"><ele>1.0</ele><time>2026-04-19T10:49:10Z</time></trkpt><trkpt lat="42.96235984423526" lon="10.624509591551478"><ele>1.0</ele><time>2026-04-19T10:49:11Z</time></trkpt><trkpt lat="42.962183445369135" lon="10.624408211355735"><ele>1.0</ele><time>2026-04-19T10:49:12Z</time></trkpt><trkpt lat="42.961993206288966" lon="10.62430506942985"><ele>0.6666666666666666</ele><time>2026-04-19T10:49:13Z</time></trkpt><trkpt lat="42.961795824109" lon="10.624205089599771"><ele>0.3333333333333333</ele><time>2026-04-19T10:49:14Z</time></trkpt><trkpt lat="42.96160846583384" lon="10.624109846549457"><ele>0.0</ele><time>2026-04-19T10:49:15Z</time></trkpt><trkpt lat="42.961420913726194" lon="10.624010906991437"><ele>0.0</ele><time>2026-04-19T10:49:16Z</time></trkpt><trkpt lat="42.96122997170366" lon="10.623910561446039"><ele>0.0</ele><time>2026-04-19T10:49:17Z</time></trkpt><trkpt lat="42.96103727165226" lon="10.623809384659829"><ele>0.0</ele><time>2026-04-19T10:49:18Z</time></trkpt><trkpt lat="42.96084684765712" lon="10.623711390151154"><ele>-0.3333333333333333</ele><time>2026-04-19T10:49:19Z</time></trkpt><trkpt lat="42.960662453149034" lon="10.62361624495637"><ele>-0.6666666666666666</ele><time>2026-04-19T10:49:20Z</time></trkpt><trkpt lat="42.960473473071005" lon="10.623516615980378"><ele>-1.0</ele><time>2026-04-19T10:49:21Z</time></trkpt><trkpt lat="42.96028192328869" lon="10.623417461757446"><ele>-1.0</ele><time>2026-04-19T10:49:22Z</time></trkpt><trkpt lat="42.96009421700213" lon="10.623320653906783"><ele>-1.0</ele><time>2026-04-19T10:49:23Z</time></trkpt><trkpt lat="42.95991878146" lon="10.623208446142442"><ele>-1.0</ele><time>2026-04-19T10:49:24Z</time></trkpt><trkpt lat="42.95974391016931" lon="10.623117359745677"><ele>-1.0</ele><time>2026-04-19T10:49:25Z</time></trkpt><trkpt lat="42.95956876541008" lon="10.623026130868649"><ele>-1.0</ele><time>2026-04-19T10:49:26Z</time></trkpt><trkpt lat="42.95939342522501" lon="10.622934800241234"><ele>-1.0</ele><time>2026-04-19T10:49:27Z</time></trkpt><trkpt lat="42.9592112501123" lon="10.622863651588805"><ele>-1.0</ele><time>2026-04-19T10:49:28Z</time></trkpt><trkpt lat="42.959031318946565" lon="10.622769827800814"><ele>-1.0</ele><time>2026-04-19T10:49:29Z</time></trkpt><trkpt lat="42.95885319923464" lon="10.622679389995133"><ele>-1.0</ele><time>2026-04-19T10:49:30Z</time></trkpt><trkpt lat="42.95867657458334" lon="10.622585085552387"><ele>-1.0</ele><time>2026-04-19T10:49:31Z</time></trkpt><trkpt lat="42.95850322919058" lon="10.622497315044821"><ele>-1.0</ele><time>2026-04-19T10:49:32Z</time></trkpt><trkpt lat="42.95832358131247" lon="10.622404259047716"><ele>-1.0</ele><time>2026-04-19T10:49:33Z</time></trkpt><trkpt lat="42.958138475746345" lon="10.622311189298063"><ele>-1.3333333333333333</ele><time>2026-04-19T10:49:34Z</time></trkpt><trkpt lat="42.95796259647124" lon="10.622197153674243"><ele>-1.6666666666666665</ele><time>2026-04-19T10:49:35Z</time></trkpt><trkpt lat="42.95777037485139" lon="10.622117468988069"><ele>-2.0</ele><time>2026-04-19T10:49:36Z</time></trkpt><trkpt lat="42.957583509012075" lon="10.622015692299982"><ele>-1.6666666666666665</ele><time>2026-04-19T10:49:37Z</time></trkpt><trkpt lat="42.95739569203809" lon="10.62191670613753"><ele>-1.3333333333333333</ele><time>2026-04-19T10:49:38Z</time></trkpt><trkpt lat="42.957209053509324" lon="10.621820620709379"><ele>-1.0</ele><time>2026-04-19T10:49:39Z</time></trkpt><trkpt lat="42.95702491268337" lon="10.621727172793868"><ele>-1.0</ele><time>2026-04-19T10:49:40Z</time></trkpt><trkpt lat="42.95684844827316" lon="10.621635344786098"><ele>-1.0</ele><time>2026-04-19T10:49:41Z</time></trkpt><trkpt lat="42.95670402074433" lon="10.621557509892227"><ele>-1.0</ele><time>2026-04-19T10:49:42Z</time></trkpt><trkpt lat="42.95659061727093" lon="10.621489728130618"><ele>-1.0</ele><time>2026-04-19T10:49:43Z</time></trkpt><trkpt lat="42.95646262183967" lon="10.62142199905331"><ele>-1.0</ele><time>2026-04-19T10:49:44Z</time></trkpt><trkpt lat="42.95631653093004" lon="10.6213554903188"><ele>-1.0</ele><time>2026-04-19T10:49:45Z</time></trkpt><trkpt lat="42.956156225484975" lon="10.621283745710091"><ele>-1.0</ele><time>2026-04-19T10:49:46Z</time></trkpt><trkpt lat="42.9559945268888" lon="10.621196773848244"><ele>-1.0</ele><time>2026-04-19T10:49:47Z</time></trkpt><trkpt lat="42.955852372331925" lon="10.621112575048848"><ele>-1.0</ele><time>2026-04-19T10:49:48Z</time></trkpt><trkpt lat="42.955737814315285" lon="10.621058069588116"><ele>-1.0</ele><time>2026-04-19T10:49:49Z</time></trkpt><trkpt lat="42.955641172603066" lon="10.621003466135184"><ele>-1.0</ele><time>2026-04-19T10:49:50Z</time></trkpt><trkpt lat="42.95555290288022" lon="10.62095966987715"><ele>-1.0</ele><time>2026-04-19T10:49:51Z</time></trkpt><trkpt lat="42.95547955962892" lon="10.620929387122075"><ele>-1.0</ele><time>2026-04-19T10:49:52Z</time></trkpt><trkpt lat="42.95538385291068" lon="10.62091575392723"><ele>-1.0</ele><time>2026-04-19T10:49:54Z</time></trkpt><trkpt lat="42.955368991901715" lon="10.62106204373413"><ele>-1.0</ele><time>2026-04-19T10:49:55Z</time></trkpt><trkpt lat="42.95539783652383" lon="10.621184515771963"><ele>-1.0</ele><time>2026-04-19T10:49:56Z</time></trkpt><trkpt lat="42.95543653519307" lon="10.62133775407658"><ele>-1.0</ele><time>2026-04-19T10:49:57Z</time></trkpt><trkpt lat="42.95545265655068" lon="10.621541932411649"><ele>-1.0</ele><time>2026-04-19T10:49:58Z</time></trkpt><trkpt lat="42.95544439552505" lon="10.621750895636351"><ele>-1.0</ele><time>2026-04-19T10:49:59Z</time></trkpt><trkpt lat="42.95542821973299" lon="10.621987958523135"><ele>-1.0</ele><time>2026-04-19T10:50:00Z</time></trkpt><trkpt lat="42.95541139014944" lon="10.622260084267184"><ele>-1.0</ele><time>2026-04-19T10:50:01Z</time></trkpt><trkpt lat="42.9553943509839" lon="10.622548790728189"><ele>-1.5</ele><time>2026-04-19T10:50:02Z</time></trkpt><trkpt lat="42.95538017404295" lon="10.622862418725942"><ele>-2.0</ele><time>2026-04-19T10:50:03Z</time></trkpt><trkpt lat="42.95536656858912" lon="10.623185511377093"><ele>-2.0</ele><time>2026-04-19T10:50:04Z</time></trkpt><trkpt lat="42.955351703327445" lon="10.623506742347525"><ele>-2.0</ele><time>2026-04-19T10:50:05Z</time></trkpt><trkpt lat="42.95533983902588" lon="10.623807389362964"><ele>-2.0</ele><time>2026-04-19T10:50:06Z</time></trkpt><trkpt lat="42.955327851022446" lon="10.624099350537787"><ele>-2.0</ele><time>2026-04-19T10:50:07Z</time></trkpt><trkpt lat="42.955315699549516" lon="10.624399611979463"><ele>-2.0</ele><time>2026-04-19T10:50:08Z</time></trkpt><trkpt lat="42.955304777244" lon="10.62468500413186"><ele>-1.6666666666666665</ele><time>2026-04-19T10:50:09Z</time></trkpt><trkpt lat="42.95529415725345" lon="10.62493312967353"><ele>-1.3333333333333333</ele><time>2026-04-19T10:50:10Z</time></trkpt><trkpt lat="42.9552851013983" lon="10.625159351979901"><ele>-1.0</ele><time>2026-04-19T10:50:11Z</time></trkpt><trkpt lat="42.95527590600567" lon="10.625396145631596"><ele>-1.0</ele><time>2026-04-19T10:50:12Z</time></trkpt><trkpt lat="42.955264622203636" lon="10.625660826144662"><ele>-1.0</ele><time>2026-04-19T10:50:13Z</time></trkpt><trkpt lat="42.95525523944339" lon="10.625916780662138"><ele>-1.0</ele><time>2026-04-19T10:50:14Z</time></trkpt><trkpt lat="42.95525414459827" lon="10.62614395476431"><ele>-1.0</ele><time>2026-04-19T10:50:15Z</time></trkpt><trkpt lat="42.95524563760073" lon="10.626361090362254"><ele>-1.0</ele><time>2026-04-19T10:50:16Z</time></trkpt><trkpt lat="42.95524661609298" lon="10.62658129711813"><ele>-1.0</ele><time>2026-04-19T10:50:17Z</time></trkpt><trkpt lat="42.95523741513907" lon="10.62681148313813"><ele>-1.0</ele><time>2026-04-19T10:50:18Z</time></trkpt><trkpt lat="42.95522408304849" lon="10.62705750078895"><ele>-1.0</ele><time>2026-04-19T10:50:19Z</time></trkpt><trkpt lat="42.95520751350382" lon="10.627309214636607"><ele>-1.0</ele><time>2026-04-19T10:50:20Z</time></trkpt><trkpt lat="42.955187738438624" lon="10.627583948426784"><ele>-1.0</ele><time>2026-04-19T10:50:21Z</time></trkpt><trkpt lat="42.95516967156459" lon="10.627885030060492"><ele>-1.0</ele><time>2026-04-19T10:50:22Z</time></trkpt><trkpt lat="42.95515612313493" lon="10.628175695000719"><ele>-1.0</ele><time>2026-04-19T10:50:23Z</time></trkpt><trkpt lat="42.955164810692246" lon="10.628433896497079"><ele>-1.0</ele><time>2026-04-19T10:50:24Z</time></trkpt><trkpt lat="42.95514696257837" lon="10.628669337471543"><ele>-1.0</ele><time>2026-04-19T10:50:25Z</time></trkpt><trkpt lat="42.955136834531636" lon="10.628899477117526"><ele>-1.0</ele><time>2026-04-19T10:50:26Z</time></trkpt><trkpt lat="42.95512755859812" lon="10.629116510618427"><ele>-1.0</ele><time>2026-04-19T10:50:27Z</time></trkpt><trkpt lat="42.955119393605315" lon="10.629299815598902"><ele>-1.0</ele><time>2026-04-19T10:50:28Z</time></trkpt><trkpt lat="42.9551008746599" lon="10.629446609530293"><ele>-1.0</ele><time>2026-04-19T10:50:29Z</time></trkpt><trkpt lat="42.955099949305875" lon="10.629584631694534"><ele>-1.0</ele><time>2026-04-19T10:50:30Z</time></trkpt><trkpt lat="42.95510302928409" lon="10.62970941479741"><ele>-1.0</ele><time>2026-04-19T10:50:32Z</time></trkpt><trkpt lat="42.95511179830197" lon="10.629794691106879"><ele>-1.0</ele><time>2026-04-19T10:50:34Z</time></trkpt><trkpt lat="42.95518184210167" lon="10.629781249113375"><ele>-1.0</ele><time>2026-04-19T10:50:36Z</time></trkpt><trkpt lat="42.955243568706265" lon="10.629808807288445"><ele>-1.0</ele><time>2026-04-19T10:50:37Z</time></trkpt><trkpt lat="42.955338862000715" lon="10.62986711483922"><ele>-1.0</ele><time>2026-04-19T10:50:38Z</time></trkpt><trkpt lat="42.95544398303692" lon="10.629907747443545"><ele>-1.0</ele><time>2026-04-19T10:50:39Z</time></trkpt><trkpt lat="42.955581636075884" lon="10.62995456091645"><ele>-1.0</ele><time>2026-04-19T10:50:40Z</time></trkpt><trkpt lat="42.955722726829855" lon="10.630002543434333"><ele>-1.0</ele><time>2026-04-19T10:50:41Z</time></trkpt><trkpt lat="42.955807746728894" lon="10.63026342534243"><ele>-1.0</ele><time>2026-04-19T10:50:42Z</time></trkpt><trkpt lat="42.955929635381274" lon="10.63033369233744"><ele>-1.0</ele><time>2026-04-19T10:50:43Z</time></trkpt><trkpt lat="42.956065317171365" lon="10.630410730011237"><ele>-1.0</ele><time>2026-04-19T10:50:44Z</time></trkpt><trkpt lat="42.95620012033469" lon="10.630483313626682"><ele>-1.0</ele><time>2026-04-19T10:50:45Z</time></trkpt><trkpt lat="42.956331139594475" lon="10.630560343689424"><ele>-1.0</ele><time>2026-04-19T10:50:46Z</time></trkpt><trkpt lat="42.95646462296991" lon="10.630644443806277"><ele>-1.0</ele><time>2026-04-19T10:50:47Z</time></trkpt><trkpt lat="42.9565859648191" lon="10.630717022976077"><ele>-1.0</ele><time>2026-04-19T10:50:48Z</time></trkpt><trkpt lat="42.95671023353611" lon="10.63078792064732"><ele>-1.0</ele><time>2026-04-19T10:50:49Z</time></trkpt><trkpt lat="42.956836869177" lon="10.630849654026262"><ele>-1.0</ele><time>2026-04-19T10:50:50Z</time></trkpt><trkpt lat="42.95695856294799" lon="10.630918113747077"><ele>-0.9999999999999999</ele><time>2026-04-19T10:50:51Z</time></trkpt><trkpt lat="42.957071952906176" lon="10.630980760817245"><ele>-1.0</ele><time>2026-04-19T10:50:52Z</time></trkpt><trkpt lat="42.957166679598274" lon="10.631030149790822"><ele>-1.0</ele><time>2026-04-19T10:50:53Z</time></trkpt><trkpt lat="42.957233535717904" lon="10.631066487595792"><ele>-1.0</ele><time>2026-04-19T10:50:54Z</time></trkpt><trkpt lat="42.957293353820155" lon="10.631100337001186"><ele>-0.9999999999999999</ele><time>2026-04-19T10:50:55Z</time></trkpt><trkpt lat="42.957375354772836" lon="10.63114354002076"><ele>-1.0</ele><time>2026-04-19T10:50:56Z</time></trkpt><trkpt lat="42.957481074803184" lon="10.631202339694013"><ele>-1.0</ele><time>2026-04-19T10:50:57Z</time></trkpt><trkpt lat="42.95758680365641" lon="10.631261427964644"><ele>-1.0</ele><time>2026-04-19T10:50:58Z</time></trkpt><trkpt lat="42.95768208643706" lon="10.631316679448043"><ele>-1.0</ele><time>2026-04-19T10:50:59Z</time></trkpt><trkpt lat="42.957766139656954" lon="10.631351522493757"><ele>-1.0</ele><time>2026-04-19T10:51:00Z</time></trkpt><trkpt lat="42.95785708752341" lon="10.631365236402633"><ele>-1.0</ele><time>2026-04-19T10:51:01Z</time></trkpt><trkpt lat="42.95792819802665" lon="10.631370540438851"><ele>-1.0</ele><time>2026-04-19T10:51:02Z</time></trkpt><trkpt lat="42.95799350109881" lon="10.631438932394975"><ele>-1.0</ele><time>2026-04-19T10:51:04Z</time></trkpt><trkpt lat="42.95797716512237" lon="10.631590584900348"><ele>-1.0</ele><time>2026-04-19T10:51:06Z</time></trkpt><trkpt lat="42.95807789527843" lon="10.631682889268628"><ele>-1.0</ele><time>2026-04-19T10:51:08Z</time></trkpt><trkpt lat="42.95818083577148" lon="10.631717813057403"><ele>-1.0</ele><time>2026-04-19T10:51:09Z</time></trkpt><trkpt lat="42.95829486037737" lon="10.631773770486982"><ele>-1.0</ele><time>2026-04-19T10:51:10Z</time></trkpt><trkpt lat="42.95840816619383" lon="10.63184189623836"><ele>-1.0</ele><time>2026-04-19T10:51:11Z</time></trkpt><trkpt lat="42.95852410668789" lon="10.631908205899624"><ele>-1.0</ele><time>2026-04-19T10:51:12Z</time></trkpt><trkpt lat="42.95864567780877" lon="10.63197542261488"><ele>-1.0</ele><time>2026-04-19T10:51:13Z</time></trkpt><trkpt lat="42.95876557894374" lon="10.632042711885042"><ele>-1.0</ele><time>2026-04-19T10:51:14Z</time></trkpt><trkpt lat="42.95889036691975" lon="10.632115349898848"><ele>-1.0</ele><time>2026-04-19T10:51:15Z</time></trkpt><trkpt lat="42.95900828326288" lon="10.632182190777991"><ele>-1.0</ele><time>2026-04-19T10:51:16Z</time></trkpt><trkpt lat="42.95911215609352" lon="10.632240720862525"><ele>-1.0</ele><time>2026-04-19T10:51:17Z</time></trkpt><trkpt lat="42.95919698921994" lon="10.63229164964199"><ele>-1.0</ele><time>2026-04-19T10:51:18Z</time></trkpt><trkpt lat="42.959268130981364" lon="10.632366577949016"><ele>-1.0</ele><time>2026-04-19T10:51:20Z</time></trkpt><trkpt lat="42.9593498111428" lon="10.63252686742713"><ele>-1.0</ele><time>2026-04-19T10:51:22Z</time></trkpt><trkpt lat="42.95940029466365" lon="10.632648404140333"><ele>-1.0</ele><time>2026-04-19T10:51:23Z</time></trkpt><trkpt lat="42.9594701618891" lon="10.632794741884076"><ele>-0.75</ele><time>2026-04-19T10:51:24Z</time></trkpt><trkpt lat="42.959498779760395" lon="10.632971035899198"><ele>-0.5</ele><time>2026-04-19T10:51:25Z</time></trkpt><trkpt lat="42.959507313058104" lon="10.63316030245498"><ele>-0.25</ele><time>2026-04-19T10:51:26Z</time></trkpt><trkpt lat="42.95950841039296" lon="10.633358200721032"><ele>0.0</ele><time>2026-04-19T10:51:27Z</time></trkpt><trkpt lat="42.95950943057602" lon="10.633555793903135"><ele>0.3333333333333333</ele><time>2026-04-19T10:51:28Z</time></trkpt><trkpt lat="42.95951076373108" lon="10.633762351524583"><ele>0.6666666666666666</ele><time>2026-04-19T10:51:29Z</time></trkpt><trkpt lat="42.95951217914791" lon="10.633981654295448"><ele>1.0</ele><time>2026-04-19T10:51:30Z</time></trkpt><trkpt lat="42.9595136481054" lon="10.634209252811026"><ele>1.0</ele><time>2026-04-19T10:51:31Z</time></trkpt><trkpt lat="42.959514467521515" lon="10.634437374692011"><ele>1.0</ele><time>2026-04-19T10:51:32Z</time></trkpt><trkpt lat="42.959515299121655" lon="10.634668808827685"><ele>1.0</ele><time>2026-04-19T10:51:33Z</time></trkpt><trkpt lat="42.95951628160988" lon="10.634903903179602"><ele>1.0</ele><time>2026-04-19T10:51:34Z</time></trkpt><trkpt lat="42.959517331904145" lon="10.635132722716646"><ele>1.0</ele><time>2026-04-19T10:51:35Z</time></trkpt><trkpt lat="42.959518420152875" lon="10.635369810454216"><ele>1.0</ele><time>2026-04-19T10:51:36Z</time></trkpt><trkpt lat="42.95952060511922" lon="10.635607850892928"><ele>1.0</ele><time>2026-04-19T10:51:37Z</time></trkpt><trkpt lat="42.959522947511005" lon="10.635847211805032"><ele>1.0</ele><time>2026-04-19T10:51:38Z</time></trkpt><trkpt lat="42.95952531622205" lon="10.636089261938512"><ele>1.0</ele><time>2026-04-19T10:51:39Z</time></trkpt><trkpt lat="42.95952769300616" lon="10.636332137350124"><ele>1.0</ele><time>2026-04-19T10:51:40Z</time></trkpt><trkpt lat="42.95953008346115" lon="10.636576409207493"><ele>1.0</ele><time>2026-04-19T10:51:41Z</time></trkpt><trkpt lat="42.95952805623016" lon="10.63681226587239"><ele>1.0</ele><time>2026-04-19T10:51:42Z</time></trkpt><trkpt lat="42.95952344711474" lon="10.637005623578204"><ele>0.9999999999999999</ele><time>2026-04-19T10:51:43Z</time></trkpt><trkpt lat="42.95952532582692" lon="10.63715476259873"><ele>1.0</ele><time>2026-04-19T10:51:44Z</time></trkpt><trkpt lat="42.95952834781544" lon="10.637281991590722"><ele>1.0</ele><time>2026-04-19T10:51:45Z</time></trkpt><trkpt lat="42.95953147663982" lon="10.637412526899094"><ele>1.0</ele><time>2026-04-19T10:51:46Z</time></trkpt><trkpt lat="42.95952576791211" lon="10.637515822145758"><ele>0.9999999999999999</ele><time>2026-04-19T10:51:47Z</time></trkpt><trkpt lat="42.959554506077744" lon="10.637600727587639"><ele>1.0</ele><time>2026-04-19T10:51:49Z</time></trkpt><trkpt lat="42.95957447370768" lon="10.637685430538832"><ele>1.0</ele><time>2026-04-19T10:51:51Z</time></trkpt><trkpt lat="42.95969716160922" lon="10.637710880682379"><ele>1.0</ele><time>2026-04-19T10:51:52Z</time></trkpt><trkpt lat="42.9598172505778" lon="10.637753833314145"><ele>1.0</ele><time>2026-04-19T10:51:53Z</time></trkpt><trkpt lat="42.95994768773556" lon="10.637805203623241"><ele>1.0</ele><time>2026-04-19T10:51:54Z</time></trkpt><trkpt lat="42.96009364326308" lon="10.637869097619669"><ele>1.3333333333333333</ele><time>2026-04-19T10:51:55Z</time></trkpt><trkpt lat="42.96025224664847" lon="10.637932014003429"><ele>1.6666666666666665</ele><time>2026-04-19T10:51:56Z</time></trkpt><trkpt lat="42.96042137437698" lon="10.638003379446044"><ele>2.0</ele><time>2026-04-19T10:51:57Z</time></trkpt><trkpt lat="42.96059047937132" lon="10.638083166842994"><ele>2.0</ele><time>2026-04-19T10:51:58Z</time></trkpt><trkpt lat="42.96076145198565" lon="10.638158965070682"><ele>2.0</ele><time>2026-04-19T10:51:59Z</time></trkpt><trkpt lat="42.960923495929784" lon="10.638228688285173"><ele>2.0</ele><time>2026-04-19T10:52:00Z</time></trkpt><trkpt lat="42.96107698566053" lon="10.638295981364163"><ele>2.6666666666666665</ele><time>2026-04-19T10:52:01Z</time></trkpt><trkpt lat="42.961242257050394" lon="10.638370128108889"><ele>3.333333333333333</ele><time>2026-04-19T10:52:02Z</time></trkpt><trkpt lat="42.961424039720384" lon="10.638444589980377"><ele>4.0</ele><time>2026-04-19T10:52:03Z</time></trkpt><trkpt lat="42.961603821876004" lon="10.638523061191734"><ele>4.0</ele><time>2026-04-19T10:52:04Z</time></trkpt><trkpt lat="42.96178773111941" lon="10.63861393343398"><ele>4.0</ele><time>2026-04-19T10:52:05Z</time></trkpt><trkpt lat="42.9619807699623" lon="10.638703039902818"><ele>4.0</ele><time>2026-04-19T10:52:06Z</time></trkpt><trkpt lat="42.962170398399415" lon="10.638786866413628"><ele>4.333333333333333</ele><time>2026-04-19T10:52:07Z</time></trkpt><trkpt lat="42.96233748162692" lon="10.638861193250841"><ele>4.666666666666667</ele><time>2026-04-19T10:52:08Z</time></trkpt><trkpt lat="42.96248262409954" lon="10.63892625012774"><ele>5.0</ele><time>2026-04-19T10:52:09Z</time></trkpt><trkpt lat="42.96262956028898" lon="10.63899381115096"><ele>4.333333333333334</ele><time>2026-04-19T10:52:10Z</time></trkpt><trkpt lat="42.962772305390914" lon="10.639083439353879"><ele>3.666666666666667</ele><time>2026-04-19T10:52:11Z</time></trkpt><trkpt lat="42.962891201882414" lon="10.639246209467844"><ele>3.0</ele><time>2026-04-19T10:52:12Z</time></trkpt><trkpt lat="42.96302546036322" lon="10.639383204313962"><ele>2.75</ele><time>2026-04-19T10:52:13Z</time></trkpt><trkpt lat="42.963118149370715" lon="10.639511782330692"><ele>2.5</ele><time>2026-04-19T10:52:14Z</time></trkpt><trkpt lat="42.96318973677036" lon="10.63961062727554"><ele>2.25</ele><time>2026-04-19T10:52:15Z</time></trkpt><trkpt lat="42.96323840373017" lon="10.639722932745967"><ele>2.0</ele><time>2026-04-19T10:52:16Z</time></trkpt><trkpt lat="42.963254397096925" lon="10.639887429619348"><ele>2.0</ele><time>2026-04-19T10:52:17Z</time></trkpt><trkpt lat="42.963255928304804" lon="10.640081690252167"><ele>2.0</ele><time>2026-04-19T10:52:18Z</time></trkpt><trkpt lat="42.96325932980522" lon="10.640324790897504"><ele>2.0</ele><time>2026-04-19T10:52:19Z</time></trkpt><trkpt lat="42.96326848528771" lon="10.640584254005562"><ele>2.0</ele><time>2026-04-19T10:52:20Z</time></trkpt><trkpt lat="42.96327840454485" lon="10.640819428791552"><ele>2.0</ele><time>2026-04-19T10:52:21Z</time></trkpt><trkpt lat="42.9632939348806" lon="10.64099237144472"><ele>2.0</ele><time>2026-04-19T10:52:22Z</time></trkpt><trkpt lat="42.963298527486" lon="10.641122405623133"><ele>2.0</ele><time>2026-04-19T10:52:23Z</time></trkpt><trkpt lat="42.96331595822758" lon="10.641234328804424"><ele>2.25</ele><time>2026-04-19T10:52:24Z</time></trkpt><trkpt lat="42.963332523008724" lon="10.641320268811974"><ele>2.5</ele><time>2026-04-19T10:52:25Z</time></trkpt><trkpt lat="42.96328389499312" lon="10.641213535318549"><ele>2.75</ele><time>2026-04-19T10:52:32Z</time></trkpt><trkpt lat="42.96307210909615" lon="10.641140397966115"><ele>3.0</ele><time>2026-04-19T10:52:36Z</time></trkpt><trkpt lat="42.96329780914535" lon="10.64128710962531"><ele>2.6666666666666665</ele><time>2026-04-19T10:52:37Z</time></trkpt><trkpt lat="42.96336502990776" lon="10.641495239107059"><ele>2.333333333333333</ele><time>2026-04-19T10:52:39Z</time></trkpt><trkpt lat="42.96343545762366" lon="10.641859965579478"><ele>2.0</ele><time>2026-04-19T10:52:41Z</time></trkpt><trkpt lat="42.963064063799266" lon="10.642272263066388"><ele>1.6666666666666665</ele><time>2026-04-19T10:52:42Z</time></trkpt><trkpt lat="42.96307527620414" lon="10.642494138388496"><ele>1.3333333333333333</ele><time>2026-04-19T10:52:43Z</time></trkpt><trkpt lat="42.96307779668333" lon="10.642695626327177"><ele>1.0</ele><time>2026-04-19T10:52:44Z</time></trkpt><trkpt lat="42.96307951250723" lon="10.642914287929804"><ele>1.0</ele><time>2026-04-19T10:52:45Z</time></trkpt><trkpt lat="42.96308066084186" lon="10.64314794512064"><ele>1.0</ele><time>2026-04-19T10:52:46Z</time></trkpt><trkpt lat="42.963083747665806" lon="10.643368156344364"><ele>1.0</ele><time>2026-04-19T10:52:47Z</time></trkpt><trkpt lat="42.96308547036648" lon="10.64357076899716"><ele>1.0</ele><time>2026-04-19T10:52:48Z</time></trkpt><trkpt lat="42.96308256663679" lon="10.643782192691456"><ele>1.0</ele><time>2026-04-19T10:52:49Z</time></trkpt><trkpt lat="42.963067141957495" lon="10.643981799192641"><ele>1.0</ele><time>2026-04-19T10:52:50Z</time></trkpt><trkpt lat="42.96306128269083" lon="10.644173214079744"><ele>1.0</ele><time>2026-04-19T10:52:51Z</time></trkpt><trkpt lat="42.963075325304864" lon="10.644368795451339"><ele>1.3333333333333333</ele><time>2026-04-19T10:52:52Z</time></trkpt><trkpt lat="42.963093330524444" lon="10.644582920910512"><ele>1.6666666666666665</ele><time>2026-04-19T10:52:53Z</time></trkpt><trkpt lat="42.9631045369793" lon="10.644811423257657"><ele>2.0</ele><time>2026-04-19T10:52:54Z</time></trkpt><trkpt lat="42.96310313975172" lon="10.645042356322486"><ele>2.0</ele><time>2026-04-19T10:52:55Z</time></trkpt><trkpt lat="42.96310087269425" lon="10.64526728397357"><ele>2.0</ele><time>2026-04-19T10:52:56Z</time></trkpt><trkpt lat="42.96310169671255" lon="10.645486791060307"><ele>2.0</ele><time>2026-04-19T10:52:57Z</time></trkpt><trkpt lat="42.96310157006794" lon="10.645689254058949"><ele>1.8</ele><time>2026-04-19T10:52:58Z</time></trkpt><trkpt lat="42.96309851251629" lon="10.645863236006136"><ele>1.6</ele><time>2026-04-19T10:52:59Z</time></trkpt><trkpt lat="42.96309544066017" lon="10.646016864012372"><ele>1.4000000000000001</ele><time>2026-04-19T10:53:00Z</time></trkpt><trkpt lat="42.96309528977348" lon="10.646151988866439"><ele>1.2000000000000002</ele><time>2026-04-19T10:53:01Z</time></trkpt><trkpt lat="42.96309526548506" lon="10.646245156250266"><ele>1.0</ele><time>2026-04-19T10:53:02Z</time></trkpt><trkpt lat="42.96310348175626" lon="10.6463677877035"><ele>1.25</ele><time>2026-04-19T10:53:03Z</time></trkpt><trkpt lat="42.96312368898549" lon="10.646528216679808"><ele>1.5</ele><time>2026-04-19T10:53:04Z</time></trkpt><trkpt lat="42.963128030336534" lon="10.646686575070213"><ele>1.75</ele><time>2026-04-19T10:53:05Z</time></trkpt><trkpt lat="42.96311888757253" lon="10.646879431525242"><ele>2.0</ele><time>2026-04-19T10:53:06Z</time></trkpt><trkpt lat="42.963112568376616" lon="10.6470597094874"><ele>1.9999999999999998</ele><time>2026-04-19T10:53:07Z</time></trkpt><trkpt lat="42.96311061184914" lon="10.647205603378243"><ele>2.0</ele><time>2026-04-19T10:53:08Z</time></trkpt><trkpt lat="42.963107525752456" lon="10.64730949110649"><ele>2.0</ele><time>2026-04-19T10:53:09Z</time></trkpt><trkpt lat="42.96304134445996" lon="10.647403374824135"><ele>2.0</ele><time>2026-04-19T10:53:11Z</time></trkpt><trkpt lat="42.96297802191359" lon="10.647391292522993"><ele>1.9999999999999998</ele><time>2026-04-19T10:53:12Z</time></trkpt><trkpt lat="42.96291044075818" lon="10.647337920687296"><ele>2.0</ele><time>2026-04-19T10:53:13Z</time></trkpt><trkpt lat="42.9627901054666" lon="10.647244991728018"><ele>2.0</ele><time>2026-04-19T10:53:14Z</time></trkpt><trkpt lat="42.96265011044521" lon="10.647150330324694"><ele>2.0</ele><time>2026-04-19T10:53:15Z</time></trkpt><trkpt lat="42.9624763848898" lon="10.647069301809612"><ele>2.0</ele><time>2026-04-19T10:53:16Z</time></trkpt><trkpt lat="42.96232996632937" lon="10.646981252274825"><ele>2.2</ele><time>2026-04-19T10:53:17Z</time></trkpt><trkpt lat="42.96221600303194" lon="10.646922514217122"><ele>2.4000000000000004</ele><time>2026-04-19T10:53:18Z</time></trkpt><trkpt lat="42.96211821900709" lon="10.646860403403355"><ele>2.5999999999999996</ele><time>2026-04-19T10:53:19Z</time></trkpt><trkpt lat="42.96203381170135" lon="10.646825611809556"><ele>2.8</ele><time>2026-04-19T10:53:20Z</time></trkpt><trkpt lat="42.96196283551345" lon="10.646788648593724"><ele>3.0</ele><time>2026-04-19T10:53:21Z</time></trkpt><trkpt lat="42.96185429179176" lon="10.64673644003445"><ele>3.0</ele><time>2026-04-19T10:53:22Z</time></trkpt><trkpt lat="42.96172815959795" lon="10.646654136159977"><ele>3.0</ele><time>2026-04-19T10:53:23Z</time></trkpt><trkpt lat="42.96161004575528" lon="10.646592869750721"><ele>3.0</ele><time>2026-04-19T10:53:24Z</time></trkpt><trkpt lat="42.961495394554255" lon="10.646527395506453"><ele>3.0</ele><time>2026-04-19T10:53:25Z</time></trkpt><trkpt lat="42.96139204756449" lon="10.64646765914308"><ele>3.0</ele><time>2026-04-19T10:53:26Z</time></trkpt><trkpt lat="42.96129367578862" lon="10.646411818743285"><ele>3.0</ele><time>2026-04-19T10:53:27Z</time></trkpt><trkpt lat="42.96121640525315" lon="10.64635690344884"><ele>3.0</ele><time>2026-04-19T10:53:28Z</time></trkpt><trkpt lat="42.961148020159676" lon="10.646308283530159"><ele>3.0</ele><time>2026-04-19T10:53:30Z</time></trkpt><trkpt lat="42.961130784737925" lon="10.646418098756538"><ele>3.0</ele><time>2026-04-19T10:53:32Z</time></trkpt><trkpt lat="42.9611471208053" lon="10.646521643038751"><ele>3.0</ele><time>2026-04-19T10:53:33Z</time></trkpt><trkpt lat="42.96114958342681" lon="10.64665457452447"><ele>3.0</ele><time>2026-04-19T10:53:34Z</time></trkpt><trkpt lat="42.96114083752621" lon="10.646818299999353"><ele>3.0</ele><time>2026-04-19T10:53:35Z</time></trkpt><trkpt lat="42.96114114468039" lon="10.647013624280264"><ele>3.0</ele><time>2026-04-19T10:53:36Z</time></trkpt><trkpt lat="42.961144197565815" lon="10.647261789122451"><ele>3.0</ele><time>2026-04-19T10:53:37Z</time></trkpt><trkpt lat="42.96115513156109" lon="10.647477977412853"><ele>2.5</ele><time>2026-04-19T10:53:38Z</time></trkpt><trkpt lat="42.96116845591674" lon="10.647665376798464"><ele>2.0</ele><time>2026-04-19T10:53:39Z</time></trkpt><trkpt lat="42.96117283978443" lon="10.64787130100876"><ele>1.5</ele><time>2026-04-19T10:53:40Z</time></trkpt><trkpt lat="42.96116194371308" lon="10.648083755518874"><ele>1.0</ele><time>2026-04-19T10:53:41Z</time></trkpt><trkpt lat="42.961178455270606" lon="10.648269237060697"><ele>1.0</ele><time>2026-04-19T10:53:42Z</time></trkpt><trkpt lat="42.961184958659395" lon="10.648419491576428"><ele>1.0</ele><time>2026-04-19T10:53:43Z</time></trkpt><trkpt lat="42.961205538435685" lon="10.648553634317544"><ele>1.0</ele><time>2026-04-19T10:53:44Z</time></trkpt><trkpt lat="42.96117291538103" lon="10.648760142439361"><ele>1.0</ele><time>2026-04-19T10:53:45Z</time></trkpt><trkpt lat="42.96115995447925" lon="10.648916435037645"><ele>1.3333333333333333</ele><time>2026-04-19T10:53:46Z</time></trkpt><trkpt lat="42.96116874597301" lon="10.64912406182048"><ele>1.6666666666666665</ele><time>2026-04-19T10:53:47Z</time></trkpt><trkpt lat="42.96116694503872" lon="10.649405001273703"><ele>2.0</ele><time>2026-04-19T10:53:48Z</time></trkpt><trkpt lat="42.96117067264195" lon="10.649637627597672"><ele>2.0</ele><time>2026-04-19T10:53:49Z</time></trkpt><trkpt lat="42.96117559715874" lon="10.64988154160249"><ele>2.0</ele><time>2026-04-19T10:53:50Z</time></trkpt><trkpt lat="42.96118242149662" lon="10.650109628375672"><ele>2.0</ele><time>2026-04-19T10:53:51Z</time></trkpt><trkpt lat="42.96118542822956" lon="10.65026940813636"><ele>2.25</ele><time>2026-04-19T10:53:52Z</time></trkpt><trkpt lat="42.96118367659173" lon="10.650472429638365"><ele>2.5</ele><time>2026-04-19T10:53:53Z</time></trkpt><trkpt lat="42.9611913740857" lon="10.650676601703019"><ele>2.75</ele><time>2026-04-19T10:53:54Z</time></trkpt><trkpt lat="42.96119488657014" lon="10.65086653766115"><ele>3.0</ele><time>2026-04-19T10:53:55Z</time></trkpt><trkpt lat="42.96119573344438" lon="10.651064551496217"><ele>3.0</ele><time>2026-04-19T10:53:56Z</time></trkpt><trkpt lat="42.961171546450096" lon="10.651220609981687"><ele>3.0</ele><time>2026-04-19T10:53:57Z</time></trkpt><trkpt lat="42.96117781977412" lon="10.651409117568067"><ele>3.0</ele><time>2026-04-19T10:53:58Z</time></trkpt><trkpt lat="42.96117481059714" lon="10.651616961374982"><ele>3.0</ele><time>2026-04-19T10:53:59Z</time></trkpt><trkpt lat="42.96117621889565" lon="10.651800797690521"><ele>2.75</ele><time>2026-04-19T10:54:00Z</time></trkpt><trkpt lat="42.96118386234734" lon="10.651964523857751"><ele>2.5</ele><time>2026-04-19T10:54:01Z</time></trkpt><trkpt lat="42.961181782143576" lon="10.65216743881043"><ele>2.25</ele><time>2026-04-19T10:54:02Z</time></trkpt><trkpt lat="42.96118364699601" lon="10.652361649825776"><ele>2.0</ele><time>2026-04-19T10:54:03Z</time></trkpt><trkpt lat="42.96119336117663" lon="10.652527046724595"><ele>2.0</ele><time>2026-04-19T10:54:04Z</time></trkpt><trkpt lat="42.96119141709791" lon="10.652678981276944"><ele>2.0</ele><time>2026-04-19T10:54:05Z</time></trkpt><trkpt lat="42.96119696395201" lon="10.652778373051206"><ele>2.0</ele><time>2026-04-19T10:54:06Z</time></trkpt><trkpt lat="42.96118626092969" lon="10.652937452503522"><ele>2.0</ele><time>2026-04-19T10:54:08Z</time></trkpt><trkpt lat="42.961259982866935" lon="10.653023704845305"><ele>2.0</ele><time>2026-04-19T10:54:10Z</time></trkpt><trkpt lat="42.96135005038951" lon="10.653053685157921"><ele>1.75</ele><time>2026-04-19T10:54:11Z</time></trkpt><trkpt lat="42.96147075679634" lon="10.653090452437318"><ele>1.5</ele><time>2026-04-19T10:54:12Z</time></trkpt><trkpt lat="42.9616016430069" lon="10.653160159273597"><ele>1.25</ele><time>2026-04-19T10:54:13Z</time></trkpt><trkpt lat="42.96173779003275" lon="10.653239561959989"><ele>1.0</ele><time>2026-04-19T10:54:14Z</time></trkpt><trkpt lat="42.96189289750775" lon="10.653326445132496"><ele>1.0</ele><time>2026-04-19T10:54:15Z</time></trkpt><trkpt lat="42.962044785775554" lon="10.653418788448725"><ele>1.0</ele><time>2026-04-19T10:54:16Z</time></trkpt><trkpt lat="42.96220521842045" lon="10.653510831337977"><ele>1.0</ele><time>2026-04-19T10:54:17Z</time></trkpt><trkpt lat="42.9623498227604" lon="10.6535950149997"><ele>1.0</ele><time>2026-04-19T10:54:18Z</time></trkpt><trkpt lat="42.962471398861794" lon="10.653666551942209"><ele>1.0</ele><time>2026-04-19T10:54:19Z</time></trkpt><trkpt lat="42.962574630001974" lon="10.653731824911244"><ele>1.0</ele><time>2026-04-19T10:54:20Z</time></trkpt><trkpt lat="42.962658919294576" lon="10.653778719284235"><ele>1.0</ele><time>2026-04-19T10:54:21Z</time></trkpt><trkpt lat="42.962743420016196" lon="10.653824338332056"><ele>1.0</ele><time>2026-04-19T10:54:22Z</time></trkpt><trkpt lat="42.96281649015865" lon="10.653861101593451"><ele>0.9999999999999999</ele><time>2026-04-19T10:54:23Z</time></trkpt><trkpt lat="42.96288763435826" lon="10.653902654543094"><ele>1.0</ele><time>2026-04-19T10:54:24Z</time></trkpt><trkpt lat="42.96295603823583" lon="10.653944746833698"><ele>1.0</ele><time>2026-04-19T10:54:25Z</time></trkpt><trkpt lat="42.963027038300055" lon="10.65399040893649"><ele>1.0</ele><time>2026-04-19T10:54:26Z</time></trkpt><trkpt lat="42.96310279115709" lon="10.654038400981946"><ele>0.9999999999999999</ele><time>2026-04-19T10:54:27Z</time></trkpt><trkpt lat="42.96318612796642" lon="10.654091222389582"><ele>1.0</ele><time>2026-04-19T10:54:28Z</time></trkpt><trkpt lat="42.96327624356009" lon="10.654146816171487"><ele>1.5</ele><time>2026-04-19T10:54:29Z</time></trkpt><trkpt lat="42.963375468820175" lon="10.654207348357227"><ele>2.0</ele><time>2026-04-19T10:54:30Z</time></trkpt><trkpt lat="42.963489467722034" lon="10.654273328056462"><ele>2.5</ele><time>2026-04-19T10:54:31Z</time></trkpt><trkpt lat="42.963611153140455" lon="10.654342382269943"><ele>3.0</ele><time>2026-04-19T10:54:32Z</time></trkpt><trkpt lat="42.96373992857611" lon="10.654420147669743"><ele>3.0</ele><time>2026-04-19T10:54:33Z</time></trkpt><trkpt lat="42.963902832359636" lon="10.654506944230615"><ele>3.0</ele><time>2026-04-19T10:54:34Z</time></trkpt><trkpt lat="42.964061245213166" lon="10.654592007021217"><ele>3.0</ele><time>2026-04-19T10:54:35Z</time></trkpt><trkpt lat="42.96422141827086" lon="10.654679015449439"><ele>3.0</ele><time>2026-04-19T10:54:36Z</time></trkpt><trkpt lat="42.96436572102206" lon="10.6547644001231"><ele>3.0</ele><time>2026-04-19T10:54:37Z</time></trkpt><trkpt lat="42.964504610117785" lon="10.654843349758005"><ele>3.0</ele><time>2026-04-19T10:54:38Z</time></trkpt><trkpt lat="42.964642039764136" lon="10.654925681335781"><ele>3.0</ele><time>2026-04-19T10:54:39Z</time></trkpt><trkpt lat="42.96479157604812" lon="10.655012787197675"><ele>3.0</ele><time>2026-04-19T10:54:40Z</time></trkpt><trkpt lat="42.964936206511545" lon="10.655096103140275"><ele>3.0</ele><time>2026-04-19T10:54:41Z</time></trkpt><trkpt lat="42.96505572049845" lon="10.655157223938474"><ele>3.0</ele><time>2026-04-19T10:54:42Z</time></trkpt><trkpt lat="42.9651671977504" lon="10.655222870775363"><ele>3.333333333333333</ele><time>2026-04-19T10:54:43Z</time></trkpt><trkpt lat="42.96529194528261" lon="10.655301914842282"><ele>3.6666666666666665</ele><time>2026-04-19T10:54:44Z</time></trkpt><trkpt lat="42.96543943932067" lon="10.655391012420683"><ele>4.0</ele><time>2026-04-19T10:54:45Z</time></trkpt><trkpt lat="42.96560309044524" lon="10.655486263351115"><ele>4.0</ele><time>2026-04-19T10:54:46Z</time></trkpt><trkpt lat="42.96576997869886" lon="10.655581980566994"><ele>4.0</ele><time>2026-04-19T10:54:47Z</time></trkpt><trkpt lat="42.965949587086655" lon="10.655685661124922"><ele>4.0</ele><time>2026-04-19T10:54:48Z</time></trkpt><trkpt lat="42.96613754564077" lon="10.655796318908637"><ele>4.0</ele><time>2026-04-19T10:54:49Z</time></trkpt><trkpt lat="42.96632520466239" lon="10.655902636125523"><ele>4.0</ele><time>2026-04-19T10:54:50Z</time></trkpt><trkpt lat="42.96650080742032" lon="10.656003679183321"><ele>4.0</ele><time>2026-04-19T10:54:51Z</time></trkpt><trkpt lat="42.96664623048098" lon="10.656092048965645"><ele>4.2</ele><time>2026-04-19T10:54:52Z</time></trkpt><trkpt lat="42.966766312610496" lon="10.6561595649005"><ele>4.4</ele><time>2026-04-19T10:54:53Z</time></trkpt><trkpt lat="42.96686078107094" lon="10.656215381509455"><ele>4.6</ele><time>2026-04-19T10:54:54Z</time></trkpt><trkpt lat="42.96694453446202" lon="10.656256585824"><ele>4.8</ele><time>2026-04-19T10:54:55Z</time></trkpt><trkpt lat="42.96703671105091" lon="10.656275266628333"><ele>5.0</ele><time>2026-04-19T10:54:57Z</time></trkpt><trkpt lat="42.96706678222069" lon="10.656549172070513"><ele>5.0</ele><time>2026-04-19T10:55:01Z</time></trkpt><trkpt lat="42.96705779601052" lon="10.656707465663851"><ele>5.0</ele><time>2026-04-19T10:55:02Z</time></trkpt><trkpt lat="42.96706140387657" lon="10.656887742642091"><ele>5.0</ele><time>2026-04-19T10:55:03Z</time></trkpt><trkpt lat="42.96706324516844" lon="10.657087908983566"><ele>5.0</ele><time>2026-04-19T10:55:04Z</time></trkpt><trkpt lat="42.96706363457889" lon="10.65729687678115"><ele>5.0</ele><time>2026-04-19T10:55:05Z</time></trkpt><trkpt lat="42.96706474271868" lon="10.657526450418635"><ele>5.0</ele><time>2026-04-19T10:55:06Z</time></trkpt><trkpt lat="42.967067776736506" lon="10.657766367184596"><ele>5.0</ele><time>2026-04-19T10:55:07Z</time></trkpt><trkpt lat="42.96706941651222" lon="10.658017192044131"><ele>4.666666666666667</ele><time>2026-04-19T10:55:08Z</time></trkpt><trkpt lat="42.967073359836036" lon="10.65827716962404"><ele>4.333333333333333</ele><time>2026-04-19T10:55:09Z</time></trkpt><trkpt lat="42.96707513791176" lon="10.658547041383493"><ele>4.0</ele><time>2026-04-19T10:55:10Z</time></trkpt><trkpt lat="42.96707607083303" lon="10.658811627864964"><ele>4.0</ele><time>2026-04-19T10:55:11Z</time></trkpt><trkpt lat="42.967077414712215" lon="10.659077236887736"><ele>4.0</ele><time>2026-04-19T10:55:12Z</time></trkpt><trkpt lat="42.96707516175521" lon="10.659344635584702"><ele>4.0</ele><time>2026-04-19T10:55:13Z</time></trkpt><trkpt lat="42.96707466670456" lon="10.65960782196879"><ele>4.0</ele><time>2026-04-19T10:55:14Z</time></trkpt><trkpt lat="42.96707394330474" lon="10.659865261034017"><ele>4.0</ele><time>2026-04-19T10:55:15Z</time></trkpt><trkpt lat="42.967073240793965" lon="10.660111042523926"><ele>4.0</ele><time>2026-04-19T10:55:16Z</time></trkpt><trkpt lat="42.96707813543599" lon="10.660341990186497"><ele>5.0</ele><time>2026-04-19T10:55:17Z</time></trkpt><trkpt lat="42.96710073873857" lon="10.660568424211819"><ele>6.0</ele><time>2026-04-19T10:55:18Z</time></trkpt><trkpt lat="42.96713669373202" lon="10.660788644025484"><ele>7.0</ele><time>2026-04-19T10:55:19Z</time></trkpt><trkpt lat="42.96719143464571" lon="10.661021172934255"><ele>6.0</ele><time>2026-04-19T10:55:20Z</time></trkpt><trkpt lat="42.967266763024604" lon="10.66125435662444"><ele>5.0</ele><time>2026-04-19T10:55:21Z</time></trkpt><trkpt lat="42.96735308682975" lon="10.661478129862816"><ele>4.0</ele><time>2026-04-19T10:55:22Z</time></trkpt><trkpt lat="42.96746213337593" lon="10.66169266469068"><ele>4.333333333333333</ele><time>2026-04-19T10:55:23Z</time></trkpt><trkpt lat="42.967585355503736" lon="10.66189220191358"><ele>4.666666666666667</ele><time>2026-04-19T10:55:24Z</time></trkpt><trkpt lat="42.96772624067123" lon="10.662086710486522"><ele>5.0</ele><time>2026-04-19T10:55:25Z</time></trkpt><trkpt lat="42.96787509725355" lon="10.662271059462054"><ele>5.666666666666667</ele><time>2026-04-19T10:55:26Z</time></trkpt><trkpt lat="42.96803081743295" lon="10.662449607533384"><ele>6.333333333333334</ele><time>2026-04-19T10:55:27Z</time></trkpt><trkpt lat="42.968187165254584" lon="10.662634421913413"><ele>7.0</ele><time>2026-04-19T10:55:28Z</time></trkpt><trkpt lat="42.96834570629215" lon="10.66282566301196"><ele>7.333333333333334</ele><time>2026-04-19T10:55:29Z</time></trkpt><trkpt lat="42.96850343505047" lon="10.663007449240697"><ele>7.666666666666666</ele><time>2026-04-19T10:55:30Z</time></trkpt><trkpt lat="42.968669648388726" lon="10.663199146598151"><ele>8.0</ele><time>2026-04-19T10:55:31Z</time></trkpt><trkpt lat="42.96882237384991" lon="10.663386762838993"><ele>8.0</ele><time>2026-04-19T10:55:32Z</time></trkpt><trkpt lat="42.968979486906086" lon="10.663577325192632"><ele>8.0</ele><time>2026-04-19T10:55:33Z</time></trkpt><trkpt lat="42.96912912448804" lon="10.663760424714088"><ele>8.0</ele><time>2026-04-19T10:55:34Z</time></trkpt><trkpt lat="42.96928324938769" lon="10.663940641190932"><ele>8.0</ele><time>2026-04-19T10:55:35Z</time></trkpt><trkpt lat="42.96942913992272" lon="10.66412246127033"><ele>8.0</ele><time>2026-04-19T10:55:36Z</time></trkpt><trkpt lat="42.96956179988596" lon="10.664306723791228"><ele>8.0</ele><time>2026-04-19T10:55:37Z</time></trkpt><trkpt lat="42.96969792596" lon="10.6645036988488"><ele>8.0</ele><time>2026-04-19T10:55:38Z</time></trkpt><trkpt lat="42.969825956562936" lon="10.664699421386047"><ele>8.0</ele><time>2026-04-19T10:55:39Z</time></trkpt><trkpt lat="42.96993312344655" lon="10.664892081994784"><ele>8.0</ele><time>2026-04-19T10:55:40Z</time></trkpt><trkpt lat="42.970024438967755" lon="10.665101581095842"><ele>8.333333333333332</ele><time>2026-04-19T10:55:41Z</time></trkpt><trkpt lat="42.97011320945696" lon="10.665331590244923"><ele>8.666666666666666</ele><time>2026-04-19T10:55:42Z</time></trkpt><trkpt lat="42.97019219793221" lon="10.665565605011519"><ele>9.0</ele><time>2026-04-19T10:55:43Z</time></trkpt><trkpt lat="42.97025674961736" lon="10.665785675110097"><ele>9.0</ele><time>2026-04-19T10:55:44Z</time></trkpt><trkpt lat="42.9703108794531" lon="10.666013577408236"><ele>9.0</ele><time>2026-04-19T10:55:45Z</time></trkpt><trkpt lat="42.9703544073033" lon="10.666256170360933"><ele>9.0</ele><time>2026-04-19T10:55:46Z</time></trkpt><trkpt lat="42.97038247565175" lon="10.666500156035525"><ele>9.333333333333334</ele><time>2026-04-19T10:55:47Z</time></trkpt><trkpt lat="42.97039659847346" lon="10.666744421577102"><ele>9.666666666666668</ele><time>2026-04-19T10:55:48Z</time></trkpt><trkpt lat="42.9704011066997" lon="10.666981691768271"><ele>10.0</ele><time>2026-04-19T10:55:49Z</time></trkpt><trkpt lat="42.970392660405366" lon="10.667205841636536"><ele>10.0</ele><time>2026-04-19T10:55:50Z</time></trkpt><trkpt lat="42.970375516832654" lon="10.66742974759557"><ele>10.0</ele><time>2026-04-19T10:55:51Z</time></trkpt><trkpt lat="42.9703483021341" lon="10.667673955899499"><ele>10.0</ele><time>2026-04-19T10:55:52Z</time></trkpt><trkpt lat="42.97032670568569" lon="10.667926578360623"><ele>10.0</ele><time>2026-04-19T10:55:53Z</time></trkpt><trkpt lat="42.970299321308204" lon="10.668170736890913"><ele>10.0</ele><time>2026-04-19T10:55:54Z</time></trkpt><trkpt lat="42.97027037219136" lon="10.668410686456193"><ele>10.0</ele><time>2026-04-19T10:55:55Z</time></trkpt><trkpt lat="42.970246125072386" lon="10.668637198575677"><ele>10.666666666666668</ele><time>2026-04-19T10:55:56Z</time></trkpt><trkpt lat="42.97022565465451" lon="10.668842500533877"><ele>11.333333333333334</ele><time>2026-04-19T10:55:57Z</time></trkpt><trkpt lat="42.97021012546423" lon="10.669068521895325"><ele>12.0</ele><time>2026-04-19T10:55:58Z</time></trkpt><trkpt lat="42.97020568827459" lon="10.669275435746927"><ele>11.25</ele><time>2026-04-19T10:55:59Z</time></trkpt><trkpt lat="42.97021284176887" lon="10.669472909781085"><ele>10.5</ele><time>2026-04-19T10:56:00Z</time></trkpt><trkpt lat="42.970226786140294" lon="10.669653452048593"><ele>9.75</ele><time>2026-04-19T10:56:01Z</time></trkpt><trkpt lat="42.97024716930386" lon="10.669838657030537"><ele>9.0</ele><time>2026-04-19T10:56:02Z</time></trkpt><trkpt lat="42.97026447047859" lon="10.670013273134664"><ele>9.0</ele><time>2026-04-19T10:56:03Z</time></trkpt><trkpt lat="42.970282182643984" lon="10.670159994177345"><ele>9.0</ele><time>2026-04-19T10:56:04Z</time></trkpt><trkpt lat="42.97030042633225" lon="10.670273888707746"><ele>9.0</ele><time>2026-04-19T10:56:05Z</time></trkpt><trkpt lat="42.97031022279361" lon="10.670378472390484"><ele>9.0</ele><time>2026-04-19T10:56:06Z</time></trkpt><trkpt lat="42.970304832364064" lon="10.670493833476755"><ele>9.0</ele><time>2026-04-19T10:56:07Z</time></trkpt><trkpt lat="42.9702969571866" lon="10.670633487108962"><ele>9.0</ele><time>2026-04-19T10:56:08Z</time></trkpt><trkpt lat="42.97031116354678" lon="10.670770997306683"><ele>9.0</ele><time>2026-04-19T10:56:09Z</time></trkpt><trkpt lat="42.97034177799463" lon="10.67088046793398"><ele>9.0</ele><time>2026-04-19T10:56:10Z</time></trkpt><trkpt lat="42.97041147468686" lon="10.670971895317704"><ele>9.0</ele><time>2026-04-19T10:56:11Z</time></trkpt><trkpt lat="42.97048327015161" lon="10.671071389071194"><ele>9.0</ele><time>2026-04-19T10:56:12Z</time></trkpt><trkpt lat="42.97055923998262" lon="10.671209452981163"><ele>9.333333333333334</ele><time>2026-04-19T10:56:13Z</time></trkpt><trkpt lat="42.97067319233535" lon="10.671360723385584"><ele>9.666666666666668</ele><time>2026-04-19T10:56:14Z</time></trkpt><trkpt lat="42.97078801881603" lon="10.671522318002442"><ele>10.0</ele><time>2026-04-19T10:56:15Z</time></trkpt><trkpt lat="42.97090757785272" lon="10.671695004053348"><ele>10.0</ele><time>2026-04-19T10:56:16Z</time></trkpt><trkpt lat="42.97100892131345" lon="10.671860465226663"><ele>10.0</ele><time>2026-04-19T10:56:17Z</time></trkpt><trkpt lat="42.971102435413535" lon="10.672007997118106"><ele>10.0</ele><time>2026-04-19T10:56:18Z</time></trkpt><trkpt lat="42.97117936749999" lon="10.672139221448544"><ele>10.0</ele><time>2026-04-19T10:56:19Z</time></trkpt><trkpt lat="42.97124145581486" lon="10.672274169766894"><ele>10.0</ele><time>2026-04-19T10:56:20Z</time></trkpt><trkpt lat="42.97129026624027" lon="10.67240085438676"><ele>10.0</ele><time>2026-04-19T10:56:21Z</time></trkpt><trkpt lat="42.971282828181224" lon="10.672556925650024"><ele>10.0</ele><time>2026-04-19T10:56:22Z</time></trkpt><trkpt lat="42.9713127277726" lon="10.672694154771502"><ele>10.0</ele><time>2026-04-19T10:56:23Z</time></trkpt><trkpt lat="42.97137984078753" lon="10.672799310621222"><ele>10.0</ele><time>2026-04-19T10:56:24Z</time></trkpt><trkpt lat="42.97148209902221" lon="10.672871282158312"><ele>10.0</ele><time>2026-04-19T10:56:25Z</time></trkpt><trkpt lat="42.971606177353145" lon="10.672919480051393"><ele>10.0</ele><time>2026-04-19T10:56:26Z</time></trkpt><trkpt lat="42.971752748457625" lon="10.672975925192222"><ele>10.0</ele><time>2026-04-19T10:56:27Z</time></trkpt><trkpt lat="42.97189093800355" lon="10.673078669229113"><ele>10.0</ele><time>2026-04-19T10:56:28Z</time></trkpt><trkpt lat="42.972009684353374" lon="10.673221507579253"><ele>10.333333333333334</ele><time>2026-04-19T10:56:29Z</time></trkpt><trkpt lat="42.97212039175119" lon="10.673392834453143"><ele>10.666666666666666</ele><time>2026-04-19T10:56:30Z</time></trkpt><trkpt lat="42.97223362974267" lon="10.673572536645121"><ele>11.0</ele><time>2026-04-19T10:56:31Z</time></trkpt><trkpt lat="42.972362575268306" lon="10.67375999329282"><ele>11.0</ele><time>2026-04-19T10:56:32Z</time></trkpt><trkpt lat="42.97249213782512" lon="10.67393012605878"><ele>11.0</ele><time>2026-04-19T10:56:33Z</time></trkpt><trkpt lat="42.97262648028453" lon="10.67411012015013"><ele>11.0</ele><time>2026-04-19T10:56:34Z</time></trkpt><trkpt lat="42.9727585763195" lon="10.674280646168135"><ele>10.333333333333332</ele><time>2026-04-19T10:56:35Z</time></trkpt><trkpt lat="42.97288858290426" lon="10.674454709837153"><ele>9.666666666666666</ele><time>2026-04-19T10:56:36Z</time></trkpt><trkpt lat="42.97301882063741" lon="10.674624655977729"><ele>9.0</ele><time>2026-04-19T10:56:37Z</time></trkpt><trkpt lat="42.973149959832156" lon="10.674802119311225"><ele>9.0</ele><time>2026-04-19T10:56:38Z</time></trkpt><trkpt lat="42.9732823531033" lon="10.674977739879958"><ele>9.0</ele><time>2026-04-19T10:56:39Z</time></trkpt><trkpt lat="42.97341650123611" lon="10.675160748139437"><ele>9.0</ele><time>2026-04-19T10:56:40Z</time></trkpt><trkpt lat="42.973553711205504" lon="10.675345476530486"><ele>10.0</ele><time>2026-04-19T10:56:41Z</time></trkpt><trkpt lat="42.973689750505386" lon="10.67552500856426"><ele>11.0</ele><time>2026-04-19T10:56:42Z</time></trkpt><trkpt lat="42.973828665137674" lon="10.675704280489006"><ele>12.0</ele><time>2026-04-19T10:56:43Z</time></trkpt><trkpt lat="42.973967669674636" lon="10.675887199818117"><ele>12.0</ele><time>2026-04-19T10:56:44Z</time></trkpt><trkpt lat="42.974101282094445" lon="10.676068565442625"><ele>12.0</ele><time>2026-04-19T10:56:45Z</time></trkpt><trkpt lat="42.97423377902893" lon="10.676256172083878"><ele>12.0</ele><time>2026-04-19T10:56:46Z</time></trkpt><trkpt lat="42.97436627950257" lon="10.676443345968739"><ele>12.666666666666668</ele><time>2026-04-19T10:56:47Z</time></trkpt><trkpt lat="42.974497113493584" lon="10.676629024611987"><ele>13.333333333333334</ele><time>2026-04-19T10:56:48Z</time></trkpt><trkpt lat="42.974629787465716" lon="10.676810856219925"><ele>14.0</ele><time>2026-04-19T10:56:49Z</time></trkpt><trkpt lat="42.97476752211625" lon="10.676992868690506"><ele>14.0</ele><time>2026-04-19T10:56:50Z</time></trkpt><trkpt lat="42.97490870004629" lon="10.677175790713921"><ele>14.0</ele><time>2026-04-19T10:56:51Z</time></trkpt><trkpt lat="42.97504985778966" lon="10.677362381405798"><ele>14.0</ele><time>2026-04-19T10:56:52Z</time></trkpt><trkpt lat="42.97519265227637" lon="10.67755703660632"><ele>14.333333333333334</ele><time>2026-04-19T10:56:53Z</time></trkpt><trkpt lat="42.97533576807837" lon="10.677750387931859"><ele>14.666666666666668</ele><time>2026-04-19T10:56:54Z</time></trkpt><trkpt lat="42.97547796248561" lon="10.677943693394257"><ele>15.0</ele><time>2026-04-19T10:56:55Z</time></trkpt><trkpt lat="42.975618344963785" lon="10.678140987223525"><ele>15.0</ele><time>2026-04-19T10:56:56Z</time></trkpt><trkpt lat="42.97575898695792" lon="10.678330710470162"><ele>15.0</ele><time>2026-04-19T10:56:57Z</time></trkpt><trkpt lat="42.97590316350102" lon="10.678520001331995"><ele>15.0</ele><time>2026-04-19T10:56:58Z</time></trkpt><trkpt lat="42.976048187175685" lon="10.678705285389011"><ele>16.0</ele><time>2026-04-19T10:56:59Z</time></trkpt><trkpt lat="42.976193305710005" lon="10.678895083925665"><ele>17.0</ele><time>2026-04-19T10:57:00Z</time></trkpt><trkpt lat="42.97633597818496" lon="10.679085858399544"><ele>18.0</ele><time>2026-04-19T10:57:01Z</time></trkpt><trkpt lat="42.976476166236395" lon="10.679275625878883"><ele>18.0</ele><time>2026-04-19T10:57:02Z</time></trkpt><trkpt lat="42.97661542945226" lon="10.679467242703685"><ele>18.0</ele><time>2026-04-19T10:57:03Z</time></trkpt><trkpt lat="42.97675278739598" lon="10.679655656247904"><ele>18.0</ele><time>2026-04-19T10:57:04Z</time></trkpt><trkpt lat="42.97688734131984" lon="10.679841178706129"><ele>18.0</ele><time>2026-04-19T10:57:05Z</time></trkpt><trkpt lat="42.977020735150795" lon="10.680024916933334"><ele>18.0</ele><time>2026-04-19T10:57:06Z</time></trkpt><trkpt lat="42.97715636008865" lon="10.680209094664123"><ele>18.0</ele><time>2026-04-19T10:57:07Z</time></trkpt><trkpt lat="42.97729263255291" lon="10.680386208290429"><ele>18.666666666666668</ele><time>2026-04-19T10:57:08Z</time></trkpt><trkpt lat="42.9774242569161" lon="10.680561115695607"><ele>19.333333333333336</ele><time>2026-04-19T10:57:09Z</time></trkpt><trkpt lat="42.97754391626333" lon="10.680713049201302"><ele>20.0</ele><time>2026-04-19T10:57:10Z</time></trkpt><trkpt lat="42.97764564123199" lon="10.680850584733912"><ele>20.0</ele><time>2026-04-19T10:57:11Z</time></trkpt><trkpt lat="42.97774350796089" lon="10.680988953103618"><ele>20.0</ele><time>2026-04-19T10:57:12Z</time></trkpt><trkpt lat="42.97783717480085" lon="10.681120130407946"><ele>20.0</ele><time>2026-04-19T10:57:13Z</time></trkpt><trkpt lat="42.97792700391595" lon="10.681243277909006"><ele>20.0</ele><time>2026-04-19T10:57:14Z</time></trkpt><trkpt lat="42.978015549003274" lon="10.681367355715874"><ele>20.25</ele><time>2026-04-19T10:57:15Z</time></trkpt><trkpt lat="42.97810420613744" lon="10.681494034885867"><ele>20.5</ele><time>2026-04-19T10:57:16Z</time></trkpt><trkpt lat="42.978193995248425" lon="10.681620022498507"><ele>20.75</ele><time>2026-04-19T10:57:17Z</time></trkpt><trkpt lat="42.97828476915007" lon="10.68174200784647"><ele>21.0</ele><time>2026-04-19T10:57:18Z</time></trkpt><trkpt lat="42.97836558822026" lon="10.681856599229189"><ele>21.333333333333332</ele><time>2026-04-19T10:57:19Z</time></trkpt><trkpt lat="42.97844162617868" lon="10.681953643722096"><ele>21.666666666666668</ele><time>2026-04-19T10:57:20Z</time></trkpt><trkpt lat="42.97850346622813" lon="10.68203728647966"><ele>22.0</ele><time>2026-04-19T10:57:21Z</time></trkpt><trkpt lat="42.978562922764745" lon="10.682119420001285"><ele>22.333333333333336</ele><time>2026-04-19T10:57:22Z</time></trkpt><trkpt lat="42.97862057191518" lon="10.682206718217554"><ele>22.666666666666668</ele><time>2026-04-19T10:57:23Z</time></trkpt><trkpt lat="42.97866679869016" lon="10.682278207566002"><ele>23.0</ele><time>2026-04-19T10:57:24Z</time></trkpt><trkpt lat="42.97873829151354" lon="10.682376090248825"><ele>23.0</ele><time>2026-04-19T10:57:26Z</time></trkpt><trkpt lat="42.97863039963664" lon="10.682533782738734"><ele>23.0</ele><time>2026-04-19T10:57:28Z</time></trkpt><trkpt lat="42.97855593023498" lon="10.682643439932983"><ele>23.0</ele><time>2026-04-19T10:57:29Z</time></trkpt><trkpt lat="42.97848513762627" lon="10.682767564352709"><ele>23.0</ele><time>2026-04-19T10:57:30Z</time></trkpt><trkpt lat="42.9784069281678" lon="10.68289821569425"><ele>23.599999999999998</ele><time>2026-04-19T10:57:31Z</time></trkpt><trkpt lat="42.978338612803604" lon="10.683017766758912"><ele>24.2</ele><time>2026-04-19T10:57:32Z</time></trkpt><trkpt lat="42.97829273165412" lon="10.683134808996734"><ele>24.8</ele><time>2026-04-19T10:57:33Z</time></trkpt><trkpt lat="42.9782673453376" lon="10.683283055862068"><ele>25.4</ele><time>2026-04-19T10:57:34Z</time></trkpt><trkpt lat="42.978258280504484" lon="10.683441122707144"><ele>26.0</ele><time>2026-04-19T10:57:35Z</time></trkpt><trkpt lat="42.97826380303634" lon="10.683605674461214"><ele>26.25</ele><time>2026-04-19T10:57:36Z</time></trkpt><trkpt lat="42.978271823368694" lon="10.683774610829508"><ele>26.5</ele><time>2026-04-19T10:57:37Z</time></trkpt><trkpt lat="42.97826735342887" lon="10.683934621419075"><ele>26.75</ele><time>2026-04-19T10:57:38Z</time></trkpt><trkpt lat="42.97826114748542" lon="10.684091715549583"><ele>27.0</ele><time>2026-04-19T10:57:39Z</time></trkpt><trkpt lat="42.97825238643299" lon="10.68424738692108"><ele>27.0</ele><time>2026-04-19T10:57:40Z</time></trkpt><trkpt lat="42.97824283409846" lon="10.68441002820078"><ele>27.0</ele><time>2026-04-19T10:57:41Z</time></trkpt><trkpt lat="42.97824194998274" lon="10.684579475014354"><ele>27.0</ele><time>2026-04-19T10:57:42Z</time></trkpt><trkpt lat="42.978251782575526" lon="10.684760925174656"><ele>27.0</ele><time>2026-04-19T10:57:43Z</time></trkpt><trkpt lat="42.97826488584388" lon="10.68493840265897"><ele>27.5</ele><time>2026-04-19T10:57:44Z</time></trkpt><trkpt lat="42.978264762241785" lon="10.685121610308716"><ele>28.0</ele><time>2026-04-19T10:57:45Z</time></trkpt><trkpt lat="42.97824319515994" lon="10.685286046587843"><ele>28.5</ele><time>2026-04-19T10:57:46Z</time></trkpt><trkpt lat="42.97819161129821" lon="10.685453879097032"><ele>29.0</ele><time>2026-04-19T10:57:47Z</time></trkpt><trkpt lat="42.97813749120888" lon="10.685630126112049"><ele>29.5</ele><time>2026-04-19T10:57:48Z</time></trkpt><trkpt lat="42.978094318493255" lon="10.685818499503391"><ele>30.0</ele><time>2026-04-19T10:57:49Z</time></trkpt><trkpt lat="42.97805350583035" lon="10.685998776726548"><ele>30.5</ele><time>2026-04-19T10:57:50Z</time></trkpt><trkpt lat="42.97802523798575" lon="10.686142329532853"><ele>31.0</ele><time>2026-04-19T10:57:51Z</time></trkpt><trkpt lat="42.97801627164605" lon="10.686258294856698"><ele>31.6</ele><time>2026-04-19T10:57:52Z</time></trkpt><trkpt lat="42.97800516370303" lon="10.686370494695314"><ele>32.2</ele><time>2026-04-19T10:57:54Z</time></trkpt><trkpt lat="42.977863124758" lon="10.686375865497311"><ele>32.8</ele><time>2026-04-19T10:57:55Z</time></trkpt><trkpt lat="42.97776349224766" lon="10.686343464474678"><ele>33.4</ele><time>2026-04-19T10:57:56Z</time></trkpt><trkpt lat="42.97765686831484" lon="10.686285677213734"><ele>34.0</ele><time>2026-04-19T10:57:57Z</time></trkpt><trkpt lat="42.9775266708452" lon="10.686207421042067"><ele>33.0</ele><time>2026-04-19T10:57:58Z</time></trkpt><trkpt lat="42.97741815728795" lon="10.686161625908328"><ele>32.0</ele><time>2026-04-19T10:57:59Z</time></trkpt><trkpt lat="42.97729592274339" lon="10.686141780983293"><ele>31.0</ele><time>2026-04-19T10:58:00Z</time></trkpt><trkpt lat="42.97714625116194" lon="10.686147982372855"><ele>30.0</ele><time>2026-04-19T10:58:01Z</time></trkpt><trkpt lat="42.97697952097154" lon="10.686178425178941"><ele>30.0</ele><time>2026-04-19T10:58:02Z</time></trkpt><trkpt lat="42.97685546871819" lon="10.686210293165313"><ele>30.0</ele><time>2026-04-19T10:58:03Z</time></trkpt><trkpt lat="42.97678507078895" lon="10.686230185613889"><ele>30.0</ele><time>2026-04-19T10:58:04Z</time></trkpt><trkpt lat="42.97671100596419" lon="10.686242817925923"><ele>30.0</ele><time>2026-04-19T10:58:07Z</time></trkpt><trkpt lat="42.97677161529976" lon="10.686542463859725"><ele>30.0</ele><time>2026-04-19T10:58:08Z</time></trkpt><trkpt lat="42.9768175832389" lon="10.686688478009176"><ele>30.0</ele><time>2026-04-19T10:58:09Z</time></trkpt><trkpt lat="42.976884855741254" lon="10.686814389786406"><ele>30.0</ele><time>2026-04-19T10:58:10Z</time></trkpt><trkpt lat="42.97696925121018" lon="10.686944364368694"><ele>30.0</ele><time>2026-04-19T10:58:11Z</time></trkpt><trkpt lat="42.977057633641245" lon="10.687074990930222"><ele>30.25</ele><time>2026-04-19T10:58:12Z</time></trkpt><trkpt lat="42.97715631921768" lon="10.687227634638559"><ele>30.5</ele><time>2026-04-19T10:58:13Z</time></trkpt><trkpt lat="42.977253381579" lon="10.687371731424317"><ele>30.75</ele><time>2026-04-19T10:58:14Z</time></trkpt><trkpt lat="42.97734908899296" lon="10.687528276004743"><ele>31.0</ele><time>2026-04-19T10:58:15Z</time></trkpt><trkpt lat="42.977425562315354" lon="10.687666420819124"><ele>31.5</ele><time>2026-04-19T10:58:16Z</time></trkpt><trkpt lat="42.97749510038558" lon="10.687799154265463"><ele>32.0</ele><time>2026-04-19T10:58:17Z</time></trkpt><trkpt lat="42.977542253266456" lon="10.687921943406113"><ele>32.5</ele><time>2026-04-19T10:58:18Z</time></trkpt><trkpt lat="42.97757216545825" lon="10.688076319830264"><ele>33.0</ele><time>2026-04-19T10:58:19Z</time></trkpt><trkpt lat="42.977602522012404" lon="10.688245444869866"><ele>33.0</ele><time>2026-04-19T10:58:20Z</time></trkpt><trkpt lat="42.97762421978962" lon="10.688377246979408"><ele>33.0</ele><time>2026-04-19T10:58:21Z</time></trkpt><trkpt lat="42.97762595279693" lon="10.688534318288449"><ele>33.0</ele><time>2026-04-19T10:58:22Z</time></trkpt><trkpt lat="42.97762436872859" lon="10.688736071875505"><ele>33.0</ele><time>2026-04-19T10:58:23Z</time></trkpt><trkpt lat="42.97762592729284" lon="10.68892790008774"><ele>33.25</ele><time>2026-04-19T10:58:24Z</time></trkpt><trkpt lat="42.9776231840842" lon="10.689115654611566"><ele>33.5</ele><time>2026-04-19T10:58:25Z</time></trkpt><trkpt lat="42.97761622719582" lon="10.689304903163855"><ele>33.75</ele><time>2026-04-19T10:58:26Z</time></trkpt><trkpt lat="42.97760516221107" lon="10.689493435607393"><ele>34.0</ele><time>2026-04-19T10:58:27Z</time></trkpt><trkpt lat="42.97759706653129" lon="10.6896795120039"><ele>34.75</ele><time>2026-04-19T10:58:28Z</time></trkpt><trkpt lat="42.97757605482069" lon="10.689847221963726"><ele>35.5</ele><time>2026-04-19T10:58:29Z</time></trkpt><trkpt lat="42.977529230089644" lon="10.69001733203018"><ele>36.25</ele><time>2026-04-19T10:58:30Z</time></trkpt><trkpt lat="42.977495279777834" lon="10.69017023645231"><ele>37.0</ele><time>2026-04-19T10:58:31Z</time></trkpt><trkpt lat="42.97745685685382" lon="10.690332341919952"><ele>37.5</ele><time>2026-04-19T10:58:32Z</time></trkpt><trkpt lat="42.977412415077396" lon="10.69050675193774"><ele>38.0</ele><time>2026-04-19T10:58:33Z</time></trkpt><trkpt lat="42.97736994642099" lon="10.690685005822006"><ele>38.5</ele><time>2026-04-19T10:58:34Z</time></trkpt><trkpt lat="42.97730376457541" lon="10.690879346615766"><ele>39.0</ele><time>2026-04-19T10:58:35Z</time></trkpt><trkpt lat="42.9772433917628" lon="10.691049412319261"><ele>38.75</ele><time>2026-04-19T10:58:36Z</time></trkpt><trkpt lat="42.977189807579386" lon="10.691242314055089"><ele>38.5</ele><time>2026-04-19T10:58:37Z</time></trkpt><trkpt lat="42.97714970257795" lon="10.691427757178076"><ele>38.25</ele><time>2026-04-19T10:58:38Z</time></trkpt><trkpt lat="42.97711709802141" lon="10.691600991546716"><ele>38.0</ele><time>2026-04-19T10:58:39Z</time></trkpt><trkpt lat="42.97708915103442" lon="10.691794231594177"><ele>39.0</ele><time>2026-04-19T10:58:40Z</time></trkpt><trkpt lat="42.9770593516731" lon="10.691987486660436"><ele>40.0</ele><time>2026-04-19T10:58:41Z</time></trkpt><trkpt lat="42.97703544863214" lon="10.692165915266987"><ele>41.0</ele><time>2026-04-19T10:58:42Z</time></trkpt><trkpt lat="42.97702209744127" lon="10.692341668837503"><ele>42.0</ele><time>2026-04-19T10:58:43Z</time></trkpt><trkpt lat="42.97698957942208" lon="10.692527440381843"><ele>42.0</ele><time>2026-04-19T10:58:44Z</time></trkpt><trkpt lat="42.97695211546245" lon="10.69267881293146"><ele>42.0</ele><time>2026-04-19T10:58:45Z</time></trkpt><trkpt lat="42.97694235608126" lon="10.692811091303257"><ele>42.0</ele><time>2026-04-19T10:58:46Z</time></trkpt><trkpt lat="42.97689570694365" lon="10.692914067271898"><ele>42.0</ele><time>2026-04-19T10:58:47Z</time></trkpt><trkpt lat="42.97690111156506" lon="10.69305267637703"><ele>42.0</ele><time>2026-04-19T10:58:48Z</time></trkpt><trkpt lat="42.976750522971955" lon="10.693185944671905"><ele>42.75</ele><time>2026-04-19T10:58:49Z</time></trkpt><trkpt lat="42.976664237087455" lon="10.693355718505416"><ele>43.5</ele><time>2026-04-19T10:58:50Z</time></trkpt><trkpt lat="42.976598128653094" lon="10.693475612307623"><ele>44.25</ele><time>2026-04-19T10:58:51Z</time></trkpt><trkpt lat="42.976529128706964" lon="10.693620706023513"><ele>45.0</ele><time>2026-04-19T10:58:52Z</time></trkpt><trkpt lat="42.97645806105533" lon="10.693730573234372"><ele>45.5</ele><time>2026-04-19T10:58:53Z</time></trkpt><trkpt lat="42.9763871982463" lon="10.693818374650474"><ele>46.0</ele><time>2026-04-19T10:58:54Z</time></trkpt><trkpt lat="42.976299611909724" lon="10.69390089479987"><ele>46.5</ele><time>2026-04-19T10:58:55Z</time></trkpt><trkpt lat="42.97619209244712" lon="10.693976272297284"><ele>47.0</ele><time>2026-04-19T10:58:56Z</time></trkpt><trkpt lat="42.97607461665987" lon="10.694051119823962"><ele>47.0</ele><time>2026-04-19T10:58:57Z</time></trkpt><trkpt lat="42.9759858726645" lon="10.694123520718893"><ele>47.0</ele><time>2026-04-19T10:58:58Z</time></trkpt><trkpt lat="42.97590729145364" lon="10.694211408259463"><ele>47.0</ele><time>2026-04-19T10:58:59Z</time></trkpt><trkpt lat="42.975831293765246" lon="10.694333767614953"><ele>47.0</ele><time>2026-04-19T10:59:00Z</time></trkpt><trkpt lat="42.975768923074135" lon="10.694469169628354"><ele>47.0</ele><time>2026-04-19T10:59:01Z</time></trkpt><trkpt lat="42.975701248568946" lon="10.694551932670272"><ele>47.25</ele><time>2026-04-19T10:59:02Z</time></trkpt><trkpt lat="42.975641838714886" lon="10.694664917573164"><ele>47.5</ele><time>2026-04-19T10:59:03Z</time></trkpt><trkpt lat="42.97559171414809" lon="10.694799537752175"><ele>47.75</ele><time>2026-04-19T10:59:04Z</time></trkpt><trkpt lat="42.975567499404725" lon="10.694947954014705"><ele>48.0</ele><time>2026-04-19T10:59:05Z</time></trkpt><trkpt lat="42.97554517567018" lon="10.695125050491882"><ele>49.2</ele><time>2026-04-19T10:59:06Z</time></trkpt><trkpt lat="42.975509947345195" lon="10.69531124600417"><ele>50.4</ele><time>2026-04-19T10:59:07Z</time></trkpt><trkpt lat="42.97548325219228" lon="10.695456360745911"><ele>51.60000000000001</ele><time>2026-04-19T10:59:08Z</time></trkpt><trkpt lat="42.975461316531955" lon="10.69555077787093"><ele>52.800000000000004</ele><time>2026-04-19T10:59:09Z</time></trkpt><trkpt lat="42.975395045325634" lon="10.695687225908232"><ele>54.0</ele><time>2026-04-19T10:59:11Z</time></trkpt><trkpt lat="42.97533560025553" lon="10.695729751736854"><ele>54.0</ele><time>2026-04-19T10:59:12Z</time></trkpt><trkpt lat="42.97526935333452" lon="10.69575697498016"><ele>54.0</ele><time>2026-04-19T10:59:13Z</time></trkpt><trkpt lat="42.975172743475554" lon="10.695774180416816"><ele>54.0</ele><time>2026-04-19T10:59:14Z</time></trkpt><trkpt lat="42.975079165042665" lon="10.695785264953505"><ele>54.0</ele><time>2026-04-19T10:59:15Z</time></trkpt><trkpt lat="42.975030365796" lon="10.695858803997757"><ele>54.0</ele><time>2026-04-19T10:59:17Z</time></trkpt><trkpt lat="42.97499691977303" lon="10.695960453362767"><ele>54.0</ele><time>2026-04-19T10:59:19Z</time></trkpt><trkpt lat="42.97493204752456" lon="10.69596984445893"><ele>53.6</ele><time>2026-04-19T10:59:20Z</time></trkpt><trkpt lat="42.97481909487953" lon="10.696000405982172"><ele>53.2</ele><time>2026-04-19T10:59:21Z</time></trkpt><trkpt lat="42.97472715325891" lon="10.696038434956062"><ele>52.800000000000004</ele><time>2026-04-19T10:59:22Z</time></trkpt><trkpt lat="42.9746347261639" lon="10.696081987743034"><ele>52.400000000000006</ele><time>2026-04-19T10:59:23Z</time></trkpt><trkpt lat="42.9745540647738" lon="10.69616160363368"><ele>52.0</ele><time>2026-04-19T10:59:24Z</time></trkpt><trkpt lat="42.97447904322544" lon="10.696243094744066"><ele>54.0</ele><time>2026-04-19T10:59:25Z</time></trkpt><trkpt lat="42.97443202905252" lon="10.696303985221096"><ele>56.0</ele><time>2026-04-19T10:59:26Z</time></trkpt><trkpt lat="42.974386841320374" lon="10.696391155255975"><ele>58.0</ele><time>2026-04-19T10:59:27Z</time></trkpt><trkpt lat="42.97432961078404" lon="10.696548297485881"><ele>60.0</ele><time>2026-04-19T10:59:28Z</time></trkpt><trkpt lat="42.974272513513306" lon="10.696703745979436"><ele>62.0</ele><time>2026-04-19T10:59:29Z</time></trkpt><trkpt lat="42.97420738265588" lon="10.696811777566259"><ele>62.00000000000001</ele><time>2026-04-19T10:59:30Z</time></trkpt><trkpt lat="42.974148643683414" lon="10.69690391524582"><ele>62.0</ele><time>2026-04-19T10:59:32Z</time></trkpt><trkpt lat="42.974115728099626" lon="10.697052839956426"><ele>62.0</ele><time>2026-04-19T10:59:34Z</time></trkpt><trkpt lat="42.97411552738595" lon="10.697158236417282"><ele>62.0</ele><time>2026-04-19T10:59:35Z</time></trkpt><trkpt lat="42.97411285449568" lon="10.697281661657707"><ele>62.00000000000001</ele><time>2026-04-19T10:59:36Z</time></trkpt><trkpt lat="42.9741049448193" lon="10.697385290649848"><ele>62.0</ele><time>2026-04-19T10:59:37Z</time></trkpt><trkpt lat="42.97412208375219" lon="10.697558579494183"><ele>62.0</ele><time>2026-04-19T10:59:39Z</time></trkpt><trkpt lat="42.974131157806745" lon="10.697741515518695"><ele>62.0</ele><time>2026-04-19T10:59:41Z</time></trkpt><trkpt lat="42.97412042339202" lon="10.697863873845433"><ele>62.0</ele><time>2026-04-19T10:59:42Z</time></trkpt><trkpt lat="42.97413324705735" lon="10.697979806616523"><ele>62.0</ele><time>2026-04-19T10:59:43Z</time></trkpt><trkpt lat="42.97412014515945" lon="10.69815271305353"><ele>62.0</ele><time>2026-04-19T10:59:45Z</time></trkpt><trkpt lat="42.97409659095371" lon="10.698255956687722"><ele>62.6</ele><time>2026-04-19T10:59:46Z</time></trkpt><trkpt lat="42.974064951051915" lon="10.698358299788113"><ele>63.2</ele><time>2026-04-19T10:59:47Z</time></trkpt><trkpt lat="42.97404448273393" lon="10.698485654269756"><ele>63.8</ele><time>2026-04-19T10:59:48Z</time></trkpt><trkpt lat="42.974010133789754" lon="10.69861884696804"><ele>64.4</ele><time>2026-04-19T10:59:49Z</time></trkpt><trkpt lat="42.97397202580486" lon="10.69871756776262"><ele>65.0</ele><time>2026-04-19T10:59:50Z</time></trkpt><trkpt lat="42.97391595748764" lon="10.698814059778478"><ele>65.83333333333334</ele><time>2026-04-19T10:59:51Z</time></trkpt><trkpt lat="42.97384454898425" lon="10.698927730513775"><ele>66.66666666666667</ele><time>2026-04-19T10:59:52Z</time></trkpt><trkpt lat="42.97379014571537" lon="10.699020333665148"><ele>67.5</ele><time>2026-04-19T10:59:53Z</time></trkpt><trkpt lat="42.97376365479623" lon="10.6991071476814"><ele>68.33333333333333</ele><time>2026-04-19T10:59:54Z</time></trkpt><trkpt lat="42.973726872527344" lon="10.699222476873318"><ele>69.16666666666666</ele><time>2026-04-19T10:59:55Z</time></trkpt><trkpt lat="42.973677699816285" lon="10.699319879826568"><ele>70.0</ele><time>2026-04-19T10:59:56Z</time></trkpt><trkpt lat="42.97360711418555" lon="10.699389960429913"><ele>70.2</ele><time>2026-04-19T10:59:57Z</time></trkpt><trkpt lat="42.97353456235331" lon="10.699473667918063"><ele>70.4</ele><time>2026-04-19T10:59:58Z</time></trkpt><trkpt lat="42.97344578243492" lon="10.699547074857882"><ele>70.6</ele><time>2026-04-19T10:59:59Z</time></trkpt><trkpt lat="42.97334943572661" lon="10.699605577505686"><ele>70.8</ele><time>2026-04-19T11:00:00Z</time></trkpt><trkpt lat="42.97328103326326" lon="10.699670934952104"><ele>71.0</ele><time>2026-04-19T11:00:01Z</time></trkpt><trkpt lat="42.97323515211448" lon="10.699763601586168"><ele>71.0</ele><time>2026-04-19T11:00:02Z</time></trkpt><trkpt lat="42.9731759342822" lon="10.69985029852902"><ele>71.0</ele><time>2026-04-19T11:00:03Z</time></trkpt><trkpt lat="42.97310984222868" lon="10.699934187891426"><ele>71.0</ele><time>2026-04-19T11:00:04Z</time></trkpt><trkpt lat="42.97305584362998" lon="10.699984155670723"><ele>71.0</ele><time>2026-04-19T11:00:05Z</time></trkpt><trkpt lat="42.97295675680546" lon="10.699998175520353"><ele>71.0</ele><time>2026-04-19T11:00:07Z</time></trkpt><trkpt lat="42.97288512455735" lon="10.70011463102242"><ele>71.0</ele><time>2026-04-19T11:00:09Z</time></trkpt><trkpt lat="42.97279917424648" lon="10.700176490421986"><ele>71.0</ele><time>2026-04-19T11:00:11Z</time></trkpt><trkpt lat="42.97275010157733" lon="10.700231569962744"><ele>71.0</ele><time>2026-04-19T11:00:12Z</time></trkpt><trkpt lat="42.97268110805137" lon="10.700294545703226"><ele>71.0</ele><time>2026-04-19T11:00:13Z</time></trkpt><trkpt lat="42.97261954805238" lon="10.700356309300242"><ele>71.0</ele><time>2026-04-19T11:00:14Z</time></trkpt><trkpt lat="42.97254389817323" lon="10.700423901930105"><ele>71.0</ele><time>2026-04-19T11:00:15Z</time></trkpt><trkpt lat="42.972473317505745" lon="10.700500476857027"><ele>71.8</ele><time>2026-04-19T11:00:16Z</time></trkpt><trkpt lat="42.9724102424595" lon="10.700603815698082"><ele>72.6</ele><time>2026-04-19T11:00:17Z</time></trkpt><trkpt lat="42.97234103902082" lon="10.700717934378318"><ele>73.4</ele><time>2026-04-19T11:00:18Z</time></trkpt><trkpt lat="42.97227556370077" lon="10.700802904669112"><ele>74.2</ele><time>2026-04-19T11:00:19Z</time></trkpt><trkpt lat="42.972217304662315" lon="10.700896458353863"><ele>75.0</ele><time>2026-04-19T11:00:20Z</time></trkpt><trkpt lat="42.97220553959815" lon="10.701009819876505"><ele>76.4</ele><time>2026-04-19T11:00:21Z</time></trkpt><trkpt lat="42.972178798258156" lon="10.70112029074105"><ele>77.8</ele><time>2026-04-19T11:00:22Z</time></trkpt><trkpt lat="42.97213198737335" lon="10.701236704948444"><ele>79.19999999999999</ele><time>2026-04-19T11:00:23Z</time></trkpt><trkpt lat="42.972084588568684" lon="10.701323180245092"><ele>80.6</ele><time>2026-04-19T11:00:24Z</time></trkpt><trkpt lat="42.97201028212774" lon="10.7014086915849"><ele>82.0</ele><time>2026-04-19T11:00:25Z</time></trkpt><trkpt lat="42.971949351076745" lon="10.70151459100624"><ele>82.0</ele><time>2026-04-19T11:00:26Z</time></trkpt><trkpt lat="42.97191073703568" lon="10.701626062727161"><ele>82.0</ele><time>2026-04-19T11:00:27Z</time></trkpt><trkpt lat="42.97188952727653" lon="10.701760991828714"><ele>82.0</ele><time>2026-04-19T11:00:28Z</time></trkpt><trkpt lat="42.971874356355436" lon="10.701874446997257"><ele>82.0</ele><time>2026-04-19T11:00:29Z</time></trkpt><trkpt lat="42.97182159609489" lon="10.702021700209274"><ele>82.0</ele><time>2026-04-19T11:00:31Z</time></trkpt><trkpt lat="42.97180213351228" lon="10.701859578628584"><ele>82.0</ele><time>2026-04-19T11:00:36Z</time></trkpt><trkpt lat="42.971773454910775" lon="10.701751792909922"><ele>82.0</ele><time>2026-04-19T11:00:37Z</time></trkpt><trkpt lat="42.97172877587229" lon="10.701643242778843"><ele>82.0</ele><time>2026-04-19T11:00:38Z</time></trkpt><trkpt lat="42.97170017855379" lon="10.701539808622567"><ele>82.0</ele><time>2026-04-19T11:00:39Z</time></trkpt><trkpt lat="42.971735422544924" lon="10.701364301234934"><ele>82.0</ele><time>2026-04-19T11:00:41Z</time></trkpt><trkpt lat="42.97174940698633" lon="10.701225482461123"><ele>82.0</ele><time>2026-04-19T11:00:42Z</time></trkpt><trkpt lat="42.9717815619038" lon="10.701114767850225"><ele>82.0</ele><time>2026-04-19T11:00:43Z</time></trkpt><trkpt lat="42.97181190619113" lon="10.701003942067555"><ele>82.0</ele><time>2026-04-19T11:00:44Z</time></trkpt><trkpt lat="42.971831632419836" lon="10.700889444461618"><ele>82.0</ele><time>2026-04-19T11:00:45Z</time></trkpt><trkpt lat="42.97186436180769" lon="10.700776767136736"><ele>82.0</ele><time>2026-04-19T11:00:46Z</time></trkpt><trkpt lat="42.971886908766564" lon="10.70068350171808"><ele>82.0</ele><time>2026-04-19T11:00:47Z</time></trkpt><trkpt lat="42.97195286321826" lon="10.700575384208182"><ele>81.83333333333333</ele><time>2026-04-19T11:00:49Z</time></trkpt><trkpt lat="42.971990558010646" lon="10.700501597661555"><ele>81.66666666666666</ele><time>2026-04-19T11:00:50Z</time></trkpt><trkpt lat="42.97200065268466" lon="10.700408854177217"><ele>81.5</ele><time>2026-04-19T11:00:51Z</time></trkpt><trkpt lat="42.97201506439163" lon="10.700257569550077"><ele>81.33333333333333</ele><time>2026-04-19T11:00:52Z</time></trkpt><trkpt lat="42.97200812355711" lon="10.700154479315858"><ele>81.16666666666667</ele><time>2026-04-19T11:00:53Z</time></trkpt><trkpt lat="42.9720366198146" lon="10.70007305506282"><ele>81.0</ele><time>2026-04-19T11:00:54Z</time></trkpt><trkpt lat="42.97206689689151" lon="10.699940150467473"><ele>81.0</ele><time>2026-04-19T11:00:55Z</time></trkpt><trkpt lat="42.97207660657286" lon="10.699812364305869"><ele>81.0</ele><time>2026-04-19T11:00:56Z</time></trkpt><trkpt lat="42.972109520260965" lon="10.699734084784573"><ele>81.0</ele><time>2026-04-19T11:00:57Z</time></trkpt><trkpt lat="42.97216390382932" lon="10.699675243771507"><ele>81.0</ele><time>2026-04-19T11:00:58Z</time></trkpt><trkpt lat="42.97220855379302" lon="10.699608642401245"><ele>81.0</ele><time>2026-04-19T11:00:59Z</time></trkpt><trkpt lat="42.972236765338934" lon="10.69952997243077"><ele>81.0</ele><time>2026-04-19T11:01:00Z</time></trkpt><trkpt lat="42.97224602823088" lon="10.699442140192312"><ele>81.0</ele><time>2026-04-19T11:01:01Z</time></trkpt><trkpt lat="42.97225567139083" lon="10.699285826306495"><ele>82.66666666666667</ele><time>2026-04-19T11:01:03Z</time></trkpt><trkpt lat="42.972228072968534" lon="10.699182848875635"><ele>84.33333333333333</ele><time>2026-04-19T11:01:04Z</time></trkpt><trkpt lat="42.97219628800388" lon="10.699102496651456"><ele>86.0</ele><time>2026-04-19T11:01:05Z</time></trkpt><trkpt lat="42.97218685916386" lon="10.698918198048148"><ele>87.66666666666666</ele><time>2026-04-19T11:01:07Z</time></trkpt><trkpt lat="42.97216420407411" lon="10.698821242581163"><ele>89.33333333333333</ele><time>2026-04-19T11:01:08Z</time></trkpt><trkpt lat="42.97215985717895" lon="10.698727400613423"><ele>91.0</ele><time>2026-04-19T11:01:09Z</time></trkpt><trkpt lat="42.97217292895275" lon="10.698605576245383"><ele>91.0</ele><time>2026-04-19T11:01:10Z</time></trkpt><trkpt lat="42.972172567700895" lon="10.698478206751911"><ele>91.0</ele><time>2026-04-19T11:01:11Z</time></trkpt><trkpt lat="42.97216761884007" lon="10.698363197041367"><ele>91.0</ele><time>2026-04-19T11:01:12Z</time></trkpt><trkpt lat="42.97211080459364" lon="10.698559218201233"><ele>91.0</ele><time>2026-04-19T11:01:17Z</time></trkpt><trkpt lat="42.9720634956132" lon="10.69868616735587"><ele>91.0</ele><time>2026-04-19T11:01:18Z</time></trkpt><trkpt lat="42.971977655758906" lon="10.698812857627669"><ele>91.0</ele><time>2026-04-19T11:01:19Z</time></trkpt><trkpt lat="42.97190655739622" lon="10.698929353500573"><ele>91.0</ele><time>2026-04-19T11:01:20Z</time></trkpt><trkpt lat="42.971853193590825" lon="10.699025223407983"><ele>91.0</ele><time>2026-04-19T11:01:21Z</time></trkpt><trkpt lat="42.97177388136781" lon="10.699124498124545"><ele>91.0</ele><time>2026-04-19T11:01:22Z</time></trkpt><trkpt lat="42.97165888521869" lon="10.699223023113161"><ele>91.0</ele><time>2026-04-19T11:01:23Z</time></trkpt><trkpt lat="42.97156873414151" lon="10.699298191592185"><ele>93.8</ele><time>2026-04-19T11:01:24Z</time></trkpt><trkpt lat="42.97151013186747" lon="10.699387390614975"><ele>96.6</ele><time>2026-04-19T11:01:25Z</time></trkpt><trkpt lat="42.97145705494611" lon="10.699484600652461"><ele>99.4</ele><time>2026-04-19T11:01:26Z</time></trkpt><trkpt lat="42.97141102183032" lon="10.699579710749155"><ele>102.2</ele><time>2026-04-19T11:01:27Z</time></trkpt><trkpt lat="42.97133037282717" lon="10.699708497411057"><ele>105.0</ele><time>2026-04-19T11:01:29Z</time></trkpt><trkpt lat="42.97124967091969" lon="10.699846329609409"><ele>105.0</ele><time>2026-04-19T11:01:31Z</time></trkpt><trkpt lat="42.971187879392865" lon="10.699934993313706"><ele>105.0</ele><time>2026-04-19T11:01:32Z</time></trkpt><trkpt lat="42.97111996091083" lon="10.70002823755101"><ele>105.0</ele><time>2026-04-19T11:01:33Z</time></trkpt><trkpt lat="42.97104854217405" lon="10.700091509474582"><ele>105.0</ele><time>2026-04-19T11:01:34Z</time></trkpt><trkpt lat="42.970988432560596" lon="10.700177925081965"><ele>105.0</ele><time>2026-04-19T11:01:35Z</time></trkpt><trkpt lat="42.970962037082785" lon="10.700263022389697"><ele>105.0</ele><time>2026-04-19T11:01:36Z</time></trkpt><trkpt lat="42.9709282127745" lon="10.700346060859665"><ele>102.8</ele><time>2026-04-19T11:01:37Z</time></trkpt><trkpt lat="42.97093499317194" lon="10.700518289846183"><ele>100.6</ele><time>2026-04-19T11:01:38Z</time></trkpt><trkpt lat="42.97091222909387" lon="10.700630408585596"><ele>98.4</ele><time>2026-04-19T11:01:39Z</time></trkpt><trkpt lat="42.970894038796146" lon="10.700742678098374"><ele>96.2</ele><time>2026-04-19T11:01:40Z</time></trkpt><trkpt lat="42.9708516538681" lon="10.700879118853027"><ele>94.0</ele><time>2026-04-19T11:01:41Z</time></trkpt><trkpt lat="42.97079611921333" lon="10.700978707170218"><ele>97.0</ele><time>2026-04-19T11:01:42Z</time></trkpt><trkpt lat="42.97072665169864" lon="10.701055814181196"><ele>100.0</ele><time>2026-04-19T11:01:43Z</time></trkpt><trkpt lat="42.97065650991828" lon="10.701125668895667"><ele>103.0</ele><time>2026-04-19T11:01:44Z</time></trkpt><trkpt lat="42.97058985322801" lon="10.701183795281674"><ele>106.0</ele><time>2026-04-19T11:01:45Z</time></trkpt><trkpt lat="42.97051459730973" lon="10.701225437469002"><ele>109.00000000000001</ele><time>2026-04-19T11:01:46Z</time></trkpt><trkpt lat="42.97043131118167" lon="10.701280264566392"><ele>112.0</ele><time>2026-04-19T11:01:47Z</time></trkpt><trkpt lat="42.97034353166958" lon="10.701345773373843"><ele>112.0</ele><time>2026-04-19T11:01:48Z</time></trkpt><trkpt lat="42.97026934295902" lon="10.701405301542525"><ele>111.99999999999999</ele><time>2026-04-19T11:01:49Z</time></trkpt><trkpt lat="42.970191313593006" lon="10.701428135250989"><ele>111.99999999999999</ele><time>2026-04-19T11:01:50Z</time></trkpt><trkpt lat="42.970088573601856" lon="10.701430697109943"><ele>112.0</ele><time>2026-04-19T11:01:51Z</time></trkpt><trkpt lat="42.969940125556725" lon="10.701451239884035"><ele>112.0</ele><time>2026-04-19T11:01:52Z</time></trkpt><trkpt lat="42.9698229662672" lon="10.701502730415902"><ele>117.0</ele><time>2026-04-19T11:01:53Z</time></trkpt><trkpt lat="42.96968618069579" lon="10.701571725176924"><ele>122.0</ele><time>2026-04-19T11:01:54Z</time></trkpt><trkpt lat="42.96955040102833" lon="10.701629429020926"><ele>127.0</ele><time>2026-04-19T11:01:55Z</time></trkpt><trkpt lat="42.969441048136446" lon="10.701652976395641"><ele>132.0</ele><time>2026-04-19T11:01:56Z</time></trkpt><trkpt lat="42.96935013161037" lon="10.701696913167405"><ele>132.0</ele><time>2026-04-19T11:01:58Z</time></trkpt><trkpt lat="42.96932753783489" lon="10.70180287399682"><ele>132.0</ele><time>2026-04-19T11:01:59Z</time></trkpt><trkpt lat="42.969294638969785" lon="10.701977572986454"><ele>132.0</ele><time>2026-04-19T11:02:00Z</time></trkpt><trkpt lat="42.96925289996097" lon="10.702078198713158"><ele>132.0</ele><time>2026-04-19T11:02:01Z</time></trkpt><trkpt lat="42.969208502527636" lon="10.702193352056256"><ele>132.0</ele><time>2026-04-19T11:02:02Z</time></trkpt><trkpt lat="42.96911902295646" lon="10.702355761372786"><ele>132.25</ele><time>2026-04-19T11:02:03Z</time></trkpt><trkpt lat="42.96903831935802" lon="10.702507885876114"><ele>132.5</ele><time>2026-04-19T11:02:04Z</time></trkpt><trkpt lat="42.96898002167174" lon="10.702605409541105"><ele>132.75</ele><time>2026-04-19T11:02:05Z</time></trkpt><trkpt lat="42.96890498689226" lon="10.70272324541411"><ele>133.0</ele><time>2026-04-19T11:02:06Z</time></trkpt><trkpt lat="42.968816479766744" lon="10.702841729007051"><ele>130.6</ele><time>2026-04-19T11:02:07Z</time></trkpt><trkpt lat="42.968726904703736" lon="10.702950667647409"><ele>128.20000000000002</ele><time>2026-04-19T11:02:08Z</time></trkpt><trkpt lat="42.968648996646344" lon="10.70302535008823"><ele>125.8</ele><time>2026-04-19T11:02:09Z</time></trkpt><trkpt lat="42.968541870300314" lon="10.703091303741067"><ele>123.4</ele><time>2026-04-19T11:02:10Z</time></trkpt><trkpt lat="42.968449612067474" lon="10.703149437336357"><ele>121.0</ele><time>2026-04-19T11:02:11Z</time></trkpt><trkpt lat="42.96836992133635" lon="10.70323184626269"><ele>123.83333333333334</ele><time>2026-04-19T11:02:12Z</time></trkpt><trkpt lat="42.968288150331496" lon="10.703331939685231"><ele>126.66666666666667</ele><time>2026-04-19T11:02:13Z</time></trkpt><trkpt lat="42.96823431362312" lon="10.7033900425554"><ele>129.5</ele><time>2026-04-19T11:02:14Z</time></trkpt><trkpt lat="42.9681709551473" lon="10.703433130539773"><ele>132.33333333333334</ele><time>2026-04-19T11:02:15Z</time></trkpt><trkpt lat="42.96811535674014" lon="10.703502266469677"><ele>135.16666666666666</ele><time>2026-04-19T11:02:16Z</time></trkpt><trkpt lat="42.96809158138915" lon="10.70359215522256"><ele>138.0</ele><time>2026-04-19T11:02:17Z</time></trkpt><trkpt lat="42.967977185418995" lon="10.703662502931342"><ele>138.0</ele><time>2026-04-19T11:02:19Z</time></trkpt><trkpt lat="42.96789302089552" lon="10.703713679756465"><ele>138.0</ele><time>2026-04-19T11:02:20Z</time></trkpt><trkpt lat="42.96781637208853" lon="10.70379596003343"><ele>138.0</ele><time>2026-04-19T11:02:21Z</time></trkpt><trkpt lat="42.96775697863917" lon="10.703877452448316"><ele>138.0</ele><time>2026-04-19T11:02:22Z</time></trkpt><trkpt lat="42.96770531636822" lon="10.703927215677663"><ele>138.0</ele><time>2026-04-19T11:02:23Z</time></trkpt><trkpt lat="42.96767035834044" lon="10.704071053583576"><ele>138.0</ele><time>2026-04-19T11:02:25Z</time></trkpt><trkpt lat="42.967635550319336" lon="10.704158346802556"><ele>138.0</ele><time>2026-04-19T11:02:26Z</time></trkpt><trkpt lat="42.96761267098421" lon="10.704254821106021"><ele>138.0</ele><time>2026-04-19T11:02:27Z</time></trkpt><trkpt lat="42.96761790397197" lon="10.70438580256137"><ele>138.0</ele><time>2026-04-19T11:02:28Z</time></trkpt><trkpt lat="42.96761613111623" lon="10.704483604367732"><ele>138.0</ele><time>2026-04-19T11:02:29Z</time></trkpt><trkpt lat="42.9676635537687" lon="10.704563334947641"><ele>138.0</ele><time>2026-04-19T11:02:30Z</time></trkpt><trkpt lat="42.96775022188545" lon="10.704659245673351"><ele>138.0</ele><time>2026-04-19T11:02:31Z</time></trkpt><trkpt lat="42.967847875012765" lon="10.704770328602468"><ele>139.8</ele><time>2026-04-19T11:02:32Z</time></trkpt><trkpt lat="42.96795724277921" lon="10.70490075309749"><ele>141.60000000000002</ele><time>2026-04-19T11:02:33Z</time></trkpt><trkpt lat="42.96802882405516" lon="10.705003569316638"><ele>143.39999999999998</ele><time>2026-04-19T11:02:34Z</time></trkpt><trkpt lat="42.968091535607016" lon="10.705088463773453"><ele>145.2</ele><time>2026-04-19T11:02:35Z</time></trkpt><trkpt lat="42.96813405361419" lon="10.705159675992833"><ele>147.0</ele><time>2026-04-19T11:02:36Z</time></trkpt><trkpt lat="42.9681801427052" lon="10.70526836803323"><ele>149.6</ele><time>2026-04-19T11:02:38Z</time></trkpt><trkpt lat="42.96828597766365" lon="10.7053104130248"><ele>152.2</ele><time>2026-04-19T11:02:40Z</time></trkpt><trkpt lat="42.96837679455873" lon="10.705423413717604"><ele>154.8</ele><time>2026-04-19T11:02:42Z</time></trkpt><trkpt lat="42.968454681222745" lon="10.70548958308749"><ele>157.4</ele><time>2026-04-19T11:02:43Z</time></trkpt><trkpt lat="42.96854061054874" lon="10.705551614301433"><ele>160.0</ele><time>2026-04-19T11:02:44Z</time></trkpt><trkpt lat="42.96861132316923" lon="10.705600046543609"><ele>160.4</ele><time>2026-04-19T11:02:45Z</time></trkpt><trkpt lat="42.968692208659796" lon="10.705736229118937"><ele>160.8</ele><time>2026-04-19T11:02:47Z</time></trkpt><trkpt lat="42.968753183075734" lon="10.705826865276164"><ele>161.2</ele><time>2026-04-19T11:02:48Z</time></trkpt><trkpt lat="42.96883139814133" lon="10.705910623180477"><ele>161.6</ele><time>2026-04-19T11:02:49Z</time></trkpt><trkpt lat="42.96889182465433" lon="10.70603139738302"><ele>162.0</ele><time>2026-04-19T11:02:51Z</time></trkpt><trkpt lat="42.96891058920539" lon="10.706147819396016"><ele>162.39999999999998</ele><time>2026-04-19T11:02:52Z</time></trkpt><trkpt lat="42.96895028594415" lon="10.70625782290715"><ele>162.79999999999998</ele><time>2026-04-19T11:02:53Z</time></trkpt><trkpt lat="42.969001083013566" lon="10.706361129119522"><ele>163.2</ele><time>2026-04-19T11:02:54Z</time></trkpt><trkpt lat="42.96901710096254" lon="10.706449718826628"><ele>163.6</ele><time>2026-04-19T11:02:55Z</time></trkpt><trkpt lat="42.96892832129865" lon="10.706599803098763"><ele>164.0</ele><time>2026-04-19T11:02:58Z</time></trkpt><trkpt lat="42.96887400946201" lon="10.706647542869364"><ele>164.0</ele><time>2026-04-19T11:02:59Z</time></trkpt><trkpt lat="42.9688789236887" lon="10.70676678821575"><ele>164.0</ele><time>2026-04-19T11:03:01Z</time></trkpt><trkpt lat="42.968856350208654" lon="10.706903416855448"><ele>164.0</ele><time>2026-04-19T11:03:03Z</time></trkpt><trkpt lat="42.96884165826709" lon="10.707022070297212"><ele>164.0</ele><time>2026-04-19T11:03:05Z</time></trkpt><trkpt lat="42.96888039100173" lon="10.707149792063742"><ele>164.0</ele><time>2026-04-19T11:03:06Z</time></trkpt><trkpt lat="42.968901104518366" lon="10.707265097801143"><ele>163.25</ele><time>2026-04-19T11:03:07Z</time></trkpt><trkpt lat="42.968917992092884" lon="10.70741536479233"><ele>162.5</ele><time>2026-04-19T11:03:08Z</time></trkpt><trkpt lat="42.968970300242034" lon="10.707596771204331"><ele>161.75</ele><time>2026-04-19T11:03:09Z</time></trkpt><trkpt lat="42.96901867561087" lon="10.70774962556798"><ele>161.0</ele><time>2026-04-19T11:03:10Z</time></trkpt><trkpt lat="42.96903177183981" lon="10.707872438155503"><ele>160.8</ele><time>2026-04-19T11:03:11Z</time></trkpt><trkpt lat="42.969035975228465" lon="10.708010944850049"><ele>160.60000000000002</ele><time>2026-04-19T11:03:12Z</time></trkpt><trkpt lat="42.96904598890297" lon="10.708142106097869"><ele>160.4</ele><time>2026-04-19T11:03:13Z</time></trkpt><trkpt lat="42.96907050526547" lon="10.708254423512251"><ele>160.2</ele><time>2026-04-19T11:03:14Z</time></trkpt><trkpt lat="42.96914688478708" lon="10.708382252502988"><ele>160.0</ele><time>2026-04-19T11:03:16Z</time></trkpt><trkpt lat="42.9692037290438" lon="10.708470812942695"><ele>158.2</ele><time>2026-04-19T11:03:17Z</time></trkpt><trkpt lat="42.96925793678062" lon="10.708576954068858"><ele>156.4</ele><time>2026-04-19T11:03:18Z</time></trkpt><trkpt lat="42.96930151456103" lon="10.70867511141204"><ele>154.6</ele><time>2026-04-19T11:03:19Z</time></trkpt><trkpt lat="42.96934268360548" lon="10.70879742242722"><ele>152.8</ele><time>2026-04-19T11:03:20Z</time></trkpt><trkpt lat="42.96936407605862" lon="10.708965302526911"><ele>151.0</ele><time>2026-04-19T11:03:21Z</time></trkpt><trkpt lat="42.96940538027299" lon="10.709105481703851"><ele>151.0</ele><time>2026-04-19T11:03:22Z</time></trkpt><trkpt lat="42.96944031989682" lon="10.709213287751652"><ele>151.0</ele><time>2026-04-19T11:03:23Z</time></trkpt><trkpt lat="42.96948164771927" lon="10.709293237757812"><ele>151.0</ele><time>2026-04-19T11:03:24Z</time></trkpt><trkpt lat="42.96955202094004" lon="10.709366866417737"><ele>151.0</ele><time>2026-04-19T11:03:25Z</time></trkpt><trkpt lat="42.96962872502638" lon="10.70944560940704"><ele>151.0</ele><time>2026-04-19T11:03:26Z</time></trkpt><trkpt lat="42.969683835942355" lon="10.709553306986368"><ele>151.0</ele><time>2026-04-19T11:03:27Z</time></trkpt><trkpt lat="42.969722277005566" lon="10.709641551491188"><ele>148.8</ele><time>2026-04-19T11:03:28Z</time></trkpt><trkpt lat="42.96978994604601" lon="10.70968949507488"><ele>146.6</ele><time>2026-04-19T11:03:29Z</time></trkpt><trkpt lat="42.96989507910879" lon="10.709688019775845"><ele>144.4</ele><time>2026-04-19T11:03:30Z</time></trkpt><trkpt lat="42.96996702507591" lon="10.709678244497931"><ele>142.2</ele><time>2026-04-19T11:03:31Z</time></trkpt><trkpt lat="42.970072158649984" lon="10.709758651242362"><ele>140.0</ele><time>2026-04-19T11:03:33Z</time></trkpt><trkpt lat="42.970138908235086" lon="10.709822080388625"><ele>140.0</ele><time>2026-04-19T11:03:34Z</time></trkpt><trkpt lat="42.97022864449082" lon="10.709907804950825"><ele>140.0</ele><time>2026-04-19T11:03:35Z</time></trkpt><trkpt lat="42.970304506937225" lon="10.709991376468878"><ele>140.0</ele><time>2026-04-19T11:03:36Z</time></trkpt><trkpt lat="42.97036537263819" lon="10.71008200372988"><ele>140.0</ele><time>2026-04-19T11:03:37Z</time></trkpt><trkpt lat="42.97049351281779" lon="10.710104346523288"><ele>140.0</ele><time>2026-04-19T11:03:39Z</time></trkpt><trkpt lat="42.970597703125996" lon="10.710123876108055"><ele>140.0</ele><time>2026-04-19T11:03:40Z</time></trkpt><trkpt lat="42.97068661179895" lon="10.710184297878058"><ele>140.0</ele><time>2026-04-19T11:03:41Z</time></trkpt><trkpt lat="42.97073417660594" lon="10.710245803083296"><ele>140.0</ele><time>2026-04-19T11:03:42Z</time></trkpt><trkpt lat="42.97078027122445" lon="10.71038061810034"><ele>140.0</ele><time>2026-04-19T11:03:44Z</time></trkpt><trkpt lat="42.97077446187487" lon="10.710474867723754"><ele>140.0</ele><time>2026-04-19T11:03:45Z</time></trkpt><trkpt lat="42.97076707928572" lon="10.710569625975054"><ele>140.0</ele><time>2026-04-19T11:03:46Z</time></trkpt><trkpt lat="42.97081672582062" lon="10.710659586074508"><ele>139.6</ele><time>2026-04-19T11:03:47Z</time></trkpt><trkpt lat="42.97089575477552" lon="10.710767942526191"><ele>139.2</ele><time>2026-04-19T11:03:48Z</time></trkpt><trkpt lat="42.97091405952708" lon="10.710877919723734"><ele>138.8</ele><time>2026-04-19T11:03:49Z</time></trkpt><trkpt lat="42.9709977832783" lon="10.710914812603507"><ele>138.4</ele><time>2026-04-19T11:03:51Z</time></trkpt><trkpt lat="42.97107422090835" lon="10.710880308353074"><ele>138.0</ele><time>2026-04-19T11:03:52Z</time></trkpt><trkpt lat="42.971177867019556" lon="10.710934176046894"><ele>138.0</ele><time>2026-04-19T11:03:54Z</time></trkpt><trkpt lat="42.97124137734548" lon="10.711044012311744"><ele>138.0</ele><time>2026-04-19T11:03:55Z</time></trkpt><trkpt lat="42.97132268891777" lon="10.711154171162391"><ele>138.0</ele><time>2026-04-19T11:03:56Z</time></trkpt><trkpt lat="42.971375468982075" lon="10.711215303873741"><ele>138.0</ele><time>2026-04-19T11:03:57Z</time></trkpt><trkpt lat="42.971459832546614" lon="10.711243836885393"><ele>138.0</ele><time>2026-04-19T11:03:58Z</time></trkpt><trkpt lat="42.97153146950856" lon="10.711296334478464"><ele>138.20000000000002</ele><time>2026-04-19T11:03:59Z</time></trkpt><trkpt lat="42.97156807543975" lon="10.711381441452628"><ele>138.4</ele><time>2026-04-19T11:04:00Z</time></trkpt><trkpt lat="42.97162086288478" lon="10.711464535236464"><ele>138.60000000000002</ele><time>2026-04-19T11:04:01Z</time></trkpt><trkpt lat="42.971760858438905" lon="10.711502410885181"><ele>138.8</ele><time>2026-04-19T11:04:03Z</time></trkpt><trkpt lat="42.97186240481894" lon="10.71153260932602"><ele>139.0</ele><time>2026-04-19T11:04:04Z</time></trkpt><trkpt lat="42.971946315399904" lon="10.711615369888627"><ele>139.0</ele><time>2026-04-19T11:04:05Z</time></trkpt><trkpt lat="42.972040786233094" lon="10.71175836433035"><ele>139.0</ele><time>2026-04-19T11:04:06Z</time></trkpt><trkpt lat="42.97216931079097" lon="10.711891081578305"><ele>139.0</ele><time>2026-04-19T11:04:07Z</time></trkpt><trkpt lat="42.97228697208824" lon="10.711994329729556"><ele>139.0</ele><time>2026-04-19T11:04:08Z</time></trkpt><trkpt lat="42.97236799822899" lon="10.712070789615312"><ele>140.16666666666669</ele><time>2026-04-19T11:04:09Z</time></trkpt><trkpt lat="42.97244217398105" lon="10.712120213038292"><ele>141.33333333333334</ele><time>2026-04-19T11:04:10Z</time></trkpt><trkpt lat="42.97251308106524" lon="10.712158740847347"><ele>142.5</ele><time>2026-04-19T11:04:11Z</time></trkpt><trkpt lat="42.972590446747326" lon="10.712183754811926"><ele>143.66666666666666</ele><time>2026-04-19T11:04:12Z</time></trkpt><trkpt lat="42.97266642525978" lon="10.712237217409323"><ele>144.83333333333331</ele><time>2026-04-19T11:04:13Z</time></trkpt><trkpt lat="42.97275385980665" lon="10.712304654672245"><ele>146.0</ele><time>2026-04-19T11:04:14Z</time></trkpt><trkpt lat="42.9728296457368" lon="10.712357253746152"><ele>147.25</ele><time>2026-04-19T11:04:15Z</time></trkpt><trkpt lat="42.97292565504829" lon="10.712384227653756"><ele>148.5</ele><time>2026-04-19T11:04:16Z</time></trkpt><trkpt lat="42.973039589566504" lon="10.712402908029272"><ele>149.75</ele><time>2026-04-19T11:04:17Z</time></trkpt><trkpt lat="42.97318334602371" lon="10.712407829972818"><ele>151.0</ele><time>2026-04-19T11:04:18Z</time></trkpt><trkpt lat="42.9733001553314" lon="10.712423791616642"><ele>151.4</ele><time>2026-04-19T11:04:19Z</time></trkpt><trkpt lat="42.97339813547285" lon="10.712429731981008"><ele>151.8</ele><time>2026-04-19T11:04:20Z</time></trkpt><trkpt lat="42.97349204954043" lon="10.712415563054636"><ele>152.20000000000002</ele><time>2026-04-19T11:04:21Z</time></trkpt><trkpt lat="42.973600247115876" lon="10.712374495246694"><ele>152.6</ele><time>2026-04-19T11:04:22Z</time></trkpt><trkpt lat="42.97370253082497" lon="10.712336472485946"><ele>153.0</ele><time>2026-04-19T11:04:23Z</time></trkpt><trkpt lat="42.97378877836471" lon="10.712331890367512"><ele>153.0</ele><time>2026-04-19T11:04:24Z</time></trkpt><trkpt lat="42.973893243800035" lon="10.712319211427301"><ele>153.0</ele><time>2026-04-19T11:04:26Z</time></trkpt><trkpt lat="42.97396706400791" lon="10.712309765731886"><ele>153.0</ele><time>2026-04-19T11:04:27Z</time></trkpt><trkpt lat="42.97404303963953" lon="10.712304690104126"><ele>153.0</ele><time>2026-04-19T11:04:28Z</time></trkpt><trkpt lat="42.97412899228617" lon="10.71230687067185"><ele>153.0</ele><time>2026-04-19T11:04:29Z</time></trkpt><trkpt lat="42.97420042154775" lon="10.71230974543525"><ele>153.0</ele><time>2026-04-19T11:04:30Z</time></trkpt><trkpt lat="42.97427237653164" lon="10.71233403441114"><ele>152.8</ele><time>2026-04-19T11:04:31Z</time></trkpt><trkpt lat="42.9743482300226" lon="10.712333009784953"><ele>152.60000000000002</ele><time>2026-04-19T11:04:32Z</time></trkpt><trkpt lat="42.97444936308721" lon="10.712308333607618"><ele>152.39999999999998</ele><time>2026-04-19T11:04:33Z</time></trkpt><trkpt lat="42.97457797124949" lon="10.712262677019424"><ele>152.2</ele><time>2026-04-19T11:04:34Z</time></trkpt><trkpt lat="42.97467403297075" lon="10.712227077490015"><ele>152.0</ele><time>2026-04-19T11:04:35Z</time></trkpt><trkpt lat="42.9747459863093" lon="10.712176106698744"><ele>152.0</ele><time>2026-04-19T11:04:37Z</time></trkpt><trkpt lat="42.97482670270232" lon="10.712173087680934"><ele>152.0</ele><time>2026-04-19T11:04:38Z</time></trkpt><trkpt lat="42.97491404668461" lon="10.71217898051912"><ele>152.0</ele><time>2026-04-19T11:04:39Z</time></trkpt><trkpt lat="42.97501916362442" lon="10.71222964594858"><ele>152.0</ele><time>2026-04-19T11:04:40Z</time></trkpt><trkpt lat="42.97513927785909" lon="10.71230310068164"><ele>152.0</ele><time>2026-04-19T11:04:41Z</time></trkpt><trkpt lat="42.97522441245484" lon="10.712345009755218"><ele>154.6</ele><time>2026-04-19T11:04:42Z</time></trkpt><trkpt lat="42.975312492694066" lon="10.712416209276348"><ele>157.2</ele><time>2026-04-19T11:04:43Z</time></trkpt><trkpt lat="42.975413471866666" lon="10.712478246684382"><ele>159.8</ele><time>2026-04-19T11:04:44Z</time></trkpt><trkpt lat="42.975498419575906" lon="10.71254020881268"><ele>162.4</ele><time>2026-04-19T11:04:45Z</time></trkpt><trkpt lat="42.97558417240866" lon="10.712594233778036"><ele>165.0</ele><time>2026-04-19T11:04:46Z</time></trkpt><trkpt lat="42.975635266955194" lon="10.712670734143128"><ele>162.4</ele><time>2026-04-19T11:04:47Z</time></trkpt><trkpt lat="42.97564250925538" lon="10.712787515965331"><ele>159.8</ele><time>2026-04-19T11:04:48Z</time></trkpt><trkpt lat="42.975673374891166" lon="10.712958759661431"><ele>157.2</ele><time>2026-04-19T11:04:49Z</time></trkpt><trkpt lat="42.97569421572259" lon="10.713076898243328"><ele>154.6</ele><time>2026-04-19T11:04:50Z</time></trkpt><trkpt lat="42.9757670422727" lon="10.713209580582541"><ele>152.0</ele><time>2026-04-19T11:04:51Z</time></trkpt><trkpt lat="42.975829272346964" lon="10.713301370492589"><ele>154.2</ele><time>2026-04-19T11:04:52Z</time></trkpt><trkpt lat="42.97588127595524" lon="10.71336725083622"><ele>156.39999999999998</ele><time>2026-04-19T11:04:53Z</time></trkpt><trkpt lat="42.975956322924176" lon="10.713427843437701"><ele>158.60000000000002</ele><time>2026-04-19T11:04:54Z</time></trkpt><trkpt lat="42.97603828756295" lon="10.713518604559635"><ele>160.8</ele><time>2026-04-19T11:04:55Z</time></trkpt><trkpt lat="42.97613108898162" lon="10.713627711856603"><ele>163.0</ele><time>2026-04-19T11:04:56Z</time></trkpt><trkpt lat="42.976221831715634" lon="10.713747879704101"><ele>163.0</ele><time>2026-04-19T11:04:57Z</time></trkpt><trkpt lat="42.97627868123149" lon="10.713896540184914"><ele>163.0</ele><time>2026-04-19T11:04:58Z</time></trkpt><trkpt lat="42.97633462734229" lon="10.714003007769357"><ele>163.0</ele><time>2026-04-19T11:04:59Z</time></trkpt><trkpt lat="42.97638319963228" lon="10.714069290706828"><ele>163.0</ele><time>2026-04-19T11:05:00Z</time></trkpt><trkpt lat="42.97644235370854" lon="10.714149586719975"><ele>163.0</ele><time>2026-04-19T11:05:01Z</time></trkpt><trkpt lat="42.97649444523495" lon="10.714247339828617"><ele>163.0</ele><time>2026-04-19T11:05:02Z</time></trkpt><trkpt lat="42.97654455203708" lon="10.714354435143674"><ele>163.0</ele><time>2026-04-19T11:05:03Z</time></trkpt><trkpt lat="42.97659270934458" lon="10.714436243066324"><ele>163.0</ele><time>2026-04-19T11:05:04Z</time></trkpt><trkpt lat="42.97667603830871" lon="10.714454004986337"><ele>163.0</ele><time>2026-04-19T11:05:05Z</time></trkpt><trkpt lat="42.976771831074544" lon="10.714509075354993"><ele>163.0</ele><time>2026-04-19T11:05:06Z</time></trkpt><trkpt lat="42.97686288245881" lon="10.714556824055185"><ele>165.0</ele><time>2026-04-19T11:05:07Z</time></trkpt><trkpt lat="42.97694466992206" lon="10.71469492188088"><ele>167.0</ele><time>2026-04-19T11:05:09Z</time></trkpt><trkpt lat="42.97697469973188" lon="10.714827559422686"><ele>169.0</ele><time>2026-04-19T11:05:10Z</time></trkpt><trkpt lat="42.97698472311263" lon="10.714986933608026"><ele>171.0</ele><time>2026-04-19T11:05:11Z</time></trkpt><trkpt lat="42.976980490446245" lon="10.715110036040427"><ele>173.0</ele><time>2026-04-19T11:05:12Z</time></trkpt><trkpt lat="42.97696028896383" lon="10.715252725300106"><ele>173.0</ele><time>2026-04-19T11:05:13Z</time></trkpt><trkpt lat="42.97691907122193" lon="10.715432817591559"><ele>173.0</ele><time>2026-04-19T11:05:14Z</time></trkpt><trkpt lat="42.976881875781494" lon="10.715551655642248"><ele>173.0</ele><time>2026-04-19T11:05:15Z</time></trkpt><trkpt lat="42.976857291570774" lon="10.71565193197413"><ele>173.0</ele><time>2026-04-19T11:05:16Z</time></trkpt><trkpt lat="42.976857070829794" lon="10.715740236600135"><ele>173.0</ele><time>2026-04-19T11:05:17Z</time></trkpt><trkpt lat="42.97688433135371" lon="10.715819926038956"><ele>173.0</ele><time>2026-04-19T11:05:18Z</time></trkpt><trkpt lat="42.976947881188224" lon="10.715917403845019"><ele>173.0</ele><time>2026-04-19T11:05:19Z</time></trkpt><trkpt lat="42.977016896402006" lon="10.716018028591025"><ele>173.0</ele><time>2026-04-19T11:05:20Z</time></trkpt><trkpt lat="42.977038234706136" lon="10.716104724486174"><ele>173.0</ele><time>2026-04-19T11:05:21Z</time></trkpt><trkpt lat="42.977093902471154" lon="10.71618269578237"><ele>173.0</ele><time>2026-04-19T11:05:22Z</time></trkpt><trkpt lat="42.977141093647404" lon="10.716242692074637"><ele>173.0</ele><time>2026-04-19T11:05:23Z</time></trkpt><trkpt lat="42.97717606361346" lon="10.716343246898575"><ele>173.0</ele><time>2026-04-19T11:05:24Z</time></trkpt><trkpt lat="42.977149586268986" lon="10.716476787520467"><ele>172.83333333333331</ele><time>2026-04-19T11:05:25Z</time></trkpt><trkpt lat="42.97715111738466" lon="10.716584788715714"><ele>172.66666666666666</ele><time>2026-04-19T11:05:26Z</time></trkpt><trkpt lat="42.97714675340739" lon="10.71668467459272"><ele>172.5</ele><time>2026-04-19T11:05:27Z</time></trkpt><trkpt lat="42.977112879490626" lon="10.716773964712013"><ele>172.33333333333334</ele><time>2026-04-19T11:05:28Z</time></trkpt><trkpt lat="42.977115946017314" lon="10.716878884806905"><ele>172.16666666666669</ele><time>2026-04-19T11:05:29Z</time></trkpt><trkpt lat="42.977113348134566" lon="10.717058867620542"><ele>172.0</ele><time>2026-04-19T11:05:31Z</time></trkpt><trkpt lat="42.97708166581532" lon="10.717164966938133"><ele>170.66666666666669</ele><time>2026-04-19T11:05:32Z</time></trkpt><trkpt lat="42.97709259160509" lon="10.717262970026685"><ele>169.33333333333334</ele><time>2026-04-19T11:05:33Z</time></trkpt><trkpt lat="42.97708241160108" lon="10.717366542792831"><ele>168.0</ele><time>2026-04-19T11:05:34Z</time></trkpt><trkpt lat="42.97707423666788" lon="10.717464885429246"><ele>166.66666666666666</ele><time>2026-04-19T11:05:35Z</time></trkpt><trkpt lat="42.97705041651231" lon="10.717559050291971"><ele>165.33333333333331</ele><time>2026-04-19T11:05:36Z</time></trkpt><trkpt lat="42.977010145386245" lon="10.717677065373117"><ele>164.0</ele><time>2026-04-19T11:05:37Z</time></trkpt><trkpt lat="42.97697051222786" lon="10.717841924405121"><ele>162.6</ele><time>2026-04-19T11:05:38Z</time></trkpt><trkpt lat="42.976939316454164" lon="10.717999430279633"><ele>161.2</ele><time>2026-04-19T11:05:39Z</time></trkpt><trkpt lat="42.976912019534815" lon="10.718107850720905"><ele>159.79999999999998</ele><time>2026-04-19T11:05:40Z</time></trkpt><trkpt lat="42.97690633664536" lon="10.718212634857045"><ele>158.39999999999998</ele><time>2026-04-19T11:05:41Z</time></trkpt><trkpt lat="42.976921670442174" lon="10.718305035799997"><ele>157.0</ele><time>2026-04-19T11:05:42Z</time></trkpt><trkpt lat="42.97690768363576" lon="10.718447585616389"><ele>157.0</ele><time>2026-04-19T11:05:44Z</time></trkpt><trkpt lat="42.976881139640646" lon="10.718550486323215"><ele>157.0</ele><time>2026-04-19T11:05:45Z</time></trkpt><trkpt lat="42.97694390686258" lon="10.718701983596615"><ele>157.0</ele><time>2026-04-19T11:05:47Z</time></trkpt><trkpt lat="42.97699573840835" lon="10.718766940078204"><ele>157.0</ele><time>2026-04-19T11:05:48Z</time></trkpt><trkpt lat="42.97701602988683" lon="10.718870296055956"><ele>157.0</ele><time>2026-04-19T11:05:49Z</time></trkpt><trkpt lat="42.97703007520719" lon="10.718980566696958"><ele>157.0</ele><time>2026-04-19T11:05:50Z</time></trkpt><trkpt lat="42.97706774060823" lon="10.7190926618829"><ele>156.33333333333334</ele><time>2026-04-19T11:05:51Z</time></trkpt><trkpt lat="42.97711905387793" lon="10.719188321262058"><ele>155.66666666666669</ele><time>2026-04-19T11:05:52Z</time></trkpt><trkpt lat="42.97715245764948" lon="10.719276014843626"><ele>155.0</ele><time>2026-04-19T11:05:53Z</time></trkpt><trkpt lat="42.97718721177059" lon="10.719351113942857"><ele>154.33333333333334</ele><time>2026-04-19T11:05:54Z</time></trkpt><trkpt lat="42.977243544947676" lon="10.71941786950713"><ele>153.66666666666666</ele><time>2026-04-19T11:05:55Z</time></trkpt><trkpt lat="42.97732034784008" lon="10.719509597369868"><ele>153.0</ele><time>2026-04-19T11:05:56Z</time></trkpt><trkpt lat="42.97742107197941" lon="10.719633634588916"><ele>151.8</ele><time>2026-04-19T11:05:57Z</time></trkpt><trkpt lat="42.97751292769061" lon="10.7197560982602"><ele>150.60000000000002</ele><time>2026-04-19T11:05:58Z</time></trkpt><trkpt lat="42.977594340577575" lon="10.719851340568027"><ele>149.39999999999998</ele><time>2026-04-19T11:05:59Z</time></trkpt><trkpt lat="42.97765991718685" lon="10.7199433709504"><ele>148.2</ele><time>2026-04-19T11:06:00Z</time></trkpt><trkpt lat="42.977727137791405" lon="10.720019438237935"><ele>147.0</ele><time>2026-04-19T11:06:01Z</time></trkpt><trkpt lat="42.97778331238938" lon="10.720117637513521"><ele>148.2</ele><time>2026-04-19T11:06:02Z</time></trkpt><trkpt lat="42.97784865264248" lon="10.720272065808883"><ele>149.39999999999998</ele><time>2026-04-19T11:06:03Z</time></trkpt><trkpt lat="42.97790724035415" lon="10.720395559718396"><ele>150.60000000000002</ele><time>2026-04-19T11:06:04Z</time></trkpt><trkpt lat="42.97796593909941" lon="10.720468669260871"><ele>151.8</ele><time>2026-04-19T11:06:05Z</time></trkpt><trkpt lat="42.978024070012424" lon="10.720535312416601"><ele>153.0</ele><time>2026-04-19T11:06:06Z</time></trkpt><trkpt lat="42.97806091315494" lon="10.720623676441173"><ele>153.0</ele><time>2026-04-19T11:06:07Z</time></trkpt><trkpt lat="42.97808869024217" lon="10.720769785464674"><ele>153.0</ele><time>2026-04-19T11:06:08Z</time></trkpt><trkpt lat="42.978118429429685" lon="10.720884461773958"><ele>153.0</ele><time>2026-04-19T11:06:09Z</time></trkpt><trkpt lat="42.97816484503267" lon="10.721051769145832"><ele>153.0</ele><time>2026-04-19T11:06:11Z</time></trkpt><trkpt lat="42.97817446479186" lon="10.721218743075271"><ele>153.4</ele><time>2026-04-19T11:06:12Z</time></trkpt><trkpt lat="42.97820564610362" lon="10.72130869522468"><ele>153.8</ele><time>2026-04-19T11:06:13Z</time></trkpt><trkpt lat="42.978208823920916" lon="10.7214968121051"><ele>154.2</ele><time>2026-04-19T11:06:15Z</time></trkpt><trkpt lat="42.97816922293549" lon="10.72158241875711"><ele>154.6</ele><time>2026-04-19T11:06:16Z</time></trkpt><trkpt lat="42.97818465099244" lon="10.721686756189557"><ele>155.0</ele><time>2026-04-19T11:06:17Z</time></trkpt><trkpt lat="42.97820667802659" lon="10.721818151821628"><ele>156.8</ele><time>2026-04-19T11:06:18Z</time></trkpt><trkpt lat="42.97818014976252" lon="10.72193744075283"><ele>158.6</ele><time>2026-04-19T11:06:19Z</time></trkpt><trkpt lat="42.97814723743714" lon="10.722086530111705"><ele>160.39999999999998</ele><time>2026-04-19T11:06:20Z</time></trkpt><trkpt lat="42.97812990060417" lon="10.722233002732613"><ele>162.2</ele><time>2026-04-19T11:06:21Z</time></trkpt><trkpt lat="42.97811455388377" lon="10.722376521212897"><ele>164.0</ele><time>2026-04-19T11:06:22Z</time></trkpt><trkpt lat="42.97810802664795" lon="10.7224902183302"><ele>164.0</ele><time>2026-04-19T11:06:23Z</time></trkpt><trkpt lat="42.978076862432346" lon="10.722571713966099"><ele>164.0</ele><time>2026-04-19T11:06:24Z</time></trkpt><trkpt lat="42.97799614436292" lon="10.722650762513801"><ele>164.0</ele><time>2026-04-19T11:06:25Z</time></trkpt><trkpt lat="42.97790733961141" lon="10.722723745957705"><ele>164.0</ele><time>2026-04-19T11:06:26Z</time></trkpt><trkpt lat="42.97784959072015" lon="10.7227952152274"><ele>164.0</ele><time>2026-04-19T11:06:27Z</time></trkpt><trkpt lat="42.977799459283425" lon="10.722902638025392"><ele>164.0</ele><time>2026-04-19T11:06:28Z</time></trkpt><trkpt lat="42.977745926861886" lon="10.72300506308972"><ele>162.33333333333331</ele><time>2026-04-19T11:06:29Z</time></trkpt><trkpt lat="42.9777072157271" lon="10.723078551044747"><ele>160.66666666666666</ele><time>2026-04-19T11:06:30Z</time></trkpt><trkpt lat="42.9776677227781" lon="10.723145947638548"><ele>159.0</ele><time>2026-04-19T11:06:31Z</time></trkpt><trkpt lat="42.977620200660105" lon="10.723223918794872"><ele>157.33333333333334</ele><time>2026-04-19T11:06:32Z</time></trkpt><trkpt lat="42.977579629651935" lon="10.723302686690328"><ele>155.66666666666669</ele><time>2026-04-19T11:06:33Z</time></trkpt><trkpt lat="42.9775237625966" lon="10.723391092589148"><ele>154.0</ele><time>2026-04-19T11:06:34Z</time></trkpt><trkpt lat="42.97746220328066" lon="10.72349085885539"><ele>154.8</ele><time>2026-04-19T11:06:35Z</time></trkpt><trkpt lat="42.977411077640056" lon="10.723605361511417"><ele>155.60000000000002</ele><time>2026-04-19T11:06:36Z</time></trkpt><trkpt lat="42.97736271397297" lon="10.723709324166096"><ele>156.4</ele><time>2026-04-19T11:06:37Z</time></trkpt><trkpt lat="42.97731309252925" lon="10.723815703625288"><ele>157.20000000000002</ele><time>2026-04-19T11:06:38Z</time></trkpt><trkpt lat="42.97726995164156" lon="10.723939564759103"><ele>158.0</ele><time>2026-04-19T11:06:39Z</time></trkpt><trkpt lat="42.97724193725911" lon="10.724036320342393"><ele>158.0</ele><time>2026-04-19T11:06:40Z</time></trkpt><trkpt lat="42.977219762626824" lon="10.724117509763422"><ele>158.0</ele><time>2026-04-19T11:06:41Z</time></trkpt><trkpt lat="42.97719907872808" lon="10.724201822007412"><ele>158.0</ele><time>2026-04-19T11:06:42Z</time></trkpt><trkpt lat="42.97716879730908" lon="10.724288345405517"><ele>158.0</ele><time>2026-04-19T11:06:43Z</time></trkpt><trkpt lat="42.97716392867167" lon="10.724431419270132"><ele>158.0</ele><time>2026-04-19T11:06:45Z</time></trkpt><trkpt lat="42.97718740646037" lon="10.724564735648514"><ele>158.0</ele><time>2026-04-19T11:06:47Z</time></trkpt><trkpt lat="42.97725189117707" lon="10.724694769071121"><ele>155.8</ele><time>2026-04-19T11:06:49Z</time></trkpt><trkpt lat="42.97730126486839" lon="10.724774154672684"><ele>153.60000000000002</ele><time>2026-04-19T11:06:50Z</time></trkpt><trkpt lat="42.977346891759645" lon="10.724868310355616"><ele>151.39999999999998</ele><time>2026-04-19T11:06:51Z</time></trkpt><trkpt lat="42.977405989983126" lon="10.724995068347503"><ele>149.2</ele><time>2026-04-19T11:06:52Z</time></trkpt><trkpt lat="42.97747824607287" lon="10.72515077231013"><ele>147.0</ele><time>2026-04-19T11:06:53Z</time></trkpt><trkpt lat="42.97752485840367" lon="10.72529094382641"><ele>146.6</ele><time>2026-04-19T11:06:54Z</time></trkpt><trkpt lat="42.97756344307622" lon="10.725383158012885"><ele>146.2</ele><time>2026-04-19T11:06:55Z</time></trkpt><trkpt lat="42.97761332979427" lon="10.725478607063986"><ele>145.8</ele><time>2026-04-19T11:06:56Z</time></trkpt><trkpt lat="42.97769807820722" lon="10.725557232014994"><ele>145.4</ele><time>2026-04-19T11:06:57Z</time></trkpt><trkpt lat="42.977790812794105" lon="10.725641807264095"><ele>145.0</ele><time>2026-04-19T11:06:58Z</time></trkpt><trkpt lat="42.977853610606026" lon="10.725710461015439"><ele>145.0</ele><time>2026-04-19T11:06:59Z</time></trkpt><trkpt lat="42.97796361292364" lon="10.725754172912303"><ele>145.0</ele><time>2026-04-19T11:07:01Z</time></trkpt><trkpt lat="42.978037426075204" lon="10.72573509394682"><ele>145.0</ele><time>2026-04-19T11:07:02Z</time></trkpt><trkpt lat="42.978114292076235" lon="10.72568374239109"><ele>145.0</ele><time>2026-04-19T11:07:03Z</time></trkpt><trkpt lat="42.97820801952777" lon="10.725688749572901"><ele>145.0</ele><time>2026-04-19T11:07:04Z</time></trkpt><trkpt lat="42.97835052932639" lon="10.725741461096886"><ele>146.2</ele><time>2026-04-19T11:07:05Z</time></trkpt><trkpt lat="42.97846794171946" lon="10.725759607768172"><ele>147.4</ele><time>2026-04-19T11:07:06Z</time></trkpt><trkpt lat="42.978552969278525" lon="10.725763734678392"><ele>148.6</ele><time>2026-04-19T11:07:07Z</time></trkpt><trkpt lat="42.97866317810396" lon="10.725807295937175"><ele>149.8</ele><time>2026-04-19T11:07:09Z</time></trkpt><trkpt lat="42.9787257132362" lon="10.725822433138852"><ele>151.0</ele><time>2026-04-19T11:07:10Z</time></trkpt><trkpt lat="42.97879285847969" lon="10.725860253543273"><ele>151.0</ele><time>2026-04-19T11:07:11Z</time></trkpt><trkpt lat="42.97886698766198" lon="10.725930151563215"><ele>151.0</ele><time>2026-04-19T11:07:12Z</time></trkpt><trkpt lat="42.978950300328414" lon="10.726001364615568"><ele>151.0</ele><time>2026-04-19T11:07:13Z</time></trkpt><trkpt lat="42.97903592408771" lon="10.72602118796466"><ele>151.0</ele><time>2026-04-19T11:07:14Z</time></trkpt><trkpt lat="42.97913078410379" lon="10.726074102489262"><ele>151.0</ele><time>2026-04-19T11:07:15Z</time></trkpt><trkpt lat="42.979248788957754" lon="10.726078651545693"><ele>152.6</ele><time>2026-04-19T11:07:17Z</time></trkpt><trkpt lat="42.97933452992832" lon="10.726056378027181"><ele>154.2</ele><time>2026-04-19T11:07:18Z</time></trkpt><trkpt lat="42.97943226571563" lon="10.726192087117372"><ele>155.8</ele><time>2026-04-19T11:07:20Z</time></trkpt><trkpt lat="42.97948128046802" lon="10.726328725109399"><ele>157.4</ele><time>2026-04-19T11:07:21Z</time></trkpt><trkpt lat="42.97952997382753" lon="10.726447463600833"><ele>159.0</ele><time>2026-04-19T11:07:22Z</time></trkpt><trkpt lat="42.97966241080108" lon="10.726482531077348"><ele>158.33333333333334</ele><time>2026-04-19T11:07:24Z</time></trkpt><trkpt lat="42.97973636221919" lon="10.726485557102993"><ele>157.66666666666666</ele><time>2026-04-19T11:07:25Z</time></trkpt><trkpt lat="42.97981556993557" lon="10.726467310428701"><ele>157.0</ele><time>2026-04-19T11:07:26Z</time></trkpt><trkpt lat="42.979908120900156" lon="10.726427969489286"><ele>156.33333333333331</ele><time>2026-04-19T11:07:27Z</time></trkpt><trkpt lat="42.97998534246223" lon="10.726391428528204"><ele>155.66666666666666</ele><time>2026-04-19T11:07:28Z</time></trkpt><trkpt lat="42.980045441731875" lon="10.726434504737313"><ele>155.0</ele><time>2026-04-19T11:07:29Z</time></trkpt><trkpt lat="42.980114231528326" lon="10.726494890830494"><ele>155.0</ele><time>2026-04-19T11:07:30Z</time></trkpt><trkpt lat="42.98017154844476" lon="10.726559119885605"><ele>155.0</ele><time>2026-04-19T11:07:31Z</time></trkpt><trkpt lat="42.980220569131895" lon="10.72667109393546"><ele>155.0</ele><time>2026-04-19T11:07:32Z</time></trkpt><trkpt lat="42.98026789043651" lon="10.726781524263542"><ele>155.0</ele><time>2026-04-19T11:07:33Z</time></trkpt><trkpt lat="42.98028303529735" lon="10.726886396205886"><ele>155.0</ele><time>2026-04-19T11:07:34Z</time></trkpt><trkpt lat="42.98029064606541" lon="10.727009966287072"><ele>155.0</ele><time>2026-04-19T11:07:35Z</time></trkpt><trkpt lat="42.9802945725906" lon="10.727146927077927"><ele>152.4</ele><time>2026-04-19T11:07:36Z</time></trkpt><trkpt lat="42.980326174855286" lon="10.727252017165338"><ele>149.8</ele><time>2026-04-19T11:07:37Z</time></trkpt><trkpt lat="42.98040106054255" lon="10.727369495532484"><ele>147.2</ele><time>2026-04-19T11:07:38Z</time></trkpt><trkpt lat="42.980460965802315" lon="10.727446994884716"><ele>144.6</ele><time>2026-04-19T11:07:39Z</time></trkpt><trkpt lat="42.98058938398074" lon="10.72749351340404"><ele>142.0</ele><time>2026-04-19T11:07:41Z</time></trkpt><trkpt lat="42.98066768373196" lon="10.72754212667174"><ele>142.0</ele><time>2026-04-19T11:07:42Z</time></trkpt><trkpt lat="42.98071993915752" lon="10.72760945592631"><ele>142.0</ele><time>2026-04-19T11:07:43Z</time></trkpt><trkpt lat="42.9808319768996" lon="10.727671529904264"><ele>142.0</ele><time>2026-04-19T11:07:45Z</time></trkpt><trkpt lat="42.980935527553335" lon="10.727658692493266"><ele>142.0</ele><time>2026-04-19T11:07:46Z</time></trkpt><trkpt lat="42.98105495053639" lon="10.727672929125607"><ele>142.0</ele><time>2026-04-19T11:07:47Z</time></trkpt><trkpt lat="42.98113852182866" lon="10.727667280895105"><ele>141.6</ele><time>2026-04-19T11:07:48Z</time></trkpt><trkpt lat="42.98122805801611" lon="10.727686470602338"><ele>141.2</ele><time>2026-04-19T11:07:50Z</time></trkpt><trkpt lat="42.98127320477639" lon="10.727781620292882"><ele>140.8</ele><time>2026-04-19T11:07:51Z</time></trkpt><trkpt lat="42.98134840569968" lon="10.7279202782547"><ele>140.4</ele><time>2026-04-19T11:07:52Z</time></trkpt><trkpt lat="42.9814113153137" lon="10.728013435213136"><ele>140.0</ele><time>2026-04-19T11:07:53Z</time></trkpt><trkpt lat="42.98148194514077" lon="10.72801623898298"><ele>140.0</ele><time>2026-04-19T11:07:54Z</time></trkpt><trkpt lat="42.981573952868544" lon="10.728013024176708"><ele>140.0</ele><time>2026-04-19T11:07:55Z</time></trkpt><trkpt lat="42.98170413590249" lon="10.727985180259848"><ele>140.0</ele><time>2026-04-19T11:07:56Z</time></trkpt><trkpt lat="42.98183685492827" lon="10.727948994721316"><ele>140.0</ele><time>2026-04-19T11:07:57Z</time></trkpt><trkpt lat="42.98192137831499" lon="10.727924881871461"><ele>140.0</ele><time>2026-04-19T11:07:58Z</time></trkpt><trkpt lat="42.982006170814145" lon="10.727965667278307"><ele>139.0</ele><time>2026-04-19T11:07:59Z</time></trkpt><trkpt lat="42.98208723601677" lon="10.728048616427726"><ele>138.0</ele><time>2026-04-19T11:08:00Z</time></trkpt><trkpt lat="42.98213775248386" lon="10.728138640002323"><ele>137.0</ele><time>2026-04-19T11:08:01Z</time></trkpt><trkpt lat="42.98219965594558" lon="10.72818604552019"><ele>136.0</ele><time>2026-04-19T11:08:02Z</time></trkpt><trkpt lat="42.982267114603445" lon="10.728210790784049"><ele>135.0</ele><time>2026-04-19T11:08:03Z</time></trkpt><trkpt lat="42.9823313022093" lon="10.728222288097848"><ele>134.0</ele><time>2026-04-19T11:08:04Z</time></trkpt><trkpt lat="42.98242291688194" lon="10.728100664085199"><ele>134.0</ele><time>2026-04-19T11:08:06Z</time></trkpt><trkpt lat="42.98246239505921" lon="10.72800624264544"><ele>134.0</ele><time>2026-04-19T11:08:07Z</time></trkpt><trkpt lat="42.98251630927723" lon="10.727927891559675"><ele>134.0</ele><time>2026-04-19T11:08:08Z</time></trkpt><trkpt lat="42.982633435954455" lon="10.727847819577558"><ele>134.0</ele><time>2026-04-19T11:08:09Z</time></trkpt><trkpt lat="42.982736262270144" lon="10.727773656614309"><ele>134.0</ele><time>2026-04-19T11:08:10Z</time></trkpt><trkpt lat="42.98283460236923" lon="10.72771290696188"><ele>131.5</ele><time>2026-04-19T11:08:11Z</time></trkpt><trkpt lat="42.98293794256208" lon="10.727658743794743"><ele>129.0</ele><time>2026-04-19T11:08:12Z</time></trkpt><trkpt lat="42.983033952252995" lon="10.727617526187002"><ele>126.5</ele><time>2026-04-19T11:08:13Z</time></trkpt><trkpt lat="42.983141784725056" lon="10.72752563467286"><ele>124.0</ele><time>2026-04-19T11:08:14Z</time></trkpt><trkpt lat="42.98322320730758" lon="10.727400978390326"><ele>124.0</ele><time>2026-04-19T11:08:15Z</time></trkpt><trkpt lat="42.98328328598391" lon="10.727336453210441"><ele>124.0</ele><time>2026-04-19T11:08:16Z</time></trkpt><trkpt lat="42.983420592729544" lon="10.72733124780573"><ele>124.0</ele><time>2026-04-19T11:08:18Z</time></trkpt><trkpt lat="42.98353276126947" lon="10.727309299767475"><ele>124.0</ele><time>2026-04-19T11:08:19Z</time></trkpt><trkpt lat="42.98360174759236" lon="10.727241855091211"><ele>124.0</ele><time>2026-04-19T11:08:20Z</time></trkpt><trkpt lat="42.983689404831075" lon="10.727140555952012"><ele>123.80000000000001</ele><time>2026-04-19T11:08:21Z</time></trkpt><trkpt lat="42.983790020997695" lon="10.727049949069075"><ele>123.60000000000001</ele><time>2026-04-19T11:08:22Z</time></trkpt><trkpt lat="42.98389147947649" lon="10.726961868764816"><ele>123.4</ele><time>2026-04-19T11:08:23Z</time></trkpt><trkpt lat="42.983982508870426" lon="10.726909989571325"><ele>123.2</ele><time>2026-04-19T11:08:24Z</time></trkpt><trkpt lat="42.984091359067605" lon="10.726888863683136"><ele>123.0</ele><time>2026-04-19T11:08:25Z</time></trkpt><trkpt lat="42.98417859181735" lon="10.726821497911642"><ele>119.83333333333333</ele><time>2026-04-19T11:08:26Z</time></trkpt><trkpt lat="42.98425800124666" lon="10.726778031147967"><ele>116.66666666666666</ele><time>2026-04-19T11:08:27Z</time></trkpt><trkpt lat="42.98433605454707" lon="10.726780908422821"><ele>113.5</ele><time>2026-04-19T11:08:28Z</time></trkpt><trkpt lat="42.98441252389742" lon="10.726756820258252"><ele>110.33333333333333</ele><time>2026-04-19T11:08:29Z</time></trkpt><trkpt lat="42.98446251903411" lon="10.726703013949287"><ele>107.16666666666666</ele><time>2026-04-19T11:08:30Z</time></trkpt><trkpt lat="42.984514138809494" lon="10.726615657623274"><ele>104.0</ele><time>2026-04-19T11:08:31Z</time></trkpt><trkpt lat="42.98456292937461" lon="10.726524579903707"><ele>104.0</ele><time>2026-04-19T11:08:32Z</time></trkpt><trkpt lat="42.9846844459801" lon="10.726453511012933"><ele>104.0</ele><time>2026-04-19T11:08:34Z</time></trkpt><trkpt lat="42.98479709554809" lon="10.726371904957382"><ele>104.0</ele><time>2026-04-19T11:08:36Z</time></trkpt><trkpt lat="42.98485181208798" lon="10.726264035922986"><ele>104.0</ele><time>2026-04-19T11:08:37Z</time></trkpt><trkpt lat="42.98489256281932" lon="10.726164965889463"><ele>104.0</ele><time>2026-04-19T11:08:38Z</time></trkpt><trkpt lat="42.98491743358176" lon="10.726062342426228"><ele>103.49999999999999</ele><time>2026-04-19T11:08:39Z</time></trkpt><trkpt lat="42.98494101457461" lon="10.725963821791309"><ele>103.0</ele><time>2026-04-19T11:08:40Z</time></trkpt><trkpt lat="42.98495498008281" lon="10.725874700998885"><ele>102.5</ele><time>2026-04-19T11:08:41Z</time></trkpt><trkpt lat="42.98493310030229" lon="10.7257794296196"><ele>102.0</ele><time>2026-04-19T11:08:42Z</time></trkpt><trkpt lat="42.98489698392071" lon="10.72567634039005"><ele>101.49999999999999</ele><time>2026-04-19T11:08:43Z</time></trkpt><trkpt lat="42.98490959214029" lon="10.725551542073678"><ele>101.0</ele><time>2026-04-19T11:08:45Z</time></trkpt><trkpt lat="42.98502328474493" lon="10.72566252850421"><ele>98.75</ele><time>2026-04-19T11:08:47Z</time></trkpt><trkpt lat="42.98513760233652" lon="10.725732986156135"><ele>96.5</ele><time>2026-04-19T11:08:48Z</time></trkpt><trkpt lat="42.985265689712584" lon="10.725801615113465"><ele>94.25</ele><time>2026-04-19T11:08:49Z</time></trkpt><trkpt lat="42.98539841088713" lon="10.72582583605699"><ele>92.0</ele><time>2026-04-19T11:08:50Z</time></trkpt><trkpt lat="42.985522320321216" lon="10.725837632487174"><ele>92.0</ele><time>2026-04-19T11:08:51Z</time></trkpt><trkpt lat="42.98562168305375" lon="10.72585291485669"><ele>92.0</ele><time>2026-04-19T11:08:52Z</time></trkpt><trkpt lat="42.985703401421894" lon="10.72580620325888"><ele>92.0</ele><time>2026-04-19T11:08:53Z</time></trkpt><trkpt lat="42.98579458464973" lon="10.725720099259162"><ele>92.0</ele><time>2026-04-19T11:08:54Z</time></trkpt><trkpt lat="42.98588183836389" lon="10.725617177373465"><ele>92.0</ele><time>2026-04-19T11:08:55Z</time></trkpt><trkpt lat="42.98595147046321" lon="10.725521812371861"><ele>91.6</ele><time>2026-04-19T11:08:56Z</time></trkpt><trkpt lat="42.986010038387754" lon="10.725414887604558"><ele>91.19999999999999</ele><time>2026-04-19T11:08:57Z</time></trkpt><trkpt lat="42.98607470174337" lon="10.725313162493595"><ele>90.8</ele><time>2026-04-19T11:08:58Z</time></trkpt><trkpt lat="42.986137387042945" lon="10.725222215563187"><ele>90.4</ele><time>2026-04-19T11:08:59Z</time></trkpt><trkpt lat="42.98620688658444" lon="10.725085767809885"><ele>90.0</ele><time>2026-04-19T11:09:01Z</time></trkpt><trkpt lat="42.98623912056793" lon="10.72500245076686"><ele>90.0</ele><time>2026-04-19T11:09:02Z</time></trkpt><trkpt lat="42.986247163568144" lon="10.72488966378158"><ele>90.0</ele><time>2026-04-19T11:09:03Z</time></trkpt><trkpt lat="42.98622241143386" lon="10.724778546364734"><ele>90.0</ele><time>2026-04-19T11:09:04Z</time></trkpt><trkpt lat="42.98619954042384" lon="10.724678563298792"><ele>90.0</ele><time>2026-04-19T11:09:05Z</time></trkpt><trkpt lat="42.98623065613986" lon="10.724601683467501"><ele>90.0</ele><time>2026-04-19T11:09:06Z</time></trkpt><trkpt lat="42.9863494693305" lon="10.724600189354039"><ele>90.0</ele><time>2026-04-19T11:09:08Z</time></trkpt><trkpt lat="42.98645246826676" lon="10.72464859252192"><ele>90.0</ele><time>2026-04-19T11:09:09Z</time></trkpt><trkpt lat="42.98654587021998" lon="10.724701081133917"><ele>90.0</ele><time>2026-04-19T11:09:10Z</time></trkpt><trkpt lat="42.98666165521789" lon="10.724755323197442"><ele>90.0</ele><time>2026-04-19T11:09:11Z</time></trkpt><trkpt lat="42.986737384961074" lon="10.724816809795634"><ele>90.0</ele><time>2026-04-19T11:09:12Z</time></trkpt><trkpt lat="42.98680403719614" lon="10.724907398084547"><ele>90.0</ele><time>2026-04-19T11:09:13Z</time></trkpt><trkpt lat="42.986858121447675" lon="10.724957812462835"><ele>88.66666666666667</ele><time>2026-04-19T11:09:14Z</time></trkpt><trkpt lat="42.98692940566298" lon="10.724938942177806"><ele>87.33333333333333</ele><time>2026-04-19T11:09:15Z</time></trkpt><trkpt lat="42.98700272290256" lon="10.724868918331792"><ele>86.0</ele><time>2026-04-19T11:09:16Z</time></trkpt><trkpt lat="42.987074602118696" lon="10.724795815757526"><ele>84.66666666666666</ele><time>2026-04-19T11:09:17Z</time></trkpt><trkpt lat="42.98714646735517" lon="10.724732981704758"><ele>83.33333333333333</ele><time>2026-04-19T11:09:18Z</time></trkpt><trkpt lat="42.987229954712426" lon="10.724669332115926"><ele>82.0</ele><time>2026-04-19T11:09:19Z</time></trkpt><trkpt lat="42.98731032606464" lon="10.724598877640462"><ele>82.0</ele><time>2026-04-19T11:09:20Z</time></trkpt><trkpt lat="42.98736750663955" lon="10.724549290795443"><ele>82.0</ele><time>2026-04-19T11:09:21Z</time></trkpt><trkpt lat="42.98744241458914" lon="10.724543907531908"><ele>82.0</ele><time>2026-04-19T11:09:22Z</time></trkpt><trkpt lat="42.98751912620254" lon="10.724535863013859"><ele>82.0</ele><time>2026-04-19T11:09:23Z</time></trkpt><trkpt lat="42.98759863309035" lon="10.724478961563255"><ele>82.0</ele><time>2026-04-19T11:09:24Z</time></trkpt><trkpt lat="42.98767355913285" lon="10.724426293030481"><ele>82.0</ele><time>2026-04-19T11:09:25Z</time></trkpt><trkpt lat="42.987747242603206" lon="10.724373631662388"><ele>80.83333333333333</ele><time>2026-04-19T11:09:26Z</time></trkpt><trkpt lat="42.987829693414206" lon="10.724323216887786"><ele>79.66666666666666</ele><time>2026-04-19T11:09:27Z</time></trkpt><trkpt lat="42.98790027183044" lon="10.72427059125052"><ele>78.5</ele><time>2026-04-19T11:09:29Z</time></trkpt><trkpt lat="42.98799491772344" lon="10.724220298881747"><ele>77.33333333333333</ele><time>2026-04-19T11:09:31Z</time></trkpt><trkpt lat="42.98806875254611" lon="10.724203363807623"><ele>76.16666666666667</ele><time>2026-04-19T11:09:32Z</time></trkpt><trkpt lat="42.988155820720955" lon="10.72414449213033"><ele>75.0</ele><time>2026-04-19T11:09:33Z</time></trkpt><trkpt lat="42.988218218750724" lon="10.724094821585632"><ele>75.0</ele><time>2026-04-19T11:09:34Z</time></trkpt><trkpt lat="42.988288182719124" lon="10.724042441561496"><ele>75.0</ele><time>2026-04-19T11:09:35Z</time></trkpt><trkpt lat="42.988355346652675" lon="10.723993763352324"><ele>75.0</ele><time>2026-04-19T11:09:36Z</time></trkpt><trkpt lat="42.98841666978825" lon="10.723933401759899"><ele>75.0</ele><time>2026-04-19T11:09:37Z</time></trkpt><trkpt lat="42.9885077998895" lon="10.723866336524242"><ele>75.0</ele><time>2026-04-19T11:09:39Z</time></trkpt><trkpt lat="42.98857324497348" lon="10.723832067165604"><ele>75.0</ele><time>2026-04-19T11:09:40Z</time></trkpt><trkpt lat="42.98865327411944" lon="10.723784370563342"><ele>74.0</ele><time>2026-04-19T11:09:44Z</time></trkpt><trkpt lat="42.98871413098245" lon="10.723739102372335"><ele>73.0</ele><time>2026-04-19T11:09:47Z</time></trkpt><trkpt lat="42.98887604951209" lon="10.723619413559081"><ele>72.0</ele><time>2026-04-19T11:09:49Z</time></trkpt><trkpt lat="42.98900688977559" lon="10.723570393912887"><ele>71.0</ele><time>2026-04-19T11:09:50Z</time></trkpt><trkpt lat="42.98909208125145" lon="10.72348999779689"><ele>71.6</ele><time>2026-04-19T11:09:51Z</time></trkpt><trkpt lat="42.98918838523008" lon="10.723420114641822"><ele>72.19999999999999</ele><time>2026-04-19T11:09:52Z</time></trkpt><trkpt lat="42.98927844545373" lon="10.723337770487841"><ele>72.80000000000001</ele><time>2026-04-19T11:09:53Z</time></trkpt><trkpt lat="42.98936498516287" lon="10.723242664703761"><ele>73.4</ele><time>2026-04-19T11:09:54Z</time></trkpt><trkpt lat="42.98945072329253" lon="10.723165578778657"><ele>74.0</ele><time>2026-04-19T11:09:55Z</time></trkpt><trkpt lat="42.98953051745614" lon="10.723099611389845"><ele>74.0</ele><time>2026-04-19T11:09:56Z</time></trkpt><trkpt lat="42.98961474781655" lon="10.723039552030507"><ele>74.0</ele><time>2026-04-19T11:09:57Z</time></trkpt><trkpt lat="42.989690720155814" lon="10.722984948101256"><ele>74.0</ele><time>2026-04-19T11:09:58Z</time></trkpt><trkpt lat="42.98976285868138" lon="10.722929235039572"><ele>74.0</ele><time>2026-04-19T11:09:59Z</time></trkpt><trkpt lat="42.989845298592" lon="10.722879719240431"><ele>74.0</ele><time>2026-04-19T11:10:00Z</time></trkpt><trkpt lat="42.98994375368274" lon="10.722835407384238"><ele>73.33333333333334</ele><time>2026-04-19T11:10:01Z</time></trkpt><trkpt lat="42.990032886244656" lon="10.72279175590196"><ele>72.66666666666667</ele><time>2026-04-19T11:10:02Z</time></trkpt><trkpt lat="42.99010442262318" lon="10.722744432354796"><ele>72.0</ele><time>2026-04-19T11:10:03Z</time></trkpt><trkpt lat="42.990162797844164" lon="10.722692493162386"><ele>71.33333333333333</ele><time>2026-04-19T11:10:04Z</time></trkpt><trkpt lat="42.99024286521082" lon="10.722617464355489"><ele>70.66666666666666</ele><time>2026-04-19T11:10:07Z</time></trkpt><trkpt lat="42.99030966937499" lon="10.722598485330167"><ele>70.0</ele><time>2026-04-19T11:10:10Z</time></trkpt><trkpt lat="42.99036674625535" lon="10.722544409011437"><ele>70.0</ele><time>2026-04-19T11:10:13Z</time></trkpt><trkpt lat="42.990478100257675" lon="10.722484033712723"><ele>70.0</ele><time>2026-04-19T11:10:14Z</time></trkpt><trkpt lat="42.99056501258142" lon="10.722440570486496"><ele>70.0</ele><time>2026-04-19T11:10:15Z</time></trkpt><trkpt lat="42.99064441399873" lon="10.722393125532198"><ele>70.0</ele><time>2026-04-19T11:10:16Z</time></trkpt><trkpt lat="42.99071903348408" lon="10.722339936810444"><ele>70.0</ele><time>2026-04-19T11:10:17Z</time></trkpt><trkpt lat="42.99079059945803" lon="10.722270117992432"><ele>72.0</ele><time>2026-04-19T11:10:18Z</time></trkpt><trkpt lat="42.99086588648934" lon="10.722221820509533"><ele>74.0</ele><time>2026-04-19T11:10:19Z</time></trkpt><trkpt lat="42.990935158101195" lon="10.72218831926431"><ele>76.0</ele><time>2026-04-19T11:10:20Z</time></trkpt><trkpt lat="42.99101784930659" lon="10.722116426645998"><ele>78.0</ele><time>2026-04-19T11:10:21Z</time></trkpt><trkpt lat="42.99110552654548" lon="10.722056541981228"><ele>80.0</ele><time>2026-04-19T11:10:22Z</time></trkpt><trkpt lat="42.99119215359265" lon="10.721998777369857"><ele>82.0</ele><time>2026-04-19T11:10:23Z</time></trkpt><trkpt lat="42.991275383877976" lon="10.721944641657396"><ele>83.0</ele><time>2026-04-19T11:10:24Z</time></trkpt><trkpt lat="42.99134918294918" lon="10.721893055135647"><ele>84.0</ele><time>2026-04-19T11:10:25Z</time></trkpt><trkpt lat="42.99142448023919" lon="10.721828720791114"><ele>85.0</ele><time>2026-04-19T11:10:26Z</time></trkpt><trkpt lat="42.99150244156789" lon="10.721761638162995"><ele>86.0</ele><time>2026-04-19T11:10:27Z</time></trkpt><trkpt lat="42.99156019384596" lon="10.721683408000251"><ele>87.0</ele><time>2026-04-19T11:10:29Z</time></trkpt><trkpt lat="42.991616149236684" lon="10.721606708753685"><ele>88.0</ele><time>2026-04-19T11:10:31Z</time></trkpt><trkpt lat="42.99168789016274" lon="10.72160481762075"><ele>88.5</ele><time>2026-04-19T11:10:32Z</time></trkpt><trkpt lat="42.99175536347129" lon="10.7216023936034"><ele>89.0</ele><time>2026-04-19T11:10:33Z</time></trkpt><trkpt lat="42.99184638970258" lon="10.72154296936274"><ele>89.5</ele><time>2026-04-19T11:10:34Z</time></trkpt><trkpt lat="42.99192690095273" lon="10.721459398052733"><ele>90.0</ele><time>2026-04-19T11:10:35Z</time></trkpt><trkpt lat="42.99199784999494" lon="10.721416065074239"><ele>90.5</ele><time>2026-04-19T11:10:36Z</time></trkpt><trkpt lat="42.99208307338551" lon="10.721408511702775"><ele>91.0</ele><time>2026-04-19T11:10:37Z</time></trkpt><trkpt lat="42.99218584988819" lon="10.721376883937515"><ele>91.0</ele><time>2026-04-19T11:10:38Z</time></trkpt><trkpt lat="42.9922597840928" lon="10.721319303940355"><ele>91.0</ele><time>2026-04-19T11:10:39Z</time></trkpt><trkpt lat="42.992314992082605" lon="10.721240889070698"><ele>91.0</ele><time>2026-04-19T11:10:40Z</time></trkpt><trkpt lat="42.992408966806146" lon="10.721195018702758"><ele>91.0</ele><time>2026-04-19T11:10:41Z</time></trkpt><trkpt lat="42.99249966059707" lon="10.721129733805968"><ele>91.0</ele><time>2026-04-19T11:10:42Z</time></trkpt><trkpt lat="42.992598179640744" lon="10.721060322768977"><ele>93.4</ele><time>2026-04-19T11:10:43Z</time></trkpt><trkpt lat="42.992692722240605" lon="10.720976123880757"><ele>95.8</ele><time>2026-04-19T11:10:44Z</time></trkpt><trkpt lat="42.99276743502174" lon="10.720900342367848"><ele>98.2</ele><time>2026-04-19T11:10:45Z</time></trkpt><trkpt lat="42.99287539672731" lon="10.72083329505646"><ele>100.60000000000001</ele><time>2026-04-19T11:10:46Z</time></trkpt><trkpt lat="42.992946264808545" lon="10.720794389569052"><ele>103.0</ele><time>2026-04-19T11:10:47Z</time></trkpt><trkpt lat="42.993032812290004" lon="10.720630319500252"><ele>103.00000000000001</ele><time>2026-04-19T11:10:49Z</time></trkpt><trkpt lat="42.99307284217884" lon="10.720530498353193"><ele>103.0</ele><time>2026-04-19T11:10:50Z</time></trkpt><trkpt lat="42.99312820444345" lon="10.720448843970233"><ele>103.0</ele><time>2026-04-19T11:10:51Z</time></trkpt><trkpt lat="42.99320547841955" lon="10.720362019264455"><ele>103.0</ele><time>2026-04-19T11:10:52Z</time></trkpt><trkpt lat="42.99326217807286" lon="10.720301579456459"><ele>103.00000000000001</ele><time>2026-04-19T11:10:53Z</time></trkpt><trkpt lat="42.99330771194416" lon="10.720203138364512"><ele>103.0</ele><time>2026-04-19T11:10:54Z</time></trkpt><trkpt lat="42.99337054163232" lon="10.720152887524067"><ele>106.00000000000001</ele><time>2026-04-19T11:10:55Z</time></trkpt><trkpt lat="42.99344654811546" lon="10.7201256398008"><ele>109.0</ele><time>2026-04-19T11:10:56Z</time></trkpt><trkpt lat="42.99351689718449" lon="10.720063967848478"><ele>112.0</ele><time>2026-04-19T11:10:57Z</time></trkpt><trkpt lat="42.993588063868486" lon="10.720015482243515"><ele>115.0</ele><time>2026-04-19T11:11:00Z</time></trkpt><trkpt lat="42.993688921055025" lon="10.719963965296676"><ele>118.00000000000001</ele><time>2026-04-19T11:11:02Z</time></trkpt><trkpt lat="42.99374911216866" lon="10.719934589461662"><ele>121.0</ele><time>2026-04-19T11:11:03Z</time></trkpt><trkpt lat="42.993819484209816" lon="10.719919137854445"><ele>121.0</ele><time>2026-04-19T11:11:05Z</time></trkpt><trkpt lat="42.99391393047148" lon="10.719969628902145"><ele>121.0</ele><time>2026-04-19T11:11:09Z</time></trkpt><trkpt lat="42.99402252260153" lon="10.719998229533005"><ele>121.0</ele><time>2026-04-19T11:11:11Z</time></trkpt><trkpt lat="42.99409768597792" lon="10.719942447720278"><ele>121.0</ele><time>2026-04-19T11:11:13Z</time></trkpt><trkpt lat="42.994190615924644" lon="10.719890429766858"><ele>121.0</ele><time>2026-04-19T11:11:15Z</time></trkpt><trkpt lat="42.99425587994119" lon="10.719818998523285"><ele>123.71428571428571</ele><time>2026-04-19T11:11:18Z</time></trkpt><trkpt lat="42.99431880750032" lon="10.719785473718227"><ele>126.42857142857142</ele><time>2026-04-19T11:11:20Z</time></trkpt><trkpt lat="42.99440863064503" lon="10.719742737421438"><ele>129.14285714285714</ele><time>2026-04-19T11:11:23Z</time></trkpt><trkpt lat="42.994486529584705" lon="10.719708267395532"><ele>131.85714285714286</ele><time>2026-04-19T11:11:26Z</time></trkpt><trkpt lat="42.994548886869005" lon="10.71966104992557"><ele>134.57142857142856</ele><time>2026-04-19T11:11:27Z</time></trkpt><trkpt lat="42.9946008509275" lon="10.719604644350666"><ele>137.28571428571428</ele><time>2026-04-19T11:11:28Z</time></trkpt><trkpt lat="42.994661662834424" lon="10.719567766964117"><ele>140.0</ele><time>2026-04-19T11:11:29Z</time></trkpt><trkpt lat="42.99471744706349" lon="10.719518976396797"><ele>140.0</ele><time>2026-04-19T11:11:31Z</time></trkpt><trkpt lat="42.99477260652265" lon="10.719475258819955"><ele>140.0</ele><time>2026-04-19T11:11:38Z</time></trkpt><trkpt lat="42.99484457566056" lon="10.71946202277251"><ele>140.0</ele><time>2026-04-19T11:11:46Z</time></trkpt><trkpt lat="42.99490700858272" lon="10.719436716040974"><ele>140.0</ele><time>2026-04-19T11:11:47Z</time></trkpt><trkpt lat="42.99497438297932" lon="10.719398540446328"><ele>140.0</ele><time>2026-04-19T11:11:48Z</time></trkpt><trkpt lat="42.995027225704135" lon="10.719328277384816"><ele>140.0</ele><time>2026-04-19T11:11:49Z</time></trkpt><trkpt lat="42.99506782316393" lon="10.719233253219416"><ele>140.0</ele><time>2026-04-19T11:11:50Z</time></trkpt><trkpt lat="42.995121292461256" lon="10.719159582524822"><ele>144.4</ele><time>2026-04-19T11:11:51Z</time></trkpt><trkpt lat="42.99516606015033" lon="10.719089840325507"><ele>148.8</ele><time>2026-04-19T11:11:52Z</time></trkpt><trkpt lat="42.99524454139378" lon="10.719078372125331"><ele>153.2</ele><time>2026-04-19T11:11:53Z</time></trkpt><trkpt lat="42.99536901347456" lon="10.71904073340752"><ele>157.6</ele><time>2026-04-19T11:11:54Z</time></trkpt><trkpt lat="42.995473616639586" lon="10.718993017627174"><ele>162.0</ele><time>2026-04-19T11:11:55Z</time></trkpt><trkpt lat="42.99553559765486" lon="10.71894296047862"><ele>162.0</ele><time>2026-04-19T11:11:56Z</time></trkpt><trkpt lat="42.99559948439543" lon="10.718930013220467"><ele>162.0</ele><time>2026-04-19T11:11:57Z</time></trkpt><trkpt lat="42.995667179271216" lon="10.718909245569554"><ele>162.0</ele><time>2026-04-19T11:11:58Z</time></trkpt><trkpt lat="42.99575537874988" lon="10.71884744264776"><ele>162.0</ele><time>2026-04-19T11:11:59Z</time></trkpt><trkpt lat="42.995853269173104" lon="10.718759738369885"><ele>162.0</ele><time>2026-04-19T11:12:00Z</time></trkpt><trkpt lat="42.99595757952122" lon="10.718685063465395"><ele>163.5</ele><time>2026-04-19T11:12:01Z</time></trkpt><trkpt lat="42.996082639698066" lon="10.71861111489815"><ele>165.0</ele><time>2026-04-19T11:12:02Z</time></trkpt><trkpt lat="42.99618605940893" lon="10.718539372905123"><ele>166.5</ele><time>2026-04-19T11:12:03Z</time></trkpt><trkpt lat="42.9962831132534" lon="10.718471640055892"><ele>168.0</ele><time>2026-04-19T11:12:04Z</time></trkpt><trkpt lat="42.99637515351582" lon="10.718362134592038"><ele>168.0</ele><time>2026-04-19T11:12:05Z</time></trkpt><trkpt lat="42.99645839963182" lon="10.718306047985951"><ele>168.0</ele><time>2026-04-19T11:12:06Z</time></trkpt><trkpt lat="42.996530950013806" lon="10.718279264262769"><ele>168.0</ele><time>2026-04-19T11:12:07Z</time></trkpt><trkpt lat="42.99662169866359" lon="10.718238639017786"><ele>168.0</ele><time>2026-04-19T11:12:08Z</time></trkpt><trkpt lat="42.996683341780894" lon="10.718167968544117"><ele>168.0</ele><time>2026-04-19T11:12:09Z</time></trkpt><trkpt lat="42.99678173594882" lon="10.718103641499908"><ele>170.60000000000002</ele><time>2026-04-19T11:12:10Z</time></trkpt><trkpt lat="42.99686103473466" lon="10.71803637190169"><ele>173.20000000000002</ele><time>2026-04-19T11:12:11Z</time></trkpt><trkpt lat="42.996961364442825" lon="10.71793842606318"><ele>175.8</ele><time>2026-04-19T11:12:13Z</time></trkpt><trkpt lat="42.99707046085921" lon="10.717867434793273"><ele>178.4</ele><time>2026-04-19T11:12:15Z</time></trkpt><trkpt lat="42.99713613030252" lon="10.717809483426151"><ele>181.0</ele><time>2026-04-19T11:12:16Z</time></trkpt><trkpt lat="42.9971980493222" lon="10.717765759985932"><ele>180.5</ele><time>2026-04-19T11:12:17Z</time></trkpt><trkpt lat="42.9972575013099" lon="10.71770083724289"><ele>180.0</ele><time>2026-04-19T11:12:18Z</time></trkpt><trkpt lat="42.99734364359996" lon="10.717639130956155"><ele>179.5</ele><time>2026-04-19T11:12:20Z</time></trkpt><trkpt lat="42.99754326529901" lon="10.717604703276972"><ele>179.0</ele><time>2026-04-19T11:12:22Z</time></trkpt><trkpt lat="42.99769024082511" lon="10.717540689133667"><ele>178.5</ele><time>2026-04-19T11:12:23Z</time></trkpt><trkpt lat="42.99775969428943" lon="10.71752067647767"><ele>178.0</ele><time>2026-04-19T11:12:24Z</time></trkpt><trkpt lat="42.997832164114264" lon="10.717476395940473"><ele>177.5</ele><time>2026-04-19T11:12:25Z</time></trkpt><trkpt lat="42.997927755313064" lon="10.717417241821344"><ele>177.0</ele><time>2026-04-19T11:12:26Z</time></trkpt><trkpt lat="42.998012432242746" lon="10.717360077294266"><ele>176.5</ele><time>2026-04-19T11:12:27Z</time></trkpt><trkpt lat="42.99808875974999" lon="10.717294114238566"><ele>176.0</ele><time>2026-04-19T11:12:28Z</time></trkpt><trkpt lat="42.99816117937092" lon="10.717230881443905"><ele>176.0</ele><time>2026-04-19T11:12:29Z</time></trkpt><trkpt lat="42.99824035856956" lon="10.717152430495094"><ele>176.0</ele><time>2026-04-19T11:12:30Z</time></trkpt><trkpt lat="42.998318501069555" lon="10.717089108478051"><ele>176.0</ele><time>2026-04-19T11:12:31Z</time></trkpt><trkpt lat="42.9983796202383" lon="10.71704354160951"><ele>176.0</ele><time>2026-04-19T11:12:32Z</time></trkpt><trkpt lat="42.99843587347986" lon="10.717004444578741"><ele>176.0</ele><time>2026-04-19T11:12:33Z</time></trkpt><trkpt lat="42.99850993380416" lon="10.716956626851822"><ele>176.0</ele><time>2026-04-19T11:12:34Z</time></trkpt><trkpt lat="42.99861745830842" lon="10.716867823134836"><ele>176.5</ele><time>2026-04-19T11:12:35Z</time></trkpt><trkpt lat="42.99871015774369" lon="10.716770317848901"><ele>177.0</ele><time>2026-04-19T11:12:36Z</time></trkpt><trkpt lat="42.998788787469785" lon="10.716720166759108"><ele>177.5</ele><time>2026-04-19T11:12:37Z</time></trkpt><trkpt lat="42.99885981265524" lon="10.716714037552762"><ele>178.0</ele><time>2026-04-19T11:12:40Z</time></trkpt><trkpt lat="42.99892858642416" lon="10.716681396644544"><ele>178.5</ele><time>2026-04-19T11:12:41Z</time></trkpt><trkpt lat="42.99900306300203" lon="10.716636870889527"><ele>179.0</ele><time>2026-04-19T11:12:42Z</time></trkpt><trkpt lat="42.99912847902255" lon="10.716541354127436"><ele>178.6</ele><time>2026-04-19T11:12:43Z</time></trkpt><trkpt lat="42.99921725292077" lon="10.71649652104744"><ele>178.2</ele><time>2026-04-19T11:12:44Z</time></trkpt><trkpt lat="42.999283971137224" lon="10.716437779861629"><ele>177.79999999999998</ele><time>2026-04-19T11:12:45Z</time></trkpt><trkpt lat="42.99938488504019" lon="10.716353759431335"><ele>177.39999999999998</ele><time>2026-04-19T11:12:46Z</time></trkpt><trkpt lat="42.99947458962166" lon="10.716294514504243"><ele>177.0</ele><time>2026-04-19T11:12:47Z</time></trkpt><trkpt lat="42.999536064416134" lon="10.716248551438978"><ele>177.0</ele><time>2026-04-19T11:12:48Z</time></trkpt><trkpt lat="42.99962859482217" lon="10.716184673602426"><ele>177.0</ele><time>2026-04-19T11:12:49Z</time></trkpt><trkpt lat="42.99974161960655" lon="10.716112810246562"><ele>177.0</ele><time>2026-04-19T11:12:50Z</time></trkpt><trkpt lat="42.999858026439945" lon="10.716045713810152"><ele>177.0</ele><time>2026-04-19T11:12:51Z</time></trkpt><trkpt lat="42.99994403923741" lon="10.715970204131063"><ele>178.0</ele><time>2026-04-19T11:12:53Z</time></trkpt><trkpt lat="43.000007798931044" lon="10.715909409339822"><ele>179.0</ele><time>2026-04-19T11:12:54Z</time></trkpt><trkpt lat="43.00008852395964" lon="10.715862760537949"><ele>180.0</ele><time>2026-04-19T11:12:55Z</time></trkpt><trkpt lat="43.00016643253602" lon="10.715832806831571"><ele>181.0</ele><time>2026-04-19T11:12:56Z</time></trkpt><trkpt lat="43.000230423382405" lon="10.715813180213097"><ele>182.0</ele><time>2026-04-19T11:12:57Z</time></trkpt><trkpt lat="43.00032088325863" lon="10.715802424715905"><ele>183.0</ele><time>2026-04-19T11:12:58Z</time></trkpt><trkpt lat="43.00039929695683" lon="10.715803104571185"><ele>183.0</ele><time>2026-04-19T11:12:59Z</time></trkpt><trkpt lat="43.000470629780516" lon="10.715812862568459"><ele>183.0</ele><time>2026-04-19T11:13:00Z</time></trkpt><trkpt lat="43.00054537055052" lon="10.715806953991466"><ele>183.0</ele><time>2026-04-19T11:13:01Z</time></trkpt><trkpt lat="43.000611661099796" lon="10.715800527769034"><ele>183.0</ele><time>2026-04-19T11:13:02Z</time></trkpt><trkpt lat="43.0007106098659" lon="10.715811571077316"><ele>183.0</ele><time>2026-04-19T11:13:04Z</time></trkpt><trkpt lat="43.0007841131669" lon="10.715794520640475"><ele>183.0</ele><time>2026-04-19T11:13:06Z</time></trkpt><trkpt lat="43.000872500633726" lon="10.715729857951764"><ele>181.83333333333334</ele><time>2026-04-19T11:13:08Z</time></trkpt><trkpt lat="43.00093018809002" lon="10.715679373246527"><ele>180.66666666666666</ele><time>2026-04-19T11:13:09Z</time></trkpt><trkpt lat="43.00100257674466" lon="10.71560547909384"><ele>179.5</ele><time>2026-04-19T11:13:11Z</time></trkpt><trkpt lat="43.00112458393286" lon="10.715621728975746"><ele>178.33333333333331</ele><time>2026-04-19T11:13:13Z</time></trkpt><trkpt lat="43.00119392145492" lon="10.715654403835623"><ele>177.16666666666666</ele><time>2026-04-19T11:13:14Z</time></trkpt><trkpt lat="43.00127086546193" lon="10.715653352080775"><ele>176.0</ele><time>2026-04-19T11:13:15Z</time></trkpt><trkpt lat="43.00135403213251" lon="10.715672521070802"><ele>176.0</ele><time>2026-04-19T11:13:16Z</time></trkpt><trkpt lat="43.001450402466034" lon="10.715693780754075"><ele>176.0</ele><time>2026-04-19T11:13:17Z</time></trkpt><trkpt lat="43.00151408209455" lon="10.715716686117993"><ele>176.0</ele><time>2026-04-19T11:13:18Z</time></trkpt><trkpt lat="43.001563245457255" lon="10.715850866896771"><ele>176.0</ele><time>2026-04-19T11:13:20Z</time></trkpt><trkpt lat="43.00162912489978" lon="10.715839711705183"><ele>176.0</ele><time>2026-04-19T11:13:22Z</time></trkpt><trkpt lat="43.00170929814109" lon="10.715869989394847"><ele>176.0</ele><time>2026-04-19T11:13:24Z</time></trkpt><trkpt lat="43.001774783379595" lon="10.715941818822639"><ele>173.20000000000002</ele><time>2026-04-19T11:13:26Z</time></trkpt><trkpt lat="43.001849095526104" lon="10.71594502686165"><ele>170.4</ele><time>2026-04-19T11:13:28Z</time></trkpt><trkpt lat="43.00193788349192" lon="10.715930662067219"><ele>167.6</ele><time>2026-04-19T11:13:31Z</time></trkpt><trkpt lat="43.002046608868" lon="10.715911648091625"><ele>164.8</ele><time>2026-04-19T11:13:33Z</time></trkpt><trkpt lat="43.00217460227738" lon="10.715905884150166"><ele>162.0</ele><time>2026-04-19T11:13:36Z</time></trkpt><trkpt lat="43.002243214279154" lon="10.715892503978203"><ele>162.0</ele><time>2026-04-19T11:13:38Z</time></trkpt><trkpt lat="43.00232384006674" lon="10.715864869432894"><ele>162.0</ele><time>2026-04-19T11:13:40Z</time></trkpt><trkpt lat="43.002428662579575" lon="10.71585310071369"><ele>162.0</ele><time>2026-04-19T11:13:42Z</time></trkpt><trkpt lat="43.00253119278425" lon="10.71584558911791"><ele>162.0</ele><time>2026-04-19T11:13:44Z</time></trkpt><trkpt lat="43.002622093691286" lon="10.715821975279361"><ele>162.0</ele><time>2026-04-19T11:13:46Z</time></trkpt><trkpt lat="43.00269872303643" lon="10.715815043601017"><ele>158.83333333333334</ele><time>2026-04-19T11:13:47Z</time></trkpt><trkpt lat="43.002755376924554" lon="10.715776037736735"><ele>155.66666666666666</ele><time>2026-04-19T11:13:48Z</time></trkpt><trkpt lat="43.00281479638422" lon="10.715739253828039"><ele>152.5</ele><time>2026-04-19T11:13:49Z</time></trkpt><trkpt lat="43.00292407357012" lon="10.715697854664548"><ele>149.33333333333331</ele><time>2026-04-19T11:13:51Z</time></trkpt><trkpt lat="43.00303082745688" lon="10.715647008835878"><ele>146.16666666666666</ele><time>2026-04-19T11:13:53Z</time></trkpt><trkpt lat="43.00309859362688" lon="10.71563552742838"><ele>143.0</ele><time>2026-04-19T11:13:54Z</time></trkpt><trkpt lat="43.00318616051514" lon="10.715551068595811"><ele>143.0</ele><time>2026-04-19T11:13:56Z</time></trkpt><trkpt lat="43.003252581725725" lon="10.715472133778357"><ele>143.0</ele><time>2026-04-19T11:13:57Z</time></trkpt><trkpt lat="43.00332920463986" lon="10.715429038911257"><ele>143.0</ele><time>2026-04-19T11:13:58Z</time></trkpt><trkpt lat="43.00341247349656" lon="10.715389110637624"><ele>143.0</ele><time>2026-04-19T11:13:59Z</time></trkpt><trkpt lat="43.00348399998471" lon="10.715330030582543"><ele>143.0</ele><time>2026-04-19T11:14:00Z</time></trkpt><trkpt lat="43.00354699887363" lon="10.7152976015951"><ele>143.0</ele><time>2026-04-19T11:14:01Z</time></trkpt><trkpt lat="43.003614997698236" lon="10.715274105309577"><ele>140.5</ele><time>2026-04-19T11:14:02Z</time></trkpt><trkpt lat="43.00369062780418" lon="10.715238986348451"><ele>138.0</ele><time>2026-04-19T11:14:03Z</time></trkpt><trkpt lat="43.003771381278234" lon="10.715228811294773"><ele>135.5</ele><time>2026-04-19T11:14:04Z</time></trkpt><trkpt lat="43.003861425718355" lon="10.715230554663016"><ele>133.0</ele><time>2026-04-19T11:14:05Z</time></trkpt><trkpt lat="43.00393628596807" lon="10.715227356447272"><ele>130.5</ele><time>2026-04-19T11:14:06Z</time></trkpt><trkpt lat="43.00404924018854" lon="10.715209957838544"><ele>128.0</ele><time>2026-04-19T11:14:08Z</time></trkpt><trkpt lat="43.00417288094993" lon="10.715180035527194"><ele>127.0</ele><time>2026-04-19T11:14:10Z</time></trkpt><trkpt lat="43.00423956832957" lon="10.715163268569356"><ele>126.00000000000001</ele><time>2026-04-19T11:14:11Z</time></trkpt><trkpt lat="43.004355647398604" lon="10.715092997118946"><ele>125.00000000000001</ele><time>2026-04-19T11:14:13Z</time></trkpt><trkpt lat="43.004411671990155" lon="10.715046723182386"><ele>124.0</ele><time>2026-04-19T11:14:14Z</time></trkpt><trkpt lat="43.00453135473037" lon="10.714998341581584"><ele>123.0</ele><time>2026-04-19T11:14:16Z</time></trkpt><trkpt lat="43.00459431666487" lon="10.714965429834734"><ele>123.0</ele><time>2026-04-19T11:14:17Z</time></trkpt><trkpt lat="43.00469977054041" lon="10.714825776974148"><ele>123.0</ele><time>2026-04-19T11:14:19Z</time></trkpt><trkpt lat="43.00475435336638" lon="10.714747922924483"><ele>123.0</ele><time>2026-04-19T11:14:20Z</time></trkpt><trkpt lat="43.00484821065642" lon="10.714676199831606"><ele>123.0</ele><time>2026-04-19T11:14:22Z</time></trkpt><trkpt lat="43.00498881196494" lon="10.7146242488026"><ele>120.0</ele><time>2026-04-19T11:14:24Z</time></trkpt><trkpt lat="43.00508889979543" lon="10.714525660325279"><ele>117.00000000000001</ele><time>2026-04-19T11:14:26Z</time></trkpt><trkpt lat="43.005169727267216" lon="10.714408914268471"><ele>114.00000000000001</ele><time>2026-04-19T11:14:27Z</time></trkpt><trkpt lat="43.00524913012394" lon="10.714339366725861"><ele>111.0</ele><time>2026-04-19T11:14:28Z</time></trkpt><trkpt lat="43.005324842576016" lon="10.714307559363629"><ele>108.0</ele><time>2026-04-19T11:14:29Z</time></trkpt><trkpt lat="43.0054162001932" lon="10.714276953870167"><ele>107.66666666666667</ele><time>2026-04-19T11:14:30Z</time></trkpt><trkpt lat="43.00550157655668" lon="10.71421848476354"><ele>107.33333333333334</ele><time>2026-04-19T11:14:31Z</time></trkpt><trkpt lat="43.00556510755363" lon="10.714212755858455"><ele>107.0</ele><time>2026-04-19T11:14:32Z</time></trkpt><trkpt lat="43.005687906281594" lon="10.714179800752914"><ele>106.66666666666667</ele><time>2026-04-19T11:14:34Z</time></trkpt><trkpt lat="43.005746852569665" lon="10.714102913553031"><ele>106.33333333333334</ele><time>2026-04-19T11:14:35Z</time></trkpt><trkpt lat="43.00582270173175" lon="10.71408187617056"><ele>106.0</ele><time>2026-04-19T11:14:37Z</time></trkpt><trkpt lat="43.00591924442427" lon="10.714082585690383"><ele>105.4</ele><time>2026-04-19T11:14:38Z</time></trkpt><trkpt lat="43.00605278197341" lon="10.714075544164778"><ele>104.8</ele><time>2026-04-19T11:14:40Z</time></trkpt><trkpt lat="43.00614818450234" lon="10.714096040040186"><ele>104.2</ele><time>2026-04-19T11:14:42Z</time></trkpt><trkpt lat="43.00629081112176" lon="10.714096762522836"><ele>103.60000000000001</ele><time>2026-04-19T11:14:44Z</time></trkpt><trkpt lat="43.00636167167056" lon="10.714092954293504"><ele>103.0</ele><time>2026-04-19T11:14:45Z</time></trkpt><trkpt lat="43.006452792343445" lon="10.714023136831095"><ele>103.00000000000001</ele><time>2026-04-19T11:14:47Z</time></trkpt><trkpt lat="43.006495531258736" lon="10.713957401167654"><ele>103.0</ele><time>2026-04-19T11:14:48Z</time></trkpt><trkpt lat="43.00655527243843" lon="10.71388863879861"><ele>103.0</ele><time>2026-04-19T11:14:50Z</time></trkpt><trkpt lat="43.006630165129934" lon="10.713795553580946"><ele>103.0</ele><time>2026-04-19T11:14:52Z</time></trkpt><trkpt lat="43.00671157605443" lon="10.713708775344797"><ele>103.00000000000001</ele><time>2026-04-19T11:14:54Z</time></trkpt><trkpt lat="43.00678970955428" lon="10.713678996120695"><ele>103.0</ele><time>2026-04-19T11:14:56Z</time></trkpt><trkpt lat="43.006864749730234" lon="10.713632756267327"><ele>100.0</ele><time>2026-04-19T11:14:58Z</time></trkpt><trkpt lat="43.00693875425487" lon="10.713540285843449"><ele>97.0</ele><time>2026-04-19T11:14:59Z</time></trkpt><trkpt lat="43.00700225794178" lon="10.713444444408026"><ele>94.0</ele><time>2026-04-19T11:15:00Z</time></trkpt><trkpt lat="43.00708305971162" lon="10.713343539953321"><ele>91.0</ele><time>2026-04-19T11:15:02Z</time></trkpt><trkpt lat="43.00715499658302" lon="10.713253808901205"><ele>88.0</ele><time>2026-04-19T11:15:04Z</time></trkpt><trkpt lat="43.00721902730957" lon="10.713121266810882"><ele>88.0</ele><time>2026-04-19T11:15:06Z</time></trkpt><trkpt lat="43.00726121634213" lon="10.713052447134418"><ele>88.0</ele><time>2026-04-19T11:15:07Z</time></trkpt><trkpt lat="43.00731189629772" lon="10.712987064114623"><ele>88.0</ele><time>2026-04-19T11:15:08Z</time></trkpt><trkpt lat="43.00736485666393" lon="10.712937628637867"><ele>88.0</ele><time>2026-04-19T11:15:09Z</time></trkpt><trkpt lat="43.007470506120704" lon="10.712863089162761"><ele>88.0</ele><time>2026-04-19T11:15:11Z</time></trkpt><trkpt lat="43.007581492764245" lon="10.712887630813597"><ele>88.0</ele><time>2026-04-19T11:15:13Z</time></trkpt><trkpt lat="43.007634691451194" lon="10.71293861595665"><ele>85.5</ele><time>2026-04-19T11:15:14Z</time></trkpt><trkpt lat="43.00768350901889" lon="10.712999762362207"><ele>83.0</ele><time>2026-04-19T11:15:15Z</time></trkpt><trkpt lat="43.00777385048585" lon="10.713011403531667"><ele>80.5</ele><time>2026-04-19T11:15:17Z</time></trkpt><trkpt lat="43.00787716905963" lon="10.712942657449052"><ele>78.0</ele><time>2026-04-19T11:15:19Z</time></trkpt><trkpt lat="43.007943248821114" lon="10.71289861264516"><ele>75.5</ele><time>2026-04-19T11:15:21Z</time></trkpt><trkpt lat="43.00802967914816" lon="10.712821098862984"><ele>73.0</ele><time>2026-04-19T11:15:23Z</time></trkpt><trkpt lat="43.008100449964125" lon="10.712791554167778"><ele>72.2</ele><time>2026-04-19T11:15:24Z</time></trkpt><trkpt lat="43.00819713894547" lon="10.712700267863514"><ele>71.4</ele><time>2026-04-19T11:15:26Z</time></trkpt><trkpt lat="43.00827883560037" lon="10.712615903193539"><ele>70.60000000000001</ele><time>2026-04-19T11:15:28Z</time></trkpt><trkpt lat="43.00835481964625" lon="10.712537513422578"><ele>69.8</ele><time>2026-04-19T11:15:30Z</time></trkpt><trkpt lat="43.00843301271934" lon="10.712457792557704"><ele>69.0</ele><time>2026-04-19T11:15:32Z</time></trkpt><trkpt lat="43.008541033218094" lon="10.712348100756312"><ele>66.2</ele><time>2026-04-19T11:15:34Z</time></trkpt><trkpt lat="43.00862381945191" lon="10.712282490675245"><ele>63.400000000000006</ele><time>2026-04-19T11:15:35Z</time></trkpt><trkpt lat="43.00872359189494" lon="10.712213201565211"><ele>60.6</ele><time>2026-04-19T11:15:36Z</time></trkpt><trkpt lat="43.008812330781694" lon="10.712146938651387"><ele>57.8</ele><time>2026-04-19T11:15:37Z</time></trkpt><trkpt lat="43.008893034168736" lon="10.712074304070429"><ele>55.0</ele><time>2026-04-19T11:15:38Z</time></trkpt><trkpt lat="43.00894486807891" lon="10.712015093748951"><ele>54.8</ele><time>2026-04-19T11:15:39Z</time></trkpt><trkpt lat="43.008967604540125" lon="10.711885676557097"><ele>54.6</ele><time>2026-04-19T11:15:41Z</time></trkpt><trkpt lat="43.008959706672776" lon="10.71178549174167"><ele>54.400000000000006</ele><time>2026-04-19T11:15:42Z</time></trkpt><trkpt lat="43.008958324048685" lon="10.711661330593367"><ele>54.2</ele><time>2026-04-19T11:15:43Z</time></trkpt><trkpt lat="43.0089518766392" lon="10.711534734791053"><ele>54.0</ele><time>2026-04-19T11:15:44Z</time></trkpt><trkpt lat="43.00890277989839" lon="10.711379144049701"><ele>54.0</ele><time>2026-04-19T11:15:45Z</time></trkpt><trkpt lat="43.008912961477364" lon="10.711242785783613"><ele>54.00000000000001</ele><time>2026-04-19T11:15:46Z</time></trkpt><trkpt lat="43.008908366671854" lon="10.71113232728994"><ele>54.00000000000001</ele><time>2026-04-19T11:15:48Z</time></trkpt><trkpt lat="43.00899889156661" lon="10.710964090778926"><ele>54.0</ele><time>2026-04-19T11:15:50Z</time></trkpt><trkpt lat="43.009049152103074" lon="10.710882591625431"><ele>54.0</ele><time>2026-04-19T11:15:51Z</time></trkpt><trkpt lat="43.00901708643403" lon="10.710671236343325"><ele>53.25</ele><time>2026-04-19T11:15:53Z</time></trkpt><trkpt lat="43.009027092448854" lon="10.710503196099083"><ele>52.5</ele><time>2026-04-19T11:15:54Z</time></trkpt><trkpt lat="43.00902419607714" lon="10.710384729270384"><ele>51.75</ele><time>2026-04-19T11:15:55Z</time></trkpt><trkpt lat="43.0090297663975" lon="10.710227753543967"><ele>51.0</ele><time>2026-04-19T11:15:57Z</time></trkpt><trkpt lat="43.00902272339208" lon="10.710051782772558"><ele>50.5</ele><time>2026-04-19T11:15:59Z</time></trkpt><trkpt lat="43.00902608558856" lon="10.709901750964695"><ele>50.0</ele><time>2026-04-19T11:16:01Z</time></trkpt><trkpt lat="43.009055228628114" lon="10.709745701162838"><ele>49.5</ele><time>2026-04-19T11:16:03Z</time></trkpt><trkpt lat="43.00891478978335" lon="10.709788523641441"><ele>49.0</ele><time>2026-04-19T11:16:07Z</time></trkpt><trkpt lat="43.00884869895774" lon="10.709885600036323"><ele>48.99999999999999</ele><time>2026-04-19T11:16:08Z</time></trkpt><trkpt lat="43.00878752437247" lon="10.709913768186343"><ele>49.0</ele><time>2026-04-19T11:16:09Z</time></trkpt><trkpt lat="43.0086662547841" lon="10.709946430118485"><ele>49.0</ele><time>2026-04-19T11:16:10Z</time></trkpt><trkpt lat="43.00857396750496" lon="10.70999286435461"><ele>49.0</ele><time>2026-04-19T11:16:11Z</time></trkpt><trkpt lat="43.00851269475656" lon="10.7100424739703"><ele>48.99999999999999</ele><time>2026-04-19T11:16:12Z</time></trkpt><trkpt lat="43.00844986298238" lon="10.710089246275045"><ele>49.0</ele><time>2026-04-19T11:16:13Z</time></trkpt><trkpt lat="43.008349771384715" lon="10.710139274995685"><ele>49.666666666666664</ele><time>2026-04-19T11:16:14Z</time></trkpt><trkpt lat="43.00825422314132" lon="10.710218287808827"><ele>50.33333333333333</ele><time>2026-04-19T11:16:15Z</time></trkpt><trkpt lat="43.00817613150173" lon="10.710291301344867"><ele>51.0</ele><time>2026-04-19T11:16:16Z</time></trkpt><trkpt lat="43.00806894224939" lon="10.710339451841955"><ele>51.66666666666667</ele><time>2026-04-19T11:16:18Z</time></trkpt><trkpt lat="43.008009025736406" lon="10.710375116590509"><ele>52.333333333333336</ele><time>2026-04-19T11:16:19Z</time></trkpt><trkpt lat="43.007955210222995" lon="10.710423673598887"><ele>53.0</ele><time>2026-04-19T11:16:20Z</time></trkpt><trkpt lat="43.00788903925999" lon="10.71048592374321"><ele>53.333333333333336</ele><time>2026-04-19T11:16:21Z</time></trkpt><trkpt lat="43.007820269229796" lon="10.710519829792077"><ele>53.66666666666667</ele><time>2026-04-19T11:16:22Z</time></trkpt><trkpt lat="43.00774783643859" lon="10.710550134975747"><ele>54.0</ele><time>2026-04-19T11:16:23Z</time></trkpt><trkpt lat="43.00767705336765" lon="10.710579323314258"><ele>54.33333333333333</ele><time>2026-04-19T11:16:24Z</time></trkpt><trkpt lat="43.00761653964287" lon="10.710626149066746"><ele>54.666666666666664</ele><time>2026-04-19T11:16:25Z</time></trkpt><trkpt lat="43.007550905590016" lon="10.710694846387657"><ele>55.0</ele><time>2026-04-19T11:16:26Z</time></trkpt><trkpt lat="43.0074772791289" lon="10.710754374937432"><ele>56.4</ele><time>2026-04-19T11:16:27Z</time></trkpt><trkpt lat="43.0073858122104" lon="10.710832572193876"><ele>57.8</ele><time>2026-04-19T11:16:28Z</time></trkpt><trkpt lat="43.00729055491858" lon="10.710896587365363"><ele>59.2</ele><time>2026-04-19T11:16:29Z</time></trkpt><trkpt lat="43.0072197477835" lon="10.710938839902873"><ele>60.6</ele><time>2026-04-19T11:16:30Z</time></trkpt><trkpt lat="43.00714122498653" lon="10.710993045184695"><ele>62.0</ele><time>2026-04-19T11:16:31Z</time></trkpt><trkpt lat="43.00707104378022" lon="10.711039459069783"><ele>62.00000000000001</ele><time>2026-04-19T11:16:32Z</time></trkpt><trkpt lat="43.00704660287214" lon="10.710932355341194"><ele>62.0</ele><time>2026-04-19T11:16:35Z</time></trkpt><trkpt lat="43.00703047223953" lon="10.710815722172628"><ele>62.0</ele><time>2026-04-19T11:16:36Z</time></trkpt><trkpt lat="43.00702477002702" lon="10.71072636270435"><ele>62.0</ele><time>2026-04-19T11:16:37Z</time></trkpt><trkpt lat="43.00706912242425" lon="10.710642072921827"><ele>62.00000000000001</ele><time>2026-04-19T11:16:39Z</time></trkpt><trkpt lat="43.007126109334884" lon="10.710559880855428"><ele>62.0</ele><time>2026-04-19T11:16:40Z</time></trkpt><trkpt lat="43.007187356729126" lon="10.710453204115014"><ele>62.0</ele><time>2026-04-19T11:16:41Z</time></trkpt><trkpt lat="43.007212113298884" lon="10.710257236779226"><ele>62.0</ele><time>2026-04-19T11:16:43Z</time></trkpt><trkpt lat="43.007274997009795" lon="10.710119219070547"><ele>62.0</ele><time>2026-04-19T11:16:45Z</time></trkpt><trkpt lat="43.00733431697607" lon="10.710071128111508"><ele>62.0</ele><time>2026-04-19T11:16:47Z</time></trkpt><trkpt lat="43.00738469882035" lon="10.709984369926117"><ele>62.0</ele><time>2026-04-19T11:16:48Z</time></trkpt><trkpt lat="43.00744316473282" lon="10.709897876402406"><ele>60.2</ele><time>2026-04-19T11:16:49Z</time></trkpt><trkpt lat="43.00755395553411" lon="10.709826872840718"><ele>58.400000000000006</ele><time>2026-04-19T11:16:51Z</time></trkpt><trkpt lat="43.00762625239828" lon="10.709774966960026"><ele>56.599999999999994</ele><time>2026-04-19T11:16:52Z</time></trkpt><trkpt lat="43.007665253585344" lon="10.709699898419444"><ele>54.8</ele><time>2026-04-19T11:16:54Z</time></trkpt><trkpt lat="43.007683682324775" lon="10.709536633989467"><ele>53.0</ele><time>2026-04-19T11:16:56Z</time></trkpt><trkpt lat="43.00770796695654" lon="10.709420436303555"><ele>52.599999999999994</ele><time>2026-04-19T11:16:58Z</time></trkpt><trkpt lat="43.00769378293149" lon="10.709335124825621"><ele>52.199999999999996</ele><time>2026-04-19T11:17:01Z</time></trkpt><trkpt lat="43.007724999441415" lon="10.709237032540338"><ele>51.8</ele><time>2026-04-19T11:17:04Z</time></trkpt><trkpt lat="43.007778878800146" lon="10.709176684064595"><ele>51.4</ele><time>2026-04-19T11:17:06Z</time></trkpt><trkpt lat="43.007901586987145" lon="10.70896799303452"><ele>51.0</ele><time>2026-04-19T11:17:07Z</time></trkpt><trkpt lat="43.00795929229086" lon="10.708907511761693"><ele>51.0</ele><time>2026-04-19T11:17:08Z</time></trkpt><trkpt lat="43.00800017672642" lon="10.70881438440198"><ele>51.0</ele><time>2026-04-19T11:17:09Z</time></trkpt><trkpt lat="43.008062064061484" lon="10.708699524785729"><ele>51.0</ele><time>2026-04-19T11:17:10Z</time></trkpt><trkpt lat="43.008134303016405" lon="10.708586004213617"><ele>51.0</ele><time>2026-04-19T11:17:11Z</time></trkpt><trkpt lat="43.00819883412673" lon="10.708487409723281"><ele>51.0</ele><time>2026-04-19T11:17:12Z</time></trkpt><trkpt lat="43.00828455570129" lon="10.708417613386386"><ele>50.25</ele><time>2026-04-19T11:17:13Z</time></trkpt><trkpt lat="43.0083891758439" lon="10.708337248983202"><ele>49.5</ele><time>2026-04-19T11:17:14Z</time></trkpt><trkpt lat="43.008509809427416" lon="10.708228592630492"><ele>48.75</ele><time>2026-04-19T11:17:15Z</time></trkpt><trkpt lat="43.00862078196764" lon="10.708092119572504"><ele>48.0</ele><time>2026-04-19T11:17:16Z</time></trkpt><trkpt lat="43.00871578292111" lon="10.707913744615505"><ele>48.0</ele><time>2026-04-19T11:17:17Z</time></trkpt><trkpt lat="43.00878941082306" lon="10.707793871362247"><ele>48.0</ele><time>2026-04-19T11:17:18Z</time></trkpt><trkpt lat="43.008858375833334" lon="10.7076650989244"><ele>48.0</ele><time>2026-04-19T11:17:19Z</time></trkpt><trkpt lat="43.00891167761947" lon="10.70751242705062"><ele>48.0</ele><time>2026-04-19T11:17:20Z</time></trkpt><trkpt lat="43.00897444332228" lon="10.70734827828943"><ele>49.75</ele><time>2026-04-19T11:17:21Z</time></trkpt><trkpt lat="43.00902925081851" lon="10.707170905083345"><ele>51.5</ele><time>2026-04-19T11:17:22Z</time></trkpt><trkpt lat="43.00907165743207" lon="10.706990293608436"><ele>53.25</ele><time>2026-04-19T11:17:23Z</time></trkpt><trkpt lat="43.00910970041671" lon="10.706801618577016"><ele>55.0</ele><time>2026-04-19T11:17:24Z</time></trkpt><trkpt lat="43.00915756461769" lon="10.706612879852894"><ele>53.0</ele><time>2026-04-19T11:17:25Z</time></trkpt><trkpt lat="43.009201774147925" lon="10.706411837332645"><ele>51.0</ele><time>2026-04-19T11:17:26Z</time></trkpt><trkpt lat="43.009214258225754" lon="10.706213925653906"><ele>49.0</ele><time>2026-04-19T11:17:27Z</time></trkpt><trkpt lat="43.00925199183441" lon="10.706040776283965"><ele>47.0</ele><time>2026-04-19T11:17:28Z</time></trkpt><trkpt lat="43.00929604057979" lon="10.705868727723523"><ele>47.0</ele><time>2026-04-19T11:17:29Z</time></trkpt><trkpt lat="43.00933580372828" lon="10.705692142334819"><ele>47.0</ele><time>2026-04-19T11:17:30Z</time></trkpt><trkpt lat="43.00936841871094" lon="10.705529325409524"><ele>47.0</ele><time>2026-04-19T11:17:31Z</time></trkpt><trkpt lat="43.009400203137766" lon="10.705393839426348"><ele>47.0</ele><time>2026-04-19T11:17:32Z</time></trkpt><trkpt lat="43.009433871531044" lon="10.705268773231671"><ele>47.2</ele><time>2026-04-19T11:17:33Z</time></trkpt><trkpt lat="43.009452745028625" lon="10.705138291828558"><ele>47.400000000000006</ele><time>2026-04-19T11:17:34Z</time></trkpt><trkpt lat="43.00946579337815" lon="10.704994012835886"><ele>47.599999999999994</ele><time>2026-04-19T11:17:35Z</time></trkpt><trkpt lat="43.00948545595289" lon="10.704873035425129"><ele>47.8</ele><time>2026-04-19T11:17:36Z</time></trkpt><trkpt lat="43.00952682490252" lon="10.704745230530145"><ele>48.0</ele><time>2026-04-19T11:17:37Z</time></trkpt><trkpt lat="43.00956533896248" lon="10.704663440561799"><ele>48.0</ele><time>2026-04-19T11:17:38Z</time></trkpt><trkpt lat="43.009612045363774" lon="10.704599124356237"><ele>48.0</ele><time>2026-04-19T11:17:39Z</time></trkpt><trkpt lat="43.009589371289934" lon="10.704451180288"><ele>48.0</ele><time>2026-04-19T11:17:41Z</time></trkpt><trkpt lat="43.00958281468563" lon="10.704312167762863"><ele>48.0</ele><time>2026-04-19T11:17:42Z</time></trkpt><trkpt lat="43.0095975121591" lon="10.704168988771068"><ele>48.0</ele><time>2026-04-19T11:17:43Z</time></trkpt><trkpt lat="43.00962681635066" lon="10.703995053000032"><ele>48.0</ele><time>2026-04-19T11:17:44Z</time></trkpt><trkpt lat="43.009667176011234" lon="10.703819212649469"><ele>48.0</ele><time>2026-04-19T11:17:45Z</time></trkpt><trkpt lat="43.00969881060661" lon="10.70362417430533"><ele>48.0</ele><time>2026-04-19T11:17:46Z</time></trkpt><trkpt lat="43.00972998430151" lon="10.703422082765309"><ele>48.0</ele><time>2026-04-19T11:17:47Z</time></trkpt><trkpt lat="43.009762351940495" lon="10.703251991398425"><ele>48.4</ele><time>2026-04-19T11:17:48Z</time></trkpt><trkpt lat="43.009776987060675" lon="10.70311563736637"><ele>48.8</ele><time>2026-04-19T11:17:49Z</time></trkpt><trkpt lat="43.009779873910766" lon="10.702969666993923"><ele>49.2</ele><time>2026-04-19T11:17:50Z</time></trkpt><trkpt lat="43.00976881317904" lon="10.702832015815689"><ele>49.6</ele><time>2026-04-19T11:17:51Z</time></trkpt><trkpt lat="43.00976982362525" lon="10.7027362138397"><ele>50.0</ele><time>2026-04-19T11:17:52Z</time></trkpt><trkpt lat="43.00982089993637" lon="10.702599859105886"><ele>50.4</ele><time>2026-04-19T11:17:54Z</time></trkpt><trkpt lat="43.009838661402945" lon="10.702498228252088"><ele>50.8</ele><time>2026-04-19T11:17:55Z</time></trkpt><trkpt lat="43.00986616410503" lon="10.702345928811358"><ele>51.2</ele><time>2026-04-19T11:17:56Z</time></trkpt><trkpt lat="43.009878552516234" lon="10.702167894455862"><ele>51.6</ele><time>2026-04-19T11:17:57Z</time></trkpt><trkpt lat="43.009891089662055" lon="10.702032438015964"><ele>52.0</ele><time>2026-04-19T11:17:58Z</time></trkpt><trkpt lat="43.00990234694678" lon="10.701934247602837"><ele>52.2</ele><time>2026-04-19T11:17:59Z</time></trkpt><trkpt lat="43.009852373493516" lon="10.701782399537047"><ele>52.400000000000006</ele><time>2026-04-19T11:18:01Z</time></trkpt><trkpt lat="43.00987237640347" lon="10.701632656829808"><ele>52.599999999999994</ele><time>2026-04-19T11:18:03Z</time></trkpt><trkpt lat="43.009921452363756" lon="10.70156506464359"><ele>52.8</ele><time>2026-04-19T11:18:04Z</time></trkpt><trkpt lat="43.00993701717632" lon="10.701423926356494"><ele>53.0</ele><time>2026-04-19T11:18:06Z</time></trkpt><trkpt lat="43.0099483021403" lon="10.70125873041596"><ele>53.0</ele><time>2026-04-19T11:18:08Z</time></trkpt><trkpt lat="43.00995092483738" lon="10.701152742888947"><ele>53.0</ele><time>2026-04-19T11:18:09Z</time></trkpt><trkpt lat="43.009950119210615" lon="10.701013956532005"><ele>53.0</ele><time>2026-04-19T11:18:10Z</time></trkpt><trkpt lat="43.00992706238841" lon="10.700869201034363"><ele>53.0</ele><time>2026-04-19T11:18:11Z</time></trkpt><trkpt lat="43.00989253228391" lon="10.700725287889831"><ele>53.0</ele><time>2026-04-19T11:18:12Z</time></trkpt><trkpt lat="43.00987205564498" lon="10.700572586290994"><ele>53.0</ele><time>2026-04-19T11:18:13Z</time></trkpt><trkpt lat="43.00984851798382" lon="10.700404241611894"><ele>53.0</ele><time>2026-04-19T11:18:14Z</time></trkpt><trkpt lat="43.009821609627025" lon="10.70024241133225"><ele>53.0</ele><time>2026-04-19T11:18:15Z</time></trkpt><trkpt lat="43.00980496424905" lon="10.700086773957581"><ele>53.0</ele><time>2026-04-19T11:18:16Z</time></trkpt><trkpt lat="43.00979325192139" lon="10.69995164163052"><ele>53.0</ele><time>2026-04-19T11:18:17Z</time></trkpt><trkpt lat="43.009787048064325" lon="10.699840827475066"><ele>53.0</ele><time>2026-04-19T11:18:18Z</time></trkpt><trkpt lat="43.00975860957394" lon="10.699686809427902"><ele>53.0</ele><time>2026-04-19T11:18:20Z</time></trkpt><trkpt lat="43.009743515237666" lon="10.699548260852206"><ele>53.0</ele><time>2026-04-19T11:18:21Z</time></trkpt><trkpt lat="43.00973735767061" lon="10.699380242837393"><ele>53.0</ele><time>2026-04-19T11:18:22Z</time></trkpt><trkpt lat="43.00973593451234" lon="10.699199122932326"><ele>53.0</ele><time>2026-04-19T11:18:23Z</time></trkpt><trkpt lat="43.00972412153728" lon="10.699015337482114"><ele>53.0</ele><time>2026-04-19T11:18:24Z</time></trkpt><trkpt lat="43.009707232861174" lon="10.698871533511168"><ele>53.0</ele><time>2026-04-19T11:18:25Z</time></trkpt><trkpt lat="43.009699336995034" lon="10.698729137574443"><ele>53.0</ele><time>2026-04-19T11:18:26Z</time></trkpt><trkpt lat="43.00969299714868" lon="10.698581766761356"><ele>52.0</ele><time>2026-04-19T11:18:27Z</time></trkpt><trkpt lat="43.009680200133566" lon="10.698426885647676"><ele>51.0</ele><time>2026-04-19T11:18:28Z</time></trkpt><trkpt lat="43.00966081953371" lon="10.698270775311006"><ele>50.0</ele><time>2026-04-19T11:18:29Z</time></trkpt><trkpt lat="43.00964806065132" lon="10.698112636496942"><ele>49.0</ele><time>2026-04-19T11:18:30Z</time></trkpt><trkpt lat="43.00964885416427" lon="10.697959298034194"><ele>49.0</ele><time>2026-04-19T11:18:31Z</time></trkpt><trkpt lat="43.00965036026022" lon="10.697809354765909"><ele>49.0</ele><time>2026-04-19T11:18:32Z</time></trkpt><trkpt lat="43.00964231737649" lon="10.697672475597798"><ele>49.0</ele><time>2026-04-19T11:18:33Z</time></trkpt><trkpt lat="43.00962080515155" lon="10.697529792652439"><ele>49.0</ele><time>2026-04-19T11:18:34Z</time></trkpt><trkpt lat="43.00959479759319" lon="10.69738818926817"><ele>49.0</ele><time>2026-04-19T11:18:35Z</time></trkpt><trkpt lat="43.0095789936261" lon="10.697289148954239"><ele>47.99999999999999</ele><time>2026-04-19T11:18:36Z</time></trkpt><trkpt lat="43.0095598111377" lon="10.697176687787975"><ele>47.0</ele><time>2026-04-19T11:18:37Z</time></trkpt><trkpt lat="43.009533364755406" lon="10.697053347154528"><ele>46.0</ele><time>2026-04-19T11:18:38Z</time></trkpt><trkpt lat="43.00951137400392" lon="10.696957849598846"><ele>45.0</ele><time>2026-04-19T11:18:39Z</time></trkpt><trkpt lat="43.009492848257516" lon="10.696873613017475"><ele>44.0</ele><time>2026-04-19T11:18:40Z</time></trkpt><trkpt lat="43.0094648788639" lon="10.69677841429074"><ele>43.0</ele><time>2026-04-19T11:18:41Z</time></trkpt><trkpt lat="43.009425401740344" lon="10.696693523460596"><ele>42.5</ele><time>2026-04-19T11:18:42Z</time></trkpt><trkpt lat="43.0093992525133" lon="10.696592906650263"><ele>42.0</ele><time>2026-04-19T11:18:42.999Z</time></trkpt><trkpt lat="43.009396169018856" lon="10.696484419375235"><ele>41.5</ele><time>2026-04-19T11:18:43.999Z</time></trkpt><trkpt lat="43.00942608771844" lon="10.696388855331707"><ele>41.0</ele><time>2026-04-19T11:18:44.999Z</time></trkpt><trkpt lat="43.00945278118713" lon="10.69629904928183"><ele>40.5</ele><time>2026-04-19T11:18:45.999Z</time></trkpt><trkpt lat="43.009451476182946" lon="10.696190176220522"><ele>40.0</ele><time>2026-04-19T11:18:46.999Z</time></trkpt><trkpt lat="43.009452845918375" lon="10.696099048948215"><ele>40.4</ele><time>2026-04-19T11:18:47.999Z</time></trkpt><trkpt lat="43.00950058138137" lon="10.695957301930784"><ele>40.8</ele><time>2026-04-19T11:18:49.999Z</time></trkpt><trkpt lat="43.00952705116074" lon="10.695860322719126"><ele>41.2</ele><time>2026-04-19T11:18:50.999Z</time></trkpt><trkpt lat="43.009532078406714" lon="10.695756263353438"><ele>41.6</ele><time>2026-04-19T11:18:51.999Z</time></trkpt><trkpt lat="43.00953427054436" lon="10.695621032145183"><ele>42.0</ele><time>2026-04-19T11:18:53.999Z</time></trkpt><trkpt lat="43.009625398729526" lon="10.695575398788947"><ele>42.0</ele><time>2026-04-19T11:18:56.999Z</time></trkpt><trkpt lat="43.00969822394612" lon="10.695710200878834"><ele>42.0</ele><time>2026-04-19T11:18:59.999Z</time></trkpt><trkpt lat="43.00980547316696" lon="10.695776667626408"><ele>42.0</ele><time>2026-04-19T11:22:25Z</time></trkpt><trkpt lat="43.009869169576994" lon="10.695815466809538"><ele>42.0</ele><time>2026-04-19T11:22:26Z</time></trkpt><trkpt lat="43.00995980078908" lon="10.695875497599197"><ele>42.0</ele><time>2026-04-19T11:22:27Z</time></trkpt><trkpt lat="43.01005906848749" lon="10.695953415127223"><ele>38.333333333333336</ele><time>2026-04-19T11:22:28Z</time></trkpt><trkpt lat="43.010171113088084" lon="10.69606006497067"><ele>34.66666666666667</ele><time>2026-04-19T11:22:29Z</time></trkpt><trkpt lat="43.01030681662762" lon="10.696174571999684"><ele>31.0</ele><time>2026-04-19T11:22:30Z</time></trkpt><trkpt lat="43.010445892460716" lon="10.696282569458612"><ele>31.0</ele><time>2026-04-19T11:22:31Z</time></trkpt><trkpt lat="43.01055953152078" lon="10.696379083225933"><ele>31.0</ele><time>2026-04-19T11:22:32Z</time></trkpt><trkpt lat="43.01065345828348" lon="10.696453307325704"><ele>31.0</ele><time>2026-04-19T11:22:33Z</time></trkpt><trkpt lat="43.01073865470745" lon="10.69652593884642"><ele>31.0</ele><time>2026-04-19T11:22:34Z</time></trkpt><trkpt lat="43.01082470588259" lon="10.696603226454547"><ele>31.0</ele><time>2026-04-19T11:22:35Z</time></trkpt><trkpt lat="43.010930240396846" lon="10.696684387853487"><ele>31.0</ele><time>2026-04-19T11:22:36Z</time></trkpt><trkpt lat="43.01101096561726" lon="10.696759000849834"><ele>31.0</ele><time>2026-04-19T11:22:37Z</time></trkpt><trkpt lat="43.01110115173354" lon="10.696793832939798"><ele>31.0</ele><time>2026-04-19T11:22:39Z</time></trkpt><trkpt lat="43.011233049385766" lon="10.696724066370486"><ele>31.0</ele><time>2026-04-19T11:22:41Z</time></trkpt><trkpt lat="43.01131055628066" lon="10.696649687008911"><ele>31.0</ele><time>2026-04-19T11:22:42Z</time></trkpt><trkpt lat="43.01136549671566" lon="10.696567246420685"><ele>31.0</ele><time>2026-04-19T11:22:43Z</time></trkpt><trkpt lat="43.0114021033312" lon="10.696491231277065"><ele>31.0</ele><time>2026-04-19T11:22:44Z</time></trkpt><trkpt lat="43.011433749388615" lon="10.696379989354048"><ele>31.0</ele><time>2026-04-19T11:22:45Z</time></trkpt><trkpt lat="43.011459696855546" lon="10.696238983390504"><ele>31.0</ele><time>2026-04-19T11:22:46Z</time></trkpt><trkpt lat="43.01148006141329" lon="10.696085785697742"><ele>31.0</ele><time>2026-04-19T11:22:47Z</time></trkpt><trkpt lat="43.011484738308226" lon="10.695935505822591"><ele>30.25</ele><time>2026-04-19T11:22:48Z</time></trkpt><trkpt lat="43.01148124092899" lon="10.695767748839106"><ele>29.5</ele><time>2026-04-19T11:22:49Z</time></trkpt><trkpt lat="43.01146377347295" lon="10.695585932348253"><ele>28.75</ele><time>2026-04-19T11:22:50Z</time></trkpt><trkpt lat="43.011436814193296" lon="10.695438534514267"><ele>28.0</ele><time>2026-04-19T11:22:51Z</time></trkpt><trkpt lat="43.01143336419701" lon="10.695281338407698"><ele>27.75</ele><time>2026-04-19T11:22:52Z</time></trkpt><trkpt lat="43.01145070206364" lon="10.69511687635066"><ele>27.5</ele><time>2026-04-19T11:22:53Z</time></trkpt><trkpt lat="43.01148810345626" lon="10.69495583564517"><ele>27.25</ele><time>2026-04-19T11:22:54Z</time></trkpt><trkpt lat="43.01155457506327" lon="10.69476760376043"><ele>27.0</ele><time>2026-04-19T11:22:55Z</time></trkpt><trkpt lat="43.01163667047516" lon="10.694590539199435"><ele>26.75</ele><time>2026-04-19T11:22:56Z</time></trkpt><trkpt lat="43.01172263868014" lon="10.694406269839696"><ele>26.5</ele><time>2026-04-19T11:22:57Z</time></trkpt><trkpt lat="43.011782870733725" lon="10.694252470883384"><ele>26.25</ele><time>2026-04-19T11:22:58Z</time></trkpt><trkpt lat="43.01183210596594" lon="10.69411399900498"><ele>26.0</ele><time>2026-04-19T11:22:59Z</time></trkpt><trkpt lat="43.01187204580783" lon="10.693961496487423"><ele>26.0</ele><time>2026-04-19T11:23:00Z</time></trkpt><trkpt lat="43.011903919383805" lon="10.693768672774087"><ele>26.0</ele><time>2026-04-19T11:23:01Z</time></trkpt><trkpt lat="43.011932457674575" lon="10.693544026637522"><ele>26.0</ele><time>2026-04-19T11:23:02Z</time></trkpt><trkpt lat="43.0119596442033" lon="10.69331836136471"><ele>25.8</ele><time>2026-04-19T11:23:03Z</time></trkpt><trkpt lat="43.012002597465234" lon="10.693155233911884"><ele>25.6</ele><time>2026-04-19T11:23:04Z</time></trkpt><trkpt lat="43.01203547156489" lon="10.693018032558305"><ele>25.4</ele><time>2026-04-19T11:23:05Z</time></trkpt><trkpt lat="43.012057991528316" lon="10.692895600745512"><ele>25.2</ele><time>2026-04-19T11:23:06Z</time></trkpt><trkpt lat="43.01205455265587" lon="10.69275503571119"><ele>25.0</ele><time>2026-04-19T11:23:07Z</time></trkpt><trkpt lat="43.012038607033816" lon="10.692593373503602"><ele>25.0</ele><time>2026-04-19T11:23:08Z</time></trkpt><trkpt lat="43.01200950223503" lon="10.692449899530141"><ele>25.0</ele><time>2026-04-19T11:23:09Z</time></trkpt><trkpt lat="43.011992606660755" lon="10.692343429954336"><ele>25.0</ele><time>2026-04-19T11:23:10Z</time></trkpt><trkpt lat="43.01207527563225" lon="10.692286342143992"><ele>25.0</ele><time>2026-04-19T11:23:13Z</time></trkpt><trkpt lat="43.01217641817992" lon="10.692300422238908"><ele>25.0</ele><time>2026-04-19T11:23:15Z</time></trkpt><trkpt lat="43.012252559444185" lon="10.692349191046464"><ele>25.0</ele><time>2026-04-19T11:23:17Z</time></trkpt><trkpt lat="43.01233632620404" lon="10.692479783203636"><ele>25.0</ele><time>2026-04-19T11:23:19Z</time></trkpt><trkpt lat="43.01239543257589" lon="10.692558118159209"><ele>25.0</ele><time>2026-04-19T11:23:20Z</time></trkpt><trkpt lat="43.01246211048141" lon="10.692612371255372"><ele>25.0</ele><time>2026-04-19T11:23:21Z</time></trkpt><trkpt lat="43.01253182034399" lon="10.692720752653603"><ele>25.0</ele><time>2026-04-19T11:23:23Z</time></trkpt><trkpt lat="43.01258882807087" lon="10.6927749503699"><ele>25.0</ele><time>2026-04-19T11:23:25Z</time></trkpt><trkpt lat="43.012653616019136" lon="10.6928265763949"><ele>25.0</ele><time>2026-04-19T11:23:27Z</time></trkpt><trkpt lat="43.01270892787717" lon="10.692903806344164"><ele>25.0</ele><time>2026-04-19T11:23:29Z</time></trkpt><trkpt lat="43.01260976324676" lon="10.692935498200338"><ele>25.0</ele><time>2026-04-19T11:23:54Z</time></trkpt><trkpt lat="43.012501426394785" lon="10.692917687940213"><ele>25.0</ele><time>2026-04-19T11:23:55Z</time></trkpt><trkpt lat="43.012380022776696" lon="10.692924923944686"><ele>25.0</ele><time>2026-04-19T11:23:56Z</time></trkpt><trkpt lat="43.01231322176504" lon="10.69296782005049"><ele>25.0</ele><time>2026-04-19T11:23:57Z</time></trkpt><trkpt lat="43.012297490423514" lon="10.69305491333094"><ele>25.0</ele><time>2026-04-19T11:23:58Z</time></trkpt><trkpt lat="43.01227291964412" lon="10.693194223156148"><ele>25.0</ele><time>2026-04-19T11:23:59Z</time></trkpt><trkpt lat="43.01225750147319" lon="10.693356713622297"><ele>25.0</ele><time>2026-04-19T11:24:00Z</time></trkpt><trkpt lat="43.01225917340488" lon="10.693559255112731"><ele>25.333333333333336</ele><time>2026-04-19T11:24:01Z</time></trkpt><trkpt lat="43.01223143254173" lon="10.693775179899987"><ele>25.666666666666664</ele><time>2026-04-19T11:24:02Z</time></trkpt><trkpt lat="43.01218934911326" lon="10.693977037423311"><ele>26.0</ele><time>2026-04-19T11:24:03Z</time></trkpt><trkpt lat="43.01216420804422" lon="10.694160839962157"><ele>26.0</ele><time>2026-04-19T11:24:04Z</time></trkpt><trkpt lat="43.01216831197873" lon="10.694316013383503"><ele>26.0</ele><time>2026-04-19T11:24:05Z</time></trkpt><trkpt lat="43.01218062236147" lon="10.694477371859904"><ele>26.0</ele><time>2026-04-19T11:24:06Z</time></trkpt><trkpt lat="43.01221943786953" lon="10.69464805489994"><ele>26.0</ele><time>2026-04-19T11:24:07Z</time></trkpt><trkpt lat="43.01226841688155" lon="10.694829992044442"><ele>26.4</ele><time>2026-04-19T11:24:08Z</time></trkpt><trkpt lat="43.01227990194068" lon="10.694919396603279"><ele>26.8</ele><time>2026-04-19T11:24:09Z</time></trkpt><trkpt lat="43.012181449354735" lon="10.694966691160753"><ele>27.199999999999996</ele><time>2026-04-19T11:24:11Z</time></trkpt><trkpt lat="43.01208292632027" lon="10.6949236992152"><ele>27.599999999999998</ele><time>2026-04-19T11:24:12Z</time></trkpt><trkpt lat="43.01202192122494" lon="10.694832749299694"><ele>28.0</ele><time>2026-04-19T11:24:13Z</time></trkpt><trkpt lat="43.012011661344694" lon="10.69469756811965"><ele>28.000000000000004</ele><time>2026-04-19T11:24:14Z</time></trkpt><trkpt lat="43.01202425647714" lon="10.694557117020462"><ele>28.0</ele><time>2026-04-19T11:24:15Z</time></trkpt><trkpt lat="43.011994515588164" lon="10.694464216188"><ele>28.0</ele><time>2026-04-19T11:24:16Z</time></trkpt><trkpt lat="43.01192730713416" lon="10.694457536325714"><ele>28.0</ele><time>2026-04-19T11:24:17Z</time></trkpt><trkpt lat="43.01186501401602" lon="10.694520820356962"><ele>28.000000000000004</ele><time>2026-04-19T11:24:18Z</time></trkpt><trkpt lat="43.01181910625055" lon="10.694628449782579"><ele>28.0</ele><time>2026-04-19T11:24:19Z</time></trkpt><trkpt lat="43.01180035979046" lon="10.694767528035062"><ele>28.0</ele><time>2026-04-19T11:24:20Z</time></trkpt><trkpt lat="43.01181481751377" lon="10.694948414870641"><ele>28.0</ele><time>2026-04-19T11:24:21Z</time></trkpt><trkpt lat="43.011850666378955" lon="10.695160381770213"><ele>28.0</ele><time>2026-04-19T11:24:22Z</time></trkpt><trkpt lat="43.01188166130378" lon="10.695358807580815"><ele>28.0</ele><time>2026-04-19T11:24:23Z</time></trkpt><trkpt lat="43.011881598517014" lon="10.695479688642662"><ele>28.2</ele><time>2026-04-19T11:24:24Z</time></trkpt><trkpt lat="43.01180514616388" lon="10.695640583478877"><ele>28.4</ele><time>2026-04-19T11:24:26Z</time></trkpt><trkpt lat="43.011749684699204" lon="10.695719665939462"><ele>28.599999999999998</ele><time>2026-04-19T11:24:27Z</time></trkpt><trkpt lat="43.01179120111291" lon="10.695853293733627"><ele>28.799999999999997</ele><time>2026-04-19T11:24:29Z</time></trkpt><trkpt lat="43.01185114148794" lon="10.695899145686633"><ele>29.0</ele><time>2026-04-19T11:24:30Z</time></trkpt><trkpt lat="43.0119393679458" lon="10.695918211394341"><ele>29.0</ele><time>2026-04-19T11:24:31Z</time></trkpt><trkpt lat="43.01206308819302" lon="10.695889722090188"><ele>29.0</ele><time>2026-04-19T11:24:32Z</time></trkpt><trkpt lat="43.01218933325752" lon="10.695850524253853"><ele>29.0</ele><time>2026-04-19T11:24:33Z</time></trkpt><trkpt lat="43.01232416350423" lon="10.69588026895736"><ele>29.0</ele><time>2026-04-19T11:24:34Z</time></trkpt><trkpt lat="43.0123798474811" lon="10.695928530590436"><ele>29.0</ele><time>2026-04-19T11:24:35Z</time></trkpt><trkpt lat="43.0123642410099" lon="10.696080492756904"><ele>29.0</ele><time>2026-04-19T11:24:37Z</time></trkpt><trkpt lat="43.01230908137647" lon="10.696139260750295"><ele>29.0</ele><time>2026-04-19T11:24:38Z</time></trkpt><trkpt lat="43.01220598165138" lon="10.696148801055143"><ele>29.0</ele><time>2026-04-19T11:24:39Z</time></trkpt><trkpt lat="43.0120687688087" lon="10.6961167805741"><ele>29.0</ele><time>2026-04-19T11:24:40Z</time></trkpt><trkpt lat="43.011933741118746" lon="10.69606788270752"><ele>29.0</ele><time>2026-04-19T11:24:41Z</time></trkpt><trkpt lat="43.01186736949731" lon="10.696060340194515"><ele>29.0</ele><time>2026-04-19T11:24:42Z</time></trkpt><trkpt lat="43.01182485676988" lon="10.696200942155375"><ele>29.0</ele><time>2026-04-19T11:24:44Z</time></trkpt><trkpt lat="43.011886674969375" lon="10.696295282548235"><ele>29.0</ele><time>2026-04-19T11:24:46Z</time></trkpt><trkpt lat="43.01197693354693" lon="10.69649446756479"><ele>29.0</ele><time>2026-04-19T11:24:47Z</time></trkpt><trkpt lat="43.011993873684986" lon="10.696598255767523"><ele>29.2</ele><time>2026-04-19T11:24:48Z</time></trkpt><trkpt lat="43.011937512469444" lon="10.696665101123644"><ele>29.4</ele><time>2026-04-19T11:24:49Z</time></trkpt><trkpt lat="43.011867392933276" lon="10.696712628046136"><ele>29.6</ele><time>2026-04-19T11:24:50Z</time></trkpt><trkpt lat="43.011746523263824" lon="10.696808721361679"><ele>29.8</ele><time>2026-04-19T11:24:51Z</time></trkpt><trkpt lat="43.01163928152776" lon="10.696851470772215"><ele>30.0</ele><time>2026-04-19T11:24:52Z</time></trkpt><trkpt lat="43.01157334916989" lon="10.696829398909538"><ele>30.2</ele><time>2026-04-19T11:24:53Z</time></trkpt><trkpt lat="43.011472021468435" lon="10.696819355273583"><ele>30.4</ele><time>2026-04-19T11:24:54Z</time></trkpt><trkpt lat="43.011383037367935" lon="10.69678981235965"><ele>30.6</ele><time>2026-04-19T11:24:55Z</time></trkpt><trkpt lat="43.011335685986246" lon="10.696919575621898"><ele>30.8</ele><time>2026-04-19T11:24:57Z</time></trkpt><trkpt lat="43.011343584476805" lon="10.697019174286124"><ele>31.0</ele><time>2026-04-19T11:24:58Z</time></trkpt><trkpt lat="43.01134760379031" lon="10.697197299087362"><ele>31.0</ele><time>2026-04-19T11:24:59Z</time></trkpt><trkpt lat="43.011339939684056" lon="10.697381477094074"><ele>31.0</ele><time>2026-04-19T11:25:00Z</time></trkpt><trkpt lat="43.011301865701896" lon="10.697505532822994"><ele>31.0</ele><time>2026-04-19T11:25:01Z</time></trkpt><trkpt lat="43.01123797425966" lon="10.69759675510625"><ele>31.0</ele><time>2026-04-19T11:25:02Z</time></trkpt><trkpt lat="43.01115631557009" lon="10.697580857365981"><ele>31.0</ele><time>2026-04-19T11:25:03Z</time></trkpt><trkpt lat="43.01105392688883" lon="10.69756062562463"><ele>31.0</ele><time>2026-04-19T11:25:04Z</time></trkpt><trkpt lat="43.0108883227673" lon="10.697528607077196"><ele>31.0</ele><time>2026-04-19T11:25:05Z</time></trkpt><trkpt lat="43.01081283124268" lon="10.697576702208222"><ele>31.0</ele><time>2026-04-19T11:25:06Z</time></trkpt><trkpt lat="43.01072040211628" lon="10.697623862745708"><ele>31.0</ele><time>2026-04-19T11:25:07Z</time></trkpt><trkpt lat="43.01070664572065" lon="10.697737881094953"><ele>31.0</ele><time>2026-04-19T11:25:08Z</time></trkpt><trkpt lat="43.01075108737842" lon="10.697856817956536"><ele>30.666666666666668</ele><time>2026-04-19T11:25:09Z</time></trkpt><trkpt lat="43.01084143488353" lon="10.698023722754456"><ele>30.333333333333336</ele><time>2026-04-19T11:25:10Z</time></trkpt><trkpt lat="43.010948565248555" lon="10.698230318616485"><ele>30.0</ele><time>2026-04-19T11:25:11Z</time></trkpt><trkpt lat="43.01103003996949" lon="10.698394653529705"><ele>30.0</ele><time>2026-04-19T11:25:12Z</time></trkpt><trkpt lat="43.01103251050195" lon="10.698497917452029"><ele>30.0</ele><time>2026-04-19T11:25:13Z</time></trkpt><trkpt lat="43.010967775118694" lon="10.698618279836696"><ele>30.0</ele><time>2026-04-19T11:25:15Z</time></trkpt><trkpt lat="43.010879817650384" lon="10.69862560681478"><ele>30.0</ele><time>2026-04-19T11:25:16Z</time></trkpt><trkpt lat="43.01079595512597" lon="10.698603027027326"><ele>30.0</ele><time>2026-04-19T11:25:17Z</time></trkpt><trkpt lat="43.010699551705606" lon="10.69850774023588"><ele>31.25</ele><time>2026-04-19T11:25:18Z</time></trkpt><trkpt lat="43.01057244386274" lon="10.6984119781454"><ele>32.5</ele><time>2026-04-19T11:25:19Z</time></trkpt><trkpt lat="43.010445501905494" lon="10.698363111231718"><ele>33.75</ele><time>2026-04-19T11:25:20Z</time></trkpt><trkpt lat="43.01034504000828" lon="10.698363828738069"><ele>35.0</ele><time>2026-04-19T11:25:21Z</time></trkpt><trkpt lat="43.01025589160864" lon="10.698412788056684"><ele>35.0</ele><time>2026-04-19T11:25:22Z</time></trkpt><trkpt lat="43.010232005321555" lon="10.698515303034549"><ele>35.0</ele><time>2026-04-19T11:25:23Z</time></trkpt><trkpt lat="43.010206661198126" lon="10.698662666770067"><ele>35.0</ele><time>2026-04-19T11:25:24Z</time></trkpt><trkpt lat="43.01017360839369" lon="10.698849975975373"><ele>35.0</ele><time>2026-04-19T11:25:25Z</time></trkpt><trkpt lat="43.01013256685579" lon="10.699045859225006"><ele>35.0</ele><time>2026-04-19T11:25:26Z</time></trkpt><trkpt lat="43.010111755657" lon="10.69921131811596"><ele>35.0</ele><time>2026-04-19T11:25:27Z</time></trkpt><trkpt lat="43.010039388054366" lon="10.699354591760837"><ele>35.0</ele><time>2026-04-19T11:25:28Z</time></trkpt><trkpt lat="43.00995468141231" lon="10.699481477151117"><ele>35.0</ele><time>2026-04-19T11:25:29Z</time></trkpt><trkpt lat="43.00986802906571" lon="10.699578719116438"><ele>35.166666666666664</ele><time>2026-04-19T11:25:30Z</time></trkpt><trkpt lat="43.009811980503386" lon="10.699640987107575"><ele>35.33333333333333</ele><time>2026-04-19T11:25:31Z</time></trkpt><trkpt lat="43.009863972657804" lon="10.699810673786192"><ele>35.5</ele><time>2026-04-19T11:25:33Z</time></trkpt><trkpt lat="43.0099350945953" lon="10.699882495846076"><ele>35.666666666666664</ele><time>2026-04-19T11:25:34Z</time></trkpt><trkpt lat="43.00999984125887" lon="10.699917054135872"><ele>35.833333333333336</ele><time>2026-04-19T11:25:35Z</time></trkpt><trkpt lat="43.01004610426862" lon="10.699852834848038"><ele>36.0</ele><time>2026-04-19T11:25:36Z</time></trkpt><trkpt lat="43.010086643905254" lon="10.6997553385832"><ele>36.0</ele><time>2026-04-19T11:25:37Z</time></trkpt><trkpt lat="43.01011423299372" lon="10.699603640102875"><ele>36.0</ele><time>2026-04-19T11:25:38Z</time></trkpt><trkpt lat="43.01016004679116" lon="10.699456297212384"><ele>36.0</ele><time>2026-04-19T11:25:39Z</time></trkpt><trkpt lat="43.01023024841196" lon="10.699373112866441"><ele>36.0</ele><time>2026-04-19T11:25:40Z</time></trkpt><trkpt lat="43.010378610645546" lon="10.699332732869594"><ele>36.0</ele><time>2026-04-19T11:25:41Z</time></trkpt><trkpt lat="43.010514634367716" lon="10.699293830731555"><ele>36.0</ele><time>2026-04-19T11:25:42Z</time></trkpt><trkpt lat="43.010604937546894" lon="10.699336224245279"><ele>36.0</ele><time>2026-04-19T11:25:43Z</time></trkpt><trkpt lat="43.0106770846072" lon="10.699435379725116"><ele>36.0</ele><time>2026-04-19T11:25:44Z</time></trkpt><trkpt lat="43.01073330932203" lon="10.699556903512452"><ele>36.0</ele><time>2026-04-19T11:25:45Z</time></trkpt><trkpt lat="43.01073158183889" lon="10.699672439348218"><ele>36.0</ele><time>2026-04-19T11:25:46Z</time></trkpt><trkpt lat="43.01069596245794" lon="10.699793666398271"><ele>36.0</ele><time>2026-04-19T11:25:47Z</time></trkpt><trkpt lat="43.01065487856083" lon="10.699870466068349"><ele>36.0</ele><time>2026-04-19T11:25:48Z</time></trkpt><trkpt lat="43.0105740733418" lon="10.699867090698055"><ele>36.0</ele><time>2026-04-19T11:25:49Z</time></trkpt><trkpt lat="43.01046634968138" lon="10.699817420677684"><ele>36.0</ele><time>2026-04-19T11:25:50Z</time></trkpt><trkpt lat="43.01033159601369" lon="10.699763151278637"><ele>36.0</ele><time>2026-04-19T11:25:51Z</time></trkpt><trkpt lat="43.010262938993186" lon="10.699763180519385"><ele>36.0</ele><time>2026-04-19T11:25:52Z</time></trkpt><trkpt lat="43.01026944260517" lon="10.69989506212854"><ele>36.0</ele><time>2026-04-19T11:25:54Z</time></trkpt><trkpt lat="43.010319875812186" lon="10.700024757299357"><ele>36.0</ele><time>2026-04-19T11:25:55Z</time></trkpt><trkpt lat="43.01039873837195" lon="10.70016596203111"><ele>36.0</ele><time>2026-04-19T11:25:56Z</time></trkpt><trkpt lat="43.01049320974258" lon="10.70026264200241"><ele>36.0</ele><time>2026-04-19T11:25:57Z</time></trkpt><trkpt lat="43.01063749986806" lon="10.700314525032848"><ele>36.0</ele><time>2026-04-19T11:25:58Z</time></trkpt><trkpt lat="43.010795873091986" lon="10.700353653059025"><ele>36.0</ele><time>2026-04-19T11:25:59Z</time></trkpt><trkpt lat="43.01097924212243" lon="10.700383926011622"><ele>34.333333333333336</ele><time>2026-04-19T11:26:00Z</time></trkpt><trkpt lat="43.01115450772311" lon="10.70047319832823"><ele>32.66666666666667</ele><time>2026-04-19T11:26:01Z</time></trkpt><trkpt lat="43.01131200780802" lon="10.700607713476167"><ele>31.0</ele><time>2026-04-19T11:26:02Z</time></trkpt><trkpt lat="43.011462943553404" lon="10.700767541818498"><ele>31.0</ele><time>2026-04-19T11:26:03Z</time></trkpt><trkpt lat="43.01158160662443" lon="10.700893559950146"><ele>31.0</ele><time>2026-04-19T11:26:04Z</time></trkpt><trkpt lat="43.011656801429424" lon="10.700991644248926"><ele>31.0</ele><time>2026-04-19T11:26:05Z</time></trkpt><trkpt lat="43.01171451639623" lon="10.701104514747417"><ele>31.0</ele><time>2026-04-19T11:26:06Z</time></trkpt><trkpt lat="43.011758312877916" lon="10.701282821149743"><ele>31.200000000000003</ele><time>2026-04-19T11:26:07Z</time></trkpt><trkpt lat="43.01176202126148" lon="10.701435450860616"><ele>31.400000000000002</ele><time>2026-04-19T11:26:08Z</time></trkpt><trkpt lat="43.011720260755546" lon="10.701552545544049"><ele>31.6</ele><time>2026-04-19T11:26:09Z</time></trkpt><trkpt lat="43.01163343301068" lon="10.701655961846813"><ele>31.8</ele><time>2026-04-19T11:26:10Z</time></trkpt><trkpt lat="43.01152858078249" lon="10.701711233267181"><ele>32.0</ele><time>2026-04-19T11:26:11Z</time></trkpt><trkpt lat="43.01142723255232" lon="10.701703606351186"><ele>32.0</ele><time>2026-04-19T11:26:12Z</time></trkpt><trkpt lat="43.01132148424322" lon="10.70164905559439"><ele>32.0</ele><time>2026-04-19T11:26:13Z</time></trkpt><trkpt lat="43.011243830358296" lon="10.701557068912305"><ele>32.0</ele><time>2026-04-19T11:26:14Z</time></trkpt><trkpt lat="43.011215357975615" lon="10.701438567648816"><ele>32.0</ele><time>2026-04-19T11:26:15Z</time></trkpt><trkpt lat="43.011205556386415" lon="10.70127947819244"><ele>32.0</ele><time>2026-04-19T11:26:16Z</time></trkpt><trkpt lat="43.01119287061034" lon="10.701082719881098"><ele>31.75</ele><time>2026-04-19T11:26:17Z</time></trkpt><trkpt lat="43.01116697076452" lon="10.700897246411303"><ele>31.5</ele><time>2026-04-19T11:26:18Z</time></trkpt><trkpt lat="43.0111138523534" lon="10.700756157452814"><ele>31.25</ele><time>2026-04-19T11:26:19Z</time></trkpt><trkpt lat="43.011032027005584" lon="10.70064955440572"><ele>31.0</ele><time>2026-04-19T11:26:20Z</time></trkpt><trkpt lat="43.01094149141871" lon="10.700573672337757"><ele>31.000000000000004</ele><time>2026-04-19T11:26:21Z</time></trkpt><trkpt lat="43.01083588393376" lon="10.700542918830903"><ele>31.0</ele><time>2026-04-19T11:26:22Z</time></trkpt><trkpt lat="43.01075281463371" lon="10.700574093519736"><ele>31.0</ele><time>2026-04-19T11:26:23Z</time></trkpt><trkpt lat="43.010700463075054" lon="10.700654789646713"><ele>31.0</ele><time>2026-04-19T11:26:24Z</time></trkpt><trkpt lat="43.01068453262369" lon="10.700750319132558"><ele>31.000000000000004</ele><time>2026-04-19T11:26:25Z</time></trkpt><trkpt lat="43.01071574115828" lon="10.700883947618753"><ele>31.0</ele><time>2026-04-19T11:26:26Z</time></trkpt><trkpt lat="43.01077711408935" lon="10.701057933464424"><ele>31.333333333333336</ele><time>2026-04-19T11:26:27Z</time></trkpt><trkpt lat="43.010864019095386" lon="10.70124724923973"><ele>31.666666666666664</ele><time>2026-04-19T11:26:28Z</time></trkpt><trkpt lat="43.01094306064368" lon="10.701460450763301"><ele>32.0</ele><time>2026-04-19T11:26:29Z</time></trkpt><trkpt lat="43.01098538087197" lon="10.701662942731797"><ele>32.0</ele><time>2026-04-19T11:26:30Z</time></trkpt><trkpt lat="43.011058332425435" lon="10.701866180342668"><ele>32.0</ele><time>2026-04-19T11:26:31Z</time></trkpt><trkpt lat="43.011138893387326" lon="10.702073142447832"><ele>32.0</ele><time>2026-04-19T11:26:32Z</time></trkpt><trkpt lat="43.011189914965925" lon="10.702202026987322"><ele>32.0</ele><time>2026-04-19T11:26:33Z</time></trkpt><trkpt lat="43.01123724182778" lon="10.70227111151513"><ele>32.2</ele><time>2026-04-19T11:26:34Z</time></trkpt><trkpt lat="43.0113300158521" lon="10.702240060801202"><ele>32.400000000000006</ele><time>2026-04-19T11:26:36Z</time></trkpt><trkpt lat="43.01140002291543" lon="10.702142529022625"><ele>32.599999999999994</ele><time>2026-04-19T11:26:37Z</time></trkpt><trkpt lat="43.01147902146583" lon="10.702004216645747"><ele>32.8</ele><time>2026-04-19T11:26:38Z</time></trkpt><trkpt lat="43.01157158282303" lon="10.701943656197166"><ele>33.0</ele><time>2026-04-19T11:26:39Z</time></trkpt><trkpt lat="43.011688454673475" lon="10.701932371737778"><ele>33.0</ele><time>2026-04-19T11:26:40Z</time></trkpt><trkpt lat="43.01180181281829" lon="10.701927371949562"><ele>33.0</ele><time>2026-04-19T11:26:41Z</time></trkpt><trkpt lat="43.01187782386445" lon="10.701887488221741"><ele>33.0</ele><time>2026-04-19T11:26:42Z</time></trkpt><trkpt lat="43.011927089009134" lon="10.701823303242008"><ele>33.0</ele><time>2026-04-19T11:26:43Z</time></trkpt><trkpt lat="43.01194589609112" lon="10.701723014888294"><ele>33.0</ele><time>2026-04-19T11:26:44Z</time></trkpt><trkpt lat="43.011942840621394" lon="10.70162063726495"><ele>33.0</ele><time>2026-04-19T11:26:45Z</time></trkpt><trkpt lat="43.01195229250754" lon="10.701492775463056"><ele>33.0</ele><time>2026-04-19T11:26:46Z</time></trkpt><trkpt lat="43.01198114774212" lon="10.70127932623743"><ele>33.0</ele><time>2026-04-19T11:26:47Z</time></trkpt><trkpt lat="43.011977240665495" lon="10.701057965927296"><ele>33.0</ele><time>2026-04-19T11:26:48Z</time></trkpt><trkpt lat="43.0119629004462" lon="10.700868532231155"><ele>32.75</ele><time>2026-04-19T11:26:49Z</time></trkpt><trkpt lat="43.01192331282553" lon="10.700707826682851"><ele>32.5</ele><time>2026-04-19T11:26:50Z</time></trkpt><trkpt lat="43.01187516573588" lon="10.700579302591496"><ele>32.25</ele><time>2026-04-19T11:26:51Z</time></trkpt><trkpt lat="43.01177215909751" lon="10.700515431356104"><ele>32.0</ele><time>2026-04-19T11:26:52Z</time></trkpt><trkpt lat="43.01163225045006" lon="10.700426444011926"><ele>31.75</ele><time>2026-04-19T11:26:53Z</time></trkpt><trkpt lat="43.01149786799637" lon="10.700336671768092"><ele>31.5</ele><time>2026-04-19T11:26:54Z</time></trkpt><trkpt lat="43.01137216516389" lon="10.700220817917343"><ele>31.25</ele><time>2026-04-19T11:26:55Z</time></trkpt><trkpt lat="43.011303408468585" lon="10.700106738002294"><ele>31.0</ele><time>2026-04-19T11:26:56Z</time></trkpt><trkpt lat="43.01124074262026" lon="10.699973908764077"><ele>31.4</ele><time>2026-04-19T11:26:57Z</time></trkpt><trkpt lat="43.011167084684146" lon="10.699853100490518"><ele>31.8</ele><time>2026-04-19T11:26:58Z</time></trkpt><trkpt lat="43.01110766861187" lon="10.699719678448984"><ele>32.199999999999996</ele><time>2026-04-19T11:26:59Z</time></trkpt><trkpt lat="43.0111204967749" lon="10.699578494144303"><ele>32.6</ele><time>2026-04-19T11:27:01Z</time></trkpt><trkpt lat="43.011157232234076" lon="10.699439505709115"><ele>33.0</ele><time>2026-04-19T11:27:02Z</time></trkpt><trkpt lat="43.01118240962392" lon="10.699327608485914"><ele>33.0</ele><time>2026-04-19T11:27:03Z</time></trkpt><trkpt lat="43.01110641150702" lon="10.699219214733436"><ele>33.0</ele><time>2026-04-19T11:27:05Z</time></trkpt><trkpt lat="43.01102825823722" lon="10.69916690324369"><ele>33.0</ele><time>2026-04-19T11:27:06Z</time></trkpt><trkpt lat="43.01102945642135" lon="10.699008679823816"><ele>33.0</ele><time>2026-04-19T11:27:08Z</time></trkpt><trkpt lat="43.011096176958404" lon="10.698932158335031"><ele>33.0</ele><time>2026-04-19T11:27:09Z</time></trkpt><trkpt lat="43.011163460990375" lon="10.69888074120867"><ele>33.0</ele><time>2026-04-19T11:27:10Z</time></trkpt><trkpt lat="43.01124361750195" lon="10.698830028991893"><ele>33.0</ele><time>2026-04-19T11:27:11Z</time></trkpt><trkpt lat="43.01133098154133" lon="10.698756613301153"><ele>33.0</ele><time>2026-04-19T11:27:12Z</time></trkpt><trkpt lat="43.01138510126268" lon="10.698608308673277"><ele>33.0</ele><time>2026-04-19T11:27:13Z</time></trkpt><trkpt lat="43.01142300922387" lon="10.698430581971838"><ele>33.0</ele><time>2026-04-19T11:27:14Z</time></trkpt><trkpt lat="43.01144102570348" lon="10.698232016250106"><ele>32.5</ele><time>2026-04-19T11:27:15Z</time></trkpt><trkpt lat="43.01146606016766" lon="10.698020937706136"><ele>32.0</ele><time>2026-04-19T11:27:16Z</time></trkpt><trkpt lat="43.011512605372396" lon="10.697822712822315"><ele>31.5</ele><time>2026-04-19T11:27:17Z</time></trkpt><trkpt lat="43.01157997234403" lon="10.697654565814286"><ele>31.0</ele><time>2026-04-19T11:27:18Z</time></trkpt><trkpt lat="43.011624952734955" lon="10.697520871452149"><ele>30.8</ele><time>2026-04-19T11:27:19Z</time></trkpt><trkpt lat="43.01167307060253" lon="10.6973641894129"><ele>30.6</ele><time>2026-04-19T11:27:20Z</time></trkpt><trkpt lat="43.01172958969012" lon="10.69719699505686"><ele>30.4</ele><time>2026-04-19T11:27:21Z</time></trkpt><trkpt lat="43.01178906417378" lon="10.697062528438364"><ele>30.2</ele><time>2026-04-19T11:27:22Z</time></trkpt><trkpt lat="43.01183927295628" lon="10.696997013264083"><ele>30.0</ele><time>2026-04-19T11:27:23Z</time></trkpt><trkpt lat="43.011904263290575" lon="10.696976677065926"><ele>30.0</ele><time>2026-04-19T11:27:24Z</time></trkpt><trkpt lat="43.012022038546206" lon="10.696982185338758"><ele>30.0</ele><time>2026-04-19T11:27:25Z</time></trkpt><trkpt lat="43.01216349435759" lon="10.697014769426925"><ele>30.0</ele><time>2026-04-19T11:27:26Z</time></trkpt><trkpt lat="43.012265746339004" lon="10.697077309807622"><ele>30.0</ele><time>2026-04-19T11:27:27Z</time></trkpt><trkpt lat="43.01231371447627" lon="10.697144520005356"><ele>30.0</ele><time>2026-04-19T11:27:28Z</time></trkpt><trkpt lat="43.01232789651921" lon="10.69725251420826"><ele>30.0</ele><time>2026-04-19T11:27:29Z</time></trkpt><trkpt lat="43.01232253850973" lon="10.69738036849575"><ele>30.0</ele><time>2026-04-19T11:27:30Z</time></trkpt><trkpt lat="43.01228526911053" lon="10.697483007925058"><ele>30.0</ele><time>2026-04-19T11:27:31Z</time></trkpt><trkpt lat="43.012203034890504" lon="10.697581393114525"><ele>30.0</ele><time>2026-04-19T11:27:32Z</time></trkpt><trkpt lat="43.01208250582747" lon="10.697668079180215"><ele>30.0</ele><time>2026-04-19T11:27:33Z</time></trkpt><trkpt lat="43.011953937665226" lon="10.697764103831792"><ele>30.0</ele><time>2026-04-19T11:27:34Z</time></trkpt><trkpt lat="43.01184466807899" lon="10.697882745127115"><ele>30.0</ele><time>2026-04-19T11:27:35Z</time></trkpt><trkpt lat="43.011743596465514" lon="10.69803864357562"><ele>30.0</ele><time>2026-04-19T11:27:36Z</time></trkpt><trkpt lat="43.01167150132735" lon="10.698170553670193"><ele>30.0</ele><time>2026-04-19T11:27:37Z</time></trkpt><trkpt lat="43.01161864927562" lon="10.698288275174825"><ele>30.0</ele><time>2026-04-19T11:27:38Z</time></trkpt><trkpt lat="43.01160257775676" lon="10.698428260073928"><ele>30.0</ele><time>2026-04-19T11:27:39Z</time></trkpt><trkpt lat="43.011597317103934" lon="10.698607714277617"><ele>30.0</ele><time>2026-04-19T11:27:40Z</time></trkpt><trkpt lat="43.01161365133011" lon="10.698793397880268"><ele>30.0</ele><time>2026-04-19T11:27:41Z</time></trkpt><trkpt lat="43.01164580331207" lon="10.698954506335387"><ele>30.0</ele><time>2026-04-19T11:27:42Z</time></trkpt><trkpt lat="43.01171654604873" lon="10.699096686507888"><ele>30.0</ele><time>2026-04-19T11:27:43Z</time></trkpt><trkpt lat="43.01180679540997" lon="10.699255349015848"><ele>30.0</ele><time>2026-04-19T11:27:44Z</time></trkpt><trkpt lat="43.01190596165154" lon="10.699407880160901"><ele>30.0</ele><time>2026-04-19T11:27:45Z</time></trkpt><trkpt lat="43.011962969918606" lon="10.699520070086676"><ele>30.0</ele><time>2026-04-19T11:27:46Z</time></trkpt><trkpt lat="43.01197224190193" lon="10.699606765009545"><ele>30.0</ele><time>2026-04-19T11:27:47Z</time></trkpt><trkpt lat="43.01195756983353" lon="10.699699684871886"><ele>30.0</ele><time>2026-04-19T11:27:48Z</time></trkpt><trkpt lat="43.011915193271655" lon="10.699785640028063"><ele>30.0</ele><time>2026-04-19T11:27:49Z</time></trkpt><trkpt lat="43.01184995883788" lon="10.69979530620555"><ele>30.0</ele><time>2026-04-19T11:27:50Z</time></trkpt><trkpt lat="43.011768841566685" lon="10.699706071876937"><ele>30.0</ele><time>2026-04-19T11:27:51Z</time></trkpt><trkpt lat="43.01170599721725" lon="10.699580770466424"><ele>30.75</ele><time>2026-04-19T11:27:52Z</time></trkpt><trkpt lat="43.01164280258153" lon="10.69939251507988"><ele>31.5</ele><time>2026-04-19T11:27:53Z</time></trkpt><trkpt lat="43.011587732986776" lon="10.699233298084653"><ele>32.25</ele><time>2026-04-19T11:27:54Z</time></trkpt><trkpt lat="43.01153512600404" lon="10.699172490988712"><ele>33.0</ele><time>2026-04-19T11:27:55Z</time></trkpt><trkpt lat="43.011410414268504" lon="10.699184071713828"><ele>33.0</ele><time>2026-04-19T11:27:57Z</time></trkpt><trkpt lat="43.0113736421729" lon="10.699283884818824"><ele>33.0</ele><time>2026-04-19T11:27:58Z</time></trkpt><trkpt lat="43.01137887540617" lon="10.699408740002232"><ele>33.0</ele><time>2026-04-19T11:27:59Z</time></trkpt><trkpt lat="43.011415086126256" lon="10.699530964066426"><ele>33.0</ele><time>2026-04-19T11:28:00Z</time></trkpt><trkpt lat="43.0114654396453" lon="10.699680808969765"><ele>33.0</ele><time>2026-04-19T11:28:01Z</time></trkpt><trkpt lat="43.01152874212959" lon="10.699878097634098"><ele>33.0</ele><time>2026-04-19T11:28:02Z</time></trkpt><trkpt lat="43.01164027722791" lon="10.700033364149661"><ele>33.0</ele><time>2026-04-19T11:28:03Z</time></trkpt><trkpt lat="43.01175649558688" lon="10.700204328575756"><ele>33.0</ele><time>2026-04-19T11:28:04Z</time></trkpt><trkpt lat="43.01185129083646" lon="10.700335359719126"><ele>32.8</ele><time>2026-04-19T11:28:05Z</time></trkpt><trkpt lat="43.011904619147145" lon="10.700398852546192"><ele>32.599999999999994</ele><time>2026-04-19T11:28:06Z</time></trkpt><trkpt lat="43.0120456928502" lon="10.700337043065746"><ele>32.400000000000006</ele><time>2026-04-19T11:28:08Z</time></trkpt><trkpt lat="43.01209192615394" lon="10.70023827916903"><ele>32.2</ele><time>2026-04-19T11:28:09Z</time></trkpt><trkpt lat="43.012122913764884" lon="10.700074642345477"><ele>32.0</ele><time>2026-04-19T11:28:10Z</time></trkpt><trkpt lat="43.01214953177173" lon="10.699869296258097"><ele>31.333333333333332</ele><time>2026-04-19T11:28:11Z</time></trkpt><trkpt lat="43.01215832974054" lon="10.699654437018502"><ele>30.666666666666664</ele><time>2026-04-19T11:28:12Z</time></trkpt><trkpt lat="43.01213151243536" lon="10.699464117195928"><ele>30.0</ele><time>2026-04-19T11:28:13Z</time></trkpt><trkpt lat="43.01207783619788" lon="10.699266845066465"><ele>30.0</ele><time>2026-04-19T11:28:14Z</time></trkpt><trkpt lat="43.01202603645647" lon="10.699066802550815"><ele>30.0</ele><time>2026-04-19T11:28:15Z</time></trkpt><trkpt lat="43.011978642860015" lon="10.698886739956645"><ele>30.0</ele><time>2026-04-19T11:28:16Z</time></trkpt><trkpt lat="43.01192530515784" lon="10.698716563033122"><ele>30.0</ele><time>2026-04-19T11:28:17Z</time></trkpt><trkpt lat="43.0118636102765" lon="10.698567143722295"><ele>30.0</ele><time>2026-04-19T11:28:18Z</time></trkpt><trkpt lat="43.01186815370971" lon="10.698460095661419"><ele>30.0</ele><time>2026-04-19T11:28:19Z</time></trkpt><trkpt lat="43.01189328279486" lon="10.698337871952402"><ele>30.0</ele><time>2026-04-19T11:28:20Z</time></trkpt><trkpt lat="43.01194362875694" lon="10.69825662078403"><ele>30.0</ele><time>2026-04-19T11:28:21Z</time></trkpt><trkpt lat="43.012089238770706" lon="10.698294088197786"><ele>30.0</ele><time>2026-04-19T11:28:23Z</time></trkpt><trkpt lat="43.0121416735615" lon="10.69838602953497"><ele>30.0</ele><time>2026-04-19T11:28:24Z</time></trkpt><trkpt lat="43.01216552157564" lon="10.698523464022362"><ele>30.0</ele><time>2026-04-19T11:28:25Z</time></trkpt><trkpt lat="43.01216788804226" lon="10.698693347535501"><ele>30.0</ele><time>2026-04-19T11:28:26Z</time></trkpt><trkpt lat="43.012164873032816" lon="10.698872565593668"><ele>30.0</ele><time>2026-04-19T11:28:27Z</time></trkpt><trkpt lat="43.01219965604985" lon="10.698979955986053"><ele>30.0</ele><time>2026-04-19T11:28:28Z</time></trkpt><trkpt lat="43.01231806855518" lon="10.698928047516427"><ele>30.0</ele><time>2026-04-19T11:28:30Z</time></trkpt><trkpt lat="43.01236912885701" lon="10.698807639889994"><ele>30.0</ele><time>2026-04-19T11:28:31Z</time></trkpt><trkpt lat="43.01238703389379" lon="10.698678943028474"><ele>30.0</ele><time>2026-04-19T11:28:32Z</time></trkpt><trkpt lat="43.012367989999525" lon="10.698528611531529"><ele>30.0</ele><time>2026-04-19T11:28:33Z</time></trkpt><trkpt lat="43.01231458415615" lon="10.69836221912985"><ele>30.0</ele><time>2026-04-19T11:28:34Z</time></trkpt><trkpt lat="43.01225330308897" lon="10.69817199353834"><ele>30.0</ele><time>2026-04-19T11:28:35Z</time></trkpt><trkpt lat="43.01222148356429" lon="10.698020986651661"><ele>30.0</ele><time>2026-04-19T11:28:36Z</time></trkpt><trkpt lat="43.01222806200339" lon="10.697918226409149"><ele>30.0</ele><time>2026-04-19T11:28:37Z</time></trkpt><trkpt lat="43.01226266030429" lon="10.697808640933983"><ele>30.0</ele><time>2026-04-19T11:28:38Z</time></trkpt><trkpt lat="43.01234154155508" lon="10.697665119359401"><ele>30.0</ele><time>2026-04-19T11:28:39Z</time></trkpt><trkpt lat="43.012430601666104" lon="10.697508983347554"><ele>29.75</ele><time>2026-04-19T11:28:40Z</time></trkpt><trkpt lat="43.012530728774024" lon="10.697365622570242"><ele>29.5</ele><time>2026-04-19T11:28:41Z</time></trkpt><trkpt lat="43.012612678113044" lon="10.697232087564384"><ele>29.25</ele><time>2026-04-19T11:28:42Z</time></trkpt><trkpt lat="43.012673860385" lon="10.69711321305418"><ele>29.0</ele><time>2026-04-19T11:28:43Z</time></trkpt><trkpt lat="43.01271019504516" lon="10.69696978906851"><ele>28.799999999999997</ele><time>2026-04-19T11:28:44Z</time></trkpt><trkpt lat="43.01272190503915" lon="10.696814473381357"><ele>28.599999999999998</ele><time>2026-04-19T11:28:45Z</time></trkpt><trkpt lat="43.012692691443426" lon="10.696735874290278"><ele>28.4</ele><time>2026-04-19T11:28:46Z</time></trkpt><trkpt lat="43.01257305996637" lon="10.696738379069124"><ele>28.2</ele><time>2026-04-19T11:28:48Z</time></trkpt><trkpt lat="43.01246114948566" lon="10.696763726426624"><ele>28.0</ele><time>2026-04-19T11:28:49Z</time></trkpt><trkpt lat="43.01231159270916" lon="10.696746962695881"><ele>28.5</ele><time>2026-04-19T11:28:50Z</time></trkpt><trkpt lat="43.012228360116325" lon="10.696677457412735"><ele>29.0</ele><time>2026-04-19T11:28:51Z</time></trkpt><trkpt lat="43.012242125702194" lon="10.696503735658814"><ele>29.5</ele><time>2026-04-19T11:28:53Z</time></trkpt><trkpt lat="43.01232033379892" lon="10.696385149952654"><ele>30.0</ele><time>2026-04-19T11:28:54Z</time></trkpt><trkpt lat="43.01243066707477" lon="10.696265434128843"><ele>29.75</ele><time>2026-04-19T11:28:55Z</time></trkpt><trkpt lat="43.012556249052174" lon="10.69619236330278"><ele>29.5</ele><time>2026-04-19T11:28:56Z</time></trkpt><trkpt lat="43.012661737787866" lon="10.69607548925604"><ele>29.25</ele><time>2026-04-19T11:28:57Z</time></trkpt><trkpt lat="43.012710470669546" lon="10.696001959760451"><ele>29.0</ele><time>2026-04-19T11:28:58Z</time></trkpt><trkpt lat="43.01271953150831" lon="10.695805442995095"><ele>29.0</ele><time>2026-04-19T11:29:00Z</time></trkpt><trkpt lat="43.012724278657146" lon="10.695606981121523"><ele>29.0</ele><time>2026-04-19T11:29:01Z</time></trkpt><trkpt lat="43.01274109166758" lon="10.695429405322935"><ele>29.0</ele><time>2026-04-19T11:29:02Z</time></trkpt><trkpt lat="43.01278486103488" lon="10.695308568602837"><ele>29.0</ele><time>2026-04-19T11:29:03Z</time></trkpt><trkpt lat="43.012775102481086" lon="10.695210595111869"><ele>29.0</ele><time>2026-04-19T11:29:04Z</time></trkpt><trkpt lat="43.01270084196795" lon="10.695204444261547"><ele>29.0</ele><time>2026-04-19T11:29:06Z</time></trkpt><trkpt lat="43.012641791829644" lon="10.695267084906407"><ele>29.0</ele><time>2026-04-19T11:29:07Z</time></trkpt><trkpt lat="43.012584109108424" lon="10.695368372683161"><ele>29.0</ele><time>2026-04-19T11:29:08Z</time></trkpt><trkpt lat="43.012537285952455" lon="10.695540349377872"><ele>29.0</ele><time>2026-04-19T11:29:09Z</time></trkpt><trkpt lat="43.0124924653978" lon="10.695689547084205"><ele>29.0</ele><time>2026-04-19T11:29:10Z</time></trkpt><trkpt lat="43.01243261277279" lon="10.695785490822939"><ele>29.0</ele><time>2026-04-19T11:29:11Z</time></trkpt><trkpt lat="43.0123668348863" lon="10.695772468401069"><ele>29.0</ele><time>2026-04-19T11:29:12Z</time></trkpt><trkpt lat="43.012303584153756" lon="10.695716038939441"><ele>29.0</ele><time>2026-04-19T11:29:13Z</time></trkpt><trkpt lat="43.0122512019519" lon="10.695602394672107"><ele>29.0</ele><time>2026-04-19T11:29:14Z</time></trkpt><trkpt lat="43.01223794821786" lon="10.695471118528568"><ele>29.0</ele><time>2026-04-19T11:29:15Z</time></trkpt><trkpt lat="43.01227998819372" lon="10.695321040803215"><ele>28.75</ele><time>2026-04-19T11:29:16Z</time></trkpt><trkpt lat="43.01233987781952" lon="10.695161956755467"><ele>28.5</ele><time>2026-04-19T11:29:17Z</time></trkpt><trkpt lat="43.01239647501555" lon="10.694996901183366"><ele>28.25</ele><time>2026-04-19T11:29:18Z</time></trkpt><trkpt lat="43.01241580961818" lon="10.694849291942983"><ele>28.0</ele><time>2026-04-19T11:29:19Z</time></trkpt><trkpt lat="43.01240865292741" lon="10.694699595553265"><ele>28.0</ele><time>2026-04-19T11:29:20Z</time></trkpt><trkpt lat="43.01237402548099" lon="10.694543222029312"><ele>28.0</ele><time>2026-04-19T11:29:21Z</time></trkpt><trkpt lat="43.01233280099863" lon="10.694367462295453"><ele>28.0</ele><time>2026-04-19T11:29:22Z</time></trkpt><trkpt lat="43.012318367992336" lon="10.694161161312328"><ele>28.0</ele><time>2026-04-19T11:29:23Z</time></trkpt><trkpt lat="43.012307721315416" lon="10.694028903422042"><ele>27.5</ele><time>2026-04-19T11:29:24Z</time></trkpt><trkpt lat="43.01233644632371" lon="10.693950891530005"><ele>27.0</ele><time>2026-04-19T11:29:25Z</time></trkpt><trkpt lat="43.01248832953123" lon="10.693906710356405"><ele>26.5</ele><time>2026-04-19T11:29:27Z</time></trkpt><trkpt lat="43.01261124482414" lon="10.693943430751583"><ele>26.0</ele><time>2026-04-19T11:29:28Z</time></trkpt><trkpt lat="43.01270996860386" lon="10.694012406209575"><ele>26.0</ele><time>2026-04-19T11:29:29Z</time></trkpt><trkpt lat="43.012704644577106" lon="10.694164839642019"><ele>26.0</ele><time>2026-04-19T11:29:31Z</time></trkpt><trkpt lat="43.01264835724637" lon="10.694334085368984"><ele>26.0</ele><time>2026-04-19T11:29:32Z</time></trkpt><trkpt lat="43.01258373899061" lon="10.69452473031283"><ele>26.0</ele><time>2026-04-19T11:29:33Z</time></trkpt><trkpt lat="43.012556687115406" lon="10.694688872254172"><ele>26.200000000000003</ele><time>2026-04-19T11:29:34Z</time></trkpt><trkpt lat="43.01254729922415" lon="10.694823421278482"><ele>26.400000000000002</ele><time>2026-04-19T11:29:35Z</time></trkpt><trkpt lat="43.01256196845504" lon="10.694942248468477"><ele>26.6</ele><time>2026-04-19T11:29:36Z</time></trkpt><trkpt lat="43.012685680071336" lon="10.695031013391047"><ele>26.8</ele><time>2026-04-19T11:29:38Z</time></trkpt><trkpt lat="43.012787792638015" lon="10.6949911459617"><ele>27.0</ele><time>2026-04-19T11:29:39Z</time></trkpt><trkpt lat="43.01284680200542" lon="10.694900767760865"><ele>27.0</ele><time>2026-04-19T11:29:40Z</time></trkpt><trkpt lat="43.0128768303751" lon="10.694748764061687"><ele>27.0</ele><time>2026-04-19T11:29:41Z</time></trkpt><trkpt lat="43.01289566934251" lon="10.694559085959153"><ele>27.0</ele><time>2026-04-19T11:29:42Z</time></trkpt><trkpt lat="43.012898571480775" lon="10.694373222987243"><ele>27.0</ele><time>2026-04-19T11:29:43Z</time></trkpt><trkpt lat="43.012878989305655" lon="10.69419640199253"><ele>26.8</ele><time>2026-04-19T11:29:44Z</time></trkpt><trkpt lat="43.01281768658123" lon="10.694018195586658"><ele>26.6</ele><time>2026-04-19T11:29:45Z</time></trkpt><trkpt lat="43.012739675512265" lon="10.693869082557333"><ele>26.400000000000002</ele><time>2026-04-19T11:29:46Z</time></trkpt><trkpt lat="43.01270765414748" lon="10.693769221078064"><ele>26.200000000000003</ele><time>2026-04-19T11:29:47Z</time></trkpt><trkpt lat="43.012653440727576" lon="10.693698752061117"><ele>26.0</ele><time>2026-04-19T11:29:48Z</time></trkpt><trkpt lat="43.01253030683739" lon="10.693635804447892"><ele>25.8</ele><time>2026-04-19T11:29:49Z</time></trkpt><trkpt lat="43.01243261615763" lon="10.69356681778836"><ele>25.6</ele><time>2026-04-19T11:29:50Z</time></trkpt><trkpt lat="43.0124415205908" lon="10.693440702359672"><ele>25.4</ele><time>2026-04-19T11:29:52Z</time></trkpt><trkpt lat="43.012499806064895" lon="10.693400405723802"><ele>25.2</ele><time>2026-04-19T11:29:53Z</time></trkpt><trkpt lat="43.01258015358748" lon="10.693425135718195"><ele>25.0</ele><time>2026-04-19T11:29:54Z</time></trkpt><trkpt lat="43.01266169859723" lon="10.69353234766276"><ele>25.166666666666668</ele><time>2026-04-19T11:29:55Z</time></trkpt><trkpt lat="43.0127720147791" lon="10.693626976775105"><ele>25.333333333333336</ele><time>2026-04-19T11:29:56Z</time></trkpt><trkpt lat="43.01285734161367" lon="10.69356987607144"><ele>25.5</ele><time>2026-04-19T11:29:58Z</time></trkpt><trkpt lat="43.01286454794327" lon="10.693479008994851"><ele>25.666666666666664</ele><time>2026-04-19T11:29:59Z</time></trkpt><trkpt lat="43.01284207609712" lon="10.693392184689005"><ele>25.833333333333332</ele><time>2026-04-19T11:30:00Z</time></trkpt><trkpt lat="43.012802712876486" lon="10.693307511962127"><ele>26.0</ele><time>2026-04-19T11:30:01Z</time></trkpt><trkpt lat="43.01268903353126" lon="10.69328212557121"><ele>26.25</ele><time>2026-04-19T11:30:02Z</time></trkpt><trkpt lat="43.012561767994946" lon="10.693214551366026"><ele>26.5</ele><time>2026-04-19T11:30:03Z</time></trkpt><trkpt lat="43.01247249002252" lon="10.69316347792203"><ele>26.75</ele><time>2026-04-19T11:30:04Z</time></trkpt><trkpt lat="43.01258002988188" lon="10.693068501981902"><ele>27.0</ele><time>2026-04-19T11:30:06Z</time></trkpt><trkpt lat="43.012792485857005" lon="10.693133695207772"><ele>27.0</ele><time>2026-04-19T11:30:08Z</time></trkpt><trkpt lat="43.0128973721356" lon="10.693184967418825"><ele>27.0</ele><time>2026-04-19T11:30:09Z</time></trkpt><trkpt lat="43.01298523823666" lon="10.693213240241217"><ele>27.0</ele><time>2026-04-19T11:30:10Z</time></trkpt><trkpt lat="43.01295725914202" lon="10.6931030358146"><ele>27.0</ele><time>2026-04-19T11:30:12Z</time></trkpt><trkpt lat="43.012937026676376" lon="10.693010333490477"><ele>27.0</ele><time>2026-04-19T11:30:16Z</time></trkpt><trkpt lat="43.012878244978324" lon="10.692929516513919"><ele>27.0</ele><time>2026-04-19T11:30:26Z</time></trkpt><trkpt lat="43.01283226699471" lon="10.692868225674266"><ele>27.0</ele><time>2026-04-19T11:30:27Z</time></trkpt><trkpt lat="43.012929382833065" lon="10.692856466634437"><ele>27.0</ele><time>2026-04-19T11:30:29Z</time></trkpt><trkpt lat="43.01299019558887" lon="10.692883772222272"><ele>27.0</ele><time>2026-04-19T11:45:14Z</time></trkpt><trkpt lat="43.01303898019492" lon="10.692973869502083"><ele>27.0</ele><time>2026-04-19T11:46:03Z</time></trkpt><trkpt lat="43.01312288308585" lon="10.6929778186746"><ele>27.0</ele><time>2026-04-19T11:46:05Z</time></trkpt><trkpt lat="43.01323072113401" lon="10.692980306675954"><ele>27.0</ele><time>2026-04-19T11:46:07Z</time></trkpt><trkpt lat="43.01336458972591" lon="10.69298332960595"><ele>26.75</ele><time>2026-04-19T11:46:09Z</time></trkpt><trkpt lat="43.01347903285208" lon="10.693045317062724"><ele>26.5</ele><time>2026-04-19T11:46:10Z</time></trkpt><trkpt lat="43.01359783765892" lon="10.69311119365329"><ele>26.25</ele><time>2026-04-19T11:46:11Z</time></trkpt><trkpt lat="43.0137375369573" lon="10.693171837981708"><ele>26.0</ele><time>2026-04-19T11:46:12Z</time></trkpt><trkpt lat="43.01387749045004" lon="10.693233059800237"><ele>25.999999999999996</ele><time>2026-04-19T11:46:13Z</time></trkpt><trkpt lat="43.013991207223725" lon="10.69328056709341"><ele>26.0</ele><time>2026-04-19T11:46:14Z</time></trkpt><trkpt lat="43.01406528213758" lon="10.693317095789244"><ele>26.0</ele><time>2026-04-19T11:46:15Z</time></trkpt><trkpt lat="43.01412476199415" lon="10.693351051371911"><ele>26.0</ele><time>2026-04-19T11:46:16Z</time></trkpt><trkpt lat="43.01421602950899" lon="10.693348225047371"><ele>25.999999999999996</ele><time>2026-04-19T11:46:18Z</time></trkpt><trkpt lat="43.01424264853075" lon="10.693252323045677"><ele>26.0</ele><time>2026-04-19T11:46:20Z</time></trkpt><trkpt lat="43.0141934877349" lon="10.693112717621238"><ele>25.5</ele><time>2026-04-19T11:46:22Z</time></trkpt><trkpt lat="43.01420899319446" lon="10.692979396191898"><ele>25.0</ele><time>2026-04-19T11:46:23Z</time></trkpt><trkpt lat="43.01424563733774" lon="10.692805320038792"><ele>24.5</ele><time>2026-04-19T11:46:24Z</time></trkpt><trkpt lat="43.014288287800085" lon="10.692601963628208"><ele>24.0</ele><time>2026-04-19T11:46:25Z</time></trkpt><trkpt lat="43.01433228414294" lon="10.692366368582809"><ele>23.666666666666668</ele><time>2026-04-19T11:46:26Z</time></trkpt><trkpt lat="43.01437912009015" lon="10.692105744038937"><ele>23.333333333333336</ele><time>2026-04-19T11:46:27Z</time></trkpt><trkpt lat="43.01443070946456" lon="10.691829004019803"><ele>23.0</ele><time>2026-04-19T11:46:28Z</time></trkpt><trkpt lat="43.01449085380439" lon="10.69153048153537"><ele>23.0</ele><time>2026-04-19T11:46:29Z</time></trkpt><trkpt lat="43.0145446297162" lon="10.691209626900582"><ele>23.0</ele><time>2026-04-19T11:46:30Z</time></trkpt><trkpt lat="43.01460063259243" lon="10.690902751710741"><ele>23.0</ele><time>2026-04-19T11:46:31Z</time></trkpt><trkpt lat="43.01466047354191" lon="10.690609219090666"><ele>23.0</ele><time>2026-04-19T11:46:32Z</time></trkpt><trkpt lat="43.01470871118155" lon="10.69035161425673"><ele>23.0</ele><time>2026-04-19T11:46:33Z</time></trkpt><trkpt lat="43.01475819087561" lon="10.690076723369712"><ele>23.0</ele><time>2026-04-19T11:46:34Z</time></trkpt><trkpt lat="43.01480758878176" lon="10.6898048635339"><ele>23.0</ele><time>2026-04-19T11:46:35Z</time></trkpt><trkpt lat="43.01485982372753" lon="10.68954278897504"><ele>23.0</ele><time>2026-04-19T11:46:36Z</time></trkpt><trkpt lat="43.01490825096938" lon="10.689271044805158"><ele>22.666666666666668</ele><time>2026-04-19T11:46:37Z</time></trkpt><trkpt lat="43.01495676595074" lon="10.689000198171735"><ele>22.333333333333332</ele><time>2026-04-19T11:46:38Z</time></trkpt><trkpt lat="43.015001147456005" lon="10.6887847212481"><ele>22.0</ele><time>2026-04-19T11:46:39Z</time></trkpt><trkpt lat="43.0150368083403" lon="10.688598304761628"><ele>21.6</ele><time>2026-04-19T11:46:40Z</time></trkpt><trkpt lat="43.01507338511587" lon="10.688430617713678"><ele>21.200000000000003</ele><time>2026-04-19T11:46:41Z</time></trkpt><trkpt lat="43.015104810794675" lon="10.688288097059907"><ele>20.8</ele><time>2026-04-19T11:46:42Z</time></trkpt><trkpt lat="43.01513298197343" lon="10.688162731540588"><ele>20.4</ele><time>2026-04-19T11:46:43Z</time></trkpt><trkpt lat="43.015161599989476" lon="10.688015488059495"><ele>20.0</ele><time>2026-04-19T11:46:44Z</time></trkpt><trkpt lat="43.01519444518042" lon="10.687834726600355"><ele>20.0</ele><time>2026-04-19T11:46:45Z</time></trkpt><trkpt lat="43.01523655918025" lon="10.68764874176177"><ele>20.0</ele><time>2026-04-19T11:46:46Z</time></trkpt><trkpt lat="43.015270489312755" lon="10.687450782968"><ele>20.0</ele><time>2026-04-19T11:46:47Z</time></trkpt><trkpt lat="43.01530242012748" lon="10.687264764834445"><ele>20.0</ele><time>2026-04-19T11:46:48Z</time></trkpt><trkpt lat="43.0153272332045" lon="10.687115445943626"><ele>20.0</ele><time>2026-04-19T11:46:49Z</time></trkpt><trkpt lat="43.01533932876341" lon="10.686991358061478"><ele>20.0</ele><time>2026-04-19T11:46:50Z</time></trkpt><trkpt lat="43.01536058327528" lon="10.686861314112232"><ele>20.0</ele><time>2026-04-19T11:46:51Z</time></trkpt><trkpt lat="43.01539665587836" lon="10.686727827458075"><ele>20.0</ele><time>2026-04-19T11:46:52Z</time></trkpt><trkpt lat="43.01542815866252" lon="10.686630885511786"><ele>20.0</ele><time>2026-04-19T11:46:53Z</time></trkpt><trkpt lat="43.01539031705342" lon="10.686487682682623"><ele>20.0</ele><time>2026-04-19T11:46:55Z</time></trkpt><trkpt lat="43.01532758818144" lon="10.686405766284517"><ele>20.0</ele><time>2026-04-19T11:46:56Z</time></trkpt><trkpt lat="43.01533081727875" lon="10.68628220584315"><ele>20.0</ele><time>2026-04-19T11:46:58Z</time></trkpt><trkpt lat="43.01546548725928" lon="10.686256694344998"><ele>20.0</ele><time>2026-04-19T11:47:00Z</time></trkpt><trkpt lat="43.01559538444642" lon="10.686247083264783"><ele>20.0</ele><time>2026-04-19T11:47:01Z</time></trkpt><trkpt lat="43.01574589280733" lon="10.686224565118074"><ele>19.666666666666668</ele><time>2026-04-19T11:47:02Z</time></trkpt><trkpt lat="43.01591454287974" lon="10.68622243804401"><ele>19.333333333333332</ele><time>2026-04-19T11:47:03Z</time></trkpt><trkpt lat="43.01608685948022" lon="10.686186342168776"><ele>19.0</ele><time>2026-04-19T11:47:04Z</time></trkpt><trkpt lat="43.01628233067394" lon="10.686141663692444"><ele>19.0</ele><time>2026-04-19T11:47:05Z</time></trkpt><trkpt lat="43.0164908269044" lon="10.686094052788338"><ele>19.0</ele><time>2026-04-19T11:47:06Z</time></trkpt><trkpt lat="43.01669675606928" lon="10.686047028079686"><ele>19.0</ele><time>2026-04-19T11:47:07Z</time></trkpt><trkpt lat="43.01688306136689" lon="10.68600448455275"><ele>18.75</ele><time>2026-04-19T11:47:08Z</time></trkpt><trkpt lat="43.01703377343151" lon="10.685970068878586"><ele>18.5</ele><time>2026-04-19T11:47:09Z</time></trkpt><trkpt lat="43.01715245634187" lon="10.68594296719686"><ele>18.25</ele><time>2026-04-19T11:47:10Z</time></trkpt><trkpt lat="43.017254726686254" lon="10.68591961338387"><ele>18.0</ele><time>2026-04-19T11:47:11Z</time></trkpt><trkpt lat="43.017367881186864" lon="10.685893774099652"><ele>18.333333333333332</ele><time>2026-04-19T11:47:12Z</time></trkpt><trkpt lat="43.01750400904006" lon="10.685862821010996"><ele>18.666666666666664</ele><time>2026-04-19T11:47:13Z</time></trkpt><trkpt lat="43.017664249589416" lon="10.68582638914655"><ele>19.0</ele><time>2026-04-19T11:47:14Z</time></trkpt><trkpt lat="43.017847874958655" lon="10.685787307440222"><ele>19.0</ele><time>2026-04-19T11:47:15Z</time></trkpt><trkpt lat="43.018044682702865" lon="10.685753903843908"><ele>19.0</ele><time>2026-04-19T11:47:16Z</time></trkpt><trkpt lat="43.018255839608244" lon="10.68571806481251"><ele>19.0</ele><time>2026-04-19T11:47:17Z</time></trkpt><trkpt lat="43.018455888658664" lon="10.685684111067534"><ele>18.75</ele><time>2026-04-19T11:47:18Z</time></trkpt><trkpt lat="43.018624315566214" lon="10.685655623235917"><ele>18.5</ele><time>2026-04-19T11:47:19Z</time></trkpt><trkpt lat="43.01875626872833" lon="10.685633989827254"><ele>18.25</ele><time>2026-04-19T11:47:20Z</time></trkpt><trkpt lat="43.01887079471464" lon="10.685615662324398"><ele>18.0</ele><time>2026-04-19T11:47:21Z</time></trkpt><trkpt lat="43.01896496181099" lon="10.685602502083281"><ele>18.0</ele><time>2026-04-19T11:47:22Z</time></trkpt><trkpt lat="43.01904009561433" lon="10.685593646893086"><ele>18.0</ele><time>2026-04-19T11:47:23Z</time></trkpt><trkpt lat="43.01910713425058" lon="10.685589030583323"><ele>18.0</ele><time>2026-04-19T11:47:25Z</time></trkpt><trkpt lat="43.01914629976687" lon="10.68531230114785"><ele>18.0</ele><time>2026-04-19T11:47:27Z</time></trkpt><trkpt lat="43.01911178970032" lon="10.685156069656555"><ele>18.0</ele><time>2026-04-19T11:47:28Z</time></trkpt><trkpt lat="43.01907512185669" lon="10.684990069257339"><ele>18.0</ele><time>2026-04-19T11:47:29Z</time></trkpt><trkpt lat="43.019032895409275" lon="10.684798904673203"><ele>18.0</ele><time>2026-04-19T11:47:30Z</time></trkpt><trkpt lat="43.01898325930287" lon="10.684583670800869"><ele>18.0</ele><time>2026-04-19T11:47:31Z</time></trkpt><trkpt lat="43.01893005243479" lon="10.6843531364817"><ele>18.333333333333332</ele><time>2026-04-19T11:47:32Z</time></trkpt><trkpt lat="43.01887615045186" lon="10.684111577310683"><ele>18.666666666666664</ele><time>2026-04-19T11:47:33Z</time></trkpt><trkpt lat="43.01881791083313" lon="10.683844821887561"><ele>19.0</ele><time>2026-04-19T11:47:34Z</time></trkpt><trkpt lat="43.018756549324436" lon="10.683564797032558"><ele>19.0</ele><time>2026-04-19T11:47:35Z</time></trkpt><trkpt lat="43.018694135892275" lon="10.683287686679963"><ele>19.0</ele><time>2026-04-19T11:47:36Z</time></trkpt><trkpt lat="43.01862984968829" lon="10.683008986372448"><ele>19.0</ele><time>2026-04-19T11:47:37Z</time></trkpt><trkpt lat="43.018568778520276" lon="10.682744223801242"><ele>19.0</ele><time>2026-04-19T11:47:38Z</time></trkpt><trkpt lat="43.018509094189355" lon="10.682485474054578"><ele>19.0</ele><time>2026-04-19T11:47:39Z</time></trkpt><trkpt lat="43.01844801543898" lon="10.682220678576456"><ele>19.0</ele><time>2026-04-19T11:47:40Z</time></trkpt><trkpt lat="43.01838484174533" lon="10.68194680108797"><ele>18.666666666666664</ele><time>2026-04-19T11:47:41Z</time></trkpt><trkpt lat="43.018319944201465" lon="10.681665450120555"><ele>18.333333333333332</ele><time>2026-04-19T11:47:42Z</time></trkpt><trkpt lat="43.0182575724205" lon="10.681391498082306"><ele>18.0</ele><time>2026-04-19T11:47:43Z</time></trkpt><trkpt lat="43.0181965080425" lon="10.68111849991979"><ele>18.333333333333332</ele><time>2026-04-19T11:47:44Z</time></trkpt><trkpt lat="43.0181395987042" lon="10.680864077437647"><ele>18.666666666666664</ele><time>2026-04-19T11:47:45Z</time></trkpt><trkpt lat="43.01808610688106" lon="10.680624933641521"><ele>19.0</ele><time>2026-04-19T11:47:46Z</time></trkpt><trkpt lat="43.01803303968708" lon="10.68038875991979"><ele>18.666666666666664</ele><time>2026-04-19T11:47:47Z</time></trkpt><trkpt lat="43.01797699761875" lon="10.680143948980087"><ele>18.333333333333332</ele><time>2026-04-19T11:47:48Z</time></trkpt><trkpt lat="43.017915164258525" lon="10.67987383988297"><ele>18.0</ele><time>2026-04-19T11:47:49Z</time></trkpt><trkpt lat="43.01785296509433" lon="10.679602132575317"><ele>17.666666666666668</ele><time>2026-04-19T11:47:50Z</time></trkpt><trkpt lat="43.01779078548507" lon="10.679330510864318"><ele>17.333333333333336</ele><time>2026-04-19T11:47:51Z</time></trkpt><trkpt lat="43.01773103150126" lon="10.679069485062584"><ele>17.0</ele><time>2026-04-19T11:47:52Z</time></trkpt><trkpt lat="43.017668307880854" lon="10.678795487093199"><ele>17.0</ele><time>2026-04-19T11:47:53Z</time></trkpt><trkpt lat="43.01760385507735" lon="10.678514330053815"><ele>17.0</ele><time>2026-04-19T11:47:54Z</time></trkpt><trkpt lat="43.01753999478536" lon="10.67823594601818"><ele>17.0</ele><time>2026-04-19T11:47:55Z</time></trkpt><trkpt lat="43.017475980125305" lon="10.677956888856967"><ele>17.0</ele><time>2026-04-19T11:47:56Z</time></trkpt><trkpt lat="43.017411641800656" lon="10.6776764210686"><ele>17.0</ele><time>2026-04-19T11:47:57Z</time></trkpt><trkpt lat="43.01734707213228" lon="10.677394944588151"><ele>17.0</ele><time>2026-04-19T11:47:58Z</time></trkpt><trkpt lat="43.01728594838331" lon="10.677128489837566"><ele>17.333333333333336</ele><time>2026-04-19T11:47:59Z</time></trkpt><trkpt lat="43.017230008187006" lon="10.676881794612"><ele>17.666666666666668</ele><time>2026-04-19T11:48:00Z</time></trkpt><trkpt lat="43.017174351818156" lon="10.67663530309988"><ele>18.0</ele><time>2026-04-19T11:48:01Z</time></trkpt><trkpt lat="43.01711372375738" lon="10.676366792448308"><ele>17.333333333333332</ele><time>2026-04-19T11:48:02Z</time></trkpt><trkpt lat="43.01704487347488" lon="10.676081549869124"><ele>16.666666666666664</ele><time>2026-04-19T11:48:03Z</time></trkpt><trkpt lat="43.01697344248938" lon="10.67579618360735"><ele>16.0</ele><time>2026-04-19T11:48:04Z</time></trkpt><trkpt lat="43.01691386531101" lon="10.675556431416418"><ele>16.0</ele><time>2026-04-19T11:48:05Z</time></trkpt><trkpt lat="43.01686365194556" lon="10.675350535123325"><ele>16.0</ele><time>2026-04-19T11:48:06Z</time></trkpt><trkpt lat="43.01682185115272" lon="10.675176882606477"><ele>16.0</ele><time>2026-04-19T11:48:07Z</time></trkpt><trkpt lat="43.01678156925103" lon="10.675019090340426"><ele>16.0</ele><time>2026-04-19T11:48:08Z</time></trkpt><trkpt lat="43.016754887708295" lon="10.674902910213682"><ele>16.0</ele><time>2026-04-19T11:48:09Z</time></trkpt><trkpt lat="43.01675548235299" lon="10.674794610020554"><ele>16.0</ele><time>2026-04-19T11:48:11Z</time></trkpt><trkpt lat="43.01675247505622" lon="10.67468574904095"><ele>16.0</ele><time>2026-04-19T11:48:17Z</time></trkpt><trkpt lat="43.01653470272813" lon="10.674645355248076"><ele>16.0</ele><time>2026-04-19T11:48:18Z</time></trkpt><trkpt lat="43.01642755097741" lon="10.67459187303347"><ele>16.0</ele><time>2026-04-19T11:48:19Z</time></trkpt><trkpt lat="43.01631845715497" lon="10.67456154919406"><ele>16.0</ele><time>2026-04-19T11:48:20Z</time></trkpt><trkpt lat="43.01618969012453" lon="10.67449481021081"><ele>16.0</ele><time>2026-04-19T11:48:21Z</time></trkpt><trkpt lat="43.016050562857174" lon="10.674403708381819"><ele>16.0</ele><time>2026-04-19T11:48:22Z</time></trkpt><trkpt lat="43.0158922684987" lon="10.674324699711377"><ele>15.333333333333332</ele><time>2026-04-19T11:48:23Z</time></trkpt><trkpt lat="43.015723618663316" lon="10.674240522129278"><ele>14.666666666666668</ele><time>2026-04-19T11:48:24Z</time></trkpt><trkpt lat="43.015548003448856" lon="10.674152868089001"><ele>14.0</ele><time>2026-04-19T11:48:25Z</time></trkpt><trkpt lat="43.01536855977947" lon="10.674063387474982"><ele>14.0</ele><time>2026-04-19T11:48:26Z</time></trkpt><trkpt lat="43.01517790641956" lon="10.673968524767455"><ele>14.0</ele><time>2026-04-19T11:48:27Z</time></trkpt><trkpt lat="43.01499474714858" lon="10.673877392277058"><ele>14.0</ele><time>2026-04-19T11:48:28Z</time></trkpt><trkpt lat="43.01482260947469" lon="10.673791742186706"><ele>14.5</ele><time>2026-04-19T11:48:29Z</time></trkpt><trkpt lat="43.014665870728706" lon="10.673713754018936"><ele>15.0</ele><time>2026-04-19T11:48:30Z</time></trkpt><trkpt lat="43.01453346154716" lon="10.673647871614696"><ele>15.5</ele><time>2026-04-19T11:48:31Z</time></trkpt><trkpt lat="43.01442138346671" lon="10.673592295859319"><ele>16.0</ele><time>2026-04-19T11:48:32Z</time></trkpt><trkpt lat="43.01431886544658" lon="10.67354261031412"><ele>16.2</ele><time>2026-04-19T11:48:33Z</time></trkpt><trkpt lat="43.01424736016705" lon="10.673507955077833"><ele>16.400000000000002</ele><time>2026-04-19T11:48:34Z</time></trkpt><trkpt lat="43.01415986519083" lon="10.673465550472175"><ele>16.6</ele><time>2026-04-19T11:48:36Z</time></trkpt><trkpt lat="43.0140679744021" lon="10.673421016160313"><ele>16.8</ele><time>2026-04-19T11:48:38Z</time></trkpt><trkpt lat="43.01397160906026" lon="10.673373890086548"><ele>17.0</ele><time>2026-04-19T11:48:40Z</time></trkpt><trkpt lat="43.01389112234715" lon="10.673334706707703"><ele>17.0</ele><time>2026-04-19T11:48:41Z</time></trkpt><trkpt lat="43.01378632301637" lon="10.673283672164972"><ele>17.0</ele><time>2026-04-19T11:48:42Z</time></trkpt><trkpt lat="43.01366389980145" lon="10.673224055262832"><ele>17.0</ele><time>2026-04-19T11:48:43Z</time></trkpt><trkpt lat="43.01353129745795" lon="10.673158555736514"><ele>17.0</ele><time>2026-04-19T11:48:44Z</time></trkpt><trkpt lat="43.01339135642993" lon="10.673088729391576"><ele>16.666666666666668</ele><time>2026-04-19T11:48:45Z</time></trkpt><trkpt lat="43.01323867203128" lon="10.673012544506204"><ele>16.333333333333332</ele><time>2026-04-19T11:48:46Z</time></trkpt><trkpt lat="43.013076262652945" lon="10.672931507198342"><ele>16.0</ele><time>2026-04-19T11:48:47Z</time></trkpt><trkpt lat="43.01290591753879" lon="10.672846510167997"><ele>16.0</ele><time>2026-04-19T11:48:48Z</time></trkpt><trkpt lat="43.012729889344115" lon="10.672758677476338"><ele>16.0</ele><time>2026-04-19T11:48:49Z</time></trkpt><trkpt lat="43.01254787484683" lon="10.67266902671122"><ele>16.0</ele><time>2026-04-19T11:48:50Z</time></trkpt><trkpt lat="43.0123646220949" lon="10.67257913350292"><ele>15.666666666666666</ele><time>2026-04-19T11:48:51Z</time></trkpt><trkpt lat="43.012184316999175" lon="10.672490686217804"><ele>15.333333333333332</ele><time>2026-04-19T11:48:52Z</time></trkpt><trkpt lat="43.0120059589414" lon="10.672401956827704"><ele>15.0</ele><time>2026-04-19T11:48:53Z</time></trkpt><trkpt lat="43.01182881532396" lon="10.67231331444532"><ele>15.333333333333332</ele><time>2026-04-19T11:48:54Z</time></trkpt><trkpt lat="43.01164908041343" lon="10.67222337541482"><ele>15.666666666666666</ele><time>2026-04-19T11:48:55Z</time></trkpt><trkpt lat="43.01146714894075" lon="10.672132337220381"><ele>16.0</ele><time>2026-04-19T11:48:56Z</time></trkpt><trkpt lat="43.01128264728847" lon="10.672040542248647"><ele>16.0</ele><time>2026-04-19T11:48:57Z</time></trkpt><trkpt lat="43.01109045777078" lon="10.671945217398601"><ele>16.0</ele><time>2026-04-19T11:48:58Z</time></trkpt><trkpt lat="43.01089234554769" lon="10.671845456893806"><ele>16.0</ele><time>2026-04-19T11:48:59Z</time></trkpt><trkpt lat="43.01068800081587" lon="10.671742558058195"><ele>15.333333333333332</ele><time>2026-04-19T11:49:00Z</time></trkpt><trkpt lat="43.01048169220312" lon="10.671638671932211"><ele>14.666666666666668</ele><time>2026-04-19T11:49:01Z</time></trkpt><trkpt lat="43.010279925149355" lon="10.671538016354315"><ele>14.0</ele><time>2026-04-19T11:49:02Z</time></trkpt><trkpt lat="43.01008024033418" lon="10.671438890627272"><ele>14.0</ele><time>2026-04-19T11:49:03Z</time></trkpt><trkpt lat="43.00987698997189" lon="10.671337994910926"><ele>14.0</ele><time>2026-04-19T11:49:04Z</time></trkpt><trkpt lat="43.00968019733717" lon="10.6712403048891"><ele>14.0</ele><time>2026-04-19T11:49:05Z</time></trkpt><trkpt lat="43.009482063911236" lon="10.671141949278404"><ele>14.0</ele><time>2026-04-19T11:49:06Z</time></trkpt><trkpt lat="43.00928768100672" lon="10.671045455504167"><ele>14.0</ele><time>2026-04-19T11:49:07Z</time></trkpt><trkpt lat="43.009093255206594" lon="10.670949132046923"><ele>14.0</ele><time>2026-04-19T11:49:08Z</time></trkpt><trkpt lat="43.008899332930795" lon="10.670855993258181"><ele>14.0</ele><time>2026-04-19T11:49:09Z</time></trkpt><trkpt lat="43.00871183529488" lon="10.670760291014542"><ele>14.0</ele><time>2026-04-19T11:49:10Z</time></trkpt><trkpt lat="43.00851669651218" lon="10.67066112820097"><ele>14.0</ele><time>2026-04-19T11:49:11Z</time></trkpt><trkpt lat="43.00831563062417" lon="10.67056057794082"><ele>14.0</ele><time>2026-04-19T11:49:12Z</time></trkpt><trkpt lat="43.008113804636125" lon="10.670460719456297"><ele>14.0</ele><time>2026-04-19T11:49:13Z</time></trkpt><trkpt lat="43.007910632153454" lon="10.670360194758041"><ele>14.0</ele><time>2026-04-19T11:49:14Z</time></trkpt><trkpt lat="43.007711583741234" lon="10.670261510192502"><ele>14.0</ele><time>2026-04-19T11:49:15Z</time></trkpt><trkpt lat="43.00750993451782" lon="10.670161308062575"><ele>14.0</ele><time>2026-04-19T11:49:16Z</time></trkpt><trkpt lat="43.0073049327783" lon="10.670059440012974"><ele>14.0</ele><time>2026-04-19T11:49:17Z</time></trkpt><trkpt lat="43.00709946318001" lon="10.669958011240121"><ele>14.0</ele><time>2026-04-19T11:49:18Z</time></trkpt><trkpt lat="43.00689066098121" lon="10.669855571583438"><ele>14.0</ele><time>2026-04-19T11:49:19Z</time></trkpt><trkpt lat="43.0066849640689" lon="10.669754655398206"><ele>14.0</ele><time>2026-04-19T11:49:20Z</time></trkpt><trkpt lat="43.006480847224715" lon="10.669654514396916"><ele>14.0</ele><time>2026-04-19T11:49:21Z</time></trkpt><trkpt lat="43.006275834702535" lon="10.669552621776965"><ele>14.0</ele><time>2026-04-19T11:49:22Z</time></trkpt><trkpt lat="43.00607054904844" lon="10.669449862859183"><ele>14.0</ele><time>2026-04-19T11:49:23Z</time></trkpt><trkpt lat="43.005862108739805" lon="10.669345524769643"><ele>14.0</ele><time>2026-04-19T11:49:24Z</time></trkpt><trkpt lat="43.005655441225606" lon="10.669242849293367"><ele>14.0</ele><time>2026-04-19T11:49:25Z</time></trkpt><trkpt lat="43.00544749916198" lon="10.669139967491503"><ele>14.0</ele><time>2026-04-19T11:49:26Z</time></trkpt><trkpt lat="43.00524011746775" lon="10.66903736293768"><ele>14.0</ele><time>2026-04-19T11:49:27Z</time></trkpt><trkpt lat="43.00503334890274" lon="10.668935061727675"><ele>14.0</ele><time>2026-04-19T11:49:28Z</time></trkpt><trkpt lat="43.00483264492988" lon="10.668835761068381"><ele>14.0</ele><time>2026-04-19T11:49:29Z</time></trkpt><trkpt lat="43.00462903416553" lon="10.66873502218927"><ele>13.666666666666668</ele><time>2026-04-19T11:49:30Z</time></trkpt><trkpt lat="43.004423709969835" lon="10.668633435312122"><ele>13.333333333333332</ele><time>2026-04-19T11:49:31Z</time></trkpt><trkpt lat="43.00421908652023" lon="10.668532195138805"><ele>13.0</ele><time>2026-04-19T11:49:32Z</time></trkpt><trkpt lat="43.00400722128861" lon="10.668471013073683"><ele>13.0</ele><time>2026-04-19T11:49:33Z</time></trkpt><trkpt lat="43.003803937320484" lon="10.668368598792824"><ele>13.0</ele><time>2026-04-19T11:49:34Z</time></trkpt><trkpt lat="43.003603703706844" lon="10.668268146999312"><ele>13.0</ele><time>2026-04-19T11:49:35Z</time></trkpt><trkpt lat="43.00341087740603" lon="10.668173555595295"><ele>12.666666666666666</ele><time>2026-04-19T11:49:36Z</time></trkpt><trkpt lat="43.003224810732455" lon="10.668083305421264"><ele>12.333333333333332</ele><time>2026-04-19T11:49:37Z</time></trkpt><trkpt lat="43.00303487210652" lon="10.667990674122963"><ele>12.0</ele><time>2026-04-19T11:49:38Z</time></trkpt><trkpt lat="43.002842608668224" lon="10.667894354201614"><ele>12.0</ele><time>2026-04-19T11:49:39Z</time></trkpt><trkpt lat="43.00264816431294" lon="10.667800136782454"><ele>12.0</ele><time>2026-04-19T11:49:40Z</time></trkpt><trkpt lat="43.00245627166517" lon="10.667702486862696"><ele>12.0</ele><time>2026-04-19T11:49:41Z</time></trkpt><trkpt lat="43.00226836325356" lon="10.667613048140437"><ele>11.666666666666666</ele><time>2026-04-19T11:49:42Z</time></trkpt><trkpt lat="43.00207273649053" lon="10.667517594747194"><ele>11.333333333333332</ele><time>2026-04-19T11:49:43Z</time></trkpt><trkpt lat="43.001877817005266" lon="10.667422227332336"><ele>11.0</ele><time>2026-04-19T11:49:44Z</time></trkpt><trkpt lat="43.001683118094846" lon="10.667324594600267"><ele>11.666666666666666</ele><time>2026-04-19T11:49:45Z</time></trkpt><trkpt lat="43.00148819299355" lon="10.667225817758874"><ele>12.333333333333332</ele><time>2026-04-19T11:49:46Z</time></trkpt><trkpt lat="43.00129314151849" lon="10.667126574463685"><ele>13.0</ele><time>2026-04-19T11:49:47Z</time></trkpt><trkpt lat="43.00109525977546" lon="10.667026069719302"><ele>13.0</ele><time>2026-04-19T11:49:48Z</time></trkpt><trkpt lat="43.00089851205012" lon="10.666929323099835"><ele>13.0</ele><time>2026-04-19T11:49:49Z</time></trkpt><trkpt lat="43.00070199475165" lon="10.666833247507908"><ele>13.0</ele><time>2026-04-19T11:49:50Z</time></trkpt><trkpt lat="43.000506142142555" lon="10.666739058146778"><ele>12.666666666666666</ele><time>2026-04-19T11:49:51Z</time></trkpt><trkpt lat="43.00031850851155" lon="10.66665244330908"><ele>12.333333333333332</ele><time>2026-04-19T11:49:52Z</time></trkpt><trkpt lat="43.0001293659629" lon="10.666559740694106"><ele>12.0</ele><time>2026-04-19T11:49:53Z</time></trkpt><trkpt lat="42.99994221673162" lon="10.66645978732239"><ele>12.0</ele><time>2026-04-19T11:49:54Z</time></trkpt><trkpt lat="42.99974841659276" lon="10.666358385852991"><ele>12.0</ele><time>2026-04-19T11:49:55Z</time></trkpt><trkpt lat="42.99955059521892" lon="10.666254717540129"><ele>12.0</ele><time>2026-04-19T11:49:56Z</time></trkpt><trkpt lat="42.99935216071303" lon="10.666153913849895"><ele>11.666666666666666</ele><time>2026-04-19T11:49:57Z</time></trkpt><trkpt lat="42.999149388063394" lon="10.666049599555064"><ele>11.333333333333332</ele><time>2026-04-19T11:49:58Z</time></trkpt><trkpt lat="42.99894708939823" lon="10.665950307344911"><ele>11.0</ele><time>2026-04-19T11:49:59Z</time></trkpt><trkpt lat="42.99874575621449" lon="10.665846991882923"><ele>11.0</ele><time>2026-04-19T11:50:00Z</time></trkpt><trkpt lat="42.998542509995396" lon="10.66574426497438"><ele>11.0</ele><time>2026-04-19T11:50:01Z</time></trkpt><trkpt lat="42.99833744583062" lon="10.665641889301506"><ele>11.0</ele><time>2026-04-19T11:50:02Z</time></trkpt><trkpt lat="42.99813460674541" lon="10.66554179940039"><ele>11.0</ele><time>2026-04-19T11:50:03Z</time></trkpt><trkpt lat="42.99793475084472" lon="10.66544107302872"><ele>11.0</ele><time>2026-04-19T11:50:04Z</time></trkpt><trkpt lat="42.99773167316149" lon="10.66534126008476"><ele>11.0</ele><time>2026-04-19T11:50:05Z</time></trkpt><trkpt lat="42.9975208684934" lon="10.665240063595173"><ele>11.0</ele><time>2026-04-19T11:50:06Z</time></trkpt><trkpt lat="42.99731355368661" lon="10.665139654755405"><ele>11.0</ele><time>2026-04-19T11:50:07Z</time></trkpt><trkpt lat="42.9971097612692" lon="10.665035865624239"><ele>11.0</ele><time>2026-04-19T11:50:08Z</time></trkpt><trkpt lat="42.99691397078257" lon="10.664937149815884"><ele>11.0</ele><time>2026-04-19T11:50:09Z</time></trkpt><trkpt lat="42.99673121598399" lon="10.664843804405853"><ele>11.0</ele><time>2026-04-19T11:50:10Z</time></trkpt><trkpt lat="42.99656623453232" lon="10.664764684443657"><ele>11.0</ele><time>2026-04-19T11:50:11Z</time></trkpt><trkpt lat="42.99641940165868" lon="10.664687225435443"><ele>11.0</ele><time>2026-04-19T11:50:12Z</time></trkpt><trkpt lat="42.99629185975857" lon="10.664627836913445"><ele>11.0</ele><time>2026-04-19T11:50:13Z</time></trkpt><trkpt lat="42.99618189706793" lon="10.664571584110083"><ele>11.0</ele><time>2026-04-19T11:50:14Z</time></trkpt><trkpt lat="42.996085536198734" lon="10.664519076321376"><ele>11.0</ele><time>2026-04-19T11:50:15Z</time></trkpt><trkpt lat="42.996006574063045" lon="10.664481705815161"><ele>11.0</ele><time>2026-04-19T11:50:16Z</time></trkpt><trkpt lat="42.99591406675411" lon="10.664429746840398"><ele>11.0</ele><time>2026-04-19T11:50:18Z</time></trkpt><trkpt lat="42.99577940634219" lon="10.664371402463136"><ele>11.0</ele><time>2026-04-19T11:50:20Z</time></trkpt><trkpt lat="42.99566808040005" lon="10.66432422902917"><ele>11.0</ele><time>2026-04-19T11:50:21Z</time></trkpt><trkpt lat="42.995544355890324" lon="10.66426330955208"><ele>11.0</ele><time>2026-04-19T11:50:22Z</time></trkpt><trkpt lat="42.99539807851593" lon="10.664191750172924"><ele>11.0</ele><time>2026-04-19T11:50:23Z</time></trkpt><trkpt lat="42.99525012265654" lon="10.664118445740442"><ele>11.0</ele><time>2026-04-19T11:50:24Z</time></trkpt><trkpt lat="42.995079542261905" lon="10.66403860604946"><ele>11.0</ele><time>2026-04-19T11:50:25Z</time></trkpt><trkpt lat="42.9949054544358" lon="10.663949846832113"><ele>10.666666666666666</ele><time>2026-04-19T11:50:26Z</time></trkpt><trkpt lat="42.99472609683747" lon="10.663861863780756"><ele>10.333333333333334</ele><time>2026-04-19T11:50:27Z</time></trkpt><trkpt lat="42.99454153238797" lon="10.663772928692618"><ele>10.0</ele><time>2026-04-19T11:50:28Z</time></trkpt><trkpt lat="42.99435200019327" lon="10.66366420675602"><ele>10.333333333333334</ele><time>2026-04-19T11:50:29Z</time></trkpt><trkpt lat="42.99414815458322" lon="10.663555888689269"><ele>10.666666666666666</ele><time>2026-04-19T11:50:30Z</time></trkpt><trkpt lat="42.993936487374356" lon="10.66345182802034"><ele>11.0</ele><time>2026-04-19T11:50:31Z</time></trkpt><trkpt lat="42.9937305488" lon="10.663350833882907"><ele>11.0</ele><time>2026-04-19T11:50:32Z</time></trkpt><trkpt lat="42.993524178545364" lon="10.663252716840233"><ele>11.0</ele><time>2026-04-19T11:50:33Z</time></trkpt><trkpt lat="42.99331223978598" lon="10.66315130580642"><ele>11.0</ele><time>2026-04-19T11:50:34Z</time></trkpt><trkpt lat="42.9931025799402" lon="10.663049418439426"><ele>9.5</ele><time>2026-04-19T11:50:35Z</time></trkpt><trkpt lat="42.99289016953247" lon="10.662941353929426"><ele>8.0</ele><time>2026-04-19T11:50:36Z</time></trkpt><trkpt lat="42.992683467603996" lon="10.662802639185305"><ele>8.333333333333332</ele><time>2026-04-19T11:50:37Z</time></trkpt><trkpt lat="42.99247292270113" lon="10.66269704436056"><ele>8.666666666666666</ele><time>2026-04-19T11:50:38Z</time></trkpt><trkpt lat="42.992265172612186" lon="10.662594706414819"><ele>9.0</ele><time>2026-04-19T11:50:39Z</time></trkpt><trkpt lat="42.992059060878134" lon="10.662493988145958"><ele>9.0</ele><time>2026-04-19T11:50:40Z</time></trkpt><trkpt lat="42.99185560743323" lon="10.662394568706922"><ele>9.0</ele><time>2026-04-19T11:50:41Z</time></trkpt><trkpt lat="42.99165364078668" lon="10.662295373087755"><ele>9.0</ele><time>2026-04-19T11:50:42Z</time></trkpt><trkpt lat="42.99144579657675" lon="10.66219204061707"><ele>9.0</ele><time>2026-04-19T11:50:43Z</time></trkpt><trkpt lat="42.99123846287392" lon="10.662088961869767"><ele>9.0</ele><time>2026-04-19T11:50:44Z</time></trkpt><trkpt lat="42.99102982586916" lon="10.661985235110073"><ele>9.0</ele><time>2026-04-19T11:50:45Z</time></trkpt><trkpt lat="42.99082441203612" lon="10.661883110975692"><ele>8.666666666666666</ele><time>2026-04-19T11:50:46Z</time></trkpt><trkpt lat="42.99062273690807" lon="10.661782971628844"><ele>8.333333333333332</ele><time>2026-04-19T11:50:47Z</time></trkpt><trkpt lat="42.99042375554818" lon="10.661684819139872"><ele>8.0</ele><time>2026-04-19T11:50:48Z</time></trkpt><trkpt lat="42.99022292281139" lon="10.661585753522356"><ele>8.0</ele><time>2026-04-19T11:50:49Z</time></trkpt><trkpt lat="42.99002192641548" lon="10.66148660714549"><ele>8.0</ele><time>2026-04-19T11:50:50Z</time></trkpt><trkpt lat="42.98981362132886" lon="10.661383855541295"><ele>8.0</ele><time>2026-04-19T11:50:51Z</time></trkpt><trkpt lat="42.989608809114266" lon="10.661282203977652"><ele>8.333333333333332</ele><time>2026-04-19T11:50:52Z</time></trkpt><trkpt lat="42.989411921661464" lon="10.661183790777523"><ele>8.666666666666666</ele><time>2026-04-19T11:50:53Z</time></trkpt><trkpt lat="42.989216114554075" lon="10.661085917471885"><ele>9.0</ele><time>2026-04-19T11:50:54Z</time></trkpt><trkpt lat="42.98902469742589" lon="10.66099089481054"><ele>9.0</ele><time>2026-04-19T11:50:55Z</time></trkpt><trkpt lat="42.98884675188185" lon="10.66090557339761"><ele>9.0</ele><time>2026-04-19T11:50:56Z</time></trkpt><trkpt lat="42.98866806408247" lon="10.660839834956388"><ele>9.0</ele><time>2026-04-19T11:50:57Z</time></trkpt><trkpt lat="42.98848696268235" lon="10.660729409825075"><ele>9.0</ele><time>2026-04-19T11:50:58Z</time></trkpt><trkpt lat="42.98829141302382" lon="10.660631720984092"><ele>9.0</ele><time>2026-04-19T11:50:59Z</time></trkpt><trkpt lat="42.98809032915669" lon="10.660531267699161"><ele>9.0</ele><time>2026-04-19T11:51:00Z</time></trkpt><trkpt lat="42.9878829903151" lon="10.660427689473785"><ele>9.0</ele><time>2026-04-19T11:51:01Z</time></trkpt><trkpt lat="42.987672026065596" lon="10.66032230017658"><ele>9.0</ele><time>2026-04-19T11:51:02Z</time></trkpt><trkpt lat="42.98746063327143" lon="10.660216696949291"><ele>9.0</ele><time>2026-04-19T11:51:03Z</time></trkpt><trkpt lat="42.9872525789242" lon="10.66011276126439"><ele>9.0</ele><time>2026-04-19T11:51:04Z</time></trkpt><trkpt lat="42.98704760730859" lon="10.6600106559322"><ele>9.0</ele><time>2026-04-19T11:51:05Z</time></trkpt><trkpt lat="42.98684301770385" lon="10.659909476727654"><ele>8.666666666666666</ele><time>2026-04-19T11:51:06Z</time></trkpt><trkpt lat="42.98663891439624" lon="10.659808538120716"><ele>8.333333333333332</ele><time>2026-04-19T11:51:07Z</time></trkpt><trkpt lat="42.98643425260777" lon="10.659707323286032"><ele>8.0</ele><time>2026-04-19T11:51:08Z</time></trkpt><trkpt lat="42.98623135789926" lon="10.659606982320991"><ele>8.0</ele><time>2026-04-19T11:51:09Z</time></trkpt><trkpt lat="42.98602782971713" lon="10.659506328084717"><ele>8.0</ele><time>2026-04-19T11:51:10Z</time></trkpt><trkpt lat="42.98582267161459" lon="10.659404867775043"><ele>8.0</ele><time>2026-04-19T11:51:11Z</time></trkpt><trkpt lat="42.985624091819616" lon="10.659306660741489"><ele>7.666666666666666</ele><time>2026-04-19T11:51:12Z</time></trkpt><trkpt lat="42.985423757992244" lon="10.659207454948593"><ele>7.333333333333334</ele><time>2026-04-19T11:51:13Z</time></trkpt><trkpt lat="42.98522627130001" lon="10.65910960495571"><ele>7.0</ele><time>2026-04-19T11:51:14Z</time></trkpt><trkpt lat="42.98502759828837" lon="10.659011167126947"><ele>7.0</ele><time>2026-04-19T11:51:15Z</time></trkpt><trkpt lat="42.98483024412139" lon="10.658914600348202"><ele>7.0</ele><time>2026-04-19T11:51:16Z</time></trkpt><trkpt lat="42.9846368790738" lon="10.658820633357749"><ele>7.0</ele><time>2026-04-19T11:51:17Z</time></trkpt><trkpt lat="42.984443925420464" lon="10.658722616358729"><ele>7.0</ele><time>2026-04-19T11:51:18Z</time></trkpt><trkpt lat="42.984251313214266" lon="10.658624772825362"><ele>7.0</ele><time>2026-04-19T11:51:19Z</time></trkpt><trkpt lat="42.98406550078541" lon="10.658531556128514"><ele>7.0</ele><time>2026-04-19T11:51:20Z</time></trkpt><trkpt lat="42.98387875314663" lon="10.658438841844292"><ele>7.666666666666667</ele><time>2026-04-19T11:51:21Z</time></trkpt><trkpt lat="42.98369589670994" lon="10.658349931133067"><ele>8.333333333333334</ele><time>2026-04-19T11:51:22Z</time></trkpt><trkpt lat="42.983537409782066" lon="10.658273940446078"><ele>9.0</ele><time>2026-04-19T11:51:23Z</time></trkpt><trkpt lat="42.983409643901766" lon="10.658211240644844"><ele>8.8</ele><time>2026-04-19T11:51:24Z</time></trkpt><trkpt lat="42.983306599304456" lon="10.65815177213918"><ele>8.600000000000001</ele><time>2026-04-19T11:51:25Z</time></trkpt><trkpt lat="42.98323431875147" lon="10.658108778466966"><ele>8.4</ele><time>2026-04-19T11:51:26Z</time></trkpt><trkpt lat="42.98315126840543" lon="10.65808309481203"><ele>8.200000000000001</ele><time>2026-04-19T11:51:30Z</time></trkpt><trkpt lat="42.983029805480555" lon="10.657979607921515"><ele>8.0</ele><time>2026-04-19T11:51:32Z</time></trkpt><trkpt lat="42.9829482899793" lon="10.657899220864106"><ele>8.0</ele><time>2026-04-19T11:51:33Z</time></trkpt><trkpt lat="42.9828451771583" lon="10.657794478516596"><ele>8.0</ele><time>2026-04-19T11:51:34Z</time></trkpt><trkpt lat="42.982737773232834" lon="10.657687159143324"><ele>8.0</ele><time>2026-04-19T11:51:35Z</time></trkpt><trkpt lat="42.98261375786059" lon="10.657565801175135"><ele>8.0</ele><time>2026-04-19T11:51:36Z</time></trkpt><trkpt lat="42.98248658283378" lon="10.657441351191897"><ele>7.666666666666666</ele><time>2026-04-19T11:51:37Z</time></trkpt><trkpt lat="42.98234538667125" lon="10.657303180603003"><ele>7.333333333333334</ele><time>2026-04-19T11:51:38Z</time></trkpt><trkpt lat="42.98219960053153" lon="10.657160518555003"><ele>7.0</ele><time>2026-04-19T11:51:39Z</time></trkpt><trkpt lat="42.98204572944969" lon="10.657009944474895"><ele>7.0</ele><time>2026-04-19T11:51:40Z</time></trkpt><trkpt lat="42.981891269663585" lon="10.656858794306014"><ele>7.0</ele><time>2026-04-19T11:51:41Z</time></trkpt><trkpt lat="42.98173366890977" lon="10.656705546143371"><ele>7.0</ele><time>2026-04-19T11:51:42Z</time></trkpt><trkpt lat="42.981573197551434" lon="10.656548518392624"><ele>7.0</ele><time>2026-04-19T11:51:43Z</time></trkpt><trkpt lat="42.98140686618681" lon="10.656385756141606"><ele>7.0</ele><time>2026-04-19T11:51:44Z</time></trkpt><trkpt lat="42.981240778414325" lon="10.65622699006717"><ele>7.0</ele><time>2026-04-19T11:51:45Z</time></trkpt><trkpt lat="42.9810764496828" lon="10.656070175176705"><ele>7.0</ele><time>2026-04-19T11:51:46Z</time></trkpt><trkpt lat="42.980914816447864" lon="10.655910116274933"><ele>7.0</ele><time>2026-04-19T11:51:47Z</time></trkpt><trkpt lat="42.9807608556734" lon="10.655748673813186"><ele>7.0</ele><time>2026-04-19T11:51:48Z</time></trkpt><trkpt lat="42.98062651663045" lon="10.655572331173504"><ele>7.0</ele><time>2026-04-19T11:51:49Z</time></trkpt><trkpt lat="42.98049666734631" lon="10.65537404900182"><ele>7.0</ele><time>2026-04-19T11:51:50Z</time></trkpt><trkpt lat="42.98036266962701" lon="10.655169505341814"><ele>7.0</ele><time>2026-04-19T11:51:51Z</time></trkpt><trkpt lat="42.980226879221085" lon="10.65496654297009"><ele>7.0</ele><time>2026-04-19T11:51:52Z</time></trkpt><trkpt lat="42.98008964046221" lon="10.654761874304741"><ele>7.0</ele><time>2026-04-19T11:51:53Z</time></trkpt><trkpt lat="42.97995839625786" lon="10.654565451374951"><ele>7.0</ele><time>2026-04-19T11:51:54Z</time></trkpt><trkpt lat="42.97984032760945" lon="10.65439358889966"><ele>6.8</ele><time>2026-04-19T11:51:55Z</time></trkpt><trkpt lat="42.979745067034465" lon="10.654254456333943"><ele>6.6</ele><time>2026-04-19T11:51:56Z</time></trkpt><trkpt lat="42.97967986989035" lon="10.654141094642824"><ele>6.3999999999999995</ele><time>2026-04-19T11:51:57Z</time></trkpt><trkpt lat="42.979649136454015" lon="10.654021993900969"><ele>6.199999999999999</ele><time>2026-04-19T11:51:58Z</time></trkpt><trkpt lat="42.97964328271729" lon="10.6538967241913"><ele>6.0</ele><time>2026-04-19T11:51:59Z</time></trkpt><trkpt lat="42.97970791025687" lon="10.65379381431841"><ele>6.0</ele><time>2026-04-19T11:52:00Z</time></trkpt><trkpt lat="42.979784756207586" lon="10.653662640735725"><ele>6.0</ele><time>2026-04-19T11:52:01Z</time></trkpt><trkpt lat="42.97987105974993" lon="10.65349802297247"><ele>6.0</ele><time>2026-04-19T11:52:02Z</time></trkpt><trkpt lat="42.97996690797517" lon="10.653315199419843"><ele>6.0</ele><time>2026-04-19T11:52:03Z</time></trkpt><trkpt lat="42.98006363379191" lon="10.653128950674795"><ele>6.333333333333334</ele><time>2026-04-19T11:52:04Z</time></trkpt><trkpt lat="42.98016786115713" lon="10.652927454679773"><ele>6.666666666666667</ele><time>2026-04-19T11:52:05Z</time></trkpt><trkpt lat="42.98026556300839" lon="10.65273857389073"><ele>7.0</ele><time>2026-04-19T11:52:06Z</time></trkpt><trkpt lat="42.98036295132065" lon="10.65255029922566"><ele>7.0</ele><time>2026-04-19T11:52:07Z</time></trkpt><trkpt lat="42.98045616204315" lon="10.652370100851286"><ele>7.0</ele><time>2026-04-19T11:52:08Z</time></trkpt><trkpt lat="42.98053969937986" lon="10.652206619360005"><ele>7.0</ele><time>2026-04-19T11:52:09Z</time></trkpt><trkpt lat="42.98061451413174" lon="10.65205936529809"><ele>7.0</ele><time>2026-04-19T11:52:10Z</time></trkpt><trkpt lat="42.98068153946655" lon="10.651927474398573"><ele>7.0</ele><time>2026-04-19T11:52:11Z</time></trkpt><trkpt lat="42.98074952539067" lon="10.651793808303166"><ele>7.0</ele><time>2026-04-19T11:52:12Z</time></trkpt><trkpt lat="42.980824350876716" lon="10.65165392874227"><ele>7.0</ele><time>2026-04-19T11:52:13Z</time></trkpt><trkpt lat="42.980903132175335" lon="10.651504395964281"><ele>7.0</ele><time>2026-04-19T11:52:14Z</time></trkpt><trkpt lat="42.98098537265166" lon="10.651348297547075"><ele>7.0</ele><time>2026-04-19T11:52:15Z</time></trkpt><trkpt lat="42.9810588518159" lon="10.651205973122199"><ele>7.0</ele><time>2026-04-19T11:52:16Z</time></trkpt><trkpt lat="42.98111985743653" lon="10.651083210868013"><ele>7.0</ele><time>2026-04-19T11:52:17Z</time></trkpt><trkpt lat="42.98117295502647" lon="10.65093705341186"><ele>7.0</ele><time>2026-04-19T11:52:18Z</time></trkpt><trkpt lat="42.98121236160756" lon="10.650746975237627"><ele>7.0</ele><time>2026-04-19T11:52:19Z</time></trkpt><trkpt lat="42.981247875250304" lon="10.650535330796279"><ele>7.0</ele><time>2026-04-19T11:52:20Z</time></trkpt><trkpt lat="42.98128340798971" lon="10.650305439156757"><ele>7.0</ele><time>2026-04-19T11:52:21Z</time></trkpt><trkpt lat="42.98132122124926" lon="10.650065521352158"><ele>6.666666666666667</ele><time>2026-04-19T11:52:22Z</time></trkpt><trkpt lat="42.98137455697022" lon="10.64984012954386"><ele>6.333333333333334</ele><time>2026-04-19T11:52:23Z</time></trkpt><trkpt lat="42.981442353756535" lon="10.649617657619602"><ele>6.0</ele><time>2026-04-19T11:52:24Z</time></trkpt><trkpt lat="42.981526239672604" lon="10.649395122511912"><ele>5.666666666666667</ele><time>2026-04-19T11:52:25Z</time></trkpt><trkpt lat="42.98160991443151" lon="10.649174224816381"><ele>5.333333333333334</ele><time>2026-04-19T11:52:26Z</time></trkpt><trkpt lat="42.98169237207729" lon="10.648956540049824"><ele>5.0</ele><time>2026-04-19T11:52:27Z</time></trkpt><trkpt lat="42.981769395443486" lon="10.648753201752298"><ele>5.0</ele><time>2026-04-19T11:52:28Z</time></trkpt><trkpt lat="42.9818410066557" lon="10.64856415127507"><ele>5.0</ele><time>2026-04-19T11:52:29Z</time></trkpt><trkpt lat="42.98191372089759" lon="10.648372188788999"><ele>5.0</ele><time>2026-04-19T11:52:30Z</time></trkpt><trkpt lat="42.98198311506845" lon="10.64818899121477"><ele>5.0</ele><time>2026-04-19T11:52:31Z</time></trkpt><trkpt lat="42.98204787592612" lon="10.648018025424811"><ele>5.0</ele><time>2026-04-19T11:52:32Z</time></trkpt><trkpt lat="42.98211896618642" lon="10.647830350179241"><ele>5.0</ele><time>2026-04-19T11:52:33Z</time></trkpt><trkpt lat="42.982197374146274" lon="10.647621982024603"><ele>5.333333333333334</ele><time>2026-04-19T11:52:34Z</time></trkpt><trkpt lat="42.982281280337126" lon="10.647404092782386"><ele>5.666666666666667</ele><time>2026-04-19T11:52:35Z</time></trkpt><trkpt lat="42.982368486688934" lon="10.647178425793827"><ele>6.0</ele><time>2026-04-19T11:52:36Z</time></trkpt><trkpt lat="42.98245480871025" lon="10.646951664712901"><ele>5.666666666666667</ele><time>2026-04-19T11:52:37Z</time></trkpt><trkpt lat="42.9825408772752" lon="10.646720651155944"><ele>5.333333333333334</ele><time>2026-04-19T11:52:38Z</time></trkpt><trkpt lat="42.98262743907991" lon="10.646488313621534"><ele>5.0</ele><time>2026-04-19T11:52:39Z</time></trkpt><trkpt lat="42.98271274003556" lon="10.646259360446983"><ele>5.0</ele><time>2026-04-19T11:52:40Z</time></trkpt><trkpt lat="42.982796158962735" lon="10.646037804881773"><ele>5.0</ele><time>2026-04-19T11:52:41Z</time></trkpt><trkpt lat="42.9828837622635" lon="10.645806576614103"><ele>5.0</ele><time>2026-04-19T11:52:42Z</time></trkpt><trkpt lat="42.98297158974371" lon="10.645576170611484"><ele>5.0</ele><time>2026-04-19T11:52:43Z</time></trkpt><trkpt lat="42.98306271186722" lon="10.645337285452822"><ele>5.0</ele><time>2026-04-19T11:52:44Z</time></trkpt><trkpt lat="42.98315550858563" lon="10.645093711344071"><ele>5.0</ele><time>2026-04-19T11:52:45Z</time></trkpt><trkpt lat="42.9832503806324" lon="10.644844690030018"><ele>5.0</ele><time>2026-04-19T11:52:46Z</time></trkpt><trkpt lat="42.983346272816576" lon="10.644592990825663"><ele>5.0</ele><time>2026-04-19T11:52:47Z</time></trkpt><trkpt lat="42.98344278209843" lon="10.644339671895407"><ele>5.0</ele><time>2026-04-19T11:52:48Z</time></trkpt><trkpt lat="42.983537091428715" lon="10.644092127559535"><ele>5.0</ele><time>2026-04-19T11:52:49Z</time></trkpt><trkpt lat="42.983627822139745" lon="10.643853976419257"><ele>5.0</ele><time>2026-04-19T11:52:50Z</time></trkpt><trkpt lat="42.983713329442715" lon="10.643626071347626"><ele>5.0</ele><time>2026-04-19T11:52:51Z</time></trkpt><trkpt lat="42.983797072040346" lon="10.643402673365168"><ele>5.0</ele><time>2026-04-19T11:52:52Z</time></trkpt><trkpt lat="42.98388174887569" lon="10.643176783234791"><ele>5.0</ele><time>2026-04-19T11:52:53Z</time></trkpt><trkpt lat="42.98396633132392" lon="10.642951144785576"><ele>5.0</ele><time>2026-04-19T11:52:54Z</time></trkpt><trkpt lat="42.98405004617991" lon="10.64272782083162"><ele>5.0</ele><time>2026-04-19T11:52:55Z</time></trkpt><trkpt lat="42.98413375820451" lon="10.64250435876612"><ele>5.0</ele><time>2026-04-19T11:52:56Z</time></trkpt><trkpt lat="42.98421818388308" lon="10.642278814492027"><ele>5.0</ele><time>2026-04-19T11:52:57Z</time></trkpt><trkpt lat="42.984301055847304" lon="10.642057421472362"><ele>5.0</ele><time>2026-04-19T11:52:58Z</time></trkpt><trkpt lat="42.98437653261027" lon="10.641855784794146"><ele>5.0</ele><time>2026-04-19T11:52:59Z</time></trkpt><trkpt lat="42.98443918496307" lon="10.64168840866367"><ele>5.0</ele><time>2026-04-19T11:53:00Z</time></trkpt><trkpt lat="42.98450077238312" lon="10.641536171048774"><ele>5.0</ele><time>2026-04-19T11:53:01Z</time></trkpt><trkpt lat="42.9845700010474" lon="10.641401917972049"><ele>5.0</ele><time>2026-04-19T11:53:02Z</time></trkpt><trkpt lat="42.98466582587341" lon="10.641272058495032"><ele>5.0</ele><time>2026-04-19T11:53:03Z</time></trkpt><trkpt lat="42.98479796107695" lon="10.641127642179798"><ele>5.0</ele><time>2026-04-19T11:53:04Z</time></trkpt><trkpt lat="42.98494344583667" lon="10.640974213273887"><ele>5.333333333333334</ele><time>2026-04-19T11:53:05Z</time></trkpt><trkpt lat="42.98510195857048" lon="10.640804391553216"><ele>5.666666666666667</ele><time>2026-04-19T11:53:06Z</time></trkpt><trkpt lat="42.985263857708546" lon="10.640627511113651"><ele>6.0</ele><time>2026-04-19T11:53:07Z</time></trkpt><trkpt lat="42.985432466168405" lon="10.640447310271938"><ele>5.666666666666667</ele><time>2026-04-19T11:53:08Z</time></trkpt><trkpt lat="42.98560028322376" lon="10.640272146115983"><ele>5.333333333333334</ele><time>2026-04-19T11:53:09Z</time></trkpt><trkpt lat="42.98576791500215" lon="10.64009717532899"><ele>5.0</ele><time>2026-04-19T11:53:10Z</time></trkpt><trkpt lat="42.98593792802913" lon="10.639916984173556"><ele>5.0</ele><time>2026-04-19T11:53:11Z</time></trkpt><trkpt lat="42.986107638227764" lon="10.639734169672069"><ele>5.0</ele><time>2026-04-19T11:53:12Z</time></trkpt><trkpt lat="42.986277208824056" lon="10.639551505617247"><ele>5.0</ele><time>2026-04-19T11:53:13Z</time></trkpt><trkpt lat="42.98644189539058" lon="10.639375171677692"><ele>5.333333333333334</ele><time>2026-04-19T11:53:14Z</time></trkpt><trkpt lat="42.98659994275931" lon="10.639206504039402"><ele>5.666666666666667</ele><time>2026-04-19T11:53:15Z</time></trkpt><trkpt lat="42.98674473092668" lon="10.639053641905573"><ele>6.0</ele><time>2026-04-19T11:53:16Z</time></trkpt><trkpt lat="42.98687302854974" lon="10.638918189897224"><ele>6.0</ele><time>2026-04-19T11:53:17Z</time></trkpt><trkpt lat="42.98698843720037" lon="10.638796345880376"><ele>6.0</ele><time>2026-04-19T11:53:18Z</time></trkpt><trkpt lat="42.987090220807616" lon="10.638669558743262"><ele>6.0</ele><time>2026-04-19T11:53:19Z</time></trkpt><trkpt lat="42.98716234720748" lon="10.638523328560478"><ele>6.0</ele><time>2026-04-19T11:53:20Z</time></trkpt><trkpt lat="42.98720459569142" lon="10.638349060597955"><ele>6.25</ele><time>2026-04-19T11:53:21Z</time></trkpt><trkpt lat="42.9871980089435" lon="10.63814939026258"><ele>6.5</ele><time>2026-04-19T11:53:22Z</time></trkpt><trkpt lat="42.98713021630595" lon="10.63797347711992"><ele>6.75</ele><time>2026-04-19T11:53:23Z</time></trkpt><trkpt lat="42.987043904123844" lon="10.63781319741047"><ele>7.0</ele><time>2026-04-19T11:53:24Z</time></trkpt><trkpt lat="42.98691146794831" lon="10.637676679326885"><ele>6.333333333333334</ele><time>2026-04-19T11:53:25Z</time></trkpt><trkpt lat="42.98679253303418" lon="10.63751454602269"><ele>5.666666666666667</ele><time>2026-04-19T11:53:26Z</time></trkpt><trkpt lat="42.986654635944085" lon="10.637357418312943"><ele>5.0</ele><time>2026-04-19T11:53:27Z</time></trkpt><trkpt lat="42.98651241524413" lon="10.637193893458617"><ele>5.333333333333334</ele><time>2026-04-19T11:53:28Z</time></trkpt><trkpt lat="42.98636686329037" lon="10.637026538366154"><ele>5.666666666666667</ele><time>2026-04-19T11:53:29Z</time></trkpt><trkpt lat="42.98622014330996" lon="10.636856476674943"><ele>6.0</ele><time>2026-04-19T11:53:30Z</time></trkpt><trkpt lat="42.986077520447516" lon="10.636688715865645"><ele>6.0</ele><time>2026-04-19T11:53:31Z</time></trkpt><trkpt lat="42.98593929038722" lon="10.636522904277218"><ele>6.0</ele><time>2026-04-19T11:53:32Z</time></trkpt><trkpt lat="42.98581867118502" lon="10.636373781215935"><ele>6.0</ele><time>2026-04-19T11:53:33Z</time></trkpt><trkpt lat="42.985719050871275" lon="10.636205908068202"><ele>6.0</ele><time>2026-04-19T11:53:34Z</time></trkpt><trkpt lat="42.98564805512331" lon="10.636010682303986"><ele>6.0</ele><time>2026-04-19T11:53:35Z</time></trkpt><trkpt lat="42.9855898682798" lon="10.635790720872281"><ele>6.0</ele><time>2026-04-19T11:53:36Z</time></trkpt><trkpt lat="42.9855677302368" lon="10.635564929513"><ele>6.0</ele><time>2026-04-19T11:53:37Z</time></trkpt><trkpt lat="42.985556312902645" lon="10.635316412521542"><ele>6.0</ele><time>2026-04-19T11:53:38Z</time></trkpt><trkpt lat="42.9855436803601" lon="10.63505209370539"><ele>6.0</ele><time>2026-04-19T11:53:39Z</time></trkpt><trkpt lat="42.985530449619134" lon="10.634775258256619"><ele>5.333333333333333</ele><time>2026-04-19T11:53:40Z</time></trkpt><trkpt lat="42.9855169709616" lon="10.634483972760227"><ele>4.666666666666666</ele><time>2026-04-19T11:53:41Z</time></trkpt><trkpt lat="42.985507245982596" lon="10.634277046887863"><ele>4.0</ele><time>2026-04-19T11:53:42Z</time></trkpt><trkpt lat="42.98549446387223" lon="10.63400507196572"><ele>4.0</ele><time>2026-04-19T11:53:43Z</time></trkpt><trkpt lat="42.98548260730546" lon="10.633736609593807"><ele>4.0</ele><time>2026-04-19T11:53:44Z</time></trkpt><trkpt lat="42.98547057784591" lon="10.633469152923793"><ele>4.0</ele><time>2026-04-19T11:53:45Z</time></trkpt><trkpt lat="42.98545716052342" lon="10.63320790591577"><ele>4.333333333333333</ele><time>2026-04-19T11:53:46Z</time></trkpt><trkpt lat="42.98544584388759" lon="10.632952184341347"><ele>4.666666666666667</ele><time>2026-04-19T11:53:47Z</time></trkpt><trkpt lat="42.98543538808848" lon="10.632709561064562"><ele>5.0</ele><time>2026-04-19T11:53:48Z</time></trkpt><trkpt lat="42.98543256182878" lon="10.632474084846496"><ele>5.0</ele><time>2026-04-19T11:53:49Z</time></trkpt><trkpt lat="42.98543621745301" lon="10.632252056213845"><ele>5.0</ele><time>2026-04-19T11:53:50Z</time></trkpt><trkpt lat="42.98544143400769" lon="10.632058538030893"><ele>5.0</ele><time>2026-04-19T11:53:51Z</time></trkpt><trkpt lat="42.9854480540287" lon="10.631847813954025"><ele>5.0</ele><time>2026-04-19T11:53:52Z</time></trkpt><trkpt lat="42.98545554584276" lon="10.631609491962672"><ele>5.0</ele><time>2026-04-19T11:53:53Z</time></trkpt><trkpt lat="42.985464749044226" lon="10.63135397831833"><ele>5.0</ele><time>2026-04-19T11:53:54Z</time></trkpt><trkpt lat="42.985488359256145" lon="10.631114553984085"><ele>4.666666666666667</ele><time>2026-04-19T11:53:55Z</time></trkpt><trkpt lat="42.985522199408514" lon="10.630878509624866"><ele>4.333333333333333</ele><time>2026-04-19T11:53:56Z</time></trkpt><trkpt lat="42.98555901137194" lon="10.630641199810135"><ele>4.0</ele><time>2026-04-19T11:53:57Z</time></trkpt><trkpt lat="42.98559754687163" lon="10.630394689389497"><ele>4.333333333333333</ele><time>2026-04-19T11:53:58Z</time></trkpt><trkpt lat="42.98563704200326" lon="10.630142076577204"><ele>4.666666666666667</ele><time>2026-04-19T11:53:59Z</time></trkpt><trkpt lat="42.98567694258306" lon="10.629886870545901"><ele>5.0</ele><time>2026-04-19T11:54:00Z</time></trkpt><trkpt lat="42.985718814251335" lon="10.62961905738557"><ele>5.0</ele><time>2026-04-19T11:54:01Z</time></trkpt><trkpt lat="42.98576171731716" lon="10.629344647294236"><ele>5.0</ele><time>2026-04-19T11:54:02Z</time></trkpt><trkpt lat="42.98580515064924" lon="10.629071727565762"><ele>5.0</ele><time>2026-04-19T11:54:03Z</time></trkpt><trkpt lat="42.98584944883829" lon="10.628798464281076"><ele>4.333333333333334</ele><time>2026-04-19T11:54:04Z</time></trkpt><trkpt lat="42.98589243371325" lon="10.628531762759062"><ele>3.666666666666667</ele><time>2026-04-19T11:54:05Z</time></trkpt><trkpt lat="42.98593379726161" lon="10.628271095413377"><ele>3.0</ele><time>2026-04-19T11:54:06Z</time></trkpt><trkpt lat="42.985975046954806" lon="10.628011145538526"><ele>3.333333333333333</ele><time>2026-04-19T11:54:07Z</time></trkpt><trkpt lat="42.98601693312201" lon="10.627747184708882"><ele>3.6666666666666665</ele><time>2026-04-19T11:54:08Z</time></trkpt><trkpt lat="42.986059198779635" lon="10.627480832371694"><ele>4.0</ele><time>2026-04-19T11:54:09Z</time></trkpt><trkpt lat="42.98610082362371" lon="10.627218518371517"><ele>4.0</ele><time>2026-04-19T11:54:10Z</time></trkpt><trkpt lat="42.98614291148849" lon="10.626955587451917"><ele>4.0</ele><time>2026-04-19T11:54:11Z</time></trkpt><trkpt lat="42.98618551785109" lon="10.626689778517692"><ele>4.0</ele><time>2026-04-19T11:54:12Z</time></trkpt><trkpt lat="42.986228954842005" lon="10.626418787532382"><ele>4.0</ele><time>2026-04-19T11:54:13Z</time></trkpt><trkpt lat="42.98627182423314" lon="10.626150253276736"><ele>4.0</ele><time>2026-04-19T11:54:14Z</time></trkpt><trkpt lat="42.98631375693626" lon="10.625886272811595"><ele>4.0</ele><time>2026-04-19T11:54:15Z</time></trkpt><trkpt lat="42.986356391790515" lon="10.625617872027576"><ele>4.0</ele><time>2026-04-19T11:54:16Z</time></trkpt><trkpt lat="42.98639874031915" lon="10.62535127375578"><ele>4.0</ele><time>2026-04-19T11:54:17Z</time></trkpt><trkpt lat="42.98643943101666" lon="10.625095112065848"><ele>4.0</ele><time>2026-04-19T11:54:18Z</time></trkpt><trkpt lat="42.98647917727601" lon="10.62484489603897"><ele>4.0</ele><time>2026-04-19T11:54:19Z</time></trkpt><trkpt lat="42.98651793233526" lon="10.624596274436898"><ele>4.0</ele><time>2026-04-19T11:54:20Z</time></trkpt><trkpt lat="42.98655780819733" lon="10.62433973723819"><ele>4.0</ele><time>2026-04-19T11:54:21Z</time></trkpt><trkpt lat="42.98659538098936" lon="10.624098016552121"><ele>4.0</ele><time>2026-04-19T11:54:22Z</time></trkpt><trkpt lat="42.98663309831182" lon="10.623855366120452"><ele>4.0</ele><time>2026-04-19T11:54:23Z</time></trkpt><trkpt lat="42.98667122466361" lon="10.623618977585211"><ele>4.0</ele><time>2026-04-19T11:54:24Z</time></trkpt><trkpt lat="42.9867097194862" lon="10.623381595212434"><ele>4.333333333333333</ele><time>2026-04-19T11:54:25Z</time></trkpt><trkpt lat="42.986750196120795" lon="10.623132020910536"><ele>4.666666666666667</ele><time>2026-04-19T11:54:26Z</time></trkpt><trkpt lat="42.98679185854752" lon="10.622875135041989"><ele>5.0</ele><time>2026-04-19T11:54:27Z</time></trkpt><trkpt lat="42.98683399215973" lon="10.622615343980115"><ele>5.666666666666667</ele><time>2026-04-19T11:54:28Z</time></trkpt><trkpt lat="42.98687507255992" lon="10.62235960677385"><ele>6.333333333333334</ele><time>2026-04-19T11:54:29Z</time></trkpt><trkpt lat="42.98691207735072" lon="10.622124546886472"><ele>7.0</ele><time>2026-04-19T11:54:30Z</time></trkpt><trkpt lat="42.98694692344878" lon="10.6219031990422"><ele>7.333333333333334</ele><time>2026-04-19T11:54:31Z</time></trkpt><trkpt lat="42.98697975071171" lon="10.621681125990953"><ele>7.666666666666666</ele><time>2026-04-19T11:54:32Z</time></trkpt><trkpt lat="42.986998956630266" lon="10.621447834157172"><ele>8.0</ele><time>2026-04-19T11:54:33Z</time></trkpt><trkpt lat="42.986992816097526" lon="10.62120839321498"><ele>7.666666666666666</ele><time>2026-04-19T11:54:34Z</time></trkpt><trkpt lat="42.986976778649286" lon="10.620957505788745"><ele>7.333333333333334</ele><time>2026-04-19T11:54:35Z</time></trkpt><trkpt lat="42.986956912695675" lon="10.620699948763937"><ele>7.0</ele><time>2026-04-19T11:54:36Z</time></trkpt><trkpt lat="42.986936134117975" lon="10.620440769116263"><ele>6.666666666666667</ele><time>2026-04-19T11:54:37Z</time></trkpt><trkpt lat="42.98691545371381" lon="10.62018281403733"><ele>6.333333333333334</ele><time>2026-04-19T11:54:38Z</time></trkpt><trkpt lat="42.98689487462872" lon="10.619926122802012"><ele>6.0</ele><time>2026-04-19T11:54:39Z</time></trkpt><trkpt lat="42.98687422198597" lon="10.619668514033108"><ele>6.0</ele><time>2026-04-19T11:54:40Z</time></trkpt><trkpt lat="42.98685328088686" lon="10.61941163521621"><ele>6.0</ele><time>2026-04-19T11:54:41Z</time></trkpt><trkpt lat="42.98683177232037" lon="10.619156519746733"><ele>6.0</ele><time>2026-04-19T11:54:42Z</time></trkpt><trkpt lat="42.986810526722095" lon="10.618904523321312"><ele>5.666666666666667</ele><time>2026-04-19T11:54:43Z</time></trkpt><trkpt lat="42.986788696476076" lon="10.61864751246173"><ele>5.333333333333334</ele><time>2026-04-19T11:54:44Z</time></trkpt><trkpt lat="42.98676706958346" lon="10.618397060258703"><ele>5.0</ele><time>2026-04-19T11:54:45Z</time></trkpt><trkpt lat="42.98674448085154" lon="10.618135469363262"><ele>5.0</ele><time>2026-04-19T11:54:46Z</time></trkpt><trkpt lat="42.98672337033713" lon="10.61787792306244"><ele>5.0</ele><time>2026-04-19T11:54:47Z</time></trkpt><trkpt lat="42.98670878131238" lon="10.617618326749295"><ele>5.0</ele><time>2026-04-19T11:54:48Z</time></trkpt><trkpt lat="42.986703752123525" lon="10.617362362015886"><ele>5.0</ele><time>2026-04-19T11:54:49Z</time></trkpt><trkpt lat="42.98670098875019" lon="10.617114864832123"><ele>5.0</ele><time>2026-04-19T11:54:50Z</time></trkpt><trkpt lat="42.98669866639685" lon="10.616862499172797"><ele>5.0</ele><time>2026-04-19T11:54:51Z</time></trkpt><trkpt lat="42.986696356373024" lon="10.616611473272263"><ele>5.0</ele><time>2026-04-19T11:54:52Z</time></trkpt><trkpt lat="42.98669408739674" lon="10.616364907943531"><ele>5.0</ele><time>2026-04-19T11:54:53Z</time></trkpt><trkpt lat="42.98669178273716" lon="10.616114464882347"><ele>5.0</ele><time>2026-04-19T11:54:54Z</time></trkpt><trkpt lat="42.98668949544669" lon="10.615865909535948"><ele>4.666666666666667</ele><time>2026-04-19T11:54:55Z</time></trkpt><trkpt lat="42.986687150129384" lon="10.615611048054086"><ele>4.333333333333333</ele><time>2026-04-19T11:54:56Z</time></trkpt><trkpt lat="42.98668480661393" lon="10.615356382763073"><ele>4.0</ele><time>2026-04-19T11:54:57Z</time></trkpt><trkpt lat="42.98668246544503" lon="10.615101972535227"><ele>4.0</ele><time>2026-04-19T11:54:58Z</time></trkpt><trkpt lat="42.98668011037738" lon="10.614846051782076"><ele>4.0</ele><time>2026-04-19T11:54:59Z</time></trkpt><trkpt lat="42.98667761031674" lon="10.614589686671248"><ele>4.0</ele><time>2026-04-19T11:55:00Z</time></trkpt><trkpt lat="42.98667202386558" lon="10.614347280066118"><ele>4.0</ele><time>2026-04-19T11:55:01Z</time></trkpt><trkpt lat="42.9866693092565" lon="10.614132344314196"><ele>4.0</ele><time>2026-04-19T11:55:02Z</time></trkpt><trkpt lat="42.98667883330906" lon="10.613947869825108"><ele>4.0</ele><time>2026-04-19T11:55:03Z</time></trkpt><trkpt lat="42.986638856828534" lon="10.61374279653632"><ele>4.0</ele><time>2026-04-19T11:55:04Z</time></trkpt><trkpt lat="42.9866733881575" lon="10.613531477430422"><ele>4.0</ele><time>2026-04-19T11:55:05Z</time></trkpt><trkpt lat="42.98671914754629" lon="10.613310965734456"><ele>4.0</ele><time>2026-04-19T11:55:06Z</time></trkpt><trkpt lat="42.986763811194685" lon="10.613079175533622"><ele>4.0</ele><time>2026-04-19T11:55:07Z</time></trkpt><trkpt lat="42.98680655446426" lon="10.612839883186233"><ele>3.6666666666666665</ele><time>2026-04-19T11:55:08Z</time></trkpt><trkpt lat="42.98688734329241" lon="10.612611223989868"><ele>3.333333333333333</ele><time>2026-04-19T11:55:09Z</time></trkpt><trkpt lat="42.98692627488657" lon="10.612366318007501"><ele>3.0</ele><time>2026-04-19T11:55:10Z</time></trkpt><trkpt lat="42.9869639560242" lon="10.612125252367376"><ele>3.0</ele><time>2026-04-19T11:55:11Z</time></trkpt><trkpt lat="42.98700182481491" lon="10.61188781085468"><ele>3.0</ele><time>2026-04-19T11:55:12Z</time></trkpt><trkpt lat="42.987039658023285" lon="10.611657071612662"><ele>3.0</ele><time>2026-04-19T11:55:13Z</time></trkpt><trkpt lat="42.98707760331267" lon="10.61142564876456"><ele>3.0</ele><time>2026-04-19T11:55:14Z</time></trkpt><trkpt lat="42.987115662519706" lon="10.611190602532924"><ele>3.0</ele><time>2026-04-19T11:55:15Z</time></trkpt><trkpt lat="42.987153949755864" lon="10.610953787070299"><ele>3.0</ele><time>2026-04-19T11:55:16Z</time></trkpt><trkpt lat="42.987191522283304" lon="10.61072139224283"><ele>2.6666666666666665</ele><time>2026-04-19T11:55:17Z</time></trkpt><trkpt lat="42.98722994123091" lon="10.610483762061648"><ele>2.333333333333333</ele><time>2026-04-19T11:55:18Z</time></trkpt><trkpt lat="42.98726982160235" lon="10.610237092635408"><ele>2.0</ele><time>2026-04-19T11:55:19Z</time></trkpt><trkpt lat="42.98730976412302" lon="10.609990038861"><ele>2.0</ele><time>2026-04-19T11:55:20Z</time></trkpt><trkpt lat="42.987351050436125" lon="10.609741134066416"><ele>2.0</ele><time>2026-04-19T11:55:21Z</time></trkpt><trkpt lat="42.98739154090098" lon="10.609497630347187"><ele>2.0</ele><time>2026-04-19T11:55:22Z</time></trkpt><trkpt lat="42.98743270972866" lon="10.609252674731614"><ele>2.0</ele><time>2026-04-19T11:55:23Z</time></trkpt><trkpt lat="42.98747343027462" lon="10.609010464206426"><ele>2.0</ele><time>2026-04-19T11:55:24Z</time></trkpt><trkpt lat="42.987515363289795" lon="10.608761041732576"><ele>2.0</ele><time>2026-04-19T11:55:25Z</time></trkpt><trkpt lat="42.987555771947655" lon="10.608520338915113"><ele>2.0</ele><time>2026-04-19T11:55:26Z</time></trkpt><trkpt lat="42.98759125365411" lon="10.608298274479417"><ele>2.0</ele><time>2026-04-19T11:55:27Z</time></trkpt><trkpt lat="42.987627987144876" lon="10.608068375647584"><ele>2.0</ele><time>2026-04-19T11:55:28Z</time></trkpt><trkpt lat="42.98766690454604" lon="10.607824808713284"><ele>2.333333333333333</ele><time>2026-04-19T11:55:29Z</time></trkpt><trkpt lat="42.987707434318374" lon="10.607582401073648"><ele>2.6666666666666665</ele><time>2026-04-19T11:55:30Z</time></trkpt><trkpt lat="42.987748892489066" lon="10.607335895376066"><ele>3.0</ele><time>2026-04-19T11:55:31Z</time></trkpt><trkpt lat="42.98779032939397" lon="10.607085426298994"><ele>2.6666666666666665</ele><time>2026-04-19T11:55:32Z</time></trkpt><trkpt lat="42.987830414388476" lon="10.606839890584252"><ele>2.333333333333333</ele><time>2026-04-19T11:55:33Z</time></trkpt><trkpt lat="42.987867285980975" lon="10.606614521137383"><ele>2.0</ele><time>2026-04-19T11:55:34Z</time></trkpt><trkpt lat="42.987902129048" lon="10.606411302809095"><ele>2.0</ele><time>2026-04-19T11:55:35Z</time></trkpt><trkpt lat="42.987935116342506" lon="10.606218908012869"><ele>2.0</ele><time>2026-04-19T11:55:36Z</time></trkpt><trkpt lat="42.98796680074211" lon="10.60599845371624"><ele>2.0</ele><time>2026-04-19T11:55:37Z</time></trkpt><trkpt lat="42.98796964565192" lon="10.605771589469432"><ele>2.0</ele><time>2026-04-19T11:55:38Z</time></trkpt><trkpt lat="42.987940239347395" lon="10.605555702904677"><ele>2.0</ele><time>2026-04-19T11:55:39Z</time></trkpt><trkpt lat="42.98789761993069" lon="10.605329783181581"><ele>2.0</ele><time>2026-04-19T11:55:40Z</time></trkpt><trkpt lat="42.987851797394924" lon="10.605092450742355"><ele>2.333333333333333</ele><time>2026-04-19T11:55:41Z</time></trkpt><trkpt lat="42.98780485543522" lon="10.604849320311521"><ele>2.6666666666666665</ele><time>2026-04-19T11:55:42Z</time></trkpt><trkpt lat="42.98775775396202" lon="10.604606517470055"><ele>3.0</ele><time>2026-04-19T11:55:43Z</time></trkpt><trkpt lat="42.98770980087986" lon="10.604366366064783"><ele>3.0</ele><time>2026-04-19T11:55:44Z</time></trkpt><trkpt lat="42.98766254689476" lon="10.604129715888302"><ele>3.0</ele><time>2026-04-19T11:55:45Z</time></trkpt><trkpt lat="42.98761365473473" lon="10.603884861666897"><ele>3.0</ele><time>2026-04-19T11:55:46Z</time></trkpt><trkpt lat="42.987567323154444" lon="10.603651695709416"><ele>3.0</ele><time>2026-04-19T11:55:47Z</time></trkpt><trkpt lat="42.98752244316824" lon="10.603422198429769"><ele>3.0</ele><time>2026-04-19T11:55:48Z</time></trkpt><trkpt lat="42.98747611292775" lon="10.603184059982953"><ele>3.0</ele><time>2026-04-19T11:55:49Z</time></trkpt><trkpt lat="42.987429282529924" lon="10.602942328944673"><ele>3.0</ele><time>2026-04-19T11:55:50Z</time></trkpt><trkpt lat="42.98738188252895" lon="10.602697657614781"><ele>3.0</ele><time>2026-04-19T11:55:51Z</time></trkpt><trkpt lat="42.987334573500114" lon="10.602455489553725"><ele>3.0</ele><time>2026-04-19T11:55:52Z</time></trkpt><trkpt lat="42.98728607497179" lon="10.602211761059621"><ele>3.0</ele><time>2026-04-19T11:55:53Z</time></trkpt><trkpt lat="42.987236157492646" lon="10.601960901684341"><ele>3.0</ele><time>2026-04-19T11:55:54Z</time></trkpt><trkpt lat="42.98718659936359" lon="10.601711312918502"><ele>3.0</ele><time>2026-04-19T11:55:55Z</time></trkpt><trkpt lat="42.987137448739254" lon="10.601462819064473"><ele>3.0</ele><time>2026-04-19T11:55:56Z</time></trkpt><trkpt lat="42.98709018737403" lon="10.601223876847673"><ele>3.0</ele><time>2026-04-19T11:55:57Z</time></trkpt><trkpt lat="42.98704217906571" lon="10.600979312053942"><ele>3.0</ele><time>2026-04-19T11:55:58Z</time></trkpt><trkpt lat="42.986994990532885" lon="10.600737582421356"><ele>3.0</ele><time>2026-04-19T11:55:59Z</time></trkpt><trkpt lat="42.986947240266794" lon="10.600492975221384"><ele>3.0</ele><time>2026-04-19T11:56:00Z</time></trkpt><trkpt lat="42.986899205694165" lon="10.600246911626288"><ele>3.0</ele><time>2026-04-19T11:56:01Z</time></trkpt><trkpt lat="42.98685034405046" lon="10.599996611251388"><ele>2.6666666666666665</ele><time>2026-04-19T11:56:02Z</time></trkpt><trkpt lat="42.986802522113706" lon="10.599751636928785"><ele>2.333333333333333</ele><time>2026-04-19T11:56:03Z</time></trkpt><trkpt lat="42.98675450972009" lon="10.59950568693575"><ele>2.0</ele><time>2026-04-19T11:56:04Z</time></trkpt><trkpt lat="42.98670648402201" lon="10.59925966880416"><ele>2.0</ele><time>2026-04-19T11:56:05Z</time></trkpt><trkpt lat="42.98665996887744" lon="10.599021388724935"><ele>2.0</ele><time>2026-04-19T11:56:06Z</time></trkpt><trkpt lat="42.986614654690364" lon="10.598789260221832"><ele>2.0</ele><time>2026-04-19T11:56:07Z</time></trkpt><trkpt lat="42.98656764398143" lon="10.598555152292352"><ele>2.0</ele><time>2026-04-19T11:56:08Z</time></trkpt><trkpt lat="42.98652211113882" lon="10.59832768697809"><ele>2.0</ele><time>2026-04-19T11:56:09Z</time></trkpt><trkpt lat="42.98647762575051" lon="10.5981054543318"><ele>2.0</ele><time>2026-04-19T11:56:10Z</time></trkpt><trkpt lat="42.986430218314176" lon="10.597868624189742"><ele>2.0</ele><time>2026-04-19T11:56:11Z</time></trkpt><trkpt lat="42.986382239996516" lon="10.597628942189125"><ele>2.0</ele><time>2026-04-19T11:56:12Z</time></trkpt><trkpt lat="42.986333185031384" lon="10.59738388169043"><ele>2.0</ele><time>2026-04-19T11:56:13Z</time></trkpt><trkpt lat="42.98628545569936" lon="10.597145443521198"><ele>2.0</ele><time>2026-04-19T11:56:14Z</time></trkpt><trkpt lat="42.98623784266899" lon="10.596902680073894"><ele>2.0</ele><time>2026-04-19T11:56:15Z</time></trkpt><trkpt lat="42.986189678410376" lon="10.596656046686936"><ele>2.0</ele><time>2026-04-19T11:56:16Z</time></trkpt><trkpt lat="42.98614073291957" lon="10.596407100039345"><ele>1.6666666666666665</ele><time>2026-04-19T11:56:17Z</time></trkpt><trkpt lat="42.986090888966295" lon="10.596154250856623"><ele>1.3333333333333333</ele><time>2026-04-19T11:56:18Z</time></trkpt><trkpt lat="42.986041233216696" lon="10.595902356403206"><ele>1.0</ele><time>2026-04-19T11:56:19Z</time></trkpt><trkpt lat="42.98599241429253" lon="10.595654707042021"><ele>1.0</ele><time>2026-04-19T11:56:20Z</time></trkpt><trkpt lat="42.98594361755286" lon="10.595406371557004"><ele>1.0</ele><time>2026-04-19T11:56:21Z</time></trkpt><trkpt lat="42.985897864284766" lon="10.595167951855709"><ele>1.0</ele><time>2026-04-19T11:56:22Z</time></trkpt><trkpt lat="42.985851486234765" lon="10.594926276432188"><ele>1.3333333333333333</ele><time>2026-04-19T11:56:23Z</time></trkpt><trkpt lat="42.98580465841002" lon="10.594686293603084"><ele>1.6666666666666665</ele><time>2026-04-19T11:56:24Z</time></trkpt><trkpt lat="42.98574546264717" lon="10.5944507582767"><ele>2.0</ele><time>2026-04-19T11:56:25Z</time></trkpt><trkpt lat="42.985685299078" lon="10.594218875227376"><ele>2.0</ele><time>2026-04-19T11:56:26Z</time></trkpt><trkpt lat="42.9856221032954" lon="10.593977158979332"><ele>2.0</ele><time>2026-04-19T11:56:27Z</time></trkpt><trkpt lat="42.98555961543464" lon="10.593741209169492"><ele>2.0</ele><time>2026-04-19T11:56:28Z</time></trkpt><trkpt lat="42.985494797772354" lon="10.593496462137278"><ele>2.0</ele><time>2026-04-19T11:56:29Z</time></trkpt><trkpt lat="42.98542883600184" lon="10.593247395094714"><ele>2.0</ele><time>2026-04-19T11:56:30Z</time></trkpt><trkpt lat="42.98536249913174" lon="10.592997530881986"><ele>2.0</ele><time>2026-04-19T11:56:31Z</time></trkpt><trkpt lat="42.9852951118189" lon="10.592749459136883"><ele>2.0</ele><time>2026-04-19T11:56:32Z</time></trkpt><trkpt lat="42.98522713096322" lon="10.592499202363669"><ele>2.0</ele><time>2026-04-19T11:56:33Z</time></trkpt><trkpt lat="42.98515997634155" lon="10.592251987217105"><ele>2.0</ele><time>2026-04-19T11:56:34Z</time></trkpt><trkpt lat="42.98509378552959" lon="10.592008403758113"><ele>2.0</ele><time>2026-04-19T11:56:35Z</time></trkpt><trkpt lat="42.985030014543376" lon="10.591773829058345"><ele>2.0</ele><time>2026-04-19T11:56:36Z</time></trkpt><trkpt lat="42.98496585950389" lon="10.591537056987736"><ele>2.0</ele><time>2026-04-19T11:56:37Z</time></trkpt><trkpt lat="42.98490504816309" lon="10.591310652954101"><ele>2.6666666666666665</ele><time>2026-04-19T11:56:38Z</time></trkpt><trkpt lat="42.984845707473724" lon="10.591089724154727"><ele>3.333333333333333</ele><time>2026-04-19T11:56:39Z</time></trkpt><trkpt lat="42.984787171669936" lon="10.590876306055186"><ele>4.0</ele><time>2026-04-19T11:56:40Z</time></trkpt><trkpt lat="42.98472864376836" lon="10.590665588587731"><ele>4.0</ele><time>2026-04-19T11:56:41Z</time></trkpt><trkpt lat="42.984672231758175" lon="10.590462746430928"><ele>4.0</ele><time>2026-04-19T11:56:42Z</time></trkpt><trkpt lat="42.984622370809625" lon="10.590279140693246"><ele>4.0</ele><time>2026-04-19T11:56:43Z</time></trkpt><trkpt lat="42.9845804977268" lon="10.590117813103701"><ele>4.0</ele><time>2026-04-19T11:56:44Z</time></trkpt><trkpt lat="42.98453929666363" lon="10.589959236391126"><ele>4.5</ele><time>2026-04-19T11:56:45Z</time></trkpt><trkpt lat="42.984496718132135" lon="10.58979937259391"><ele>5.0</ele><time>2026-04-19T11:56:46Z</time></trkpt><trkpt lat="42.98445543342829" lon="10.589645160694648"><ele>5.5</ele><time>2026-04-19T11:56:47Z</time></trkpt><trkpt lat="42.98444182981417" lon="10.589491338493085"><ele>6.0</ele><time>2026-04-19T11:56:48Z</time></trkpt><trkpt lat="42.984437533024185" lon="10.58934644456392"><ele>6.0</ele><time>2026-04-19T11:56:49Z</time></trkpt><trkpt lat="42.984433876590174" lon="10.589214490231551"><ele>6.0</ele><time>2026-04-19T11:56:50Z</time></trkpt><trkpt lat="42.984432052775794" lon="10.589105265419429"><ele>6.0</ele><time>2026-04-19T11:56:51Z</time></trkpt><trkpt lat="42.98443205277418" lon="10.588985355914009"><ele>6.0</ele><time>2026-04-19T11:56:52Z</time></trkpt><trkpt lat="42.98443496340285" lon="10.588848618146566"><ele>6.0</ele><time>2026-04-19T11:56:53Z</time></trkpt><trkpt lat="42.984438136933804" lon="10.5886844358996"><ele>5.0</ele><time>2026-04-19T11:56:54Z</time></trkpt><trkpt lat="42.984444504258626" lon="10.588505593260646"><ele>4.0</ele><time>2026-04-19T11:56:55Z</time></trkpt><trkpt lat="42.984449913924884" lon="10.588308606154268"><ele>3.0</ele><time>2026-04-19T11:56:56Z</time></trkpt><trkpt lat="42.9844555552721" lon="10.588102004649034"><ele>2.0</ele><time>2026-04-19T11:56:57Z</time></trkpt><trkpt lat="42.984461191896976" lon="10.587895575958864"><ele>1.6666666666666665</ele><time>2026-04-19T11:56:58Z</time></trkpt><trkpt lat="42.98446679237998" lon="10.587676827252919"><ele>1.3333333333333333</ele><time>2026-04-19T11:56:59Z</time></trkpt><trkpt lat="42.98447285621542" lon="10.587439289849891"><ele>1.0</ele><time>2026-04-19T11:57:00Z</time></trkpt><trkpt lat="42.9844789432182" lon="10.58720084489656"><ele>1.0</ele><time>2026-04-19T11:57:01Z</time></trkpt><trkpt lat="42.984484771042325" lon="10.586972552772428"><ele>1.0</ele><time>2026-04-19T11:57:02Z</time></trkpt><trkpt lat="42.98449095669871" lon="10.586730243219732"><ele>1.0</ele><time>2026-04-19T11:57:03Z</time></trkpt><trkpt lat="42.984496939408565" lon="10.58649611940217"><ele>1.0</ele><time>2026-04-19T11:57:04Z</time></trkpt><trkpt lat="42.98450329922405" lon="10.586254596063306"><ele>1.0</ele><time>2026-04-19T11:57:05Z</time></trkpt><trkpt lat="42.98450917331615" lon="10.58603151879663"><ele>1.0</ele><time>2026-04-19T11:57:06Z</time></trkpt><trkpt lat="42.98451393373176" lon="10.585850735013434"><ele>1.2000000000000002</ele><time>2026-04-19T11:57:07Z</time></trkpt><trkpt lat="42.984517773515776" lon="10.58570491358781"><ele>1.4000000000000001</ele><time>2026-04-19T11:57:08Z</time></trkpt><trkpt lat="42.9845207478276" lon="10.585591959723557"><ele>1.6</ele><time>2026-04-19T11:57:09Z</time></trkpt><trkpt lat="42.984524224913024" lon="10.58545991172839"><ele>1.8</ele><time>2026-04-19T11:57:11Z</time></trkpt><trkpt lat="42.98437043831784" lon="10.5854824955888"><ele>2.0</ele><time>2026-04-19T11:57:12Z</time></trkpt><trkpt lat="42.984294444372104" lon="10.585476299449866"><ele>2.0</ele><time>2026-04-19T11:57:13Z</time></trkpt><trkpt lat="42.98419375054947" lon="10.585517768023257"><ele>2.0</ele><time>2026-04-19T11:57:14Z</time></trkpt><trkpt lat="42.984066986709486" lon="10.585536481250527"><ele>2.0</ele><time>2026-04-19T11:57:15Z</time></trkpt><trkpt lat="42.983929175530875" lon="10.58555282456324"><ele>2.0</ele><time>2026-04-19T11:57:16Z</time></trkpt><trkpt lat="42.983781554345335" lon="10.585572955550077"><ele>1.6666666666666665</ele><time>2026-04-19T11:57:17Z</time></trkpt><trkpt lat="42.98362430437821" lon="10.58559506239586"><ele>1.3333333333333333</ele><time>2026-04-19T11:57:18Z</time></trkpt><trkpt lat="42.98345962237957" lon="10.585621703719001"><ele>1.0</ele><time>2026-04-19T11:57:19Z</time></trkpt><trkpt lat="42.98329596906057" lon="10.585657520895511"><ele>0.6666666666666666</ele><time>2026-04-19T11:57:20Z</time></trkpt><trkpt lat="42.98312584470302" lon="10.585710710595123"><ele>0.3333333333333333</ele><time>2026-04-19T11:57:21Z</time></trkpt><trkpt lat="42.98295785828272" lon="10.585776634634922"><ele>0.0</ele><time>2026-04-19T11:57:22Z</time></trkpt><trkpt lat="42.98278853377363" lon="10.58584983140081"><ele>0.0</ele><time>2026-04-19T11:57:23Z</time></trkpt><trkpt lat="42.98261569445582" lon="10.585927656560367"><ele>0.0</ele><time>2026-04-19T11:57:24Z</time></trkpt><trkpt lat="42.98243986522375" lon="10.586004788753561"><ele>0.0</ele><time>2026-04-19T11:57:25Z</time></trkpt><trkpt lat="42.982263793098696" lon="10.586081288178567"><ele>0.0</ele><time>2026-04-19T11:57:26Z</time></trkpt><trkpt lat="42.98208543425991" lon="10.586156240691029"><ele>0.0</ele><time>2026-04-19T11:57:27Z</time></trkpt><trkpt lat="42.98190221844428" lon="10.586228940813674"><ele>0.0</ele><time>2026-04-19T11:57:28Z</time></trkpt><trkpt lat="42.98171594283211" lon="10.58630140079733"><ele>0.0</ele><time>2026-04-19T11:57:29Z</time></trkpt><trkpt lat="42.981529272725815" lon="10.586375265213139"><ele>0.0</ele><time>2026-04-19T11:57:30Z</time></trkpt><trkpt lat="42.98134154566449" lon="10.58645278527613"><ele>0.0</ele><time>2026-04-19T11:57:31Z</time></trkpt><trkpt lat="42.98115598610114" lon="10.586534207820675"><ele>0.0</ele><time>2026-04-19T11:57:32Z</time></trkpt><trkpt lat="42.980975792353554" lon="10.586610450184516"><ele>0.0</ele><time>2026-04-19T11:57:33Z</time></trkpt><trkpt lat="42.98079374886492" lon="10.58668636281458"><ele>0.0</ele><time>2026-04-19T11:57:34Z</time></trkpt><trkpt lat="42.98060712945162" lon="10.586762561925738"><ele>0.3333333333333333</ele><time>2026-04-19T11:57:35Z</time></trkpt><trkpt lat="42.9804178821145" lon="10.586837210434636"><ele>0.6666666666666666</ele><time>2026-04-19T11:57:36Z</time></trkpt><trkpt lat="42.98023054999257" lon="10.586912956512027"><ele>1.0</ele><time>2026-04-19T11:57:37Z</time></trkpt><trkpt lat="42.980044524556" lon="10.5869933458897"><ele>0.3333333333333333</ele><time>2026-04-19T11:57:38Z</time></trkpt><trkpt lat="42.979859949065684" lon="10.587072862189007"><ele>-0.3333333333333333</ele><time>2026-04-19T11:57:39Z</time></trkpt><trkpt lat="42.97967169655046" lon="10.587148881351082"><ele>-1.0</ele><time>2026-04-19T11:57:40Z</time></trkpt><trkpt lat="42.97948037743599" lon="10.58722723189983"><ele>-1.0</ele><time>2026-04-19T11:57:41Z</time></trkpt><trkpt lat="42.97928657923328" lon="10.587308970109019"><ele>-1.0</ele><time>2026-04-19T11:57:42Z</time></trkpt><trkpt lat="42.97910276361325" lon="10.587389574425067"><ele>-1.0</ele><time>2026-04-19T11:57:43Z</time></trkpt><trkpt lat="42.97891562638523" lon="10.587467060909475"><ele>-1.0</ele><time>2026-04-19T11:57:44Z</time></trkpt><trkpt lat="42.97872792138275" lon="10.58754073976829"><ele>-1.0</ele><time>2026-04-19T11:57:45Z</time></trkpt><trkpt lat="42.97853869371016" lon="10.587619488377157"><ele>-1.0</ele><time>2026-04-19T11:57:46Z</time></trkpt><trkpt lat="42.97835086642595" lon="10.587699431995006"><ele>-1.0</ele><time>2026-04-19T11:57:47Z</time></trkpt><trkpt lat="42.9781638681948" lon="10.587779062968126"><ele>-1.0</ele><time>2026-04-19T11:57:48Z</time></trkpt><trkpt lat="42.977973390205946" lon="10.587856737997656"><ele>-1.0</ele><time>2026-04-19T11:57:49Z</time></trkpt><trkpt lat="42.977790988668204" lon="10.587928903551516"><ele>-1.0</ele><time>2026-04-19T11:57:50Z</time></trkpt><trkpt lat="42.977605284618036" lon="10.588000616991193"><ele>-1.0</ele><time>2026-04-19T11:57:51Z</time></trkpt><trkpt lat="42.97741879591325" lon="10.588075271367998"><ele>-1.0</ele><time>2026-04-19T11:57:52Z</time></trkpt><trkpt lat="42.97723418134887" lon="10.58815456138909"><ele>-1.0</ele><time>2026-04-19T11:57:53Z</time></trkpt><trkpt lat="42.97704979521927" lon="10.588234559258447"><ele>-1.0</ele><time>2026-04-19T11:57:54Z</time></trkpt><trkpt lat="42.97686403616782" lon="10.588313782020528"><ele>-1.0</ele><time>2026-04-19T11:57:55Z</time></trkpt><trkpt lat="42.97667638681441" lon="10.588389014013934"><ele>-0.3333333333333333</ele><time>2026-04-19T11:57:56Z</time></trkpt><trkpt lat="42.976491237792885" lon="10.588461717843854"><ele>0.3333333333333333</ele><time>2026-04-19T11:57:57Z</time></trkpt><trkpt lat="42.97630865807904" lon="10.588542072584657"><ele>1.0</ele><time>2026-04-19T11:57:58Z</time></trkpt><trkpt lat="42.97612236125178" lon="10.588625332348233"><ele>0.3333333333333333</ele><time>2026-04-19T11:57:59Z</time></trkpt><trkpt lat="42.975929785628466" lon="10.588706610170762"><ele>-0.3333333333333333</ele><time>2026-04-19T11:58:00Z</time></trkpt><trkpt lat="42.975736240539696" lon="10.58878277835249"><ele>-1.0</ele><time>2026-04-19T11:58:01Z</time></trkpt><trkpt lat="42.97554483331246" lon="10.588862568509724"><ele>-1.0</ele><time>2026-04-19T11:58:02Z</time></trkpt><trkpt lat="42.97535236854768" lon="10.58894358397985"><ele>-1.0</ele><time>2026-04-19T11:58:03Z</time></trkpt><trkpt lat="42.97516463129979" lon="10.589022302927393"><ele>-1.0</ele><time>2026-04-19T11:58:04Z</time></trkpt><trkpt lat="42.974975041364594" lon="10.589100572477909"><ele>-0.3333333333333333</ele><time>2026-04-19T11:58:05Z</time></trkpt><trkpt lat="42.97478620064898" lon="10.589177400849866"><ele>0.3333333333333333</ele><time>2026-04-19T11:58:06Z</time></trkpt><trkpt lat="42.97459907027974" lon="10.58925744267688"><ele>1.0</ele><time>2026-04-19T11:58:07Z</time></trkpt><trkpt lat="42.97441164308261" lon="10.58933756696502"><ele>1.0</ele><time>2026-04-19T11:58:08Z</time></trkpt><trkpt lat="42.97421928592602" lon="10.589415030630711"><ele>1.0</ele><time>2026-04-19T11:58:09Z</time></trkpt><trkpt lat="42.974028810504876" lon="10.589488625909292"><ele>1.0</ele><time>2026-04-19T11:58:10Z</time></trkpt><trkpt lat="42.97383272671613" lon="10.589560922055055"><ele>0.3333333333333333</ele><time>2026-04-19T11:58:11Z</time></trkpt><trkpt lat="42.973647949641126" lon="10.589636415256015"><ele>-0.3333333333333333</ele><time>2026-04-19T11:58:12Z</time></trkpt><trkpt lat="42.97346504610068" lon="10.589717058035797"><ele>-1.0</ele><time>2026-04-19T11:58:13Z</time></trkpt><trkpt lat="42.97328213239656" lon="10.58978750253628"><ele>-2.0</ele><time>2026-04-19T11:58:14Z</time></trkpt><trkpt lat="42.97309552752564" lon="10.589867500377851"><ele>-3.0</ele><time>2026-04-19T11:58:15Z</time></trkpt><trkpt lat="42.972906529425245" lon="10.589945580397009"><ele>-4.0</ele><time>2026-04-19T11:58:16Z</time></trkpt><trkpt lat="42.972715723392646" lon="10.590019906139084"><ele>-3.0</ele><time>2026-04-19T11:58:17Z</time></trkpt><trkpt lat="42.97251995084051" lon="10.590097860653342"><ele>-2.0</ele><time>2026-04-19T11:58:18Z</time></trkpt><trkpt lat="42.97232972716176" lon="10.59017634009506"><ele>-1.0</ele><time>2026-04-19T11:58:19Z</time></trkpt><trkpt lat="42.97213891199424" lon="10.59025811387009"><ele>-1.0</ele><time>2026-04-19T11:58:20Z</time></trkpt><trkpt lat="42.97194187261371" lon="10.590335727890377"><ele>-1.0</ele><time>2026-04-19T11:58:21Z</time></trkpt><trkpt lat="42.97174803160916" lon="10.590418935422107"><ele>-1.0</ele><time>2026-04-19T11:58:22Z</time></trkpt><trkpt lat="42.97154869954276" lon="10.590504803963038"><ele>-1.3333333333333333</ele><time>2026-04-19T11:58:23Z</time></trkpt><trkpt lat="42.971357571423205" lon="10.59057713727685"><ele>-1.6666666666666665</ele><time>2026-04-19T11:58:24Z</time></trkpt><trkpt lat="42.97115996570263" lon="10.590657131529174"><ele>-2.0</ele><time>2026-04-19T11:58:25Z</time></trkpt><trkpt lat="42.97096494106191" lon="10.590730422210273"><ele>-1.6666666666666665</ele><time>2026-04-19T11:58:26Z</time></trkpt><trkpt lat="42.97076475522839" lon="10.590806523999232"><ele>-1.3333333333333333</ele><time>2026-04-19T11:58:27Z</time></trkpt><trkpt lat="42.97056031133962" lon="10.590885813846196"><ele>-1.0</ele><time>2026-04-19T11:58:28Z</time></trkpt><trkpt lat="42.9703622880427" lon="10.590965949654368"><ele>-1.0</ele><time>2026-04-19T11:58:29Z</time></trkpt><trkpt lat="42.970169453841024" lon="10.59104698157621"><ele>-1.0</ele><time>2026-04-19T11:58:30Z</time></trkpt><trkpt lat="42.96996990543256" lon="10.591127918117412"><ele>-1.0</ele><time>2026-04-19T11:58:31Z</time></trkpt><trkpt lat="42.969771335875976" lon="10.591211314113341"><ele>-1.3333333333333333</ele><time>2026-04-19T11:58:32Z</time></trkpt><trkpt lat="42.96957841287987" lon="10.591294238041671"><ele>-1.6666666666666665</ele><time>2026-04-19T11:58:33Z</time></trkpt><trkpt lat="42.96937851579933" lon="10.59137744049197"><ele>-2.0</ele><time>2026-04-19T11:58:34Z</time></trkpt><trkpt lat="42.96918161702564" lon="10.591454611865283"><ele>-2.333333333333333</ele><time>2026-04-19T11:58:35Z</time></trkpt><trkpt lat="42.96898587894128" lon="10.591533372238892"><ele>-2.6666666666666665</ele><time>2026-04-19T11:58:36Z</time></trkpt><trkpt lat="42.96879167269189" lon="10.591615486506884"><ele>-3.0</ele><time>2026-04-19T11:58:37Z</time></trkpt><trkpt lat="42.96860266567496" lon="10.59169627227239"><ele>-3.0</ele><time>2026-04-19T11:58:38Z</time></trkpt><trkpt lat="42.96841496262306" lon="10.591777550772134"><ele>-3.0</ele><time>2026-04-19T11:58:39Z</time></trkpt><trkpt lat="42.96822632366941" lon="10.591853021063429"><ele>-3.0</ele><time>2026-04-19T11:58:40Z</time></trkpt><trkpt lat="42.968043634236444" lon="10.591928604725343"><ele>-3.0</ele><time>2026-04-19T11:58:41Z</time></trkpt><trkpt lat="42.9678596324016" lon="10.592001484033714"><ele>-3.0</ele><time>2026-04-19T11:58:42Z</time></trkpt><trkpt lat="42.96767579704074" lon="10.592077291423438"><ele>-3.0</ele><time>2026-04-19T11:58:43Z</time></trkpt><trkpt lat="42.96752184055374" lon="10.592138952847224"><ele>-3.0</ele><time>2026-04-19T11:58:44Z</time></trkpt><trkpt lat="42.96737294403311" lon="10.59219628978557"><ele>-3.0</ele><time>2026-04-19T11:58:45Z</time></trkpt><trkpt lat="42.967218199906796" lon="10.592257145355083"><ele>-3.0</ele><time>2026-04-19T11:58:46Z</time></trkpt><trkpt lat="42.96706030703369" lon="10.592323153456672"><ele>-3.0</ele><time>2026-04-19T11:58:47Z</time></trkpt><trkpt lat="42.96693369633511" lon="10.592376332622601"><ele>-3.0</ele><time>2026-04-19T11:58:48Z</time></trkpt><trkpt lat="42.96683687803413" lon="10.59241353441686"><ele>-3.0</ele><time>2026-04-19T11:58:49Z</time></trkpt><trkpt lat="42.966759057150774" lon="10.592437346717434"><ele>-3.0</ele><time>2026-04-19T11:58:50Z</time></trkpt><trkpt lat="42.966663596633865" lon="10.592461053972764"><ele>-3.0</ele><time>2026-04-19T11:58:52Z</time></trkpt><trkpt lat="42.96663389320432" lon="10.5922055621771"><ele>-2.25</ele><time>2026-04-19T11:58:55Z</time></trkpt><trkpt lat="42.966632260379576" lon="10.592063072491518"><ele>-1.5</ele><time>2026-04-19T11:58:56Z</time></trkpt><trkpt lat="42.966630497378404" lon="10.591909222690973"><ele>-0.75</ele><time>2026-04-19T11:58:57Z</time></trkpt><trkpt lat="42.96662853720955" lon="10.591739520060356"><ele>0.0</ele><time>2026-04-19T11:58:58Z</time></trkpt><trkpt lat="42.96662633247899" lon="10.591549800978555"><ele>0.0</ele><time>2026-04-19T11:58:59Z</time></trkpt><trkpt lat="42.96662405625231" lon="10.591353929655995"><ele>0.0</ele><time>2026-04-19T11:59:00Z</time></trkpt><trkpt lat="42.966621476334936" lon="10.591131925863115"><ele>0.0</ele><time>2026-04-19T11:59:01Z</time></trkpt><trkpt lat="42.96661876493891" lon="10.59089860761799"><ele>0.0</ele><time>2026-04-19T11:59:02Z</time></trkpt><trkpt lat="42.96661626841343" lon="10.590663565319414"><ele>0.0</ele><time>2026-04-19T11:59:03Z</time></trkpt><trkpt lat="42.966613818868055" lon="10.590421492719052"><ele>0.0</ele><time>2026-04-19T11:59:04Z</time></trkpt><trkpt lat="42.96661125764555" lon="10.59016838376023"><ele>0.0</ele><time>2026-04-19T11:59:05Z</time></trkpt><trkpt lat="42.966607673531165" lon="10.589914341421261"><ele>0.0</ele><time>2026-04-19T11:59:06Z</time></trkpt><trkpt lat="42.96660408531755" lon="10.589666156666738"><ele>0.0</ele><time>2026-04-19T11:59:07Z</time></trkpt><trkpt lat="42.966584089480186" lon="10.589418662807649"><ele>0.0</ele><time>2026-04-19T11:59:08Z</time></trkpt><trkpt lat="42.96658310845638" lon="10.58916565251448"><ele>0.0</ele><time>2026-04-19T11:59:09Z</time></trkpt><trkpt lat="42.96659881708903" lon="10.58890818722295"><ele>0.0</ele><time>2026-04-19T11:59:10Z</time></trkpt><trkpt lat="42.9666009188763" lon="10.588655552191959"><ele>0.0</ele><time>2026-04-19T11:59:11Z</time></trkpt><trkpt lat="42.96660469739197" lon="10.588402586560607"><ele>0.0</ele><time>2026-04-19T11:59:12Z</time></trkpt><trkpt lat="42.96660988916404" lon="10.588151050479814"><ele>0.0</ele><time>2026-04-19T11:59:13Z</time></trkpt><trkpt lat="42.96661503730955" lon="10.587901628080957"><ele>0.6666666666666666</ele><time>2026-04-19T11:59:14Z</time></trkpt><trkpt lat="42.966620823504016" lon="10.58765033889696"><ele>1.3333333333333333</ele><time>2026-04-19T11:59:15Z</time></trkpt><trkpt lat="42.96662748998323" lon="10.587392357095743"><ele>2.0</ele><time>2026-04-19T11:59:16Z</time></trkpt><trkpt lat="42.966634270355314" lon="10.58712996777131"><ele>1.6666666666666665</ele><time>2026-04-19T11:59:17Z</time></trkpt><trkpt lat="42.96664118687061" lon="10.586862310083172"><ele>1.3333333333333333</ele><time>2026-04-19T11:59:18Z</time></trkpt><trkpt lat="42.96664813963457" lon="10.586593249342329"><ele>1.0</ele><time>2026-04-19T11:59:19Z</time></trkpt><trkpt lat="42.96665480449051" lon="10.5863340679612"><ele>1.3333333333333333</ele><time>2026-04-19T11:59:20Z</time></trkpt><trkpt lat="42.966662224556025" lon="10.58608008140429"><ele>1.6666666666666665</ele><time>2026-04-19T11:59:21Z</time></trkpt><trkpt lat="42.966670013860806" lon="10.58581345586606"><ele>2.0</ele><time>2026-04-19T11:59:22Z</time></trkpt><trkpt lat="42.966677944751915" lon="10.58554198376819"><ele>2.0</ele><time>2026-04-19T11:59:23Z</time></trkpt><trkpt lat="42.966685644105475" lon="10.585278437039927"><ele>2.0</ele><time>2026-04-19T11:59:24Z</time></trkpt><trkpt lat="42.96669311440431" lon="10.585022730943153"><ele>2.0</ele><time>2026-04-19T11:59:25Z</time></trkpt><trkpt lat="42.96670074296267" lon="10.584766947303173"><ele>1.6666666666666665</ele><time>2026-04-19T11:59:26Z</time></trkpt><trkpt lat="42.96670864208565" lon="10.584508953917112"><ele>1.3333333333333333</ele><time>2026-04-19T11:59:27Z</time></trkpt><trkpt lat="42.96671673056797" lon="10.584244775738044"><ele>1.0</ele><time>2026-04-19T11:59:28Z</time></trkpt><trkpt lat="42.96672498413653" lon="10.583975205701734"><ele>1.0</ele><time>2026-04-19T11:59:29Z</time></trkpt><trkpt lat="42.96673310649823" lon="10.583707151157835"><ele>1.0</ele><time>2026-04-19T11:59:30Z</time></trkpt><trkpt lat="42.966739941448424" lon="10.583450550660618"><ele>1.0</ele><time>2026-04-19T11:59:31Z</time></trkpt><trkpt lat="42.96674710610997" lon="10.58319297680657"><ele>1.0</ele><time>2026-04-19T11:59:32Z</time></trkpt><trkpt lat="42.96675446041182" lon="10.58292858556114"><ele>1.0</ele><time>2026-04-19T11:59:33Z</time></trkpt><trkpt lat="42.96676184903519" lon="10.582662960055735"><ele>1.0</ele><time>2026-04-19T11:59:34Z</time></trkpt><trkpt lat="42.966769198748516" lon="10.582398733641748"><ele>1.0</ele><time>2026-04-19T11:59:35Z</time></trkpt><trkpt lat="42.966776577131434" lon="10.582138128624633"><ele>1.0</ele><time>2026-04-19T11:59:36Z</time></trkpt><trkpt lat="42.96678397051086" lon="10.581877594491727"><ele>1.0</ele><time>2026-04-19T11:59:37Z</time></trkpt><trkpt lat="42.966791457901024" lon="10.58161374760826"><ele>1.0</ele><time>2026-04-19T11:59:38Z</time></trkpt><trkpt lat="42.966798938678096" lon="10.581350133456624"><ele>1.0</ele><time>2026-04-19T11:59:39Z</time></trkpt><trkpt lat="42.96680646801957" lon="10.581089551481298"><ele>1.0</ele><time>2026-04-19T11:59:40Z</time></trkpt><trkpt lat="42.96681400077382" lon="10.580820981295965"><ele>1.3333333333333333</ele><time>2026-04-19T11:59:41Z</time></trkpt><trkpt lat="42.96682126998633" lon="10.580551900931907"><ele>1.6666666666666665</ele><time>2026-04-19T11:59:42Z</time></trkpt><trkpt lat="42.966828601248565" lon="10.580280523567225"><ele>2.0</ele><time>2026-04-19T11:59:43Z</time></trkpt><trkpt lat="42.96683590358052" lon="10.580010217337508"><ele>2.0</ele><time>2026-04-19T11:59:44Z</time></trkpt><trkpt lat="42.966843328395576" lon="10.579736822361276"><ele>2.0</ele><time>2026-04-19T11:59:45Z</time></trkpt><trkpt lat="42.96685085513618" lon="10.579462257725964"><ele>2.0</ele><time>2026-04-19T11:59:46Z</time></trkpt><trkpt lat="42.96685843238191" lon="10.579185850396577"><ele>1.6666666666666665</ele><time>2026-04-19T11:59:47Z</time></trkpt><trkpt lat="42.96686597246431" lon="10.578910799337505"><ele>1.3333333333333333</ele><time>2026-04-19T11:59:48Z</time></trkpt><trkpt lat="42.96687354681723" lon="10.57863449769437"><ele>1.0</ele><time>2026-04-19T11:59:49Z</time></trkpt><trkpt lat="42.966881213128524" lon="10.578354841655457"><ele>1.0</ele><time>2026-04-19T11:59:50Z</time></trkpt><trkpt lat="42.96688901864162" lon="10.578070107846322"><ele>1.0</ele><time>2026-04-19T11:59:51Z</time></trkpt><trkpt lat="42.96689632627645" lon="10.577803535649409"><ele>1.0</ele><time>2026-04-19T11:59:52Z</time></trkpt><trkpt lat="42.96690375033389" lon="10.577528466570866"><ele>1.0</ele><time>2026-04-19T11:59:53Z</time></trkpt><trkpt lat="42.966911208997274" lon="10.577251925942212"><ele>1.0</ele><time>2026-04-19T11:59:54Z</time></trkpt><trkpt lat="42.96691879651888" lon="10.576970607692486"><ele>1.0</ele><time>2026-04-19T11:59:55Z</time></trkpt><trkpt lat="42.96692618052753" lon="10.576696835015527"><ele>0.6666666666666666</ele><time>2026-04-19T11:59:56Z</time></trkpt><trkpt lat="42.96693372723257" lon="10.576417029951022"><ele>0.3333333333333333</ele><time>2026-04-19T11:59:57Z</time></trkpt><trkpt lat="42.96694129774887" lon="10.576136342343059"><ele>0.0</ele><time>2026-04-19T11:59:58Z</time></trkpt><trkpt lat="42.96694911168632" lon="10.575861787454087"><ele>0.0</ele><time>2026-04-19T11:59:59Z</time></trkpt><trkpt lat="42.9669571834155" lon="10.575585296578431"><ele>0.0</ele><time>2026-04-19T12:00:00Z</time></trkpt><trkpt lat="42.966965116234185" lon="10.575321907444929"><ele>0.0</ele><time>2026-04-19T12:00:01Z</time></trkpt><trkpt lat="42.9669733529038" lon="10.575058453975661"><ele>0.0</ele><time>2026-04-19T12:00:02Z</time></trkpt><trkpt lat="42.96698181995616" lon="10.574787631849398"><ele>0.0</ele><time>2026-04-19T12:00:03Z</time></trkpt><trkpt lat="42.96699000241776" lon="10.574525912456894"><ele>0.0</ele><time>2026-04-19T12:00:04Z</time></trkpt><trkpt lat="42.96699831639364" lon="10.5742553187465"><ele>0.0</ele><time>2026-04-19T12:00:05Z</time></trkpt><trkpt lat="42.967006380488954" lon="10.573982784249285"><ele>0.0</ele><time>2026-04-19T12:00:06Z</time></trkpt><trkpt lat="42.96701461365147" lon="10.573704535533695"><ele>0.0</ele><time>2026-04-19T12:00:07Z</time></trkpt><trkpt lat="42.96702268620728" lon="10.573431715254538"><ele>0.3333333333333333</ele><time>2026-04-19T12:00:08Z</time></trkpt><trkpt lat="42.96703057416006" lon="10.57315272580129"><ele>0.6666666666666666</ele><time>2026-04-19T12:00:09Z</time></trkpt><trkpt lat="42.96703746967827" lon="10.572900388102628"><ele>1.0</ele><time>2026-04-19T12:00:10Z</time></trkpt><trkpt lat="42.9670441993083" lon="10.572654120758399"><ele>0.3333333333333333</ele><time>2026-04-19T12:00:11Z</time></trkpt><trkpt lat="42.96705079224295" lon="10.572412855708128"><ele>-0.3333333333333333</ele><time>2026-04-19T12:00:12Z</time></trkpt><trkpt lat="42.9670574806896" lon="10.572168095214886"><ele>-1.0</ele><time>2026-04-19T12:00:13Z</time></trkpt><trkpt lat="42.96706407729124" lon="10.571926696316606"><ele>-1.3333333333333333</ele><time>2026-04-19T12:00:14Z</time></trkpt><trkpt lat="42.967070679032894" lon="10.571685108952552"><ele>-1.6666666666666665</ele><time>2026-04-19T12:00:15Z</time></trkpt><trkpt lat="42.967077332081246" lon="10.571450473802901"><ele>-2.0</ele><time>2026-04-19T12:00:16Z</time></trkpt><trkpt lat="42.96708385040601" lon="10.571226006273665"><ele>-1.75</ele><time>2026-04-19T12:00:17Z</time></trkpt><trkpt lat="42.967090082701844" lon="10.57101138845234"><ele>-1.5</ele><time>2026-04-19T12:00:18Z</time></trkpt><trkpt lat="42.967095954725245" lon="10.570809177190199"><ele>-1.25</ele><time>2026-04-19T12:00:19Z</time></trkpt><trkpt lat="42.96710147643468" lon="10.570619029313843"><ele>-1.0</ele><time>2026-04-19T12:00:20Z</time></trkpt><trkpt lat="42.96710690484556" lon="10.57043209426573"><ele>-0.5</ele><time>2026-04-19T12:00:21Z</time></trkpt><trkpt lat="42.96711231526475" lon="10.57024577906613"><ele>0.0</ele><time>2026-04-19T12:00:22Z</time></trkpt><trkpt lat="42.96710239012073" lon="10.57005809586768"><ele>0.5</ele><time>2026-04-19T12:00:23Z</time></trkpt><trkpt lat="42.967116046050805" lon="10.569861495449132"><ele>1.0</ele><time>2026-04-19T12:00:24Z</time></trkpt><trkpt lat="42.967119645163386" lon="10.569648972245608"><ele>1.3333333333333333</ele><time>2026-04-19T12:00:25Z</time></trkpt><trkpt lat="42.96713525804541" lon="10.569425493620937"><ele>1.6666666666666665</ele><time>2026-04-19T12:00:26Z</time></trkpt><trkpt lat="42.96714182960298" lon="10.569191990535282"><ele>2.0</ele><time>2026-04-19T12:00:27Z</time></trkpt><trkpt lat="42.967149019235784" lon="10.568945354878599"><ele>2.0</ele><time>2026-04-19T12:00:28Z</time></trkpt><trkpt lat="42.96715679847001" lon="10.568699555742098"><ele>2.0</ele><time>2026-04-19T12:00:29Z</time></trkpt><trkpt lat="42.9671648519776" lon="10.568457480263293"><ele>2.0</ele><time>2026-04-19T12:00:30Z</time></trkpt><trkpt lat="42.96717207145197" lon="10.568214795437394"><ele>2.0</ele><time>2026-04-19T12:00:31Z</time></trkpt><trkpt lat="42.96717845005294" lon="10.567969908479325"><ele>2.0</ele><time>2026-04-19T12:00:32Z</time></trkpt><trkpt lat="42.96718442724087" lon="10.567725888330568"><ele>2.0</ele><time>2026-04-19T12:00:33Z</time></trkpt><trkpt lat="42.96719037906281" lon="10.567482903807601"><ele>2.0</ele><time>2026-04-19T12:00:34Z</time></trkpt><trkpt lat="42.967196481670406" lon="10.567243938617905"><ele>2.0</ele><time>2026-04-19T12:00:35Z</time></trkpt><trkpt lat="42.967203653048344" lon="10.566987568247106"><ele>2.0</ele><time>2026-04-19T12:00:36Z</time></trkpt><trkpt lat="42.96721007932489" lon="10.566728709233237"><ele>1.6666666666666665</ele><time>2026-04-19T12:00:37Z</time></trkpt><trkpt lat="42.96721648186748" lon="10.566470806069665"><ele>1.3333333333333333</ele><time>2026-04-19T12:00:38Z</time></trkpt><trkpt lat="42.967222626808834" lon="10.566223279561775"><ele>1.0</ele><time>2026-04-19T12:00:39Z</time></trkpt><trkpt lat="42.96722894086352" lon="10.565968940892843"><ele>1.0</ele><time>2026-04-19T12:00:40Z</time></trkpt><trkpt lat="42.96723597938681" lon="10.565709224542603"><ele>1.0</ele><time>2026-04-19T12:00:41Z</time></trkpt><trkpt lat="42.96724328688967" lon="10.565452378530368"><ele>1.0</ele><time>2026-04-19T12:00:42Z</time></trkpt><trkpt lat="42.967250509870766" lon="10.56519331288587"><ele>1.0</ele><time>2026-04-19T12:00:43Z</time></trkpt><trkpt lat="42.96725728821558" lon="10.564935850498355"><ele>1.0</ele><time>2026-04-19T12:00:44Z</time></trkpt><trkpt lat="42.967263887821574" lon="10.564676999286208"><ele>1.0</ele><time>2026-04-19T12:00:45Z</time></trkpt><trkpt lat="42.96727037431968" lon="10.56442258445478"><ele>1.0</ele><time>2026-04-19T12:00:46Z</time></trkpt><trkpt lat="42.96727728038105" lon="10.564163144433634"><ele>1.0</ele><time>2026-04-19T12:00:47Z</time></trkpt><trkpt lat="42.967285154124816" lon="10.563903249366055"><ele>1.0</ele><time>2026-04-19T12:00:48Z</time></trkpt><trkpt lat="42.96729292866059" lon="10.563644851286865"><ele>0.6666666666666666</ele><time>2026-04-19T12:00:49Z</time></trkpt><trkpt lat="42.96730057392096" lon="10.563389600006094"><ele>0.3333333333333333</ele><time>2026-04-19T12:00:50Z</time></trkpt><trkpt lat="42.96730685607806" lon="10.563133182859003"><ele>0.0</ele><time>2026-04-19T12:00:51Z</time></trkpt><trkpt lat="42.96731289129672" lon="10.562874360386743"><ele>-0.6666666666666666</ele><time>2026-04-19T12:00:52Z</time></trkpt><trkpt lat="42.96731896467326" lon="10.562613901474396"><ele>-1.3333333333333333</ele><time>2026-04-19T12:00:53Z</time></trkpt><trkpt lat="42.967324843125134" lon="10.562361802005778"><ele>-2.0</ele><time>2026-04-19T12:00:54Z</time></trkpt><trkpt lat="42.96733092191938" lon="10.56210111077478"><ele>-1.3333333333333333</ele><time>2026-04-19T12:00:55Z</time></trkpt><trkpt lat="42.96733717762935" lon="10.56185501026316"><ele>-0.6666666666666666</ele><time>2026-04-19T12:00:56Z</time></trkpt><trkpt lat="42.96734399958041" lon="10.561601905262142"><ele>0.0</ele><time>2026-04-19T12:00:57Z</time></trkpt><trkpt lat="42.96735173929013" lon="10.56135145676053"><ele>0.0</ele><time>2026-04-19T12:00:58Z</time></trkpt><trkpt lat="42.967359946752" lon="10.56110074474441"><ele>0.0</ele><time>2026-04-19T12:00:59Z</time></trkpt><trkpt lat="42.9673678429946" lon="10.560859539502427"><ele>0.0</ele><time>2026-04-19T12:01:00Z</time></trkpt><trkpt lat="42.96737617155459" lon="10.560605128285655"><ele>0.3333333333333333</ele><time>2026-04-19T12:01:01Z</time></trkpt><trkpt lat="42.96738436089956" lon="10.560354969716514"><ele>0.6666666666666666</ele><time>2026-04-19T12:01:02Z</time></trkpt><trkpt lat="42.967392543417674" lon="10.560105019648729"><ele>1.0</ele><time>2026-04-19T12:01:03Z</time></trkpt><trkpt lat="42.96740067254859" lon="10.559856700399868"><ele>1.0</ele><time>2026-04-19T12:01:04Z</time></trkpt><trkpt lat="42.96740858316664" lon="10.559615056078743"><ele>1.0</ele><time>2026-04-19T12:01:05Z</time></trkpt><trkpt lat="42.967416489977" lon="10.559373528000602"><ele>1.0</ele><time>2026-04-19T12:01:06Z</time></trkpt><trkpt lat="42.96742416306645" lon="10.559139139485778"><ele>0.6666666666666666</ele><time>2026-04-19T12:01:07Z</time></trkpt><trkpt lat="42.96743169991854" lon="10.5589086017964"><ele>0.3333333333333333</ele><time>2026-04-19T12:01:08Z</time></trkpt><trkpt lat="42.96743869812021" lon="10.558681462608936"><ele>0.0</ele><time>2026-04-19T12:01:09Z</time></trkpt><trkpt lat="42.96744558197494" lon="10.558458034771839"><ele>0.3333333333333333</ele><time>2026-04-19T12:01:10Z</time></trkpt><trkpt lat="42.96745284137399" lon="10.558222418060705"><ele>0.6666666666666666</ele><time>2026-04-19T12:01:11Z</time></trkpt><trkpt lat="42.96746001820789" lon="10.557989480975488"><ele>1.0</ele><time>2026-04-19T12:01:12Z</time></trkpt><trkpt lat="42.96746692699167" lon="10.5577625219734"><ele>1.0</ele><time>2026-04-19T12:01:13Z</time></trkpt><trkpt lat="42.967457915357244" lon="10.557527526787942"><ele>1.0</ele><time>2026-04-19T12:01:14Z</time></trkpt><trkpt lat="42.96748148861369" lon="10.557307377125596"><ele>1.0</ele><time>2026-04-19T12:01:15Z</time></trkpt><trkpt lat="42.9674885213943" lon="10.55708751317039"><ele>1.25</ele><time>2026-04-19T12:01:16Z</time></trkpt><trkpt lat="42.967495189243465" lon="10.556868816375154"><ele>1.5</ele><time>2026-04-19T12:01:17Z</time></trkpt><trkpt lat="42.967501751801855" lon="10.556665483410054"><ele>1.75</ele><time>2026-04-19T12:01:18Z</time></trkpt><trkpt lat="42.967507737137396" lon="10.556482649800024"><ele>2.0</ele><time>2026-04-19T12:01:19Z</time></trkpt><trkpt lat="42.96751373049279" lon="10.556299570810987"><ele>2.0</ele><time>2026-04-19T12:01:20Z</time></trkpt><trkpt lat="42.96751960604816" lon="10.556120090831385"><ele>2.0</ele><time>2026-04-19T12:01:21Z</time></trkpt><trkpt lat="42.96752677509953" lon="10.55591750108886"><ele>2.0</ele><time>2026-04-19T12:01:22Z</time></trkpt><trkpt lat="42.96753550156047" lon="10.555722779520016"><ele>2.0</ele><time>2026-04-19T12:01:23Z</time></trkpt><trkpt lat="42.96754929336975" lon="10.555543615666112"><ele>2.0</ele><time>2026-04-19T12:01:24Z</time></trkpt><trkpt lat="42.96756474841963" lon="10.555364164229482"><ele>2.0</ele><time>2026-04-19T12:01:25Z</time></trkpt><trkpt lat="42.96758434113954" lon="10.555246179033356"><ele>2.0</ele><time>2026-04-19T12:01:26Z</time></trkpt><trkpt lat="42.967602983086856" lon="10.555144980203494"><ele>2.0</ele><time>2026-04-19T12:01:27Z</time></trkpt><trkpt lat="42.967625037380905" lon="10.55504739852625"><ele>2.0</ele><time>2026-04-19T12:01:28Z</time></trkpt><trkpt lat="42.967664925288915" lon="10.554943134712936"><ele>2.0</ele><time>2026-04-19T12:01:29Z</time></trkpt><trkpt lat="42.96772644615913" lon="10.554836075733363"><ele>2.0</ele><time>2026-04-19T12:01:30Z</time></trkpt><trkpt lat="42.96778567893294" lon="10.554742976669992"><ele>2.0</ele><time>2026-04-19T12:01:31Z</time></trkpt><trkpt lat="42.96783724792487" lon="10.55465790487345"><ele>2.0</ele><time>2026-04-19T12:01:32Z</time></trkpt><trkpt lat="42.967942009048166" lon="10.554597037283534"><ele>2.0</ele><time>2026-04-19T12:01:34Z</time></trkpt><trkpt lat="42.968026958413745" lon="10.554575091207226"><ele>1.9999999999999998</ele><time>2026-04-19T12:01:36Z</time></trkpt><trkpt lat="42.96811378268226" lon="10.554560406733996"><ele>2.0</ele><time>2026-04-19T12:01:38Z</time></trkpt><trkpt lat="42.96823733657222" lon="10.554501309878487"><ele>2.0</ele><time>2026-04-19T12:01:40Z</time></trkpt><trkpt lat="42.96829839843438" lon="10.554462816083088"><ele>2.0</ele><time>2026-04-19T12:01:41Z</time></trkpt><trkpt lat="42.9683350197909" lon="10.554384870155431"><ele>1.9999999999999998</ele><time>2026-04-19T12:01:42Z</time></trkpt><trkpt lat="42.968355198759724" lon="10.554288247835462"><ele>2.0</ele><time>2026-04-19T12:01:43Z</time></trkpt><trkpt lat="42.96833382853788" lon="10.554163945682697"><ele>2.0</ele><time>2026-04-19T12:01:44Z</time></trkpt><trkpt lat="42.96828436296652" lon="10.554066153079026"><ele>2.0</ele><time>2026-04-19T12:01:45Z</time></trkpt><trkpt lat="42.96822613980729" lon="10.55399498798777"><ele>2.0</ele><time>2026-04-19T12:01:46Z</time></trkpt><trkpt lat="42.96813516428304" lon="10.553978359404493"><ele>2.0</ele><time>2026-04-19T12:01:47Z</time></trkpt><trkpt lat="42.96807541785758" lon="10.553938025607632"><ele>2.0</ele><time>2026-04-19T12:01:48Z</time></trkpt><trkpt lat="42.968043908618085" lon="10.553737085026432"><ele>2.0</ele><time>2026-04-19T12:01:50Z</time></trkpt><trkpt lat="42.968015865217815" lon="10.553618566077384"><ele>2.0</ele><time>2026-04-19T12:01:51Z</time></trkpt><trkpt lat="42.96798433442448" lon="10.553485376611148"><ele>2.0</ele><time>2026-04-19T12:01:52Z</time></trkpt><trkpt lat="42.96794868228449" lon="10.553334778078161"><ele>2.0</ele><time>2026-04-19T12:01:53Z</time></trkpt><trkpt lat="42.967911601924335" lon="10.553178145379288"><ele>2.0</ele><time>2026-04-19T12:01:54Z</time></trkpt><trkpt lat="42.96788768702051" lon="10.553019590598096"><ele>2.0</ele><time>2026-04-19T12:01:55Z</time></trkpt><trkpt lat="42.96786281681299" lon="10.55286650931102"><ele>2.0</ele><time>2026-04-19T12:01:56Z</time></trkpt><trkpt lat="42.96783772547978" lon="10.552707804388058"><ele>2.0</ele><time>2026-04-19T12:01:57Z</time></trkpt><trkpt lat="42.96781242322233" lon="10.552535894610456"><ele>2.0</ele><time>2026-04-19T12:01:58Z</time></trkpt><trkpt lat="42.96778750433251" lon="10.552358519895026"><ele>2.0</ele><time>2026-04-19T12:01:59Z</time></trkpt><trkpt lat="42.96776598836241" lon="10.552184722690734"><ele>2.0</ele><time>2026-04-19T12:02:00Z</time></trkpt><trkpt lat="42.96774569545737" lon="10.552003713115841"><ele>2.0</ele><time>2026-04-19T12:02:01Z</time></trkpt><trkpt lat="42.967725226007936" lon="10.551818065038416"><ele>2.0</ele><time>2026-04-19T12:02:02Z</time></trkpt><trkpt lat="42.967705012571926" lon="10.551631347734613"><ele>2.0</ele><time>2026-04-19T12:02:03Z</time></trkpt><trkpt lat="42.96764463701219" lon="10.55144994762729"><ele>2.0</ele><time>2026-04-19T12:02:04Z</time></trkpt><trkpt lat="42.96762492991219" lon="10.551270144251209"><ele>2.0</ele><time>2026-04-19T12:02:05Z</time></trkpt><trkpt lat="42.9676028753474" lon="10.551083891056976"><ele>2.0</ele><time>2026-04-19T12:02:06Z</time></trkpt><trkpt lat="42.9675793166785" lon="10.550900667062095"><ele>2.0</ele><time>2026-04-19T12:02:07Z</time></trkpt><trkpt lat="42.967579189796275" lon="10.55070126708365"><ele>2.0</ele><time>2026-04-19T12:02:08Z</time></trkpt><trkpt lat="42.96755111136183" lon="10.550490190901728"><ele>2.0</ele><time>2026-04-19T12:02:09Z</time></trkpt><trkpt lat="42.967523476095124" lon="10.550282162823885"><ele>2.0</ele><time>2026-04-19T12:02:10Z</time></trkpt><trkpt lat="42.96749459538402" lon="10.550064759552477"><ele>2.0</ele><time>2026-04-19T12:02:11Z</time></trkpt><trkpt lat="42.96746481447264" lon="10.549841440138506"><ele>2.0</ele><time>2026-04-19T12:02:12Z</time></trkpt><trkpt lat="42.96742069120591" lon="10.549620924524664"><ele>1.6666666666666665</ele><time>2026-04-19T12:02:13Z</time></trkpt><trkpt lat="42.96739021539433" lon="10.549390660785617"><ele>1.3333333333333333</ele><time>2026-04-19T12:02:14Z</time></trkpt><trkpt lat="42.967362635204665" lon="10.54916876938076"><ele>1.0</ele><time>2026-04-19T12:02:15Z</time></trkpt><trkpt lat="42.967335479983994" lon="10.548951872074634"><ele>1.0</ele><time>2026-04-19T12:02:16Z</time></trkpt><trkpt lat="42.96731231289432" lon="10.548749892909854"><ele>1.0</ele><time>2026-04-19T12:02:17Z</time></trkpt><trkpt lat="42.96729882525567" lon="10.548587402208387"><ele>1.0</ele><time>2026-04-19T12:02:18Z</time></trkpt><trkpt lat="42.96729134551121" lon="10.548457321501932"><ele>1.0</ele><time>2026-04-19T12:02:19Z</time></trkpt><trkpt lat="42.96729925800891" lon="10.548367372900882"><ele>1.0</ele><time>2026-04-19T12:02:20Z</time></trkpt><trkpt lat="42.96733722024514" lon="10.54829575144591"><ele>1.2000000000000002</ele><time>2026-04-19T12:02:21Z</time></trkpt><trkpt lat="42.967407092057016" lon="10.548230462864199"><ele>1.4000000000000001</ele><time>2026-04-19T12:02:22Z</time></trkpt><trkpt lat="42.96749495165821" lon="10.548173950381955"><ele>1.6</ele><time>2026-04-19T12:02:23Z</time></trkpt><trkpt lat="42.96762787561103" lon="10.548184784166732"><ele>1.8</ele><time>2026-04-19T12:02:24Z</time></trkpt><trkpt lat="42.96772849907946" lon="10.548159351087689"><ele>2.0</ele><time>2026-04-19T12:02:25Z</time></trkpt><trkpt lat="42.967787205140674" lon="10.548108259263365"><ele>2.25</ele><time>2026-04-19T12:02:26Z</time></trkpt><trkpt lat="42.96784201244267" lon="10.547910433368859"><ele>2.5</ele><time>2026-04-19T12:02:28Z</time></trkpt><trkpt lat="42.96782358505976" lon="10.547759889450925"><ele>2.75</ele><time>2026-04-19T12:02:29Z</time></trkpt><trkpt lat="42.96781245691141" lon="10.547589547869249"><ele>3.0</ele><time>2026-04-19T12:02:30Z</time></trkpt><trkpt lat="42.9677894324881" lon="10.547408191419084"><ele>3.0</ele><time>2026-04-19T12:02:31Z</time></trkpt><trkpt lat="42.967766637572694" lon="10.547228575055774"><ele>3.0</ele><time>2026-04-19T12:02:32Z</time></trkpt><trkpt lat="42.96774277724602" lon="10.547042911521945"><ele>3.0</ele><time>2026-04-19T12:02:33Z</time></trkpt><trkpt lat="42.967719559708584" lon="10.546861673886248"><ele>3.0</ele><time>2026-04-19T12:02:34Z</time></trkpt><trkpt lat="42.967699498555085" lon="10.54670981269949"><ele>2.75</ele><time>2026-04-19T12:02:35Z</time></trkpt><trkpt lat="42.9676859735812" lon="10.546603397464578"><ele>2.5</ele><time>2026-04-19T12:02:36Z</time></trkpt><trkpt lat="42.967685521177074" lon="10.546467700219022"><ele>2.25</ele><time>2026-04-19T12:02:38Z</time></trkpt><trkpt lat="42.96786169599266" lon="10.54645193302768"><ele>2.0</ele><time>2026-04-19T12:02:39Z</time></trkpt><trkpt lat="42.96798693094527" lon="10.546399100998432"><ele>2.0</ele><time>2026-04-19T12:02:40Z</time></trkpt><trkpt lat="42.96813081673726" lon="10.546371242788295"><ele>2.0</ele><time>2026-04-19T12:02:41Z</time></trkpt><trkpt lat="42.96828467312909" lon="10.54632880705564"><ele>2.0</ele><time>2026-04-19T12:02:42Z</time></trkpt><trkpt lat="42.96844331132989" lon="10.546279098482824"><ele>2.0</ele><time>2026-04-19T12:02:43Z</time></trkpt><trkpt lat="42.9686029301565" lon="10.546227135229486"><ele>2.0</ele><time>2026-04-19T12:02:44Z</time></trkpt><trkpt lat="42.968766345273295" lon="10.546176034953685"><ele>2.0</ele><time>2026-04-19T12:02:45Z</time></trkpt><trkpt lat="42.96891474338476" lon="10.54613189277052"><ele>2.0</ele><time>2026-04-19T12:02:46Z</time></trkpt><trkpt lat="42.96903872522624" lon="10.546097601540579"><ele>2.0</ele><time>2026-04-19T12:02:47Z</time></trkpt><trkpt lat="42.96913578215023" lon="10.546072436702563"><ele>2.0</ele><time>2026-04-19T12:02:48Z</time></trkpt><trkpt lat="42.96921851444672" lon="10.546051723992298"><ele>2.0</ele><time>2026-04-19T12:02:49Z</time></trkpt><trkpt lat="42.96929000052019" lon="10.546056221243413"><ele>2.0</ele><time>2026-04-19T12:02:50Z</time></trkpt><trkpt lat="42.96939065149063" lon="10.546194075185669"><ele>1.75</ele><time>2026-04-19T12:02:52Z</time></trkpt><trkpt lat="42.969401871482205" lon="10.546320508547481"><ele>1.5</ele><time>2026-04-19T12:02:53Z</time></trkpt><trkpt lat="42.96942861359705" lon="10.54647823417799"><ele>1.25</ele><time>2026-04-19T12:02:54Z</time></trkpt><trkpt lat="42.969454535283084" lon="10.54665698412149"><ele>1.0</ele><time>2026-04-19T12:02:55Z</time></trkpt><trkpt lat="42.969479140168104" lon="10.54682665367513"><ele>1.0</ele><time>2026-04-19T12:02:56Z</time></trkpt><trkpt lat="42.969497430692066" lon="10.547011866643738"><ele>1.0</ele><time>2026-04-19T12:02:57Z</time></trkpt><trkpt lat="42.969522641634626" lon="10.547198887777244"><ele>1.0</ele><time>2026-04-19T12:02:58Z</time></trkpt><trkpt lat="42.96955459454142" lon="10.547390191179675"><ele>1.0</ele><time>2026-04-19T12:02:59Z</time></trkpt><trkpt lat="42.969585228798714" lon="10.54756466229868"><ele>1.0</ele><time>2026-04-19T12:03:00Z</time></trkpt><trkpt lat="42.969612743167836" lon="10.547723485158885"><ele>1.0</ele><time>2026-04-19T12:03:01Z</time></trkpt><trkpt lat="42.96963731759688" lon="10.547891153785047"><ele>1.0</ele><time>2026-04-19T12:03:02Z</time></trkpt><trkpt lat="42.969659188217825" lon="10.548077639341862"><ele>1.0</ele><time>2026-04-19T12:03:03Z</time></trkpt><trkpt lat="42.96968226146141" lon="10.548274438127539"><ele>1.3333333333333333</ele><time>2026-04-19T12:03:04Z</time></trkpt><trkpt lat="42.96971281959331" lon="10.548477681411258"><ele>1.6666666666666665</ele><time>2026-04-19T12:03:05Z</time></trkpt><trkpt lat="42.96974814835768" lon="10.548689801087525"><ele>2.0</ele><time>2026-04-19T12:03:06Z</time></trkpt><trkpt lat="42.9697809214354" lon="10.548900064019431"><ele>2.0</ele><time>2026-04-19T12:03:07Z</time></trkpt><trkpt lat="42.96981628081918" lon="10.54911569854147"><ele>2.0</ele><time>2026-04-19T12:03:08Z</time></trkpt><trkpt lat="42.969850076739114" lon="10.549325809765609"><ele>2.0</ele><time>2026-04-19T12:03:09Z</time></trkpt><trkpt lat="42.96988620181132" lon="10.549540749113124"><ele>2.0</ele><time>2026-04-19T12:03:10Z</time></trkpt><trkpt lat="42.96992332998937" lon="10.54977102634157"><ele>2.0</ele><time>2026-04-19T12:03:11Z</time></trkpt><trkpt lat="42.9699586802951" lon="10.550005162407368"><ele>2.0</ele><time>2026-04-19T12:03:12Z</time></trkpt><trkpt lat="42.96999466565169" lon="10.550242182403647"><ele>2.333333333333333</ele><time>2026-04-19T12:03:13Z</time></trkpt><trkpt lat="42.97002506089049" lon="10.550477325864357"><ele>2.6666666666666665</ele><time>2026-04-19T12:03:14Z</time></trkpt><trkpt lat="42.970059114307844" lon="10.550710345286207"><ele>3.0</ele><time>2026-04-19T12:03:15Z</time></trkpt><trkpt lat="42.97009211479615" lon="10.550941394131494"><ele>3.0</ele><time>2026-04-19T12:03:16Z</time></trkpt><trkpt lat="42.970129220138254" lon="10.551165510977558"><ele>3.0</ele><time>2026-04-19T12:03:17Z</time></trkpt><trkpt lat="42.97016179048865" lon="10.551378371323901"><ele>3.0</ele><time>2026-04-19T12:03:18Z</time></trkpt><trkpt lat="42.97018768686464" lon="10.551551770177541"><ele>3.0</ele><time>2026-04-19T12:03:19Z</time></trkpt><trkpt lat="42.97021035559883" lon="10.551704599183934"><ele>3.0</ele><time>2026-04-19T12:03:20Z</time></trkpt><trkpt lat="42.970229896756464" lon="10.551818340864445"><ele>3.0</ele><time>2026-04-19T12:03:21Z</time></trkpt><trkpt lat="42.970252220073" lon="10.551918603288106"><ele>3.0</ele><time>2026-04-19T12:03:22Z</time></trkpt><trkpt lat="42.97028881921961" lon="10.552032183389946"><ele>3.0</ele><time>2026-04-19T12:03:24Z</time></trkpt><trkpt lat="42.97046919273219" lon="10.551893550504895"><ele>3.0</ele><time>2026-04-19T12:03:27Z</time></trkpt><trkpt lat="42.970547132518575" lon="10.551803297795423"><ele>3.0</ele><time>2026-04-19T12:03:28Z</time></trkpt><trkpt lat="42.97065127788857" lon="10.551730462007137"><ele>3.0</ele><time>2026-04-19T12:03:29Z</time></trkpt><trkpt lat="42.970748689500674" lon="10.551643877081375"><ele>3.0</ele><time>2026-04-19T12:03:30Z</time></trkpt><trkpt lat="42.97086146556656" lon="10.551544062020712"><ele>3.0</ele><time>2026-04-19T12:03:31Z</time></trkpt><trkpt lat="42.970971810381165" lon="10.551440193074203"><ele>3.0</ele><time>2026-04-19T12:03:32Z</time></trkpt><trkpt lat="42.97105411584406" lon="10.551358190655678"><ele>3.0</ele><time>2026-04-19T12:03:33Z</time></trkpt><trkpt lat="42.97111500095939" lon="10.551297529829656"><ele>3.0</ele><time>2026-04-19T12:03:34Z</time></trkpt><trkpt lat="42.971209213943766" lon="10.551243772957667"><ele>3.0</ele><time>2026-04-19T12:03:36Z</time></trkpt><trkpt lat="42.97127315640946" lon="10.55130049615216"><ele>3.0</ele><time>2026-04-19T12:03:37Z</time></trkpt><trkpt lat="42.97135617255626" lon="10.551396907255153"><ele>3.0</ele><time>2026-04-19T12:03:38Z</time></trkpt><trkpt lat="42.97145504875758" lon="10.55147599580687"><ele>3.0</ele><time>2026-04-19T12:03:39Z</time></trkpt><trkpt lat="42.97157013572173" lon="10.551561090414296"><ele>3.0</ele><time>2026-04-19T12:03:40Z</time></trkpt><trkpt lat="42.97168555306765" lon="10.551647924201362"><ele>2.75</ele><time>2026-04-19T12:03:41Z</time></trkpt><trkpt lat="42.97181495718713" lon="10.551740311079273"><ele>2.5</ele><time>2026-04-19T12:03:42Z</time></trkpt><trkpt lat="42.97194818103461" lon="10.551836796959252"><ele>2.25</ele><time>2026-04-19T12:03:43Z</time></trkpt><trkpt lat="42.97207269888218" lon="10.551931244199649"><ele>2.0</ele><time>2026-04-19T12:03:44Z</time></trkpt><trkpt lat="42.97214519816131" lon="10.551992976093764"><ele>2.0</ele><time>2026-04-19T12:03:45Z</time></trkpt><trkpt lat="42.97221770963621" lon="10.55204930012537"><ele>2.0</ele><time>2026-04-19T12:03:47Z</time></trkpt><trkpt lat="42.97220261820903" lon="10.552222702659092"><ele>2.0</ele><time>2026-04-19T12:03:49Z</time></trkpt><trkpt lat="42.9723944643029" lon="10.552167731448321"><ele>2.0</ele><time>2026-04-19T12:03:52Z</time></trkpt><trkpt lat="42.97246306889394" lon="10.552212833070474"><ele>1.8</ele><time>2026-04-19T12:03:53Z</time></trkpt><trkpt lat="42.972533590639024" lon="10.552259503142363"><ele>1.6</ele><time>2026-04-19T12:03:54Z</time></trkpt><trkpt lat="42.97261851028077" lon="10.55231549162686"><ele>1.4000000000000001</ele><time>2026-04-19T12:03:55Z</time></trkpt><trkpt lat="42.972706919388486" lon="10.552379046189243"><ele>1.2000000000000002</ele><time>2026-04-19T12:03:56Z</time></trkpt><trkpt lat="42.97279740661379" lon="10.552444094573492"><ele>1.0</ele><time>2026-04-19T12:03:57Z</time></trkpt><trkpt lat="42.97289590205617" lon="10.552514899830813"><ele>1.0</ele><time>2026-04-19T12:03:58Z</time></trkpt><trkpt lat="42.97300205047291" lon="10.55259045846661"><ele>1.0</ele><time>2026-04-19T12:03:59Z</time></trkpt><trkpt lat="42.97309804787917" lon="10.552659708175199"><ele>1.0</ele><time>2026-04-19T12:04:00Z</time></trkpt><trkpt lat="42.973186395503106" lon="10.552724329047907"><ele>1.0</ele><time>2026-04-19T12:04:01Z</time></trkpt><trkpt lat="42.97327910473561" lon="10.552794761429611"><ele>1.0</ele><time>2026-04-19T12:04:02Z</time></trkpt><trkpt lat="42.97336892516347" lon="10.552862798274768"><ele>0.6666666666666666</ele><time>2026-04-19T12:04:03Z</time></trkpt><trkpt lat="42.97345945654265" lon="10.552930644895175"><ele>0.3333333333333333</ele><time>2026-04-19T12:04:04Z</time></trkpt><trkpt lat="42.97353334323266" lon="10.552986077003125"><ele>0.0</ele><time>2026-04-19T12:04:05Z</time></trkpt><trkpt lat="42.97360449311878" lon="10.55303945598377"><ele>-0.3333333333333333</ele><time>2026-04-19T12:04:06Z</time></trkpt><trkpt lat="42.97368223388797" lon="10.553097779580897"><ele>-0.6666666666666666</ele><time>2026-04-19T12:04:07Z</time></trkpt><trkpt lat="42.97376212448034" lon="10.553157716076115"><ele>-1.0</ele><time>2026-04-19T12:04:08Z</time></trkpt><trkpt lat="42.973840748924665" lon="10.553215875706417"><ele>-0.9999999999999999</ele><time>2026-04-19T12:04:09Z</time></trkpt><trkpt lat="42.97392038846563" lon="10.553274329690522"><ele>-1.0</ele><time>2026-04-19T12:04:10Z</time></trkpt><trkpt lat="42.97399372703879" lon="10.553328158810762"><ele>-1.0</ele><time>2026-04-19T12:04:11Z</time></trkpt><trkpt lat="42.97405710812344" lon="10.553374679270954"><ele>-1.0</ele><time>2026-04-19T12:04:12Z</time></trkpt><trkpt lat="42.974117123423824" lon="10.553419843203972"><ele>-0.9999999999999999</ele><time>2026-04-19T12:04:13Z</time></trkpt><trkpt lat="42.97418314288554" lon="10.55346978541285"><ele>-1.0</ele><time>2026-04-19T12:04:14Z</time></trkpt><trkpt lat="42.974242518726136" lon="10.553514715913854"><ele>-0.8</ele><time>2026-04-19T12:04:15Z</time></trkpt><trkpt lat="42.974340339850585" lon="10.553589652318335"><ele>-0.6000000000000001</ele><time>2026-04-19T12:04:17Z</time></trkpt><trkpt lat="42.97440429676496" lon="10.55363864683449"><ele>-0.4</ele><time>2026-04-19T12:04:19Z</time></trkpt><trkpt lat="42.974471178495975" lon="10.553688565421302"><ele>-0.2</ele><time>2026-04-19T12:04:22Z</time></trkpt><trkpt lat="42.974411669363754" lon="10.553846628823312"><ele>0.0</ele><time>2026-04-19T12:04:32Z</time></trkpt><trkpt lat="42.974439822418645" lon="10.553928307630683"><ele>0.0</ele><time>2026-04-19T12:06:23Z</time></trkpt><trkpt lat="42.97435048537415" lon="10.553933303664074"><ele>0.0</ele><time>2026-04-19T12:07:16Z</time></trkpt><trkpt lat="42.97428560042446" lon="10.553879711378455"><ele>0.0</ele><time>2026-04-19T12:07:17Z</time></trkpt><trkpt lat="42.974186176278906" lon="10.553818484436592"><ele>0.0</ele><time>2026-04-19T12:07:18Z</time></trkpt><trkpt lat="42.97407612090575" lon="10.553772464813203"><ele>0.0</ele><time>2026-04-19T12:07:19Z</time></trkpt><trkpt lat="42.97398609378666" lon="10.553810748180437"><ele>0.0</ele><time>2026-04-19T12:07:21Z</time></trkpt><trkpt lat="42.9739606891519" lon="10.553901471802366"><ele>0.0</ele><time>2026-04-19T12:07:22Z</time></trkpt><trkpt lat="42.97396631072985" lon="10.554056356096014"><ele>0.0</ele><time>2026-04-19T12:07:23Z</time></trkpt><trkpt lat="42.97399528962091" lon="10.554241286038717"><ele>0.0</ele><time>2026-04-19T12:07:24Z</time></trkpt><trkpt lat="42.97401244363029" lon="10.554390162211421"><ele>0.0</ele><time>2026-04-19T12:07:25Z</time></trkpt><trkpt lat="42.97397050558296" lon="10.55450300105553"><ele>0.0</ele><time>2026-04-19T12:07:27Z</time></trkpt><trkpt lat="42.973898369323486" lon="10.554514218277308"><ele>0.0</ele><time>2026-04-19T12:07:28Z</time></trkpt><trkpt lat="42.973789986572044" lon="10.554486809742762"><ele>0.0</ele><time>2026-04-19T12:07:29Z</time></trkpt><trkpt lat="42.973669121530996" lon="10.554419141360063"><ele>0.0</ele><time>2026-04-19T12:07:30Z</time></trkpt><trkpt lat="42.973565483496664" lon="10.554349608861374"><ele>0.0</ele><time>2026-04-19T12:07:31Z</time></trkpt><trkpt lat="42.973508114913045" lon="10.554297325677238"><ele>0.0</ele><time>2026-04-19T12:07:32Z</time></trkpt><trkpt lat="42.973498611146596" lon="10.554191781453191"><ele>0.0</ele><time>2026-04-19T12:07:34Z</time></trkpt><trkpt lat="42.973539981133754" lon="10.554125722776662"><ele>0.0</ele><time>2026-04-19T12:07:35Z</time></trkpt><trkpt lat="42.97362376184788" lon="10.554065286743276"><ele>0.0</ele><time>2026-04-19T12:07:36Z</time></trkpt><trkpt lat="42.97372640361591" lon="10.554014097616983"><ele>0.0</ele><time>2026-04-19T12:07:37Z</time></trkpt><trkpt lat="42.97379668165069" lon="10.553946621573655"><ele>0.0</ele><time>2026-04-19T12:07:38Z</time></trkpt><trkpt lat="42.973822360098254" lon="10.553836401588581"><ele>0.0</ele><time>2026-04-19T12:07:39Z</time></trkpt><trkpt lat="42.97380721296891" lon="10.553717184321119"><ele>0.0</ele><time>2026-04-19T12:07:40Z</time></trkpt><trkpt lat="42.9737610166499" lon="10.553622633878955"><ele>0.0</ele><time>2026-04-19T12:07:41Z</time></trkpt><trkpt lat="42.97368491649888" lon="10.55356583847208"><ele>0.0</ele><time>2026-04-19T12:07:42Z</time></trkpt><trkpt lat="42.97360541903589" lon="10.553536251274823"><ele>0.0</ele><time>2026-04-19T12:07:43Z</time></trkpt><trkpt lat="42.973464004273765" lon="10.55347730381319"><ele>0.0</ele><time>2026-04-19T12:07:45Z</time></trkpt><trkpt lat="42.97335082039153" lon="10.55343280323963"><ele>0.0</ele><time>2026-04-19T12:07:46Z</time></trkpt><trkpt lat="42.973277775912365" lon="10.553411956783163"><ele>0.0</ele><time>2026-04-19T12:07:47Z</time></trkpt><trkpt lat="42.97322602705188" lon="10.55357171947427"><ele>0.0</ele><time>2026-04-19T12:07:49Z</time></trkpt><trkpt lat="42.97323828929558" lon="10.553738572457766"><ele>0.0</ele><time>2026-04-19T12:07:50Z</time></trkpt><trkpt lat="42.97324941599618" lon="10.553923376569402"><ele>0.25</ele><time>2026-04-19T12:07:51Z</time></trkpt><trkpt lat="42.97320750633527" lon="10.554053026501707"><ele>0.5</ele><time>2026-04-19T12:07:52Z</time></trkpt><trkpt lat="42.97310862432943" lon="10.554211809714344"><ele>0.75</ele><time>2026-04-19T12:07:53Z</time></trkpt><trkpt lat="42.972999839479186" lon="10.554389032202664"><ele>1.0</ele><time>2026-04-19T12:07:54Z</time></trkpt><trkpt lat="42.972927405759656" lon="10.554583300056976"><ele>1.6666666666666665</ele><time>2026-04-19T12:07:55Z</time></trkpt><trkpt lat="42.972882836707875" lon="10.554799866686587"><ele>2.3333333333333335</ele><time>2026-04-19T12:07:56Z</time></trkpt><trkpt lat="42.97285457931779" lon="10.555032938778961"><ele>3.0</ele><time>2026-04-19T12:07:57Z</time></trkpt><trkpt lat="42.97283782139204" lon="10.555258601234662"><ele>3.0</ele><time>2026-04-19T12:07:58Z</time></trkpt><trkpt lat="42.972798803687816" lon="10.555453503053212"><ele>3.0</ele><time>2026-04-19T12:07:59Z</time></trkpt><trkpt lat="42.97275251432656" lon="10.555622088125105"><ele>3.0</ele><time>2026-04-19T12:08:00Z</time></trkpt><trkpt lat="42.97271913812035" lon="10.555721541156757"><ele>3.0</ele><time>2026-04-19T12:08:01Z</time></trkpt><trkpt lat="42.972630138017124" lon="10.555647683266367"><ele>3.0</ele><time>2026-04-19T12:08:04Z</time></trkpt><trkpt lat="42.97261378107573" lon="10.555509928267648"><ele>3.0</ele><time>2026-04-19T12:08:05Z</time></trkpt><trkpt lat="42.97261062915551" lon="10.555331974222828"><ele>3.0</ele><time>2026-04-19T12:08:06Z</time></trkpt><trkpt lat="42.97260869587055" lon="10.555154681802389"><ele>3.0</ele><time>2026-04-19T12:08:07Z</time></trkpt><trkpt lat="42.97264180192465" lon="10.5549679902934"><ele>3.0</ele><time>2026-04-19T12:08:08Z</time></trkpt><trkpt lat="42.97269802203034" lon="10.554749444569595"><ele>3.0</ele><time>2026-04-19T12:08:09Z</time></trkpt><trkpt lat="42.9727410452394" lon="10.554542156771822"><ele>3.0</ele><time>2026-04-19T12:08:10Z</time></trkpt><trkpt lat="42.97279989236799" lon="10.554362746476619"><ele>2.5</ele><time>2026-04-19T12:08:11Z</time></trkpt><trkpt lat="42.97288659744958" lon="10.554167060555276"><ele>2.0</ele><time>2026-04-19T12:08:12Z</time></trkpt><trkpt lat="42.97296588990197" lon="10.554037167433568"><ele>1.5</ele><time>2026-04-19T12:08:13Z</time></trkpt><trkpt lat="42.973007958656645" lon="10.553948114130147"><ele>1.0</ele><time>2026-04-19T12:08:14Z</time></trkpt><trkpt lat="42.97300109137339" lon="10.553835290967632"><ele>1.0</ele><time>2026-04-19T12:08:16Z</time></trkpt><trkpt lat="42.972941882221804" lon="10.553771536050688"><ele>1.0</ele><time>2026-04-19T12:08:17Z</time></trkpt><trkpt lat="42.97286231928911" lon="10.553713716721786"><ele>1.0</ele><time>2026-04-19T12:08:18Z</time></trkpt><trkpt lat="42.97281777583379" lon="10.553588604017238"><ele>1.0</ele><time>2026-04-19T12:08:20Z</time></trkpt><trkpt lat="42.97284985115413" lon="10.553457809461433"><ele>1.0</ele><time>2026-04-19T12:08:21Z</time></trkpt><trkpt lat="42.97291543626216" lon="10.553314844742587"><ele>0.8</ele><time>2026-04-19T12:08:22Z</time></trkpt><trkpt lat="42.97297864024948" lon="10.553200475525525"><ele>0.6000000000000001</ele><time>2026-04-19T12:08:23Z</time></trkpt><trkpt lat="42.972960546278905" lon="10.553062037392985"><ele>0.4</ele><time>2026-04-19T12:08:25Z</time></trkpt><trkpt lat="42.97288970145317" lon="10.55300423243471"><ele>0.2</ele><time>2026-04-19T12:08:26Z</time></trkpt><trkpt lat="42.97277116521657" lon="10.552968606672524"><ele>0.0</ele><time>2026-04-19T12:08:27Z</time></trkpt><trkpt lat="42.97266538570008" lon="10.552967666360242"><ele>0.0</ele><time>2026-04-19T12:08:28Z</time></trkpt><trkpt lat="42.972588200473055" lon="10.553141682765041"><ele>0.0</ele><time>2026-04-19T12:08:30Z</time></trkpt><trkpt lat="42.97257572944391" lon="10.553291409605398"><ele>0.0</ele><time>2026-04-19T12:08:31Z</time></trkpt><trkpt lat="42.97259163718275" lon="10.553497531316381"><ele>0.0</ele><time>2026-04-19T12:08:32Z</time></trkpt><trkpt lat="42.9726249104069" lon="10.55371141504574"><ele>0.25</ele><time>2026-04-19T12:08:33Z</time></trkpt><trkpt lat="42.972633853713" lon="10.553855458029817"><ele>0.5</ele><time>2026-04-19T12:08:34Z</time></trkpt><trkpt lat="42.97255059759601" lon="10.553982250920752"><ele>0.75</ele><time>2026-04-19T12:08:36Z</time></trkpt><trkpt lat="42.97244289137375" lon="10.55405175007846"><ele>1.0</ele><time>2026-04-19T12:08:37Z</time></trkpt><trkpt lat="42.97234365377599" lon="10.554106404591614"><ele>1.0</ele><time>2026-04-19T12:08:38Z</time></trkpt><trkpt lat="42.97230617774819" lon="10.554313144087184"><ele>1.0</ele><time>2026-04-19T12:08:40Z</time></trkpt><trkpt lat="42.972301342992004" lon="10.554536101095865"><ele>1.0</ele><time>2026-04-19T12:08:41Z</time></trkpt><trkpt lat="42.97226098101634" lon="10.554724031967904"><ele>1.4</ele><time>2026-04-19T12:08:42Z</time></trkpt><trkpt lat="42.97220534463373" lon="10.554840576874518"><ele>1.8</ele><time>2026-04-19T12:08:43Z</time></trkpt><trkpt lat="42.97210958092099" lon="10.554896138326063"><ele>2.1999999999999997</ele><time>2026-04-19T12:08:45Z</time></trkpt><trkpt lat="42.97204859905951" lon="10.554873816855025"><ele>2.6</ele><time>2026-04-19T12:08:46Z</time></trkpt><trkpt lat="42.97196792668447" lon="10.554819186425886"><ele>3.0</ele><time>2026-04-19T12:08:47Z</time></trkpt><trkpt lat="42.97193773736074" lon="10.554634940507434"><ele>2.5</ele><time>2026-04-19T12:08:49Z</time></trkpt><trkpt lat="42.971975687127554" lon="10.55449075966341"><ele>2.0</ele><time>2026-04-19T12:08:50Z</time></trkpt><trkpt lat="42.972050612402114" lon="10.554341284005883"><ele>1.5</ele><time>2026-04-19T12:08:51Z</time></trkpt><trkpt lat="42.97215828317928" lon="10.554214605440807"><ele>1.0</ele><time>2026-04-19T12:08:52Z</time></trkpt><trkpt lat="42.97225557592945" lon="10.554079656530206"><ele>1.0</ele><time>2026-04-19T12:08:53Z</time></trkpt><trkpt lat="42.972298593279966" lon="10.553907444858273"><ele>1.0</ele><time>2026-04-19T12:08:54Z</time></trkpt><trkpt lat="42.972332460930176" lon="10.55370334859276"><ele>1.0</ele><time>2026-04-19T12:08:55Z</time></trkpt><trkpt lat="42.97235016449514" lon="10.553486968419165"><ele>1.0</ele><time>2026-04-19T12:08:56Z</time></trkpt><trkpt lat="42.97237246718072" lon="10.553280764481796"><ele>1.0</ele><time>2026-04-19T12:08:57Z</time></trkpt><trkpt lat="42.972409160739055" lon="10.553124427274895"><ele>1.0</ele><time>2026-04-19T12:08:58Z</time></trkpt><trkpt lat="42.97248884960525" lon="10.552991242907318"><ele>1.0</ele><time>2026-04-19T12:08:59Z</time></trkpt><trkpt lat="42.972565545359636" lon="10.552916824320636"><ele>1.0</ele><time>2026-04-19T12:09:00Z</time></trkpt><trkpt lat="42.97262099146589" lon="10.552831492190071"><ele>1.0</ele><time>2026-04-19T12:09:01Z</time></trkpt><trkpt lat="42.9726318286128" lon="10.552727210516917"><ele>1.0</ele><time>2026-04-19T12:09:02Z</time></trkpt><trkpt lat="42.972601339201056" lon="10.552630378817666"><ele>1.0</ele><time>2026-04-19T12:09:03Z</time></trkpt><trkpt lat="42.972523281799624" lon="10.552557399571274"><ele>1.0</ele><time>2026-04-19T12:09:04Z</time></trkpt><trkpt lat="42.97243280525735" lon="10.55251962895304"><ele>1.0</ele><time>2026-04-19T12:09:05Z</time></trkpt><trkpt lat="42.972347505522464" lon="10.552619995186173"><ele>1.0</ele><time>2026-04-19T12:09:07Z</time></trkpt><trkpt lat="42.972343442487585" lon="10.552752406412333"><ele>0.6666666666666666</ele><time>2026-04-19T12:09:08Z</time></trkpt><trkpt lat="42.97235122238725" lon="10.552936414322831"><ele>0.3333333333333333</ele><time>2026-04-19T12:09:09Z</time></trkpt><trkpt lat="42.972327835012834" lon="10.55314921167987"><ele>0.0</ele><time>2026-04-19T12:09:10Z</time></trkpt><trkpt lat="42.97225968907744" lon="10.553366180622076"><ele>0.0</ele><time>2026-04-19T12:09:11Z</time></trkpt><trkpt lat="42.97217799201976" lon="10.553620909915063"><ele>0.0</ele><time>2026-04-19T12:09:12Z</time></trkpt><trkpt lat="42.9720981550536" lon="10.55385071086214"><ele>0.0</ele><time>2026-04-19T12:09:13Z</time></trkpt><trkpt lat="42.97202536138181" lon="10.554017947504091"><ele>0.25</ele><time>2026-04-19T12:09:14Z</time></trkpt><trkpt lat="42.971943113312854" lon="10.554154558915476"><ele>0.5</ele><time>2026-04-19T12:09:15Z</time></trkpt><trkpt lat="42.97185545411828" lon="10.554308042112675"><ele>0.75</ele><time>2026-04-19T12:09:16Z</time></trkpt><trkpt lat="42.971787728645324" lon="10.554498354007444"><ele>1.0</ele><time>2026-04-19T12:09:17Z</time></trkpt><trkpt lat="42.971753424531244" lon="10.554659271188997"><ele>1.4</ele><time>2026-04-19T12:09:18Z</time></trkpt><trkpt lat="42.97174435507688" lon="10.554763473128437"><ele>1.8</ele><time>2026-04-19T12:09:19Z</time></trkpt><trkpt lat="42.97180099896992" lon="10.55489112044316"><ele>2.1999999999999997</ele><time>2026-04-19T12:09:21Z</time></trkpt><trkpt lat="42.97188870108032" lon="10.554956532143237"><ele>2.6</ele><time>2026-04-19T12:09:22Z</time></trkpt><trkpt lat="42.97195811266344" lon="10.555020769069118"><ele>3.0</ele><time>2026-04-19T12:09:23Z</time></trkpt><trkpt lat="42.97192676143816" lon="10.555217678694305"><ele>3.0</ele><time>2026-04-19T12:09:25Z</time></trkpt><trkpt lat="42.971874866173906" lon="10.555350036227205"><ele>3.0</ele><time>2026-04-19T12:09:26Z</time></trkpt><trkpt lat="42.971804726584246" lon="10.555470745145323"><ele>3.0</ele><time>2026-04-19T12:09:27Z</time></trkpt><trkpt lat="42.97173628781266" lon="10.555575107103323"><ele>3.0</ele><time>2026-04-19T12:09:28Z</time></trkpt><trkpt lat="42.9717018152127" lon="10.55570865771686"><ele>3.0</ele><time>2026-04-19T12:09:29Z</time></trkpt><trkpt lat="42.97171923104573" lon="10.555812275954631"><ele>2.8</ele><time>2026-04-19T12:09:30Z</time></trkpt><trkpt lat="42.97179219650153" lon="10.555900001112047"><ele>2.5999999999999996</ele><time>2026-04-19T12:09:31Z</time></trkpt><trkpt lat="42.97188653462297" lon="10.555968785752926"><ele>2.4000000000000004</ele><time>2026-04-19T12:09:32Z</time></trkpt><trkpt lat="42.97200952119573" lon="10.556021095441338"><ele>2.2</ele><time>2026-04-19T12:09:33Z</time></trkpt><trkpt lat="42.972113730765784" lon="10.5560227872473"><ele>2.0</ele><time>2026-04-19T12:09:34Z</time></trkpt><trkpt lat="42.97217673088525" lon="10.556001532983572"><ele>2.0</ele><time>2026-04-19T12:09:35Z</time></trkpt><trkpt lat="42.97222712088705" lon="10.555831154175378"><ele>2.0</ele><time>2026-04-19T12:09:37Z</time></trkpt><trkpt lat="42.97220158783461" lon="10.555744150748247"><ele>2.0</ele><time>2026-04-19T12:09:38Z</time></trkpt><trkpt lat="42.97214126337613" lon="10.555643769003229"><ele>2.0</ele><time>2026-04-19T12:09:39Z</time></trkpt><trkpt lat="42.97205833454297" lon="10.555544353933726"><ele>2.0</ele><time>2026-04-19T12:09:40Z</time></trkpt><trkpt lat="42.972065907051025" lon="10.555398942296167"><ele>2.333333333333333</ele><time>2026-04-19T12:09:42Z</time></trkpt><trkpt lat="42.97215580383981" lon="10.555246395251894"><ele>2.6666666666666665</ele><time>2026-04-19T12:09:43Z</time></trkpt><trkpt lat="42.97223829177195" lon="10.555032829212948"><ele>3.0</ele><time>2026-04-19T12:09:44Z</time></trkpt><trkpt lat="42.972300063442" lon="10.554833018155499"><ele>3.0</ele><time>2026-04-19T12:09:45Z</time></trkpt><trkpt lat="42.97237155927678" lon="10.554658677077509"><ele>3.0</ele><time>2026-04-19T12:09:46Z</time></trkpt><trkpt lat="42.97243431964556" lon="10.55447319260017"><ele>3.0</ele><time>2026-04-19T12:09:47Z</time></trkpt><trkpt lat="42.97247529897533" lon="10.554335683824407"><ele>3.0</ele><time>2026-04-19T12:09:48Z</time></trkpt><trkpt lat="42.97250759400539" lon="10.554242462817223"><ele>3.0</ele><time>2026-04-19T12:09:49Z</time></trkpt><trkpt lat="42.972595737407" lon="10.554219174515042"><ele>3.0</ele><time>2026-04-19T12:09:51Z</time></trkpt><trkpt lat="42.972646522231756" lon="10.554288216959138"><ele>3.0</ele><time>2026-04-19T12:09:52Z</time></trkpt><trkpt lat="42.972673418544666" lon="10.554385832272356"><ele>3.0</ele><time>2026-04-19T12:09:53Z</time></trkpt><trkpt lat="42.97266015859838" lon="10.55449988836669"><ele>3.0</ele><time>2026-04-19T12:09:54Z</time></trkpt><trkpt lat="42.97260206053163" lon="10.554646518962224"><ele>3.0</ele><time>2026-04-19T12:09:55Z</time></trkpt><trkpt lat="42.972521684241094" lon="10.554824669355773"><ele>3.0</ele><time>2026-04-19T12:09:56Z</time></trkpt><trkpt lat="42.97245110861052" lon="10.55497294333412"><ele>3.0</ele><time>2026-04-19T12:09:57Z</time></trkpt><trkpt lat="42.9724313807598" lon="10.55506132579576"><ele>3.0</ele><time>2026-04-19T12:09:58Z</time></trkpt><trkpt lat="42.972498647242865" lon="10.555240508574347"><ele>3.0</ele><time>2026-04-19T12:10:00Z</time></trkpt><trkpt lat="42.97252279514593" lon="10.555356851127272"><ele>3.0</ele><time>2026-04-19T12:10:01Z</time></trkpt><trkpt lat="42.97251802478558" lon="10.555466932721718"><ele>2.75</ele><time>2026-04-19T12:10:02Z</time></trkpt><trkpt lat="42.97247862306046" lon="10.555607791501139"><ele>2.5</ele><time>2026-04-19T12:10:03Z</time></trkpt><trkpt lat="42.97240520852102" lon="10.555794542250098"><ele>2.25</ele><time>2026-04-19T12:10:04Z</time></trkpt><trkpt lat="42.9723633678604" lon="10.555924253852378"><ele>2.0</ele><time>2026-04-19T12:10:05Z</time></trkpt><trkpt lat="42.972415064166675" lon="10.556117691360111"><ele>2.0</ele><time>2026-04-19T12:10:07Z</time></trkpt><trkpt lat="42.97249145234125" lon="10.55625273936498"><ele>2.0</ele><time>2026-04-19T12:10:08Z</time></trkpt><trkpt lat="42.97257234855496" lon="10.556386849464348"><ele>2.0</ele><time>2026-04-19T12:10:09Z</time></trkpt><trkpt lat="42.97263510408715" lon="10.556478282813035"><ele>2.0</ele><time>2026-04-19T12:10:10Z</time></trkpt><trkpt lat="42.97271384305197" lon="10.556548510139779"><ele>2.0</ele><time>2026-04-19T12:10:11Z</time></trkpt><trkpt lat="42.97278550399754" lon="10.556610013198005"><ele>2.0</ele><time>2026-04-19T12:10:12Z</time></trkpt><trkpt lat="42.97287548280833" lon="10.556558861329897"><ele>2.0</ele><time>2026-04-19T12:10:14Z</time></trkpt><trkpt lat="42.972929201636646" lon="10.556412998137835"><ele>2.0</ele><time>2026-04-19T12:10:15Z</time></trkpt><trkpt lat="42.97297604264352" lon="10.55621465420902"><ele>2.0</ele><time>2026-04-19T12:10:16Z</time></trkpt><trkpt lat="42.97301583351209" lon="10.555979040270413"><ele>2.25</ele><time>2026-04-19T12:10:17Z</time></trkpt><trkpt lat="42.97305982066879" lon="10.555752363326098"><ele>2.5</ele><time>2026-04-19T12:10:18Z</time></trkpt><trkpt lat="42.97310903723747" lon="10.555579085647922"><ele>2.75</ele><time>2026-04-19T12:10:19Z</time></trkpt><trkpt lat="42.97316063304467" lon="10.555431559384237"><ele>3.0</ele><time>2026-04-19T12:10:20Z</time></trkpt><trkpt lat="42.97324078750633" lon="10.555273349722501"><ele>3.0</ele><time>2026-04-19T12:10:21Z</time></trkpt><trkpt lat="42.97330240436584" lon="10.55513788426051"><ele>3.0</ele><time>2026-04-19T12:10:22Z</time></trkpt><trkpt lat="42.97332106193485" lon="10.555043456213355"><ele>3.0</ele><time>2026-04-19T12:10:23Z</time></trkpt><trkpt lat="42.97329536110848" lon="10.554948723642442"><ele>3.0</ele><time>2026-04-19T12:10:24Z</time></trkpt><trkpt lat="42.97324191765057" lon="10.554853757256842"><ele>3.0</ele><time>2026-04-19T12:10:25Z</time></trkpt><trkpt lat="42.973175267281704" lon="10.554760018750343"><ele>3.0</ele><time>2026-04-19T12:10:26Z</time></trkpt><trkpt lat="42.973107877072415" lon="10.554659786535701"><ele>3.0</ele><time>2026-04-19T12:10:27Z</time></trkpt><trkpt lat="42.97306207989153" lon="10.554546678137513"><ele>3.0</ele><time>2026-04-19T12:10:28Z</time></trkpt><trkpt lat="42.973105412554816" lon="10.554419588095964"><ele>3.0</ele><time>2026-04-19T12:10:30Z</time></trkpt><trkpt lat="42.97320866094292" lon="10.554412614025694"><ele>3.0</ele><time>2026-04-19T12:10:32Z</time></trkpt><trkpt lat="42.97330861595851" lon="10.554455008715404"><ele>3.0</ele><time>2026-04-19T12:10:33Z</time></trkpt><trkpt lat="42.973412407587524" lon="10.554515093322994"><ele>2.5</ele><time>2026-04-19T12:10:34Z</time></trkpt><trkpt lat="42.97350599298094" lon="10.554579536650678"><ele>2.0</ele><time>2026-04-19T12:10:35Z</time></trkpt><trkpt lat="42.97355528900187" lon="10.554639133540588"><ele>1.5</ele><time>2026-04-19T12:10:36Z</time></trkpt><trkpt lat="42.973532834184944" lon="10.554846587199773"><ele>1.0</ele><time>2026-04-19T12:10:38Z</time></trkpt><trkpt lat="42.97348731169923" lon="10.555018982431852"><ele>1.0</ele><time>2026-04-19T12:10:39Z</time></trkpt><trkpt lat="42.973410670922135" lon="10.55524027734427"><ele>1.0</ele><time>2026-04-19T12:10:40Z</time></trkpt><trkpt lat="42.97331684062319" lon="10.555476352328936"><ele>1.0</ele><time>2026-04-19T12:10:41Z</time></trkpt><trkpt lat="42.97321941862616" lon="10.555746392724808"><ele>1.3333333333333333</ele><time>2026-04-19T12:10:42Z</time></trkpt><trkpt lat="42.973138151430064" lon="10.556008023473145"><ele>1.6666666666666665</ele><time>2026-04-19T12:10:43Z</time></trkpt><trkpt lat="42.973070322027304" lon="10.556210056189926"><ele>2.0</ele><time>2026-04-19T12:10:44Z</time></trkpt><trkpt lat="42.973016791977436" lon="10.556364895281348"><ele>2.0</ele><time>2026-04-19T12:10:45Z</time></trkpt><trkpt lat="42.972984005560164" lon="10.556478816298611"><ele>2.0</ele><time>2026-04-19T12:10:46Z</time></trkpt><trkpt lat="42.97295032786069" lon="10.55658297477854"><ele>2.0</ele><time>2026-04-19T12:10:47Z</time></trkpt><trkpt lat="42.97297144526677" lon="10.556707320152467"><ele>2.0</ele><time>2026-04-19T12:10:49Z</time></trkpt><trkpt lat="42.97305123064241" lon="10.55675300812955"><ele>2.0</ele><time>2026-04-19T12:10:50Z</time></trkpt><trkpt lat="42.973161812019555" lon="10.556757710492196"><ele>2.0</ele><time>2026-04-19T12:10:51Z</time></trkpt><trkpt lat="42.973267492729754" lon="10.556716452472942"><ele>2.0</ele><time>2026-04-19T12:10:52Z</time></trkpt><trkpt lat="42.97333293512187" lon="10.556625359901162"><ele>2.0</ele><time>2026-04-19T12:10:53Z</time></trkpt><trkpt lat="42.973383964914404" lon="10.5565001272693"><ele>2.0</ele><time>2026-04-19T12:10:54Z</time></trkpt><trkpt lat="42.973436482412296" lon="10.556318095904114"><ele>1.75</ele><time>2026-04-19T12:10:55Z</time></trkpt><trkpt lat="42.97348312863377" lon="10.556135646598527"><ele>1.5</ele><time>2026-04-19T12:10:56Z</time></trkpt><trkpt lat="42.97348582178355" lon="10.55599115977693"><ele>1.25</ele><time>2026-04-19T12:10:57Z</time></trkpt><trkpt lat="42.973426761206944" lon="10.555952144378338"><ele>1.0</ele><time>2026-04-19T12:10:59Z</time></trkpt><trkpt lat="42.9733158819567" lon="10.556111114610095"><ele>1.2000000000000002</ele><time>2026-04-19T12:11:01Z</time></trkpt><trkpt lat="42.973284934066164" lon="10.556283016177389"><ele>1.4000000000000001</ele><time>2026-04-19T12:11:02Z</time></trkpt><trkpt lat="42.973267269442694" lon="10.55645245574118"><ele>1.6</ele><time>2026-04-19T12:11:03Z</time></trkpt><trkpt lat="42.97319411838016" lon="10.556403735886107"><ele>1.8</ele><time>2026-04-19T12:11:05Z</time></trkpt><trkpt lat="42.973163319342504" lon="10.556325299369524"><ele>2.0</ele><time>2026-04-19T12:11:06Z</time></trkpt><trkpt lat="42.97317499221079" lon="10.556157244023304"><ele>2.25</ele><time>2026-04-19T12:11:08Z</time></trkpt><trkpt lat="42.9732279878187" lon="10.556021679841491"><ele>2.5</ele><time>2026-04-19T12:11:09Z</time></trkpt><trkpt lat="42.973303397181326" lon="10.555816982721039"><ele>2.75</ele><time>2026-04-19T12:11:10Z</time></trkpt><trkpt lat="42.97337851264052" lon="10.555617413281693"><ele>3.0</ele><time>2026-04-19T12:11:11Z</time></trkpt><trkpt lat="42.97344541008082" lon="10.55547338100282"><ele>2.6</ele><time>2026-04-19T12:11:12Z</time></trkpt><trkpt lat="42.973505635665745" lon="10.555378073007937"><ele>2.1999999999999997</ele><time>2026-04-19T12:11:13Z</time></trkpt><trkpt lat="42.97358477166776" lon="10.555269799058449"><ele>1.8</ele><time>2026-04-19T12:11:14Z</time></trkpt><trkpt lat="42.9736489535585" lon="10.555164544349392"><ele>1.4</ele><time>2026-04-19T12:11:15Z</time></trkpt><trkpt lat="42.97366732577431" lon="10.555058218780964"><ele>1.0</ele><time>2026-04-19T12:11:16Z</time></trkpt><trkpt lat="42.973665823613146" lon="10.554868038232948"><ele>1.0</ele><time>2026-04-19T12:11:17Z</time></trkpt><trkpt lat="42.97367179727216" lon="10.554696267299228"><ele>1.0</ele><time>2026-04-19T12:11:18Z</time></trkpt><trkpt lat="42.97374618135102" lon="10.554589074785296"><ele>1.0</ele><time>2026-04-19T12:11:20Z</time></trkpt><trkpt lat="42.97385260610138" lon="10.554635627260293"><ele>1.0</ele><time>2026-04-19T12:11:22Z</time></trkpt><trkpt lat="42.973905503460635" lon="10.5547290641263"><ele>1.0</ele><time>2026-04-19T12:11:23Z</time></trkpt><trkpt lat="42.97391330011446" lon="10.554832883566249"><ele>1.0</ele><time>2026-04-19T12:11:24Z</time></trkpt><trkpt lat="42.97388152591212" lon="10.554955908335373"><ele>1.0</ele><time>2026-04-19T12:11:25Z</time></trkpt><trkpt lat="42.97381628074042" lon="10.555142585985475"><ele>1.0</ele><time>2026-04-19T12:11:26Z</time></trkpt><trkpt lat="42.973746601250525" lon="10.555364194983538"><ele>1.0</ele><time>2026-04-19T12:11:27Z</time></trkpt><trkpt lat="42.97366467991973" lon="10.555543659832505"><ele>1.0</ele><time>2026-04-19T12:11:28Z</time></trkpt><trkpt lat="42.97359821615261" lon="10.55563792999376"><ele>1.0</ele><time>2026-04-19T12:11:29Z</time></trkpt><trkpt lat="42.97353259899101" lon="10.555695234567962"><ele>1.0</ele><time>2026-04-19T12:11:30Z</time></trkpt><trkpt lat="42.97350734282241" lon="10.55579638301235"><ele>1.0</ele><time>2026-04-19T12:11:32Z</time></trkpt><trkpt lat="42.973580150458936" lon="10.555843209941688"><ele>1.0</ele><time>2026-04-19T12:11:33Z</time></trkpt><trkpt lat="42.97369271368969" lon="10.555894691597324"><ele>1.0</ele><time>2026-04-19T12:11:34Z</time></trkpt><trkpt lat="42.97378540631248" lon="10.555901088772055"><ele>1.0</ele><time>2026-04-19T12:11:35Z</time></trkpt><trkpt lat="42.973858234215236" lon="10.555765151303769"><ele>1.0</ele><time>2026-04-19T12:11:37Z</time></trkpt><trkpt lat="42.97385618604381" lon="10.555622782673252"><ele>1.0</ele><time>2026-04-19T12:11:38Z</time></trkpt><trkpt lat="42.97384724715467" lon="10.555454175605737"><ele>1.0</ele><time>2026-04-19T12:11:39Z</time></trkpt><trkpt lat="42.97385905316853" lon="10.555331483733124"><ele>1.0</ele><time>2026-04-19T12:11:40Z</time></trkpt><trkpt lat="42.97394329454712" lon="10.55529415703194"><ele>1.0</ele><time>2026-04-19T12:11:42Z</time></trkpt><trkpt lat="42.97398536581858" lon="10.555367212563338"><ele>1.0</ele><time>2026-04-19T12:11:43Z</time></trkpt><trkpt lat="42.97398611645595" lon="10.555474951768328"><ele>1.0</ele><time>2026-04-19T12:11:44Z</time></trkpt><trkpt lat="42.973932386196616" lon="10.555636142661424"><ele>1.0</ele><time>2026-04-19T12:11:45Z</time></trkpt><trkpt lat="42.973890009356566" lon="10.55581111834744"><ele>1.0</ele><time>2026-04-19T12:11:46Z</time></trkpt><trkpt lat="42.97391607545991" lon="10.555902027792069"><ele>1.0</ele><time>2026-04-19T12:11:48Z</time></trkpt><trkpt lat="42.974021503795996" lon="10.555846934917275"><ele>1.0</ele><time>2026-04-19T12:11:50Z</time></trkpt><trkpt lat="42.97405862087646" lon="10.555585471018308"><ele>1.0</ele><time>2026-04-19T12:11:52Z</time></trkpt><trkpt lat="42.97407523220634" lon="10.555341792376973"><ele>1.0</ele><time>2026-04-19T12:11:53Z</time></trkpt><trkpt lat="42.974066875907525" lon="10.555158021884441"><ele>1.0</ele><time>2026-04-19T12:11:54Z</time></trkpt><trkpt lat="42.97402262832135" lon="10.554989356413348"><ele>1.0</ele><time>2026-04-19T12:11:55Z</time></trkpt><trkpt lat="42.973992373043735" lon="10.554843575830112"><ele>1.0</ele><time>2026-04-19T12:11:56Z</time></trkpt><trkpt lat="42.97402720826615" lon="10.554727603462638"><ele>1.0</ele><time>2026-04-19T12:11:57Z</time></trkpt><trkpt lat="42.974182744048356" lon="10.554625465908437"><ele>1.0</ele><time>2026-04-19T12:11:59Z</time></trkpt><trkpt lat="42.9742867012063" lon="10.554564212898837"><ele>1.0</ele><time>2026-04-19T12:12:00Z</time></trkpt><trkpt lat="42.97432679337813" lon="10.55449469758572"><ele>1.0</ele><time>2026-04-19T12:12:01Z</time></trkpt><trkpt lat="42.974270249814715" lon="10.554433438310308"><ele>1.0</ele><time>2026-04-19T12:12:02Z</time></trkpt><trkpt lat="42.97418718613177" lon="10.55433755664518"><ele>0.8</ele><time>2026-04-19T12:12:03Z</time></trkpt><trkpt lat="42.97415293139351" lon="10.554257449323972"><ele>0.6000000000000001</ele><time>2026-04-19T12:12:04Z</time></trkpt><trkpt lat="42.97424777774874" lon="10.554172912127239"><ele>0.4</ele><time>2026-04-19T12:12:06Z</time></trkpt><trkpt lat="42.97434273288004" lon="10.554168519067293"><ele>0.2</ele><time>2026-04-19T12:12:07Z</time></trkpt><trkpt lat="42.974465707661196" lon="10.554174707642007"><ele>0.0</ele><time>2026-04-19T12:12:08Z</time></trkpt><trkpt lat="42.97450905212055" lon="10.554102445684055"><ele>0.0</ele><time>2026-04-19T12:12:10Z</time></trkpt><trkpt lat="42.97451731055366" lon="10.554016294297533"><ele>0.0</ele><time>2026-04-19T12:12:43Z</time></trkpt><trkpt lat="42.97460354577102" lon="10.553978805668692"><ele>0.0</ele><time>2026-04-19T12:12:45Z</time></trkpt><trkpt lat="42.974695803854075" lon="10.554086422570837"><ele>0.0</ele><time>2026-04-19T12:12:47Z</time></trkpt><trkpt lat="42.974778005611164" lon="10.554149605758504"><ele>0.0</ele><time>2026-04-19T12:12:48Z</time></trkpt><trkpt lat="42.974880920695774" lon="10.554211313832164"><ele>0.0</ele><time>2026-04-19T12:12:49Z</time></trkpt><trkpt lat="42.97506837919128" lon="10.554124277158941"><ele>0.0</ele><time>2026-04-19T12:12:50Z</time></trkpt><trkpt lat="42.9751548095466" lon="10.55418831731419"><ele>0.0</ele><time>2026-04-19T12:12:51Z</time></trkpt><trkpt lat="42.975246114375246" lon="10.554255969292354"><ele>0.0</ele><time>2026-04-19T12:12:53Z</time></trkpt><trkpt lat="42.97540623107376" lon="10.554324330259195"><ele>0.0</ele><time>2026-04-19T12:12:59Z</time></trkpt><trkpt lat="42.975498249159756" lon="10.554392636717578"><ele>0.0</ele><time>2026-04-19T12:13:00Z</time></trkpt><trkpt lat="42.97560311914859" lon="10.554483929830342"><ele>0.0</ele><time>2026-04-19T12:13:01Z</time></trkpt><trkpt lat="42.97572328440434" lon="10.554580400162063"><ele>0.0</ele><time>2026-04-19T12:13:02Z</time></trkpt><trkpt lat="42.97586144848531" lon="10.554680723387449"><ele>0.0</ele><time>2026-04-19T12:13:03Z</time></trkpt><trkpt lat="42.97600588907536" lon="10.554777988729999"><ele>0.0</ele><time>2026-04-19T12:13:04Z</time></trkpt><trkpt lat="42.976169646294814" lon="10.554889378582864"><ele>0.0</ele><time>2026-04-19T12:13:05Z</time></trkpt><trkpt lat="42.976339183211124" lon="10.555004729025567"><ele>0.0</ele><time>2026-04-19T12:13:06Z</time></trkpt><trkpt lat="42.976516988250935" lon="10.555139518602639"><ele>0.0</ele><time>2026-04-19T12:13:07Z</time></trkpt><trkpt lat="42.97668848174921" lon="10.555268264673831"><ele>0.0</ele><time>2026-04-19T12:13:08Z</time></trkpt><trkpt lat="42.9768645163829" lon="10.555396664338321"><ele>1.3333333333333333</ele><time>2026-04-19T12:13:09Z</time></trkpt><trkpt lat="42.97703645541828" lon="10.555528734188723"><ele>2.6666666666666665</ele><time>2026-04-19T12:13:10Z</time></trkpt><trkpt lat="42.9772044656042" lon="10.555654195141354"><ele>4.0</ele><time>2026-04-19T12:13:11Z</time></trkpt><trkpt lat="42.97736583973359" lon="10.555769545431387"><ele>4.0</ele><time>2026-04-19T12:13:12Z</time></trkpt><trkpt lat="42.97750319259966" lon="10.555862057742509"><ele>4.0</ele><time>2026-04-19T12:13:13Z</time></trkpt><trkpt lat="42.97762763060846" lon="10.555950240101213"><ele>4.0</ele><time>2026-04-19T12:13:14Z</time></trkpt><trkpt lat="42.97775043548397" lon="10.556040435354404"><ele>4.0</ele><time>2026-04-19T12:13:15Z</time></trkpt><trkpt lat="42.97788694697452" lon="10.55614700245847"><ele>3.0</ele><time>2026-04-19T12:13:16Z</time></trkpt><trkpt lat="42.97803530985868" lon="10.556261802657177"><ele>2.0</ele><time>2026-04-19T12:13:17Z</time></trkpt><trkpt lat="42.97819453060501" lon="10.556378937131075"><ele>1.0</ele><time>2026-04-19T12:13:18Z</time></trkpt><trkpt lat="42.97835146023922" lon="10.556489124802425"><ele>0.75</ele><time>2026-04-19T12:13:19Z</time></trkpt><trkpt lat="42.9784776725121" lon="10.556579813614814"><ele>0.5</ele><time>2026-04-19T12:13:20Z</time></trkpt><trkpt lat="42.97858938563212" lon="10.556677315490289"><ele>0.25</ele><time>2026-04-19T12:13:21Z</time></trkpt><trkpt lat="42.97867320094579" lon="10.55677910687605"><ele>0.0</ele><time>2026-04-19T12:13:22Z</time></trkpt><trkpt lat="42.97872737723155" lon="10.556894271962006"><ele>0.0</ele><time>2026-04-19T12:13:23Z</time></trkpt><trkpt lat="42.97875975211804" lon="10.557010930282734"><ele>0.0</ele><time>2026-04-19T12:13:24Z</time></trkpt><trkpt lat="42.9787980115801" lon="10.557111547070807"><ele>0.0</ele><time>2026-04-19T12:13:25Z</time></trkpt><trkpt lat="42.97886227904219" lon="10.557172293262298"><ele>0.0</ele><time>2026-04-19T12:13:26Z</time></trkpt><trkpt lat="42.97901660050464" lon="10.557007215158578"><ele>0.0</ele><time>2026-04-19T12:13:27Z</time></trkpt><trkpt lat="42.97905586307008" lon="10.557112088638732"><ele>0.0</ele><time>2026-04-19T12:13:28Z</time></trkpt><trkpt lat="42.979179281697306" lon="10.55711624557589"><ele>0.0</ele><time>2026-04-19T12:13:29Z</time></trkpt><trkpt lat="42.97931265450329" lon="10.557183794522484"><ele>0.0</ele><time>2026-04-19T12:13:30Z</time></trkpt><trkpt lat="42.97945853158288" lon="10.557302395546335"><ele>0.0</ele><time>2026-04-19T12:13:31Z</time></trkpt><trkpt lat="42.9796208220285" lon="10.557435514758415"><ele>0.0</ele><time>2026-04-19T12:13:32Z</time></trkpt><trkpt lat="42.97979872589393" lon="10.557569445187855"><ele>0.0</ele><time>2026-04-19T12:13:33Z</time></trkpt><trkpt lat="42.979988989103475" lon="10.557709361651696"><ele>0.0</ele><time>2026-04-19T12:13:34Z</time></trkpt><trkpt lat="42.980185960782464" lon="10.557853686494784"><ele>-0.3333333333333333</ele><time>2026-04-19T12:13:35Z</time></trkpt><trkpt lat="42.98038492714682" lon="10.557995858204519"><ele>-0.6666666666666666</ele><time>2026-04-19T12:13:36Z</time></trkpt><trkpt lat="42.98057163203983" lon="10.558126606791044"><ele>-1.0</ele><time>2026-04-19T12:13:37Z</time></trkpt><trkpt lat="42.98075017526467" lon="10.558260241755951"><ele>-1.0</ele><time>2026-04-19T12:13:38Z</time></trkpt><trkpt lat="42.98092903206527" lon="10.558392554363577"><ele>-1.0</ele><time>2026-04-19T12:13:39Z</time></trkpt><trkpt lat="42.98111022179491" lon="10.55853025594961"><ele>-1.0</ele><time>2026-04-19T12:13:40Z</time></trkpt><trkpt lat="42.98129681786146" lon="10.55866759252942"><ele>-1.0</ele><time>2026-04-19T12:13:41Z</time></trkpt><trkpt lat="42.98148442002792" lon="10.558804288440651"><ele>-1.0</ele><time>2026-04-19T12:13:42Z</time></trkpt><trkpt lat="42.98167213430068" lon="10.558939891859039"><ele>-1.0</ele><time>2026-04-19T12:13:43Z</time></trkpt><trkpt lat="42.98186038473316" lon="10.559076120394431"><ele>-0.6666666666666666</ele><time>2026-04-19T12:13:44Z</time></trkpt><trkpt lat="42.9820414675313" lon="10.559206332710929"><ele>-0.3333333333333333</ele><time>2026-04-19T12:13:45Z</time></trkpt><trkpt lat="42.98222022702935" lon="10.559339710366064"><ele>0.0</ele><time>2026-04-19T12:13:46Z</time></trkpt><trkpt lat="42.98238892807286" lon="10.559463083136825"><ele>0.3333333333333333</ele><time>2026-04-19T12:13:47Z</time></trkpt><trkpt lat="42.98255554173087" lon="10.559564179734634"><ele>0.6666666666666666</ele><time>2026-04-19T12:13:48Z</time></trkpt><trkpt lat="42.98273347275404" lon="10.55963622925953"><ele>1.0</ele><time>2026-04-19T12:13:49Z</time></trkpt><trkpt lat="42.98292250997689" lon="10.559673102994777"><ele>1.0</ele><time>2026-04-19T12:13:50Z</time></trkpt><trkpt lat="42.983117824144315" lon="10.559670945855832"><ele>1.0</ele><time>2026-04-19T12:13:51Z</time></trkpt><trkpt lat="42.98330793585461" lon="10.5596293867924"><ele>1.0</ele><time>2026-04-19T12:13:52Z</time></trkpt><trkpt lat="42.98349446066602" lon="10.55956010796265"><ele>1.0</ele><time>2026-04-19T12:13:53Z</time></trkpt><trkpt lat="42.983673008331515" lon="10.559467487354787"><ele>1.0</ele><time>2026-04-19T12:13:54Z</time></trkpt><trkpt lat="42.98383083375558" lon="10.55941498411536"><ele>1.0</ele><time>2026-04-19T12:13:54.999Z</time></trkpt><trkpt lat="42.98398165365389" lon="10.559374443593843"><ele>1.0</ele><time>2026-04-19T12:13:55.999Z</time></trkpt><trkpt lat="42.9841020405186" lon="10.559340585456392"><ele>1.0</ele><time>2026-04-19T12:13:56.999Z</time></trkpt><trkpt lat="42.98421004819925" lon="10.559339444029286"><ele>1.0</ele><time>2026-04-19T12:13:57.999Z</time></trkpt><trkpt lat="42.98428865577212" lon="10.559367146183472"><ele>1.0</ele><time>2026-04-19T12:13:59Z</time></trkpt><trkpt lat="42.984368109875376" lon="10.559376340689653"><ele>1.0</ele><time>2026-04-19T12:14:01Z</time></trkpt><trkpt lat="42.98441466675144" lon="10.559203609404564"><ele>0.8</ele><time>2026-04-19T12:14:02Z</time></trkpt><trkpt lat="42.9843995419752" lon="10.559050055523294"><ele>0.6000000000000001</ele><time>2026-04-19T12:14:03Z</time></trkpt><trkpt lat="42.984340561851376" lon="10.558918857389095"><ele>0.4</ele><time>2026-04-19T12:14:04Z</time></trkpt><trkpt lat="42.98429748100808" lon="10.55882699663429"><ele>0.2</ele><time>2026-04-19T12:14:05Z</time></trkpt><trkpt lat="42.98433927744799" lon="10.558678034048256"><ele>0.0</ele><time>2026-04-19T12:14:07Z</time></trkpt><trkpt lat="42.98440407826599" lon="10.558536979400897"><ele>0.0</ele><time>2026-04-19T12:14:08Z</time></trkpt><trkpt lat="42.98446620722517" lon="10.558350847534184"><ele>0.0</ele><time>2026-04-19T12:14:09Z</time></trkpt><trkpt lat="42.984531338495074" lon="10.558153269389715"><ele>0.0</ele><time>2026-04-19T12:14:10Z</time></trkpt><trkpt lat="42.98460116653594" lon="10.557940666311321"><ele>0.3333333333333333</ele><time>2026-04-19T12:14:11Z</time></trkpt><trkpt lat="42.98467364723136" lon="10.557721629002538"><ele>0.6666666666666666</ele><time>2026-04-19T12:14:12Z</time></trkpt><trkpt lat="42.9847537483934" lon="10.557482808144451"><ele>1.0</ele><time>2026-04-19T12:14:13Z</time></trkpt><trkpt lat="42.984826325743995" lon="10.557214032242218"><ele>1.0</ele><time>2026-04-19T12:14:14Z</time></trkpt><trkpt lat="42.98493599131364" lon="10.55694288170211"><ele>1.0</ele><time>2026-04-19T12:14:15Z</time></trkpt><trkpt lat="42.9850268092746" lon="10.55667381778523"><ele>1.0</ele><time>2026-04-19T12:14:16Z</time></trkpt><trkpt lat="42.985115995057605" lon="10.556409589748348"><ele>1.3333333333333333</ele><time>2026-04-19T12:14:17Z</time></trkpt><trkpt lat="42.985201228919955" lon="10.556157069239392"><ele>1.6666666666666665</ele><time>2026-04-19T12:14:18Z</time></trkpt><trkpt lat="42.985281848065945" lon="10.555913949136324"><ele>2.0</ele><time>2026-04-19T12:14:19Z</time></trkpt><trkpt lat="42.98535207445511" lon="10.55570174149766"><ele>2.0</ele><time>2026-04-19T12:14:20Z</time></trkpt><trkpt lat="42.98542306125419" lon="10.555487236298964"><ele>2.0</ele><time>2026-04-19T12:14:21Z</time></trkpt><trkpt lat="42.985493165073805" lon="10.555275398808464"><ele>2.0</ele><time>2026-04-19T12:14:22Z</time></trkpt><trkpt lat="42.98556544596061" lon="10.555056983022416"><ele>1.75</ele><time>2026-04-19T12:14:23Z</time></trkpt><trkpt lat="42.98563366820874" lon="10.554850831375912"><ele>1.5</ele><time>2026-04-19T12:14:24Z</time></trkpt><trkpt lat="42.98569473375666" lon="10.554666305791987"><ele>1.25</ele><time>2026-04-19T12:14:25Z</time></trkpt><trkpt lat="42.98574799822947" lon="10.55450535301037"><ele>1.0</ele><time>2026-04-19T12:14:26Z</time></trkpt><trkpt lat="42.985792289679424" lon="10.554371514577223"><ele>0.5</ele><time>2026-04-19T12:14:27Z</time></trkpt><trkpt lat="42.985828046619766" lon="10.554263465598785"><ele>0.0</ele><time>2026-04-19T12:14:28Z</time></trkpt><trkpt lat="42.98586065366077" lon="10.554144568980686"><ele>-0.5</ele><time>2026-04-19T12:14:30Z</time></trkpt><trkpt lat="42.98601587114115" lon="10.554226740067723"><ele>-1.0</ele><time>2026-04-19T12:14:33Z</time></trkpt><trkpt lat="42.986113883795305" lon="10.554320679997286"><ele>-1.0</ele><time>2026-04-19T12:14:34Z</time></trkpt><trkpt lat="42.986222622808704" lon="10.55440400243963"><ele>-1.0</ele><time>2026-04-19T12:14:35Z</time></trkpt><trkpt lat="42.98635058832442" lon="10.554499996518556"><ele>-1.0</ele><time>2026-04-19T12:14:36Z</time></trkpt><trkpt lat="42.98648520313829" lon="10.554599629791568"><ele>-1.0</ele><time>2026-04-19T12:14:37Z</time></trkpt><trkpt lat="42.986621822209294" lon="10.55470347949264"><ele>-0.6666666666666666</ele><time>2026-04-19T12:14:38Z</time></trkpt><trkpt lat="42.98675974104075" lon="10.55480432982394"><ele>-0.3333333333333333</ele><time>2026-04-19T12:14:39Z</time></trkpt><trkpt lat="42.98689409632697" lon="10.55490219863595"><ele>0.0</ele><time>2026-04-19T12:14:40Z</time></trkpt><trkpt lat="42.987025578014915" lon="10.555001779913656"><ele>0.0</ele><time>2026-04-19T12:14:41Z</time></trkpt><trkpt lat="42.987160940923744" lon="10.55510273302822"><ele>0.0</ele><time>2026-04-19T12:14:42Z</time></trkpt><trkpt lat="42.98729867054595" lon="10.555205811317396"><ele>0.0</ele><time>2026-04-19T12:14:43Z</time></trkpt><trkpt lat="42.98743628389722" lon="10.555306248161662"><ele>0.6666666666666666</ele><time>2026-04-19T12:14:44Z</time></trkpt><trkpt lat="42.98757406650186" lon="10.5554079448707"><ele>1.3333333333333333</ele><time>2026-04-19T12:14:45Z</time></trkpt><trkpt lat="42.98771862912279" lon="10.55551746134228"><ele>2.0</ele><time>2026-04-19T12:14:46Z</time></trkpt><trkpt lat="42.98786556545235" lon="10.55562531754772"><ele>2.0</ele><time>2026-04-19T12:14:47Z</time></trkpt><trkpt lat="42.988014575822284" lon="10.555733324591886"><ele>2.0</ele><time>2026-04-19T12:14:48Z</time></trkpt><trkpt lat="42.9881624469899" lon="10.555844434086898"><ele>2.0</ele><time>2026-04-19T12:14:49Z</time></trkpt><trkpt lat="42.98831335926817" lon="10.555959173041064"><ele>1.3333333333333333</ele><time>2026-04-19T12:14:50Z</time></trkpt><trkpt lat="42.98846047299654" lon="10.556067369488057"><ele>0.6666666666666666</ele><time>2026-04-19T12:14:51Z</time></trkpt><trkpt lat="42.98861252608658" lon="10.55618051603109"><ele>0.0</ele><time>2026-04-19T12:14:52Z</time></trkpt><trkpt lat="42.98876528987684" lon="10.556292255827211"><ele>0.0</ele><time>2026-04-19T12:14:53Z</time></trkpt><trkpt lat="42.98891784356501" lon="10.556407480654565"><ele>0.0</ele><time>2026-04-19T12:14:54Z</time></trkpt><trkpt lat="42.98906916304334" lon="10.55652184208147"><ele>0.0</ele><time>2026-04-19T12:14:55Z</time></trkpt><trkpt lat="42.98921856190969" lon="10.556633288016503"><ele>-0.3333333333333333</ele><time>2026-04-19T12:14:56Z</time></trkpt><trkpt lat="42.989365249677924" lon="10.556742952072549"><ele>-0.6666666666666666</ele><time>2026-04-19T12:14:57Z</time></trkpt><trkpt lat="42.98950392089107" lon="10.556846084632001"><ele>-1.0</ele><time>2026-04-19T12:14:58Z</time></trkpt><trkpt lat="42.989642194327544" lon="10.556948319347379"><ele>-1.0</ele><time>2026-04-19T12:14:59Z</time></trkpt><trkpt lat="42.98977241074654" lon="10.557045169789106"><ele>-1.0</ele><time>2026-04-19T12:15:00Z</time></trkpt><trkpt lat="42.989900580240906" lon="10.557139331521276"><ele>-1.0</ele><time>2026-04-19T12:15:01Z</time></trkpt><trkpt lat="42.990023044702866" lon="10.557235001398793"><ele>-1.0</ele><time>2026-04-19T12:15:02Z</time></trkpt><trkpt lat="42.99014112977267" lon="10.55732605741954"><ele>-0.5</ele><time>2026-04-19T12:15:03Z</time></trkpt><trkpt lat="42.990263114267464" lon="10.557413686544843"><ele>0.0</ele><time>2026-04-19T12:15:04Z</time></trkpt><trkpt lat="42.99038402035986" lon="10.5574958904693"><ele>0.5</ele><time>2026-04-19T12:15:05Z</time></trkpt><trkpt lat="42.990496382834465" lon="10.557575043723151"><ele>1.0</ele><time>2026-04-19T12:15:06Z</time></trkpt><trkpt lat="42.99059614709366" lon="10.557636160999355"><ele>1.0</ele><time>2026-04-19T12:15:07Z</time></trkpt><trkpt lat="42.990692647925826" lon="10.557696702070519"><ele>1.0</ele><time>2026-04-19T12:15:08Z</time></trkpt><trkpt lat="42.99079319105415" lon="10.557766848699098"><ele>1.0</ele><time>2026-04-19T12:15:09Z</time></trkpt><trkpt lat="42.990904923229046" lon="10.557863766558745"><ele>1.0</ele><time>2026-04-19T12:15:10Z</time></trkpt><trkpt lat="42.991030671472494" lon="10.557972728609222"><ele>0.3333333333333333</ele><time>2026-04-19T12:15:10.999Z</time></trkpt><trkpt lat="42.99116585585231" lon="10.558087966763676"><ele>-0.3333333333333333</ele><time>2026-04-19T12:15:11.999Z</time></trkpt><trkpt lat="42.991309397840006" lon="10.55819874361625"><ele>-1.0</ele><time>2026-04-19T12:15:12.999Z</time></trkpt><trkpt lat="42.99145141490748" lon="10.558292422146382"><ele>-1.0</ele><time>2026-04-19T12:15:13.999Z</time></trkpt><trkpt lat="42.99161819221391" lon="10.55840816190162"><ele>-1.0</ele><time>2026-04-19T12:15:14.999Z</time></trkpt><trkpt lat="42.99179069728499" lon="10.558534934168621"><ele>-1.0</ele><time>2026-04-19T12:15:15.999Z</time></trkpt><trkpt lat="42.99196842315973" lon="10.558665032552634"><ele>-0.6666666666666666</ele><time>2026-04-19T12:15:16.999Z</time></trkpt><trkpt lat="42.99213770104315" lon="10.558801646602943"><ele>-0.3333333333333333</ele><time>2026-04-19T12:15:17.999Z</time></trkpt><trkpt lat="42.99229628946655" lon="10.55892499940939"><ele>0.0</ele><time>2026-04-19T12:15:18.999Z</time></trkpt><trkpt lat="42.99243400029615" lon="10.55902680326008"><ele>-0.25</ele><time>2026-04-19T12:15:19.999Z</time></trkpt><trkpt lat="42.99255214485946" lon="10.559119439875197"><ele>-0.5</ele><time>2026-04-19T12:15:20.999Z</time></trkpt><trkpt lat="42.99266675642935" lon="10.559208404829864"><ele>-0.75</ele><time>2026-04-19T12:15:21.999Z</time></trkpt><trkpt lat="42.9927712407474" lon="10.559279178631428"><ele>-1.0</ele><time>2026-04-19T12:15:22.999Z</time></trkpt><trkpt lat="42.992854261240026" lon="10.559340382840224"><ele>-1.0</ele><time>2026-04-19T12:15:23.999Z</time></trkpt><trkpt lat="42.99292300192769" lon="10.559374509916129"><ele>-1.0</ele><time>2026-04-19T12:15:24.999Z</time></trkpt><trkpt lat="42.99301539105796" lon="10.55917932244638"><ele>-1.0</ele><time>2026-04-19T12:15:28.999Z</time></trkpt><trkpt lat="42.99303391789729" lon="10.559046102165475"><ele>-1.0</ele><time>2026-04-19T12:15:29.999Z</time></trkpt><trkpt lat="42.99309330049885" lon="10.558880888768874"><ele>-0.6666666666666666</ele><time>2026-04-19T12:15:30.999Z</time></trkpt><trkpt lat="42.99315750829109" lon="10.55869806982988"><ele>-0.3333333333333333</ele><time>2026-04-19T12:15:31.999Z</time></trkpt><trkpt lat="42.99322614828252" lon="10.55851013077743"><ele>0.0</ele><time>2026-04-19T12:15:32.999Z</time></trkpt><trkpt lat="42.993300944612564" lon="10.558324274960235"><ele>-0.3333333333333333</ele><time>2026-04-19T12:15:33.999Z</time></trkpt><trkpt lat="42.993374063475684" lon="10.558136135835577"><ele>-0.6666666666666666</ele><time>2026-04-19T12:15:34.999Z</time></trkpt><trkpt lat="42.99344377915546" lon="10.557935442178694"><ele>-1.0</ele><time>2026-04-19T12:15:35.999Z</time></trkpt><trkpt lat="42.993524422586596" lon="10.55771293535644"><ele>-1.0</ele><time>2026-04-19T12:15:36.999Z</time></trkpt><trkpt lat="42.993587089278115" lon="10.557532913075626"><ele>-1.0</ele><time>2026-04-19T12:15:37.999Z</time></trkpt><trkpt lat="42.99364019882504" lon="10.557354343226017"><ele>-1.0</ele><time>2026-04-19T12:15:38.999Z</time></trkpt><trkpt lat="42.99370940694255" lon="10.557169724161637"><ele>-1.0</ele><time>2026-04-19T12:15:39.999Z</time></trkpt><trkpt lat="42.99377739089337" lon="10.556983472714201"><ele>-0.6666666666666666</ele><time>2026-04-19T12:15:40.999Z</time></trkpt><trkpt lat="42.993844346639484" lon="10.556793818787373"><ele>-0.3333333333333333</ele><time>2026-04-19T12:15:41.999Z</time></trkpt><trkpt lat="42.99391360569371" lon="10.556602809527227"><ele>0.0</ele><time>2026-04-19T12:15:42.999Z</time></trkpt><trkpt lat="42.99398565893794" lon="10.55641306068304"><ele>0.0</ele><time>2026-04-19T12:15:43.999Z</time></trkpt><trkpt lat="42.99405265130117" lon="10.55622678838458"><ele>0.0</ele><time>2026-04-19T12:15:44.999Z</time></trkpt><trkpt lat="42.99412339759358" lon="10.556039847970471"><ele>0.0</ele><time>2026-04-19T12:15:45.999Z</time></trkpt><trkpt lat="42.99419253276872" lon="10.555858350719"><ele>0.0</ele><time>2026-04-19T12:15:46.999Z</time></trkpt><trkpt lat="42.99425642877731" lon="10.55569431525015"><ele>0.0</ele><time>2026-04-19T12:15:47.999Z</time></trkpt><trkpt lat="42.99431994329102" lon="10.5555203964344"><ele>0.0</ele><time>2026-04-19T12:15:48.999Z</time></trkpt><trkpt lat="42.99438886120386" lon="10.555329743694228"><ele>0.0</ele><time>2026-04-19T12:15:49.999Z</time></trkpt><trkpt lat="42.99445569228314" lon="10.555144720985696"><ele>0.0</ele><time>2026-04-19T12:15:50.999Z</time></trkpt><trkpt lat="42.9945283491748" lon="10.554951109758061"><ele>0.0</ele><time>2026-04-19T12:15:51.999Z</time></trkpt><trkpt lat="42.99459455070217" lon="10.5547669129916"><ele>0.0</ele><time>2026-04-19T12:15:52.999Z</time></trkpt><trkpt lat="42.994661081530964" lon="10.554582467490334"><ele>0.0</ele><time>2026-04-19T12:15:53.999Z</time></trkpt><trkpt lat="42.994727587535536" lon="10.55440189218414"><ele>0.0</ele><time>2026-04-19T12:15:54.999Z</time></trkpt><trkpt lat="42.99479284545274" lon="10.554225949243662"><ele>0.0</ele><time>2026-04-19T12:15:55.999Z</time></trkpt><trkpt lat="42.99485787094093" lon="10.554053239062402"><ele>0.0</ele><time>2026-04-19T12:15:56.999Z</time></trkpt><trkpt lat="42.99491892959824" lon="10.553895844345567"><ele>0.0</ele><time>2026-04-19T12:15:57.999Z</time></trkpt><trkpt lat="42.9949725388064" lon="10.553767796210082"><ele>0.0</ele><time>2026-04-19T12:15:58.999Z</time></trkpt><trkpt lat="42.99502619780101" lon="10.553633096244365"><ele>0.0</ele><time>2026-04-19T12:15:59.999Z</time></trkpt><trkpt lat="42.99507956451231" lon="10.553493808879058"><ele>0.0</ele><time>2026-04-19T12:16:00.999Z</time></trkpt><trkpt lat="42.995140519067846" lon="10.553334870231927"><ele>0.0</ele><time>2026-04-19T12:16:01.999Z</time></trkpt><trkpt lat="42.995201486540005" lon="10.55317700720329"><ele>0.0</ele><time>2026-04-19T12:16:02.999Z</time></trkpt><trkpt lat="42.995264821683705" lon="10.55301515534618"><ele>0.0</ele><time>2026-04-19T12:16:04Z</time></trkpt><trkpt lat="42.99531757375452" lon="10.552849757475013"><ele>0.0</ele><time>2026-04-19T12:16:05.001Z</time></trkpt><trkpt lat="42.99537281500716" lon="10.552678298977249"><ele>0.25</ele><time>2026-04-19T12:16:06.001Z</time></trkpt><trkpt lat="42.99543153826441" lon="10.552509195078462"><ele>0.5</ele><time>2026-04-19T12:16:07.001Z</time></trkpt><trkpt lat="42.99549435308445" lon="10.552342732881094"><ele>0.75</ele><time>2026-04-19T12:16:08.001Z</time></trkpt><trkpt lat="42.995559945487265" lon="10.552172509979496"><ele>1.0</ele><time>2026-04-19T12:16:09.001Z</time></trkpt><trkpt lat="42.995625943417075" lon="10.551998744472327"><ele>0.75</ele><time>2026-04-19T12:16:10.001Z</time></trkpt><trkpt lat="42.99569046832571" lon="10.551822714810275"><ele>0.5</ele><time>2026-04-19T12:16:11.001Z</time></trkpt><trkpt lat="42.995754431415236" lon="10.551648482099202"><ele>0.25</ele><time>2026-04-19T12:16:12.001Z</time></trkpt><trkpt lat="42.99581768598631" lon="10.551474299342415"><ele>0.0</ele><time>2026-04-19T12:16:13.001Z</time></trkpt><trkpt lat="42.99587724438325" lon="10.551318365327948"><ele>0.0</ele><time>2026-04-19T12:16:14.001Z</time></trkpt><trkpt lat="42.99592806401584" lon="10.551184752746561"><ele>0.0</ele><time>2026-04-19T12:16:15.001Z</time></trkpt><trkpt lat="42.995968045809036" lon="10.551071345227527"><ele>0.0</ele><time>2026-04-19T12:16:16.001Z</time></trkpt><trkpt lat="42.995998141821104" lon="10.55097798808982"><ele>0.0</ele><time>2026-04-19T12:16:17.001Z</time></trkpt><trkpt lat="42.99605535831021" lon="10.55086841223607"><ele>0.0</ele><time>2026-04-19T12:16:19.001Z</time></trkpt><trkpt lat="42.99615940872846" lon="10.550940460144217"><ele>0.0</ele><time>2026-04-19T12:16:21.001Z</time></trkpt><trkpt lat="42.996225148701946" lon="10.551030261198116"><ele>0.0</ele><time>2026-04-19T12:16:22.001Z</time></trkpt><trkpt lat="42.99632624865444" lon="10.551057658636886"><ele>0.0</ele><time>2026-04-19T12:16:24.001Z</time></trkpt><trkpt lat="42.996374430064115" lon="10.55099324112045"><ele>0.0</ele><time>2026-04-19T12:16:25.001Z</time></trkpt><trkpt lat="42.99641659805006" lon="10.55090389816054"><ele>0.0</ele><time>2026-04-19T12:16:26.001Z</time></trkpt><trkpt lat="42.996395346052196" lon="10.55081126183775"><ele>0.0</ele><time>2026-04-19T12:16:28.001Z</time></trkpt><trkpt lat="42.99633107095439" lon="10.550759663190988"><ele>0.0</ele><time>2026-04-19T12:16:29.001Z</time></trkpt><trkpt lat="42.99625104600901" lon="10.550686294761395"><ele>0.0</ele><time>2026-04-19T12:16:30.001Z</time></trkpt><trkpt lat="42.9961902574369" lon="10.550603265871754"><ele>0.0</ele><time>2026-04-19T12:16:31.001Z</time></trkpt><trkpt lat="42.99619645546753" lon="10.550434593469326"><ele>0.0</ele><time>2026-04-19T12:16:33.001Z</time></trkpt><trkpt lat="42.99625159750511" lon="10.550313420766551"><ele>0.0</ele><time>2026-04-19T12:16:34.001Z</time></trkpt><trkpt lat="42.99631013298776" lon="10.550203374908353"><ele>0.0</ele><time>2026-04-19T12:16:35.001Z</time></trkpt><trkpt lat="42.99635650644402" lon="10.550072085495168"><ele>0.0</ele><time>2026-04-19T12:16:36.001Z</time></trkpt><trkpt lat="42.99639486228206" lon="10.549939969378375"><ele>0.0</ele><time>2026-04-19T12:16:37.001Z</time></trkpt><trkpt lat="42.996441349968094" lon="10.549799727666644"><ele>0.0</ele><time>2026-04-19T12:16:38.001Z</time></trkpt><trkpt lat="42.99649436281121" lon="10.549672713052544"><ele>0.0</ele><time>2026-04-19T12:16:39Z</time></trkpt><trkpt lat="42.996549725708334" lon="10.549535325669781"><ele>0.0</ele><time>2026-04-19T12:16:40Z</time></trkpt><trkpt lat="42.996600147657446" lon="10.549392688028826"><ele>0.0</ele><time>2026-04-19T12:16:41Z</time></trkpt><trkpt lat="42.99665090065801" lon="10.54924923630652"><ele>0.0</ele><time>2026-04-19T12:16:42Z</time></trkpt><trkpt lat="42.99670141182244" lon="10.549098787130639"><ele>0.0</ele><time>2026-04-19T12:16:43Z</time></trkpt><trkpt lat="42.9967586376987" lon="10.5489497037633"><ele>0.0</ele><time>2026-04-19T12:16:44Z</time></trkpt><trkpt lat="42.996820345715506" lon="10.548794877477658"><ele>0.0</ele><time>2026-04-19T12:16:45Z</time></trkpt><trkpt lat="42.99687730480669" lon="10.548641733031932"><ele>0.0</ele><time>2026-04-19T12:16:46Z</time></trkpt><trkpt lat="42.996934524043155" lon="10.548485895584339"><ele>0.0</ele><time>2026-04-19T12:16:47Z</time></trkpt><trkpt lat="42.99699074076755" lon="10.548321418572131"><ele>0.0</ele><time>2026-04-19T12:16:48Z</time></trkpt><trkpt lat="42.9970515255465" lon="10.548150966910395"><ele>0.0</ele><time>2026-04-19T12:16:49Z</time></trkpt><trkpt lat="42.997114996148774" lon="10.547987942598558"><ele>0.0</ele><time>2026-04-19T12:16:50Z</time></trkpt><trkpt lat="42.99718074526067" lon="10.547820327651142"><ele>0.0</ele><time>2026-04-19T12:16:51Z</time></trkpt><trkpt lat="42.99724251473828" lon="10.547658741614796"><ele>0.25</ele><time>2026-04-19T12:16:52Z</time></trkpt><trkpt lat="42.99730486308169" lon="10.547483593708055"><ele>0.5</ele><time>2026-04-19T12:16:53Z</time></trkpt><trkpt lat="42.99737146787658" lon="10.547319152232973"><ele>0.75</ele><time>2026-04-19T12:16:54Z</time></trkpt><trkpt lat="42.99743068479866" lon="10.547145558666731"><ele>1.0</ele><time>2026-04-19T12:16:55Z</time></trkpt><trkpt lat="42.997490395676266" lon="10.546974274412126"><ele>0.75</ele><time>2026-04-19T12:16:56Z</time></trkpt><trkpt lat="42.997548454443596" lon="10.546806602401537"><ele>0.5</ele><time>2026-04-19T12:16:57Z</time></trkpt><trkpt lat="42.99761050027227" lon="10.546643157496156"><ele>0.25</ele><time>2026-04-19T12:16:58Z</time></trkpt><trkpt lat="42.99766791894609" lon="10.546481771519339"><ele>0.0</ele><time>2026-04-19T12:16:59Z</time></trkpt><trkpt lat="42.99773002770376" lon="10.546321000594984"><ele>1.0</ele><time>2026-04-19T12:17:00Z</time></trkpt><trkpt lat="42.99778917881007" lon="10.546163675593565"><ele>2.0</ele><time>2026-04-19T12:17:01Z</time></trkpt><trkpt lat="42.99784686347284" lon="10.5460036073043"><ele>3.0</ele><time>2026-04-19T12:17:02Z</time></trkpt><trkpt lat="42.9979099331303" lon="10.545842133741086"><ele>4.0</ele><time>2026-04-19T12:17:03Z</time></trkpt><trkpt lat="42.99797792128287" lon="10.545673405349827"><ele>4.0</ele><time>2026-04-19T12:17:04Z</time></trkpt><trkpt lat="42.998037921160595" lon="10.545510773554993"><ele>4.0</ele><time>2026-04-19T12:17:05Z</time></trkpt><trkpt lat="42.99809228404314" lon="10.545353692753164"><ele>4.0</ele><time>2026-04-19T12:17:06Z</time></trkpt><trkpt lat="42.99815000628794" lon="10.545195707324151"><ele>4.0</ele><time>2026-04-19T12:17:07Z</time></trkpt><trkpt lat="42.998211047438744" lon="10.545035405766804"><ele>4.75</ele><time>2026-04-19T12:17:08Z</time></trkpt><trkpt lat="42.998270437519004" lon="10.544872790317442"><ele>5.5</ele><time>2026-04-19T12:17:09Z</time></trkpt><trkpt lat="42.9983296692412" lon="10.5447019742109"><ele>6.25</ele><time>2026-04-19T12:17:10Z</time></trkpt><trkpt lat="42.99838727402436" lon="10.544534730876103"><ele>7.0</ele><time>2026-04-19T12:17:11Z</time></trkpt><trkpt lat="42.9984434010268" lon="10.544380173668266"><ele>7.0</ele><time>2026-04-19T12:17:12Z</time></trkpt><trkpt lat="42.998507489658024" lon="10.544217246730621"><ele>7.0</ele><time>2026-04-19T12:17:13Z</time></trkpt><trkpt lat="42.99857082967247" lon="10.544054710893942"><ele>7.0</ele><time>2026-04-19T12:17:14Z</time></trkpt><trkpt lat="42.9986261839297" lon="10.543887609934185"><ele>7.0</ele><time>2026-04-19T12:17:15Z</time></trkpt><trkpt lat="42.99868092816952" lon="10.543733665143712"><ele>7.5</ele><time>2026-04-19T12:17:16Z</time></trkpt><trkpt lat="42.99874082302898" lon="10.543572087574413"><ele>8.0</ele><time>2026-04-19T12:17:17Z</time></trkpt><trkpt lat="42.9988031585738" lon="10.543416600463564"><ele>8.5</ele><time>2026-04-19T12:17:18Z</time></trkpt><trkpt lat="42.998860093965106" lon="10.54325358263735"><ele>9.0</ele><time>2026-04-19T12:17:19Z</time></trkpt><trkpt lat="42.99891385404797" lon="10.543102141211897"><ele>9.0</ele><time>2026-04-19T12:17:20Z</time></trkpt><trkpt lat="42.998964852954614" lon="10.54295960884028"><ele>9.0</ele><time>2026-04-19T12:17:21Z</time></trkpt><trkpt lat="42.99900429005802" lon="10.542837561288623"><ele>9.0</ele><time>2026-04-19T12:17:22Z</time></trkpt><trkpt lat="42.9990361133357" lon="10.542740643856666"><ele>9.0</ele><time>2026-04-19T12:17:23Z</time></trkpt><trkpt lat="42.9990843483933" lon="10.542642751718255"><ele>9.0</ele><time>2026-04-19T12:17:25Z</time></trkpt><trkpt lat="42.99904065896096" lon="10.542543896342062"><ele>8.8</ele><time>2026-04-19T12:17:27Z</time></trkpt><trkpt lat="42.998995390211256" lon="10.54245906424417"><ele>8.600000000000001</ele><time>2026-04-19T12:17:28Z</time></trkpt><trkpt lat="42.99891119962474" lon="10.542389485875729"><ele>8.4</ele><time>2026-04-19T12:17:29Z</time></trkpt><trkpt lat="42.99880642943939" lon="10.54229955182122"><ele>8.200000000000001</ele><time>2026-04-19T12:17:30Z</time></trkpt><trkpt lat="42.99869275455712" lon="10.54219472577518"><ele>8.0</ele><time>2026-04-19T12:17:31Z</time></trkpt><trkpt lat="42.99857298252806" lon="10.542114920625833"><ele>8.0</ele><time>2026-04-19T12:17:32Z</time></trkpt><trkpt lat="42.99846795137212" lon="10.542066691691005"><ele>8.0</ele><time>2026-04-19T12:17:33Z</time></trkpt><trkpt lat="42.998353801801485" lon="10.542034444301557"><ele>8.0</ele><time>2026-04-19T12:17:34Z</time></trkpt><trkpt lat="42.998268954413454" lon="10.542005819284501"><ele>8.0</ele><time>2026-04-19T12:17:35Z</time></trkpt><trkpt lat="42.99820617800134" lon="10.541970526222007"><ele>8.0</ele><time>2026-04-19T12:17:36Z</time></trkpt><trkpt lat="42.998133069089626" lon="10.541903240830372"><ele>8.25</ele><time>2026-04-19T12:17:37Z</time></trkpt><trkpt lat="42.998080996310286" lon="10.541763582684233"><ele>8.5</ele><time>2026-04-19T12:17:38Z</time></trkpt><trkpt lat="42.99798382595122" lon="10.541670645195937"><ele>8.75</ele><time>2026-04-19T12:17:39Z</time></trkpt><trkpt lat="42.997865375031026" lon="10.541588473486685"><ele>9.0</ele><time>2026-04-19T12:17:40Z</time></trkpt><trkpt lat="42.99772267508856" lon="10.54152291957003"><ele>9.0</ele><time>2026-04-19T12:17:41Z</time></trkpt><trkpt lat="42.997578487341585" lon="10.541440914730606"><ele>9.0</ele><time>2026-04-19T12:17:42Z</time></trkpt><trkpt lat="42.99743416206673" lon="10.541360904305709"><ele>9.0</ele><time>2026-04-19T12:17:43Z</time></trkpt><trkpt lat="42.997309160057796" lon="10.541293603995282"><ele>9.0</ele><time>2026-04-19T12:17:44Z</time></trkpt><trkpt lat="42.99721722415887" lon="10.54124533744197"><ele>8.833333333333334</ele><time>2026-04-19T12:17:45Z</time></trkpt><trkpt lat="42.99713913958949" lon="10.54120956519728"><ele>8.666666666666666</ele><time>2026-04-19T12:17:46Z</time></trkpt><trkpt lat="42.99707476809404" lon="10.541198928891838"><ele>8.5</ele><time>2026-04-19T12:17:47Z</time></trkpt><trkpt lat="42.99698081129006" lon="10.54129776826972"><ele>8.333333333333332</ele><time>2026-04-19T12:17:49Z</time></trkpt><trkpt lat="42.99697530261044" lon="10.541416911091208"><ele>8.166666666666666</ele><time>2026-04-19T12:17:50Z</time></trkpt><trkpt lat="42.9969979023621" lon="10.541537724448508"><ele>8.0</ele><time>2026-04-19T12:17:51Z</time></trkpt><trkpt lat="42.99705425794535" lon="10.541650665045902"><ele>7.75</ele><time>2026-04-19T12:17:52Z</time></trkpt><trkpt lat="42.99714217998809" lon="10.541744652752248"><ele>7.5</ele><time>2026-04-19T12:17:53Z</time></trkpt><trkpt lat="42.99724736398" lon="10.541844578937017"><ele>7.25</ele><time>2026-04-19T12:17:54Z</time></trkpt><trkpt lat="42.99736411592185" lon="10.541947018194062"><ele>7.0</ele><time>2026-04-19T12:17:55Z</time></trkpt><trkpt lat="42.99748061483934" lon="10.542028748310834"><ele>7.3999999999999995</ele><time>2026-04-19T12:17:56Z</time></trkpt><trkpt lat="42.99758063741315" lon="10.542063047923989"><ele>7.799999999999999</ele><time>2026-04-19T12:17:57Z</time></trkpt><trkpt lat="42.99766922188219" lon="10.542057767717194"><ele>8.2</ele><time>2026-04-19T12:17:58Z</time></trkpt><trkpt lat="42.99775849975117" lon="10.54205245718816"><ele>8.6</ele><time>2026-04-19T12:17:59Z</time></trkpt><trkpt lat="42.99784163306631" lon="10.541978242990423"><ele>9.0</ele><time>2026-04-19T12:18:00Z</time></trkpt><trkpt lat="42.99790951211098" lon="10.541852799799292"><ele>9.0</ele><time>2026-04-19T12:18:01Z</time></trkpt><trkpt lat="42.9979506452025" lon="10.541709537385863"><ele>9.0</ele><time>2026-04-19T12:18:02Z</time></trkpt><trkpt lat="42.9979961835245" lon="10.541557854449268"><ele>9.0</ele><time>2026-04-19T12:18:03Z</time></trkpt><trkpt lat="42.99803963635214" lon="10.541404016329901"><ele>9.0</ele><time>2026-04-19T12:18:04Z</time></trkpt><trkpt lat="42.998078319559966" lon="10.541250076691997"><ele>9.0</ele><time>2026-04-19T12:18:05Z</time></trkpt><trkpt lat="42.99810365881672" lon="10.541103166649771"><ele>9.0</ele><time>2026-04-19T12:18:06Z</time></trkpt><trkpt lat="42.99810047717199" lon="10.540931058521187"><ele>9.0</ele><time>2026-04-19T12:18:07Z</time></trkpt><trkpt lat="42.998069860027755" lon="10.54078496263182"><ele>9.0</ele><time>2026-04-19T12:18:08Z</time></trkpt><trkpt lat="42.99800755884672" lon="10.54060427743732"><ele>9.0</ele><time>2026-04-19T12:18:09Z</time></trkpt><trkpt lat="42.997927281432176" lon="10.540415562397772"><ele>9.0</ele><time>2026-04-19T12:18:10Z</time></trkpt><trkpt lat="42.997859378000726" lon="10.540257557105583"><ele>9.0</ele><time>2026-04-19T12:18:11Z</time></trkpt><trkpt lat="42.997813113831" lon="10.540108928985417"><ele>9.0</ele><time>2026-04-19T12:18:12Z</time></trkpt><trkpt lat="42.99776649944267" lon="10.539981568359845"><ele>9.0</ele><time>2026-04-19T12:18:13Z</time></trkpt><trkpt lat="42.99773758752053" lon="10.539901518927714"><ele>9.0</ele><time>2026-04-19T12:18:14Z</time></trkpt><trkpt lat="42.9976901510684" lon="10.539773164830384"><ele>9.0</ele><time>2026-04-19T12:18:16Z</time></trkpt><trkpt lat="42.99757059874434" lon="10.53982969605684"><ele>9.0</ele><time>2026-04-19T12:18:17Z</time></trkpt><trkpt lat="42.99749238139157" lon="10.539874196612432"><ele>9.0</ele><time>2026-04-19T12:18:18Z</time></trkpt><trkpt lat="42.997410164361156" lon="10.53992062228494"><ele>9.0</ele><time>2026-04-19T12:18:19Z</time></trkpt><trkpt lat="42.99728888166629" lon="10.539946820640171"><ele>9.0</ele><time>2026-04-19T12:18:21Z</time></trkpt><trkpt lat="42.99729304374506" lon="10.5397441643143"><ele>9.0</ele><time>2026-04-19T12:18:23Z</time></trkpt><trkpt lat="42.99727803561294" lon="10.5396456480149"><ele>9.0</ele><time>2026-04-19T12:18:24Z</time></trkpt><trkpt lat="42.997243241346865" lon="10.539417251466192"><ele>9.0</ele><time>2026-04-19T12:18:26Z</time></trkpt><trkpt lat="42.997222418285794" lon="10.539280564758664"><ele>9.0</ele><time>2026-04-19T12:18:27Z</time></trkpt><trkpt lat="42.99720423669253" lon="10.539161217026752"><ele>9.0</ele><time>2026-04-19T12:18:28Z</time></trkpt><trkpt lat="42.99718509689734" lon="10.539035579742633"><ele>9.0</ele><time>2026-04-19T12:18:29Z</time></trkpt><trkpt lat="42.997164938104994" lon="10.538903255058134"><ele>9.0</ele><time>2026-04-19T12:18:30Z</time></trkpt><trkpt lat="42.99714329180174" lon="10.53876187557874"><ele>9.0</ele><time>2026-04-19T12:18:31Z</time></trkpt><trkpt lat="42.997117432151846" lon="10.53859344399832"><ele>9.0</ele><time>2026-04-19T12:18:32Z</time></trkpt><trkpt lat="42.9970926820165" lon="10.538432488543904"><ele>9.0</ele><time>2026-04-19T12:18:33Z</time></trkpt><trkpt lat="42.997071021128974" lon="10.538291623172675"><ele>9.0</ele><time>2026-04-19T12:18:34Z</time></trkpt><trkpt lat="42.997056110890064" lon="10.53819465852087"><ele>9.0</ele><time>2026-04-19T12:18:35Z</time></trkpt><trkpt lat="42.99686039968157" lon="10.538056387435047"><ele>9.0</ele><time>2026-04-19T12:18:38Z</time></trkpt><trkpt lat="42.99678188936975" lon="10.538078457757866"><ele>9.0</ele><time>2026-04-19T12:18:39Z</time></trkpt><trkpt lat="42.99670617467075" lon="10.538099404493373"><ele>9.0</ele><time>2026-04-19T12:18:40Z</time></trkpt><trkpt lat="42.996587947969644" lon="10.538132899424292"><ele>9.0</ele><time>2026-04-19T12:18:41Z</time></trkpt><trkpt lat="42.99646697606349" lon="10.538168383374764"><ele>9.0</ele><time>2026-04-19T12:18:42Z</time></trkpt><trkpt lat="42.99636443733641" lon="10.53819863382035"><ele>9.0</ele><time>2026-04-19T12:18:43Z</time></trkpt><trkpt lat="42.99629291586385" lon="10.53828767144704"><ele>9.0</ele><time>2026-04-19T12:18:44Z</time></trkpt><trkpt lat="42.996236778790276" lon="10.538226344261128"><ele>9.0</ele><time>2026-04-19T12:18:46Z</time></trkpt><trkpt lat="42.99620663066039" lon="10.53810749201346"><ele>9.0</ele><time>2026-04-19T12:18:48Z</time></trkpt><trkpt lat="42.99618877441239" lon="10.537988635319676"><ele>9.0</ele><time>2026-04-19T12:18:49Z</time></trkpt><trkpt lat="42.99616982781891" lon="10.537861874826369"><ele>9.0</ele><time>2026-04-19T12:18:50Z</time></trkpt><trkpt lat="42.996148689117405" lon="10.53771965632346"><ele>9.0</ele><time>2026-04-19T12:18:51Z</time></trkpt><trkpt lat="42.99612466638545" lon="10.537560413712367"><ele>9.0</ele><time>2026-04-19T12:18:52Z</time></trkpt><trkpt lat="42.99609903947989" lon="10.537391513841856"><ele>9.0</ele><time>2026-04-19T12:18:53Z</time></trkpt><trkpt lat="42.99607152744828" lon="10.537210189464123"><ele>9.0</ele><time>2026-04-19T12:18:54Z</time></trkpt><trkpt lat="42.99604525379285" lon="10.537031155372652"><ele>9.5</ele><time>2026-04-19T12:18:55Z</time></trkpt><trkpt lat="42.99601785750846" lon="10.536843030445418"><ele>10.0</ele><time>2026-04-19T12:18:56Z</time></trkpt><trkpt lat="42.995989611871636" lon="10.536649073169395"><ele>10.5</ele><time>2026-04-19T12:18:57Z</time></trkpt><trkpt lat="42.995960048780105" lon="10.536446071361459"><ele>11.0</ele><time>2026-04-19T12:18:58Z</time></trkpt><trkpt lat="42.99593175669339" lon="10.53625180107589"><ele>11.666666666666666</ele><time>2026-04-19T12:18:59Z</time></trkpt><trkpt lat="42.99590254829362" lon="10.53605123892847"><ele>12.333333333333332</ele><time>2026-04-19T12:19:00Z</time></trkpt><trkpt lat="42.99587136247646" lon="10.535838334486407"><ele>13.0</ele><time>2026-04-19T12:19:01Z</time></trkpt><trkpt lat="42.995840190784534" lon="10.535629904361725"><ele>14.0</ele><time>2026-04-19T12:19:02Z</time></trkpt><trkpt lat="42.995809589149516" lon="10.535422845140605"><ele>15.0</ele><time>2026-04-19T12:19:03Z</time></trkpt><trkpt lat="42.99577940917668" lon="10.535205861505787"><ele>16.0</ele><time>2026-04-19T12:19:04Z</time></trkpt><trkpt lat="42.995747765493775" lon="10.534977504927426"><ele>17.25</ele><time>2026-04-19T12:19:05Z</time></trkpt><trkpt lat="42.99571819995281" lon="10.534756299475696"><ele>18.5</ele><time>2026-04-19T12:19:06Z</time></trkpt><trkpt lat="42.99569115270771" lon="10.534553933656985"><ele>19.75</ele><time>2026-04-19T12:19:07Z</time></trkpt><trkpt lat="42.995667475009625" lon="10.53437553032578"><ele>21.0</ele><time>2026-04-19T12:19:08Z</time></trkpt><trkpt lat="42.99564689415395" lon="10.53421706753458"><ele>21.6</ele><time>2026-04-19T12:19:09Z</time></trkpt><trkpt lat="42.99561571630429" lon="10.534088281137784"><ele>22.200000000000003</ele><time>2026-04-19T12:19:10Z</time></trkpt><trkpt lat="42.99563267473255" lon="10.533990059340454"><ele>22.799999999999997</ele><time>2026-04-19T12:19:11Z</time></trkpt><trkpt lat="42.99573228169849" lon="10.53389788911247"><ele>23.4</ele><time>2026-04-19T12:19:12Z</time></trkpt><trkpt lat="42.995811789494915" lon="10.533804782945282"><ele>24.0</ele><time>2026-04-19T12:19:13Z</time></trkpt><trkpt lat="42.99594767402967" lon="10.533753682031472"><ele>23.25</ele><time>2026-04-19T12:19:14Z</time></trkpt><trkpt lat="42.99606592523811" lon="10.53365240179271"><ele>22.5</ele><time>2026-04-19T12:19:15Z</time></trkpt><trkpt lat="42.99619614791639" lon="10.533537231996156"><ele>21.75</ele><time>2026-04-19T12:19:16Z</time></trkpt><trkpt lat="42.99632600382351" lon="10.533431658113976"><ele>21.0</ele><time>2026-04-19T12:19:17Z</time></trkpt><trkpt lat="42.99645741434428" lon="10.533317693811806"><ele>21.0</ele><time>2026-04-19T12:19:18Z</time></trkpt><trkpt lat="42.99658602988074" lon="10.53318479749277"><ele>21.0</ele><time>2026-04-19T12:19:19Z</time></trkpt><trkpt lat="42.99671646837975" lon="10.533041823004925"><ele>21.0</ele><time>2026-04-19T12:19:20Z</time></trkpt><trkpt lat="42.996852623981404" lon="10.532885968536393"><ele>20.0</ele><time>2026-04-19T12:19:21Z</time></trkpt><trkpt lat="42.99698587078411" lon="10.532732019690531"><ele>19.0</ele><time>2026-04-19T12:19:22Z</time></trkpt><trkpt lat="42.99712627044151" lon="10.532575303489116"><ele>18.0</ele><time>2026-04-19T12:19:23Z</time></trkpt><trkpt lat="42.99726560251631" lon="10.53241662773435"><ele>18.0</ele><time>2026-04-19T12:19:24Z</time></trkpt><trkpt lat="42.99739771710706" lon="10.53226065031133"><ele>18.0</ele><time>2026-04-19T12:19:25Z</time></trkpt><trkpt lat="42.99752179159866" lon="10.532111346914741"><ele>18.0</ele><time>2026-04-19T12:19:26Z</time></trkpt><trkpt lat="42.99764526920853" lon="10.531959317951994"><ele>18.666666666666668</ele><time>2026-04-19T12:19:27Z</time></trkpt><trkpt lat="42.997768976570285" lon="10.531813816846183"><ele>19.333333333333336</ele><time>2026-04-19T12:19:28Z</time></trkpt><trkpt lat="42.997896976352926" lon="10.531672854004261"><ele>20.0</ele><time>2026-04-19T12:19:29Z</time></trkpt><trkpt lat="42.99802437896529" lon="10.531527497925328"><ele>20.0</ele><time>2026-04-19T12:19:30Z</time></trkpt><trkpt lat="42.99815271667371" lon="10.531371647746147"><ele>20.0</ele><time>2026-04-19T12:19:31Z</time></trkpt><trkpt lat="42.99829459440781" lon="10.531203807796036"><ele>20.0</ele><time>2026-04-19T12:19:32Z</time></trkpt><trkpt lat="42.998435349619804" lon="10.53103860041016"><ele>19.333333333333336</ele><time>2026-04-19T12:19:33Z</time></trkpt><trkpt lat="42.99857043451866" lon="10.530882444083748"><ele>18.666666666666668</ele><time>2026-04-19T12:19:34Z</time></trkpt><trkpt lat="42.99870306250143" lon="10.530729459213463"><ele>18.0</ele><time>2026-04-19T12:19:35Z</time></trkpt><trkpt lat="42.9988234935483" lon="10.530590248581348"><ele>18.0</ele><time>2026-04-19T12:19:36Z</time></trkpt><trkpt lat="42.998945627988824" lon="10.530452504016965"><ele>18.0</ele><time>2026-04-19T12:19:37Z</time></trkpt><trkpt lat="42.999067699743584" lon="10.53031263612032"><ele>18.0</ele><time>2026-04-19T12:19:38Z</time></trkpt><trkpt lat="42.9991881644363" lon="10.530165685626615"><ele>18.0</ele><time>2026-04-19T12:19:39Z</time></trkpt><trkpt lat="42.99931129623847" lon="10.530015485550228"><ele>18.0</ele><time>2026-04-19T12:19:40Z</time></trkpt><trkpt lat="42.99942207292592" lon="10.529876460706365"><ele>18.0</ele><time>2026-04-19T12:19:41Z</time></trkpt><trkpt lat="42.99951577730765" lon="10.529768270553799"><ele>18.0</ele><time>2026-04-19T12:19:42Z</time></trkpt><trkpt lat="42.99960629425847" lon="10.52968269732003"><ele>18.0</ele><time>2026-04-19T12:19:43Z</time></trkpt><trkpt lat="42.99969357771808" lon="10.52964561435919"><ele>18.0</ele><time>2026-04-19T12:19:44Z</time></trkpt><trkpt lat="42.999783639999784" lon="10.52963931551642"><ele>18.0</ele><time>2026-04-19T12:19:45Z</time></trkpt><trkpt lat="42.99987066347613" lon="10.529626505870711"><ele>18.0</ele><time>2026-04-19T12:19:46Z</time></trkpt><trkpt lat="42.99993847969863" lon="10.52959673358283"><ele>18.0</ele><time>2026-04-19T12:19:47Z</time></trkpt><trkpt lat="42.99999161762245" lon="10.529538709341121"><ele>18.0</ele><time>2026-04-19T12:19:48Z</time></trkpt><trkpt lat="43.000003763214316" lon="10.529384525333894"><ele>18.6</ele><time>2026-04-19T12:19:49Z</time></trkpt><trkpt lat="42.99991950657111" lon="10.529273686247516"><ele>19.200000000000003</ele><time>2026-04-19T12:19:50Z</time></trkpt><trkpt lat="42.99984339863984" lon="10.529195018603799"><ele>19.8</ele><time>2026-04-19T12:19:51Z</time></trkpt><trkpt lat="42.99974176287427" lon="10.529139236480297"><ele>20.400000000000002</ele><time>2026-04-19T12:19:52Z</time></trkpt><trkpt lat="42.99966167115893" lon="10.529030563860287"><ele>21.0</ele><time>2026-04-19T12:19:53Z</time></trkpt><trkpt lat="42.99967669302926" lon="10.528855215121945"><ele>21.5</ele><time>2026-04-19T12:19:54Z</time></trkpt><trkpt lat="42.99966126911551" lon="10.528668209981994"><ele>22.0</ele><time>2026-04-19T12:19:55Z</time></trkpt><trkpt lat="42.999646982079256" lon="10.528486365780042"><ele>22.5</ele><time>2026-04-19T12:19:56Z</time></trkpt><trkpt lat="42.99963307644685" lon="10.528299963248411"><ele>23.0</ele><time>2026-04-19T12:19:57Z</time></trkpt><trkpt lat="42.99961823353187" lon="10.52810783642489"><ele>23.0</ele><time>2026-04-19T12:19:58Z</time></trkpt><trkpt lat="42.99960187588346" lon="10.52790630074495"><ele>23.0</ele><time>2026-04-19T12:19:59Z</time></trkpt><trkpt lat="42.999586449116336" lon="10.52770096846102"><ele>23.0</ele><time>2026-04-19T12:20:00Z</time></trkpt><trkpt lat="42.999571423370135" lon="10.527490658019959"><ele>23.25</ele><time>2026-04-19T12:20:01Z</time></trkpt><trkpt lat="42.999557081878756" lon="10.527289925449216"><ele>23.5</ele><time>2026-04-19T12:20:02Z</time></trkpt><trkpt lat="42.99954527049306" lon="10.527124605973576"><ele>23.75</ele><time>2026-04-19T12:20:03Z</time></trkpt><trkpt lat="42.99953462555669" lon="10.526975611915113"><ele>24.0</ele><time>2026-04-19T12:20:04Z</time></trkpt><trkpt lat="42.99952246884373" lon="10.526824357552508"><ele>24.75</ele><time>2026-04-19T12:20:05Z</time></trkpt><trkpt lat="42.99951065449013" lon="10.52666798928242"><ele>25.5</ele><time>2026-04-19T12:20:06Z</time></trkpt><trkpt lat="42.99949712783508" lon="10.526510219475933"><ele>26.25</ele><time>2026-04-19T12:20:07Z</time></trkpt><trkpt lat="42.99947382286357" lon="10.526348918646672"><ele>27.0</ele><time>2026-04-19T12:20:08Z</time></trkpt><trkpt lat="42.999434865011466" lon="10.52617835384181"><ele>29.0</ele><time>2026-04-19T12:20:09Z</time></trkpt><trkpt lat="42.999377538416425" lon="10.526010029871738"><ele>31.0</ele><time>2026-04-19T12:20:10Z</time></trkpt><trkpt lat="42.999301033627276" lon="10.525799383566664"><ele>33.0</ele><time>2026-04-19T12:20:11Z</time></trkpt><trkpt lat="42.99921927403648" lon="10.525581941589078"><ele>34.666666666666664</ele><time>2026-04-19T12:20:12Z</time></trkpt><trkpt lat="42.999136816822336" lon="10.525362644238248"><ele>36.33333333333333</ele><time>2026-04-19T12:20:13Z</time></trkpt><trkpt lat="42.99905562570937" lon="10.525145439742278"><ele>38.0</ele><time>2026-04-19T12:20:14Z</time></trkpt><trkpt lat="42.99897940161191" lon="10.524939462004193"><ele>38.0</ele><time>2026-04-19T12:20:15Z</time></trkpt><trkpt lat="42.99890575728338" lon="10.52474052949243"><ele>38.0</ele><time>2026-04-19T12:20:16Z</time></trkpt><trkpt lat="42.99884115286233" lon="10.524566036386974"><ele>38.0</ele><time>2026-04-19T12:20:17Z</time></trkpt><trkpt lat="42.998792111315275" lon="10.524433577787235"><ele>38.0</ele><time>2026-04-19T12:20:18Z</time></trkpt><trkpt lat="42.998747273607144" lon="10.524312473536515"><ele>39.0</ele><time>2026-04-19T12:20:19Z</time></trkpt><trkpt lat="42.99869872613855" lon="10.52418277217532"><ele>40.0</ele><time>2026-04-19T12:20:20Z</time></trkpt><trkpt lat="42.9986511947276" lon="10.524056594026783"><ele>41.0</ele><time>2026-04-19T12:20:21Z</time></trkpt><trkpt lat="42.998607487099136" lon="10.523940566626237"><ele>42.0</ele><time>2026-04-19T12:20:22Z</time></trkpt><trkpt lat="42.99851797710716" lon="10.523837642839892"><ele>43.0</ele><time>2026-04-19T12:20:23Z</time></trkpt><trkpt lat="42.998461777345696" lon="10.523683956192"><ele>42.0</ele><time>2026-04-19T12:20:24Z</time></trkpt><trkpt lat="42.998395780542424" lon="10.523517145731395"><ele>41.0</ele><time>2026-04-19T12:20:25Z</time></trkpt><trkpt lat="42.998316223476444" lon="10.523323159966353"><ele>40.0</ele><time>2026-04-19T12:20:26Z</time></trkpt><trkpt lat="42.99823903560042" lon="10.523102920633708"><ele>39.333333333333336</ele><time>2026-04-19T12:20:27Z</time></trkpt><trkpt lat="42.998175094570755" lon="10.522886664232656"><ele>38.666666666666664</ele><time>2026-04-19T12:20:28Z</time></trkpt><trkpt lat="42.9981125287882" lon="10.522672538361656"><ele>38.0</ele><time>2026-04-19T12:20:29Z</time></trkpt><trkpt lat="42.99804446754492" lon="10.522458097216559"><ele>38.0</ele><time>2026-04-19T12:20:30Z</time></trkpt><trkpt lat="42.997982456315604" lon="10.522241140247202"><ele>38.0</ele><time>2026-04-19T12:20:31Z</time></trkpt><trkpt lat="42.997921613723406" lon="10.522029478640567"><ele>38.0</ele><time>2026-04-19T12:20:32Z</time></trkpt><trkpt lat="42.99786151780445" lon="10.521822439664884"><ele>38.33333333333333</ele><time>2026-04-19T12:20:33Z</time></trkpt><trkpt lat="42.99780161354005" lon="10.5216133457439"><ele>38.666666666666664</ele><time>2026-04-19T12:20:34Z</time></trkpt><trkpt lat="42.997746976327555" lon="10.521412849499452"><ele>39.0</ele><time>2026-04-19T12:20:35Z</time></trkpt><trkpt lat="42.997726085179266" lon="10.521216050004448"><ele>38.25</ele><time>2026-04-19T12:20:36Z</time></trkpt><trkpt lat="42.997676744867604" lon="10.52103683564567"><ele>37.5</ele><time>2026-04-19T12:20:37Z</time></trkpt><trkpt lat="42.99762439630049" lon="10.5208506756972"><ele>36.75</ele><time>2026-04-19T12:20:38Z</time></trkpt><trkpt lat="42.99756599509481" lon="10.520650420902566"><ele>36.0</ele><time>2026-04-19T12:20:39Z</time></trkpt><trkpt lat="42.99750088906793" lon="10.52045822976604"><ele>30.0</ele><time>2026-04-19T12:20:40Z</time></trkpt><trkpt lat="42.99741959840704" lon="10.520273867331037"><ele>24.0</ele><time>2026-04-19T12:20:41Z</time></trkpt><trkpt lat="42.99732378946798" lon="10.520096303384953"><ele>18.0</ele><time>2026-04-19T12:20:42Z</time></trkpt><trkpt lat="42.997220730543646" lon="10.51992459803159"><ele>18.0</ele><time>2026-04-19T12:20:43Z</time></trkpt><trkpt lat="42.997125435236384" lon="10.519766777140843"><ele>18.0</ele><time>2026-04-19T12:20:44Z</time></trkpt><trkpt lat="42.997041599974764" lon="10.51962629628416"><ele>18.0</ele><time>2026-04-19T12:20:45Z</time></trkpt><trkpt lat="42.996965754226025" lon="10.519497775991985"><ele>18.0</ele><time>2026-04-19T12:20:46Z</time></trkpt><trkpt lat="42.996886154551476" lon="10.519362894682994"><ele>17.6</ele><time>2026-04-19T12:20:47Z</time></trkpt><trkpt lat="42.99680443629657" lon="10.519224621068245"><ele>17.200000000000003</ele><time>2026-04-19T12:20:48Z</time></trkpt><trkpt lat="42.9967346594672" lon="10.519107881908802"><ele>16.8</ele><time>2026-04-19T12:20:49Z</time></trkpt><trkpt lat="42.9966789153802" lon="10.519014620044334"><ele>16.400000000000002</ele><time>2026-04-19T12:20:50Z</time></trkpt><trkpt lat="42.99662431780924" lon="10.5189232763188"><ele>16.0</ele><time>2026-04-19T12:20:51Z</time></trkpt><trkpt lat="42.99657316060819" lon="10.518837135293161"><ele>14.5</ele><time>2026-04-19T12:20:52Z</time></trkpt><trkpt lat="42.9965075553985" lon="10.51872706394026"><ele>13.0</ele><time>2026-04-19T12:20:53Z</time></trkpt><trkpt lat="42.99643754720489" lon="10.518609693171516"><ele>11.5</ele><time>2026-04-19T12:20:54Z</time></trkpt><trkpt lat="42.99635905277575" lon="10.518477457355967"><ele>10.0</ele><time>2026-04-19T12:20:55Z</time></trkpt><trkpt lat="42.99627516633185" lon="10.518336137854634"><ele>10.0</ele><time>2026-04-19T12:20:56Z</time></trkpt><trkpt lat="42.99618389142081" lon="10.51818237135204"><ele>10.0</ele><time>2026-04-19T12:20:57Z</time></trkpt><trkpt lat="42.9961044461143" lon="10.518048383815836"><ele>10.0</ele><time>2026-04-19T12:20:58Z</time></trkpt><trkpt lat="42.99603278296944" lon="10.51792692171532"><ele>10.0</ele><time>2026-04-19T12:20:59Z</time></trkpt><trkpt lat="42.99595034985235" lon="10.517788995474785"><ele>9.5</ele><time>2026-04-19T12:21:00Z</time></trkpt><trkpt lat="42.99586513335195" lon="10.51764571360728"><ele>9.0</ele><time>2026-04-19T12:21:01Z</time></trkpt><trkpt lat="42.99577551330184" lon="10.517495027655485"><ele>8.5</ele><time>2026-04-19T12:21:02Z</time></trkpt><trkpt lat="42.99569351763539" lon="10.517357161249297"><ele>8.0</ele><time>2026-04-19T12:21:03Z</time></trkpt><trkpt lat="42.99561152408963" lon="10.517219298409547"><ele>7.0</ele><time>2026-04-19T12:21:04Z</time></trkpt><trkpt lat="42.9955209628858" lon="10.517067030177031"><ele>6.0</ele><time>2026-04-19T12:21:05Z</time></trkpt><trkpt lat="42.99543200147671" lon="10.516917452617758"><ele>5.0</ele><time>2026-04-19T12:21:06Z</time></trkpt><trkpt lat="42.9953335675483" lon="10.516751947139218"><ele>4.0</ele><time>2026-04-19T12:21:07Z</time></trkpt><trkpt lat="42.99522877410136" lon="10.516576492381724"><ele>4.0</ele><time>2026-04-19T12:21:08Z</time></trkpt><trkpt lat="42.99513467491505" lon="10.516418760213456"><ele>4.0</ele><time>2026-04-19T12:21:09Z</time></trkpt><trkpt lat="42.99504518467689" lon="10.516268753694186"><ele>4.0</ele><time>2026-04-19T12:21:10Z</time></trkpt><trkpt lat="42.994956780256565" lon="10.516120879215473"><ele>4.0</ele><time>2026-04-19T12:21:11Z</time></trkpt><trkpt lat="42.99486243654001" lon="10.515965090582135"><ele>5.666666666666666</ele><time>2026-04-19T12:21:12Z</time></trkpt><trkpt lat="42.9947609635695" lon="10.515797529550737"><ele>7.333333333333333</ele><time>2026-04-19T12:21:13Z</time></trkpt><trkpt lat="42.99465666377299" lon="10.515625300575675"><ele>9.0</ele><time>2026-04-19T12:21:14Z</time></trkpt><trkpt lat="42.994550688034046" lon="10.51544796696581"><ele>10.0</ele><time>2026-04-19T12:21:15Z</time></trkpt><trkpt lat="42.99444913229405" lon="10.515275090908402"><ele>11.0</ele><time>2026-04-19T12:21:16Z</time></trkpt><trkpt lat="42.994356474123315" lon="10.515117873996383"><ele>12.0</ele><time>2026-04-19T12:21:17Z</time></trkpt><trkpt lat="42.99427488055533" lon="10.51497973048857"><ele>13.0</ele><time>2026-04-19T12:21:18Z</time></trkpt><trkpt lat="42.99418945751178" lon="10.51483510331546"><ele>12.75</ele><time>2026-04-19T12:21:19Z</time></trkpt><trkpt lat="42.994103771819304" lon="10.514688229142449"><ele>12.5</ele><time>2026-04-19T12:21:20Z</time></trkpt><trkpt lat="42.99402815206898" lon="10.514560525594744"><ele>12.25</ele><time>2026-04-19T12:21:21Z</time></trkpt><trkpt lat="42.99395620914919" lon="10.514439031327193"><ele>12.0</ele><time>2026-04-19T12:21:22Z</time></trkpt><trkpt lat="42.99388983218304" lon="10.514326936628239"><ele>12.0</ele><time>2026-04-19T12:21:23Z</time></trkpt><trkpt lat="42.99382641003429" lon="10.514219831925407"><ele>12.0</ele><time>2026-04-19T12:21:24Z</time></trkpt><trkpt lat="42.993770613025724" lon="10.514125604210003"><ele>12.0</ele><time>2026-04-19T12:21:25Z</time></trkpt><trkpt lat="42.99371475270711" lon="10.514031269586548"><ele>12.0</ele><time>2026-04-19T12:21:26Z</time></trkpt><trkpt lat="42.993656482589834" lon="10.513945739988003"><ele>12.0</ele><time>2026-04-19T12:21:27Z</time></trkpt><trkpt lat="42.993585062961095" lon="10.513829153458254"><ele>11.2</ele><time>2026-04-19T12:21:29Z</time></trkpt><trkpt lat="42.993516035194666" lon="10.513723701598598"><ele>10.399999999999999</ele><time>2026-04-19T12:21:31Z</time></trkpt><trkpt lat="42.99347177324833" lon="10.513647665926312"><ele>9.600000000000001</ele><time>2026-04-19T12:21:32Z</time></trkpt><trkpt lat="42.99342595301553" lon="10.513551252231645"><ele>8.8</ele><time>2026-04-19T12:21:33Z</time></trkpt><trkpt lat="42.9933612523146" lon="10.513447020698486"><ele>8.0</ele><time>2026-04-19T12:21:34Z</time></trkpt><trkpt lat="42.99327636253892" lon="10.513323926503684"><ele>8.0</ele><time>2026-04-19T12:21:35Z</time></trkpt><trkpt lat="42.99317679763723" lon="10.513211753898767"><ele>8.0</ele><time>2026-04-19T12:21:36Z</time></trkpt><trkpt lat="42.99307148088722" lon="10.513107185041886"><ele>8.0</ele><time>2026-04-19T12:21:38Z</time></trkpt><trkpt lat="42.99296440988043" lon="10.51301605750207"><ele>8.0</ele><time>2026-04-19T12:21:39Z</time></trkpt><trkpt lat="42.99283483055423" lon="10.512924753869061"><ele>8.333333333333332</ele><time>2026-04-19T12:21:40Z</time></trkpt><trkpt lat="42.99270324934431" lon="10.512837486804477"><ele>8.666666666666666</ele><time>2026-04-19T12:21:41Z</time></trkpt><trkpt lat="42.99254203104429" lon="10.512733701824283"><ele>9.0</ele><time>2026-04-19T12:21:42Z</time></trkpt><trkpt lat="42.99237683874291" lon="10.512652228510106"><ele>10.0</ele><time>2026-04-19T12:21:43Z</time></trkpt><trkpt lat="42.99221930528631" lon="10.512543757539005"><ele>11.0</ele><time>2026-04-19T12:21:44Z</time></trkpt><trkpt lat="42.992063987501425" lon="10.51244628862159"><ele>12.0</ele><time>2026-04-19T12:21:45Z</time></trkpt><trkpt lat="42.991918100704886" lon="10.512368463280502"><ele>12.0</ele><time>2026-04-19T12:21:46Z</time></trkpt><trkpt lat="42.99178438236947" lon="10.512272051502052"><ele>12.0</ele><time>2026-04-19T12:21:47Z</time></trkpt><trkpt lat="42.99167663564705" lon="10.512165983986469"><ele>12.0</ele><time>2026-04-19T12:21:48Z</time></trkpt><trkpt lat="42.99157591744622" lon="10.512059447051014"><ele>12.0</ele><time>2026-04-19T12:21:49Z</time></trkpt><trkpt lat="42.9915080643258" lon="10.511931939232605"><ele>10.0</ele><time>2026-04-19T12:21:50Z</time></trkpt><trkpt lat="42.99145007672959" lon="10.511781895685392"><ele>8.0</ele><time>2026-04-19T12:21:51Z</time></trkpt><trkpt lat="42.99140885998627" lon="10.511612168270752"><ele>6.0</ele><time>2026-04-19T12:21:52Z</time></trkpt><trkpt lat="42.991366721877014" lon="10.511426309255937"><ele>4.0</ele><time>2026-04-19T12:21:53Z</time></trkpt><trkpt lat="42.99132671895583" lon="10.511246033710252"><ele>3.8000000000000003</ele><time>2026-04-19T12:21:54Z</time></trkpt><trkpt lat="42.99129487362578" lon="10.511102520817579"><ele>3.6000000000000005</ele><time>2026-04-19T12:21:55Z</time></trkpt><trkpt lat="42.991264898616556" lon="10.510967406121079"><ele>3.4</ele><time>2026-04-19T12:21:56Z</time></trkpt><trkpt lat="42.99123343441659" lon="10.51082557167839"><ele>3.2</ele><time>2026-04-19T12:21:57Z</time></trkpt><trkpt lat="42.99120137611927" lon="10.510681059184549"><ele>3.0</ele><time>2026-04-19T12:21:58Z</time></trkpt><trkpt lat="42.99117404640862" lon="10.510557698422959"><ele>3.0</ele><time>2026-04-19T12:21:59Z</time></trkpt><trkpt lat="42.99115215073712" lon="10.510458811173404"><ele>3.0</ele><time>2026-04-19T12:22:00Z</time></trkpt><trkpt lat="42.991126947290795" lon="10.510344985141625"><ele>3.0</ele><time>2026-04-19T12:22:01Z</time></trkpt><trkpt lat="42.99109367798659" lon="10.51019473129598"><ele>3.0</ele><time>2026-04-19T12:22:02Z</time></trkpt><trkpt lat="42.991054625035716" lon="10.510018494548047"><ele>3.0</ele><time>2026-04-19T12:22:03Z</time></trkpt><trkpt lat="42.99101666533499" lon="10.509847332430205"><ele>2.75</ele><time>2026-04-19T12:22:04Z</time></trkpt><trkpt lat="42.990977781655715" lon="10.509672004075371"><ele>2.5</ele><time>2026-04-19T12:22:05Z</time></trkpt><trkpt lat="42.990921630006966" lon="10.5094899732854"><ele>2.25</ele><time>2026-04-19T12:22:06Z</time></trkpt><trkpt lat="42.990882959257036" lon="10.50929177619281"><ele>2.0</ele><time>2026-04-19T12:22:07Z</time></trkpt><trkpt lat="42.99083995621548" lon="10.509102033149558"><ele>2.0</ele><time>2026-04-19T12:22:08Z</time></trkpt><trkpt lat="42.99080052947492" lon="10.508915996988637"><ele>2.0</ele><time>2026-04-19T12:22:09Z</time></trkpt><trkpt lat="42.99075806092657" lon="10.508726084703776"><ele>2.0</ele><time>2026-04-19T12:22:10Z</time></trkpt><trkpt lat="42.99070893877423" lon="10.5085369732307"><ele>2.0</ele><time>2026-04-19T12:22:11Z</time></trkpt><trkpt lat="42.99067107996468" lon="10.508355167211082"><ele>2.0</ele><time>2026-04-19T12:22:12Z</time></trkpt><trkpt lat="42.99063450786302" lon="10.50819181153593"><ele>2.0</ele><time>2026-04-19T12:22:13Z</time></trkpt><trkpt lat="42.99059866874184" lon="10.508044486704025"><ele>2.0</ele><time>2026-04-19T12:22:14Z</time></trkpt><trkpt lat="42.99056493182213" lon="10.507898370011127"><ele>2.0</ele><time>2026-04-19T12:22:15Z</time></trkpt><trkpt lat="42.990532187229725" lon="10.507741538934257"><ele>1.75</ele><time>2026-04-19T12:22:16Z</time></trkpt><trkpt lat="42.99049198250401" lon="10.507571626264905"><ele>1.5</ele><time>2026-04-19T12:22:17Z</time></trkpt><trkpt lat="42.99044961919046" lon="10.507384751037794"><ele>1.25</ele><time>2026-04-19T12:22:18Z</time></trkpt><trkpt lat="42.9904065123008" lon="10.5071946497738"><ele>1.0</ele><time>2026-04-19T12:22:19Z</time></trkpt><trkpt lat="42.990360509343276" lon="10.50700188146709"><ele>0.75</ele><time>2026-04-19T12:22:20Z</time></trkpt><trkpt lat="42.99031744825714" lon="10.506809737328918"><ele>0.5</ele><time>2026-04-19T12:22:21Z</time></trkpt><trkpt lat="42.99026605818792" lon="10.506629523697436"><ele>0.25</ele><time>2026-04-19T12:22:22Z</time></trkpt><trkpt lat="42.99022520028077" lon="10.506444173551161"><ele>0.0</ele><time>2026-04-19T12:22:23Z</time></trkpt><trkpt lat="42.990182987420695" lon="10.506266180099995"><ele>0.0</ele><time>2026-04-19T12:22:24Z</time></trkpt><trkpt lat="42.99014318445446" lon="10.506085227599359"><ele>0.0</ele><time>2026-04-19T12:22:25Z</time></trkpt><trkpt lat="42.990101437372346" lon="10.5058990941281"><ele>0.0</ele><time>2026-04-19T12:22:26Z</time></trkpt><trkpt lat="42.99005634494912" lon="10.505709768372613"><ele>0.0</ele><time>2026-04-19T12:22:27Z</time></trkpt><trkpt lat="42.990013685070885" lon="10.50552075895279"><ele>2.0</ele><time>2026-04-19T12:22:28Z</time></trkpt><trkpt lat="42.98997416421312" lon="10.505325209554272"><ele>4.0</ele><time>2026-04-19T12:22:29Z</time></trkpt><trkpt lat="42.989944593501036" lon="10.505128470277917"><ele>6.0</ele><time>2026-04-19T12:22:30Z</time></trkpt><trkpt lat="42.98991868622245" lon="10.504921634286642"><ele>8.0</ele><time>2026-04-19T12:22:31Z</time></trkpt><trkpt lat="42.98990490225851" lon="10.504740273356033"><ele>8.25</ele><time>2026-04-19T12:22:32Z</time></trkpt><trkpt lat="42.989898618469496" lon="10.504552258077931"><ele>8.5</ele><time>2026-04-19T12:22:33Z</time></trkpt><trkpt lat="42.98992635214445" lon="10.504381828722021"><ele>8.75</ele><time>2026-04-19T12:22:34Z</time></trkpt><trkpt lat="42.98997172395978" lon="10.504234278674742"><ele>9.0</ele><time>2026-04-19T12:22:35Z</time></trkpt><trkpt lat="42.990007947491556" lon="10.504084033677051"><ele>6.75</ele><time>2026-04-19T12:22:36Z</time></trkpt><trkpt lat="42.990042093775614" lon="10.503941179769111"><ele>4.5</ele><time>2026-04-19T12:22:37Z</time></trkpt><trkpt lat="42.99007330377183" lon="10.503783288371059"><ele>2.25</ele><time>2026-04-19T12:22:38Z</time></trkpt><trkpt lat="42.99010864312378" lon="10.503631769912866"><ele>0.0</ele><time>2026-04-19T12:22:39Z</time></trkpt><trkpt lat="42.99014493952387" lon="10.50346870967721"><ele>0.0</ele><time>2026-04-19T12:22:40Z</time></trkpt><trkpt lat="42.99017857610808" lon="10.503303232887793"><ele>0.0</ele><time>2026-04-19T12:22:41Z</time></trkpt><trkpt lat="42.99021199339794" lon="10.50313941551217"><ele>0.0</ele><time>2026-04-19T12:22:42Z</time></trkpt><trkpt lat="42.99025143719707" lon="10.502981114099429"><ele>0.0</ele><time>2026-04-19T12:22:43Z</time></trkpt><trkpt lat="42.99028998794073" lon="10.50282714449482"><ele>0.2</ele><time>2026-04-19T12:22:44Z</time></trkpt><trkpt lat="42.99032073233131" lon="10.50268706522339"><ele>0.4</ele><time>2026-04-19T12:22:45Z</time></trkpt><trkpt lat="42.99034815553254" lon="10.502557462048014"><ele>0.6000000000000001</ele><time>2026-04-19T12:22:46Z</time></trkpt><trkpt lat="42.99037587288469" lon="10.502440813530617"><ele>0.8</ele><time>2026-04-19T12:22:47Z</time></trkpt><trkpt lat="42.99039795776865" lon="10.502313403238325"><ele>1.0</ele><time>2026-04-19T12:22:48Z</time></trkpt><trkpt lat="42.9904143289716" lon="10.502181758740587"><ele>1.2000000000000002</ele><time>2026-04-19T12:22:49Z</time></trkpt><trkpt lat="42.99042487704538" lon="10.502041624735197"><ele>1.4000000000000001</ele><time>2026-04-19T12:22:50Z</time></trkpt><trkpt lat="42.99043920808627" lon="10.501913010601195"><ele>1.6</ele><time>2026-04-19T12:22:51Z</time></trkpt><trkpt lat="42.9904592792418" lon="10.501787280609927"><ele>1.8</ele><time>2026-04-19T12:22:52Z</time></trkpt><trkpt lat="42.990475087918384" lon="10.501662565052287"><ele>2.0</ele><time>2026-04-19T12:22:53Z</time></trkpt><trkpt lat="42.990450394203" lon="10.501542005628492"><ele>2.0</ele><time>2026-04-19T12:22:54Z</time></trkpt><trkpt lat="42.99042033963932" lon="10.501408959499539"><ele>2.0</ele><time>2026-04-19T12:22:55Z</time></trkpt><trkpt lat="42.99038918901957" lon="10.501277389811198"><ele>2.0</ele><time>2026-04-19T12:22:56Z</time></trkpt><trkpt lat="42.99034955364115" lon="10.5011479322994"><ele>2.0</ele><time>2026-04-19T12:22:57Z</time></trkpt><trkpt lat="42.990308441037115" lon="10.501015777214239"><ele>2.0</ele><time>2026-04-19T12:22:58Z</time></trkpt><trkpt lat="42.99025671069831" lon="10.500861961025356"><ele>3.0</ele><time>2026-04-19T12:22:59Z</time></trkpt><trkpt lat="42.99020964325003" lon="10.50068890540001"><ele>4.0</ele><time>2026-04-19T12:23:00Z</time></trkpt><trkpt lat="42.990160865890694" lon="10.500526684059308"><ele>5.0</ele><time>2026-04-19T12:23:01Z</time></trkpt><trkpt lat="42.990114047859656" lon="10.500360874034463"><ele>6.0</ele><time>2026-04-19T12:23:02Z</time></trkpt><trkpt lat="42.99008064618335" lon="10.500177601533824"><ele>8.0</ele><time>2026-04-19T12:23:03Z</time></trkpt><trkpt lat="42.99005857565805" lon="10.49998494811578"><ele>10.0</ele><time>2026-04-19T12:23:04Z</time></trkpt><trkpt lat="42.99002611964725" lon="10.499804567571129"><ele>12.0</ele><time>2026-04-19T12:23:05Z</time></trkpt><trkpt lat="42.98996108141993" lon="10.4996434373776"><ele>14.0</ele><time>2026-04-19T12:23:06Z</time></trkpt><trkpt lat="42.98985331351546" lon="10.499478098199774"><ele>16.25</ele><time>2026-04-19T12:23:07Z</time></trkpt><trkpt lat="42.989764959869106" lon="10.499323980152242"><ele>18.5</ele><time>2026-04-19T12:23:08Z</time></trkpt><trkpt lat="42.989696090052604" lon="10.499141328485573"><ele>20.75</ele><time>2026-04-19T12:23:09Z</time></trkpt><trkpt lat="42.989644281995865" lon="10.498942885893381"><ele>23.0</ele><time>2026-04-19T12:23:10Z</time></trkpt><trkpt lat="42.98959041495128" lon="10.498736429373537"><ele>24.333333333333336</ele><time>2026-04-19T12:23:11Z</time></trkpt><trkpt lat="42.98954428370097" lon="10.498508469850306"><ele>25.666666666666668</ele><time>2026-04-19T12:23:12Z</time></trkpt><trkpt lat="42.989490229082136" lon="10.498295822354455"><ele>27.0</ele><time>2026-04-19T12:23:13Z</time></trkpt><trkpt lat="42.98943076230925" lon="10.49808267661864"><ele>29.333333333333336</ele><time>2026-04-19T12:23:14Z</time></trkpt><trkpt lat="42.98935369356946" lon="10.49787443945346"><ele>31.666666666666668</ele><time>2026-04-19T12:23:15Z</time></trkpt><trkpt lat="42.989262012262586" lon="10.497676737784996"><ele>34.0</ele><time>2026-04-19T12:23:16Z</time></trkpt><trkpt lat="42.98914403645233" lon="10.49749091746124"><ele>34.0</ele><time>2026-04-19T12:23:17Z</time></trkpt><trkpt lat="42.989021931922636" lon="10.49732600012509"><ele>34.0</ele><time>2026-04-19T12:23:18Z</time></trkpt><trkpt lat="42.98889148151354" lon="10.497176060709773"><ele>34.0</ele><time>2026-04-19T12:23:19Z</time></trkpt><trkpt lat="42.98873677171377" lon="10.49706693706965"><ele>37.25</ele><time>2026-04-19T12:23:20Z</time></trkpt><trkpt lat="42.98858584674218" lon="10.496969021267743"><ele>40.5</ele><time>2026-04-19T12:23:21Z</time></trkpt><trkpt lat="42.988462939913134" lon="10.496857702276184"><ele>43.75</ele><time>2026-04-19T12:23:22Z</time></trkpt><trkpt lat="42.9883697825125" lon="10.496741236084898"><ele>47.0</ele><time>2026-04-19T12:23:23Z</time></trkpt><trkpt lat="42.98829727008494" lon="10.496584830130194"><ele>47.0</ele><time>2026-04-19T12:23:24Z</time></trkpt><trkpt lat="42.98822612657398" lon="10.496401093560255"><ele>47.0</ele><time>2026-04-19T12:23:25Z</time></trkpt><trkpt lat="42.98816837598641" lon="10.49621316176679"><ele>47.0</ele><time>2026-04-19T12:23:26Z</time></trkpt><trkpt lat="42.98812986876995" lon="10.49599508994753"><ele>49.0</ele><time>2026-04-19T12:23:27Z</time></trkpt><trkpt lat="42.98802858621122" lon="10.495834369899022"><ele>51.0</ele><time>2026-04-19T12:23:28Z</time></trkpt><trkpt lat="42.98791400129368" lon="10.495673799126328"><ele>53.0</ele><time>2026-04-19T12:23:29Z</time></trkpt><trkpt lat="42.98778859829889" lon="10.495532884169107"><ele>53.0</ele><time>2026-04-19T12:23:30Z</time></trkpt><trkpt lat="42.98766471563931" lon="10.495426529001774"><ele>53.0</ele><time>2026-04-19T12:23:31Z</time></trkpt><trkpt lat="42.98755135276987" lon="10.49534126790351"><ele>53.0</ele><time>2026-04-19T12:23:32Z</time></trkpt><trkpt lat="42.98744923866548" lon="10.495264774511407"><ele>53.0</ele><time>2026-04-19T12:23:33Z</time></trkpt><trkpt lat="42.987369310793675" lon="10.495191456021871"><ele>56.25</ele><time>2026-04-19T12:23:34Z</time></trkpt><trkpt lat="42.987291037183404" lon="10.495107298336842"><ele>59.5</ele><time>2026-04-19T12:23:35Z</time></trkpt><trkpt lat="42.9871963848614" lon="10.494997318635836"><ele>62.75</ele><time>2026-04-19T12:23:36Z</time></trkpt><trkpt lat="42.987081169803126" lon="10.494866844583305"><ele>66.0</ele><time>2026-04-19T12:23:37Z</time></trkpt><trkpt lat="42.98696240979818" lon="10.494734464965193"><ele>66.0</ele><time>2026-04-19T12:23:38Z</time></trkpt><trkpt lat="42.98683380901238" lon="10.494603771239044"><ele>66.0</ele><time>2026-04-19T12:23:39Z</time></trkpt><trkpt lat="42.98670818469706" lon="10.494495400144665"><ele>66.0</ele><time>2026-04-19T12:23:40Z</time></trkpt><trkpt lat="42.98658701993713" lon="10.494419094387501"><ele>66.0</ele><time>2026-04-19T12:23:41Z</time></trkpt><trkpt lat="42.986444823965336" lon="10.494294609142386"><ele>70.5</ele><time>2026-04-19T12:23:42Z</time></trkpt><trkpt lat="42.9863134311881" lon="10.49419862283736"><ele>75.0</ele><time>2026-04-19T12:23:43Z</time></trkpt><trkpt lat="42.9862051052404" lon="10.494102144059084"><ele>79.5</ele><time>2026-04-19T12:23:44Z</time></trkpt><trkpt lat="42.9861169217412" lon="10.49399887648166"><ele>84.0</ele><time>2026-04-19T12:23:45Z</time></trkpt><trkpt lat="42.98604151525795" lon="10.493931122323536"><ele>84.0</ele><time>2026-04-19T12:23:46Z</time></trkpt><trkpt lat="42.98597997263252" lon="10.493884265370054"><ele>84.0</ele><time>2026-04-19T12:23:47Z</time></trkpt><trkpt lat="42.98590653326528" lon="10.493916515782796"><ele>84.0</ele><time>2026-04-19T12:23:48Z</time></trkpt><trkpt lat="42.98586564267661" lon="10.494000913218393"><ele>84.0</ele><time>2026-04-19T12:23:49Z</time></trkpt><trkpt lat="42.98589677863748" lon="10.49413445895014"><ele>84.0</ele><time>2026-04-19T12:23:50Z</time></trkpt><trkpt lat="42.985960110862" lon="10.494256435776638"><ele>84.0</ele><time>2026-04-19T12:23:51Z</time></trkpt><trkpt lat="42.98599721351793" lon="10.494426578352726"><ele>84.0</ele><time>2026-04-19T12:23:52Z</time></trkpt><trkpt lat="42.98604708462493" lon="10.494542211468259"><ele>84.0</ele><time>2026-04-19T12:23:53Z</time></trkpt><trkpt lat="42.98608359587269" lon="10.494709842080502"><ele>84.0</ele><time>2026-04-19T12:23:54Z</time></trkpt><trkpt lat="42.986167358714894" lon="10.494887964743247"><ele>84.0</ele><time>2026-04-19T12:23:55Z</time></trkpt><trkpt lat="42.98625184856588" lon="10.495060158820833"><ele>83.75</ele><time>2026-04-19T12:23:56Z</time></trkpt><trkpt lat="42.986321795553216" lon="10.495245858860189"><ele>83.5</ele><time>2026-04-19T12:23:57Z</time></trkpt><trkpt lat="42.986383846248486" lon="10.49542946228636"><ele>83.25</ele><time>2026-04-19T12:23:58Z</time></trkpt><trkpt lat="42.986431578091185" lon="10.495621151688447"><ele>83.0</ele><time>2026-04-19T12:23:59Z</time></trkpt><trkpt lat="42.98644209090637" lon="10.495803868031198"><ele>85.5</ele><time>2026-04-19T12:24:00Z</time></trkpt><trkpt lat="42.98645857663188" lon="10.495974923414213"><ele>88.0</ele><time>2026-04-19T12:24:01Z</time></trkpt><trkpt lat="42.98648399196381" lon="10.496123876449834"><ele>90.5</ele><time>2026-04-19T12:24:02Z</time></trkpt><trkpt lat="42.98655764921842" lon="10.49624736959264"><ele>93.0</ele><time>2026-04-19T12:24:03Z</time></trkpt><trkpt lat="42.98663063341839" lon="10.496364701326238"><ele>94.60000000000001</ele><time>2026-04-19T12:24:04Z</time></trkpt><trkpt lat="42.986642048627075" lon="10.496465378817181"><ele>96.2</ele><time>2026-04-19T12:24:05Z</time></trkpt><trkpt lat="42.986623572583994" lon="10.496547684407679"><ele>97.8</ele><time>2026-04-19T12:24:06Z</time></trkpt><trkpt lat="42.98651669579268" lon="10.496576469494155"><ele>99.4</ele><time>2026-04-19T12:24:08Z</time></trkpt><trkpt lat="42.98643164499155" lon="10.496419768796086"><ele>101.0</ele><time>2026-04-19T12:24:10Z</time></trkpt><trkpt lat="42.98632743378693" lon="10.496290012495683"><ele>99.0</ele><time>2026-04-19T12:24:11Z</time></trkpt><trkpt lat="42.98626372138179" lon="10.496182625855088"><ele>97.0</ele><time>2026-04-19T12:24:12Z</time></trkpt><trkpt lat="42.986212868305095" lon="10.496059634120362"><ele>95.0</ele><time>2026-04-19T12:24:13Z</time></trkpt><trkpt lat="42.98615527834054" lon="10.495912098168406"><ele>93.0</ele><time>2026-04-19T12:24:14Z</time></trkpt><trkpt lat="42.986097205199805" lon="10.4957449112889"><ele>93.0</ele><time>2026-04-19T12:24:15Z</time></trkpt><trkpt lat="42.986000789256686" lon="10.495607084553644"><ele>93.0</ele><time>2026-04-19T12:24:16Z</time></trkpt><trkpt lat="42.98586836244685" lon="10.495456009760465"><ele>93.0</ele><time>2026-04-19T12:24:17Z</time></trkpt><trkpt lat="42.986028155748585" lon="10.495584602226229"><ele>93.0</ele><time>2026-04-19T12:24:18Z</time></trkpt><trkpt lat="42.98593796473684" lon="10.495477804469576"><ele>93.0</ele><time>2026-04-19T12:24:19Z</time></trkpt><trkpt lat="42.98582713511018" lon="10.495378991175496"><ele>93.0</ele><time>2026-04-19T12:24:20Z</time></trkpt><trkpt lat="42.985694455830256" lon="10.495250967451334"><ele>93.0</ele><time>2026-04-19T12:24:21Z</time></trkpt><trkpt lat="42.98558358205264" lon="10.495077710072081"><ele>94.5</ele><time>2026-04-19T12:24:22Z</time></trkpt><trkpt lat="42.98549231124851" lon="10.494933733724004"><ele>96.0</ele><time>2026-04-19T12:24:23Z</time></trkpt><trkpt lat="42.98538507842608" lon="10.494801837177011"><ele>97.5</ele><time>2026-04-19T12:24:24Z</time></trkpt><trkpt lat="42.98527252529385" lon="10.494669482266362"><ele>99.0</ele><time>2026-04-19T12:24:25Z</time></trkpt><trkpt lat="42.98516058994531" lon="10.494543340273372"><ele>99.0</ele><time>2026-04-19T12:24:26Z</time></trkpt><trkpt lat="42.9850589242117" lon="10.494417897373275"><ele>99.0</ele><time>2026-04-19T12:24:27Z</time></trkpt><trkpt lat="42.98497166527958" lon="10.494267621836062"><ele>99.0</ele><time>2026-04-19T12:24:28Z</time></trkpt><trkpt lat="42.984883803854714" lon="10.494127553321189"><ele>99.0</ele><time>2026-04-19T12:24:29Z</time></trkpt><trkpt lat="42.98478854594112" lon="10.494021581504423"><ele>103.25</ele><time>2026-04-19T12:24:30Z</time></trkpt><trkpt lat="42.984678687245825" lon="10.493913277631048"><ele>107.5</ele><time>2026-04-19T12:24:31Z</time></trkpt><trkpt lat="42.98455549264571" lon="10.493822173075316"><ele>111.75</ele><time>2026-04-19T12:24:32Z</time></trkpt><trkpt lat="42.98443395977242" lon="10.49375947082174"><ele>116.0</ele><time>2026-04-19T12:24:33Z</time></trkpt><trkpt lat="42.98418326669379" lon="10.493658569735176"><ele>120.5</ele><time>2026-04-19T12:24:34Z</time></trkpt><trkpt lat="42.984075878740896" lon="10.493646332576901"><ele>125.0</ele><time>2026-04-19T12:24:35Z</time></trkpt><trkpt lat="42.983954484321345" lon="10.493583765779446"><ele>129.5</ele><time>2026-04-19T12:24:37Z</time></trkpt><trkpt lat="42.9839142423257" lon="10.493436036385809"><ele>134.0</ele><time>2026-04-19T12:24:38Z</time></trkpt><trkpt lat="42.98390981904162" lon="10.493249079486608"><ele>134.0</ele><time>2026-04-19T12:24:39Z</time></trkpt><trkpt lat="42.98394438944737" lon="10.49303329197742"><ele>134.0</ele><time>2026-04-19T12:24:40Z</time></trkpt><trkpt lat="42.983963712577534" lon="10.492938210758085"><ele>134.0</ele><time>2026-04-19T12:24:41Z</time></trkpt><trkpt lat="42.98399386674935" lon="10.49283070251137"><ele>134.0</ele><time>2026-04-19T12:24:43Z</time></trkpt><trkpt lat="42.984000884685685" lon="10.492740923316182"><ele>134.0</ele><time>2026-04-19T12:24:45Z</time></trkpt><trkpt lat="42.98396971651312" lon="10.492597686075705"><ele>133.2</ele><time>2026-04-19T12:24:47Z</time></trkpt><trkpt lat="42.983884242982725" lon="10.492546704112709"><ele>132.4</ele><time>2026-04-19T12:24:49Z</time></trkpt><trkpt lat="42.9837926878958" lon="10.492493823802604"><ele>131.6</ele><time>2026-04-19T12:24:51Z</time></trkpt><trkpt lat="42.98365620018572" lon="10.492430464591946"><ele>130.8</ele><time>2026-04-19T12:24:53Z</time></trkpt><trkpt lat="42.983575536172886" lon="10.492402072146245"><ele>130.0</ele><time>2026-04-19T12:24:54Z</time></trkpt><trkpt lat="42.98350865745007" lon="10.492375490897178"><ele>130.0</ele><time>2026-04-19T12:24:55Z</time></trkpt><trkpt lat="42.98344075758993" lon="10.492343565550733"><ele>130.0</ele><time>2026-04-19T12:24:56Z</time></trkpt><trkpt lat="42.98331603252875" lon="10.49225392864884"><ele>130.0</ele><time>2026-04-19T12:24:58Z</time></trkpt><trkpt lat="42.98323183406801" lon="10.49222945745526"><ele>130.0</ele><time>2026-04-19T12:24:59Z</time></trkpt><trkpt lat="42.98316088791239" lon="10.49220127402823"><ele>130.0</ele><time>2026-04-19T12:25:00Z</time></trkpt><trkpt lat="42.98308765161778" lon="10.49218775598221"><ele>130.0</ele><time>2026-04-19T12:25:01Z</time></trkpt><trkpt lat="42.98301223866841" lon="10.492170243402944"><ele>132.5</ele><time>2026-04-19T12:25:02Z</time></trkpt><trkpt lat="42.98293697555145" lon="10.492154231175437"><ele>135.0</ele><time>2026-04-19T12:25:03Z</time></trkpt><trkpt lat="42.982851049023395" lon="10.492156241168106"><ele>137.5</ele><time>2026-04-19T12:25:04Z</time></trkpt><trkpt lat="42.98275796377457" lon="10.49215049204262"><ele>140.0</ele><time>2026-04-19T12:25:05Z</time></trkpt><trkpt lat="42.98267701677627" lon="10.492146924267773"><ele>142.5</ele><time>2026-04-19T12:25:06Z</time></trkpt><trkpt lat="42.98258439760587" lon="10.49216209906515"><ele>145.0</ele><time>2026-04-19T12:25:07Z</time></trkpt><trkpt lat="42.98248508458412" lon="10.492184598465334"><ele>146.66666666666669</ele><time>2026-04-19T12:25:08Z</time></trkpt><trkpt lat="42.9824067585173" lon="10.492221485968297"><ele>148.33333333333334</ele><time>2026-04-19T12:25:09Z</time></trkpt><trkpt lat="42.9823200796045" lon="10.492233340593193"><ele>150.0</ele><time>2026-04-19T12:25:10Z</time></trkpt><trkpt lat="42.982235990692764" lon="10.492258561412875"><ele>151.66666666666666</ele><time>2026-04-19T12:25:11Z</time></trkpt><trkpt lat="42.982160389147445" lon="10.492279265060464"><ele>153.33333333333331</ele><time>2026-04-19T12:25:12Z</time></trkpt><trkpt lat="42.982082793923034" lon="10.492306069231905"><ele>155.0</ele><time>2026-04-19T12:25:13Z</time></trkpt><trkpt lat="42.98200665707004" lon="10.492332204268012"><ele>155.0</ele><time>2026-04-19T12:25:14Z</time></trkpt><trkpt lat="42.981931031909944" lon="10.492356171951167"><ele>155.0</ele><time>2026-04-19T12:25:15Z</time></trkpt><trkpt lat="42.98186302249916" lon="10.492400771702531"><ele>155.0</ele><time>2026-04-19T12:25:16Z</time></trkpt><trkpt lat="42.9817993835207" lon="10.492469986571718"><ele>155.0</ele><time>2026-04-19T12:25:17Z</time></trkpt><trkpt lat="42.981742052507904" lon="10.49257092084203"><ele>155.0</ele><time>2026-04-19T12:25:18Z</time></trkpt><trkpt lat="42.98169780412359" lon="10.492673211994134"><ele>155.0</ele><time>2026-04-19T12:25:19Z</time></trkpt><trkpt lat="42.98165722125827" lon="10.492747691679895"><ele>154.5</ele><time>2026-04-19T12:25:20Z</time></trkpt><trkpt lat="42.98160625713434" lon="10.492804067726356"><ele>154.0</ele><time>2026-04-19T12:25:21Z</time></trkpt><trkpt lat="42.98154037610184" lon="10.492871301311794"><ele>153.5</ele><time>2026-04-19T12:25:22Z</time></trkpt><trkpt lat="42.98147181634391" lon="10.492935993746643"><ele>153.0</ele><time>2026-04-19T12:25:23Z</time></trkpt><trkpt lat="42.98139811528334" lon="10.493000150091861"><ele>152.5</ele><time>2026-04-19T12:25:24Z</time></trkpt><trkpt lat="42.98132558572663" lon="10.493058304394548"><ele>152.0</ele><time>2026-04-19T12:25:25Z</time></trkpt><trkpt lat="42.98125307788655" lon="10.493109523233812"><ele>154.33333333333331</ele><time>2026-04-19T12:25:26Z</time></trkpt><trkpt lat="42.98117875300097" lon="10.493165479073593"><ele>156.66666666666666</ele><time>2026-04-19T12:25:27Z</time></trkpt><trkpt lat="42.98110556612017" lon="10.493225484637165"><ele>159.0</ele><time>2026-04-19T12:25:28Z</time></trkpt><trkpt lat="42.98103333864088" lon="10.493296561419536"><ele>161.33333333333334</ele><time>2026-04-19T12:25:29Z</time></trkpt><trkpt lat="42.98097893133013" lon="10.493375294570653"><ele>163.66666666666669</ele><time>2026-04-19T12:25:30Z</time></trkpt><trkpt lat="42.98094007206188" lon="10.493452369920782"><ele>166.0</ele><time>2026-04-19T12:25:31Z</time></trkpt><trkpt lat="42.98090844982759" lon="10.493529057124814"><ele>166.0</ele><time>2026-04-19T12:25:32Z</time></trkpt><trkpt lat="42.98089220808881" lon="10.49364053389554"><ele>166.0</ele><time>2026-04-19T12:25:33Z</time></trkpt><trkpt lat="42.98094344072489" lon="10.493783003827314"><ele>166.0</ele><time>2026-04-19T12:25:34Z</time></trkpt><trkpt lat="42.9809601202885" lon="10.493887511524093"><ele>166.0</ele><time>2026-04-19T12:25:35Z</time></trkpt><trkpt lat="42.98095660680562" lon="10.49398415463247"><ele>166.0</ele><time>2026-04-19T12:25:36Z</time></trkpt><trkpt lat="42.980931457723145" lon="10.494074016993542"><ele>166.0</ele><time>2026-04-19T12:25:37Z</time></trkpt><trkpt lat="42.980929315719614" lon="10.494166600418732"><ele>167.4</ele><time>2026-04-19T12:25:38Z</time></trkpt><trkpt lat="42.98095446499186" lon="10.494286852949854"><ele>168.8</ele><time>2026-04-19T12:25:39Z</time></trkpt><trkpt lat="42.98099510509816" lon="10.494403252827842"><ele>170.20000000000002</ele><time>2026-04-19T12:25:40Z</time></trkpt><trkpt lat="42.981042760805025" lon="10.49450219080188"><ele>171.60000000000002</ele><time>2026-04-19T12:25:41Z</time></trkpt><trkpt lat="42.98108109270023" lon="10.494601932409175"><ele>173.0</ele><time>2026-04-19T12:25:42Z</time></trkpt><trkpt lat="42.981091595081985" lon="10.494746271570161"><ele>173.0</ele><time>2026-04-19T12:25:44Z</time></trkpt><trkpt lat="42.98105891335727" lon="10.494850195071056"><ele>173.0</ele><time>2026-04-19T12:25:46Z</time></trkpt><trkpt lat="42.980890771348726" lon="10.494884533018528"><ele>173.0</ele><time>2026-04-19T12:25:48Z</time></trkpt><trkpt lat="42.980817640868395" lon="10.494900250779423"><ele>173.0</ele><time>2026-04-19T12:25:49Z</time></trkpt><trkpt lat="42.98070852966875" lon="10.494976339196981"><ele>173.0</ele><time>2026-04-19T12:25:51Z</time></trkpt><trkpt lat="42.9806598353069" lon="10.495051738637082"><ele>172.7142857142857</ele><time>2026-04-19T12:25:52Z</time></trkpt><trkpt lat="42.98062210136048" lon="10.49515650275848"><ele>172.42857142857144</ele><time>2026-04-19T12:25:53Z</time></trkpt><trkpt lat="42.98060151380044" lon="10.495259822389087"><ele>172.14285714285714</ele><time>2026-04-19T12:25:54Z</time></trkpt><trkpt lat="42.98058051222733" lon="10.49535090756959"><ele>171.85714285714283</ele><time>2026-04-19T12:25:55Z</time></trkpt><trkpt lat="42.980559633555536" lon="10.495441459726901"><ele>171.57142857142856</ele><time>2026-04-19T12:25:56Z</time></trkpt><trkpt lat="42.980539034544854" lon="10.495540007877176"><ele>171.28571428571428</ele><time>2026-04-19T12:25:57Z</time></trkpt><trkpt lat="42.98051737217259" lon="10.49562633410774"><ele>171.0</ele><time>2026-04-19T12:25:58Z</time></trkpt><trkpt lat="42.980450829174735" lon="10.49574618862281"><ele>171.0</ele><time>2026-04-19T12:26:00Z</time></trkpt><trkpt lat="42.98037321562189" lon="10.49587762413783"><ele>171.0</ele><time>2026-04-19T12:26:02Z</time></trkpt><trkpt lat="42.98034586430805" lon="10.495978033217494"><ele>171.0</ele><time>2026-04-19T12:26:03Z</time></trkpt><trkpt lat="42.980322814351425" lon="10.49607167741697"><ele>171.0</ele><time>2026-04-19T12:26:04Z</time></trkpt><trkpt lat="42.9802995260701" lon="10.49616497788708"><ele>171.0</ele><time>2026-04-19T12:26:05Z</time></trkpt><trkpt lat="42.980267265075625" lon="10.496242481952265"><ele>171.0</ele><time>2026-04-19T12:26:06Z</time></trkpt><trkpt lat="42.980175297885" lon="10.496341063090966"><ele>171.0</ele><time>2026-04-19T12:26:08Z</time></trkpt><trkpt lat="42.980056556798516" lon="10.496353034978187"><ele>171.0</ele><time>2026-04-19T12:26:10Z</time></trkpt><trkpt lat="42.979988546342994" lon="10.49633876516034"><ele>171.0</ele><time>2026-04-19T12:26:11Z</time></trkpt><trkpt lat="42.97991738224154" lon="10.496359377292412"><ele>171.0</ele><time>2026-04-19T12:26:12Z</time></trkpt><trkpt lat="42.979850542693626" lon="10.496394824079559"><ele>171.0</ele><time>2026-04-19T12:26:13Z</time></trkpt><trkpt lat="42.9797827931497" lon="10.496397283110582"><ele>171.0</ele><time>2026-04-19T12:26:14Z</time></trkpt><trkpt lat="42.97972680385364" lon="10.496444758055633"><ele>171.0</ele><time>2026-04-19T12:26:15Z</time></trkpt><trkpt lat="42.97967324700554" lon="10.496546487810601"><ele>171.0</ele><time>2026-04-19T12:26:16Z</time></trkpt><trkpt lat="42.97963229319577" lon="10.496644855333543"><ele>171.0</ele><time>2026-04-19T12:26:17Z</time></trkpt><trkpt lat="42.97960185938164" lon="10.496723701041967"><ele>171.0</ele><time>2026-04-19T12:26:18Z</time></trkpt><trkpt lat="42.97956936672826" lon="10.496813399155762"><ele>171.0</ele><time>2026-04-19T12:26:19Z</time></trkpt><trkpt lat="42.979538089281036" lon="10.496900769569915"><ele>171.0</ele><time>2026-04-19T12:26:20Z</time></trkpt><trkpt lat="42.979509703221126" lon="10.49698640965329"><ele>170.99999999999997</ele><time>2026-04-19T12:26:21Z</time></trkpt><trkpt lat="42.979483031408435" lon="10.497066877918709"><ele>171.0</ele><time>2026-04-19T12:26:22Z</time></trkpt><trkpt lat="42.97943404489007" lon="10.497214669875135"><ele>171.0</ele><time>2026-04-19T12:26:24Z</time></trkpt><trkpt lat="42.97940665757474" lon="10.497295553613343"><ele>171.0</ele><time>2026-04-19T12:26:25Z</time></trkpt><trkpt lat="42.979376953501365" lon="10.497378668445714"><ele>171.0</ele><time>2026-04-19T12:26:26Z</time></trkpt><trkpt lat="42.97934884596596" lon="10.497457316007493"><ele>170.99999999999997</ele><time>2026-04-19T12:26:27Z</time></trkpt><trkpt lat="42.979320754626244" lon="10.497535918246358"><ele>171.0</ele><time>2026-04-19T12:26:28Z</time></trkpt><trkpt lat="42.97929023648169" lon="10.497632142572018"><ele>171.7142857142857</ele><time>2026-04-19T12:26:29Z</time></trkpt><trkpt lat="42.97926063258908" lon="10.497734895642884"><ele>172.42857142857142</ele><time>2026-04-19T12:26:30Z</time></trkpt><trkpt lat="42.97923009153741" lon="10.497824322590716"><ele>173.14285714285714</ele><time>2026-04-19T12:26:31Z</time></trkpt><trkpt lat="42.97919076864415" lon="10.497902857466546"><ele>173.85714285714283</ele><time>2026-04-19T12:26:32Z</time></trkpt><trkpt lat="42.97913339675015" lon="10.497968124265107"><ele>174.57142857142856</ele><time>2026-04-19T12:26:33Z</time></trkpt><trkpt lat="42.97907799765212" lon="10.498027663494378"><ele>175.28571428571428</ele><time>2026-04-19T12:26:34Z</time></trkpt><trkpt lat="42.97902012902146" lon="10.49809047727393"><ele>176.0</ele><time>2026-04-19T12:26:35Z</time></trkpt><trkpt lat="42.978964738333374" lon="10.498169660632284"><ele>176.0</ele><time>2026-04-19T12:26:36Z</time></trkpt><trkpt lat="42.97891781860854" lon="10.49826069201191"><ele>176.0</ele><time>2026-04-19T12:26:37Z</time></trkpt><trkpt lat="42.978886957109346" lon="10.498358654706482"><ele>176.0</ele><time>2026-04-19T12:26:38Z</time></trkpt><trkpt lat="42.97885989548538" lon="10.49845309510711"><ele>176.0</ele><time>2026-04-19T12:26:39Z</time></trkpt><trkpt lat="42.9788359266807" lon="10.498557192829841"><ele>176.0</ele><time>2026-04-19T12:26:40Z</time></trkpt><trkpt lat="42.97881331601566" lon="10.498662915745268"><ele>176.0</ele><time>2026-04-19T12:26:41Z</time></trkpt><trkpt lat="42.97879111286354" lon="10.4987667332195"><ele>176.71428571428572</ele><time>2026-04-19T12:26:42Z</time></trkpt><trkpt lat="42.97876812106868" lon="10.498863125939902"><ele>177.42857142857142</ele><time>2026-04-19T12:26:43Z</time></trkpt><trkpt lat="42.97873879099898" lon="10.498948525940285"><ele>178.14285714285714</ele><time>2026-04-19T12:26:44Z</time></trkpt><trkpt lat="42.97870048729222" lon="10.4990312250758"><ele>178.85714285714286</ele><time>2026-04-19T12:26:45Z</time></trkpt><trkpt lat="42.97865708395959" lon="10.499106339754798"><ele>179.57142857142856</ele><time>2026-04-19T12:26:46Z</time></trkpt><trkpt lat="42.9786100904556" lon="10.499180918914556"><ele>180.28571428571428</ele><time>2026-04-19T12:26:47Z</time></trkpt><trkpt lat="42.978558659808584" lon="10.499261364318432"><ele>181.0</ele><time>2026-04-19T12:26:48Z</time></trkpt><trkpt lat="42.978509022979964" lon="10.499347591077168"><ele>181.0</ele><time>2026-04-19T12:26:49Z</time></trkpt><trkpt lat="42.97846328036205" lon="10.499434588777508"><ele>181.0</ele><time>2026-04-19T12:26:50Z</time></trkpt><trkpt lat="42.97842786806657" lon="10.499542545875048"><ele>181.0</ele><time>2026-04-19T12:26:51Z</time></trkpt><trkpt lat="42.97839680476963" lon="10.499646484898618"><ele>181.0</ele><time>2026-04-19T12:26:52Z</time></trkpt><trkpt lat="42.97836694024336" lon="10.499741604865322"><ele>181.0</ele><time>2026-04-19T12:26:53Z</time></trkpt><trkpt lat="42.97833409889298" lon="10.499830514305406"><ele>181.0</ele><time>2026-04-19T12:26:54Z</time></trkpt><trkpt lat="42.978247184096986" lon="10.499955888712284"><ele>180.14285714285714</ele><time>2026-04-19T12:26:56Z</time></trkpt><trkpt lat="42.9781946451524" lon="10.500008671337286"><ele>179.28571428571428</ele><time>2026-04-19T12:26:57Z</time></trkpt><trkpt lat="42.97813145182064" lon="10.500061483801748"><ele>178.42857142857144</ele><time>2026-04-19T12:26:58Z</time></trkpt><trkpt lat="42.97807918875191" lon="10.500116726341961"><ele>177.57142857142856</ele><time>2026-04-19T12:26:59Z</time></trkpt><trkpt lat="42.978018819359754" lon="10.500169769453265"><ele>176.71428571428572</ele><time>2026-04-19T12:27:00Z</time></trkpt><trkpt lat="42.97796082901638" lon="10.500211110408557"><ele>175.85714285714286</ele><time>2026-04-19T12:27:01Z</time></trkpt><trkpt lat="42.977895309986" lon="10.50025052528512"><ele>175.0</ele><time>2026-04-19T12:27:02Z</time></trkpt><trkpt lat="42.97782660357334" lon="10.50027224754834"><ele>175.0</ele><time>2026-04-19T12:27:03Z</time></trkpt><trkpt lat="42.977751325015895" lon="10.500267647879916"><ele>175.0</ele><time>2026-04-19T12:27:04Z</time></trkpt><trkpt lat="42.977674446966844" lon="10.500248567235904"><ele>175.0</ele><time>2026-04-19T12:27:05Z</time></trkpt><trkpt lat="42.977589112215355" lon="10.500226655019885"><ele>175.0</ele><time>2026-04-19T12:27:06Z</time></trkpt><trkpt lat="42.977501895903615" lon="10.500235792599957"><ele>175.0</ele><time>2026-04-19T12:27:07Z</time></trkpt><trkpt lat="42.97740583436868" lon="10.500218806979884"><ele>175.0</ele><time>2026-04-19T12:27:08Z</time></trkpt><trkpt lat="42.9773167998454" lon="10.500241339859473"><ele>175.14285714285714</ele><time>2026-04-19T12:27:09Z</time></trkpt><trkpt lat="42.977237706529245" lon="10.500267154640964"><ele>175.28571428571428</ele><time>2026-04-19T12:27:10Z</time></trkpt><trkpt lat="42.977174646128155" lon="10.500289588985833"><ele>175.42857142857144</ele><time>2026-04-19T12:27:11Z</time></trkpt><trkpt lat="42.97710174339371" lon="10.500311005081477"><ele>175.57142857142856</ele><time>2026-04-19T12:27:12Z</time></trkpt><trkpt lat="42.97702449750045" lon="10.500322000351371"><ele>175.71428571428572</ele><time>2026-04-19T12:27:13Z</time></trkpt><trkpt lat="42.97694985130579" lon="10.500328100295098"><ele>175.85714285714286</ele><time>2026-04-19T12:27:14Z</time></trkpt><trkpt lat="42.976876268697616" lon="10.500327802536212"><ele>176.0</ele><time>2026-04-19T12:27:15Z</time></trkpt><trkpt lat="42.976802891103894" lon="10.50033913371887"><ele>176.0</ele><time>2026-04-19T12:27:16Z</time></trkpt><trkpt lat="42.976722759158534" lon="10.500343455184712"><ele>176.0</ele><time>2026-04-19T12:27:17Z</time></trkpt><trkpt lat="42.97664588884734" lon="10.500327869393201"><ele>176.0</ele><time>2026-04-19T12:27:18Z</time></trkpt><trkpt lat="42.97656820319472" lon="10.500345511674974"><ele>176.0</ele><time>2026-04-19T12:27:19Z</time></trkpt><trkpt lat="42.976499176364015" lon="10.500363877874495"><ele>176.0</ele><time>2026-04-19T12:27:20Z</time></trkpt><trkpt lat="42.976432077677" lon="10.500394751472239"><ele>176.0</ele><time>2026-04-19T12:27:21Z</time></trkpt><trkpt lat="42.976389782061744" lon="10.500491735800937"><ele>177.83333333333331</ele><time>2026-04-19T12:27:22Z</time></trkpt><trkpt lat="42.976354575089246" lon="10.500569146846567"><ele>179.66666666666666</ele><time>2026-04-19T12:27:23Z</time></trkpt><trkpt lat="42.97630356541481" lon="10.50064137698571"><ele>181.5</ele><time>2026-04-19T12:27:24Z</time></trkpt><trkpt lat="42.97626472898777" lon="10.500725847600114"><ele>183.33333333333334</ele><time>2026-04-19T12:27:25Z</time></trkpt><trkpt lat="42.97622862477303" lon="10.500804375742092"><ele>185.16666666666669</ele><time>2026-04-19T12:27:26Z</time></trkpt><trkpt lat="42.97613979643037" lon="10.50091405188188"><ele>187.0</ele><time>2026-04-19T12:27:28Z</time></trkpt><trkpt lat="42.976019815414816" lon="10.500969499843547"><ele>187.0</ele><time>2026-04-19T12:27:30Z</time></trkpt><trkpt lat="42.975939814829445" lon="10.500981509632984"><ele>187.0</ele><time>2026-04-19T12:27:31Z</time></trkpt><trkpt lat="42.97587210635145" lon="10.500949815454533"><ele>187.0</ele><time>2026-04-19T12:27:32Z</time></trkpt><trkpt lat="42.975807997426614" lon="10.500915858717544"><ele>187.0</ele><time>2026-04-19T12:27:33Z</time></trkpt><trkpt lat="42.97573651420291" lon="10.500896074908876"><ele>187.0</ele><time>2026-04-19T12:27:34Z</time></trkpt><trkpt lat="42.97565804143582" lon="10.50091067497217"><ele>187.0</ele><time>2026-04-19T12:27:35Z</time></trkpt><trkpt lat="42.97557973370552" lon="10.50093438120194"><ele>185.83333333333334</ele><time>2026-04-19T12:27:36Z</time></trkpt><trkpt lat="42.97550845739152" lon="10.500996486941512"><ele>184.66666666666669</ele><time>2026-04-19T12:27:37Z</time></trkpt><trkpt lat="42.975451192687835" lon="10.501080239612614"><ele>183.5</ele><time>2026-04-19T12:27:38Z</time></trkpt><trkpt lat="42.975399740273424" lon="10.501144829005181"><ele>182.33333333333334</ele><time>2026-04-19T12:27:39Z</time></trkpt><trkpt lat="42.97534598173319" lon="10.501196196683173"><ele>181.16666666666666</ele><time>2026-04-19T12:27:40Z</time></trkpt><trkpt lat="42.975252243067665" lon="10.501257957432268"><ele>180.0</ele><time>2026-04-19T12:27:42Z</time></trkpt><trkpt lat="42.97514359652158" lon="10.50120178493608"><ele>180.0</ele><time>2026-04-19T12:27:44Z</time></trkpt><trkpt lat="42.975095157222526" lon="10.501146569495933"><ele>180.0</ele><time>2026-04-19T12:27:45Z</time></trkpt><trkpt lat="42.97499403574238" lon="10.501031520147514"><ele>180.0</ele><time>2026-04-19T12:27:47Z</time></trkpt><trkpt lat="42.97493047409969" lon="10.500980635972564"><ele>180.0</ele><time>2026-04-19T12:27:48Z</time></trkpt><trkpt lat="42.974865427176816" lon="10.500922931476987"><ele>180.0</ele><time>2026-04-19T12:27:49Z</time></trkpt><trkpt lat="42.97480792900267" lon="10.500857286189293"><ele>180.0</ele><time>2026-04-19T12:27:50Z</time></trkpt><trkpt lat="42.97475488077913" lon="10.500798644000636"><ele>180.5</ele><time>2026-04-19T12:27:51Z</time></trkpt><trkpt lat="42.974639254589114" lon="10.500766538342212"><ele>181.0</ele><time>2026-04-19T12:27:53Z</time></trkpt><trkpt lat="42.974565107629296" lon="10.500750222048739"><ele>181.5</ele><time>2026-04-19T12:27:54Z</time></trkpt><trkpt lat="42.97448100175133" lon="10.500763943926675"><ele>182.0</ele><time>2026-04-19T12:27:55Z</time></trkpt><trkpt lat="42.974409816199106" lon="10.500799473447993"><ele>182.5</ele><time>2026-04-19T12:27:56Z</time></trkpt><trkpt lat="42.974343108072844" lon="10.500845232247089"><ele>183.0</ele><time>2026-04-19T12:27:57Z</time></trkpt><trkpt lat="42.974279559579195" lon="10.50091241601454"><ele>183.0</ele><time>2026-04-19T12:27:58Z</time></trkpt><trkpt lat="42.97420865413482" lon="10.500985022131218"><ele>183.0</ele><time>2026-04-19T12:27:59Z</time></trkpt><trkpt lat="42.97413939453801" lon="10.501057141627177"><ele>183.0</ele><time>2026-04-19T12:28:00Z</time></trkpt><trkpt lat="42.97408330673897" lon="10.501115545460662"><ele>183.0</ele><time>2026-04-19T12:28:01Z</time></trkpt><trkpt lat="42.9740299859588" lon="10.501172743799184"><ele>183.0</ele><time>2026-04-19T12:28:02Z</time></trkpt><trkpt lat="42.973917426848296" lon="10.501269784890543"><ele>183.0</ele><time>2026-04-19T12:28:04Z</time></trkpt><trkpt lat="42.97385799673226" lon="10.501302075697346"><ele>185.16666666666666</ele><time>2026-04-19T12:28:05Z</time></trkpt><trkpt lat="42.97376387823802" lon="10.5012774571475"><ele>187.33333333333331</ele><time>2026-04-19T12:28:07Z</time></trkpt><trkpt lat="42.97371582652614" lon="10.501198971405083"><ele>189.5</ele><time>2026-04-19T12:28:08Z</time></trkpt><trkpt lat="42.973667074490784" lon="10.501127867816978"><ele>191.66666666666666</ele><time>2026-04-19T12:28:09Z</time></trkpt><trkpt lat="42.97362886428226" lon="10.50104066957648"><ele>193.83333333333331</ele><time>2026-04-19T12:28:10Z</time></trkpt><trkpt lat="42.973599149453115" lon="10.500960529564528"><ele>196.0</ele><time>2026-04-19T12:28:11Z</time></trkpt><trkpt lat="42.97351915719787" lon="10.500833113822436"><ele>195.99999999999997</ele><time>2026-04-19T12:28:13Z</time></trkpt><trkpt lat="42.973462868193245" lon="10.500765332720475"><ele>196.0</ele><time>2026-04-19T12:28:14Z</time></trkpt><trkpt lat="42.973384632420384" lon="10.500710700325746"><ele>196.0</ele><time>2026-04-19T12:28:15Z</time></trkpt><trkpt lat="42.97333124569288" lon="10.500621648524177"><ele>196.0</ele><time>2026-04-19T12:28:16Z</time></trkpt><trkpt lat="42.97327747829248" lon="10.500553348042844"><ele>195.99999999999997</ele><time>2026-04-19T12:28:17Z</time></trkpt><trkpt lat="42.97324786184284" lon="10.500461652186548"><ele>196.0</ele><time>2026-04-19T12:28:18Z</time></trkpt><trkpt lat="42.97322442374004" lon="10.500373957304552"><ele>197.66666666666666</ele><time>2026-04-19T12:28:19Z</time></trkpt><trkpt lat="42.97319768952028" lon="10.500260581412613"><ele>199.33333333333331</ele><time>2026-04-19T12:28:20Z</time></trkpt><trkpt lat="42.973166314988475" lon="10.500144844728187"><ele>201.0</ele><time>2026-04-19T12:28:21Z</time></trkpt><trkpt lat="42.97313529117825" lon="10.500053633843272"><ele>202.66666666666669</ele><time>2026-04-19T12:28:22Z</time></trkpt><trkpt lat="42.9730897994636" lon="10.499960259073951"><ele>204.33333333333334</ele><time>2026-04-19T12:28:23Z</time></trkpt><trkpt lat="42.97302759659298" lon="10.499895485643757"><ele>206.0</ele><time>2026-04-19T12:28:24Z</time></trkpt><trkpt lat="42.97294308052695" lon="10.499866634815993"><ele>206.00000000000003</ele><time>2026-04-19T12:28:25Z</time></trkpt><trkpt lat="42.97287190407395" lon="10.499849789683047"><ele>206.0</ele><time>2026-04-19T12:28:26Z</time></trkpt><trkpt lat="42.972778806985666" lon="10.499838609950837"><ele>206.0</ele><time>2026-04-19T12:28:27Z</time></trkpt><trkpt lat="42.97270370829233" lon="10.499833941123033"><ele>206.0</ele><time>2026-04-19T12:28:28Z</time></trkpt><trkpt lat="42.97261258639305" lon="10.499830677542716"><ele>206.00000000000003</ele><time>2026-04-19T12:28:29Z</time></trkpt><trkpt lat="42.97253989328586" lon="10.499832060299568"><ele>206.0</ele><time>2026-04-19T12:28:30Z</time></trkpt><trkpt lat="42.97244699999049" lon="10.499866030754909"><ele>209.33333333333334</ele><time>2026-04-19T12:28:31Z</time></trkpt><trkpt lat="42.97236899787433" lon="10.499885962020059"><ele>212.66666666666669</ele><time>2026-04-19T12:28:32Z</time></trkpt><trkpt lat="42.97229532778796" lon="10.49990478535578"><ele>216.0</ele><time>2026-04-19T12:28:33Z</time></trkpt><trkpt lat="42.972205068339875" lon="10.499942438781266"><ele>219.33333333333331</ele><time>2026-04-19T12:28:34Z</time></trkpt><trkpt lat="42.97212814864718" lon="10.499974459929284"><ele>222.66666666666666</ele><time>2026-04-19T12:28:35Z</time></trkpt><trkpt lat="42.972049523303646" lon="10.500006697667292"><ele>226.0</ele><time>2026-04-19T12:28:36Z</time></trkpt><trkpt lat="42.971968919373055" lon="10.500035508232495"><ele>225.99999999999997</ele><time>2026-04-19T12:28:37Z</time></trkpt><trkpt lat="42.971894528642004" lon="10.500056551224771"><ele>226.0</ele><time>2026-04-19T12:28:38Z</time></trkpt><trkpt lat="42.97180695970779" lon="10.500076312289863"><ele>226.0</ele><time>2026-04-19T12:28:39Z</time></trkpt><trkpt lat="42.971719589109064" lon="10.500100542300663"><ele>226.0</ele><time>2026-04-19T12:28:40Z</time></trkpt><trkpt lat="42.97163781125955" lon="10.500130705819053"><ele>225.99999999999997</ele><time>2026-04-19T12:28:41Z</time></trkpt><trkpt lat="42.971562272462435" lon="10.500173988256979"><ele>226.0</ele><time>2026-04-19T12:28:42Z</time></trkpt><trkpt lat="42.97149629080936" lon="10.500210890332443"><ele>226.33333333333331</ele><time>2026-04-19T12:28:43Z</time></trkpt><trkpt lat="42.97142741050974" lon="10.500239295707102"><ele>226.66666666666666</ele><time>2026-04-19T12:28:44Z</time></trkpt><trkpt lat="42.971358301399306" lon="10.500250737148772"><ele>227.0</ele><time>2026-04-19T12:28:45Z</time></trkpt><trkpt lat="42.97128464794277" lon="10.500259822550202"><ele>227.33333333333331</ele><time>2026-04-19T12:28:46Z</time></trkpt><trkpt lat="42.97120225950225" lon="10.500249896765313"><ele>227.66666666666666</ele><time>2026-04-19T12:28:47Z</time></trkpt><trkpt lat="42.971125567763636" lon="10.50024200630681"><ele>228.0</ele><time>2026-04-19T12:28:48Z</time></trkpt><trkpt lat="42.97105036667991" lon="10.500251211160705"><ele>228.0</ele><time>2026-04-19T12:28:49Z</time></trkpt><trkpt lat="42.970964666801564" lon="10.50028480027755"><ele>228.0</ele><time>2026-04-19T12:28:50Z</time></trkpt><trkpt lat="42.9708850571903" lon="10.500312229509905"><ele>228.0</ele><time>2026-04-19T12:28:51Z</time></trkpt><trkpt lat="42.970794440944964" lon="10.500331153973825"><ele>228.0</ele><time>2026-04-19T12:28:52Z</time></trkpt><trkpt lat="42.97070862562637" lon="10.500348733009181"><ele>228.0</ele><time>2026-04-19T12:28:53Z</time></trkpt><trkpt lat="42.970629907123254" lon="10.500364858279118"><ele>228.0</ele><time>2026-04-19T12:28:54Z</time></trkpt><trkpt lat="42.97054032532791" lon="10.500381742125777"><ele>228.8</ele><time>2026-04-19T12:28:55Z</time></trkpt><trkpt lat="42.970471625245935" lon="10.500391088018276"><ele>229.60000000000002</ele><time>2026-04-19T12:28:56Z</time></trkpt><trkpt lat="42.97034721193765" lon="10.500394822198537"><ele>230.39999999999998</ele><time>2026-04-19T12:28:58Z</time></trkpt><trkpt lat="42.970245910609734" lon="10.500332727128448"><ele>231.2</ele><time>2026-04-19T12:29:00Z</time></trkpt><trkpt lat="42.97020559270659" lon="10.500247122537791"><ele>232.0</ele><time>2026-04-19T12:29:01Z</time></trkpt><trkpt lat="42.970168670778314" lon="10.500161837423343"><ele>231.99999999999997</ele><time>2026-04-19T12:29:02Z</time></trkpt><trkpt lat="42.97014280233574" lon="10.500061045727454"><ele>232.0</ele><time>2026-04-19T12:29:03Z</time></trkpt><trkpt lat="42.970119696249256" lon="10.499960667605489"><ele>232.0</ele><time>2026-04-19T12:29:04Z</time></trkpt><trkpt lat="42.97009951854553" lon="10.499839924674461"><ele>232.0</ele><time>2026-04-19T12:29:05Z</time></trkpt><trkpt lat="42.97008587123987" lon="10.499721414315797"><ele>231.99999999999997</ele><time>2026-04-19T12:29:06Z</time></trkpt><trkpt lat="42.97006410953219" lon="10.499611356291949"><ele>232.0</ele><time>2026-04-19T12:29:07Z</time></trkpt><trkpt lat="42.97003142488856" lon="10.499502866931767"><ele>233.33333333333331</ele><time>2026-04-19T12:29:08Z</time></trkpt><trkpt lat="42.96998820089215" lon="10.499398438275778"><ele>234.66666666666666</ele><time>2026-04-19T12:29:09Z</time></trkpt><trkpt lat="42.96996014114364" lon="10.499288524194354"><ele>236.0</ele><time>2026-04-19T12:29:10Z</time></trkpt><trkpt lat="42.96992226779163" lon="10.499189422043795"><ele>237.33333333333331</ele><time>2026-04-19T12:29:11Z</time></trkpt><trkpt lat="42.96988775065386" lon="10.499090564991343"><ele>238.66666666666666</ele><time>2026-04-19T12:29:12Z</time></trkpt><trkpt lat="42.96984171591613" lon="10.498991165289107"><ele>240.0</ele><time>2026-04-19T12:29:13Z</time></trkpt><trkpt lat="42.96981947257981" lon="10.498892692676474"><ele>240.0</ele><time>2026-04-19T12:29:14Z</time></trkpt><trkpt lat="42.9697933057128" lon="10.498812040504676"><ele>240.0</ele><time>2026-04-19T12:29:15Z</time></trkpt><trkpt lat="42.969761135121125" lon="10.498708504569736"><ele>240.0</ele><time>2026-04-19T12:29:16Z</time></trkpt><trkpt lat="42.969720776930785" lon="10.498600853838084"><ele>240.0</ele><time>2026-04-19T12:29:17Z</time></trkpt><trkpt lat="42.96967253310824" lon="10.498502082324578"><ele>240.0</ele><time>2026-04-19T12:29:18Z</time></trkpt><trkpt lat="42.969617866917275" lon="10.498406587383275"><ele>240.0</ele><time>2026-04-19T12:29:19Z</time></trkpt><trkpt lat="42.96956257447925" lon="10.498321365068565"><ele>242.2</ele><time>2026-04-19T12:29:20Z</time></trkpt><trkpt lat="42.96949785143094" lon="10.498224562319342"><ele>244.4</ele><time>2026-04-19T12:29:21Z</time></trkpt><trkpt lat="42.96944105773798" lon="10.498131893844635"><ele>246.60000000000002</ele><time>2026-04-19T12:29:22Z</time></trkpt><trkpt lat="42.969385932197966" lon="10.498035208810453"><ele>248.8</ele><time>2026-04-19T12:29:23Z</time></trkpt><trkpt lat="42.969330261700236" lon="10.497935758288667"><ele>251.0</ele><time>2026-04-19T12:29:24Z</time></trkpt><trkpt lat="42.969277202114874" lon="10.497842380210695"><ele>253.16666666666669</ele><time>2026-04-19T12:29:25Z</time></trkpt><trkpt lat="42.96922765632365" lon="10.497757124430173"><ele>255.33333333333334</ele><time>2026-04-19T12:29:26Z</time></trkpt><trkpt lat="42.969177725349496" lon="10.497677960139235"><ele>257.5</ele><time>2026-04-19T12:29:27Z</time></trkpt><trkpt lat="42.96911740499868" lon="10.497619731892149"><ele>259.6666666666667</ele><time>2026-04-19T12:29:28Z</time></trkpt><trkpt lat="42.96902493153681" lon="10.497578665629943"><ele>261.8333333333333</ele><time>2026-04-19T12:29:29Z</time></trkpt><trkpt lat="42.96893289345761" lon="10.497553906407537"><ele>264.0</ele><time>2026-04-19T12:29:30Z</time></trkpt><trkpt lat="42.96885545793649" lon="10.497533613971097"><ele>264.0</ele><time>2026-04-19T12:29:31Z</time></trkpt><trkpt lat="42.968784279405675" lon="10.497505960783144"><ele>264.0</ele><time>2026-04-19T12:29:32Z</time></trkpt><trkpt lat="42.968723960262025" lon="10.497470276217733"><ele>264.0</ele><time>2026-04-19T12:29:33Z</time></trkpt><trkpt lat="42.96866876177994" lon="10.497416863068688"><ele>264.0</ele><time>2026-04-19T12:29:34Z</time></trkpt><trkpt lat="42.9686040311829" lon="10.497337809529995"><ele>264.0</ele><time>2026-04-19T12:29:35Z</time></trkpt><trkpt lat="42.96853290569686" lon="10.497251489306771"><ele>264.0</ele><time>2026-04-19T12:29:36Z</time></trkpt><trkpt lat="42.96846245118772" lon="10.497164575268398"><ele>265.0</ele><time>2026-04-19T12:29:37Z</time></trkpt><trkpt lat="42.9683934999851" lon="10.497079592306513"><ele>266.0</ele><time>2026-04-19T12:29:38Z</time></trkpt><trkpt lat="42.96832440452611" lon="10.497000909683258"><ele>267.0</ele><time>2026-04-19T12:29:39Z</time></trkpt><trkpt lat="42.96825188453185" lon="10.496935090354414"><ele>268.0</ele><time>2026-04-19T12:29:40Z</time></trkpt><trkpt lat="42.96818247967619" lon="10.496885408218638"><ele>269.0</ele><time>2026-04-19T12:29:41Z</time></trkpt><trkpt lat="42.9681143252997" lon="10.496849571920706"><ele>270.0</ele><time>2026-04-19T12:29:42Z</time></trkpt><trkpt lat="42.9680356539789" lon="10.496847191100514"><ele>270.0</ele><time>2026-04-19T12:29:43Z</time></trkpt><trkpt lat="42.96795630225517" lon="10.496879012061248"><ele>270.0</ele><time>2026-04-19T12:29:44Z</time></trkpt><trkpt lat="42.96787844386074" lon="10.496931149005297"><ele>270.0</ele><time>2026-04-19T12:29:45Z</time></trkpt><trkpt lat="42.96780490826366" lon="10.496978026996644"><ele>270.0</ele><time>2026-04-19T12:29:46Z</time></trkpt><trkpt lat="42.96771621009168" lon="10.497028164605307"><ele>270.0</ele><time>2026-04-19T12:29:47Z</time></trkpt><trkpt lat="42.96762355408234" lon="10.497080183084586"><ele>270.0</ele><time>2026-04-19T12:29:48Z</time></trkpt><trkpt lat="42.96753772908764" lon="10.497137399802922"><ele>270.1666666666667</ele><time>2026-04-19T12:29:49Z</time></trkpt><trkpt lat="42.96745691037797" lon="10.497187379706025"><ele>270.3333333333333</ele><time>2026-04-19T12:29:50Z</time></trkpt><trkpt lat="42.96738141574799" lon="10.497219401797269"><ele>270.5</ele><time>2026-04-19T12:29:51Z</time></trkpt><trkpt lat="42.967307093603985" lon="10.497213828034596"><ele>270.66666666666663</ele><time>2026-04-19T12:29:52Z</time></trkpt><trkpt lat="42.96721178187842" lon="10.497206624167157"><ele>270.8333333333333</ele><time>2026-04-19T12:29:53Z</time></trkpt><trkpt lat="42.96711842224573" lon="10.497211745646966"><ele>271.0</ele><time>2026-04-19T12:29:54Z</time></trkpt><trkpt lat="42.96703898479621" lon="10.497224504801116"><ele>271.0</ele><time>2026-04-19T12:29:55Z</time></trkpt><trkpt lat="42.966965575909164" lon="10.497245797413267"><ele>271.0</ele><time>2026-04-19T12:29:56Z</time></trkpt><trkpt lat="42.96687339067166" lon="10.497294881984589"><ele>271.0</ele><time>2026-04-19T12:29:57Z</time></trkpt><trkpt lat="42.966794261730975" lon="10.497368634194451"><ele>271.0</ele><time>2026-04-19T12:29:58Z</time></trkpt><trkpt lat="42.96672077593721" lon="10.497460701992459"><ele>271.0</ele><time>2026-04-19T12:29:59Z</time></trkpt><trkpt lat="42.966649710062875" lon="10.49755499699778"><ele>271.5</ele><time>2026-04-19T12:30:00Z</time></trkpt><trkpt lat="42.966575990887414" lon="10.497646189582436"><ele>272.0</ele><time>2026-04-19T12:30:01Z</time></trkpt><trkpt lat="42.966503048297575" lon="10.497730245128105"><ele>272.5</ele><time>2026-04-19T12:30:02Z</time></trkpt><trkpt lat="42.96644132281771" lon="10.497792450549786"><ele>273.0</ele><time>2026-04-19T12:30:03Z</time></trkpt><trkpt lat="42.96638067926638" lon="10.497838904964434"><ele>273.5</ele><time>2026-04-19T12:30:04Z</time></trkpt><trkpt lat="42.966314881914826" lon="10.497877500980106"><ele>274.0</ele><time>2026-04-19T12:30:05Z</time></trkpt><trkpt lat="42.96623883709062" lon="10.49791075088472"><ele>274.0</ele><time>2026-04-19T12:30:06Z</time></trkpt><trkpt lat="42.9661663003538" lon="10.49792321972375"><ele>274.0</ele><time>2026-04-19T12:30:07Z</time></trkpt><trkpt lat="42.96609684455965" lon="10.497911473475073"><ele>274.0</ele><time>2026-04-19T12:30:08Z</time></trkpt><trkpt lat="42.96602273430752" lon="10.497914253650434"><ele>274.0</ele><time>2026-04-19T12:30:09Z</time></trkpt><trkpt lat="42.965952151224144" lon="10.497882607966055"><ele>274.0</ele><time>2026-04-19T12:30:10Z</time></trkpt><trkpt lat="42.96586504274196" lon="10.497832686263648"><ele>274.0</ele><time>2026-04-19T12:30:11Z</time></trkpt><trkpt lat="42.96578639892027" lon="10.497778461092494"><ele>273.3333333333333</ele><time>2026-04-19T12:30:12Z</time></trkpt><trkpt lat="42.96571585788192" lon="10.497719633203422"><ele>272.66666666666663</ele><time>2026-04-19T12:30:13Z</time></trkpt><trkpt lat="42.96565300249553" lon="10.497679289446717"><ele>272.0</ele><time>2026-04-19T12:30:14Z</time></trkpt><trkpt lat="42.965578541624296" lon="10.497652254322645"><ele>271.3333333333333</ele><time>2026-04-19T12:30:15Z</time></trkpt><trkpt lat="42.96550192193735" lon="10.49760080942605"><ele>270.6666666666667</ele><time>2026-04-19T12:30:16Z</time></trkpt><trkpt lat="42.96542627411645" lon="10.49758293710556"><ele>270.0</ele><time>2026-04-19T12:30:17Z</time></trkpt><trkpt lat="42.96533775498384" lon="10.497580824136332"><ele>270.0</ele><time>2026-04-19T12:30:18Z</time></trkpt><trkpt lat="42.96524213102217" lon="10.497607749029921"><ele>270.0</ele><time>2026-04-19T12:30:19Z</time></trkpt><trkpt lat="42.9651508074915" lon="10.49763793469108"><ele>270.0</ele><time>2026-04-19T12:30:20Z</time></trkpt><trkpt lat="42.965059195263095" lon="10.497676712332213"><ele>270.0</ele><time>2026-04-19T12:30:21Z</time></trkpt><trkpt lat="42.964966778625076" lon="10.497717172722046"><ele>270.0</ele><time>2026-04-19T12:30:22Z</time></trkpt><trkpt lat="42.96487811040766" lon="10.497759049050895"><ele>269.0</ele><time>2026-04-19T12:30:23Z</time></trkpt><trkpt lat="42.96480055260147" lon="10.497814699255958"><ele>268.0</ele><time>2026-04-19T12:30:24Z</time></trkpt><trkpt lat="42.964744560443144" lon="10.49787129133114"><ele>267.0</ele><time>2026-04-19T12:30:25Z</time></trkpt><trkpt lat="42.96473234780936" lon="10.497976894855643"><ele>266.0</ele><time>2026-04-19T12:30:26Z</time></trkpt><trkpt lat="42.96468314270872" lon="10.49805682332895"><ele>265.0</ele><time>2026-04-19T12:30:27Z</time></trkpt><trkpt lat="42.96464752801357" lon="10.498149679043077"><ele>264.0</ele><time>2026-04-19T12:30:28Z</time></trkpt><trkpt lat="42.96460958481059" lon="10.498240218385442"><ele>263.3333333333333</ele><time>2026-04-19T12:30:29Z</time></trkpt><trkpt lat="42.964569470114554" lon="10.498323225959984"><ele>262.6666666666667</ele><time>2026-04-19T12:30:30Z</time></trkpt><trkpt lat="42.964520058062014" lon="10.498406370055548"><ele>262.0</ele><time>2026-04-19T12:30:31Z</time></trkpt><trkpt lat="42.96446637873772" lon="10.4984770436724"><ele>261.33333333333337</ele><time>2026-04-19T12:30:32Z</time></trkpt><trkpt lat="42.964398438502286" lon="10.49855247909856"><ele>260.6666666666667</ele><time>2026-04-19T12:30:33Z</time></trkpt><trkpt lat="42.964332038589646" lon="10.498624962974372"><ele>260.0</ele><time>2026-04-19T12:30:34Z</time></trkpt><trkpt lat="42.96426496574154" lon="10.498694735664621"><ele>260.0</ele><time>2026-04-19T12:30:35Z</time></trkpt><trkpt lat="42.96420665644631" lon="10.498747955009557"><ele>260.0</ele><time>2026-04-19T12:30:36Z</time></trkpt><trkpt lat="42.964147243707885" lon="10.498782259653472"><ele>260.0</ele><time>2026-04-19T12:30:37Z</time></trkpt><trkpt lat="42.964078612496394" lon="10.49879344231159"><ele>260.0</ele><time>2026-04-19T12:30:38Z</time></trkpt><trkpt lat="42.963995808462215" lon="10.498815296508038"><ele>260.0</ele><time>2026-04-19T12:30:39Z</time></trkpt><trkpt lat="42.96391008765653" lon="10.49879181304472"><ele>260.0</ele><time>2026-04-19T12:30:40Z</time></trkpt><trkpt lat="42.963808807430055" lon="10.498795777307896"><ele>260.0</ele><time>2026-04-19T12:30:41Z</time></trkpt><trkpt lat="42.96372224074233" lon="10.498842519460775"><ele>260.0</ele><time>2026-04-19T12:30:42Z</time></trkpt><trkpt lat="42.96365803683117" lon="10.498868613355693"><ele>260.0</ele><time>2026-04-19T12:30:43Z</time></trkpt><trkpt lat="42.9635884753678" lon="10.49889399241385"><ele>260.0</ele><time>2026-04-19T12:30:44Z</time></trkpt><trkpt lat="42.963516907190694" lon="10.498909363122857"><ele>260.0</ele><time>2026-04-19T12:30:45Z</time></trkpt><trkpt lat="42.9634344376593" lon="10.498911026168008"><ele>260.0</ele><time>2026-04-19T12:30:46Z</time></trkpt><trkpt lat="42.96335058855299" lon="10.498919736714463"><ele>261.33333333333337</ele><time>2026-04-19T12:30:47Z</time></trkpt><trkpt lat="42.96327230835236" lon="10.49893262077163"><ele>262.6666666666667</ele><time>2026-04-19T12:30:48Z</time></trkpt><trkpt lat="42.963193457119296" lon="10.498961260760286"><ele>264.0</ele><time>2026-04-19T12:30:49Z</time></trkpt><trkpt lat="42.963128594805475" lon="10.4990335489371"><ele>265.3333333333333</ele><time>2026-04-19T12:30:50Z</time></trkpt><trkpt lat="42.96308048439831" lon="10.499138944746772"><ele>266.66666666666663</ele><time>2026-04-19T12:30:51Z</time></trkpt><trkpt lat="42.9630344326308" lon="10.499244892959707"><ele>268.0</ele><time>2026-04-19T12:30:52Z</time></trkpt><trkpt lat="42.96298944280226" lon="10.499358107733716"><ele>268.0</ele><time>2026-04-19T12:30:53Z</time></trkpt><trkpt lat="42.96295072725503" lon="10.499486269317478"><ele>268.0</ele><time>2026-04-19T12:30:54Z</time></trkpt><trkpt lat="42.96293283772484" lon="10.499615327781228"><ele>268.0</ele><time>2026-04-19T12:30:55Z</time></trkpt><trkpt lat="42.96291256938866" lon="10.499733179190077"><ele>268.0</ele><time>2026-04-19T12:30:56Z</time></trkpt><trkpt lat="42.962885407752346" lon="10.499850229341746"><ele>268.0</ele><time>2026-04-19T12:30:57Z</time></trkpt><trkpt lat="42.962852392777" lon="10.499954986019638"><ele>265.66666666666663</ele><time>2026-04-19T12:30:58Z</time></trkpt><trkpt lat="42.962813036025956" lon="10.500045729507018"><ele>263.3333333333333</ele><time>2026-04-19T12:30:59Z</time></trkpt><trkpt lat="42.96276479655148" lon="10.50011813775885"><ele>261.0</ele><time>2026-04-19T12:31:00Z</time></trkpt><trkpt lat="42.96270725781652" lon="10.50018638367725"><ele>258.6666666666667</ele><time>2026-04-19T12:31:01Z</time></trkpt><trkpt lat="42.96263523055017" lon="10.500253676238142"><ele>256.33333333333337</ele><time>2026-04-19T12:31:02Z</time></trkpt><trkpt lat="42.96254926206363" lon="10.5003309963759"><ele>254.0</ele><time>2026-04-19T12:31:03Z</time></trkpt><trkpt lat="42.962463160295556" lon="10.500422131807266"><ele>253.6</ele><time>2026-04-19T12:31:04Z</time></trkpt><trkpt lat="42.96238131879013" lon="10.500517933581769"><ele>253.2</ele><time>2026-04-19T12:31:05Z</time></trkpt><trkpt lat="42.96230766553319" lon="10.500618063405526"><ele>252.79999999999998</ele><time>2026-04-19T12:31:06Z</time></trkpt><trkpt lat="42.962240481923" lon="10.500712786962312"><ele>252.39999999999998</ele><time>2026-04-19T12:31:07Z</time></trkpt><trkpt lat="42.96217525968731" lon="10.50080693040153"><ele>252.0</ele><time>2026-04-19T12:31:08Z</time></trkpt><trkpt lat="42.96211689826642" lon="10.50088693756726"><ele>252.0</ele><time>2026-04-19T12:31:09Z</time></trkpt><trkpt lat="42.96204385071667" lon="10.501033779177861"><ele>252.0</ele><time>2026-04-19T12:31:11Z</time></trkpt><trkpt lat="42.96202478235912" lon="10.501159664508233"><ele>252.0</ele><time>2026-04-19T12:31:12Z</time></trkpt><trkpt lat="42.96199903810065" lon="10.501298362570981"><ele>252.0</ele><time>2026-04-19T12:31:13Z</time></trkpt><trkpt lat="42.961978978790874" lon="10.501421594039698"><ele>252.0</ele><time>2026-04-19T12:31:14Z</time></trkpt><trkpt lat="42.96196509030358" lon="10.501513307557877"><ele>250.85714285714286</ele><time>2026-04-19T12:31:15Z</time></trkpt><trkpt lat="42.96195116466614" lon="10.501609304306783"><ele>249.71428571428572</ele><time>2026-04-19T12:31:16Z</time></trkpt><trkpt lat="42.96193805357896" lon="10.501715488807855"><ele>248.57142857142856</ele><time>2026-04-19T12:31:17Z</time></trkpt><trkpt lat="42.96192875287035" lon="10.501816802127786"><ele>247.42857142857142</ele><time>2026-04-19T12:31:18Z</time></trkpt><trkpt lat="42.96193644453847" lon="10.501916423629924"><ele>246.28571428571428</ele><time>2026-04-19T12:31:19Z</time></trkpt><trkpt lat="42.96190011926883" lon="10.50200143655739"><ele>245.1428571428571</ele><time>2026-04-19T12:31:20Z</time></trkpt><trkpt lat="42.961877394385134" lon="10.502088798601003"><ele>243.99999999999997</ele><time>2026-04-19T12:31:21Z</time></trkpt><trkpt lat="42.961840733843395" lon="10.502160563324258"><ele>243.66666666666666</ele><time>2026-04-19T12:31:22Z</time></trkpt><trkpt lat="42.96173253140003" lon="10.502220952279124"><ele>243.33333333333331</ele><time>2026-04-19T12:31:24Z</time></trkpt><trkpt lat="42.96165627165686" lon="10.502275513727161"><ele>243.0</ele><time>2026-04-19T12:31:25Z</time></trkpt><trkpt lat="42.96157827637397" lon="10.50230894257612"><ele>242.66666666666669</ele><time>2026-04-19T12:31:26Z</time></trkpt><trkpt lat="42.96150614351527" lon="10.50235038305393"><ele>242.33333333333334</ele><time>2026-04-19T12:31:27Z</time></trkpt><trkpt lat="42.96142589919195" lon="10.50237780921919"><ele>242.0</ele><time>2026-04-19T12:31:28Z</time></trkpt><trkpt lat="42.961346060870255" lon="10.50242044375122"><ele>242.0</ele><time>2026-04-19T12:31:29Z</time></trkpt><trkpt lat="42.96125933993439" lon="10.502466753639716"><ele>242.0</ele><time>2026-04-19T12:31:30Z</time></trkpt><trkpt lat="42.96117469850982" lon="10.502511953063784"><ele>242.0</ele><time>2026-04-19T12:31:31Z</time></trkpt><trkpt lat="42.96109505091746" lon="10.50254817275292"><ele>242.0</ele><time>2026-04-19T12:31:32Z</time></trkpt><trkpt lat="42.960997379712936" lon="10.502575207196413"><ele>242.0</ele><time>2026-04-19T12:31:33Z</time></trkpt><trkpt lat="42.96090413684984" lon="10.502590906382856"><ele>241.33333333333334</ele><time>2026-04-19T12:31:34Z</time></trkpt><trkpt lat="42.960812266912605" lon="10.502611514457682"><ele>240.66666666666669</ele><time>2026-04-19T12:31:35Z</time></trkpt><trkpt lat="42.96072111732254" lon="10.502659240643235"><ele>240.0</ele><time>2026-04-19T12:31:36Z</time></trkpt><trkpt lat="42.960640446281374" lon="10.502708364822276"><ele>239.33333333333331</ele><time>2026-04-19T12:31:37Z</time></trkpt><trkpt lat="42.96057201420148" lon="10.502744881000245"><ele>238.66666666666666</ele><time>2026-04-19T12:31:38Z</time></trkpt><trkpt lat="42.96049788400945" lon="10.502769762171969"><ele>238.0</ele><time>2026-04-19T12:31:39Z</time></trkpt><trkpt lat="42.96041663463922" lon="10.502786498921257"><ele>237.99999999999997</ele><time>2026-04-19T12:31:40Z</time></trkpt><trkpt lat="42.96034119950152" lon="10.502826891746023"><ele>238.0</ele><time>2026-04-19T12:31:41Z</time></trkpt><trkpt lat="42.96026690358546" lon="10.50287522996907"><ele>238.0</ele><time>2026-04-19T12:31:42Z</time></trkpt><trkpt lat="42.960187325469924" lon="10.502912693951663"><ele>238.0</ele><time>2026-04-19T12:31:43Z</time></trkpt><trkpt lat="42.96010554007354" lon="10.502963440969385"><ele>237.99999999999997</ele><time>2026-04-19T12:31:44Z</time></trkpt><trkpt lat="42.96003395443747" lon="10.503001887466239"><ele>238.0</ele><time>2026-04-19T12:31:45Z</time></trkpt><trkpt lat="42.95996946957462" lon="10.503022510722849"><ele>237.8</ele><time>2026-04-19T12:31:46Z</time></trkpt><trkpt lat="42.95987442752378" lon="10.503000908305394"><ele>237.60000000000002</ele><time>2026-04-19T12:31:48Z</time></trkpt><trkpt lat="42.959749257356115" lon="10.502887188489108"><ele>237.39999999999998</ele><time>2026-04-19T12:31:50Z</time></trkpt><trkpt lat="42.95967929790827" lon="10.502822203714251"><ele>237.2</ele><time>2026-04-19T12:31:51Z</time></trkpt><trkpt lat="42.95960875702293" lon="10.50277329171873"><ele>237.0</ele><time>2026-04-19T12:31:52Z</time></trkpt><trkpt lat="42.95953142525833" lon="10.502738148565816"><ele>237.0</ele><time>2026-04-19T12:31:53Z</time></trkpt><trkpt lat="42.95945430452442" lon="10.502689524677756"><ele>237.0</ele><time>2026-04-19T12:31:54Z</time></trkpt><trkpt lat="42.95936731637653" lon="10.502649135384702"><ele>237.0</ele><time>2026-04-19T12:31:55Z</time></trkpt><trkpt lat="42.95928559171168" lon="10.502600609283128"><ele>237.0</ele><time>2026-04-19T12:31:56Z</time></trkpt><trkpt lat="42.959213481735084" lon="10.50256180247436"><ele>237.0</ele><time>2026-04-19T12:31:57Z</time></trkpt><trkpt lat="42.95912237088867" lon="10.502543173840433"><ele>237.0</ele><time>2026-04-19T12:31:58Z</time></trkpt><trkpt lat="42.959027538775786" lon="10.5025462275584"><ele>237.0</ele><time>2026-04-19T12:31:59Z</time></trkpt><trkpt lat="42.958931598467466" lon="10.502561197167047"><ele>237.0</ele><time>2026-04-19T12:32:00Z</time></trkpt><trkpt lat="42.95885031526847" lon="10.50256102482329"><ele>237.0</ele><time>2026-04-19T12:32:01Z</time></trkpt><trkpt lat="42.958774926587736" lon="10.502545928127969"><ele>237.0</ele><time>2026-04-19T12:32:02Z</time></trkpt><trkpt lat="42.958705718790746" lon="10.502509647219735"><ele>237.0</ele><time>2026-04-19T12:32:03Z</time></trkpt><trkpt lat="42.958656880010885" lon="10.502438237130452"><ele>237.0</ele><time>2026-04-19T12:32:04Z</time></trkpt><trkpt lat="42.958603840959974" lon="10.502350990870308"><ele>237.0</ele><time>2026-04-19T12:32:05Z</time></trkpt><trkpt lat="42.958539323222645" lon="10.502269980616777"><ele>237.0</ele><time>2026-04-19T12:32:06Z</time></trkpt><trkpt lat="42.95849930027278" lon="10.502151969353092"><ele>237.0</ele><time>2026-04-19T12:32:07Z</time></trkpt><trkpt lat="42.95843572222744" lon="10.502061918740301"><ele>237.0</ele><time>2026-04-19T12:32:08Z</time></trkpt><trkpt lat="42.95838410054786" lon="10.501962403289173"><ele>237.0</ele><time>2026-04-19T12:32:09Z</time></trkpt><trkpt lat="42.9583388696723" lon="10.501867637606818"><ele>237.0</ele><time>2026-04-19T12:32:10Z</time></trkpt><trkpt lat="42.95828478236005" lon="10.501795532362902"><ele>235.5</ele><time>2026-04-19T12:32:11Z</time></trkpt><trkpt lat="42.95821910342303" lon="10.501731025639971"><ele>234.0</ele><time>2026-04-19T12:32:12Z</time></trkpt><trkpt lat="42.95813618165495" lon="10.501688119811453"><ele>232.5</ele><time>2026-04-19T12:32:13Z</time></trkpt><trkpt lat="42.95805929297156" lon="10.501646861077251"><ele>231.0</ele><time>2026-04-19T12:32:14Z</time></trkpt><trkpt lat="42.95798624793301" lon="10.501609960539117"><ele>229.5</ele><time>2026-04-19T12:32:15Z</time></trkpt><trkpt lat="42.95790696162258" lon="10.501591751456145"><ele>228.0</ele><time>2026-04-19T12:32:16Z</time></trkpt><trkpt lat="42.957841097423426" lon="10.501530768116895"><ele>228.0</ele><time>2026-04-19T12:32:17Z</time></trkpt><trkpt lat="42.95776922100924" lon="10.501483059143311"><ele>228.0</ele><time>2026-04-19T12:32:18Z</time></trkpt><trkpt lat="42.95769848656644" lon="10.501415291713322"><ele>228.0</ele><time>2026-04-19T12:32:19Z</time></trkpt><trkpt lat="42.957633068173706" lon="10.501334420520395"><ele>228.0</ele><time>2026-04-19T12:32:20Z</time></trkpt><trkpt lat="42.95757816769558" lon="10.50126651142946"><ele>228.0</ele><time>2026-04-19T12:32:21Z</time></trkpt><trkpt lat="42.957521082723325" lon="10.501216011694115"><ele>228.0</ele><time>2026-04-19T12:32:22Z</time></trkpt><trkpt lat="42.95745227604081" lon="10.501183551190001"><ele>228.4</ele><time>2026-04-19T12:32:23Z</time></trkpt><trkpt lat="42.9573686735076" lon="10.501173393943104"><ele>228.8</ele><time>2026-04-19T12:32:24Z</time></trkpt><trkpt lat="42.95727779031712" lon="10.501174433665021"><ele>229.2</ele><time>2026-04-19T12:32:25Z</time></trkpt><trkpt lat="42.957193113567826" lon="10.501181450800955"><ele>229.6</ele><time>2026-04-19T12:32:26Z</time></trkpt><trkpt lat="42.95712219013243" lon="10.501193902969677"><ele>230.0</ele><time>2026-04-19T12:32:27Z</time></trkpt><trkpt lat="42.95700206754584" lon="10.50126827212846"><ele>230.00000000000003</ele><time>2026-04-19T12:32:29Z</time></trkpt><trkpt lat="42.95695590763182" lon="10.501354849974785"><ele>230.0</ele><time>2026-04-19T12:32:30Z</time></trkpt><trkpt lat="42.956932608593355" lon="10.501458682010487"><ele>230.0</ele><time>2026-04-19T12:32:31Z</time></trkpt><trkpt lat="42.95690664266791" lon="10.501558087227323"><ele>230.0</ele><time>2026-04-19T12:32:32Z</time></trkpt><trkpt lat="42.95685079400716" lon="10.50166538095554"><ele>230.00000000000003</ele><time>2026-04-19T12:32:34Z</time></trkpt><trkpt lat="42.95677531821606" lon="10.501608449853391"><ele>230.0</ele><time>2026-04-19T12:32:36Z</time></trkpt><trkpt lat="42.956710654951344" lon="10.501565938044022"><ele>228.83333333333334</ele><time>2026-04-19T12:32:37Z</time></trkpt><trkpt lat="42.95666084859694" lon="10.501487345943461"><ele>227.66666666666669</ele><time>2026-04-19T12:32:38Z</time></trkpt><trkpt lat="42.95659677227989" lon="10.501418375674932"><ele>226.5</ele><time>2026-04-19T12:32:39Z</time></trkpt><trkpt lat="42.95653299950817" lon="10.501355511958579"><ele>225.33333333333331</ele><time>2026-04-19T12:32:40Z</time></trkpt><trkpt lat="42.95648301628572" lon="10.501251654758695"><ele>224.16666666666666</ele><time>2026-04-19T12:32:41Z</time></trkpt><trkpt lat="42.95641528249034" lon="10.501153120575925"><ele>223.0</ele><time>2026-04-19T12:32:42Z</time></trkpt><trkpt lat="42.956337740900615" lon="10.501071228879212"><ele>220.49999999999997</ele><time>2026-04-19T12:32:43Z</time></trkpt><trkpt lat="42.956284488623446" lon="10.500962847724116"><ele>218.0</ele><time>2026-04-19T12:32:44Z</time></trkpt><trkpt lat="42.95620574393574" lon="10.500909884272042"><ele>215.5</ele><time>2026-04-19T12:32:45Z</time></trkpt><trkpt lat="42.95613907649363" lon="10.50084963135926"><ele>213.0</ele><time>2026-04-19T12:32:46Z</time></trkpt><trkpt lat="42.95606006773094" lon="10.500787514988996"><ele>210.49999999999997</ele><time>2026-04-19T12:32:47Z</time></trkpt><trkpt lat="42.955981853107886" lon="10.500735309631114"><ele>208.0</ele><time>2026-04-19T12:32:48Z</time></trkpt><trkpt lat="42.95590240114984" lon="10.500690643596492"><ele>208.83333333333331</ele><time>2026-04-19T12:32:49Z</time></trkpt><trkpt lat="42.95582131563499" lon="10.500653991745219"><ele>209.66666666666666</ele><time>2026-04-19T12:32:50Z</time></trkpt><trkpt lat="42.95574133400118" lon="10.500618255488096"><ele>210.5</ele><time>2026-04-19T12:32:51Z</time></trkpt><trkpt lat="42.95565984116161" lon="10.500583567004494"><ele>211.33333333333331</ele><time>2026-04-19T12:32:52Z</time></trkpt><trkpt lat="42.955568295482216" lon="10.50055702075937"><ele>212.16666666666666</ele><time>2026-04-19T12:32:53Z</time></trkpt><trkpt lat="42.95546977166892" lon="10.500545625510378"><ele>213.0</ele><time>2026-04-19T12:32:54Z</time></trkpt><trkpt lat="42.95536946717641" lon="10.500535942041754"><ele>213.0</ele><time>2026-04-19T12:32:55Z</time></trkpt><trkpt lat="42.955284935668" lon="10.50050525783559"><ele>213.0</ele><time>2026-04-19T12:32:56Z</time></trkpt><trkpt lat="42.95521857959174" lon="10.500448591284592"><ele>213.0</ele><time>2026-04-19T12:32:57Z</time></trkpt><trkpt lat="42.955167291499336" lon="10.500361257701027"><ele>213.0</ele><time>2026-04-19T12:32:58Z</time></trkpt><trkpt lat="42.955130683420876" lon="10.500251058364311"><ele>213.0</ele><time>2026-04-19T12:32:59Z</time></trkpt><trkpt lat="42.95508761629967" lon="10.500157052425314"><ele>213.0</ele><time>2026-04-19T12:33:00Z</time></trkpt><trkpt lat="42.95503660760491" lon="10.500095309440653"><ele>211.16666666666666</ele><time>2026-04-19T12:33:01Z</time></trkpt><trkpt lat="42.95496608203977" lon="10.500046911706292"><ele>209.33333333333331</ele><time>2026-04-19T12:33:02Z</time></trkpt><trkpt lat="42.95488432517696" lon="10.500009514253408"><ele>207.5</ele><time>2026-04-19T12:33:03Z</time></trkpt><trkpt lat="42.95481100761004" lon="10.49998217967878"><ele>205.66666666666666</ele><time>2026-04-19T12:33:04Z</time></trkpt><trkpt lat="42.954735416011175" lon="10.499966044641054"><ele>203.83333333333331</ele><time>2026-04-19T12:33:05Z</time></trkpt><trkpt lat="42.95465079562606" lon="10.49996525878395"><ele>202.0</ele><time>2026-04-19T12:33:06Z</time></trkpt><trkpt lat="42.95457205523543" lon="10.49998468157847"><ele>201.99999999999997</ele><time>2026-04-19T12:33:07Z</time></trkpt><trkpt lat="42.95450201663982" lon="10.500014928372407"><ele>202.0</ele><time>2026-04-19T12:33:08Z</time></trkpt><trkpt lat="42.95442998077214" lon="10.5000647347903"><ele>202.0</ele><time>2026-04-19T12:33:09Z</time></trkpt><trkpt lat="42.9543558781418" lon="10.50011286321637"><ele>202.0</ele><time>2026-04-19T12:33:10Z</time></trkpt><trkpt lat="42.95428537784252" lon="10.500149877145285"><ele>201.99999999999997</ele><time>2026-04-19T12:33:11Z</time></trkpt><trkpt lat="42.95417530700619" lon="10.500132921273877"><ele>202.0</ele><time>2026-04-19T12:33:13Z</time></trkpt><trkpt lat="42.95411653224801" lon="10.500062109231736"><ele>201.99999999999997</ele><time>2026-04-19T12:33:14Z</time></trkpt><trkpt lat="42.954060444285844" lon="10.499976759876727"><ele>202.0</ele><time>2026-04-19T12:33:15Z</time></trkpt><trkpt lat="42.95400474965285" lon="10.499905229559156"><ele>202.0</ele><time>2026-04-19T12:33:16Z</time></trkpt><trkpt lat="42.953946029307936" lon="10.499847198114638"><ele>202.0</ele><time>2026-04-19T12:33:17Z</time></trkpt><trkpt lat="42.953874828774005" lon="10.499813864796945"><ele>201.99999999999997</ele><time>2026-04-19T12:33:18Z</time></trkpt><trkpt lat="42.95378811660733" lon="10.499800694705561"><ele>202.0</ele><time>2026-04-19T12:33:19Z</time></trkpt><trkpt lat="42.95370307036079" lon="10.4997904129213"><ele>202.0</ele><time>2026-04-19T12:33:20Z</time></trkpt><trkpt lat="42.953633389293245" lon="10.499757941236926"><ele>202.0</ele><time>2026-04-19T12:33:21Z</time></trkpt><trkpt lat="42.95357945486615" lon="10.499700250732653"><ele>202.0</ele><time>2026-04-19T12:33:22Z</time></trkpt><trkpt lat="42.95353731819807" lon="10.499613260974494"><ele>202.0</ele><time>2026-04-19T12:33:23Z</time></trkpt><trkpt lat="42.95349337593852" lon="10.49951591170777"><ele>202.0</ele><time>2026-04-19T12:33:24Z</time></trkpt><trkpt lat="42.95344204542607" lon="10.499450634311232"><ele>202.0</ele><time>2026-04-19T12:33:25Z</time></trkpt><trkpt lat="42.95338073621004" lon="10.499408501965425"><ele>202.0</ele><time>2026-04-19T12:33:26Z</time></trkpt><trkpt lat="42.95331257610469" lon="10.499365010474234"><ele>200.33333333333331</ele><time>2026-04-19T12:33:27Z</time></trkpt><trkpt lat="42.953229094390565" lon="10.49932215172471"><ele>198.66666666666666</ele><time>2026-04-19T12:33:28Z</time></trkpt><trkpt lat="42.95314877992666" lon="10.499278808434685"><ele>197.0</ele><time>2026-04-19T12:33:29Z</time></trkpt><trkpt lat="42.95307107186592" lon="10.499249630840804"><ele>195.33333333333331</ele><time>2026-04-19T12:33:30Z</time></trkpt><trkpt lat="42.952996466386054" lon="10.499243418192062"><ele>193.66666666666666</ele><time>2026-04-19T12:33:31Z</time></trkpt><trkpt lat="42.952912469769615" lon="10.499254127779231"><ele>192.0</ele><time>2026-04-19T12:33:32Z</time></trkpt><trkpt lat="42.95282909091483" lon="10.49928334840863"><ele>192.0</ele><time>2026-04-19T12:33:33Z</time></trkpt><trkpt lat="42.952751545800915" lon="10.499326616038466"><ele>192.0</ele><time>2026-04-19T12:33:34Z</time></trkpt><trkpt lat="42.95267848142631" lon="10.49938584467788"><ele>192.0</ele><time>2026-04-19T12:33:35Z</time></trkpt><trkpt lat="42.95260550178968" lon="10.499463607103893"><ele>192.0</ele><time>2026-04-19T12:33:36Z</time></trkpt><trkpt lat="42.95253727126641" lon="10.49955238305964"><ele>192.0</ele><time>2026-04-19T12:33:37Z</time></trkpt><trkpt lat="42.952470781104395" lon="10.499618907524882"><ele>192.0</ele><time>2026-04-19T12:33:38Z</time></trkpt><trkpt lat="42.952406496562254" lon="10.49965197644113"><ele>192.16666666666666</ele><time>2026-04-19T12:33:39Z</time></trkpt><trkpt lat="42.95233641486438" lon="10.499663404601785"><ele>192.33333333333331</ele><time>2026-04-19T12:33:40Z</time></trkpt><trkpt lat="42.952263271129766" lon="10.499650714992915"><ele>192.5</ele><time>2026-04-19T12:33:41Z</time></trkpt><trkpt lat="42.95218225648227" lon="10.499629770241432"><ele>192.66666666666666</ele><time>2026-04-19T12:33:42Z</time></trkpt><trkpt lat="42.95210371021558" lon="10.499634012524401"><ele>192.83333333333331</ele><time>2026-04-19T12:33:43Z</time></trkpt><trkpt lat="42.952031840521904" lon="10.499649599935282"><ele>193.0</ele><time>2026-04-19T12:33:44Z</time></trkpt><trkpt lat="42.95195295021045" lon="10.499636285110224"><ele>192.99999999999997</ele><time>2026-04-19T12:33:45Z</time></trkpt><trkpt lat="42.951867735014034" lon="10.499592719322107"><ele>193.0</ele><time>2026-04-19T12:33:46Z</time></trkpt><trkpt lat="42.951783810727235" lon="10.499562695367404"><ele>193.0</ele><time>2026-04-19T12:33:47Z</time></trkpt><trkpt lat="42.95170129390682" lon="10.499547507023491"><ele>193.0</ele><time>2026-04-19T12:33:48Z</time></trkpt><trkpt lat="42.95161803021392" lon="10.499538616891632"><ele>192.99999999999997</ele><time>2026-04-19T12:33:49Z</time></trkpt><trkpt lat="42.95153809745483" lon="10.499543381752149"><ele>193.0</ele><time>2026-04-19T12:33:50Z</time></trkpt><trkpt lat="42.95145581995468" lon="10.499535758201477"><ele>192.4</ele><time>2026-04-19T12:33:51Z</time></trkpt><trkpt lat="42.95137726850026" lon="10.499514135856986"><ele>191.8</ele><time>2026-04-19T12:33:52Z</time></trkpt><trkpt lat="42.951269538865816" lon="10.499467803136792"><ele>191.2</ele><time>2026-04-19T12:33:54Z</time></trkpt><trkpt lat="42.951170810175235" lon="10.499369401730798"><ele>190.6</ele><time>2026-04-19T12:33:56Z</time></trkpt><trkpt lat="42.95107595073493" lon="10.499244052383766"><ele>190.0</ele><time>2026-04-19T12:33:58Z</time></trkpt><trkpt lat="42.95101057447196" lon="10.49917803558957"><ele>190.0</ele><time>2026-04-19T12:33:59Z</time></trkpt><trkpt lat="42.95095401593487" lon="10.499102014597478"><ele>190.0</ele><time>2026-04-19T12:34:00Z</time></trkpt><trkpt lat="42.950900228300185" lon="10.499027221697087"><ele>190.0</ele><time>2026-04-19T12:34:01Z</time></trkpt><trkpt lat="42.950869190524685" lon="10.498925880454301"><ele>190.0</ele><time>2026-04-19T12:34:02Z</time></trkpt><trkpt lat="42.95081163765739" lon="10.49884933751763"><ele>190.0</ele><time>2026-04-19T12:34:03Z</time></trkpt><trkpt lat="42.950751304988934" lon="10.498772622585692"><ele>190.0</ele><time>2026-04-19T12:34:04Z</time></trkpt><trkpt lat="42.95069149217904" lon="10.49870296391164"><ele>187.33333333333334</ele><time>2026-04-19T12:34:05Z</time></trkpt><trkpt lat="42.95063085212055" lon="10.498643600084137"><ele>184.66666666666669</ele><time>2026-04-19T12:34:06Z</time></trkpt><trkpt lat="42.950549094775894" lon="10.498610651183816"><ele>182.0</ele><time>2026-04-19T12:34:07Z</time></trkpt><trkpt lat="42.9504818185309" lon="10.498581796443943"><ele>179.33333333333334</ele><time>2026-04-19T12:34:08Z</time></trkpt><trkpt lat="42.95042742527995" lon="10.498533168430061"><ele>176.66666666666666</ele><time>2026-04-19T12:34:10Z</time></trkpt><trkpt lat="42.95043941293735" lon="10.498415165274446"><ele>174.0</ele><time>2026-04-19T12:34:12Z</time></trkpt><trkpt lat="42.950382586083954" lon="10.498233698937062"><ele>174.0</ele><time>2026-04-19T12:34:14Z</time></trkpt><trkpt lat="42.950341970562064" lon="10.498074209347934"><ele>174.0</ele><time>2026-04-19T12:34:16Z</time></trkpt><trkpt lat="42.950318127796535" lon="10.497907787433496"><ele>174.0</ele><time>2026-04-19T12:34:18Z</time></trkpt><trkpt lat="42.95029326479204" lon="10.497818640659757"><ele>174.0</ele><time>2026-04-19T12:34:19Z</time></trkpt><trkpt lat="42.95025042356936" lon="10.497746949434383"><ele>174.0</ele><time>2026-04-19T12:34:20Z</time></trkpt><trkpt lat="42.95019462574754" lon="10.497695178604943"><ele>172.5</ele><time>2026-04-19T12:34:21Z</time></trkpt><trkpt lat="42.9501028803993" lon="10.497706227312648"><ele>171.0</ele><time>2026-04-19T12:34:22Z</time></trkpt><trkpt lat="42.95002619226921" lon="10.497703071382444"><ele>169.5</ele><time>2026-04-19T12:34:23Z</time></trkpt><trkpt lat="42.949948563305014" lon="10.497697780400731"><ele>168.0</ele><time>2026-04-19T12:34:24Z</time></trkpt><trkpt lat="42.94987841451902" lon="10.497680025520479"><ele>166.5</ele><time>2026-04-19T12:34:25Z</time></trkpt><trkpt lat="42.9498189773199" lon="10.497645539582338"><ele>165.0</ele><time>2026-04-19T12:34:26Z</time></trkpt><trkpt lat="42.94973813092201" lon="10.497630558802314"><ele>163.6</ele><time>2026-04-19T12:34:27Z</time></trkpt><trkpt lat="42.94965328249346" lon="10.497637768056695"><ele>162.2</ele><time>2026-04-19T12:34:28Z</time></trkpt><trkpt lat="42.94956250851564" lon="10.497653012058072"><ele>160.8</ele><time>2026-04-19T12:34:29Z</time></trkpt><trkpt lat="42.9494751113374" lon="10.497671265824149"><ele>159.4</ele><time>2026-04-19T12:34:30Z</time></trkpt><trkpt lat="42.94940381473532" lon="10.497691179705932"><ele>158.0</ele><time>2026-04-19T12:34:31Z</time></trkpt><trkpt lat="42.94929081126267" lon="10.497729845067944"><ele>155.83333333333331</ele><time>2026-04-19T12:34:33Z</time></trkpt><trkpt lat="42.94918091138745" lon="10.49777789222999"><ele>153.66666666666666</ele><time>2026-04-19T12:34:35Z</time></trkpt><trkpt lat="42.9491194011498" lon="10.497801367843644"><ele>151.5</ele><time>2026-04-19T12:34:36Z</time></trkpt><trkpt lat="42.94905048565277" lon="10.497821889956057"><ele>149.33333333333334</ele><time>2026-04-19T12:34:37Z</time></trkpt><trkpt lat="42.94892198658885" lon="10.49783484240547"><ele>147.16666666666669</ele><time>2026-04-19T12:34:39Z</time></trkpt><trkpt lat="42.94885721894087" lon="10.497805332185834"><ele>145.0</ele><time>2026-04-19T12:34:40Z</time></trkpt><trkpt lat="42.94878727044977" lon="10.497792103531303"><ele>145.0</ele><time>2026-04-19T12:34:41Z</time></trkpt><trkpt lat="42.94870246198482" lon="10.497812570690812"><ele>145.0</ele><time>2026-04-19T12:34:42Z</time></trkpt><trkpt lat="42.948620257761846" lon="10.497834715735014"><ele>145.0</ele><time>2026-04-19T12:34:43Z</time></trkpt><trkpt lat="42.94855173421597" lon="10.497855414107285"><ele>145.0</ele><time>2026-04-19T12:34:44Z</time></trkpt><trkpt lat="42.94848257709124" lon="10.497879538707382"><ele>145.0</ele><time>2026-04-19T12:34:45Z</time></trkpt><trkpt lat="42.948410896741755" lon="10.497902611756347"><ele>145.0</ele><time>2026-04-19T12:34:46Z</time></trkpt><trkpt lat="42.94833830852322" lon="10.497917518452603"><ele>145.33333333333334</ele><time>2026-04-19T12:34:47Z</time></trkpt><trkpt lat="42.94825853272437" lon="10.49792388039201"><ele>145.66666666666669</ele><time>2026-04-19T12:34:48Z</time></trkpt><trkpt lat="42.94817588923212" lon="10.497928327002247"><ele>146.0</ele><time>2026-04-19T12:34:49Z</time></trkpt><trkpt lat="42.94809622585575" lon="10.497944608962472"><ele>146.33333333333334</ele><time>2026-04-19T12:34:50Z</time></trkpt><trkpt lat="42.948009868382215" lon="10.497932953856203"><ele>146.66666666666666</ele><time>2026-04-19T12:34:51Z</time></trkpt><trkpt lat="42.94791680473191" lon="10.497945936100882"><ele>147.0</ele><time>2026-04-19T12:34:52Z</time></trkpt><trkpt lat="42.947840861867576" lon="10.497960126879175"><ele>147.0</ele><time>2026-04-19T12:34:53Z</time></trkpt><trkpt lat="42.94777656366073" lon="10.49798425328162"><ele>147.0</ele><time>2026-04-19T12:34:54Z</time></trkpt><trkpt lat="42.94765344517113" lon="10.49794808654072"><ele>147.0</ele><time>2026-04-19T12:34:56Z</time></trkpt><trkpt lat="42.94758643467756" lon="10.497903800576715"><ele>147.0</ele><time>2026-04-19T12:34:57Z</time></trkpt><trkpt lat="42.9475148442146" lon="10.497876752461371"><ele>147.0</ele><time>2026-04-19T12:34:58Z</time></trkpt><trkpt lat="42.947432407897836" lon="10.49785061148137"><ele>147.0</ele><time>2026-04-19T12:34:59Z</time></trkpt><trkpt lat="42.94735406674678" lon="10.49783639895474"><ele>143.66666666666666</ele><time>2026-04-19T12:35:00Z</time></trkpt><trkpt lat="42.94727330250288" lon="10.497811611126828"><ele>140.33333333333334</ele><time>2026-04-19T12:35:01Z</time></trkpt><trkpt lat="42.94719316481012" lon="10.497781423720792"><ele>137.0</ele><time>2026-04-19T12:35:02Z</time></trkpt><trkpt lat="42.94711516724829" lon="10.497757323644043"><ele>133.66666666666669</ele><time>2026-04-19T12:35:03Z</time></trkpt><trkpt lat="42.94704522852368" lon="10.497740050965264"><ele>130.33333333333334</ele><time>2026-04-19T12:35:04Z</time></trkpt><trkpt lat="42.946977633677584" lon="10.497717164759397"><ele>127.0</ele><time>2026-04-19T12:35:05Z</time></trkpt><trkpt lat="42.9469149993429" lon="10.497701823402055"><ele>127.00000000000001</ele><time>2026-04-19T12:35:06Z</time></trkpt><trkpt lat="42.9468387638422" lon="10.497684965284527"><ele>127.0</ele><time>2026-04-19T12:35:07Z</time></trkpt><trkpt lat="42.94675498029187" lon="10.497719328975787"><ele>127.0</ele><time>2026-04-19T12:35:08Z</time></trkpt><trkpt lat="42.94667920823403" lon="10.49774797203002"><ele>127.0</ele><time>2026-04-19T12:35:09Z</time></trkpt><trkpt lat="42.946615772971306" lon="10.497779688276179"><ele>127.00000000000001</ele><time>2026-04-19T12:35:10Z</time></trkpt><trkpt lat="42.94651614440675" lon="10.497885641188317"><ele>127.0</ele><time>2026-04-19T12:35:12Z</time></trkpt><trkpt lat="42.94648715615472" lon="10.497992258017726"><ele>127.0</ele><time>2026-04-19T12:35:13Z</time></trkpt><trkpt lat="42.94645090991635" lon="10.498070828514363"><ele>126.99999999999999</ele><time>2026-04-19T12:35:14Z</time></trkpt><trkpt lat="42.94635162275331" lon="10.498174410754995"><ele>126.99999999999999</ele><time>2026-04-19T12:35:16Z</time></trkpt><trkpt lat="42.946273982965494" lon="10.498223095168532"><ele>127.0</ele><time>2026-04-19T12:35:17Z</time></trkpt><trkpt lat="42.94619383956862" lon="10.498256415907154"><ele>127.0</ele><time>2026-04-19T12:35:18Z</time></trkpt><trkpt lat="42.94610140505968" lon="10.498299250465696"><ele>127.00000000000001</ele><time>2026-04-19T12:35:19Z</time></trkpt><trkpt lat="42.946024922394436" lon="10.49834799794865"><ele>127.0</ele><time>2026-04-19T12:35:20Z</time></trkpt><trkpt lat="42.94595059560899" lon="10.498397297260883"><ele>127.0</ele><time>2026-04-19T12:35:21Z</time></trkpt><trkpt lat="42.94587683426359" lon="10.498460840394968"><ele>127.0</ele><time>2026-04-19T12:35:22Z</time></trkpt><trkpt lat="42.94579516384045" lon="10.498480311496857"><ele>127.00000000000001</ele><time>2026-04-19T12:35:23Z</time></trkpt><trkpt lat="42.945708480617625" lon="10.498521072413219"><ele>127.0</ele><time>2026-04-19T12:35:24Z</time></trkpt><trkpt lat="42.94562511805715" lon="10.498560297315041"><ele>125.33333333333334</ele><time>2026-04-19T12:35:25Z</time></trkpt><trkpt lat="42.94555751658675" lon="10.498594765767157"><ele>123.66666666666667</ele><time>2026-04-19T12:35:26Z</time></trkpt><trkpt lat="42.945452366501975" lon="10.498649681518428"><ele>122.0</ele><time>2026-04-19T12:35:28Z</time></trkpt><trkpt lat="42.94539446344592" lon="10.49868470934953"><ele>120.33333333333334</ele><time>2026-04-19T12:35:29Z</time></trkpt><trkpt lat="42.9453314109507" lon="10.498732206178301"><ele>118.66666666666667</ele><time>2026-04-19T12:35:30Z</time></trkpt><trkpt lat="42.945275253350104" lon="10.498794466310045"><ele>117.0</ele><time>2026-04-19T12:35:31Z</time></trkpt><trkpt lat="42.945226010135876" lon="10.498863223975938"><ele>117.0</ele><time>2026-04-19T12:35:32Z</time></trkpt><trkpt lat="42.94516991088827" lon="10.498946998402939"><ele>117.0</ele><time>2026-04-19T12:35:33Z</time></trkpt><trkpt lat="42.94512870010917" lon="10.499058062936966"><ele>117.0</ele><time>2026-04-19T12:35:34Z</time></trkpt><trkpt lat="42.94512057334605" lon="10.499190907744048"><ele>117.0</ele><time>2026-04-19T12:35:35Z</time></trkpt><trkpt lat="42.945117916624824" lon="10.499293118773533"><ele>117.0</ele><time>2026-04-19T12:35:36Z</time></trkpt><trkpt lat="42.9451079624607" lon="10.49938327663231"><ele>117.0</ele><time>2026-04-19T12:35:37Z</time></trkpt><trkpt lat="42.94509976982342" lon="10.499510403259114"><ele>115.5</ele><time>2026-04-19T12:35:39Z</time></trkpt><trkpt lat="42.94529051674842" lon="10.499666575429382"><ele>114.0</ele><time>2026-04-19T12:35:41Z</time></trkpt><trkpt lat="42.94534163258651" lon="10.499745111783742"><ele>112.5</ele><time>2026-04-19T12:35:42Z</time></trkpt><trkpt lat="42.94539638512391" lon="10.499819656058806"><ele>111.0</ele><time>2026-04-19T12:35:43Z</time></trkpt><trkpt lat="42.945456535239884" lon="10.499896962380598"><ele>111.0</ele><time>2026-04-19T12:35:44Z</time></trkpt><trkpt lat="42.94550875047892" lon="10.49996993925772"><ele>111.0</ele><time>2026-04-19T12:35:45Z</time></trkpt><trkpt lat="42.94555921123937" lon="10.500046535469403"><ele>111.0</ele><time>2026-04-19T12:35:46Z</time></trkpt><trkpt lat="42.94560550940605" lon="10.500123506149537"><ele>111.0</ele><time>2026-04-19T12:35:47Z</time></trkpt><trkpt lat="42.94565133781247" lon="10.500212041238454"><ele>111.0</ele><time>2026-04-19T12:35:48Z</time></trkpt><trkpt lat="42.94569358512928" lon="10.500316548747241"><ele>111.0</ele><time>2026-04-19T12:35:49Z</time></trkpt><trkpt lat="42.9457328751036" lon="10.500434762742811"><ele>111.66666666666667</ele><time>2026-04-19T12:35:50Z</time></trkpt><trkpt lat="42.94577322043765" lon="10.500560843644344"><ele>112.33333333333334</ele><time>2026-04-19T12:35:51Z</time></trkpt><trkpt lat="42.945819040243904" lon="10.500667464821397"><ele>113.0</ele><time>2026-04-19T12:35:52Z</time></trkpt><trkpt lat="42.94587018244057" lon="10.500755933218592"><ele>113.66666666666667</ele><time>2026-04-19T12:35:53Z</time></trkpt><trkpt lat="42.94591354157095" lon="10.500833049551762"><ele>114.33333333333334</ele><time>2026-04-19T12:35:54Z</time></trkpt><trkpt lat="42.94594536575551" lon="10.500938900342378"><ele>115.0</ele><time>2026-04-19T12:35:55Z</time></trkpt><trkpt lat="42.94596546824109" lon="10.501056733026754"><ele>115.00000000000001</ele><time>2026-04-19T12:35:56Z</time></trkpt><trkpt lat="42.94599108800901" lon="10.501161738236782"><ele>115.0</ele><time>2026-04-19T12:35:57Z</time></trkpt><trkpt lat="42.94602549241469" lon="10.501263888058116"><ele>115.0</ele><time>2026-04-19T12:35:58Z</time></trkpt><trkpt lat="42.94606405242728" lon="10.501370217238854"><ele>115.0</ele><time>2026-04-19T12:35:59Z</time></trkpt><trkpt lat="42.94610479868824" lon="10.501483196852593"><ele>115.00000000000001</ele><time>2026-04-19T12:36:00Z</time></trkpt><trkpt lat="42.946152982510135" lon="10.50159756879386"><ele>115.0</ele><time>2026-04-19T12:36:01Z</time></trkpt><trkpt lat="42.94619697517242" lon="10.501712526167015"><ele>112.8</ele><time>2026-04-19T12:36:02Z</time></trkpt><trkpt lat="42.946237673014636" lon="10.501825976019765"><ele>110.6</ele><time>2026-04-19T12:36:03Z</time></trkpt><trkpt lat="42.94627609538929" lon="10.501948385979942"><ele>108.4</ele><time>2026-04-19T12:36:04Z</time></trkpt><trkpt lat="42.94631909064928" lon="10.502075751861389"><ele>106.2</ele><time>2026-04-19T12:36:05Z</time></trkpt><trkpt lat="42.946356609428335" lon="10.502191155595028"><ele>104.0</ele><time>2026-04-19T12:36:06Z</time></trkpt><trkpt lat="42.946397120626045" lon="10.502286746245137"><ele>101.83333333333333</ele><time>2026-04-19T12:36:07Z</time></trkpt><trkpt lat="42.94642305198559" lon="10.502380803354493"><ele>99.66666666666666</ele><time>2026-04-19T12:36:08Z</time></trkpt><trkpt lat="42.94644663291259" lon="10.50249130468057"><ele>97.5</ele><time>2026-04-19T12:36:09Z</time></trkpt><trkpt lat="42.94646103880045" lon="10.50261190780037"><ele>95.33333333333333</ele><time>2026-04-19T12:36:10Z</time></trkpt><trkpt lat="42.94647099661175" lon="10.502734642676058"><ele>93.16666666666666</ele><time>2026-04-19T12:36:11Z</time></trkpt><trkpt lat="42.94648322933797" lon="10.502833227241933"><ele>91.0</ele><time>2026-04-19T12:36:12Z</time></trkpt><trkpt lat="42.9465198275829" lon="10.503010150570338"><ele>90.5</ele><time>2026-04-19T12:36:14Z</time></trkpt><trkpt lat="42.94652960618954" lon="10.503104683601162"><ele>90.0</ele><time>2026-04-19T12:36:15Z</time></trkpt><trkpt lat="42.946542228700615" lon="10.503198345634363"><ele>89.5</ele><time>2026-04-19T12:36:16Z</time></trkpt><trkpt lat="42.946557810758335" lon="10.50328834498625"><ele>89.0</ele><time>2026-04-19T12:36:17Z</time></trkpt><trkpt lat="42.94657207651888" lon="10.503376695184178"><ele>88.5</ele><time>2026-04-19T12:36:18Z</time></trkpt><trkpt lat="42.9465678825167" lon="10.503537713874538"><ele>88.0</ele><time>2026-04-19T12:36:20Z</time></trkpt><trkpt lat="42.94655595793808" lon="10.503626252290678"><ele>88.0</ele><time>2026-04-19T12:36:21Z</time></trkpt><trkpt lat="42.9465571823181" lon="10.503735181296117"><ele>88.0</ele><time>2026-04-19T12:36:22Z</time></trkpt><trkpt lat="42.94656233405556" lon="10.503850091789717"><ele>88.0</ele><time>2026-04-19T12:36:23Z</time></trkpt><trkpt lat="42.94656142261476" lon="10.503965676538066"><ele>88.0</ele><time>2026-04-19T12:36:24Z</time></trkpt><trkpt lat="42.94657644541496" lon="10.504051779099054"><ele>88.0</ele><time>2026-04-19T12:36:25Z</time></trkpt><trkpt lat="42.946356791393626" lon="10.504145400730408"><ele>86.5</ele><time>2026-04-19T12:36:28Z</time></trkpt><trkpt lat="42.94627009408519" lon="10.504085599181705"><ele>85.0</ele><time>2026-04-19T12:36:29Z</time></trkpt><trkpt lat="42.94617485934294" lon="10.504012642589146"><ele>83.5</ele><time>2026-04-19T12:36:30Z</time></trkpt><trkpt lat="42.94607806576452" lon="10.503915085025936"><ele>82.0</ele><time>2026-04-19T12:36:31Z</time></trkpt><trkpt lat="42.94598620294676" lon="10.503796601501788"><ele>80.75</ele><time>2026-04-19T12:36:32Z</time></trkpt><trkpt lat="42.945904445809546" lon="10.503676419103817"><ele>79.5</ele><time>2026-04-19T12:36:33Z</time></trkpt><trkpt lat="42.945821067122026" lon="10.50354746715435"><ele>78.25</ele><time>2026-04-19T12:36:34Z</time></trkpt><trkpt lat="42.945737364289904" lon="10.503416399159788"><ele>77.0</ele><time>2026-04-19T12:36:35Z</time></trkpt><trkpt lat="42.945654117976325" lon="10.503274432673797"><ele>77.0</ele><time>2026-04-19T12:36:36Z</time></trkpt><trkpt lat="42.94557587567159" lon="10.50313588292908"><ele>77.0</ele><time>2026-04-19T12:36:37Z</time></trkpt><trkpt lat="42.94549778689083" lon="10.503006640339462"><ele>77.0</ele><time>2026-04-19T12:36:38Z</time></trkpt><trkpt lat="42.94540942430368" lon="10.502885153574057"><ele>77.0</ele><time>2026-04-19T12:36:39Z</time></trkpt><trkpt lat="42.94531640294552" lon="10.502771831914309"><ele>77.75</ele><time>2026-04-19T12:36:40Z</time></trkpt><trkpt lat="42.94522589037879" lon="10.502652115890404"><ele>78.5</ele><time>2026-04-19T12:36:41Z</time></trkpt><trkpt lat="42.94512941458399" lon="10.502535080913558"><ele>79.25</ele><time>2026-04-19T12:36:42Z</time></trkpt><trkpt lat="42.94503190243324" lon="10.502428257766134"><ele>80.0</ele><time>2026-04-19T12:36:43Z</time></trkpt><trkpt lat="42.94493847724021" lon="10.502320240651112"><ele>79.5</ele><time>2026-04-19T12:36:44Z</time></trkpt><trkpt lat="42.94484352856604" lon="10.502211515512192"><ele>79.0</ele><time>2026-04-19T12:36:45Z</time></trkpt><trkpt lat="42.94473960114352" lon="10.502103430334374"><ele>78.5</ele><time>2026-04-19T12:36:46Z</time></trkpt><trkpt lat="42.94463054452532" lon="10.502001572653553"><ele>78.0</ele><time>2026-04-19T12:36:47Z</time></trkpt><trkpt lat="42.94452285839907" lon="10.501905667672446"><ele>78.0</ele><time>2026-04-19T12:36:48Z</time></trkpt><trkpt lat="42.94442374411382" lon="10.501819605016891"><ele>78.0</ele><time>2026-04-19T12:36:49Z</time></trkpt><trkpt lat="42.94433299812956" lon="10.501741350079339"><ele>78.0</ele><time>2026-04-19T12:36:50Z</time></trkpt><trkpt lat="42.94423548929505" lon="10.501663473345541"><ele>78.0</ele><time>2026-04-19T12:36:51Z</time></trkpt><trkpt lat="42.944126285724316" lon="10.501581860937996"><ele>75.75</ele><time>2026-04-19T12:36:52Z</time></trkpt><trkpt lat="42.943999692405356" lon="10.501506044127169"><ele>73.5</ele><time>2026-04-19T12:36:53Z</time></trkpt><trkpt lat="42.94387078608608" lon="10.50143281936179"><ele>71.25</ele><time>2026-04-19T12:36:54Z</time></trkpt><trkpt lat="42.94374202720913" lon="10.501358027659213"><ele>69.0</ele><time>2026-04-19T12:36:55Z</time></trkpt><trkpt lat="42.94361605411257" lon="10.501292556612762"><ele>68.66666666666667</ele><time>2026-04-19T12:36:56Z</time></trkpt><trkpt lat="42.9434801234353" lon="10.501223639353475"><ele>68.33333333333334</ele><time>2026-04-19T12:36:57Z</time></trkpt><trkpt lat="42.943339687906175" lon="10.501145386455347"><ele>68.0</ele><time>2026-04-19T12:36:58Z</time></trkpt><trkpt lat="42.94319438957427" lon="10.501064595362488"><ele>68.0</ele><time>2026-04-19T12:36:59Z</time></trkpt><trkpt lat="42.9430439660744" lon="10.50098004209887"><ele>68.0</ele><time>2026-04-19T12:37:00Z</time></trkpt><trkpt lat="42.942902013677575" lon="10.500899900507846"><ele>68.0</ele><time>2026-04-19T12:37:01Z</time></trkpt><trkpt lat="42.94276624332857" lon="10.500819492839017"><ele>68.0</ele><time>2026-04-19T12:37:02Z</time></trkpt><trkpt lat="42.942637269757334" lon="10.500743972474988"><ele>68.0</ele><time>2026-04-19T12:37:03Z</time></trkpt><trkpt lat="42.94250617902568" lon="10.500670499073978"><ele>68.0</ele><time>2026-04-19T12:37:04Z</time></trkpt><trkpt lat="42.94237040420709" lon="10.50059474155538"><ele>68.0</ele><time>2026-04-19T12:37:05Z</time></trkpt><trkpt lat="42.942234410750515" lon="10.500517200385755"><ele>67.25</ele><time>2026-04-19T12:37:06Z</time></trkpt><trkpt lat="42.94210297143098" lon="10.500445130937253"><ele>66.5</ele><time>2026-04-19T12:37:07Z</time></trkpt><trkpt lat="42.94198284513484" lon="10.500376695764391"><ele>65.75</ele><time>2026-04-19T12:37:08Z</time></trkpt><trkpt lat="42.94186910290281" lon="10.500314412654069"><ele>65.0</ele><time>2026-04-19T12:37:09Z</time></trkpt><trkpt lat="42.94176571087163" lon="10.500269714985505"><ele>63.8</ele><time>2026-04-19T12:37:10Z</time></trkpt><trkpt lat="42.941660640659066" lon="10.500258785662606"><ele>62.6</ele><time>2026-04-19T12:37:11Z</time></trkpt><trkpt lat="42.941554703208624" lon="10.50028819342432"><ele>61.400000000000006</ele><time>2026-04-19T12:37:12Z</time></trkpt><trkpt lat="42.94146157241391" lon="10.500355603244646"><ele>60.2</ele><time>2026-04-19T12:37:13Z</time></trkpt><trkpt lat="42.94138397967242" lon="10.500472712647706"><ele>59.0</ele><time>2026-04-19T12:37:14Z</time></trkpt><trkpt lat="42.941330036486704" lon="10.500633531146415"><ele>59.0</ele><time>2026-04-19T12:37:15Z</time></trkpt><trkpt lat="42.94128660482109" lon="10.500803117904406"><ele>59.0</ele><time>2026-04-19T12:37:16Z</time></trkpt><trkpt lat="42.94124348593478" lon="10.500984933850049"><ele>59.0</ele><time>2026-04-19T12:37:17Z</time></trkpt><trkpt lat="42.94119171571649" lon="10.501173354222265"><ele>59.0</ele><time>2026-04-19T12:37:18Z</time></trkpt><trkpt lat="42.94113703263597" lon="10.501361545988566"><ele>56.0</ele><time>2026-04-19T12:37:19Z</time></trkpt><trkpt lat="42.94108312860271" lon="10.501552030956418"><ele>53.0</ele><time>2026-04-19T12:37:20Z</time></trkpt><trkpt lat="42.94102791247278" lon="10.501756465783025"><ele>50.0</ele><time>2026-04-19T12:37:21Z</time></trkpt><trkpt lat="42.94096608608794" lon="10.501982168466876"><ele>49.25</ele><time>2026-04-19T12:37:22Z</time></trkpt><trkpt lat="42.9409034620228" lon="10.502204661991136"><ele>48.5</ele><time>2026-04-19T12:37:23Z</time></trkpt><trkpt lat="42.94084958797977" lon="10.502392864274382"><ele>47.75</ele><time>2026-04-19T12:37:24Z</time></trkpt><trkpt lat="42.940810360582596" lon="10.502555100531659"><ele>47.0</ele><time>2026-04-19T12:37:25Z</time></trkpt><trkpt lat="42.94077063630572" lon="10.502711836962302"><ele>46.25</ele><time>2026-04-19T12:37:26Z</time></trkpt><trkpt lat="42.940735343414474" lon="10.502860489918142"><ele>45.5</ele><time>2026-04-19T12:37:27Z</time></trkpt><trkpt lat="42.940696906953896" lon="10.503038497863738"><ele>44.75</ele><time>2026-04-19T12:37:28Z</time></trkpt><trkpt lat="42.94065951939089" lon="10.503231806381184"><ele>44.0</ele><time>2026-04-19T12:37:29Z</time></trkpt><trkpt lat="42.94063563702316" lon="10.503440463611387"><ele>44.0</ele><time>2026-04-19T12:37:30Z</time></trkpt><trkpt lat="42.940626035794075" lon="10.503654369773074"><ele>44.0</ele><time>2026-04-19T12:37:31Z</time></trkpt><trkpt lat="42.940609468031866" lon="10.503845586684417"><ele>44.0</ele><time>2026-04-19T12:37:32Z</time></trkpt><trkpt lat="42.94058325283141" lon="10.504025379843814"><ele>44.0</ele><time>2026-04-19T12:37:33Z</time></trkpt><trkpt lat="42.94054375492885" lon="10.504195528610577"><ele>43.75</ele><time>2026-04-19T12:37:34Z</time></trkpt><trkpt lat="42.94048618752168" lon="10.504366052889814"><ele>43.5</ele><time>2026-04-19T12:37:35Z</time></trkpt><trkpt lat="42.94040714113598" lon="10.504522838734754"><ele>43.25</ele><time>2026-04-19T12:37:36Z</time></trkpt><trkpt lat="42.940308607554854" lon="10.504652267030016"><ele>43.0</ele><time>2026-04-19T12:37:37Z</time></trkpt><trkpt lat="42.940192662022525" lon="10.504748644501424"><ele>43.0</ele><time>2026-04-19T12:37:38Z</time></trkpt><trkpt lat="42.94007024437639" lon="10.504810079305232"><ele>43.0</ele><time>2026-04-19T12:37:39Z</time></trkpt><trkpt lat="42.9399380638145" lon="10.504850004804426"><ele>43.0</ele><time>2026-04-19T12:37:40Z</time></trkpt><trkpt lat="42.939798992587406" lon="10.504875730201624"><ele>43.0</ele><time>2026-04-19T12:37:41Z</time></trkpt><trkpt lat="42.939654953984665" lon="10.50490103129708"><ele>41.75</ele><time>2026-04-19T12:37:42Z</time></trkpt><trkpt lat="42.939511336861806" lon="10.504927660801727"><ele>40.5</ele><time>2026-04-19T12:37:43Z</time></trkpt><trkpt lat="42.93937246972176" lon="10.50495784521609"><ele>39.25</ele><time>2026-04-19T12:37:44Z</time></trkpt><trkpt lat="42.93924310993314" lon="10.505003954714384"><ele>38.0</ele><time>2026-04-19T12:37:45Z</time></trkpt><trkpt lat="42.93911611846363" lon="10.505071312084677"><ele>38.0</ele><time>2026-04-19T12:37:46Z</time></trkpt><trkpt lat="42.93899258698594" lon="10.505164232005464"><ele>38.0</ele><time>2026-04-19T12:37:47Z</time></trkpt><trkpt lat="42.9388809023336" lon="10.505273746353879"><ele>38.0</ele><time>2026-04-19T12:37:48Z</time></trkpt><trkpt lat="42.938781431971044" lon="10.505366919088077"><ele>38.0</ele><time>2026-04-19T12:37:49Z</time></trkpt><trkpt lat="42.93869536160287" lon="10.505442683124187"><ele>38.0</ele><time>2026-04-19T12:37:50Z</time></trkpt><trkpt lat="42.938616821594195" lon="10.505504354798223"><ele>38.0</ele><time>2026-04-19T12:37:51Z</time></trkpt><trkpt lat="42.93854469782432" lon="10.505556516893089"><ele>38.0</ele><time>2026-04-19T12:37:52Z</time></trkpt><trkpt lat="42.93848405870735" lon="10.50559738024224"><ele>38.0</ele><time>2026-04-19T12:37:53Z</time></trkpt><trkpt lat="42.93842536667864" lon="10.50563627102521"><ele>38.0</ele><time>2026-04-19T12:37:54Z</time></trkpt><trkpt lat="42.938310805631765" lon="10.505649520554382"><ele>38.0</ele><time>2026-04-19T12:37:56Z</time></trkpt><trkpt lat="42.93820360004168" lon="10.505656664279142"><ele>37.4</ele><time>2026-04-19T12:37:58Z</time></trkpt><trkpt lat="42.93809669859182" lon="10.505665291051788"><ele>36.8</ele><time>2026-04-19T12:38:00Z</time></trkpt><trkpt lat="42.93797361157556" lon="10.505748692053293"><ele>36.2</ele><time>2026-04-19T12:38:02Z</time></trkpt><trkpt lat="42.93793491058412" lon="10.505849509696482"><ele>35.6</ele><time>2026-04-19T12:38:03Z</time></trkpt><trkpt lat="42.93790993486558" lon="10.50595076960281"><ele>35.0</ele><time>2026-04-19T12:38:04Z</time></trkpt><trkpt lat="42.937885209782486" lon="10.506044828316838"><ele>35.0</ele><time>2026-04-19T12:38:05Z</time></trkpt><trkpt lat="42.937849306972545" lon="10.50612645692658"><ele>35.0</ele><time>2026-04-19T12:38:06Z</time></trkpt><trkpt lat="42.93780140009202" lon="10.506207168505552"><ele>35.0</ele><time>2026-04-19T12:38:07Z</time></trkpt><trkpt lat="42.93774950275997" lon="10.506293628842391"><ele>35.0</ele><time>2026-04-19T12:38:08Z</time></trkpt><trkpt lat="42.937692460313755" lon="10.506386607054782"><ele>35.0</ele><time>2026-04-19T12:38:09Z</time></trkpt><trkpt lat="42.93764200440237" lon="10.506459205620708"><ele>35.0</ele><time>2026-04-19T12:38:10Z</time></trkpt><trkpt lat="42.937573206308286" lon="10.506534231548134"><ele>34.83333333333333</ele><time>2026-04-19T12:38:12Z</time></trkpt><trkpt lat="42.937524668858885" lon="10.50659135426686"><ele>34.666666666666664</ele><time>2026-04-19T12:38:14Z</time></trkpt><trkpt lat="42.93753476240865" lon="10.506683405842233"><ele>34.5</ele><time>2026-04-19T12:38:16Z</time></trkpt><trkpt lat="42.937652761680795" lon="10.506749679119057"><ele>34.333333333333336</ele><time>2026-04-19T12:38:18Z</time></trkpt><trkpt lat="42.93768937418872" lon="10.50684330039027"><ele>34.16666666666667</ele><time>2026-04-19T12:38:19Z</time></trkpt><trkpt lat="42.937734068630085" lon="10.506929010128887"><ele>34.0</ele><time>2026-04-19T12:38:20Z</time></trkpt><trkpt lat="42.93778854399954" lon="10.507023069817562"><ele>35.8</ele><time>2026-04-19T12:38:21Z</time></trkpt><trkpt lat="42.937847771248606" lon="10.507130335757205"><ele>37.599999999999994</ele><time>2026-04-19T12:38:22Z</time></trkpt><trkpt lat="42.93790503816645" lon="10.50722991126669"><ele>39.4</ele><time>2026-04-19T12:38:23Z</time></trkpt><trkpt lat="42.93795554012154" lon="10.507330541827024"><ele>41.199999999999996</ele><time>2026-04-19T12:38:24Z</time></trkpt><trkpt lat="42.938004122072165" lon="10.507432891498752"><ele>43.0</ele><time>2026-04-19T12:38:25Z</time></trkpt><trkpt lat="42.93805845551615" lon="10.507540398117845"><ele>43.0</ele><time>2026-04-19T12:38:26Z</time></trkpt><trkpt lat="42.93812186428316" lon="10.507648092588834"><ele>43.0</ele><time>2026-04-19T12:38:27Z</time></trkpt><trkpt lat="42.938187495103" lon="10.507761167064167"><ele>43.0</ele><time>2026-04-19T12:38:28Z</time></trkpt><trkpt lat="42.938250818805116" lon="10.50787260791434"><ele>43.0</ele><time>2026-04-19T12:38:29Z</time></trkpt><trkpt lat="42.938312615240335" lon="10.507973332139667"><ele>43.0</ele><time>2026-04-19T12:38:30Z</time></trkpt><trkpt lat="42.9383663023279" lon="10.50807364230236"><ele>43.66666666666667</ele><time>2026-04-19T12:38:31Z</time></trkpt><trkpt lat="42.93841388552841" lon="10.508170346394849"><ele>44.333333333333336</ele><time>2026-04-19T12:38:32Z</time></trkpt><trkpt lat="42.9384544889684" lon="10.508268198599273"><ele>45.0</ele><time>2026-04-19T12:38:33Z</time></trkpt><trkpt lat="42.938476819726255" lon="10.50836068668241"><ele>45.666666666666664</ele><time>2026-04-19T12:38:34Z</time></trkpt><trkpt lat="42.938474265547754" lon="10.508455494779183"><ele>46.33333333333333</ele><time>2026-04-19T12:38:35Z</time></trkpt><trkpt lat="42.938439089013904" lon="10.508548055800555"><ele>47.0</ele><time>2026-04-19T12:38:36Z</time></trkpt><trkpt lat="42.938383116853586" lon="10.508639378977552"><ele>47.0</ele><time>2026-04-19T12:38:37Z</time></trkpt><trkpt lat="42.93831299440029" lon="10.50872807995443"><ele>47.0</ele><time>2026-04-19T12:38:38Z</time></trkpt><trkpt lat="42.93824204842224" lon="10.508828890264736"><ele>47.0</ele><time>2026-04-19T12:38:39Z</time></trkpt><trkpt lat="42.938174041432504" lon="10.508928563527265"><ele>47.0</ele><time>2026-04-19T12:38:40Z</time></trkpt><trkpt lat="42.938098093573785" lon="10.509036363517822"><ele>47.0</ele><time>2026-04-19T12:38:41Z</time></trkpt><trkpt lat="42.938014080631156" lon="10.509150809148643"><ele>48.5</ele><time>2026-04-19T12:38:42Z</time></trkpt><trkpt lat="42.9379272090302" lon="10.50926981819881"><ele>50.0</ele><time>2026-04-19T12:38:43Z</time></trkpt><trkpt lat="42.93784010657964" lon="10.509395364668794"><ele>51.5</ele><time>2026-04-19T12:38:44Z</time></trkpt><trkpt lat="42.93775383303813" lon="10.509513173972714"><ele>53.0</ele><time>2026-04-19T12:38:45Z</time></trkpt><trkpt lat="42.937661918542396" lon="10.509619861531224"><ele>52.75</ele><time>2026-04-19T12:38:46Z</time></trkpt><trkpt lat="42.937566179948085" lon="10.509717404550592"><ele>52.5</ele><time>2026-04-19T12:38:47Z</time></trkpt><trkpt lat="42.93746913426734" lon="10.50980753811385"><ele>52.25</ele><time>2026-04-19T12:38:48Z</time></trkpt><trkpt lat="42.93735998959285" lon="10.509884336441734"><ele>52.0</ele><time>2026-04-19T12:38:49Z</time></trkpt><trkpt lat="42.93725144441122" lon="10.509934718719094"><ele>52.0</ele><time>2026-04-19T12:38:50Z</time></trkpt><trkpt lat="42.93713841476748" lon="10.50996937991645"><ele>52.0</ele><time>2026-04-19T12:38:51Z</time></trkpt><trkpt lat="42.93701960982984" lon="10.509998702629323"><ele>52.0</ele><time>2026-04-19T12:38:52Z</time></trkpt><trkpt lat="42.93689588381336" lon="10.510032152652439"><ele>52.0</ele><time>2026-04-19T12:38:53Z</time></trkpt><trkpt lat="42.936767379983934" lon="10.51006172997139"><ele>51.25</ele><time>2026-04-19T12:38:54Z</time></trkpt><trkpt lat="42.93663350038567" lon="10.510090807029625"><ele>50.5</ele><time>2026-04-19T12:38:55Z</time></trkpt><trkpt lat="42.93649119093685" lon="10.510130661399122"><ele>49.75</ele><time>2026-04-19T12:38:56Z</time></trkpt><trkpt lat="42.93634467492116" lon="10.510177202646608"><ele>49.0</ele><time>2026-04-19T12:38:57Z</time></trkpt><trkpt lat="42.93620242498577" lon="10.51023933530628"><ele>49.0</ele><time>2026-04-19T12:38:58Z</time></trkpt><trkpt lat="42.936061190306596" lon="10.51032674380261"><ele>49.0</ele><time>2026-04-19T12:38:59Z</time></trkpt><trkpt lat="42.935936951385365" lon="10.510428801614074"><ele>49.0</ele><time>2026-04-19T12:39:00Z</time></trkpt><trkpt lat="42.935827266784266" lon="10.510541596367027"><ele>49.0</ele><time>2026-04-19T12:39:01Z</time></trkpt><trkpt lat="42.935721415314" lon="10.510669160206609"><ele>51.33333333333333</ele><time>2026-04-19T12:39:02Z</time></trkpt><trkpt lat="42.93562623412672" lon="10.51082015021729"><ele>53.66666666666667</ele><time>2026-04-19T12:39:03Z</time></trkpt><trkpt lat="42.93553919038908" lon="10.510987470640526"><ele>56.0</ele><time>2026-04-19T12:39:04Z</time></trkpt><trkpt lat="42.93545820591219" lon="10.511169494736874"><ele>59.0</ele><time>2026-04-19T12:39:05Z</time></trkpt><trkpt lat="42.93539654503002" lon="10.511363106055821"><ele>62.0</ele><time>2026-04-19T12:39:06Z</time></trkpt><trkpt lat="42.93535358914889" lon="10.51155786373403"><ele>65.0</ele><time>2026-04-19T12:39:07Z</time></trkpt><trkpt lat="42.9353246876261" lon="10.511757417697853"><ele>65.0</ele><time>2026-04-19T12:39:08Z</time></trkpt><trkpt lat="42.93531058825896" lon="10.511960462552173"><ele>65.0</ele><time>2026-04-19T12:39:09Z</time></trkpt><trkpt lat="42.93530815399445" lon="10.512161082761438"><ele>65.0</ele><time>2026-04-19T12:39:10Z</time></trkpt><trkpt lat="42.935316488439774" lon="10.51236634441853"><ele>65.0</ele><time>2026-04-19T12:39:11Z</time></trkpt><trkpt lat="42.935336051957954" lon="10.512575173791653"><ele>65.33333333333334</ele><time>2026-04-19T12:39:12Z</time></trkpt><trkpt lat="42.935362011200866" lon="10.51278519710784"><ele>65.66666666666667</ele><time>2026-04-19T12:39:13Z</time></trkpt><trkpt lat="42.935397599575886" lon="10.5130009526022"><ele>66.0</ele><time>2026-04-19T12:39:14Z</time></trkpt><trkpt lat="42.935442694769264" lon="10.513220428892119"><ele>66.0</ele><time>2026-04-19T12:39:15Z</time></trkpt><trkpt lat="42.93549285641233" lon="10.51341971029426"><ele>66.0</ele><time>2026-04-19T12:39:16Z</time></trkpt><trkpt lat="42.93554971685102" lon="10.513599022203769"><ele>66.0</ele><time>2026-04-19T12:39:17Z</time></trkpt><trkpt lat="42.9356077258469" lon="10.513777397431499"><ele>66.0</ele><time>2026-04-19T12:39:18Z</time></trkpt><trkpt lat="42.935668111113316" lon="10.513953749619352"><ele>65.5</ele><time>2026-04-19T12:39:19Z</time></trkpt><trkpt lat="42.93573354724536" lon="10.514130350639297"><ele>65.0</ele><time>2026-04-19T12:39:20Z</time></trkpt><trkpt lat="42.93580220925658" lon="10.514299273515146"><ele>64.5</ele><time>2026-04-19T12:39:21Z</time></trkpt><trkpt lat="42.93586884147886" lon="10.514469729157392"><ele>64.0</ele><time>2026-04-19T12:39:22Z</time></trkpt><trkpt lat="42.935933477523825" lon="10.514642312053855"><ele>65.25</ele><time>2026-04-19T12:39:23Z</time></trkpt><trkpt lat="42.93599831778641" lon="10.514817396403199"><ele>66.5</ele><time>2026-04-19T12:39:24Z</time></trkpt><trkpt lat="42.93606047704846" lon="10.514993099605904"><ele>67.75</ele><time>2026-04-19T12:39:25Z</time></trkpt><trkpt lat="42.93612670671067" lon="10.515168494317216"><ele>69.0</ele><time>2026-04-19T12:39:26Z</time></trkpt><trkpt lat="42.93619588922561" lon="10.515342564515594"><ele>67.25</ele><time>2026-04-19T12:39:27Z</time></trkpt><trkpt lat="42.93626321325363" lon="10.51551484085265"><ele>65.5</ele><time>2026-04-19T12:39:28Z</time></trkpt><trkpt lat="42.936329544179394" lon="10.515679484430022"><ele>63.75</ele><time>2026-04-19T12:39:29Z</time></trkpt><trkpt lat="42.936397726904985" lon="10.515837301755402"><ele>62.0</ele><time>2026-04-19T12:39:30Z</time></trkpt><trkpt lat="42.93646347647551" lon="10.516002437539534"><ele>62.0</ele><time>2026-04-19T12:39:31Z</time></trkpt><trkpt lat="42.93652935464085" lon="10.516169407090654"><ele>62.0</ele><time>2026-04-19T12:39:32Z</time></trkpt><trkpt lat="42.93659719161129" lon="10.516338900760323"><ele>62.0</ele><time>2026-04-19T12:39:33Z</time></trkpt><trkpt lat="42.93664991662944" lon="10.516520052621187"><ele>62.0</ele><time>2026-04-19T12:39:34Z</time></trkpt><trkpt lat="42.936716731750565" lon="10.51669366179342"><ele>61.75</ele><time>2026-04-19T12:39:35Z</time></trkpt><trkpt lat="42.936784977863134" lon="10.51686272019866"><ele>61.5</ele><time>2026-04-19T12:39:36Z</time></trkpt><trkpt lat="42.93684475019521" lon="10.517023823360583"><ele>61.25</ele><time>2026-04-19T12:39:37Z</time></trkpt><trkpt lat="42.936902322631056" lon="10.517176934150594"><ele>61.0</ele><time>2026-04-19T12:39:38Z</time></trkpt><trkpt lat="42.93695692227668" lon="10.517313174916257"><ele>60.666666666666664</ele><time>2026-04-19T12:39:39Z</time></trkpt><trkpt lat="42.9370056466567" lon="10.517437678796481"><ele>60.33333333333333</ele><time>2026-04-19T12:39:40Z</time></trkpt><trkpt lat="42.93704484810751" lon="10.517549983431138"><ele>60.0</ele><time>2026-04-19T12:39:41Z</time></trkpt><trkpt lat="42.937070987341805" lon="10.517655028252483"><ele>59.66666666666667</ele><time>2026-04-19T12:39:42Z</time></trkpt><trkpt lat="42.937085102855505" lon="10.51775168616506"><ele>59.333333333333336</ele><time>2026-04-19T12:39:43Z</time></trkpt><trkpt lat="42.93710900704231" lon="10.517871878241548"><ele>59.0</ele><time>2026-04-19T12:39:44Z</time></trkpt><trkpt lat="42.93715064648958" lon="10.517998839857594"><ele>59.0</ele><time>2026-04-19T12:39:45Z</time></trkpt><trkpt lat="42.937216957616464" lon="10.518141305097016"><ele>59.00000000000001</ele><time>2026-04-19T12:39:46Z</time></trkpt><trkpt lat="42.93725918584276" lon="10.518252728439059"><ele>59.00000000000001</ele><time>2026-04-19T12:39:47Z</time></trkpt><trkpt lat="42.93730445963064" lon="10.518402846104934"><ele>59.0</ele><time>2026-04-19T12:39:48Z</time></trkpt><trkpt lat="42.93734210405268" lon="10.518544685058348"><ele>59.0</ele><time>2026-04-19T12:39:49Z</time></trkpt><trkpt lat="42.93737655771919" lon="10.518681244445355"><ele>59.2</ele><time>2026-04-19T12:39:50Z</time></trkpt><trkpt lat="42.93740925718824" lon="10.518816297641356"><ele>59.400000000000006</ele><time>2026-04-19T12:39:51Z</time></trkpt><trkpt lat="42.93743792287348" lon="10.51895694483892"><ele>59.6</ele><time>2026-04-19T12:39:52Z</time></trkpt><trkpt lat="42.937461815604266" lon="10.519106636742158"><ele>59.8</ele><time>2026-04-19T12:39:53Z</time></trkpt><trkpt lat="42.93748267842827" lon="10.519271378876066"><ele>60.0</ele><time>2026-04-19T12:39:54Z</time></trkpt><trkpt lat="42.937505751863064" lon="10.519438421407777"><ele>59.75</ele><time>2026-04-19T12:39:55Z</time></trkpt><trkpt lat="42.937531710991486" lon="10.519611548644702"><ele>59.5</ele><time>2026-04-19T12:39:56Z</time></trkpt><trkpt lat="42.937553114893454" lon="10.519786305125715"><ele>59.25</ele><time>2026-04-19T12:39:57Z</time></trkpt><trkpt lat="42.93757234477533" lon="10.519966130690694"><ele>59.0</ele><time>2026-04-19T12:39:58Z</time></trkpt><trkpt lat="42.93758808224983" lon="10.520128123216647"><ele>59.2</ele><time>2026-04-19T12:39:59Z</time></trkpt><trkpt lat="42.93760114663137" lon="10.520280309968532"><ele>59.400000000000006</ele><time>2026-04-19T12:40:00Z</time></trkpt><trkpt lat="42.9376170404446" lon="10.52041805712219"><ele>59.6</ele><time>2026-04-19T12:40:01Z</time></trkpt><trkpt lat="42.937627928021975" lon="10.520537171353714"><ele>59.8</ele><time>2026-04-19T12:40:02Z</time></trkpt><trkpt lat="42.937635372169346" lon="10.520655805183846"><ele>60.0</ele><time>2026-04-19T12:40:03Z</time></trkpt><trkpt lat="42.93764796492691" lon="10.520785272034056"><ele>60.0</ele><time>2026-04-19T12:40:04Z</time></trkpt><trkpt lat="42.93766216853559" lon="10.520920830017337"><ele>60.0</ele><time>2026-04-19T12:40:05Z</time></trkpt><trkpt lat="42.93767516887974" lon="10.521071739477472"><ele>60.0</ele><time>2026-04-19T12:40:06Z</time></trkpt><trkpt lat="42.93769095222293" lon="10.521236246723939"><ele>60.0</ele><time>2026-04-19T12:40:07Z</time></trkpt><trkpt lat="42.9377074670466" lon="10.521422025539296"><ele>60.25</ele><time>2026-04-19T12:40:08Z</time></trkpt><trkpt lat="42.937718499262104" lon="10.52160656075042"><ele>60.5</ele><time>2026-04-19T12:40:09Z</time></trkpt><trkpt lat="42.9377328764097" lon="10.521772296127265"><ele>60.75</ele><time>2026-04-19T12:40:10Z</time></trkpt><trkpt lat="42.93773585951694" lon="10.521920555069288"><ele>61.0</ele><time>2026-04-19T12:40:11Z</time></trkpt><trkpt lat="42.93773783570311" lon="10.522088225502875"><ele>61.0</ele><time>2026-04-19T12:40:12Z</time></trkpt><trkpt lat="42.93774151036162" lon="10.522271205442252"><ele>60.99999999999999</ele><time>2026-04-19T12:40:13Z</time></trkpt><trkpt lat="42.9377442418407" lon="10.522438421606363"><ele>60.99999999999999</ele><time>2026-04-19T12:40:14Z</time></trkpt><trkpt lat="42.93774058710186" lon="10.522566897952144"><ele>61.0</ele><time>2026-04-19T12:40:15Z</time></trkpt><trkpt lat="42.93773422166909" lon="10.52267765662817"><ele>61.0</ele><time>2026-04-19T12:40:16Z</time></trkpt><trkpt lat="42.93770581135561" lon="10.522773794393682"><ele>60.99999999999999</ele><time>2026-04-19T12:40:17Z</time></trkpt><trkpt lat="42.937671881509104" lon="10.52284892486847"><ele>61.0</ele><time>2026-04-19T12:40:18Z</time></trkpt><trkpt lat="42.93764424203798" lon="10.522931626598151"><ele>61.0</ele><time>2026-04-19T12:40:19Z</time></trkpt><trkpt lat="42.93765388667547" lon="10.523020381000327"><ele>61.0</ele><time>2026-04-19T12:40:20Z</time></trkpt><trkpt lat="42.937753691550505" lon="10.52310318302852"><ele>60.99999999999999</ele><time>2026-04-19T12:40:22Z</time></trkpt><trkpt lat="42.937819376033865" lon="10.523063728765482"><ele>61.0</ele><time>2026-04-19T12:40:23Z</time></trkpt><trkpt lat="42.937901639197314" lon="10.522987289567316"><ele>61.199999999999996</ele><time>2026-04-19T12:40:24Z</time></trkpt><trkpt lat="42.93799651074838" lon="10.522949172019306"><ele>61.39999999999999</ele><time>2026-04-19T12:40:25Z</time></trkpt><trkpt lat="42.9381076810415" lon="10.52298581199983"><ele>61.6</ele><time>2026-04-19T12:40:26Z</time></trkpt><trkpt lat="42.9382198755897" lon="10.523041757524043"><ele>61.8</ele><time>2026-04-19T12:40:27Z</time></trkpt><trkpt lat="42.938324727854585" lon="10.52308665875692"><ele>62.0</ele><time>2026-04-19T12:40:28Z</time></trkpt><trkpt lat="42.93843179782829" lon="10.52315783877855"><ele>62.75</ele><time>2026-04-19T12:40:29Z</time></trkpt><trkpt lat="42.938574602718994" lon="10.5231976334524"><ele>63.5</ele><time>2026-04-19T12:40:30Z</time></trkpt><trkpt lat="42.93869970720485" lon="10.523259350153532"><ele>64.25</ele><time>2026-04-19T12:40:31Z</time></trkpt><trkpt lat="42.938845367224786" lon="10.52331439727089"><ele>65.0</ele><time>2026-04-19T12:40:32Z</time></trkpt><trkpt lat="42.939001343069904" lon="10.52337702460415"><ele>65.0</ele><time>2026-04-19T12:40:33Z</time></trkpt><trkpt lat="42.93914540043622" lon="10.523437943527835"><ele>65.0</ele><time>2026-04-19T12:40:34Z</time></trkpt><trkpt lat="42.93927426947857" lon="10.523479885888515"><ele>65.0</ele><time>2026-04-19T12:40:35Z</time></trkpt><trkpt lat="42.93938485119885" lon="10.523531019689083"><ele>65.0</ele><time>2026-04-19T12:40:36Z</time></trkpt><trkpt lat="42.939499223414145" lon="10.523567528311407"><ele>66.0</ele><time>2026-04-19T12:40:37Z</time></trkpt><trkpt lat="42.9396145668072" lon="10.523600283304662"><ele>67.0</ele><time>2026-04-19T12:40:38Z</time></trkpt><trkpt lat="42.939738631773125" lon="10.523633272908372"><ele>68.0</ele><time>2026-04-19T12:40:39Z</time></trkpt><trkpt lat="42.93987006370531" lon="10.523679061405911"><ele>69.0</ele><time>2026-04-19T12:40:40Z</time></trkpt><trkpt lat="42.939996754168625" lon="10.523715556766142"><ele>69.75</ele><time>2026-04-19T12:40:41Z</time></trkpt><trkpt lat="42.9401256395045" lon="10.523738062869453"><ele>70.5</ele><time>2026-04-19T12:40:42Z</time></trkpt><trkpt lat="42.94026245638022" lon="10.523732961496258"><ele>71.25</ele><time>2026-04-19T12:40:43Z</time></trkpt><trkpt lat="42.94040989192491" lon="10.523719092656323"><ele>72.0</ele><time>2026-04-19T12:40:44Z</time></trkpt><trkpt lat="42.94055880066855" lon="10.52369266281723"><ele>72.0</ele><time>2026-04-19T12:40:45Z</time></trkpt><trkpt lat="42.94070923617642" lon="10.523655970687184"><ele>72.0</ele><time>2026-04-19T12:40:46Z</time></trkpt><trkpt lat="42.94085739743115" lon="10.523627673651736"><ele>72.0</ele><time>2026-04-19T12:40:47Z</time></trkpt><trkpt lat="42.940992598650645" lon="10.523593596346133"><ele>72.0</ele><time>2026-04-19T12:40:48Z</time></trkpt><trkpt lat="42.94112766472481" lon="10.52355254395836"><ele>72.5</ele><time>2026-04-19T12:40:49Z</time></trkpt><trkpt lat="42.94126865178369" lon="10.523519536853982"><ele>73.0</ele><time>2026-04-19T12:40:50Z</time></trkpt><trkpt lat="42.94140911994861" lon="10.523483742426466"><ele>73.5</ele><time>2026-04-19T12:40:51Z</time></trkpt><trkpt lat="42.941541700710616" lon="10.523454549214387"><ele>74.0</ele><time>2026-04-19T12:40:52Z</time></trkpt><trkpt lat="42.941668431092445" lon="10.523430220653056"><ele>75.75</ele><time>2026-04-19T12:40:53Z</time></trkpt><trkpt lat="42.941795648274436" lon="10.523408773302172"><ele>77.5</ele><time>2026-04-19T12:40:54Z</time></trkpt><trkpt lat="42.94192051182348" lon="10.523383066879617"><ele>79.25</ele><time>2026-04-19T12:40:55Z</time></trkpt><trkpt lat="42.942039990361664" lon="10.52334397395942"><ele>81.0</ele><time>2026-04-19T12:40:56Z</time></trkpt><trkpt lat="42.94214032650468" lon="10.523279804084382"><ele>81.0</ele><time>2026-04-19T12:40:57Z</time></trkpt><trkpt lat="42.94221099357684" lon="10.523183054997563"><ele>81.0</ele><time>2026-04-19T12:40:58Z</time></trkpt><trkpt lat="42.942255427882074" lon="10.523043997768625"><ele>81.0</ele><time>2026-04-19T12:40:59Z</time></trkpt><trkpt lat="42.94226217960783" lon="10.522869106839535"><ele>81.0</ele><time>2026-04-19T12:41:00Z</time></trkpt><trkpt lat="42.94224772261967" lon="10.52267877030938"><ele>81.5</ele><time>2026-04-19T12:41:01Z</time></trkpt><trkpt lat="42.9422173073902" lon="10.522486911001925"><ele>82.0</ele><time>2026-04-19T12:41:02Z</time></trkpt><trkpt lat="42.94222371733831" lon="10.522279244541627"><ele>82.5</ele><time>2026-04-19T12:41:03Z</time></trkpt><trkpt lat="42.942225864187655" lon="10.522075981971966"><ele>83.0</ele><time>2026-04-19T12:41:04Z</time></trkpt><trkpt lat="42.94225317650142" lon="10.521875779096874"><ele>83.5</ele><time>2026-04-19T12:41:05Z</time></trkpt><trkpt lat="42.94225185270688" lon="10.521684011473111"><ele>84.0</ele><time>2026-04-19T12:41:06Z</time></trkpt><trkpt lat="42.94225626156477" lon="10.52148996621157"><ele>84.5</ele><time>2026-04-19T12:41:07Z</time></trkpt><trkpt lat="42.942271133297886" lon="10.521303140179507"><ele>85.0</ele><time>2026-04-19T12:41:08Z</time></trkpt><trkpt lat="42.94229679726447" lon="10.52112722817756"><ele>85.5</ele><time>2026-04-19T12:41:09Z</time></trkpt><trkpt lat="42.94232890339399" lon="10.520972979756545"><ele>86.0</ele><time>2026-04-19T12:41:10Z</time></trkpt><trkpt lat="42.94237662534783" lon="10.520826991930784"><ele>86.5</ele><time>2026-04-19T12:41:11Z</time></trkpt><trkpt lat="42.94244348045449" lon="10.520683958758205"><ele>87.0</ele><time>2026-04-19T12:41:12Z</time></trkpt><trkpt lat="42.942521544266036" lon="10.52053794874503"><ele>89.25</ele><time>2026-04-19T12:41:13Z</time></trkpt><trkpt lat="42.942618523998995" lon="10.520392216585986"><ele>91.5</ele><time>2026-04-19T12:41:14Z</time></trkpt><trkpt lat="42.94271031791278" lon="10.520236706958263"><ele>93.75</ele><time>2026-04-19T12:41:15Z</time></trkpt><trkpt lat="42.94281398742782" lon="10.520095906756735"><ele>96.0</ele><time>2026-04-19T12:41:16Z</time></trkpt><trkpt lat="42.94291578219757" lon="10.519943187259793"><ele>96.0</ele><time>2026-04-19T12:41:17Z</time></trkpt><trkpt lat="42.94301305104241" lon="10.519800228922255"><ele>96.0</ele><time>2026-04-19T12:41:18Z</time></trkpt><trkpt lat="42.94310419195932" lon="10.519664482436957"><ele>96.0</ele><time>2026-04-19T12:41:19Z</time></trkpt><trkpt lat="42.943184294701204" lon="10.519516367218301"><ele>96.0</ele><time>2026-04-19T12:41:20Z</time></trkpt><trkpt lat="42.94324681417277" lon="10.519340688867292"><ele>94.25</ele><time>2026-04-19T12:41:21Z</time></trkpt><trkpt lat="42.94330665734737" lon="10.51915936516691"><ele>92.5</ele><time>2026-04-19T12:41:22Z</time></trkpt><trkpt lat="42.9433273188402" lon="10.518963268571923"><ele>90.75</ele><time>2026-04-19T12:41:23Z</time></trkpt><trkpt lat="42.94332162949741" lon="10.51879483118668"><ele>89.0</ele><time>2026-04-19T12:41:24Z</time></trkpt><trkpt lat="42.94330026289868" lon="10.518644731405756"><ele>89.0</ele><time>2026-04-19T12:41:25Z</time></trkpt><trkpt lat="42.94327610668499" lon="10.51853881977988"><ele>89.0</ele><time>2026-04-19T12:41:26Z</time></trkpt><trkpt lat="42.94324966498352" lon="10.518459146637722"><ele>89.0</ele><time>2026-04-19T12:41:27Z</time></trkpt><trkpt lat="42.94327897782335" lon="10.518377522900423"><ele>89.0</ele><time>2026-04-19T12:41:30Z</time></trkpt><trkpt lat="42.94336085695885" lon="10.518295461898187"><ele>89.0</ele><time>2026-04-19T12:41:32Z</time></trkpt><trkpt lat="42.94342993401572" lon="10.518244724794831"><ele>89.0</ele><time>2026-04-19T12:41:33Z</time></trkpt><trkpt lat="42.94352012411608" lon="10.518179240982228"><ele>89.0</ele><time>2026-04-19T12:41:34Z</time></trkpt><trkpt lat="42.943608813019324" lon="10.518092477200797"><ele>89.0</ele><time>2026-04-19T12:41:35Z</time></trkpt><trkpt lat="42.943723976145435" lon="10.518008522970367"><ele>89.0</ele><time>2026-04-19T12:41:36Z</time></trkpt><trkpt lat="42.94384338313947" lon="10.517914994713186"><ele>89.0</ele><time>2026-04-19T12:41:37Z</time></trkpt><trkpt lat="42.94397294111028" lon="10.517814684056406"><ele>89.4</ele><time>2026-04-19T12:41:38Z</time></trkpt><trkpt lat="42.94409925228295" lon="10.51772083220588"><ele>89.80000000000001</ele><time>2026-04-19T12:41:39Z</time></trkpt><trkpt lat="42.94419082639814" lon="10.517654913082872"><ele>90.19999999999999</ele><time>2026-04-19T12:41:40Z</time></trkpt><trkpt lat="42.9442604162816" lon="10.517601305021493"><ele>90.6</ele><time>2026-04-19T12:41:41Z</time></trkpt><trkpt lat="42.94432499546081" lon="10.517550964851072"><ele>91.0</ele><time>2026-04-19T12:41:42Z</time></trkpt><trkpt lat="42.94439537222931" lon="10.517496558524165"><ele>91.0</ele><time>2026-04-19T12:41:43Z</time></trkpt><trkpt lat="42.944471411397565" lon="10.51744822580693"><ele>91.0</ele><time>2026-04-19T12:41:44Z</time></trkpt><trkpt lat="42.94454375484974" lon="10.517394963582404"><ele>91.0</ele><time>2026-04-19T12:41:45Z</time></trkpt><trkpt lat="42.94461832874718" lon="10.517334309359367"><ele>91.0</ele><time>2026-04-19T12:41:46Z</time></trkpt><trkpt lat="42.94469431281511" lon="10.517277560365429"><ele>91.0</ele><time>2026-04-19T12:41:47Z</time></trkpt><trkpt lat="42.94477283936318" lon="10.51722378237573"><ele>91.0</ele><time>2026-04-19T12:41:48Z</time></trkpt><trkpt lat="42.94485481680157" lon="10.51715928064548"><ele>91.0</ele><time>2026-04-19T12:41:49Z</time></trkpt><trkpt lat="42.94493443705075" lon="10.517096730211785"><ele>91.0</ele><time>2026-04-19T12:41:50Z</time></trkpt><trkpt lat="42.94501633582335" lon="10.517034430509137"><ele>91.0</ele><time>2026-04-19T12:41:51Z</time></trkpt><trkpt lat="42.94509519771313" lon="10.516974858069052"><ele>91.0</ele><time>2026-04-19T12:41:52Z</time></trkpt><trkpt lat="42.94517256594456" lon="10.516913613385745"><ele>91.0</ele><time>2026-04-19T12:41:53Z</time></trkpt><trkpt lat="42.945247530326135" lon="10.51685232051364"><ele>92.0</ele><time>2026-04-19T12:41:54Z</time></trkpt><trkpt lat="42.9453200674428" lon="10.516801580280386"><ele>93.0</ele><time>2026-04-19T12:41:55Z</time></trkpt><trkpt lat="42.94539410648617" lon="10.516742781664265"><ele>94.0</ele><time>2026-04-19T12:41:56Z</time></trkpt><trkpt lat="42.94547209884778" lon="10.516685669575422"><ele>95.0</ele><time>2026-04-19T12:41:57Z</time></trkpt><trkpt lat="42.94554662618381" lon="10.516629433437132"><ele>96.00000000000001</ele><time>2026-04-19T12:41:58Z</time></trkpt><trkpt lat="42.94561805429818" lon="10.516575623339394"><ele>97.0</ele><time>2026-04-19T12:41:59Z</time></trkpt><trkpt lat="42.945687781701174" lon="10.516525536571013"><ele>97.00000000000001</ele><time>2026-04-19T12:42:00Z</time></trkpt><trkpt lat="42.94576016209488" lon="10.516480826271792"><ele>97.0</ele><time>2026-04-19T12:42:01Z</time></trkpt><trkpt lat="42.945819048300265" lon="10.516426576770817"><ele>97.0</ele><time>2026-04-19T12:42:02Z</time></trkpt><trkpt lat="42.945882979407585" lon="10.516403724632104"><ele>97.0</ele><time>2026-04-19T12:42:04Z</time></trkpt><trkpt lat="42.94589462930378" lon="10.516572815874428"><ele>97.00000000000001</ele><time>2026-04-19T12:42:06Z</time></trkpt><trkpt lat="42.94586705795476" lon="10.516696470311365"><ele>97.0</ele><time>2026-04-19T12:42:07Z</time></trkpt><trkpt lat="42.94585859468358" lon="10.516843271314608"><ele>98.0</ele><time>2026-04-19T12:42:08Z</time></trkpt><trkpt lat="42.94588257354163" lon="10.517037199217095"><ele>99.0</ele><time>2026-04-19T12:42:09Z</time></trkpt><trkpt lat="42.945903379612744" lon="10.517210567081413"><ele>100.0</ele><time>2026-04-19T12:42:10Z</time></trkpt><trkpt lat="42.94591725123418" lon="10.51736359607531"><ele>101.0</ele><time>2026-04-19T12:42:11Z</time></trkpt><trkpt lat="42.945938254083856" lon="10.517495643839872"><ele>101.0</ele><time>2026-04-19T12:42:12Z</time></trkpt><trkpt lat="42.945950232157315" lon="10.517608448265293"><ele>101.0</ele><time>2026-04-19T12:42:13Z</time></trkpt><trkpt lat="42.945981088303704" lon="10.517747231711699"><ele>101.0</ele><time>2026-04-19T12:42:15Z</time></trkpt><trkpt lat="42.946088553372135" lon="10.517804548970275"><ele>101.0</ele><time>2026-04-19T12:42:17Z</time></trkpt><trkpt lat="42.946190301284496" lon="10.517775619116964"><ele>101.0</ele><time>2026-04-19T12:42:18Z</time></trkpt><trkpt lat="42.94628791033267" lon="10.517757678990122"><ele>101.0</ele><time>2026-04-19T12:42:19Z</time></trkpt><trkpt lat="42.94635697318369" lon="10.517780854646036"><ele>101.0</ele><time>2026-04-19T12:42:20Z</time></trkpt><trkpt lat="42.94642887297092" lon="10.517854138252014"><ele>101.0</ele><time>2026-04-19T12:42:21Z</time></trkpt><trkpt lat="42.94650984427405" lon="10.517958660297957"><ele>101.0</ele><time>2026-04-19T12:42:22Z</time></trkpt><trkpt lat="42.94661042217915" lon="10.518071693613008"><ele>101.0</ele><time>2026-04-19T12:42:23Z</time></trkpt><trkpt lat="42.94671522948988" lon="10.518166394345595"><ele>101.6</ele><time>2026-04-19T12:42:24Z</time></trkpt><trkpt lat="42.946798565597085" lon="10.51825556401354"><ele>102.19999999999999</ele><time>2026-04-19T12:42:25Z</time></trkpt><trkpt lat="42.94687097495142" lon="10.518337353512674"><ele>102.80000000000001</ele><time>2026-04-19T12:42:26Z</time></trkpt><trkpt lat="42.946938452677045" lon="10.518430099017404"><ele>103.4</ele><time>2026-04-19T12:42:27Z</time></trkpt><trkpt lat="42.94699213351825" lon="10.518526593469788"><ele>104.0</ele><time>2026-04-19T12:42:28Z</time></trkpt><trkpt lat="42.94705483536599" lon="10.518611527079003"><ele>104.0</ele><time>2026-04-19T12:42:29Z</time></trkpt><trkpt lat="42.94713289983213" lon="10.518672714572673"><ele>104.0</ele><time>2026-04-19T12:42:30Z</time></trkpt><trkpt lat="42.94721976655738" lon="10.518733602998214"><ele>104.0</ele><time>2026-04-19T12:42:31Z</time></trkpt><trkpt lat="42.94729528509519" lon="10.51880427574376"><ele>104.0</ele><time>2026-04-19T12:42:32Z</time></trkpt><trkpt lat="42.94737126493043" lon="10.51887114683397"><ele>104.0</ele><time>2026-04-19T12:42:33Z</time></trkpt><trkpt lat="42.94745109136507" lon="10.518946634676487"><ele>104.0</ele><time>2026-04-19T12:42:34Z</time></trkpt><trkpt lat="42.94753645726048" lon="10.51902708456023"><ele>104.0</ele><time>2026-04-19T12:42:35Z</time></trkpt><trkpt lat="42.94762281944893" lon="10.519104525578879"><ele>104.0</ele><time>2026-04-19T12:42:36Z</time></trkpt><trkpt lat="42.947708361817185" lon="10.519182647393164"><ele>104.0</ele><time>2026-04-19T12:42:37Z</time></trkpt><trkpt lat="42.94779169308203" lon="10.5192602221916"><ele>104.0</ele><time>2026-04-19T12:42:38Z</time></trkpt><trkpt lat="42.947865414956695" lon="10.519324436541801"><ele>104.85714285714285</ele><time>2026-04-19T12:42:39Z</time></trkpt><trkpt lat="42.94792869019565" lon="10.519367754511698"><ele>105.71428571428572</ele><time>2026-04-19T12:42:40Z</time></trkpt><trkpt lat="42.94799522026635" lon="10.519404818927796"><ele>106.57142857142857</ele><time>2026-04-19T12:42:41Z</time></trkpt><trkpt lat="42.94806135007418" lon="10.519452834328547"><ele>107.42857142857142</ele><time>2026-04-19T12:42:42Z</time></trkpt><trkpt lat="42.94812103069132" lon="10.519498450078647"><ele>108.28571428571428</ele><time>2026-04-19T12:42:43Z</time></trkpt><trkpt lat="42.94818273460244" lon="10.519554643738877"><ele>109.14285714285714</ele><time>2026-04-19T12:42:44Z</time></trkpt><trkpt lat="42.94824152897353" lon="10.519599860688107"><ele>110.0</ele><time>2026-04-19T12:42:45Z</time></trkpt><trkpt lat="42.94831939080684" lon="10.519678797587831"><ele>110.57142857142856</ele><time>2026-04-19T12:42:47Z</time></trkpt><trkpt lat="42.94836572411508" lon="10.519742788994588"><ele>111.14285714285714</ele><time>2026-04-19T12:42:50Z</time></trkpt><trkpt lat="42.948423651867344" lon="10.519780198305712"><ele>111.71428571428571</ele><time>2026-04-19T12:44:48Z</time></trkpt><trkpt lat="42.94839789421833" lon="10.519864271525467"><ele>112.28571428571428</ele><time>2026-04-19T12:44:56Z</time></trkpt><trkpt lat="42.94833350360383" lon="10.519877834769499"><ele>112.85714285714285</ele><time>2026-04-19T12:46:02Z</time></trkpt><trkpt lat="42.94827366147762" lon="10.519813145450335"><ele>113.42857142857142</ele><time>2026-04-19T12:46:08Z</time></trkpt><trkpt lat="42.94819036721334" lon="10.519763133885428"><ele>114.0</ele><time>2026-04-19T12:46:09Z</time></trkpt><trkpt lat="42.94809264780867" lon="10.519702305707826"><ele>114.0</ele><time>2026-04-19T12:46:10Z</time></trkpt><trkpt lat="42.94799402850686" lon="10.519693628180258"><ele>114.0</ele><time>2026-04-19T12:46:11Z</time></trkpt><trkpt lat="42.94790596248711" lon="10.519705981544302"><ele>114.0</ele><time>2026-04-19T12:46:12Z</time></trkpt><trkpt lat="42.94784199046727" lon="10.519766844046757"><ele>114.0</ele><time>2026-04-19T12:46:13Z</time></trkpt><trkpt lat="42.94778476567896" lon="10.519881353110137"><ele>114.0</ele><time>2026-04-19T12:46:14Z</time></trkpt><trkpt lat="42.947748620864694" lon="10.520027873999757"><ele>114.0</ele><time>2026-04-19T12:46:15Z</time></trkpt><trkpt lat="42.94774016444906" lon="10.52015361447146"><ele>114.0</ele><time>2026-04-19T12:46:16Z</time></trkpt><trkpt lat="42.94778115080134" lon="10.520280501059894"><ele>114.0</ele><time>2026-04-19T12:46:17Z</time></trkpt><trkpt lat="42.947844523768836" lon="10.520410602075435"><ele>114.0</ele><time>2026-04-19T12:46:18Z</time></trkpt><trkpt lat="42.94794437864567" lon="10.520518685054371"><ele>114.0</ele><time>2026-04-19T12:46:19Z</time></trkpt><trkpt lat="42.94807528084668" lon="10.520609962047248"><ele>116.4</ele><time>2026-04-19T12:46:20Z</time></trkpt><trkpt lat="42.94821140814291" lon="10.520663274491016"><ele>118.80000000000001</ele><time>2026-04-19T12:46:21Z</time></trkpt><trkpt lat="42.94832173949851" lon="10.520694326754123"><ele>121.19999999999999</ele><time>2026-04-19T12:46:22Z</time></trkpt><trkpt lat="42.948410104530495" lon="10.520696403078933"><ele>123.6</ele><time>2026-04-19T12:46:23Z</time></trkpt><trkpt lat="42.94849849340739" lon="10.520736259335914"><ele>126.0</ele><time>2026-04-19T12:46:25Z</time></trkpt><trkpt lat="42.94852528746592" lon="10.520825355022343"><ele>127.4</ele><time>2026-04-19T12:46:26Z</time></trkpt><trkpt lat="42.94857444299162" lon="10.52094326995392"><ele>128.8</ele><time>2026-04-19T12:46:27Z</time></trkpt><trkpt lat="42.94866685210215" lon="10.521002558312682"><ele>130.20000000000002</ele><time>2026-04-19T12:46:28Z</time></trkpt><trkpt lat="42.94876090613344" lon="10.521019097336815"><ele>131.6</ele><time>2026-04-19T12:46:29Z</time></trkpt><trkpt lat="42.94875943909339" lon="10.520893936722269"><ele>133.0</ele><time>2026-04-19T12:46:31Z</time></trkpt><trkpt lat="42.94887844472884" lon="10.520795623314052"><ele>133.0</ele><time>2026-04-19T12:46:33Z</time></trkpt><trkpt lat="42.94888846033119" lon="10.520701741990111"><ele>133.0</ele><time>2026-04-19T12:46:34Z</time></trkpt><trkpt lat="42.94887837049648" lon="10.520569119205103"><ele>133.0</ele><time>2026-04-19T12:46:35Z</time></trkpt><trkpt lat="42.9489133086558" lon="10.520409386180722"><ele>133.0</ele><time>2026-04-19T12:46:37Z</time></trkpt><trkpt lat="42.949018214912684" lon="10.520351381274194"><ele>133.0</ele><time>2026-04-19T12:46:39Z</time></trkpt><trkpt lat="42.949103146253655" lon="10.520354980834817"><ele>131.33333333333334</ele><time>2026-04-19T12:46:40Z</time></trkpt><trkpt lat="42.94917472942299" lon="10.520358479152193"><ele>129.66666666666669</ele><time>2026-04-19T12:46:41Z</time></trkpt><trkpt lat="42.94924005905675" lon="10.520358815351285"><ele>128.0</ele><time>2026-04-19T12:46:42Z</time></trkpt><trkpt lat="42.949334590502154" lon="10.52036453591432"><ele>126.33333333333334</ele><time>2026-04-19T12:46:44Z</time></trkpt><trkpt lat="42.94941182915836" lon="10.520415677410394"><ele>124.66666666666667</ele><time>2026-04-19T12:46:46Z</time></trkpt><trkpt lat="42.949501940036534" lon="10.520509445126212"><ele>123.0</ele><time>2026-04-19T12:46:48Z</time></trkpt><trkpt lat="42.949582493025716" lon="10.520585648767169"><ele>127.4</ele><time>2026-04-19T12:46:50Z</time></trkpt><trkpt lat="42.94963518828095" lon="10.520639580900669"><ele>131.8</ele><time>2026-04-19T12:46:51Z</time></trkpt><trkpt lat="42.949662557679886" lon="10.520775735484198"><ele>136.2</ele><time>2026-04-19T12:46:53Z</time></trkpt><trkpt lat="42.94981920035113" lon="10.520747751205686"><ele>140.6</ele><time>2026-04-19T12:46:55Z</time></trkpt><trkpt lat="42.949878658204874" lon="10.520788889168536"><ele>145.0</ele><time>2026-04-19T12:46:56Z</time></trkpt><trkpt lat="42.949941448286665" lon="10.520838239522098"><ele>145.0</ele><time>2026-04-19T12:46:57Z</time></trkpt><trkpt lat="42.95001996159275" lon="10.520897683642149"><ele>145.0</ele><time>2026-04-19T12:46:58Z</time></trkpt><trkpt lat="42.95009071653159" lon="10.52094934125912"><ele>145.0</ele><time>2026-04-19T12:46:59Z</time></trkpt><trkpt lat="42.95016131043631" lon="10.520983670125364"><ele>145.0</ele><time>2026-04-19T12:47:00Z</time></trkpt><trkpt lat="42.95022807009177" lon="10.521004224743303"><ele>145.0</ele><time>2026-04-19T12:47:01Z</time></trkpt><trkpt lat="42.95029407184093" lon="10.521035497414813"><ele>145.0</ele><time>2026-04-19T12:47:02Z</time></trkpt><trkpt lat="42.9503628719913" lon="10.521076781634184"><ele>145.5</ele><time>2026-04-19T12:47:03Z</time></trkpt><trkpt lat="42.950453274244936" lon="10.521155604256142"><ele>146.0</ele><time>2026-04-19T12:47:04Z</time></trkpt><trkpt lat="42.95053094628083" lon="10.521183411335288"><ele>146.5</ele><time>2026-04-19T12:47:05Z</time></trkpt><trkpt lat="42.95060677944835" lon="10.521212265116747"><ele>147.0</ele><time>2026-04-19T12:47:06Z</time></trkpt><trkpt lat="42.9506759874714" lon="10.521214263226556"><ele>147.5</ele><time>2026-04-19T12:47:07Z</time></trkpt><trkpt lat="42.95075094903627" lon="10.521241855708842"><ele>148.0</ele><time>2026-04-19T12:47:08Z</time></trkpt><trkpt lat="42.95082171696358" lon="10.521248655228948"><ele>144.5</ele><time>2026-04-19T12:47:09Z</time></trkpt><trkpt lat="42.95094662721746" lon="10.521283683628313"><ele>141.0</ele><time>2026-04-19T12:47:11Z</time></trkpt><trkpt lat="42.95102124119188" lon="10.521315607551145"><ele>137.5</ele><time>2026-04-19T12:47:12Z</time></trkpt><trkpt lat="42.951084438151504" lon="10.52133427172678"><ele>134.0</ele><time>2026-04-19T12:47:13Z</time></trkpt><trkpt lat="42.951161561745316" lon="10.521406651883318"><ele>130.5</ele><time>2026-04-19T12:47:15Z</time></trkpt><trkpt lat="42.95123837886156" lon="10.521412038743147"><ele>127.0</ele><time>2026-04-19T12:47:16Z</time></trkpt><trkpt lat="42.95131726386489" lon="10.521391813929478"><ele>127.0</ele><time>2026-04-19T12:47:17Z</time></trkpt><trkpt lat="42.95140207548375" lon="10.521376433144301"><ele>126.99999999999999</ele><time>2026-04-19T12:47:18Z</time></trkpt><trkpt lat="42.9515089452605" lon="10.521305497651134"><ele>126.99999999999999</ele><time>2026-04-19T12:47:20Z</time></trkpt><trkpt lat="42.95155895881232" lon="10.521237212429412"><ele>127.0</ele><time>2026-04-19T12:47:21Z</time></trkpt><trkpt lat="42.95163184242756" lon="10.521142097532227"><ele>127.0</ele><time>2026-04-19T12:47:22Z</time></trkpt><trkpt lat="42.95169188948377" lon="10.521050981195266"><ele>130.0</ele><time>2026-04-19T12:47:23Z</time></trkpt><trkpt lat="42.95177915510844" lon="10.52099373156146"><ele>133.0</ele><time>2026-04-19T12:47:25Z</time></trkpt><trkpt lat="42.951898264201894" lon="10.521057662597364"><ele>136.0</ele><time>2026-04-19T12:47:28Z</time></trkpt><trkpt lat="42.9520157176384" lon="10.52112196508542"><ele>139.0</ele><time>2026-04-19T12:47:30Z</time></trkpt><trkpt lat="42.952075505000074" lon="10.521157825027815"><ele>142.0</ele><time>2026-04-19T12:47:31Z</time></trkpt><trkpt lat="42.952135270093315" lon="10.521199499434617"><ele>139.0</ele><time>2026-04-19T12:47:32Z</time></trkpt><trkpt lat="42.95218974578331" lon="10.521259279867186"><ele>136.0</ele><time>2026-04-19T12:47:33Z</time></trkpt><trkpt lat="42.952259300578206" lon="10.521315252640173"><ele>133.0</ele><time>2026-04-19T12:47:34Z</time></trkpt><trkpt lat="42.952330794252184" lon="10.521354300930298"><ele>130.0</ele><time>2026-04-19T12:47:35Z</time></trkpt><trkpt lat="42.952405395002" lon="10.521376605243917"><ele>127.00000000000001</ele><time>2026-04-19T12:47:36Z</time></trkpt><trkpt lat="42.952478958404555" lon="10.521394096626524"><ele>124.0</ele><time>2026-04-19T12:47:37Z</time></trkpt><trkpt lat="42.95255011523401" lon="10.521414133426013"><ele>123.33333333333334</ele><time>2026-04-19T12:47:38Z</time></trkpt><trkpt lat="42.95261466475671" lon="10.521435115271977"><ele>122.66666666666667</ele><time>2026-04-19T12:47:39Z</time></trkpt><trkpt lat="42.95270908272368" lon="10.521380855519604"><ele>122.0</ele><time>2026-04-19T12:47:41Z</time></trkpt><trkpt lat="42.9527672485019" lon="10.521346985673294"><ele>121.33333333333334</ele><time>2026-04-19T12:47:42Z</time></trkpt><trkpt lat="42.95286960021483" lon="10.5212778197131"><ele>120.66666666666667</ele><time>2026-04-19T12:47:44Z</time></trkpt><trkpt lat="42.95291800252826" lon="10.52121666237791"><ele>120.0</ele><time>2026-04-19T12:47:45Z</time></trkpt><trkpt lat="42.95296427136757" lon="10.521147439903995"><ele>120.0</ele><time>2026-04-19T12:47:46Z</time></trkpt><trkpt lat="42.95301713973389" lon="10.521071870590319"><ele>120.0</ele><time>2026-04-19T12:47:47Z</time></trkpt><trkpt lat="42.953065807491974" lon="10.52099641970215"><ele>120.0</ele><time>2026-04-19T12:47:48Z</time></trkpt><trkpt lat="42.95307391964877" lon="10.5207188680621"><ele>120.0</ele><time>2026-04-19T12:47:49Z</time></trkpt><trkpt lat="42.953082539115684" lon="10.520608839930317"><ele>120.0</ele><time>2026-04-19T12:47:50Z</time></trkpt><trkpt lat="42.953100836396345" lon="10.520468741828736"><ele>119.6</ele><time>2026-04-19T12:47:51Z</time></trkpt><trkpt lat="42.95307925926559" lon="10.520364283331773"><ele>119.2</ele><time>2026-04-19T12:47:52Z</time></trkpt><trkpt lat="42.95299769029693" lon="10.520258703423481"><ele>118.80000000000001</ele><time>2026-04-19T12:47:53Z</time></trkpt><trkpt lat="42.95295264843201" lon="10.52013755537029"><ele>118.4</ele><time>2026-04-19T12:47:54Z</time></trkpt><trkpt lat="42.952906043427596" lon="10.520031412830086"><ele>118.0</ele><time>2026-04-19T12:47:55Z</time></trkpt><trkpt lat="42.95282645992344" lon="10.519933236233523"><ele>118.0</ele><time>2026-04-19T12:47:56Z</time></trkpt><trkpt lat="42.95276745966506" lon="10.519815719373156"><ele>118.00000000000001</ele><time>2026-04-19T12:47:57Z</time></trkpt><trkpt lat="42.952733054886586" lon="10.519685826646818"><ele>118.00000000000001</ele><time>2026-04-19T12:47:58Z</time></trkpt><trkpt lat="42.95269044035704" lon="10.519575098159885"><ele>118.0</ele><time>2026-04-19T12:48:00Z</time></trkpt><trkpt lat="42.952715511005806" lon="10.51941968627708"><ele>118.0</ele><time>2026-04-19T12:48:02Z</time></trkpt><trkpt lat="42.952706618513666" lon="10.519327278597194"><ele>117.0</ele><time>2026-04-19T12:48:03Z</time></trkpt><trkpt lat="42.952682270354245" lon="10.519194203253099"><ele>116.00000000000001</ele><time>2026-04-19T12:48:04Z</time></trkpt><trkpt lat="42.95267763656011" lon="10.519064367144297"><ele>115.00000000000001</ele><time>2026-04-19T12:48:05Z</time></trkpt><trkpt lat="42.952697816750856" lon="10.518882566229168"><ele>114.0</ele><time>2026-04-19T12:48:06Z</time></trkpt><trkpt lat="42.95272644823211" lon="10.518729179491766"><ele>113.0</ele><time>2026-04-19T12:48:07Z</time></trkpt><trkpt lat="42.95264354920678" lon="10.518592120019594"><ele>113.0</ele><time>2026-04-19T12:48:09Z</time></trkpt><trkpt lat="42.95259421226499" lon="10.518452911214693"><ele>113.00000000000001</ele><time>2026-04-19T12:48:10Z</time></trkpt><trkpt lat="42.95254446138612" lon="10.518331804292508"><ele>113.00000000000001</ele><time>2026-04-19T12:48:11Z</time></trkpt><trkpt lat="42.95249571760558" lon="10.518240120450002"><ele>113.0</ele><time>2026-04-19T12:48:12Z</time></trkpt><trkpt lat="42.952455344701896" lon="10.518139439135725"><ele>113.0</ele><time>2026-04-19T12:48:14Z</time></trkpt><trkpt lat="42.95259550584145" lon="10.51799917999056"><ele>114.33333333333333</ele><time>2026-04-19T12:48:17Z</time></trkpt><trkpt lat="42.95253508198183" lon="10.51766784585561"><ele>115.66666666666666</ele><time>2026-04-19T12:48:21Z</time></trkpt><trkpt lat="42.95258520043773" lon="10.517429134968294"><ele>117.0</ele><time>2026-04-19T12:48:22Z</time></trkpt><trkpt lat="42.95255370202526" lon="10.51734405908545"><ele>123.0</ele><time>2026-04-19T12:48:23Z</time></trkpt><trkpt lat="42.952536970104596" lon="10.517253095471043"><ele>129.0</ele><time>2026-04-19T12:48:24Z</time></trkpt><trkpt lat="42.952530193849086" lon="10.517149098378678"><ele>135.0</ele><time>2026-04-19T12:48:25Z</time></trkpt><trkpt lat="42.95251708687579" lon="10.516952405043837"><ele>141.0</ele><time>2026-04-19T12:48:27Z</time></trkpt><trkpt lat="42.952483157332736" lon="10.516853646430683"><ele>147.0</ele><time>2026-04-19T12:48:28Z</time></trkpt><trkpt lat="42.952471493443156" lon="10.51669893521595"><ele>148.79999999999998</ele><time>2026-04-19T12:48:29Z</time></trkpt><trkpt lat="42.952453480017674" lon="10.516555828198785"><ele>150.6</ele><time>2026-04-19T12:48:30Z</time></trkpt><trkpt lat="42.95245470378302" lon="10.516462381646427"><ele>152.39999999999998</ele><time>2026-04-19T12:48:31Z</time></trkpt><trkpt lat="42.95256168572584" lon="10.516444198425534"><ele>154.2</ele><time>2026-04-19T12:48:34Z</time></trkpt><trkpt lat="42.95268751957243" lon="10.51647967160535"><ele>156.0</ele><time>2026-04-19T12:48:36Z</time></trkpt><trkpt lat="42.952781881442235" lon="10.516414327019975"><ele>157.2</ele><time>2026-04-19T12:48:37Z</time></trkpt><trkpt lat="42.95285265491623" lon="10.516381665118756"><ele>158.39999999999998</ele><time>2026-04-19T12:48:38Z</time></trkpt><trkpt lat="42.95292214682514" lon="10.516337581626628"><ele>159.6</ele><time>2026-04-19T12:48:39Z</time></trkpt><trkpt lat="42.953008392217086" lon="10.51626523388039"><ele>160.79999999999998</ele><time>2026-04-19T12:48:40Z</time></trkpt><trkpt lat="42.953095158043766" lon="10.516221324052966"><ele>162.0</ele><time>2026-04-19T12:48:41Z</time></trkpt><trkpt lat="42.95326408819333" lon="10.51613499206669"><ele>162.0</ele><time>2026-04-19T12:48:42Z</time></trkpt><trkpt lat="42.953364991056176" lon="10.516060407777553"><ele>162.0</ele><time>2026-04-19T12:48:43Z</time></trkpt><trkpt lat="42.953460651349" lon="10.515986856467226"><ele>162.0</ele><time>2026-04-19T12:48:44Z</time></trkpt><trkpt lat="42.95353760925554" lon="10.515948694500407"><ele>162.0</ele><time>2026-04-19T12:48:45Z</time></trkpt><trkpt lat="42.953598977638386" lon="10.51589386660552"><ele>162.0</ele><time>2026-04-19T12:48:46Z</time></trkpt><trkpt lat="42.953710817095164" lon="10.515976963884535"><ele>158.79999999999998</ele><time>2026-04-19T12:48:48Z</time></trkpt><trkpt lat="42.95378386718822" lon="10.516008812436214"><ele>155.6</ele><time>2026-04-19T12:48:49Z</time></trkpt><trkpt lat="42.95386711784752" lon="10.516044015836549"><ele>152.39999999999998</ele><time>2026-04-19T12:48:51Z</time></trkpt><trkpt lat="42.95398306367316" lon="10.516084713906684"><ele>149.2</ele><time>2026-04-19T12:48:56Z</time></trkpt><trkpt lat="42.95413997493932" lon="10.516137816914181"><ele>146.0</ele><time>2026-04-19T12:48:58Z</time></trkpt><trkpt lat="42.95426732726215" lon="10.516082818931448"><ele>142.0</ele><time>2026-04-19T12:49:00Z</time></trkpt><trkpt lat="42.95435378492577" lon="10.516033897550546"><ele>138.0</ele><time>2026-04-19T12:49:01Z</time></trkpt><trkpt lat="42.954437066917805" lon="10.515992295745132"><ele>134.0</ele><time>2026-04-19T12:49:02Z</time></trkpt><trkpt lat="42.9545140788453" lon="10.515946468822124"><ele>130.0</ele><time>2026-04-19T12:49:03Z</time></trkpt><trkpt lat="42.95461131096024" lon="10.515894862755392"><ele>125.99999999999999</ele><time>2026-04-19T12:49:05Z</time></trkpt><trkpt lat="42.9546624161196" lon="10.515844075199594"><ele>122.0</ele><time>2026-04-19T12:49:07Z</time></trkpt><trkpt lat="42.95457547215022" lon="10.515845123682038"><ele>122.0</ele><time>2026-04-19T12:49:09Z</time></trkpt><trkpt lat="42.954472267563" lon="10.51574106087752"><ele>121.99999999999999</ele><time>2026-04-19T12:49:11Z</time></trkpt><trkpt lat="42.954363989005174" lon="10.515644115343678"><ele>121.99999999999999</ele><time>2026-04-19T12:49:13Z</time></trkpt><trkpt lat="42.95429978944463" lon="10.515601666380006"><ele>122.0</ele><time>2026-04-19T12:49:14Z</time></trkpt><trkpt lat="42.95424255608692" lon="10.515558153250131"><ele>122.0</ele><time>2026-04-19T12:49:15Z</time></trkpt><trkpt lat="42.954207410907465" lon="10.515248901335708"><ele>124.5</ele><time>2026-04-19T12:49:17Z</time></trkpt><trkpt lat="42.95423167991024" lon="10.5150453758617"><ele>127.0</ele><time>2026-04-19T12:49:18Z</time></trkpt><trkpt lat="42.95426156701494" lon="10.514842601433688"><ele>129.5</ele><time>2026-04-19T12:49:19Z</time></trkpt><trkpt lat="42.95428667791023" lon="10.51474899927953"><ele>132.0</ele><time>2026-04-19T12:49:20Z</time></trkpt><trkpt lat="42.95422503590158" lon="10.514561128227719"><ele>139.5</ele><time>2026-04-19T12:49:22Z</time></trkpt><trkpt lat="42.95412026539712" lon="10.514455105181923"><ele>147.0</ele><time>2026-04-19T12:49:23Z</time></trkpt><trkpt lat="42.95407225894945" lon="10.514341210128453"><ele>154.5</ele><time>2026-04-19T12:49:24Z</time></trkpt><trkpt lat="42.954098699191334" lon="10.514197570097616"><ele>162.0</ele><time>2026-04-19T12:49:26Z</time></trkpt><trkpt lat="42.954177306450134" lon="10.514069140557565"><ele>156.6</ele><time>2026-04-19T12:49:28Z</time></trkpt><trkpt lat="42.95426724839937" lon="10.513909453513946"><ele>151.2</ele><time>2026-04-19T12:49:30Z</time></trkpt><trkpt lat="42.95434132214703" lon="10.51382775077419"><ele>145.8</ele><time>2026-04-19T12:49:31Z</time></trkpt><trkpt lat="42.95442866856403" lon="10.513762863842384"><ele>140.4</ele><time>2026-04-19T12:49:32Z</time></trkpt><trkpt lat="42.95447644079549" lon="10.513680127778638"><ele>135.0</ele><time>2026-04-19T12:49:33Z</time></trkpt><trkpt lat="42.95450975218863" lon="10.513578737149977"><ele>135.0</ele><time>2026-04-19T12:49:34Z</time></trkpt><trkpt lat="42.9545222951383" lon="10.513457261111643"><ele>135.0</ele><time>2026-04-19T12:49:35Z</time></trkpt><trkpt lat="42.95451562451841" lon="10.513325271296912"><ele>135.0</ele><time>2026-04-19T12:49:36Z</time></trkpt><trkpt lat="42.954494962122396" lon="10.51318359117658"><ele>135.0</ele><time>2026-04-19T12:49:37Z</time></trkpt><trkpt lat="42.95447062113686" lon="10.513050879528585"><ele>135.0</ele><time>2026-04-19T12:49:38Z</time></trkpt><trkpt lat="42.95446519493919" lon="10.512944834061816"><ele>136.83333333333334</ele><time>2026-04-19T12:49:39Z</time></trkpt><trkpt lat="42.95446155320962" lon="10.512858463000576"><ele>138.66666666666666</ele><time>2026-04-19T12:49:40Z</time></trkpt><trkpt lat="42.954403505617144" lon="10.51275342788741"><ele>140.5</ele><time>2026-04-19T12:49:41Z</time></trkpt><trkpt lat="42.95436756180096" lon="10.512650553857956"><ele>142.33333333333331</ele><time>2026-04-19T12:49:42Z</time></trkpt><trkpt lat="42.95434484754371" lon="10.512547095933165"><ele>144.16666666666666</ele><time>2026-04-19T12:49:43Z</time></trkpt><trkpt lat="42.95431639405067" lon="10.512447494892012"><ele>146.0</ele><time>2026-04-19T12:49:44Z</time></trkpt><trkpt lat="42.95427264682522" lon="10.512314252715363"><ele>146.0</ele><time>2026-04-19T12:49:45Z</time></trkpt><trkpt lat="42.95423436371535" lon="10.512196233383442"><ele>146.0</ele><time>2026-04-19T12:49:46Z</time></trkpt><trkpt lat="42.95420717688871" lon="10.512117775983802"><ele>146.0</ele><time>2026-04-19T12:49:47Z</time></trkpt><trkpt lat="42.95420796080916" lon="10.512006090786766"><ele>146.0</ele><time>2026-04-19T12:49:50Z</time></trkpt><trkpt lat="42.954065143061406" lon="10.511986306584914"><ele>146.0</ele><time>2026-04-19T12:49:52Z</time></trkpt><trkpt lat="42.953956969307626" lon="10.511988746150852"><ele>149.75</ele><time>2026-04-19T12:49:53Z</time></trkpt><trkpt lat="42.95381100384046" lon="10.511950038134332"><ele>153.5</ele><time>2026-04-19T12:49:54Z</time></trkpt><trkpt lat="42.953668211165876" lon="10.511888379507592"><ele>157.25</ele><time>2026-04-19T12:49:55Z</time></trkpt><trkpt lat="42.953572464927575" lon="10.51186674846459"><ele>161.0</ele><time>2026-04-19T12:49:56Z</time></trkpt><trkpt lat="42.95350214160192" lon="10.511878983929709"><ele>161.0</ele><time>2026-04-19T12:49:57Z</time></trkpt><trkpt lat="42.95344491299897" lon="10.511929610158573"><ele>161.0</ele><time>2026-04-19T12:49:58Z</time></trkpt><trkpt lat="42.95337334975193" lon="10.511994593070693"><ele>161.0</ele><time>2026-04-19T12:49:59Z</time></trkpt><trkpt lat="42.953294828913776" lon="10.512028983737055"><ele>161.0</ele><time>2026-04-19T12:50:00Z</time></trkpt><trkpt lat="42.95321455243573" lon="10.512077827708248"><ele>161.0</ele><time>2026-04-19T12:50:01Z</time></trkpt><trkpt lat="42.95312992937311" lon="10.512119305087325"><ele>161.0</ele><time>2026-04-19T12:50:02Z</time></trkpt><trkpt lat="42.95303628286505" lon="10.512113649937714"><ele>157.8</ele><time>2026-04-19T12:50:03Z</time></trkpt><trkpt lat="42.952931154448294" lon="10.512061912974485"><ele>154.60000000000002</ele><time>2026-04-19T12:50:04Z</time></trkpt><trkpt lat="42.95281584976745" lon="10.51202897637767"><ele>151.4</ele><time>2026-04-19T12:50:05Z</time></trkpt><trkpt lat="42.95270914496928" lon="10.512060012103221"><ele>148.2</ele><time>2026-04-19T12:50:06Z</time></trkpt><trkpt lat="42.95260545663383" lon="10.512064896870726"><ele>145.0</ele><time>2026-04-19T12:50:07Z</time></trkpt><trkpt lat="42.9524952912432" lon="10.51206578180578"><ele>146.2</ele><time>2026-04-19T12:50:08Z</time></trkpt><trkpt lat="42.95239311340002" lon="10.51201541200415"><ele>147.4</ele><time>2026-04-19T12:50:09Z</time></trkpt><trkpt lat="42.95231306682821" lon="10.511960504181983"><ele>148.6</ele><time>2026-04-19T12:50:10Z</time></trkpt><trkpt lat="42.95223907555074" lon="10.51196339215101"><ele>149.8</ele><time>2026-04-19T12:50:11Z</time></trkpt><trkpt lat="42.95216323132026" lon="10.512044805787708"><ele>151.0</ele><time>2026-04-19T12:50:12Z</time></trkpt><trkpt lat="42.952095112597675" lon="10.512162465321135"><ele>151.0</ele><time>2026-04-19T12:50:13Z</time></trkpt><trkpt lat="42.95206830925101" lon="10.512291743038913"><ele>151.0</ele><time>2026-04-19T12:50:14Z</time></trkpt><trkpt lat="42.95207606262096" lon="10.512457911638226"><ele>151.0</ele><time>2026-04-19T12:50:15Z</time></trkpt><trkpt lat="42.95207752395343" lon="10.51260928076545"><ele>151.0</ele><time>2026-04-19T12:50:16Z</time></trkpt><trkpt lat="42.952056837324314" lon="10.51271624170611"><ele>151.0</ele><time>2026-04-19T12:50:18Z</time></trkpt><trkpt lat="42.95195395810461" lon="10.512676164267134"><ele>151.0</ele><time>2026-04-19T12:50:20Z</time></trkpt><trkpt lat="42.9518554818093" lon="10.512642750661563"><ele>151.0</ele><time>2026-04-19T12:50:21Z</time></trkpt><trkpt lat="42.9517502027853" lon="10.51267340749551"><ele>151.0</ele><time>2026-04-19T12:50:22Z</time></trkpt><trkpt lat="42.951669983623376" lon="10.51269832876031"><ele>151.0</ele><time>2026-04-19T12:50:23Z</time></trkpt><trkpt lat="42.95163304407356" lon="10.512605860095421"><ele>151.0</ele><time>2026-04-19T12:50:24Z</time></trkpt><trkpt lat="42.95156565229071" lon="10.51248590867861"><ele>149.0</ele><time>2026-04-19T12:50:25Z</time></trkpt><trkpt lat="42.95148130704711" lon="10.512399805190523"><ele>147.0</ele><time>2026-04-19T12:50:26Z</time></trkpt><trkpt lat="42.95139424035809" lon="10.512395892091662"><ele>145.0</ele><time>2026-04-19T12:50:27Z</time></trkpt><trkpt lat="42.95130484005057" lon="10.512403108123564"><ele>143.0</ele><time>2026-04-19T12:50:28Z</time></trkpt><trkpt lat="42.95119636532253" lon="10.5124317224691"><ele>141.0</ele><time>2026-04-19T12:50:29Z</time></trkpt><trkpt lat="42.95110438664498" lon="10.512479991478058"><ele>141.0</ele><time>2026-04-19T12:50:30Z</time></trkpt><trkpt lat="42.951006527513144" lon="10.512545737656264"><ele>141.0</ele><time>2026-04-19T12:50:31Z</time></trkpt><trkpt lat="42.95091677972872" lon="10.512614763798256"><ele>141.0</ele><time>2026-04-19T12:50:32Z</time></trkpt><trkpt lat="42.95082687495845" lon="10.512685793473986"><ele>141.0</ele><time>2026-04-19T12:50:33Z</time></trkpt><trkpt lat="42.95076537366356" lon="10.512792169749702"><ele>141.0</ele><time>2026-04-19T12:50:34Z</time></trkpt><trkpt lat="42.95070858741014" lon="10.512900237471154"><ele>142.2</ele><time>2026-04-19T12:50:35Z</time></trkpt><trkpt lat="42.950650873459566" lon="10.512952657764506"><ele>143.39999999999998</ele><time>2026-04-19T12:50:36Z</time></trkpt><trkpt lat="42.950557717661496" lon="10.51287472482488"><ele>144.6</ele><time>2026-04-19T12:50:38Z</time></trkpt><trkpt lat="42.950503780820355" lon="10.51275321256422"><ele>145.79999999999998</ele><time>2026-04-19T12:50:39Z</time></trkpt><trkpt lat="42.950453668295516" lon="10.51262160954154"><ele>147.0</ele><time>2026-04-19T12:50:40Z</time></trkpt><trkpt lat="42.95037803631118" lon="10.512538810324973"><ele>147.0</ele><time>2026-04-19T12:50:41Z</time></trkpt><trkpt lat="42.950292114416186" lon="10.512464809494423"><ele>147.0</ele><time>2026-04-19T12:50:42Z</time></trkpt><trkpt lat="42.95025652063773" lon="10.512372976044807"><ele>147.0</ele><time>2026-04-19T12:50:43Z</time></trkpt><trkpt lat="42.95020964049151" lon="10.512310342841745"><ele>147.0</ele><time>2026-04-19T12:50:44Z</time></trkpt><trkpt lat="42.95013144309818" lon="10.512322778929331"><ele>147.0</ele><time>2026-04-19T12:50:45Z</time></trkpt><trkpt lat="42.95003793956032" lon="10.512362522610038"><ele>147.0</ele><time>2026-04-19T12:50:46Z</time></trkpt><trkpt lat="42.94991216982056" lon="10.512406904668664"><ele>148.6</ele><time>2026-04-19T12:50:47Z</time></trkpt><trkpt lat="42.94976128489771" lon="10.512443825422212"><ele>150.2</ele><time>2026-04-19T12:50:48Z</time></trkpt><trkpt lat="42.949649985356004" lon="10.512441614885912"><ele>151.8</ele><time>2026-04-19T12:50:49Z</time></trkpt><trkpt lat="42.94957015906178" lon="10.512393823075959"><ele>153.4</ele><time>2026-04-19T12:50:50Z</time></trkpt><trkpt lat="42.94949537402967" lon="10.512325084736277"><ele>155.0</ele><time>2026-04-19T12:50:51Z</time></trkpt><trkpt lat="42.94943784319655" lon="10.512280515939464"><ele>155.0</ele><time>2026-04-19T12:50:52Z</time></trkpt><trkpt lat="42.94928350534345" lon="10.512393913030461"><ele>155.0</ele><time>2026-04-19T12:50:54Z</time></trkpt><trkpt lat="42.94919468029259" lon="10.512446565055953"><ele>155.0</ele><time>2026-04-19T12:50:55Z</time></trkpt><trkpt lat="42.949118710380155" lon="10.512484787126214"><ele>155.0</ele><time>2026-04-19T12:50:56Z</time></trkpt><trkpt lat="42.94901753178003" lon="10.512605891761758"><ele>153.25</ele><time>2026-04-19T12:50:58Z</time></trkpt><trkpt lat="42.948960560383725" lon="10.51272429665135"><ele>151.5</ele><time>2026-04-19T12:50:59Z</time></trkpt><trkpt lat="42.94889711858606" lon="10.512868276525703"><ele>149.75</ele><time>2026-04-19T12:51:00Z</time></trkpt><trkpt lat="42.9488324744179" lon="10.512995092700429"><ele>148.0</ele><time>2026-04-19T12:51:01Z</time></trkpt><trkpt lat="42.9487454784337" lon="10.513109564607475"><ele>147.25</ele><time>2026-04-19T12:51:02Z</time></trkpt><trkpt lat="42.94865609973673" lon="10.513236043626764"><ele>146.5</ele><time>2026-04-19T12:51:03Z</time></trkpt><trkpt lat="42.94855088447363" lon="10.513364589257334"><ele>145.75</ele><time>2026-04-19T12:51:04Z</time></trkpt><trkpt lat="42.94843695216684" lon="10.513502378009504"><ele>145.0</ele><time>2026-04-19T12:51:05Z</time></trkpt><trkpt lat="42.94833841881452" lon="10.513639654745328"><ele>139.0</ele><time>2026-04-19T12:51:06Z</time></trkpt><trkpt lat="42.94822032191826" lon="10.513788081154914"><ele>133.0</ele><time>2026-04-19T12:51:07Z</time></trkpt><trkpt lat="42.948122464267215" lon="10.513904241733421"><ele>127.0</ele><time>2026-04-19T12:51:08Z</time></trkpt><trkpt lat="42.94804807237737" lon="10.513999477079858"><ele>121.0</ele><time>2026-04-19T12:51:09Z</time></trkpt><trkpt lat="42.94798211709359" lon="10.514101615845513"><ele>121.0</ele><time>2026-04-19T12:51:10Z</time></trkpt><trkpt lat="42.94789673927079" lon="10.514187827210723"><ele>121.0</ele><time>2026-04-19T12:51:11Z</time></trkpt><trkpt lat="42.9478145152802" lon="10.514213261501657"><ele>121.0</ele><time>2026-04-19T12:51:12Z</time></trkpt><trkpt lat="42.94770376012008" lon="10.51422228323049"><ele>121.0</ele><time>2026-04-19T12:51:13Z</time></trkpt><trkpt lat="42.94755984774258" lon="10.514197109472532"><ele>121.0</ele><time>2026-04-19T12:51:14Z</time></trkpt><trkpt lat="42.94741029894578" lon="10.514204921205426"><ele>119.0</ele><time>2026-04-19T12:51:15Z</time></trkpt><trkpt lat="42.94727817965564" lon="10.514220861388754"><ele>117.0</ele><time>2026-04-19T12:51:16Z</time></trkpt><trkpt lat="42.947129780533785" lon="10.514215606796805"><ele>115.0</ele><time>2026-04-19T12:51:17Z</time></trkpt><trkpt lat="42.94700069812852" lon="10.514199130464263"><ele>113.0</ele><time>2026-04-19T12:51:18Z</time></trkpt><trkpt lat="42.946894325521164" lon="10.514195297374501"><ele>113.0</ele><time>2026-04-19T12:51:19Z</time></trkpt><trkpt lat="42.94678617517254" lon="10.514185741031755"><ele>113.0</ele><time>2026-04-19T12:51:20Z</time></trkpt><trkpt lat="42.94665179301531" lon="10.514199689036476"><ele>113.0</ele><time>2026-04-19T12:51:21Z</time></trkpt><trkpt lat="42.9464976012041" lon="10.514211429718872"><ele>113.0</ele><time>2026-04-19T12:51:22Z</time></trkpt><trkpt lat="42.94637409136541" lon="10.514203111668722"><ele>111.60000000000001</ele><time>2026-04-19T12:51:23Z</time></trkpt><trkpt lat="42.94628220022234" lon="10.514211604998197"><ele>110.20000000000002</ele><time>2026-04-19T12:51:24Z</time></trkpt><trkpt lat="42.94618777748184" lon="10.514233506299945"><ele>108.8</ele><time>2026-04-19T12:51:25Z</time></trkpt><trkpt lat="42.94606638491286" lon="10.514255853971044"><ele>107.4</ele><time>2026-04-19T12:51:26Z</time></trkpt><trkpt lat="42.945952329117745" lon="10.514268611664592"><ele>106.0</ele><time>2026-04-19T12:51:27Z</time></trkpt><trkpt lat="42.945852541114185" lon="10.514268762074984"><ele>104.6</ele><time>2026-04-19T12:51:28Z</time></trkpt><trkpt lat="42.945731471765114" lon="10.514242262670743"><ele>103.19999999999999</ele><time>2026-04-19T12:51:29Z</time></trkpt><trkpt lat="42.94563713065975" lon="10.514253538067784"><ele>101.80000000000001</ele><time>2026-04-19T12:51:30Z</time></trkpt><trkpt lat="42.945541255577" lon="10.514233111932644"><ele>100.4</ele><time>2026-04-19T12:51:31Z</time></trkpt><trkpt lat="42.945426003142714" lon="10.514218870512634"><ele>99.0</ele><time>2026-04-19T12:51:32Z</time></trkpt><trkpt lat="42.94532895361244" lon="10.51423052946046"><ele>99.0</ele><time>2026-04-19T12:51:33Z</time></trkpt><trkpt lat="42.94524915970684" lon="10.514256904938884"><ele>99.0</ele><time>2026-04-19T12:51:34Z</time></trkpt><trkpt lat="42.94518550967062" lon="10.5143016342707"><ele>99.0</ele><time>2026-04-19T12:51:35Z</time></trkpt><trkpt lat="42.94509856354037" lon="10.51438961574573"><ele>99.0</ele><time>2026-04-19T12:51:37Z</time></trkpt><trkpt lat="42.94502777560354" lon="10.514463505116513"><ele>99.0</ele><time>2026-04-19T12:51:38Z</time></trkpt><trkpt lat="42.94495528917667" lon="10.514546467300319"><ele>99.0</ele><time>2026-04-19T12:51:39Z</time></trkpt><trkpt lat="42.9448671486653" lon="10.514642856908976"><ele>98.0</ele><time>2026-04-19T12:51:40Z</time></trkpt><trkpt lat="42.94478680925247" lon="10.514753230738714"><ele>97.0</ele><time>2026-04-19T12:51:41Z</time></trkpt><trkpt lat="42.94470321279273" lon="10.514823069755042"><ele>96.0</ele><time>2026-04-19T12:51:42Z</time></trkpt><trkpt lat="42.94462888333982" lon="10.514875695135052"><ele>95.0</ele><time>2026-04-19T12:51:43Z</time></trkpt><trkpt lat="42.944555216620856" lon="10.514915365375444"><ele>94.0</ele><time>2026-04-19T12:51:44Z</time></trkpt><trkpt lat="42.94448749189773" lon="10.514919123438117"><ele>93.0</ele><time>2026-04-19T12:51:45Z</time></trkpt><trkpt lat="42.944417336406175" lon="10.514948785535184"><ele>93.0</ele><time>2026-04-19T12:51:46Z</time></trkpt><trkpt lat="42.94431638478779" lon="10.514954977925662"><ele>93.0</ele><time>2026-04-19T12:51:47Z</time></trkpt><trkpt lat="42.944190406458176" lon="10.515006438405159"><ele>93.0</ele><time>2026-04-19T12:51:48Z</time></trkpt><trkpt lat="42.94405595470855" lon="10.515087141610442"><ele>93.0</ele><time>2026-04-19T12:51:49Z</time></trkpt><trkpt lat="42.94390597620206" lon="10.51518342213764"><ele>92.0</ele><time>2026-04-19T12:51:50Z</time></trkpt><trkpt lat="42.94374782087787" lon="10.515279374154353"><ele>91.0</ele><time>2026-04-19T12:51:51Z</time></trkpt><trkpt lat="42.943586874832434" lon="10.515360081844921"><ele>90.0</ele><time>2026-04-19T12:51:52Z</time></trkpt><trkpt lat="42.94343073810835" lon="10.515429405942406"><ele>89.0</ele><time>2026-04-19T12:51:53Z</time></trkpt><trkpt lat="42.94328920953465" lon="10.51550113738977"><ele>88.0</ele><time>2026-04-19T12:51:54Z</time></trkpt><trkpt lat="42.94316581944621" lon="10.51557806045699"><ele>87.0</ele><time>2026-04-19T12:51:55Z</time></trkpt><trkpt lat="42.943046256998564" lon="10.515649792432463"><ele>86.0</ele><time>2026-04-19T12:51:56Z</time></trkpt><trkpt lat="42.942912997452396" lon="10.51572292003278"><ele>86.0</ele><time>2026-04-19T12:51:57Z</time></trkpt><trkpt lat="42.942760090164434" lon="10.515812972866149"><ele>86.0</ele><time>2026-04-19T12:51:58Z</time></trkpt><trkpt lat="42.942602470137395" lon="10.51591604448342"><ele>86.0</ele><time>2026-04-19T12:51:59Z</time></trkpt><trkpt lat="42.942453407390104" lon="10.516010735681355"><ele>85.5</ele><time>2026-04-19T12:52:00Z</time></trkpt><trkpt lat="42.94232063414327" lon="10.51607579759946"><ele>85.0</ele><time>2026-04-19T12:52:01Z</time></trkpt><trkpt lat="42.94219524051664" lon="10.51614688895878"><ele>84.5</ele><time>2026-04-19T12:52:02Z</time></trkpt><trkpt lat="42.942087187418885" lon="10.516209009175428"><ele>84.0</ele><time>2026-04-19T12:52:03Z</time></trkpt><trkpt lat="42.9419894527543" lon="10.516260608688526"><ele>83.5</ele><time>2026-04-19T12:52:04Z</time></trkpt><trkpt lat="42.941908644181055" lon="10.516300371129182"><ele>83.0</ele><time>2026-04-19T12:52:05Z</time></trkpt><trkpt lat="42.9418425913407" lon="10.516323020371123"><ele>82.5</ele><time>2026-04-19T12:52:06Z</time></trkpt><trkpt lat="42.94174086264513" lon="10.51630109580845"><ele>82.0</ele><time>2026-04-19T12:52:08Z</time></trkpt><trkpt lat="42.94165695045861" lon="10.516347175340698"><ele>81.5</ele><time>2026-04-19T12:52:10Z</time></trkpt><trkpt lat="42.941582125240544" lon="10.51637093524834"><ele>81.0</ele><time>2026-04-19T12:52:11Z</time></trkpt><trkpt lat="42.94149400870703" lon="10.5163989156695"><ele>80.0</ele><time>2026-04-19T12:52:12Z</time></trkpt><trkpt lat="42.94141720876374" lon="10.516472697916294"><ele>79.0</ele><time>2026-04-19T12:52:13Z</time></trkpt><trkpt lat="42.94130726575707" lon="10.516574014811223"><ele>78.0</ele><time>2026-04-19T12:52:14Z</time></trkpt><trkpt lat="42.94122011737338" lon="10.516712035403492"><ele>77.0</ele><time>2026-04-19T12:52:15Z</time></trkpt><trkpt lat="42.941064156920845" lon="10.516778565119306"><ele>77.0</ele><time>2026-04-19T12:52:16Z</time></trkpt><trkpt lat="42.9409570612087" lon="10.51686612874088"><ele>77.0</ele><time>2026-04-19T12:52:17Z</time></trkpt><trkpt lat="42.94087055184241" lon="10.516954372374814"><ele>77.0</ele><time>2026-04-19T12:52:18Z</time></trkpt><trkpt lat="42.94077675632951" lon="10.517027257292023"><ele>77.0</ele><time>2026-04-19T12:52:19Z</time></trkpt><trkpt lat="42.94069008745881" lon="10.5170801737218"><ele>77.0</ele><time>2026-04-19T12:52:20Z</time></trkpt><trkpt lat="42.9405964839614" lon="10.517125708873676"><ele>77.0</ele><time>2026-04-19T12:52:21Z</time></trkpt><trkpt lat="42.94047045711417" lon="10.517061923928907"><ele>77.0</ele><time>2026-04-19T12:52:22Z</time></trkpt><trkpt lat="42.9403355617911" lon="10.51703992171197"><ele>77.0</ele><time>2026-04-19T12:52:23Z</time></trkpt><trkpt lat="42.94018457451594" lon="10.51698384144558"><ele>77.0</ele><time>2026-04-19T12:52:24Z</time></trkpt><trkpt lat="42.94004073967128" lon="10.516948066574654"><ele>76.0</ele><time>2026-04-19T12:52:25Z</time></trkpt><trkpt lat="42.93989767852162" lon="10.516912210566705"><ele>75.0</ele><time>2026-04-19T12:52:26Z</time></trkpt><trkpt lat="42.939765418235936" lon="10.516873462808901"><ele>74.0</ele><time>2026-04-19T12:52:27Z</time></trkpt><trkpt lat="42.93963688753546" lon="10.51683134946922"><ele>73.0</ele><time>2026-04-19T12:52:28Z</time></trkpt><trkpt lat="42.93950256613097" lon="10.516787116436943"><ele>73.0</ele><time>2026-04-19T12:52:29Z</time></trkpt><trkpt lat="42.93937946913261" lon="10.516749721953024"><ele>73.0</ele><time>2026-04-19T12:52:30Z</time></trkpt><trkpt lat="42.93926565208794" lon="10.51674619899417"><ele>73.0</ele><time>2026-04-19T12:52:31Z</time></trkpt><trkpt lat="42.939153291122395" lon="10.51678683714866"><ele>73.0</ele><time>2026-04-19T12:52:32Z</time></trkpt><trkpt lat="42.939036402093386" lon="10.516861868678655"><ele>71.75</ele><time>2026-04-19T12:52:33Z</time></trkpt><trkpt lat="42.938925544500776" lon="10.516957498547749"><ele>70.5</ele><time>2026-04-19T12:52:34Z</time></trkpt><trkpt lat="42.938812756488346" lon="10.517060492788003"><ele>69.25</ele><time>2026-04-19T12:52:35Z</time></trkpt><trkpt lat="42.93868739602576" lon="10.517175810662279"><ele>68.0</ele><time>2026-04-19T12:52:36Z</time></trkpt><trkpt lat="42.938557802702725" lon="10.517282810183522"><ele>67.0</ele><time>2026-04-19T12:52:37Z</time></trkpt><trkpt lat="42.93842321599542" lon="10.517392720385237"><ele>66.0</ele><time>2026-04-19T12:52:38Z</time></trkpt><trkpt lat="42.93830640781497" lon="10.517480783681629"><ele>65.0</ele><time>2026-04-19T12:52:39Z</time></trkpt><trkpt lat="42.938197633770095" lon="10.517566281401253"><ele>64.0</ele><time>2026-04-19T12:52:40Z</time></trkpt><trkpt lat="42.93808866673067" lon="10.51765027677155"><ele>63.5</ele><time>2026-04-19T12:52:41Z</time></trkpt><trkpt lat="42.937967477971114" lon="10.517736289396339"><ele>63.0</ele><time>2026-04-19T12:52:42Z</time></trkpt><trkpt lat="42.937837847339516" lon="10.517787830006041"><ele>62.5</ele><time>2026-04-19T12:52:43Z</time></trkpt><trkpt lat="42.9377236925916" lon="10.517810182422549"><ele>62.0</ele><time>2026-04-19T12:52:44Z</time></trkpt><trkpt lat="42.937614946292825" lon="10.517833639956244"><ele>61.400000000000006</ele><time>2026-04-19T12:52:45Z</time></trkpt><trkpt lat="42.93751574036694" lon="10.517864017598749"><ele>60.800000000000004</ele><time>2026-04-19T12:52:46Z</time></trkpt><trkpt lat="42.937429524455375" lon="10.517871685839213"><ele>60.2</ele><time>2026-04-19T12:52:47Z</time></trkpt><trkpt lat="42.9373430869875" lon="10.517849868147986"><ele>59.6</ele><time>2026-04-19T12:52:48Z</time></trkpt><trkpt lat="42.937274996597296" lon="10.517813137251215"><ele>59.0</ele><time>2026-04-19T12:52:49Z</time></trkpt><trkpt lat="42.93714939254707" lon="10.51778071676141"><ele>59.0</ele><time>2026-04-19T12:52:51Z</time></trkpt><trkpt lat="42.93707905317917" lon="10.517824327421982"><ele>59.00000000000001</ele><time>2026-04-19T12:52:52Z</time></trkpt><trkpt lat="42.93701986392342" lon="10.517904187296473"><ele>59.00000000000001</ele><time>2026-04-19T12:52:53Z</time></trkpt><trkpt lat="42.93693596860657" lon="10.517988322430261"><ele>59.0</ele><time>2026-04-19T12:52:54Z</time></trkpt><trkpt lat="42.93682718433434" lon="10.518032996387408"><ele>59.0</ele><time>2026-04-19T12:52:55Z</time></trkpt><trkpt lat="42.936692191773595" lon="10.51806922156136"><ele>58.75</ele><time>2026-04-19T12:52:56Z</time></trkpt><trkpt lat="42.93655367076844" lon="10.518076030404421"><ele>58.5</ele><time>2026-04-19T12:52:57Z</time></trkpt><trkpt lat="42.93642091998699" lon="10.518094045113992"><ele>58.25</ele><time>2026-04-19T12:52:58Z</time></trkpt><trkpt lat="42.93631220832859" lon="10.518127682044238"><ele>58.0</ele><time>2026-04-19T12:52:59Z</time></trkpt><trkpt lat="42.936226692441515" lon="10.5181360675591"><ele>58.0</ele><time>2026-04-19T12:53:00Z</time></trkpt><trkpt lat="42.93614508405231" lon="10.518191282303794"><ele>58.0</ele><time>2026-04-19T12:53:01Z</time></trkpt><trkpt lat="42.93606988033933" lon="10.51836480091395"><ele>58.0</ele><time>2026-04-19T12:53:02Z</time></trkpt><trkpt lat="42.93598526144248" lon="10.518523704764684"><ele>58.0</ele><time>2026-04-19T12:53:03Z</time></trkpt><trkpt lat="42.935893775017874" lon="10.518685047289551"><ele>57.5</ele><time>2026-04-19T12:53:04Z</time></trkpt><trkpt lat="42.93580336291848" lon="10.51883963649171"><ele>57.0</ele><time>2026-04-19T12:53:05Z</time></trkpt><trkpt lat="42.93571969310082" lon="10.518992009930225"><ele>56.5</ele><time>2026-04-19T12:53:06Z</time></trkpt><trkpt lat="42.93564015840874" lon="10.519148457719854"><ele>56.0</ele><time>2026-04-19T12:53:07Z</time></trkpt><trkpt lat="42.93557115385528" lon="10.519292104655557"><ele>56.0</ele><time>2026-04-19T12:53:08Z</time></trkpt><trkpt lat="42.935511955047176" lon="10.519442375135867"><ele>56.0</ele><time>2026-04-19T12:53:09Z</time></trkpt><trkpt lat="42.93546838554947" lon="10.519578191316707"><ele>56.0</ele><time>2026-04-19T12:53:10Z</time></trkpt><trkpt lat="42.93543156746343" lon="10.519710808272452"><ele>56.0</ele><time>2026-04-19T12:53:11Z</time></trkpt><trkpt lat="42.93538183077268" lon="10.519855113232078"><ele>55.8</ele><time>2026-04-19T12:53:12Z</time></trkpt><trkpt lat="42.93531561437436" lon="10.519958205371061"><ele>55.599999999999994</ele><time>2026-04-19T12:53:13Z</time></trkpt><trkpt lat="42.93523125586325" lon="10.519997030784074"><ele>55.4</ele><time>2026-04-19T12:53:14Z</time></trkpt><trkpt lat="42.935121697497166" lon="10.5199726774849"><ele>55.2</ele><time>2026-04-19T12:53:15Z</time></trkpt><trkpt lat="42.935015482553986" lon="10.519897570003383"><ele>55.0</ele><time>2026-04-19T12:53:16Z</time></trkpt><trkpt lat="42.934920598552324" lon="10.519879502218945"><ele>54.2</ele><time>2026-04-19T12:53:17Z</time></trkpt><trkpt lat="42.93484912554125" lon="10.519840689568428"><ele>53.4</ele><time>2026-04-19T12:53:18Z</time></trkpt><trkpt lat="42.93476990924865" lon="10.519772127012875"><ele>52.599999999999994</ele><time>2026-04-19T12:53:19Z</time></trkpt><trkpt lat="42.93470115773233" lon="10.519666476584401"><ele>51.8</ele><time>2026-04-19T12:53:20Z</time></trkpt><trkpt lat="42.93463381191587" lon="10.519602860442538"><ele>51.0</ele><time>2026-04-19T12:53:21Z</time></trkpt><trkpt lat="42.934539763067995" lon="10.519610255865624"><ele>51.0</ele><time>2026-04-19T12:53:22Z</time></trkpt><trkpt lat="42.93443706276253" lon="10.519661170051007"><ele>51.0</ele><time>2026-04-19T12:53:23Z</time></trkpt><trkpt lat="42.93432895547084" lon="10.519646521434085"><ele>51.0</ele><time>2026-04-19T12:53:24Z</time></trkpt><trkpt lat="42.93421635505959" lon="10.519607765756902"><ele>51.0</ele><time>2026-04-19T12:53:25Z</time></trkpt><trkpt lat="42.93411421432823" lon="10.519591592955324"><ele>51.0</ele><time>2026-04-19T12:53:26Z</time></trkpt><trkpt lat="42.93402932815711" lon="10.519577992819418"><ele>50.599999999999994</ele><time>2026-04-19T12:53:27Z</time></trkpt><trkpt lat="42.93394814662391" lon="10.519577135487426"><ele>50.2</ele><time>2026-04-19T12:53:28Z</time></trkpt><trkpt lat="42.93386840060745" lon="10.519547650675177"><ele>49.8</ele><time>2026-04-19T12:53:29Z</time></trkpt><trkpt lat="42.93377301102233" lon="10.519565993746749"><ele>49.400000000000006</ele><time>2026-04-19T12:53:30Z</time></trkpt><trkpt lat="42.93366762645095" lon="10.519561880851324"><ele>49.0</ele><time>2026-04-19T12:53:31Z</time></trkpt><trkpt lat="42.93355288795184" lon="10.519573710152114"><ele>49.0</ele><time>2026-04-19T12:53:32Z</time></trkpt><trkpt lat="42.93344649004691" lon="10.519588263963348"><ele>49.0</ele><time>2026-04-19T12:53:33Z</time></trkpt><trkpt lat="42.93334249807609" lon="10.5196060391032"><ele>49.0</ele><time>2026-04-19T12:53:34Z</time></trkpt><trkpt lat="42.93324675679828" lon="10.519630516574122"><ele>49.0</ele><time>2026-04-19T12:53:35Z</time></trkpt><trkpt lat="42.93315380298721" lon="10.519667475660574"><ele>49.0</ele><time>2026-04-19T12:53:36Z</time></trkpt><trkpt lat="42.933053447953625" lon="10.519683173439448"><ele>48.5</ele><time>2026-04-19T12:53:37Z</time></trkpt><trkpt lat="42.932958417233586" lon="10.519761066417546"><ele>48.0</ele><time>2026-04-19T12:53:38Z</time></trkpt><trkpt lat="42.93284854534138" lon="10.519804744507496"><ele>47.5</ele><time>2026-04-19T12:53:39Z</time></trkpt><trkpt lat="42.93273792780444" lon="10.519859307285607"><ele>47.0</ele><time>2026-04-19T12:53:40Z</time></trkpt><trkpt lat="42.93262857089477" lon="10.519902600501837"><ele>46.666666666666664</ele><time>2026-04-19T12:53:41Z</time></trkpt><trkpt lat="42.93253113411555" lon="10.519943253407634"><ele>46.33333333333333</ele><time>2026-04-19T12:53:42Z</time></trkpt><trkpt lat="42.93244518627177" lon="10.519974615613759"><ele>46.0</ele><time>2026-04-19T12:53:43Z</time></trkpt><trkpt lat="42.93236322490779" lon="10.520000859795424"><ele>45.666666666666664</ele><time>2026-04-19T12:53:44Z</time></trkpt><trkpt lat="42.93229035958466" lon="10.520025514692714"><ele>45.333333333333336</ele><time>2026-04-19T12:53:45Z</time></trkpt><trkpt lat="42.932218940975076" lon="10.51999746791342"><ele>45.0</ele><time>2026-04-19T12:53:46Z</time></trkpt><trkpt lat="42.932155400334885" lon="10.520008700691854"><ele>45.0</ele><time>2026-04-19T12:53:47Z</time></trkpt><trkpt lat="42.93206661391816" lon="10.520024396571468"><ele>45.0</ele><time>2026-04-19T12:53:50Z</time></trkpt><trkpt lat="42.93207839907555" lon="10.520272343483537"><ele>45.0</ele><time>2026-04-19T12:53:51Z</time></trkpt><trkpt lat="42.932106564350086" lon="10.520389605916659"><ele>45.0</ele><time>2026-04-19T12:53:52Z</time></trkpt><trkpt lat="42.93211785855558" lon="10.520491326985924"><ele>45.0</ele><time>2026-04-19T12:53:53Z</time></trkpt><trkpt lat="42.932115776440966" lon="10.520581185232686"><ele>45.2</ele><time>2026-04-19T12:53:54Z</time></trkpt><trkpt lat="42.93213215369521" lon="10.520702355019285"><ele>45.4</ele><time>2026-04-19T12:53:56Z</time></trkpt><trkpt lat="42.93202284251594" lon="10.520758286933944"><ele>45.599999999999994</ele><time>2026-04-19T12:53:58Z</time></trkpt><trkpt lat="42.931925703316395" lon="10.52077829527336"><ele>45.8</ele><time>2026-04-19T12:54:00Z</time></trkpt><trkpt lat="42.93181654532728" lon="10.520794596380105"><ele>46.0</ele><time>2026-04-19T12:54:01Z</time></trkpt><trkpt lat="42.93171941026556" lon="10.520813566434898"><ele>45.599999999999994</ele><time>2026-04-19T12:54:02Z</time></trkpt><trkpt lat="42.931636379854616" lon="10.52080834954968"><ele>45.2</ele><time>2026-04-19T12:54:04Z</time></trkpt><trkpt lat="42.931549124746525" lon="10.520833557694973"><ele>44.8</ele><time>2026-04-19T12:54:05Z</time></trkpt><trkpt lat="42.931435067734" lon="10.520859083580724"><ele>44.400000000000006</ele><time>2026-04-19T12:54:06Z</time></trkpt><trkpt lat="42.93133843253392" lon="10.520877057627938"><ele>44.0</ele><time>2026-04-19T12:54:07Z</time></trkpt><trkpt lat="42.93126097206984" lon="10.520913526977822"><ele>44.0</ele><time>2026-04-19T12:54:08Z</time></trkpt><trkpt lat="42.931167573075946" lon="10.520927044265834"><ele>44.0</ele><time>2026-04-19T12:54:09Z</time></trkpt><trkpt lat="42.93106922248597" lon="10.52094646550909"><ele>44.0</ele><time>2026-04-19T12:54:10Z</time></trkpt><trkpt lat="42.93097458498047" lon="10.520957363142042"><ele>44.0</ele><time>2026-04-19T12:54:11Z</time></trkpt><trkpt lat="42.93088855484986" lon="10.520966166772986"><ele>44.0</ele><time>2026-04-19T12:54:12Z</time></trkpt><trkpt lat="42.93080394698093" lon="10.520993341530641"><ele>44.166666666666664</ele><time>2026-04-19T12:54:13Z</time></trkpt><trkpt lat="42.93070003183068" lon="10.521013555239078"><ele>44.33333333333333</ele><time>2026-04-19T12:54:14Z</time></trkpt><trkpt lat="42.93060666634368" lon="10.52102797335053"><ele>44.5</ele><time>2026-04-19T12:54:15Z</time></trkpt><trkpt lat="42.93051444686251" lon="10.521049511822655"><ele>44.666666666666664</ele><time>2026-04-19T12:54:16Z</time></trkpt><trkpt lat="42.93043306498704" lon="10.521073529549074"><ele>44.833333333333336</ele><time>2026-04-19T12:54:17Z</time></trkpt><trkpt lat="42.930363750246805" lon="10.521095479477887"><ele>45.0</ele><time>2026-04-19T12:54:18Z</time></trkpt><trkpt lat="42.930284117596536" lon="10.521121292898538"><ele>45.0</ele><time>2026-04-19T12:54:19Z</time></trkpt><trkpt lat="42.930164639500994" lon="10.521150175803248"><ele>45.0</ele><time>2026-04-19T12:54:21Z</time></trkpt><trkpt lat="42.93009455110095" lon="10.521162845624167"><ele>45.0</ele><time>2026-04-19T12:54:22Z</time></trkpt><trkpt lat="42.93002177285383" lon="10.521178322670112"><ele>45.0</ele><time>2026-04-19T12:54:23Z</time></trkpt><trkpt lat="42.92994772510497" lon="10.521196275710802"><ele>45.0</ele><time>2026-04-19T12:54:24Z</time></trkpt><trkpt lat="42.92988080038479" lon="10.521202306619385"><ele>45.0</ele><time>2026-04-19T12:54:25Z</time></trkpt><trkpt lat="42.92979982249735" lon="10.521220247696034"><ele>44.4</ele><time>2026-04-19T12:54:26Z</time></trkpt><trkpt lat="42.92967536504454" lon="10.521224131276783"><ele>43.8</ele><time>2026-04-19T12:54:28Z</time></trkpt><trkpt lat="42.92957845401405" lon="10.521236228203033"><ele>43.2</ele><time>2026-04-19T12:54:29Z</time></trkpt><trkpt lat="42.929482209113196" lon="10.521260754581824"><ele>42.6</ele><time>2026-04-19T12:54:30Z</time></trkpt><trkpt lat="42.929394971561386" lon="10.521285079880624"><ele>42.0</ele><time>2026-04-19T12:54:31Z</time></trkpt><trkpt lat="42.9293165037507" lon="10.521312038267206"><ele>42.0</ele><time>2026-04-19T12:54:32Z</time></trkpt><trkpt lat="42.92924112482839" lon="10.521331793017437"><ele>42.0</ele><time>2026-04-19T12:54:33Z</time></trkpt><trkpt lat="42.92914646815833" lon="10.52134700999254"><ele>42.0</ele><time>2026-04-19T12:54:34Z</time></trkpt><trkpt lat="42.92905553458702" lon="10.521371949367168"><ele>42.0</ele><time>2026-04-19T12:54:35Z</time></trkpt><trkpt lat="42.92898790713898" lon="10.52138658494966"><ele>42.0</ele><time>2026-04-19T12:54:36Z</time></trkpt><trkpt lat="42.928872771947084" lon="10.521416041309083"><ele>40.5</ele><time>2026-04-19T12:54:38Z</time></trkpt><trkpt lat="42.92878090059955" lon="10.521396563329965"><ele>39.0</ele><time>2026-04-19T12:54:40Z</time></trkpt><trkpt lat="42.92870713669395" lon="10.52134731928786"><ele>37.5</ele><time>2026-04-19T12:54:42Z</time></trkpt><trkpt lat="42.928626982319955" lon="10.521374836340101"><ele>36.0</ele><time>2026-04-19T12:54:44Z</time></trkpt><trkpt lat="42.92858449693187" lon="10.521457815124785"><ele>34.5</ele><time>2026-04-19T12:54:45Z</time></trkpt><trkpt lat="42.928516761384394" lon="10.521510090779099"><ele>33.0</ele><time>2026-04-19T12:54:46Z</time></trkpt><trkpt lat="42.92842924867064" lon="10.521530772514755"><ele>32.4</ele><time>2026-04-19T12:54:47Z</time></trkpt><trkpt lat="42.9283362194748" lon="10.521536222179856"><ele>31.799999999999997</ele><time>2026-04-19T12:54:48Z</time></trkpt><trkpt lat="42.92823827478195" lon="10.521560173063019"><ele>31.2</ele><time>2026-04-19T12:54:49Z</time></trkpt><trkpt lat="42.928133461891434" lon="10.521581920274881"><ele>30.6</ele><time>2026-04-19T12:54:50Z</time></trkpt><trkpt lat="42.92802223935263" lon="10.521594526476719"><ele>30.0</ele><time>2026-04-19T12:54:51Z</time></trkpt><trkpt lat="42.92791705475778" lon="10.521611655423138"><ele>30.0</ele><time>2026-04-19T12:54:52Z</time></trkpt><trkpt lat="42.92780759764773" lon="10.521639520302575"><ele>30.0</ele><time>2026-04-19T12:54:53Z</time></trkpt><trkpt lat="42.92770623832653" lon="10.521656747341135"><ele>30.0</ele><time>2026-04-19T12:54:54Z</time></trkpt><trkpt lat="42.92760289455462" lon="10.521678184035128"><ele>30.0</ele><time>2026-04-19T12:54:55Z</time></trkpt><trkpt lat="42.92749457674373" lon="10.521702872880557"><ele>30.0</ele><time>2026-04-19T12:54:56Z</time></trkpt><trkpt lat="42.92737458484364" lon="10.52172547690726"><ele>29.75</ele><time>2026-04-19T12:54:57Z</time></trkpt><trkpt lat="42.927256925283956" lon="10.521746842645443"><ele>29.5</ele><time>2026-04-19T12:54:58Z</time></trkpt><trkpt lat="42.927132087477794" lon="10.521771062778134"><ele>29.25</ele><time>2026-04-19T12:54:59Z</time></trkpt><trkpt lat="42.92701455781453" lon="10.521789956449936"><ele>29.0</ele><time>2026-04-19T12:55:00Z</time></trkpt><trkpt lat="42.92690162808936" lon="10.521809951910313"><ele>28.999999999999996</ele><time>2026-04-19T12:55:01Z</time></trkpt><trkpt lat="42.92680521529048" lon="10.52183041077108"><ele>29.0</ele><time>2026-04-19T12:55:02Z</time></trkpt><trkpt lat="42.926720125767176" lon="10.521852182900751"><ele>29.0</ele><time>2026-04-19T12:55:03Z</time></trkpt><trkpt lat="42.92663810194978" lon="10.521864705708307"><ele>29.0</ele><time>2026-04-19T12:55:04Z</time></trkpt><trkpt lat="42.92656688139496" lon="10.521864713822033"><ele>28.999999999999996</ele><time>2026-04-19T12:55:05Z</time></trkpt><trkpt lat="42.926466155627544" lon="10.521894946021387"><ele>29.0</ele><time>2026-04-19T12:55:07Z</time></trkpt><trkpt lat="42.926341608841184" lon="10.521898146271235"><ele>29.2</ele><time>2026-04-19T12:55:11Z</time></trkpt><trkpt lat="42.926251380872934" lon="10.521907442936852"><ele>29.4</ele><time>2026-04-19T12:55:12Z</time></trkpt><trkpt lat="42.92615641980705" lon="10.521926614917954"><ele>29.6</ele><time>2026-04-19T12:55:13Z</time></trkpt><trkpt lat="42.92604085365317" lon="10.52193881294562"><ele>29.8</ele><time>2026-04-19T12:55:14Z</time></trkpt><trkpt lat="42.925950651562964" lon="10.521973933803144"><ele>30.0</ele><time>2026-04-19T12:55:15Z</time></trkpt><trkpt lat="42.92587679185819" lon="10.521977246229168"><ele>30.0</ele><time>2026-04-19T12:55:16Z</time></trkpt><trkpt lat="42.925786743227555" lon="10.521988468734712"><ele>30.0</ele><time>2026-04-19T12:55:17Z</time></trkpt><trkpt lat="42.925705384789616" lon="10.522017221205317"><ele>30.0</ele><time>2026-04-19T12:55:18Z</time></trkpt><trkpt lat="42.92560530299403" lon="10.52202843623505"><ele>30.0</ele><time>2026-04-19T12:55:20Z</time></trkpt><trkpt lat="42.92556818268834" lon="10.522101833662868"><ele>30.0</ele><time>2026-04-19T12:55:22Z</time></trkpt><trkpt lat="42.92554655388397" lon="10.52218862890993"><ele>30.0</ele><time>2026-04-19T12:55:23Z</time></trkpt><trkpt lat="42.92552337228466" lon="10.522310100334462"><ele>30.0</ele><time>2026-04-19T12:55:24Z</time></trkpt><trkpt lat="42.92550649297616" lon="10.522445920740838"><ele>30.0</ele><time>2026-04-19T12:55:25Z</time></trkpt><trkpt lat="42.92547858956263" lon="10.522596403764428"><ele>30.0</ele><time>2026-04-19T12:55:26Z</time></trkpt><trkpt lat="42.92546247969857" lon="10.522716539384971"><ele>30.0</ele><time>2026-04-19T12:55:27Z</time></trkpt><trkpt lat="42.92545389188473" lon="10.522803789686792"><ele>30.0</ele><time>2026-04-19T12:55:28Z</time></trkpt><trkpt lat="42.9254269997589" lon="10.522928398032333"><ele>30.0</ele><time>2026-04-19T12:55:30Z</time></trkpt><trkpt lat="42.92528690361301" lon="10.522929986738749"><ele>30.0</ele><time>2026-04-19T12:55:32Z</time></trkpt><trkpt lat="42.925206718967154" lon="10.522889932105254"><ele>30.0</ele><time>2026-04-19T12:55:33Z</time></trkpt><trkpt lat="42.92511609100705" lon="10.522851317891714"><ele>30.0</ele><time>2026-04-19T12:55:34Z</time></trkpt><trkpt lat="42.92502019118093" lon="10.522824235326746"><ele>30.0</ele><time>2026-04-19T12:55:35Z</time></trkpt><trkpt lat="42.924927102849075" lon="10.522807870993711"><ele>29.5</ele><time>2026-04-19T12:55:36Z</time></trkpt><trkpt lat="42.92483458068072" lon="10.522795360284574"><ele>29.0</ele><time>2026-04-19T12:55:37Z</time></trkpt><trkpt lat="42.924752559760336" lon="10.522778946549836"><ele>28.5</ele><time>2026-04-19T12:55:38Z</time></trkpt><trkpt lat="42.92468089331773" lon="10.52276558129323"><ele>28.0</ele><time>2026-04-19T12:55:39Z</time></trkpt><trkpt lat="42.92460351784853" lon="10.522751823281116"><ele>27.5</ele><time>2026-04-19T12:55:40Z</time></trkpt><trkpt lat="42.92451575498767" lon="10.522734109978034"><ele>27.0</ele><time>2026-04-19T12:55:41Z</time></trkpt><trkpt lat="42.924418708830395" lon="10.522705489949345"><ele>27.0</ele><time>2026-04-19T12:55:42Z</time></trkpt><trkpt lat="42.92431840188548" lon="10.522699177784087"><ele>27.000000000000004</ele><time>2026-04-19T12:55:43Z</time></trkpt><trkpt lat="42.92421784883259" lon="10.522655176537576"><ele>27.000000000000004</ele><time>2026-04-19T12:55:44Z</time></trkpt><trkpt lat="42.92411218350735" lon="10.52263037885513"><ele>27.0</ele><time>2026-04-19T12:55:45Z</time></trkpt><trkpt lat="42.92400827771782" lon="10.522604941204229"><ele>27.0</ele><time>2026-04-19T12:55:46Z</time></trkpt><trkpt lat="42.923915463035016" lon="10.522587431486878"><ele>27.166666666666668</ele><time>2026-04-19T12:55:47Z</time></trkpt><trkpt lat="42.92383720782777" lon="10.522572474466195"><ele>27.333333333333336</ele><time>2026-04-19T12:55:48Z</time></trkpt><trkpt lat="42.92376678546332" lon="10.522552466186202"><ele>27.5</ele><time>2026-04-19T12:55:49Z</time></trkpt><trkpt lat="42.923702772755725" lon="10.522531124402496"><ele>27.666666666666668</ele><time>2026-04-19T12:55:50Z</time></trkpt><trkpt lat="42.923603190717905" lon="10.522548383507557"><ele>27.833333333333336</ele><time>2026-04-19T12:55:52Z</time></trkpt><trkpt lat="42.92357034043346" lon="10.52270279503259"><ele>28.0</ele><time>2026-04-19T12:55:54Z</time></trkpt><trkpt lat="42.923589265507054" lon="10.522810086607839"><ele>27.799999999999997</ele><time>2026-04-19T12:55:55Z</time></trkpt><trkpt lat="42.92359445036855" lon="10.522924277172525"><ele>27.599999999999998</ele><time>2026-04-19T12:55:56Z</time></trkpt><trkpt lat="42.92359410529998" lon="10.523061307715878"><ele>27.400000000000002</ele><time>2026-04-19T12:55:57Z</time></trkpt><trkpt lat="42.92358703480162" lon="10.523199918360962"><ele>27.200000000000003</ele><time>2026-04-19T12:55:58Z</time></trkpt><trkpt lat="42.92358723186568" lon="10.52333221786893"><ele>27.0</ele><time>2026-04-19T12:55:59Z</time></trkpt><trkpt lat="42.92359063370944" lon="10.523450515539828"><ele>27.0</ele><time>2026-04-19T12:56:00Z</time></trkpt><trkpt lat="42.92358444106925" lon="10.523559355676298"><ele>27.0</ele><time>2026-04-19T12:56:01Z</time></trkpt><trkpt lat="42.92357879025244" lon="10.523664860682668"><ele>27.0</ele><time>2026-04-19T12:56:02Z</time></trkpt><trkpt lat="42.92357652592849" lon="10.523784042434167"><ele>27.0</ele><time>2026-04-19T12:56:03Z</time></trkpt><trkpt lat="42.92357525099239" lon="10.523914432977625"><ele>27.0</ele><time>2026-04-19T12:56:04Z</time></trkpt><trkpt lat="42.92357031611901" lon="10.52405001672329"><ele>27.0</ele><time>2026-04-19T12:56:05Z</time></trkpt><trkpt lat="42.923559149557505" lon="10.524175280975197"><ele>27.0</ele><time>2026-04-19T12:56:06Z</time></trkpt><trkpt lat="42.92356111594956" lon="10.524295112596993"><ele>27.0</ele><time>2026-04-19T12:56:07Z</time></trkpt><trkpt lat="42.9235454432389" lon="10.524409001383592"><ele>27.0</ele><time>2026-04-19T12:56:08Z</time></trkpt><trkpt lat="42.923554202785986" lon="10.524516000256888"><ele>27.0</ele><time>2026-04-19T12:56:09Z</time></trkpt><trkpt lat="42.92355080167827" lon="10.524621018472574"><ele>27.0</ele><time>2026-04-19T12:56:10Z</time></trkpt><trkpt lat="42.923549250543005" lon="10.52472937815789"><ele>27.0</ele><time>2026-04-19T12:56:11Z</time></trkpt><trkpt lat="42.92353832946532" lon="10.524835109851292"><ele>26.400000000000002</ele><time>2026-04-19T12:56:12Z</time></trkpt><trkpt lat="42.923532835806085" lon="10.524936278579622"><ele>25.800000000000004</ele><time>2026-04-19T12:56:13Z</time></trkpt><trkpt lat="42.923520179161606" lon="10.525041234022272"><ele>25.2</ele><time>2026-04-19T12:56:14Z</time></trkpt><trkpt lat="42.923525089603245" lon="10.525200857959378"><ele>24.6</ele><time>2026-04-19T12:56:16Z</time></trkpt><trkpt lat="42.923506463388506" lon="10.525338439018888"><ele>24.0</ele><time>2026-04-19T12:56:18Z</time></trkpt><trkpt lat="42.92349876602578" lon="10.52545590239787"><ele>23.5</ele><time>2026-04-19T12:56:20Z</time></trkpt><trkpt lat="42.92348820859988" lon="10.525614325865128"><ele>23.0</ele><time>2026-04-19T12:56:25Z</time></trkpt><trkpt lat="42.9234755645321" lon="10.525768554930856"><ele>22.5</ele><time>2026-04-19T12:56:26Z</time></trkpt><trkpt lat="42.923469393883884" lon="10.525860662341003"><ele>22.0</ele><time>2026-04-19T12:56:27Z</time></trkpt><trkpt lat="42.92346458741876" lon="10.525959717294294"><ele>21.5</ele><time>2026-04-19T12:56:28Z</time></trkpt><trkpt lat="42.923459666066755" lon="10.526061139952123"><ele>21.0</ele><time>2026-04-19T12:56:29Z</time></trkpt><trkpt lat="42.92345442818353" lon="10.526169088513011"><ele>21.6</ele><time>2026-04-19T12:56:30Z</time></trkpt><trkpt lat="42.923450560278084" lon="10.52628199416012"><ele>22.200000000000003</ele><time>2026-04-19T12:56:31Z</time></trkpt><trkpt lat="42.923446826457685" lon="10.526454405007597"><ele>22.799999999999997</ele><time>2026-04-19T12:56:32Z</time></trkpt><trkpt lat="42.92345517715908" lon="10.526611627139856"><ele>23.4</ele><time>2026-04-19T12:56:33Z</time></trkpt><trkpt lat="42.923484219702566" lon="10.526736696142006"><ele>24.0</ele><time>2026-04-19T12:56:34Z</time></trkpt><trkpt lat="42.923492987399996" lon="10.5268557604411"><ele>24.0</ele><time>2026-04-19T12:56:35Z</time></trkpt><trkpt lat="42.923541012595464" lon="10.526921195665993"><ele>24.0</ele><time>2026-04-19T12:56:36Z</time></trkpt><trkpt lat="42.92358608055852" lon="10.526996515010696"><ele>24.0</ele><time>2026-04-19T12:56:37Z</time></trkpt><trkpt lat="42.92362361692564" lon="10.527094145525428"><ele>24.0</ele><time>2026-04-19T12:56:38Z</time></trkpt><trkpt lat="42.92366208107771" lon="10.527187446962493"><ele>24.0</ele><time>2026-04-19T12:56:39Z</time></trkpt><trkpt lat="42.92370539532404" lon="10.527285558331291"><ele>24.0</ele><time>2026-04-19T12:56:40Z</time></trkpt><trkpt lat="42.923736698039555" lon="10.52739290859165"><ele>23.666666666666668</ele><time>2026-04-19T12:56:41Z</time></trkpt><trkpt lat="42.923735292950305" lon="10.52750257822977"><ele>23.333333333333332</ele><time>2026-04-19T12:56:42Z</time></trkpt><trkpt lat="42.92370686377222" lon="10.5275826868478"><ele>23.0</ele><time>2026-04-19T12:56:43Z</time></trkpt><trkpt lat="42.92358960751214" lon="10.527662409693795"><ele>22.666666666666664</ele><time>2026-04-19T12:56:45Z</time></trkpt><trkpt lat="42.92353584074108" lon="10.527741601663136"><ele>22.333333333333332</ele><time>2026-04-19T12:56:46Z</time></trkpt><trkpt lat="42.92348034610036" lon="10.527838804942235"><ele>22.0</ele><time>2026-04-19T12:56:47Z</time></trkpt><trkpt lat="42.92343286686562" lon="10.527921921134375"><ele>22.0</ele><time>2026-04-19T12:56:48Z</time></trkpt><trkpt lat="42.92339023383122" lon="10.52803408695625"><ele>22.0</ele><time>2026-04-19T12:56:49Z</time></trkpt><trkpt lat="42.92335527522508" lon="10.52815423656458"><ele>22.0</ele><time>2026-04-19T12:56:50Z</time></trkpt><trkpt lat="42.923327072665636" lon="10.528254423695753"><ele>22.0</ele><time>2026-04-19T12:56:51Z</time></trkpt><trkpt lat="42.92328537988736" lon="10.528354461748332"><ele>22.0</ele><time>2026-04-19T12:56:52Z</time></trkpt><trkpt lat="42.92323179746881" lon="10.528456447682954"><ele>22.0</ele><time>2026-04-19T12:56:53Z</time></trkpt><trkpt lat="42.92317485682326" lon="10.528571763454378"><ele>22.0</ele><time>2026-04-19T12:56:54Z</time></trkpt><trkpt lat="42.92312038099316" lon="10.5286842532773"><ele>22.0</ele><time>2026-04-19T12:56:55Z</time></trkpt><trkpt lat="42.92307893443537" lon="10.52878813020126"><ele>22.0</ele><time>2026-04-19T12:56:56Z</time></trkpt><trkpt lat="42.92304060324505" lon="10.528873012454952"><ele>22.0</ele><time>2026-04-19T12:56:57Z</time></trkpt><trkpt lat="42.92300668976957" lon="10.528950090862345"><ele>22.0</ele><time>2026-04-19T12:56:58Z</time></trkpt><trkpt lat="42.922969585056286" lon="10.52905346358221"><ele>22.0</ele><time>2026-04-19T12:56:59Z</time></trkpt><trkpt lat="42.92292337376593" lon="10.529149253886104"><ele>22.0</ele><time>2026-04-19T12:57:00Z</time></trkpt><trkpt lat="42.92287822667529" lon="10.529261520039555"><ele>22.0</ele><time>2026-04-19T12:57:01Z</time></trkpt><trkpt lat="42.9228370447206" lon="10.5293684168837"><ele>22.0</ele><time>2026-04-19T12:57:02Z</time></trkpt><trkpt lat="42.922789737502136" lon="10.529471602027948"><ele>22.0</ele><time>2026-04-19T12:57:03Z</time></trkpt><trkpt lat="42.92274159536121" lon="10.529587096701398"><ele>22.0</ele><time>2026-04-19T12:57:04Z</time></trkpt><trkpt lat="42.92269623737737" lon="10.529684637193373"><ele>21.6</ele><time>2026-04-19T12:57:05Z</time></trkpt><trkpt lat="42.92264117806758" lon="10.529781455969655"><ele>21.200000000000003</ele><time>2026-04-19T12:57:06Z</time></trkpt><trkpt lat="42.922603223168416" lon="10.529893950331424"><ele>20.8</ele><time>2026-04-19T12:57:07Z</time></trkpt><trkpt lat="42.922560335112486" lon="10.529991438474106"><ele>20.4</ele><time>2026-04-19T12:57:08Z</time></trkpt><trkpt lat="42.92250424812722" lon="10.530105654059096"><ele>20.0</ele><time>2026-04-19T12:57:09Z</time></trkpt><trkpt lat="42.92245848978357" lon="10.530207477962113"><ele>20.8</ele><time>2026-04-19T12:57:10Z</time></trkpt><trkpt lat="42.922415365499546" lon="10.530323391670803"><ele>21.6</ele><time>2026-04-19T12:57:11Z</time></trkpt><trkpt lat="42.922359831000264" lon="10.530426365686894"><ele>22.4</ele><time>2026-04-19T12:57:12Z</time></trkpt><trkpt lat="42.922311556114565" lon="10.530520745947728"><ele>23.2</ele><time>2026-04-19T12:57:13Z</time></trkpt><trkpt lat="42.922266125300034" lon="10.530622150897356"><ele>24.0</ele><time>2026-04-19T12:57:14Z</time></trkpt><trkpt lat="42.92222886166869" lon="10.530736328571058"><ele>24.0</ele><time>2026-04-19T12:57:15Z</time></trkpt><trkpt lat="42.92217712703257" lon="10.530825110256021"><ele>24.0</ele><time>2026-04-19T12:57:16Z</time></trkpt><trkpt lat="42.92213957229102" lon="10.530912132023818"><ele>24.0</ele><time>2026-04-19T12:57:17Z</time></trkpt><trkpt lat="42.92210583671503" lon="10.531013942518841"><ele>24.0</ele><time>2026-04-19T12:57:18Z</time></trkpt><trkpt lat="42.92204215809707" lon="10.531071294092673"><ele>24.0</ele><time>2026-04-19T12:57:19Z</time></trkpt><trkpt lat="42.92200289175776" lon="10.53116016042657"><ele>24.0</ele><time>2026-04-19T12:57:20Z</time></trkpt><trkpt lat="42.92194172557544" lon="10.531296650512203"><ele>24.333333333333332</ele><time>2026-04-19T12:57:22Z</time></trkpt><trkpt lat="42.921908613927336" lon="10.531370539006348"><ele>24.666666666666664</ele><time>2026-04-19T12:57:25Z</time></trkpt><trkpt lat="42.921871691427555" lon="10.53145293031036"><ele>25.0</ele><time>2026-04-19T12:57:36Z</time></trkpt><trkpt lat="42.921835121668764" lon="10.53153698637022"><ele>25.333333333333332</ele><time>2026-04-19T12:58:17Z</time></trkpt><trkpt lat="42.92176959578784" lon="10.531651308431782"><ele>25.666666666666664</ele><time>2026-04-19T12:58:19Z</time></trkpt><trkpt lat="42.92166480166629" lon="10.531725073447383"><ele>26.0</ele><time>2026-04-19T12:58:21Z</time></trkpt><trkpt lat="42.92157774135622" lon="10.531715431153492"><ele>25.999999999999996</ele><time>2026-04-19T12:58:22Z</time></trkpt><trkpt lat="42.921487026856624" lon="10.531703808043597"><ele>26.0</ele><time>2026-04-19T12:58:23Z</time></trkpt><trkpt lat="42.92138559035966" lon="10.531697956757489"><ele>26.0</ele><time>2026-04-19T12:58:24Z</time></trkpt><trkpt lat="42.921283697274134" lon="10.531702857333258"><ele>26.0</ele><time>2026-04-19T12:58:25Z</time></trkpt><trkpt lat="42.92120130543649" lon="10.53171128453191"><ele>25.999999999999996</ele><time>2026-04-19T12:58:26Z</time></trkpt><trkpt lat="42.92113693767931" lon="10.531708310845405"><ele>26.0</ele><time>2026-04-19T12:58:27Z</time></trkpt><trkpt lat="42.921038189849135" lon="10.531612105438496"><ele>25.999999999999996</ele><time>2026-04-19T12:58:29Z</time></trkpt><trkpt lat="42.92101035583348" lon="10.531499049159738"><ele>26.0</ele><time>2026-04-19T12:58:30Z</time></trkpt><trkpt lat="42.92098300981101" lon="10.531382041081464"><ele>26.0</ele><time>2026-04-19T12:58:31Z</time></trkpt><trkpt lat="42.92095599491897" lon="10.531283335788233"><ele>26.0</ele><time>2026-04-19T12:58:32Z</time></trkpt><trkpt lat="42.92093878990243" lon="10.531198625259709"><ele>25.999999999999996</ele><time>2026-04-19T12:58:33Z</time></trkpt><trkpt lat="42.92094895052291" lon="10.531107258209266"><ele>26.0</ele><time>2026-04-19T12:58:34Z</time></trkpt><trkpt lat="42.92097843990436" lon="10.531015585436222"><ele>26.714285714285715</ele><time>2026-04-19T12:58:35Z</time></trkpt><trkpt lat="42.920997941519495" lon="10.530931323198667"><ele>27.42857142857143</ele><time>2026-04-19T12:58:36Z</time></trkpt><trkpt lat="42.921003684937624" lon="10.530809003418323"><ele>28.142857142857146</ele><time>2026-04-19T12:58:38Z</time></trkpt><trkpt lat="42.92102659118453" lon="10.530728203969113"><ele>28.857142857142858</ele><time>2026-04-19T12:58:42Z</time></trkpt><trkpt lat="42.92103967040449" lon="10.53063110015761"><ele>29.571428571428577</ele><time>2026-04-19T13:15:38Z</time></trkpt><trkpt lat="42.921057767211465" lon="10.530547287001106"><ele>30.28571428571429</ele><time>2026-04-19T13:15:46Z</time></trkpt><trkpt lat="42.92105687181394" lon="10.5306386636501"><ele>31.0</ele><time>2026-04-19T13:16:03Z</time></trkpt><trkpt lat="42.920982306296885" lon="10.530692766743986"><ele>31.000000000000004</ele><time>2026-04-19T13:18:42Z</time></trkpt><trkpt lat="42.92107294717426" lon="10.530685612757198"><ele>31.0</ele><time>2026-04-19T13:21:39Z</time></trkpt><trkpt lat="42.921049465379" lon="10.530597478766875"><ele>31.0</ele><time>2026-04-19T13:23:33Z</time></trkpt><trkpt lat="42.9210404822405" lon="10.530684689204623"><ele>31.0</ele><time>2026-04-19T13:25:14Z</time></trkpt><trkpt lat="42.921108998691864" lon="10.530691735935449"><ele>31.000000000000004</ele><time>2026-04-19T13:25:43Z</time></trkpt><trkpt lat="42.921083722614" lon="10.53058586840296"><ele>31.0</ele><time>2026-04-19T13:25:55Z</time></trkpt><trkpt lat="42.92105612503844" lon="10.530406064624067"><ele>31.0</ele><time>2026-04-19T13:26:06.07Z</time></trkpt><trkpt lat="42.92104255420283" lon="10.53031971176114"><ele>31.0</ele><time>2026-04-19T13:26:09.044Z</time></trkpt><trkpt lat="42.92100906108577" lon="10.530225175279828"><ele>31.0</ele><time>2026-04-19T13:26:11.037Z</time></trkpt><trkpt lat="42.921030964285585" lon="10.530342990059866"><ele>31.0</ele><time>2026-04-19T13:26:12.036Z</time></trkpt><trkpt lat="42.92096300282387" lon="10.53061591009727"><ele>31.0</ele><time>2026-04-19T13:26:14.032Z</time></trkpt><trkpt lat="42.92094553356285" lon="10.53074542413796"><ele>31.0</ele><time>2026-04-19T13:26:15.033Z</time></trkpt><trkpt lat="42.920927808454124" lon="10.531313212975133"><ele>31.0</ele><time>2026-04-19T13:26:16.031Z</time></trkpt><trkpt lat="42.92096626092347" lon="10.530895923446447"><ele>30.0</ele><time>2026-04-19T13:26:17.031Z</time></trkpt><trkpt lat="42.92114309998595" lon="10.530010135356903"><ele>30.0</ele><time>2026-04-19T13:26:46Z</time></trkpt><trkpt lat="42.921216834695066" lon="10.530045154389649"><ele>30.0</ele><time>2026-04-19T13:26:50Z</time></trkpt><trkpt lat="42.92115532960061" lon="10.530112937070854"><ele>30.0</ele><time>2026-04-19T13:26:56Z</time></trkpt><trkpt lat="42.921114076075256" lon="10.53019396924186"><ele>30.0</ele><time>2026-04-19T13:27:03Z</time></trkpt><trkpt lat="42.92109701503893" lon="10.530283254990271"><ele>30.0</ele><time>2026-04-19T13:27:09Z</time></trkpt><trkpt lat="42.92107418676936" lon="10.530375182295133"><ele>30.0</ele><time>2026-04-19T13:27:16Z</time></trkpt></trkseg></trk></gpx>